﻿<?xml version="1.0" encoding="utf-8"?><gpx creator="Garmin Desktop App" version="1.1" xsi:schemaLocation="http://www.topografix.com/GPX/1/1 http://www.topografix.com/GPX/1/1/gpx.xsd http://www.garmin.com/xmlschemas/WaypointExtension/v1 http://www8.garmin.com/xmlschemas/WaypointExtensionv1.xsd http://www.garmin.com/xmlschemas/TrackPointExtension/v1 http://www.garmin.com/xmlschemas/TrackPointExtensionv1.xsd http://www.garmin.com/xmlschemas/GpxExtensions/v3 http://www8.garmin.com/xmlschemas/GpxExtensionsv3.xsd http://www.garmin.com/xmlschemas/ActivityExtension/v1 http://www8.garmin.com/xmlschemas/ActivityExtensionv1.xsd http://www.garmin.com/xmlschemas/AdventuresExtensions/v1 http://www8.garmin.com/xmlschemas/AdventuresExtensionv1.xsd http://www.garmin.com/xmlschemas/PressureExtension/v1 http://www.garmin.com/xmlschemas/PressureExtensionv1.xsd http://www.garmin.com/xmlschemas/TripExtensions/v1 http://www.garmin.com/xmlschemas/TripExtensionsv1.xsd http://www.garmin.com/xmlschemas/TripMetaDataExtensions/v1 http://www.garmin.com/xmlschemas/TripMetaDataExtensionsv1.xsd http://www.garmin.com/xmlschemas/ViaPointTransportationModeExtensions/v1 http://www.garmin.com/xmlschemas/ViaPointTransportationModeExtensionsv1.xsd http://www.garmin.com/xmlschemas/CreationTimeExtension/v1 http://www.garmin.com/xmlschemas/CreationTimeExtensionsv1.xsd http://www.garmin.com/xmlschemas/AccelerationExtension/v1 http://www.garmin.com/xmlschemas/AccelerationExtensionv1.xsd http://www.garmin.com/xmlschemas/PowerExtension/v1 http://www.garmin.com/xmlschemas/PowerExtensionv1.xsd http://www.garmin.com/xmlschemas/VideoExtension/v1 http://www.garmin.com/xmlschemas/VideoExtensionv1.xsd" xmlns="http://www.topografix.com/GPX/1/1" xmlns:xsi="http://www.w3.org/2001/XMLSchema-instance" xmlns:wptx1="http://www.garmin.com/xmlschemas/WaypointExtension/v1" xmlns:gpxtrx="http://www.garmin.com/xmlschemas/GpxExtensions/v3" xmlns:gpxtpx="http://www.garmin.com/xmlschemas/TrackPointExtension/v1" xmlns:gpxx="http://www.garmin.com/xmlschemas/GpxExtensions/v3" xmlns:trp="http://www.garmin.com/xmlschemas/TripExtensions/v1" xmlns:adv="http://www.garmin.com/xmlschemas/AdventuresExtensions/v1" xmlns:prs="http://www.garmin.com/xmlschemas/PressureExtension/v1" xmlns:tmd="http://www.garmin.com/xmlschemas/TripMetaDataExtensions/v1" xmlns:vptm="http://www.garmin.com/xmlschemas/ViaPointTransportationModeExtensions/v1" xmlns:ctx="http://www.garmin.com/xmlschemas/CreationTimeExtension/v1" xmlns:gpxacc="http://www.garmin.com/xmlschemas/AccelerationExtension/v1" xmlns:gpxpx="http://www.garmin.com/xmlschemas/PowerExtension/v1" xmlns:vidx1="http://www.garmin.com/xmlschemas/VideoExtension/v1">

  <metadata>
    <link href="http://www.garmin.com">
      <text>Garmin International</text>
    </link>
    <time>2026-04-26T07:44:53Z</time>
    <bounds maxlat="59.082841873168945" maxlon="30.011987686157227" minlat="59.061684608459473" minlon="30.003597736358643" />
  </metadata>

  <trk>
    <name>Трек</name>
    <extensions>
      <gpxx:TrackExtension>
        <gpxx:DisplayColor>DarkGreen</gpxx:DisplayColor>
      </gpxx:TrackExtension>
    </extensions>
    <trkseg>
      <trkpt lat="59.061727523803711" lon="30.011773109436035">
        <time>2026-04-25T08:53:05Z</time>
      </trkpt>
      <trkpt lat="59.061727523803711" lon="30.011730194091797">
        <time>2026-04-25T08:53:08Z</time>
      </trkpt>
      <trkpt lat="59.061706066131592" lon="30.011837482452393">
        <time>2026-04-25T08:53:10Z</time>
      </trkpt>
      <trkpt lat="59.061684608459473" lon="30.011858940124512">
        <time>2026-04-25T08:53:13Z</time>
      </trkpt>
      <trkpt lat="59.061727523803711" lon="30.011794567108154">
        <time>2026-04-25T08:53:15Z</time>
      </trkpt>
      <trkpt lat="59.061727523803711" lon="30.011794567108154">
        <time>2026-04-25T08:53:18Z</time>
      </trkpt>
      <trkpt lat="59.06174898147583" lon="30.011816024780273">
        <time>2026-04-25T08:53:20Z</time>
      </trkpt>
      <trkpt lat="59.06174898147583" lon="30.011816024780273">
        <time>2026-04-25T08:53:23Z</time>
      </trkpt>
      <trkpt lat="59.06174898147583" lon="30.011794567108154">
        <time>2026-04-25T08:53:25Z</time>
      </trkpt>
      <trkpt lat="59.06174898147583" lon="30.011794567108154">
        <time>2026-04-25T08:53:28Z</time>
      </trkpt>
      <trkpt lat="59.061727523803711" lon="30.011837482452393">
        <time>2026-04-25T08:53:30Z</time>
      </trkpt>
      <trkpt lat="59.06174898147583" lon="30.011816024780273">
        <time>2026-04-25T08:53:33Z</time>
      </trkpt>
      <trkpt lat="59.06174898147583" lon="30.011816024780273">
        <time>2026-04-25T08:53:35Z</time>
      </trkpt>
      <trkpt lat="59.06174898147583" lon="30.011816024780273">
        <time>2026-04-25T08:53:45Z</time>
      </trkpt>
      <trkpt lat="59.06174898147583" lon="30.011816024780273">
        <time>2026-04-25T08:53:48Z</time>
      </trkpt>
      <trkpt lat="59.06174898147583" lon="30.011816024780273">
        <time>2026-04-25T08:53:50Z</time>
      </trkpt>
      <trkpt lat="59.06174898147583" lon="30.011816024780273">
        <time>2026-04-25T08:53:53Z</time>
      </trkpt>
      <trkpt lat="59.06174898147583" lon="30.011816024780273">
        <time>2026-04-25T08:53:55Z</time>
      </trkpt>
      <trkpt lat="59.061770439147949" lon="30.011816024780273">
        <time>2026-04-25T08:53:58Z</time>
      </trkpt>
      <trkpt lat="59.061770439147949" lon="30.011816024780273">
        <time>2026-04-25T08:54:00Z</time>
      </trkpt>
      <trkpt lat="59.061770439147949" lon="30.011816024780273">
        <time>2026-04-25T08:54:03Z</time>
      </trkpt>
      <trkpt lat="59.061791896820068" lon="30.011816024780273">
        <time>2026-04-25T08:54:05Z</time>
      </trkpt>
      <trkpt lat="59.061791896820068" lon="30.011816024780273">
        <time>2026-04-25T08:54:08Z</time>
      </trkpt>
      <trkpt lat="59.061791896820068" lon="30.011816024780273">
        <time>2026-04-25T08:54:10Z</time>
      </trkpt>
      <trkpt lat="59.061791896820068" lon="30.011816024780273">
        <time>2026-04-25T08:54:13Z</time>
      </trkpt>
      <trkpt lat="59.061791896820068" lon="30.011816024780273">
        <time>2026-04-25T08:54:15Z</time>
      </trkpt>
      <trkpt lat="59.061791896820068" lon="30.011816024780273">
        <time>2026-04-25T08:54:18Z</time>
      </trkpt>
      <trkpt lat="59.061791896820068" lon="30.011794567108154">
        <time>2026-04-25T08:54:20Z</time>
      </trkpt>
      <trkpt lat="59.061791896820068" lon="30.011794567108154">
        <time>2026-04-25T08:54:23Z</time>
      </trkpt>
      <trkpt lat="59.061791896820068" lon="30.011794567108154">
        <time>2026-04-25T08:54:25Z</time>
      </trkpt>
      <trkpt lat="59.061791896820068" lon="30.011773109436035">
        <time>2026-04-25T08:54:28Z</time>
      </trkpt>
      <trkpt lat="59.061791896820068" lon="30.011773109436035">
        <time>2026-04-25T08:54:30Z</time>
      </trkpt>
      <trkpt lat="59.061791896820068" lon="30.011773109436035">
        <time>2026-04-25T08:54:33Z</time>
      </trkpt>
      <trkpt lat="59.061770439147949" lon="30.011773109436035">
        <time>2026-04-25T08:54:35Z</time>
      </trkpt>
      <trkpt lat="59.061770439147949" lon="30.011773109436035">
        <time>2026-04-25T08:54:38Z</time>
      </trkpt>
      <trkpt lat="59.061770439147949" lon="30.011773109436035">
        <time>2026-04-25T08:54:40Z</time>
      </trkpt>
      <trkpt lat="59.061770439147949" lon="30.011773109436035">
        <time>2026-04-25T08:54:43Z</time>
      </trkpt>
      <trkpt lat="59.061770439147949" lon="30.011773109436035">
        <time>2026-04-25T08:54:45Z</time>
      </trkpt>
      <trkpt lat="59.061770439147949" lon="30.011773109436035">
        <time>2026-04-25T08:54:48Z</time>
      </trkpt>
      <trkpt lat="59.061770439147949" lon="30.011751651763916">
        <time>2026-04-25T08:54:50Z</time>
      </trkpt>
      <trkpt lat="59.061770439147949" lon="30.011730194091797">
        <time>2026-04-25T08:54:53Z</time>
      </trkpt>
      <trkpt lat="59.061770439147949" lon="30.011708736419678">
        <time>2026-04-25T08:54:55Z</time>
      </trkpt>
      <trkpt lat="59.06174898147583" lon="30.011708736419678">
        <time>2026-04-25T08:54:58Z</time>
      </trkpt>
      <trkpt lat="59.06174898147583" lon="30.011708736419678">
        <time>2026-04-25T08:55:00Z</time>
      </trkpt>
      <trkpt lat="59.06174898147583" lon="30.011708736419678">
        <time>2026-04-25T08:55:03Z</time>
      </trkpt>
      <trkpt lat="59.06174898147583" lon="30.011708736419678">
        <time>2026-04-25T08:55:05Z</time>
      </trkpt>
      <trkpt lat="59.06174898147583" lon="30.011708736419678">
        <time>2026-04-25T08:55:08Z</time>
      </trkpt>
      <trkpt lat="59.061727523803711" lon="30.011687278747559">
        <time>2026-04-25T08:55:10Z</time>
      </trkpt>
      <trkpt lat="59.061727523803711" lon="30.011687278747559">
        <time>2026-04-25T08:55:13Z</time>
      </trkpt>
      <trkpt lat="59.061727523803711" lon="30.011687278747559">
        <time>2026-04-25T08:55:15Z</time>
      </trkpt>
      <trkpt lat="59.061727523803711" lon="30.011687278747559">
        <time>2026-04-25T08:55:18Z</time>
      </trkpt>
      <trkpt lat="59.061706066131592" lon="30.011687278747559">
        <time>2026-04-25T08:55:20Z</time>
      </trkpt>
      <trkpt lat="59.061706066131592" lon="30.011687278747559">
        <time>2026-04-25T08:55:23Z</time>
      </trkpt>
      <trkpt lat="59.061706066131592" lon="30.011687278747559">
        <time>2026-04-25T08:55:25Z</time>
      </trkpt>
      <trkpt lat="59.061706066131592" lon="30.011687278747559">
        <time>2026-04-25T08:55:28Z</time>
      </trkpt>
      <trkpt lat="59.061706066131592" lon="30.011687278747559">
        <time>2026-04-25T08:55:30Z</time>
      </trkpt>
      <trkpt lat="59.061706066131592" lon="30.011687278747559">
        <time>2026-04-25T08:55:33Z</time>
      </trkpt>
      <trkpt lat="59.061706066131592" lon="30.011708736419678">
        <time>2026-04-25T08:55:35Z</time>
      </trkpt>
      <trkpt lat="59.061706066131592" lon="30.011708736419678">
        <time>2026-04-25T08:55:38Z</time>
      </trkpt>
      <trkpt lat="59.061706066131592" lon="30.011730194091797">
        <time>2026-04-25T08:55:40Z</time>
      </trkpt>
      <trkpt lat="59.061706066131592" lon="30.011730194091797">
        <time>2026-04-25T08:55:43Z</time>
      </trkpt>
      <trkpt lat="59.061706066131592" lon="30.011730194091797">
        <time>2026-04-25T08:55:45Z</time>
      </trkpt>
      <trkpt lat="59.061706066131592" lon="30.011730194091797">
        <time>2026-04-25T08:55:48Z</time>
      </trkpt>
      <trkpt lat="59.061706066131592" lon="30.011730194091797">
        <time>2026-04-25T08:55:50Z</time>
      </trkpt>
      <trkpt lat="59.061706066131592" lon="30.011730194091797">
        <time>2026-04-25T08:55:53Z</time>
      </trkpt>
      <trkpt lat="59.061706066131592" lon="30.011751651763916">
        <time>2026-04-25T08:55:55Z</time>
      </trkpt>
      <trkpt lat="59.061706066131592" lon="30.011751651763916">
        <time>2026-04-25T08:55:58Z</time>
      </trkpt>
      <trkpt lat="59.061706066131592" lon="30.011751651763916">
        <time>2026-04-25T08:56:00Z</time>
      </trkpt>
      <trkpt lat="59.061706066131592" lon="30.011751651763916">
        <time>2026-04-25T08:56:03Z</time>
      </trkpt>
      <trkpt lat="59.061706066131592" lon="30.011751651763916">
        <time>2026-04-25T08:56:05Z</time>
      </trkpt>
      <trkpt lat="59.061706066131592" lon="30.011751651763916">
        <time>2026-04-25T08:56:08Z</time>
      </trkpt>
      <trkpt lat="59.061706066131592" lon="30.011751651763916">
        <time>2026-04-25T08:56:10Z</time>
      </trkpt>
      <trkpt lat="59.061727523803711" lon="30.011751651763916">
        <time>2026-04-25T08:56:13Z</time>
      </trkpt>
      <trkpt lat="59.061727523803711" lon="30.011751651763916">
        <time>2026-04-25T08:56:15Z</time>
      </trkpt>
      <trkpt lat="59.061727523803711" lon="30.011751651763916">
        <time>2026-04-25T08:56:18Z</time>
      </trkpt>
      <trkpt lat="59.061727523803711" lon="30.011751651763916">
        <time>2026-04-25T08:56:20Z</time>
      </trkpt>
      <trkpt lat="59.061727523803711" lon="30.011751651763916">
        <time>2026-04-25T08:56:23Z</time>
      </trkpt>
      <trkpt lat="59.061727523803711" lon="30.011751651763916">
        <time>2026-04-25T08:56:25Z</time>
      </trkpt>
      <trkpt lat="59.061727523803711" lon="30.011751651763916">
        <time>2026-04-25T08:56:28Z</time>
      </trkpt>
      <trkpt lat="59.061727523803711" lon="30.011708736419678">
        <time>2026-04-25T08:56:30Z</time>
      </trkpt>
      <trkpt lat="59.061727523803711" lon="30.011622905731201">
        <time>2026-04-25T08:56:33Z</time>
      </trkpt>
      <trkpt lat="59.061770439147949" lon="30.011558532714844">
        <time>2026-04-25T08:56:35Z</time>
      </trkpt>
      <trkpt lat="59.061791896820068" lon="30.011472702026367">
        <time>2026-04-25T08:56:38Z</time>
      </trkpt>
      <trkpt lat="59.061813354492188" lon="30.011386871337891">
        <time>2026-04-25T08:56:40Z</time>
      </trkpt>
      <trkpt lat="59.061856269836426" lon="30.011365413665771">
        <time>2026-04-25T08:56:43Z</time>
      </trkpt>
      <trkpt lat="59.061856269836426" lon="30.011365413665771">
        <time>2026-04-25T08:56:45Z</time>
      </trkpt>
      <trkpt lat="59.061899185180664" lon="30.011386871337891">
        <time>2026-04-25T08:56:48Z</time>
      </trkpt>
      <trkpt lat="59.061877727508545" lon="30.011365413665771">
        <time>2026-04-25T08:56:50Z</time>
      </trkpt>
      <trkpt lat="59.061877727508545" lon="30.011343955993652">
        <time>2026-04-25T08:56:53Z</time>
      </trkpt>
      <trkpt lat="59.061899185180664" lon="30.011343955993652">
        <time>2026-04-25T08:56:55Z</time>
      </trkpt>
      <trkpt lat="59.061920642852783" lon="30.011301040649414">
        <time>2026-04-25T08:56:58Z</time>
      </trkpt>
      <trkpt lat="59.061920642852783" lon="30.011301040649414">
        <time>2026-04-25T08:57:00Z</time>
      </trkpt>
      <trkpt lat="59.061920642852783" lon="30.011301040649414">
        <time>2026-04-25T08:57:03Z</time>
      </trkpt>
      <trkpt lat="59.061942100524902" lon="30.011279582977295">
        <time>2026-04-25T08:57:05Z</time>
      </trkpt>
      <trkpt lat="59.061942100524902" lon="30.011236667633057">
        <time>2026-04-25T08:57:08Z</time>
      </trkpt>
      <trkpt lat="59.061942100524902" lon="30.011258125305176">
        <time>2026-04-25T08:57:10Z</time>
      </trkpt>
      <trkpt lat="59.061942100524902" lon="30.011258125305176">
        <time>2026-04-25T08:57:13Z</time>
      </trkpt>
      <trkpt lat="59.061920642852783" lon="30.011279582977295">
        <time>2026-04-25T08:57:15Z</time>
      </trkpt>
      <trkpt lat="59.061942100524902" lon="30.011258125305176">
        <time>2026-04-25T08:57:18Z</time>
      </trkpt>
      <trkpt lat="59.061942100524902" lon="30.011236667633057">
        <time>2026-04-25T08:57:20Z</time>
      </trkpt>
      <trkpt lat="59.061942100524902" lon="30.011236667633057">
        <time>2026-04-25T08:57:23Z</time>
      </trkpt>
      <trkpt lat="59.061942100524902" lon="30.011258125305176">
        <time>2026-04-25T08:57:25Z</time>
      </trkpt>
      <trkpt lat="59.061942100524902" lon="30.011258125305176">
        <time>2026-04-25T08:57:28Z</time>
      </trkpt>
      <trkpt lat="59.061942100524902" lon="30.011258125305176">
        <time>2026-04-25T08:57:30Z</time>
      </trkpt>
      <trkpt lat="59.061942100524902" lon="30.011258125305176">
        <time>2026-04-25T08:57:33Z</time>
      </trkpt>
      <trkpt lat="59.061942100524902" lon="30.011258125305176">
        <time>2026-04-25T08:57:35Z</time>
      </trkpt>
      <trkpt lat="59.061963558197021" lon="30.011236667633057">
        <time>2026-04-25T08:57:38Z</time>
      </trkpt>
      <trkpt lat="59.061985015869141" lon="30.011236667633057">
        <time>2026-04-25T08:57:40Z</time>
      </trkpt>
      <trkpt lat="59.06200647354126" lon="30.011215209960938">
        <time>2026-04-25T08:57:43Z</time>
      </trkpt>
      <trkpt lat="59.062049388885498" lon="30.011236667633057">
        <time>2026-04-25T08:57:45Z</time>
      </trkpt>
      <trkpt lat="59.062070846557617" lon="30.011215209960938">
        <time>2026-04-25T08:57:48Z</time>
      </trkpt>
      <trkpt lat="59.062049388885498" lon="30.011215209960938">
        <time>2026-04-25T08:57:50Z</time>
      </trkpt>
      <trkpt lat="59.062049388885498" lon="30.011215209960938">
        <time>2026-04-25T08:57:53Z</time>
      </trkpt>
      <trkpt lat="59.062049388885498" lon="30.011193752288818">
        <time>2026-04-25T08:57:55Z</time>
      </trkpt>
      <trkpt lat="59.062049388885498" lon="30.011236667633057">
        <time>2026-04-25T08:57:58Z</time>
      </trkpt>
      <trkpt lat="59.062070846557617" lon="30.011236667633057">
        <time>2026-04-25T08:58:00Z</time>
      </trkpt>
      <trkpt lat="59.062092304229736" lon="30.011236667633057">
        <time>2026-04-25T08:58:03Z</time>
      </trkpt>
      <trkpt lat="59.062135219573975" lon="30.011215209960938">
        <time>2026-04-25T08:58:05Z</time>
      </trkpt>
      <trkpt lat="59.062156677246094" lon="30.011193752288818">
        <time>2026-04-25T08:58:08Z</time>
      </trkpt>
      <trkpt lat="59.062135219573975" lon="30.011215209960938">
        <time>2026-04-25T08:58:10Z</time>
      </trkpt>
      <trkpt lat="59.062156677246094" lon="30.011193752288818">
        <time>2026-04-25T08:58:13Z</time>
      </trkpt>
      <trkpt lat="59.062199592590332" lon="30.011129379272461">
        <time>2026-04-25T08:58:15Z</time>
      </trkpt>
      <trkpt lat="59.06224250793457" lon="30.011065006256104">
        <time>2026-04-25T08:58:18Z</time>
      </trkpt>
      <trkpt lat="59.062285423278809" lon="30.011000633239746">
        <time>2026-04-25T08:58:20Z</time>
      </trkpt>
      <trkpt lat="59.062285423278809" lon="30.011022090911865">
        <time>2026-04-25T08:58:23Z</time>
      </trkpt>
      <trkpt lat="59.062306880950928" lon="30.011000633239746">
        <time>2026-04-25T08:58:25Z</time>
      </trkpt>
      <trkpt lat="59.062306880950928" lon="30.011000633239746">
        <time>2026-04-25T08:58:28Z</time>
      </trkpt>
      <trkpt lat="59.062306880950928" lon="30.010979175567627">
        <time>2026-04-25T08:58:30Z</time>
      </trkpt>
      <trkpt lat="59.062306880950928" lon="30.010979175567627">
        <time>2026-04-25T08:58:33Z</time>
      </trkpt>
      <trkpt lat="59.062306880950928" lon="30.010979175567627">
        <time>2026-04-25T08:58:35Z</time>
      </trkpt>
      <trkpt lat="59.062306880950928" lon="30.010979175567627">
        <time>2026-04-25T08:58:38Z</time>
      </trkpt>
      <trkpt lat="59.062306880950928" lon="30.010979175567627">
        <time>2026-04-25T08:58:40Z</time>
      </trkpt>
      <trkpt lat="59.062306880950928" lon="30.010979175567627">
        <time>2026-04-25T08:58:43Z</time>
      </trkpt>
      <trkpt lat="59.062306880950928" lon="30.010979175567627">
        <time>2026-04-25T08:58:45Z</time>
      </trkpt>
      <trkpt lat="59.062328338623047" lon="30.010936260223389">
        <time>2026-04-25T08:58:48Z</time>
      </trkpt>
      <trkpt lat="59.062328338623047" lon="30.01091480255127">
        <time>2026-04-25T08:58:50Z</time>
      </trkpt>
      <trkpt lat="59.062349796295166" lon="30.01091480255127">
        <time>2026-04-25T08:58:53Z</time>
      </trkpt>
      <trkpt lat="59.062392711639404" lon="30.01089334487915">
        <time>2026-04-25T08:58:55Z</time>
      </trkpt>
      <trkpt lat="59.062392711639404" lon="30.010871887207031">
        <time>2026-04-25T08:58:58Z</time>
      </trkpt>
      <trkpt lat="59.062392711639404" lon="30.010871887207031">
        <time>2026-04-25T08:59:00Z</time>
      </trkpt>
      <trkpt lat="59.062414169311523" lon="30.01089334487915">
        <time>2026-04-25T08:59:03Z</time>
      </trkpt>
      <trkpt lat="59.062435626983643" lon="30.01091480255127">
        <time>2026-04-25T08:59:05Z</time>
      </trkpt>
      <trkpt lat="59.062435626983643" lon="30.01091480255127">
        <time>2026-04-25T08:59:08Z</time>
      </trkpt>
      <trkpt lat="59.062457084655762" lon="30.010936260223389">
        <time>2026-04-25T08:59:10Z</time>
      </trkpt>
      <trkpt lat="59.062478542327881" lon="30.010936260223389">
        <time>2026-04-25T08:59:13Z</time>
      </trkpt>
      <trkpt lat="59.062478542327881" lon="30.010936260223389">
        <time>2026-04-25T08:59:15Z</time>
      </trkpt>
      <trkpt lat="59.062478542327881" lon="30.010936260223389">
        <time>2026-04-25T08:59:18Z</time>
      </trkpt>
      <trkpt lat="59.062478542327881" lon="30.010936260223389">
        <time>2026-04-25T08:59:20Z</time>
      </trkpt>
      <trkpt lat="59.062478542327881" lon="30.010936260223389">
        <time>2026-04-25T08:59:23Z</time>
      </trkpt>
      <trkpt lat="59.062478542327881" lon="30.010936260223389">
        <time>2026-04-25T08:59:25Z</time>
      </trkpt>
      <trkpt lat="59.062478542327881" lon="30.010936260223389">
        <time>2026-04-25T08:59:28Z</time>
      </trkpt>
      <trkpt lat="59.062478542327881" lon="30.010936260223389">
        <time>2026-04-25T08:59:30Z</time>
      </trkpt>
      <trkpt lat="59.062478542327881" lon="30.010936260223389">
        <time>2026-04-25T08:59:33Z</time>
      </trkpt>
      <trkpt lat="59.062457084655762" lon="30.010936260223389">
        <time>2026-04-25T08:59:35Z</time>
      </trkpt>
      <trkpt lat="59.062414169311523" lon="30.010936260223389">
        <time>2026-04-25T08:59:38Z</time>
      </trkpt>
      <trkpt lat="59.062392711639404" lon="30.010936260223389">
        <time>2026-04-25T08:59:40Z</time>
      </trkpt>
      <trkpt lat="59.062392711639404" lon="30.010936260223389">
        <time>2026-04-25T08:59:43Z</time>
      </trkpt>
      <trkpt lat="59.062371253967285" lon="30.010936260223389">
        <time>2026-04-25T08:59:45Z</time>
      </trkpt>
      <trkpt lat="59.062392711639404" lon="30.010936260223389">
        <time>2026-04-25T08:59:48Z</time>
      </trkpt>
      <trkpt lat="59.062414169311523" lon="30.01091480255127">
        <time>2026-04-25T08:59:50Z</time>
      </trkpt>
      <trkpt lat="59.062435626983643" lon="30.01089334487915">
        <time>2026-04-25T08:59:53Z</time>
      </trkpt>
      <trkpt lat="59.062457084655762" lon="30.010850429534912">
        <time>2026-04-25T08:59:55Z</time>
      </trkpt>
      <trkpt lat="59.062478542327881" lon="30.010828971862793">
        <time>2026-04-25T08:59:58Z</time>
      </trkpt>
      <trkpt lat="59.062457084655762" lon="30.010828971862793">
        <time>2026-04-25T09:00:00Z</time>
      </trkpt>
      <trkpt lat="59.062478542327881" lon="30.010828971862793">
        <time>2026-04-25T09:00:03Z</time>
      </trkpt>
      <trkpt lat="59.0625" lon="30.010786056518555">
        <time>2026-04-25T09:00:05Z</time>
      </trkpt>
      <trkpt lat="59.062564373016357" lon="30.010721683502197">
        <time>2026-04-25T09:00:08Z</time>
      </trkpt>
      <trkpt lat="59.062585830688477" lon="30.010678768157959">
        <time>2026-04-25T09:00:10Z</time>
      </trkpt>
      <trkpt lat="59.062607288360596" lon="30.010678768157959">
        <time>2026-04-25T09:00:13Z</time>
      </trkpt>
      <trkpt lat="59.062650203704834" lon="30.010635852813721">
        <time>2026-04-25T09:00:15Z</time>
      </trkpt>
      <trkpt lat="59.062650203704834" lon="30.010614395141602">
        <time>2026-04-25T09:00:18Z</time>
      </trkpt>
      <trkpt lat="59.062650203704834" lon="30.010635852813721">
        <time>2026-04-25T09:00:20Z</time>
      </trkpt>
      <trkpt lat="59.062693119049072" lon="30.010614395141602">
        <time>2026-04-25T09:00:23Z</time>
      </trkpt>
      <trkpt lat="59.062714576721191" lon="30.010571479797363">
        <time>2026-04-25T09:00:25Z</time>
      </trkpt>
      <trkpt lat="59.062736034393311" lon="30.010550022125244">
        <time>2026-04-25T09:00:28Z</time>
      </trkpt>
      <trkpt lat="59.06275749206543" lon="30.010528564453125">
        <time>2026-04-25T09:00:30Z</time>
      </trkpt>
      <trkpt lat="59.062800407409668" lon="30.010485649108887">
        <time>2026-04-25T09:00:33Z</time>
      </trkpt>
      <trkpt lat="59.062821865081787" lon="30.010464191436768">
        <time>2026-04-25T09:00:35Z</time>
      </trkpt>
      <trkpt lat="59.062843322753906" lon="30.010442733764648">
        <time>2026-04-25T09:00:38Z</time>
      </trkpt>
      <trkpt lat="59.062843322753906" lon="30.010421276092529">
        <time>2026-04-25T09:00:40Z</time>
      </trkpt>
      <trkpt lat="59.062864780426025" lon="30.01039981842041">
        <time>2026-04-25T09:00:43Z</time>
      </trkpt>
      <trkpt lat="59.062886238098145" lon="30.010378360748291">
        <time>2026-04-25T09:00:45Z</time>
      </trkpt>
      <trkpt lat="59.062907695770264" lon="30.010356903076172">
        <time>2026-04-25T09:00:48Z</time>
      </trkpt>
      <trkpt lat="59.062929153442383" lon="30.010313987731934">
        <time>2026-04-25T09:00:50Z</time>
      </trkpt>
      <trkpt lat="59.062972068786621" lon="30.010292530059814">
        <time>2026-04-25T09:00:53Z</time>
      </trkpt>
      <trkpt lat="59.06299352645874" lon="30.010228157043457">
        <time>2026-04-25T09:00:55Z</time>
      </trkpt>
      <trkpt lat="59.063014984130859" lon="30.010228157043457">
        <time>2026-04-25T09:00:58Z</time>
      </trkpt>
      <trkpt lat="59.063036441802979" lon="30.010185241699219">
        <time>2026-04-25T09:01:00Z</time>
      </trkpt>
      <trkpt lat="59.063036441802979" lon="30.0101637840271">
        <time>2026-04-25T09:01:03Z</time>
      </trkpt>
      <trkpt lat="59.063057899475098" lon="30.0101637840271">
        <time>2026-04-25T09:01:05Z</time>
      </trkpt>
      <trkpt lat="59.063079357147217" lon="30.01014232635498">
        <time>2026-04-25T09:01:08Z</time>
      </trkpt>
      <trkpt lat="59.063079357147217" lon="30.010120868682861">
        <time>2026-04-25T09:01:10Z</time>
      </trkpt>
      <trkpt lat="59.063122272491455" lon="30.010077953338623">
        <time>2026-04-25T09:01:13Z</time>
      </trkpt>
      <trkpt lat="59.063143730163574" lon="30.010056495666504">
        <time>2026-04-25T09:01:15Z</time>
      </trkpt>
      <trkpt lat="59.063165187835693" lon="30.010035037994385">
        <time>2026-04-25T09:01:18Z</time>
      </trkpt>
      <trkpt lat="59.063186645507813" lon="30.010013580322266">
        <time>2026-04-25T09:01:20Z</time>
      </trkpt>
      <trkpt lat="59.063186645507813" lon="30.010013580322266">
        <time>2026-04-25T09:01:23Z</time>
      </trkpt>
      <trkpt lat="59.063208103179932" lon="30.009992122650146">
        <time>2026-04-25T09:01:25Z</time>
      </trkpt>
      <trkpt lat="59.063272476196289" lon="30.009927749633789">
        <time>2026-04-25T09:01:28Z</time>
      </trkpt>
      <trkpt lat="59.063272476196289" lon="30.009927749633789">
        <time>2026-04-25T09:01:30Z</time>
      </trkpt>
      <trkpt lat="59.063293933868408" lon="30.00990629196167">
        <time>2026-04-25T09:01:33Z</time>
      </trkpt>
      <trkpt lat="59.063315391540527" lon="30.009884834289551">
        <time>2026-04-25T09:01:35Z</time>
      </trkpt>
      <trkpt lat="59.063336849212646" lon="30.009863376617432">
        <time>2026-04-25T09:01:38Z</time>
      </trkpt>
      <trkpt lat="59.063358306884766" lon="30.009841918945313">
        <time>2026-04-25T09:01:40Z</time>
      </trkpt>
      <trkpt lat="59.063379764556885" lon="30.009799003601074">
        <time>2026-04-25T09:01:43Z</time>
      </trkpt>
      <trkpt lat="59.063422679901123" lon="30.009756088256836">
        <time>2026-04-25T09:01:45Z</time>
      </trkpt>
      <trkpt lat="59.063444137573242" lon="30.009734630584717">
        <time>2026-04-25T09:01:48Z</time>
      </trkpt>
      <trkpt lat="59.06348705291748" lon="30.009713172912598">
        <time>2026-04-25T09:01:50Z</time>
      </trkpt>
      <trkpt lat="59.0635085105896" lon="30.009691715240479">
        <time>2026-04-25T09:01:53Z</time>
      </trkpt>
      <trkpt lat="59.063529968261719" lon="30.00964879989624">
        <time>2026-04-25T09:01:55Z</time>
      </trkpt>
      <trkpt lat="59.063572883605957" lon="30.009627342224121">
        <time>2026-04-25T09:01:58Z</time>
      </trkpt>
      <trkpt lat="59.063572883605957" lon="30.009627342224121">
        <time>2026-04-25T09:02:00Z</time>
      </trkpt>
      <trkpt lat="59.063615798950195" lon="30.009605884552002">
        <time>2026-04-25T09:02:03Z</time>
      </trkpt>
      <trkpt lat="59.063637256622314" lon="30.009584426879883">
        <time>2026-04-25T09:02:05Z</time>
      </trkpt>
      <trkpt lat="59.063680171966553" lon="30.009584426879883">
        <time>2026-04-25T09:02:08Z</time>
      </trkpt>
      <trkpt lat="59.063701629638672" lon="30.009562969207764">
        <time>2026-04-25T09:02:10Z</time>
      </trkpt>
      <trkpt lat="59.063723087310791" lon="30.009562969207764">
        <time>2026-04-25T09:02:13Z</time>
      </trkpt>
      <trkpt lat="59.06374454498291" lon="30.009520053863525">
        <time>2026-04-25T09:02:15Z</time>
      </trkpt>
      <trkpt lat="59.063766002655029" lon="30.009477138519287">
        <time>2026-04-25T09:02:18Z</time>
      </trkpt>
      <trkpt lat="59.063766002655029" lon="30.009477138519287">
        <time>2026-04-25T09:02:20Z</time>
      </trkpt>
      <trkpt lat="59.063787460327148" lon="30.009477138519287">
        <time>2026-04-25T09:02:23Z</time>
      </trkpt>
      <trkpt lat="59.063830375671387" lon="30.009434223175049">
        <time>2026-04-25T09:02:25Z</time>
      </trkpt>
      <trkpt lat="59.063830375671387" lon="30.00941276550293">
        <time>2026-04-25T09:02:28Z</time>
      </trkpt>
      <trkpt lat="59.063851833343506" lon="30.00941276550293">
        <time>2026-04-25T09:02:30Z</time>
      </trkpt>
      <trkpt lat="59.063873291015625" lon="30.009369850158691">
        <time>2026-04-25T09:02:33Z</time>
      </trkpt>
      <trkpt lat="59.063873291015625" lon="30.009348392486572">
        <time>2026-04-25T09:02:35Z</time>
      </trkpt>
      <trkpt lat="59.063916206359863" lon="30.009326934814453">
        <time>2026-04-25T09:02:38Z</time>
      </trkpt>
      <trkpt lat="59.063959121704102" lon="30.009262561798096">
        <time>2026-04-25T09:02:40Z</time>
      </trkpt>
      <trkpt lat="59.06400203704834" lon="30.009198188781738">
        <time>2026-04-25T09:02:43Z</time>
      </trkpt>
      <trkpt lat="59.064044952392578" lon="30.009176731109619">
        <time>2026-04-25T09:02:45Z</time>
      </trkpt>
      <trkpt lat="59.064066410064697" lon="30.009133815765381">
        <time>2026-04-25T09:02:48Z</time>
      </trkpt>
      <trkpt lat="59.064087867736816" lon="30.009112358093262">
        <time>2026-04-25T09:02:50Z</time>
      </trkpt>
      <trkpt lat="59.064109325408936" lon="30.009090900421143">
        <time>2026-04-25T09:02:53Z</time>
      </trkpt>
      <trkpt lat="59.064152240753174" lon="30.009026527404785">
        <time>2026-04-25T09:02:55Z</time>
      </trkpt>
      <trkpt lat="59.064173698425293" lon="30.009005069732666">
        <time>2026-04-25T09:02:58Z</time>
      </trkpt>
      <trkpt lat="59.064216613769531" lon="30.008983612060547">
        <time>2026-04-25T09:03:00Z</time>
      </trkpt>
      <trkpt lat="59.06425952911377" lon="30.008962154388428">
        <time>2026-04-25T09:03:03Z</time>
      </trkpt>
      <trkpt lat="59.064280986785889" lon="30.008940696716309">
        <time>2026-04-25T09:03:05Z</time>
      </trkpt>
      <trkpt lat="59.064302444458008" lon="30.00889778137207">
        <time>2026-04-25T09:03:08Z</time>
      </trkpt>
      <trkpt lat="59.064323902130127" lon="30.008876323699951">
        <time>2026-04-25T09:03:10Z</time>
      </trkpt>
      <trkpt lat="59.064366817474365" lon="30.008876323699951">
        <time>2026-04-25T09:03:13Z</time>
      </trkpt>
      <trkpt lat="59.064366817474365" lon="30.008854866027832">
        <time>2026-04-25T09:03:15Z</time>
      </trkpt>
      <trkpt lat="59.064366817474365" lon="30.008854866027832">
        <time>2026-04-25T09:03:18Z</time>
      </trkpt>
      <trkpt lat="59.064409732818604" lon="30.008833408355713">
        <time>2026-04-25T09:03:20Z</time>
      </trkpt>
      <trkpt lat="59.064452648162842" lon="30.008811950683594">
        <time>2026-04-25T09:03:23Z</time>
      </trkpt>
      <trkpt lat="59.064538478851318" lon="30.008747577667236">
        <time>2026-04-25T09:03:25Z</time>
      </trkpt>
      <trkpt lat="59.064581394195557" lon="30.008726119995117">
        <time>2026-04-25T09:03:28Z</time>
      </trkpt>
      <trkpt lat="59.064581394195557" lon="30.008726119995117">
        <time>2026-04-25T09:03:30Z</time>
      </trkpt>
      <trkpt lat="59.064624309539795" lon="30.008704662322998">
        <time>2026-04-25T09:03:33Z</time>
      </trkpt>
      <trkpt lat="59.064645767211914" lon="30.00866174697876">
        <time>2026-04-25T09:03:35Z</time>
      </trkpt>
      <trkpt lat="59.064645767211914" lon="30.00866174697876">
        <time>2026-04-25T09:03:38Z</time>
      </trkpt>
      <trkpt lat="59.064667224884033" lon="30.008683204650879">
        <time>2026-04-25T09:03:40Z</time>
      </trkpt>
      <trkpt lat="59.064731597900391" lon="30.008640289306641">
        <time>2026-04-25T09:03:43Z</time>
      </trkpt>
      <trkpt lat="59.064774513244629" lon="30.008597373962402">
        <time>2026-04-25T09:03:45Z</time>
      </trkpt>
      <trkpt lat="59.064795970916748" lon="30.008597373962402">
        <time>2026-04-25T09:03:48Z</time>
      </trkpt>
      <trkpt lat="59.064817428588867" lon="30.008597373962402">
        <time>2026-04-25T09:03:50Z</time>
      </trkpt>
      <trkpt lat="59.064838886260986" lon="30.008575916290283">
        <time>2026-04-25T09:03:53Z</time>
      </trkpt>
      <trkpt lat="59.064881801605225" lon="30.008554458618164">
        <time>2026-04-25T09:03:55Z</time>
      </trkpt>
      <trkpt lat="59.064903259277344" lon="30.008533000946045">
        <time>2026-04-25T09:03:58Z</time>
      </trkpt>
      <trkpt lat="59.064946174621582" lon="30.008511543273926">
        <time>2026-04-25T09:04:00Z</time>
      </trkpt>
      <trkpt lat="59.06498908996582" lon="30.008490085601807">
        <time>2026-04-25T09:04:03Z</time>
      </trkpt>
      <trkpt lat="59.06498908996582" lon="30.008490085601807">
        <time>2026-04-25T09:04:05Z</time>
      </trkpt>
      <trkpt lat="59.065010547637939" lon="30.008490085601807">
        <time>2026-04-25T09:04:08Z</time>
      </trkpt>
      <trkpt lat="59.065053462982178" lon="30.008425712585449">
        <time>2026-04-25T09:04:10Z</time>
      </trkpt>
      <trkpt lat="59.065096378326416" lon="30.00840425491333">
        <time>2026-04-25T09:04:13Z</time>
      </trkpt>
      <trkpt lat="59.065117835998535" lon="30.008425712585449">
        <time>2026-04-25T09:04:15Z</time>
      </trkpt>
      <trkpt lat="59.065160751342773" lon="30.008425712585449">
        <time>2026-04-25T09:04:18Z</time>
      </trkpt>
      <trkpt lat="59.065182209014893" lon="30.00840425491333">
        <time>2026-04-25T09:04:20Z</time>
      </trkpt>
      <trkpt lat="59.065203666687012" lon="30.008382797241211">
        <time>2026-04-25T09:04:23Z</time>
      </trkpt>
      <trkpt lat="59.065225124359131" lon="30.008361339569092">
        <time>2026-04-25T09:04:25Z</time>
      </trkpt>
      <trkpt lat="59.06524658203125" lon="30.008361339569092">
        <time>2026-04-25T09:04:28Z</time>
      </trkpt>
      <trkpt lat="59.065268039703369" lon="30.008318424224854">
        <time>2026-04-25T09:04:30Z</time>
      </trkpt>
      <trkpt lat="59.065289497375488" lon="30.008296966552734">
        <time>2026-04-25T09:04:33Z</time>
      </trkpt>
      <trkpt lat="59.065332412719727" lon="30.008296966552734">
        <time>2026-04-25T09:04:35Z</time>
      </trkpt>
      <trkpt lat="59.065353870391846" lon="30.008275508880615">
        <time>2026-04-25T09:04:38Z</time>
      </trkpt>
      <trkpt lat="59.065375328063965" lon="30.008296966552734">
        <time>2026-04-25T09:04:40Z</time>
      </trkpt>
      <trkpt lat="59.065418243408203" lon="30.008296966552734">
        <time>2026-04-25T09:04:43Z</time>
      </trkpt>
      <trkpt lat="59.065439701080322" lon="30.008211135864258">
        <time>2026-04-25T09:04:45Z</time>
      </trkpt>
      <trkpt lat="59.065418243408203" lon="30.00816822052002">
        <time>2026-04-25T09:04:48Z</time>
      </trkpt>
      <trkpt lat="59.065439701080322" lon="30.008211135864258">
        <time>2026-04-25T09:04:50Z</time>
      </trkpt>
      <trkpt lat="59.065461158752441" lon="30.008211135864258">
        <time>2026-04-25T09:04:53Z</time>
      </trkpt>
      <trkpt lat="59.065439701080322" lon="30.008211135864258">
        <time>2026-04-25T09:04:55Z</time>
      </trkpt>
      <trkpt lat="59.065439701080322" lon="30.008211135864258">
        <time>2026-04-25T09:04:58Z</time>
      </trkpt>
      <trkpt lat="59.065418243408203" lon="30.008189678192139">
        <time>2026-04-25T09:05:00Z</time>
      </trkpt>
      <trkpt lat="59.065418243408203" lon="30.008189678192139">
        <time>2026-04-25T09:05:03Z</time>
      </trkpt>
      <trkpt lat="59.065418243408203" lon="30.008189678192139">
        <time>2026-04-25T09:05:05Z</time>
      </trkpt>
      <trkpt lat="59.065439701080322" lon="30.008211135864258">
        <time>2026-04-25T09:05:08Z</time>
      </trkpt>
      <trkpt lat="59.065439701080322" lon="30.008232593536377">
        <time>2026-04-25T09:05:10Z</time>
      </trkpt>
      <trkpt lat="59.065461158752441" lon="30.008232593536377">
        <time>2026-04-25T09:05:13Z</time>
      </trkpt>
      <trkpt lat="59.065461158752441" lon="30.008211135864258">
        <time>2026-04-25T09:05:15Z</time>
      </trkpt>
      <trkpt lat="59.065439701080322" lon="30.008211135864258">
        <time>2026-04-25T09:05:18Z</time>
      </trkpt>
      <trkpt lat="59.065396785736084" lon="30.008232593536377">
        <time>2026-04-25T09:05:20Z</time>
      </trkpt>
      <trkpt lat="59.065375328063965" lon="30.008211135864258">
        <time>2026-04-25T09:05:23Z</time>
      </trkpt>
      <trkpt lat="59.065375328063965" lon="30.008232593536377">
        <time>2026-04-25T09:05:25Z</time>
      </trkpt>
      <trkpt lat="59.065418243408203" lon="30.008296966552734">
        <time>2026-04-25T09:05:28Z</time>
      </trkpt>
      <trkpt lat="59.065461158752441" lon="30.008296966552734">
        <time>2026-04-25T09:05:30Z</time>
      </trkpt>
      <trkpt lat="59.065482616424561" lon="30.008275508880615">
        <time>2026-04-25T09:05:33Z</time>
      </trkpt>
      <trkpt lat="59.06550407409668" lon="30.008275508880615">
        <time>2026-04-25T09:05:35Z</time>
      </trkpt>
      <trkpt lat="59.065482616424561" lon="30.008254051208496">
        <time>2026-04-25T09:05:38Z</time>
      </trkpt>
      <trkpt lat="59.065461158752441" lon="30.008254051208496">
        <time>2026-04-25T09:05:40Z</time>
      </trkpt>
      <trkpt lat="59.065439701080322" lon="30.008232593536377">
        <time>2026-04-25T09:05:43Z</time>
      </trkpt>
      <trkpt lat="59.065439701080322" lon="30.008232593536377">
        <time>2026-04-25T09:05:45Z</time>
      </trkpt>
      <trkpt lat="59.065439701080322" lon="30.008232593536377">
        <time>2026-04-25T09:05:48Z</time>
      </trkpt>
      <trkpt lat="59.065439701080322" lon="30.008232593536377">
        <time>2026-04-25T09:05:50Z</time>
      </trkpt>
      <trkpt lat="59.065439701080322" lon="30.008232593536377">
        <time>2026-04-25T09:05:53Z</time>
      </trkpt>
      <trkpt lat="59.065439701080322" lon="30.008232593536377">
        <time>2026-04-25T09:05:55Z</time>
      </trkpt>
      <trkpt lat="59.065439701080322" lon="30.008232593536377">
        <time>2026-04-25T09:05:58Z</time>
      </trkpt>
      <trkpt lat="59.065439701080322" lon="30.008232593536377">
        <time>2026-04-25T09:06:00Z</time>
      </trkpt>
      <trkpt lat="59.065461158752441" lon="30.008232593536377">
        <time>2026-04-25T09:06:03Z</time>
      </trkpt>
      <trkpt lat="59.065461158752441" lon="30.008232593536377">
        <time>2026-04-25T09:06:05Z</time>
      </trkpt>
      <trkpt lat="59.065482616424561" lon="30.008232593536377">
        <time>2026-04-25T09:06:08Z</time>
      </trkpt>
      <trkpt lat="59.06550407409668" lon="30.008232593536377">
        <time>2026-04-25T09:06:10Z</time>
      </trkpt>
      <trkpt lat="59.06550407409668" lon="30.008232593536377">
        <time>2026-04-25T09:06:13Z</time>
      </trkpt>
      <trkpt lat="59.065482616424561" lon="30.008232593536377">
        <time>2026-04-25T09:06:15Z</time>
      </trkpt>
      <trkpt lat="59.065461158752441" lon="30.008232593536377">
        <time>2026-04-25T09:06:18Z</time>
      </trkpt>
      <trkpt lat="59.065461158752441" lon="30.008211135864258">
        <time>2026-04-25T09:06:20Z</time>
      </trkpt>
      <trkpt lat="59.065461158752441" lon="30.008189678192139">
        <time>2026-04-25T09:06:23Z</time>
      </trkpt>
      <trkpt lat="59.065461158752441" lon="30.0081467628479">
        <time>2026-04-25T09:06:25Z</time>
      </trkpt>
      <trkpt lat="59.065439701080322" lon="30.00816822052002">
        <time>2026-04-25T09:06:28Z</time>
      </trkpt>
      <trkpt lat="59.065439701080322" lon="30.00816822052002">
        <time>2026-04-25T09:06:30Z</time>
      </trkpt>
      <trkpt lat="59.065461158752441" lon="30.00816822052002">
        <time>2026-04-25T09:06:33Z</time>
      </trkpt>
      <trkpt lat="59.065461158752441" lon="30.008125305175781">
        <time>2026-04-25T09:06:35Z</time>
      </trkpt>
      <trkpt lat="59.065461158752441" lon="30.008103847503662">
        <time>2026-04-25T09:06:38Z</time>
      </trkpt>
      <trkpt lat="59.065461158752441" lon="30.008103847503662">
        <time>2026-04-25T09:06:40Z</time>
      </trkpt>
      <trkpt lat="59.065482616424561" lon="30.008103847503662">
        <time>2026-04-25T09:06:43Z</time>
      </trkpt>
      <trkpt lat="59.06550407409668" lon="30.008082389831543">
        <time>2026-04-25T09:06:45Z</time>
      </trkpt>
      <trkpt lat="59.065525531768799" lon="30.008082389831543">
        <time>2026-04-25T09:06:48Z</time>
      </trkpt>
      <trkpt lat="59.065525531768799" lon="30.008082389831543">
        <time>2026-04-25T09:06:50Z</time>
      </trkpt>
      <trkpt lat="59.065546989440918" lon="30.008060932159424">
        <time>2026-04-25T09:06:53Z</time>
      </trkpt>
      <trkpt lat="59.065546989440918" lon="30.008039474487305">
        <time>2026-04-25T09:06:55Z</time>
      </trkpt>
      <trkpt lat="59.065525531768799" lon="30.007975101470947">
        <time>2026-04-25T09:06:58Z</time>
      </trkpt>
      <trkpt lat="59.065525531768799" lon="30.007975101470947">
        <time>2026-04-25T09:07:00Z</time>
      </trkpt>
      <trkpt lat="59.065525531768799" lon="30.007975101470947">
        <time>2026-04-25T09:07:03Z</time>
      </trkpt>
      <trkpt lat="59.065525531768799" lon="30.007953643798828">
        <time>2026-04-25T09:07:05Z</time>
      </trkpt>
      <trkpt lat="59.065525531768799" lon="30.007932186126709">
        <time>2026-04-25T09:07:08Z</time>
      </trkpt>
      <trkpt lat="59.06550407409668" lon="30.007889270782471">
        <time>2026-04-25T09:07:10Z</time>
      </trkpt>
      <trkpt lat="59.06550407409668" lon="30.007867813110352">
        <time>2026-04-25T09:07:13Z</time>
      </trkpt>
      <trkpt lat="59.065482616424561" lon="30.007867813110352">
        <time>2026-04-25T09:07:15Z</time>
      </trkpt>
      <trkpt lat="59.065482616424561" lon="30.007867813110352">
        <time>2026-04-25T09:07:18Z</time>
      </trkpt>
      <trkpt lat="59.06550407409668" lon="30.007867813110352">
        <time>2026-04-25T09:07:20Z</time>
      </trkpt>
      <trkpt lat="59.06550407409668" lon="30.007867813110352">
        <time>2026-04-25T09:07:23Z</time>
      </trkpt>
      <trkpt lat="59.06550407409668" lon="30.007867813110352">
        <time>2026-04-25T09:07:25Z</time>
      </trkpt>
      <trkpt lat="59.06550407409668" lon="30.007867813110352">
        <time>2026-04-25T09:07:28Z</time>
      </trkpt>
      <trkpt lat="59.06550407409668" lon="30.007824897766113">
        <time>2026-04-25T09:07:30Z</time>
      </trkpt>
      <trkpt lat="59.065525531768799" lon="30.007803440093994">
        <time>2026-04-25T09:07:33Z</time>
      </trkpt>
      <trkpt lat="59.065525531768799" lon="30.007803440093994">
        <time>2026-04-25T09:07:35Z</time>
      </trkpt>
      <trkpt lat="59.065525531768799" lon="30.007803440093994">
        <time>2026-04-25T09:07:38Z</time>
      </trkpt>
      <trkpt lat="59.06550407409668" lon="30.007760524749756">
        <time>2026-04-25T09:07:40Z</time>
      </trkpt>
      <trkpt lat="59.065482616424561" lon="30.007781982421875">
        <time>2026-04-25T09:07:43Z</time>
      </trkpt>
      <trkpt lat="59.065461158752441" lon="30.007760524749756">
        <time>2026-04-25T09:07:45Z</time>
      </trkpt>
      <trkpt lat="59.065461158752441" lon="30.007760524749756">
        <time>2026-04-25T09:07:48Z</time>
      </trkpt>
      <trkpt lat="59.065439701080322" lon="30.007717609405518">
        <time>2026-04-25T09:07:50Z</time>
      </trkpt>
      <trkpt lat="59.065439701080322" lon="30.007696151733398">
        <time>2026-04-25T09:07:53Z</time>
      </trkpt>
      <trkpt lat="59.065418243408203" lon="30.007674694061279">
        <time>2026-04-25T09:07:55Z</time>
      </trkpt>
      <trkpt lat="59.065396785736084" lon="30.007674694061279">
        <time>2026-04-25T09:07:58Z</time>
      </trkpt>
      <trkpt lat="59.065396785736084" lon="30.00765323638916">
        <time>2026-04-25T09:08:00Z</time>
      </trkpt>
      <trkpt lat="59.065375328063965" lon="30.007588863372803">
        <time>2026-04-25T09:08:03Z</time>
      </trkpt>
      <trkpt lat="59.065375328063965" lon="30.007545948028564">
        <time>2026-04-25T09:08:05Z</time>
      </trkpt>
      <trkpt lat="59.065375328063965" lon="30.007503032684326">
        <time>2026-04-25T09:08:08Z</time>
      </trkpt>
      <trkpt lat="59.065375328063965" lon="30.007438659667969">
        <time>2026-04-25T09:08:10Z</time>
      </trkpt>
      <trkpt lat="59.065353870391846" lon="30.00741720199585">
        <time>2026-04-25T09:08:13Z</time>
      </trkpt>
      <trkpt lat="59.065353870391846" lon="30.007374286651611">
        <time>2026-04-25T09:08:15Z</time>
      </trkpt>
      <trkpt lat="59.065353870391846" lon="30.007352828979492">
        <time>2026-04-25T09:08:18Z</time>
      </trkpt>
      <trkpt lat="59.065353870391846" lon="30.007352828979492">
        <time>2026-04-25T09:08:20Z</time>
      </trkpt>
      <trkpt lat="59.065332412719727" lon="30.007352828979492">
        <time>2026-04-25T09:08:23Z</time>
      </trkpt>
      <trkpt lat="59.065353870391846" lon="30.007352828979492">
        <time>2026-04-25T09:08:25Z</time>
      </trkpt>
      <trkpt lat="59.065353870391846" lon="30.007352828979492">
        <time>2026-04-25T09:08:28Z</time>
      </trkpt>
      <trkpt lat="59.065353870391846" lon="30.007352828979492">
        <time>2026-04-25T09:08:30Z</time>
      </trkpt>
      <trkpt lat="59.065353870391846" lon="30.007352828979492">
        <time>2026-04-25T09:08:33Z</time>
      </trkpt>
      <trkpt lat="59.065353870391846" lon="30.007352828979492">
        <time>2026-04-25T09:08:35Z</time>
      </trkpt>
      <trkpt lat="59.065353870391846" lon="30.007352828979492">
        <time>2026-04-25T09:08:38Z</time>
      </trkpt>
      <trkpt lat="59.065353870391846" lon="30.007352828979492">
        <time>2026-04-25T09:08:40Z</time>
      </trkpt>
      <trkpt lat="59.065353870391846" lon="30.007352828979492">
        <time>2026-04-25T09:08:43Z</time>
      </trkpt>
      <trkpt lat="59.065353870391846" lon="30.007352828979492">
        <time>2026-04-25T09:08:45Z</time>
      </trkpt>
      <trkpt lat="59.065353870391846" lon="30.007352828979492">
        <time>2026-04-25T09:08:48Z</time>
      </trkpt>
      <trkpt lat="59.065353870391846" lon="30.007374286651611">
        <time>2026-04-25T09:08:50Z</time>
      </trkpt>
      <trkpt lat="59.065375328063965" lon="30.007352828979492">
        <time>2026-04-25T09:08:53Z</time>
      </trkpt>
      <trkpt lat="59.065353870391846" lon="30.007331371307373">
        <time>2026-04-25T09:08:55Z</time>
      </trkpt>
      <trkpt lat="59.065332412719727" lon="30.007309913635254">
        <time>2026-04-25T09:08:58Z</time>
      </trkpt>
      <trkpt lat="59.065332412719727" lon="30.007309913635254">
        <time>2026-04-25T09:09:00Z</time>
      </trkpt>
      <trkpt lat="59.065332412719727" lon="30.007309913635254">
        <time>2026-04-25T09:09:03Z</time>
      </trkpt>
      <trkpt lat="59.065332412719727" lon="30.007309913635254">
        <time>2026-04-25T09:09:05Z</time>
      </trkpt>
      <trkpt lat="59.065332412719727" lon="30.007309913635254">
        <time>2026-04-25T09:09:08Z</time>
      </trkpt>
      <trkpt lat="59.065310955047607" lon="30.007309913635254">
        <time>2026-04-25T09:09:10Z</time>
      </trkpt>
      <trkpt lat="59.065310955047607" lon="30.007331371307373">
        <time>2026-04-25T09:09:13Z</time>
      </trkpt>
      <trkpt lat="59.065268039703369" lon="30.007331371307373">
        <time>2026-04-25T09:09:15Z</time>
      </trkpt>
      <trkpt lat="59.06524658203125" lon="30.007352828979492">
        <time>2026-04-25T09:09:18Z</time>
      </trkpt>
      <trkpt lat="59.06524658203125" lon="30.007374286651611">
        <time>2026-04-25T09:09:20Z</time>
      </trkpt>
      <trkpt lat="59.065225124359131" lon="30.007352828979492">
        <time>2026-04-25T09:09:23Z</time>
      </trkpt>
      <trkpt lat="59.065225124359131" lon="30.007374286651611">
        <time>2026-04-25T09:09:25Z</time>
      </trkpt>
      <trkpt lat="59.065203666687012" lon="30.007374286651611">
        <time>2026-04-25T09:09:28Z</time>
      </trkpt>
      <trkpt lat="59.065203666687012" lon="30.007374286651611">
        <time>2026-04-25T09:09:30Z</time>
      </trkpt>
      <trkpt lat="59.065203666687012" lon="30.007374286651611">
        <time>2026-04-25T09:09:33Z</time>
      </trkpt>
      <trkpt lat="59.065203666687012" lon="30.007374286651611">
        <time>2026-04-25T09:09:35Z</time>
      </trkpt>
      <trkpt lat="59.065203666687012" lon="30.007374286651611">
        <time>2026-04-25T09:09:38Z</time>
      </trkpt>
      <trkpt lat="59.065203666687012" lon="30.007374286651611">
        <time>2026-04-25T09:09:40Z</time>
      </trkpt>
      <trkpt lat="59.065203666687012" lon="30.007374286651611">
        <time>2026-04-25T09:09:43Z</time>
      </trkpt>
      <trkpt lat="59.065182209014893" lon="30.00739574432373">
        <time>2026-04-25T09:09:45Z</time>
      </trkpt>
      <trkpt lat="59.065160751342773" lon="30.007438659667969">
        <time>2026-04-25T09:09:48Z</time>
      </trkpt>
      <trkpt lat="59.065117835998535" lon="30.007460117340088">
        <time>2026-04-25T09:09:50Z</time>
      </trkpt>
      <trkpt lat="59.065096378326416" lon="30.007503032684326">
        <time>2026-04-25T09:09:53Z</time>
      </trkpt>
      <trkpt lat="59.065074920654297" lon="30.007481575012207">
        <time>2026-04-25T09:09:55Z</time>
      </trkpt>
      <trkpt lat="59.065074920654297" lon="30.007481575012207">
        <time>2026-04-25T09:09:58Z</time>
      </trkpt>
      <trkpt lat="59.065074920654297" lon="30.007503032684326">
        <time>2026-04-25T09:10:00Z</time>
      </trkpt>
      <trkpt lat="59.065096378326416" lon="30.007503032684326">
        <time>2026-04-25T09:10:03Z</time>
      </trkpt>
      <trkpt lat="59.065096378326416" lon="30.007545948028564">
        <time>2026-04-25T09:10:05Z</time>
      </trkpt>
      <trkpt lat="59.065096378326416" lon="30.007567405700684">
        <time>2026-04-25T09:10:08Z</time>
      </trkpt>
      <trkpt lat="59.065096378326416" lon="30.007588863372803">
        <time>2026-04-25T09:10:10Z</time>
      </trkpt>
      <trkpt lat="59.065117835998535" lon="30.007631778717041">
        <time>2026-04-25T09:10:13Z</time>
      </trkpt>
      <trkpt lat="59.065139293670654" lon="30.007674694061279">
        <time>2026-04-25T09:10:15Z</time>
      </trkpt>
      <trkpt lat="59.065160751342773" lon="30.007696151733398">
        <time>2026-04-25T09:10:18Z</time>
      </trkpt>
      <trkpt lat="59.065182209014893" lon="30.007739067077637">
        <time>2026-04-25T09:10:20Z</time>
      </trkpt>
      <trkpt lat="59.065203666687012" lon="30.007781982421875">
        <time>2026-04-25T09:10:23Z</time>
      </trkpt>
      <trkpt lat="59.065182209014893" lon="30.007803440093994">
        <time>2026-04-25T09:10:25Z</time>
      </trkpt>
      <trkpt lat="59.065182209014893" lon="30.007846355438232">
        <time>2026-04-25T09:10:28Z</time>
      </trkpt>
      <trkpt lat="59.065203666687012" lon="30.007889270782471">
        <time>2026-04-25T09:10:30Z</time>
      </trkpt>
      <trkpt lat="59.065203666687012" lon="30.007953643798828">
        <time>2026-04-25T09:10:33Z</time>
      </trkpt>
      <trkpt lat="59.065225124359131" lon="30.007996559143066">
        <time>2026-04-25T09:10:35Z</time>
      </trkpt>
      <trkpt lat="59.065225124359131" lon="30.008039474487305">
        <time>2026-04-25T09:10:38Z</time>
      </trkpt>
      <trkpt lat="59.065225124359131" lon="30.008060932159424">
        <time>2026-04-25T09:10:40Z</time>
      </trkpt>
      <trkpt lat="59.065203666687012" lon="30.008082389831543">
        <time>2026-04-25T09:10:43Z</time>
      </trkpt>
      <trkpt lat="59.065203666687012" lon="30.0081467628479">
        <time>2026-04-25T09:10:45Z</time>
      </trkpt>
      <trkpt lat="59.065203666687012" lon="30.008211135864258">
        <time>2026-04-25T09:10:48Z</time>
      </trkpt>
      <trkpt lat="59.065203666687012" lon="30.008275508880615">
        <time>2026-04-25T09:10:50Z</time>
      </trkpt>
      <trkpt lat="59.065203666687012" lon="30.008296966552734">
        <time>2026-04-25T09:10:53Z</time>
      </trkpt>
      <trkpt lat="59.065225124359131" lon="30.008296966552734">
        <time>2026-04-25T09:10:55Z</time>
      </trkpt>
      <trkpt lat="59.065225124359131" lon="30.008296966552734">
        <time>2026-04-25T09:10:58Z</time>
      </trkpt>
      <trkpt lat="59.065225124359131" lon="30.008275508880615">
        <time>2026-04-25T09:11:00Z</time>
      </trkpt>
      <trkpt lat="59.06524658203125" lon="30.008275508880615">
        <time>2026-04-25T09:11:03Z</time>
      </trkpt>
      <trkpt lat="59.065268039703369" lon="30.008275508880615">
        <time>2026-04-25T09:11:05Z</time>
      </trkpt>
      <trkpt lat="59.065289497375488" lon="30.008254051208496">
        <time>2026-04-25T09:11:08Z</time>
      </trkpt>
      <trkpt lat="59.065310955047607" lon="30.008254051208496">
        <time>2026-04-25T09:11:10Z</time>
      </trkpt>
      <trkpt lat="59.065332412719727" lon="30.008275508880615">
        <time>2026-04-25T09:11:13Z</time>
      </trkpt>
      <trkpt lat="59.065353870391846" lon="30.008296966552734">
        <time>2026-04-25T09:11:15Z</time>
      </trkpt>
      <trkpt lat="59.065396785736084" lon="30.008275508880615">
        <time>2026-04-25T09:11:18Z</time>
      </trkpt>
      <trkpt lat="59.065375328063965" lon="30.008275508880615">
        <time>2026-04-25T09:11:20Z</time>
      </trkpt>
      <trkpt lat="59.065375328063965" lon="30.008275508880615">
        <time>2026-04-25T09:11:23Z</time>
      </trkpt>
      <trkpt lat="59.065375328063965" lon="30.008275508880615">
        <time>2026-04-25T09:11:25Z</time>
      </trkpt>
      <trkpt lat="59.065375328063965" lon="30.008275508880615">
        <time>2026-04-25T09:11:28Z</time>
      </trkpt>
      <trkpt lat="59.065375328063965" lon="30.008275508880615">
        <time>2026-04-25T09:11:30Z</time>
      </trkpt>
      <trkpt lat="59.065396785736084" lon="30.008275508880615">
        <time>2026-04-25T09:11:33Z</time>
      </trkpt>
      <trkpt lat="59.065418243408203" lon="30.008254051208496">
        <time>2026-04-25T09:11:35Z</time>
      </trkpt>
      <trkpt lat="59.065418243408203" lon="30.008211135864258">
        <time>2026-04-25T09:11:38Z</time>
      </trkpt>
      <trkpt lat="59.065439701080322" lon="30.00816822052002">
        <time>2026-04-25T09:11:40Z</time>
      </trkpt>
      <trkpt lat="59.065461158752441" lon="30.00816822052002">
        <time>2026-04-25T09:11:43Z</time>
      </trkpt>
      <trkpt lat="59.065482616424561" lon="30.008189678192139">
        <time>2026-04-25T09:11:45Z</time>
      </trkpt>
      <trkpt lat="59.06550407409668" lon="30.008211135864258">
        <time>2026-04-25T09:11:48Z</time>
      </trkpt>
      <trkpt lat="59.065546989440918" lon="30.008189678192139">
        <time>2026-04-25T09:11:50Z</time>
      </trkpt>
      <trkpt lat="59.065568447113037" lon="30.008189678192139">
        <time>2026-04-25T09:11:53Z</time>
      </trkpt>
      <trkpt lat="59.065589904785156" lon="30.00816822052002">
        <time>2026-04-25T09:11:55Z</time>
      </trkpt>
      <trkpt lat="59.065632820129395" lon="30.00816822052002">
        <time>2026-04-25T09:11:58Z</time>
      </trkpt>
      <trkpt lat="59.065654277801514" lon="30.0081467628479">
        <time>2026-04-25T09:12:00Z</time>
      </trkpt>
      <trkpt lat="59.065654277801514" lon="30.00816822052002">
        <time>2026-04-25T09:12:03Z</time>
      </trkpt>
      <trkpt lat="59.065654277801514" lon="30.00816822052002">
        <time>2026-04-25T09:12:05Z</time>
      </trkpt>
      <trkpt lat="59.065654277801514" lon="30.00816822052002">
        <time>2026-04-25T09:12:08Z</time>
      </trkpt>
      <trkpt lat="59.065654277801514" lon="30.00816822052002">
        <time>2026-04-25T09:12:10Z</time>
      </trkpt>
      <trkpt lat="59.065654277801514" lon="30.00816822052002">
        <time>2026-04-25T09:12:13Z</time>
      </trkpt>
      <trkpt lat="59.065654277801514" lon="30.00816822052002">
        <time>2026-04-25T09:12:15Z</time>
      </trkpt>
      <trkpt lat="59.065654277801514" lon="30.00816822052002">
        <time>2026-04-25T09:12:18Z</time>
      </trkpt>
      <trkpt lat="59.065654277801514" lon="30.00816822052002">
        <time>2026-04-25T09:12:20Z</time>
      </trkpt>
      <trkpt lat="59.065654277801514" lon="30.00816822052002">
        <time>2026-04-25T09:12:23Z</time>
      </trkpt>
      <trkpt lat="59.065654277801514" lon="30.00816822052002">
        <time>2026-04-25T09:12:25Z</time>
      </trkpt>
      <trkpt lat="59.065654277801514" lon="30.00816822052002">
        <time>2026-04-25T09:12:28Z</time>
      </trkpt>
      <trkpt lat="59.065654277801514" lon="30.00816822052002">
        <time>2026-04-25T09:12:30Z</time>
      </trkpt>
      <trkpt lat="59.065654277801514" lon="30.00816822052002">
        <time>2026-04-25T09:12:33Z</time>
      </trkpt>
      <trkpt lat="59.065654277801514" lon="30.00816822052002">
        <time>2026-04-25T09:12:35Z</time>
      </trkpt>
      <trkpt lat="59.065654277801514" lon="30.00816822052002">
        <time>2026-04-25T09:12:38Z</time>
      </trkpt>
      <trkpt lat="59.065654277801514" lon="30.00816822052002">
        <time>2026-04-25T09:12:40Z</time>
      </trkpt>
      <trkpt lat="59.065654277801514" lon="30.00816822052002">
        <time>2026-04-25T09:12:43Z</time>
      </trkpt>
      <trkpt lat="59.065654277801514" lon="30.00816822052002">
        <time>2026-04-25T09:12:45Z</time>
      </trkpt>
      <trkpt lat="59.065654277801514" lon="30.00816822052002">
        <time>2026-04-25T09:12:48Z</time>
      </trkpt>
      <trkpt lat="59.065654277801514" lon="30.00816822052002">
        <time>2026-04-25T09:12:50Z</time>
      </trkpt>
      <trkpt lat="59.065654277801514" lon="30.00816822052002">
        <time>2026-04-25T09:12:53Z</time>
      </trkpt>
      <trkpt lat="59.065654277801514" lon="30.00816822052002">
        <time>2026-04-25T09:12:55Z</time>
      </trkpt>
      <trkpt lat="59.065654277801514" lon="30.00816822052002">
        <time>2026-04-25T09:12:58Z</time>
      </trkpt>
      <trkpt lat="59.065654277801514" lon="30.00816822052002">
        <time>2026-04-25T09:13:00Z</time>
      </trkpt>
      <trkpt lat="59.065654277801514" lon="30.00816822052002">
        <time>2026-04-25T09:13:03Z</time>
      </trkpt>
      <trkpt lat="59.065654277801514" lon="30.00816822052002">
        <time>2026-04-25T09:13:05Z</time>
      </trkpt>
      <trkpt lat="59.065654277801514" lon="30.00816822052002">
        <time>2026-04-25T09:13:08Z</time>
      </trkpt>
      <trkpt lat="59.065654277801514" lon="30.00816822052002">
        <time>2026-04-25T09:13:10Z</time>
      </trkpt>
      <trkpt lat="59.065654277801514" lon="30.00816822052002">
        <time>2026-04-25T09:13:13Z</time>
      </trkpt>
      <trkpt lat="59.065654277801514" lon="30.00816822052002">
        <time>2026-04-25T09:13:15Z</time>
      </trkpt>
      <trkpt lat="59.065654277801514" lon="30.00816822052002">
        <time>2026-04-25T09:13:18Z</time>
      </trkpt>
      <trkpt lat="59.065654277801514" lon="30.00816822052002">
        <time>2026-04-25T09:13:20Z</time>
      </trkpt>
      <trkpt lat="59.065654277801514" lon="30.00816822052002">
        <time>2026-04-25T09:13:23Z</time>
      </trkpt>
      <trkpt lat="59.065654277801514" lon="30.00816822052002">
        <time>2026-04-25T09:13:25Z</time>
      </trkpt>
      <trkpt lat="59.065654277801514" lon="30.00816822052002">
        <time>2026-04-25T09:13:28Z</time>
      </trkpt>
      <trkpt lat="59.065654277801514" lon="30.00816822052002">
        <time>2026-04-25T09:13:30Z</time>
      </trkpt>
      <trkpt lat="59.065675735473633" lon="30.0081467628479">
        <time>2026-04-25T09:13:33Z</time>
      </trkpt>
      <trkpt lat="59.065718650817871" lon="30.0081467628479">
        <time>2026-04-25T09:13:35Z</time>
      </trkpt>
      <trkpt lat="59.06574010848999" lon="30.008125305175781">
        <time>2026-04-25T09:13:38Z</time>
      </trkpt>
      <trkpt lat="59.06574010848999" lon="30.0081467628479">
        <time>2026-04-25T09:13:40Z</time>
      </trkpt>
      <trkpt lat="59.065761566162109" lon="30.008125305175781">
        <time>2026-04-25T09:13:43Z</time>
      </trkpt>
      <trkpt lat="59.065761566162109" lon="30.008103847503662">
        <time>2026-04-25T09:13:45Z</time>
      </trkpt>
      <trkpt lat="59.065761566162109" lon="30.008103847503662">
        <time>2026-04-25T09:13:48Z</time>
      </trkpt>
      <trkpt lat="59.065761566162109" lon="30.008039474487305">
        <time>2026-04-25T09:13:50Z</time>
      </trkpt>
      <trkpt lat="59.065761566162109" lon="30.008018016815186">
        <time>2026-04-25T09:13:53Z</time>
      </trkpt>
      <trkpt lat="59.065783023834229" lon="30.008018016815186">
        <time>2026-04-25T09:13:55Z</time>
      </trkpt>
      <trkpt lat="59.065804481506348" lon="30.008039474487305">
        <time>2026-04-25T09:13:58Z</time>
      </trkpt>
      <trkpt lat="59.065825939178467" lon="30.008039474487305">
        <time>2026-04-25T09:14:00Z</time>
      </trkpt>
      <trkpt lat="59.065847396850586" lon="30.008039474487305">
        <time>2026-04-25T09:14:03Z</time>
      </trkpt>
      <trkpt lat="59.065868854522705" lon="30.008060932159424">
        <time>2026-04-25T09:14:05Z</time>
      </trkpt>
      <trkpt lat="59.065868854522705" lon="30.008060932159424">
        <time>2026-04-25T09:14:08Z</time>
      </trkpt>
      <trkpt lat="59.065890312194824" lon="30.008060932159424">
        <time>2026-04-25T09:14:10Z</time>
      </trkpt>
      <trkpt lat="59.065890312194824" lon="30.008060932159424">
        <time>2026-04-25T09:14:13Z</time>
      </trkpt>
      <trkpt lat="59.065911769866943" lon="30.008039474487305">
        <time>2026-04-25T09:14:15Z</time>
      </trkpt>
      <trkpt lat="59.065911769866943" lon="30.008018016815186">
        <time>2026-04-25T09:14:18Z</time>
      </trkpt>
      <trkpt lat="59.065911769866943" lon="30.008018016815186">
        <time>2026-04-25T09:14:20Z</time>
      </trkpt>
      <trkpt lat="59.065933227539062" lon="30.008018016815186">
        <time>2026-04-25T09:14:23Z</time>
      </trkpt>
      <trkpt lat="59.065933227539062" lon="30.007996559143066">
        <time>2026-04-25T09:14:25Z</time>
      </trkpt>
      <trkpt lat="59.065933227539062" lon="30.007996559143066">
        <time>2026-04-25T09:14:28Z</time>
      </trkpt>
      <trkpt lat="59.065954685211182" lon="30.007975101470947">
        <time>2026-04-25T09:14:30Z</time>
      </trkpt>
      <trkpt lat="59.065976142883301" lon="30.007975101470947">
        <time>2026-04-25T09:14:33Z</time>
      </trkpt>
      <trkpt lat="59.06599760055542" lon="30.007953643798828">
        <time>2026-04-25T09:14:35Z</time>
      </trkpt>
      <trkpt lat="59.066019058227539" lon="30.007953643798828">
        <time>2026-04-25T09:14:38Z</time>
      </trkpt>
      <trkpt lat="59.066019058227539" lon="30.00791072845459">
        <time>2026-04-25T09:14:40Z</time>
      </trkpt>
      <trkpt lat="59.066019058227539" lon="30.007867813110352">
        <time>2026-04-25T09:14:43Z</time>
      </trkpt>
      <trkpt lat="59.066019058227539" lon="30.007824897766113">
        <time>2026-04-25T09:14:45Z</time>
      </trkpt>
      <trkpt lat="59.066040515899658" lon="30.007781982421875">
        <time>2026-04-25T09:14:48Z</time>
      </trkpt>
      <trkpt lat="59.066040515899658" lon="30.007760524749756">
        <time>2026-04-25T09:14:50Z</time>
      </trkpt>
      <trkpt lat="59.066061973571777" lon="30.007739067077637">
        <time>2026-04-25T09:14:53Z</time>
      </trkpt>
      <trkpt lat="59.066061973571777" lon="30.007739067077637">
        <time>2026-04-25T09:14:55Z</time>
      </trkpt>
      <trkpt lat="59.066104888916016" lon="30.007717609405518">
        <time>2026-04-25T09:14:58Z</time>
      </trkpt>
      <trkpt lat="59.066126346588135" lon="30.007696151733398">
        <time>2026-04-25T09:15:00Z</time>
      </trkpt>
      <trkpt lat="59.066126346588135" lon="30.007717609405518">
        <time>2026-04-25T09:15:03Z</time>
      </trkpt>
      <trkpt lat="59.066126346588135" lon="30.007717609405518">
        <time>2026-04-25T09:15:05Z</time>
      </trkpt>
      <trkpt lat="59.066126346588135" lon="30.007674694061279">
        <time>2026-04-25T09:15:08Z</time>
      </trkpt>
      <trkpt lat="59.066147804260254" lon="30.00765323638916">
        <time>2026-04-25T09:15:10Z</time>
      </trkpt>
      <trkpt lat="59.066147804260254" lon="30.007631778717041">
        <time>2026-04-25T09:15:13Z</time>
      </trkpt>
      <trkpt lat="59.066190719604492" lon="30.007567405700684">
        <time>2026-04-25T09:15:15Z</time>
      </trkpt>
      <trkpt lat="59.066212177276611" lon="30.007524490356445">
        <time>2026-04-25T09:15:18Z</time>
      </trkpt>
      <trkpt lat="59.06623363494873" lon="30.007460117340088">
        <time>2026-04-25T09:15:20Z</time>
      </trkpt>
      <trkpt lat="59.06625509262085" lon="30.00741720199585">
        <time>2026-04-25T09:15:23Z</time>
      </trkpt>
      <trkpt lat="59.06625509262085" lon="30.007438659667969">
        <time>2026-04-25T09:15:25Z</time>
      </trkpt>
      <trkpt lat="59.066212177276611" lon="30.007460117340088">
        <time>2026-04-25T09:15:28Z</time>
      </trkpt>
      <trkpt lat="59.066212177276611" lon="30.007460117340088">
        <time>2026-04-25T09:15:30Z</time>
      </trkpt>
      <trkpt lat="59.066212177276611" lon="30.007438659667969">
        <time>2026-04-25T09:15:33Z</time>
      </trkpt>
      <trkpt lat="59.066212177276611" lon="30.007438659667969">
        <time>2026-04-25T09:15:35Z</time>
      </trkpt>
      <trkpt lat="59.066212177276611" lon="30.007438659667969">
        <time>2026-04-25T09:15:38Z</time>
      </trkpt>
      <trkpt lat="59.066212177276611" lon="30.007438659667969">
        <time>2026-04-25T09:15:40Z</time>
      </trkpt>
      <trkpt lat="59.066212177276611" lon="30.007438659667969">
        <time>2026-04-25T09:15:43Z</time>
      </trkpt>
      <trkpt lat="59.066212177276611" lon="30.007438659667969">
        <time>2026-04-25T09:15:45Z</time>
      </trkpt>
      <trkpt lat="59.066212177276611" lon="30.007438659667969">
        <time>2026-04-25T09:15:48Z</time>
      </trkpt>
      <trkpt lat="59.066212177276611" lon="30.007438659667969">
        <time>2026-04-25T09:15:50Z</time>
      </trkpt>
      <trkpt lat="59.06623363494873" lon="30.007438659667969">
        <time>2026-04-25T09:15:53Z</time>
      </trkpt>
      <trkpt lat="59.06625509262085" lon="30.007438659667969">
        <time>2026-04-25T09:15:55Z</time>
      </trkpt>
      <trkpt lat="59.06625509262085" lon="30.007438659667969">
        <time>2026-04-25T09:15:58Z</time>
      </trkpt>
      <trkpt lat="59.066276550292969" lon="30.007524490356445">
        <time>2026-04-25T09:16:00Z</time>
      </trkpt>
      <trkpt lat="59.06625509262085" lon="30.007588863372803">
        <time>2026-04-25T09:16:03Z</time>
      </trkpt>
      <trkpt lat="59.06625509262085" lon="30.007567405700684">
        <time>2026-04-25T09:16:05Z</time>
      </trkpt>
      <trkpt lat="59.06625509262085" lon="30.007460117340088">
        <time>2026-04-25T09:16:08Z</time>
      </trkpt>
      <trkpt lat="59.066276550292969" lon="30.00741720199585">
        <time>2026-04-25T09:16:10Z</time>
      </trkpt>
      <trkpt lat="59.066298007965088" lon="30.00739574432373">
        <time>2026-04-25T09:16:13Z</time>
      </trkpt>
      <trkpt lat="59.066298007965088" lon="30.007374286651611">
        <time>2026-04-25T09:16:15Z</time>
      </trkpt>
      <trkpt lat="59.066298007965088" lon="30.007374286651611">
        <time>2026-04-25T09:16:18Z</time>
      </trkpt>
      <trkpt lat="59.066298007965088" lon="30.007352828979492">
        <time>2026-04-25T09:16:20Z</time>
      </trkpt>
      <trkpt lat="59.066319465637207" lon="30.007331371307373">
        <time>2026-04-25T09:16:23Z</time>
      </trkpt>
      <trkpt lat="59.066340923309326" lon="30.007309913635254">
        <time>2026-04-25T09:16:25Z</time>
      </trkpt>
      <trkpt lat="59.066362380981445" lon="30.007266998291016">
        <time>2026-04-25T09:16:28Z</time>
      </trkpt>
      <trkpt lat="59.066383838653564" lon="30.007245540618896">
        <time>2026-04-25T09:16:30Z</time>
      </trkpt>
      <trkpt lat="59.066383838653564" lon="30.007202625274658">
        <time>2026-04-25T09:16:33Z</time>
      </trkpt>
      <trkpt lat="59.066405296325684" lon="30.007138252258301">
        <time>2026-04-25T09:16:35Z</time>
      </trkpt>
      <trkpt lat="59.066426753997803" lon="30.007095336914063">
        <time>2026-04-25T09:16:38Z</time>
      </trkpt>
      <trkpt lat="59.066426753997803" lon="30.007073879241943">
        <time>2026-04-25T09:16:40Z</time>
      </trkpt>
      <trkpt lat="59.066448211669922" lon="30.007052421569824">
        <time>2026-04-25T09:16:43Z</time>
      </trkpt>
      <trkpt lat="59.066448211669922" lon="30.007052421569824">
        <time>2026-04-25T09:16:45Z</time>
      </trkpt>
      <trkpt lat="59.066469669342041" lon="30.007030963897705">
        <time>2026-04-25T09:16:48Z</time>
      </trkpt>
      <trkpt lat="59.066469669342041" lon="30.006988048553467">
        <time>2026-04-25T09:16:50Z</time>
      </trkpt>
      <trkpt lat="59.06649112701416" lon="30.006923675537109">
        <time>2026-04-25T09:16:53Z</time>
      </trkpt>
      <trkpt lat="59.066512584686279" lon="30.00690221786499">
        <time>2026-04-25T09:16:55Z</time>
      </trkpt>
      <trkpt lat="59.066512584686279" lon="30.006837844848633">
        <time>2026-04-25T09:16:58Z</time>
      </trkpt>
      <trkpt lat="59.066555500030518" lon="30.006816387176514">
        <time>2026-04-25T09:17:00Z</time>
      </trkpt>
      <trkpt lat="59.066576957702637" lon="30.006773471832275">
        <time>2026-04-25T09:17:03Z</time>
      </trkpt>
      <trkpt lat="59.066576957702637" lon="30.006752014160156">
        <time>2026-04-25T09:17:05Z</time>
      </trkpt>
      <trkpt lat="59.066576957702637" lon="30.006709098815918">
        <time>2026-04-25T09:17:08Z</time>
      </trkpt>
      <trkpt lat="59.066598415374756" lon="30.006709098815918">
        <time>2026-04-25T09:17:10Z</time>
      </trkpt>
      <trkpt lat="59.066598415374756" lon="30.00666618347168">
        <time>2026-04-25T09:17:13Z</time>
      </trkpt>
      <trkpt lat="59.066619873046875" lon="30.006623268127441">
        <time>2026-04-25T09:17:15Z</time>
      </trkpt>
      <trkpt lat="59.066662788391113" lon="30.006515979766846">
        <time>2026-04-25T09:17:20Z</time>
      </trkpt>
      <trkpt lat="59.066662788391113" lon="30.006451606750488">
        <time>2026-04-25T09:17:23Z</time>
      </trkpt>
      <trkpt lat="59.066662788391113" lon="30.00640869140625">
        <time>2026-04-25T09:17:25Z</time>
      </trkpt>
      <trkpt lat="59.066684246063232" lon="30.006365776062012">
        <time>2026-04-25T09:17:28Z</time>
      </trkpt>
      <trkpt lat="59.066684246063232" lon="30.006322860717773">
        <time>2026-04-25T09:17:30Z</time>
      </trkpt>
      <trkpt lat="59.066705703735352" lon="30.006279945373535">
        <time>2026-04-25T09:17:33Z</time>
      </trkpt>
      <trkpt lat="59.066705703735352" lon="30.006237030029297">
        <time>2026-04-25T09:17:35Z</time>
      </trkpt>
      <trkpt lat="59.066727161407471" lon="30.006237030029297">
        <time>2026-04-25T09:17:38Z</time>
      </trkpt>
      <trkpt lat="59.066727161407471" lon="30.006194114685059">
        <time>2026-04-25T09:17:40Z</time>
      </trkpt>
      <trkpt lat="59.06674861907959" lon="30.00615119934082">
        <time>2026-04-25T09:17:43Z</time>
      </trkpt>
      <trkpt lat="59.066770076751709" lon="30.006129741668701">
        <time>2026-04-25T09:17:45Z</time>
      </trkpt>
      <trkpt lat="59.066770076751709" lon="30.006086826324463">
        <time>2026-04-25T09:17:48Z</time>
      </trkpt>
      <trkpt lat="59.066791534423828" lon="30.006065368652344">
        <time>2026-04-25T09:17:50Z</time>
      </trkpt>
      <trkpt lat="59.066812992095947" lon="30.006043910980225">
        <time>2026-04-25T09:17:53Z</time>
      </trkpt>
      <trkpt lat="59.066834449768066" lon="30.006000995635986">
        <time>2026-04-25T09:17:55Z</time>
      </trkpt>
      <trkpt lat="59.066855907440186" lon="30.005958080291748">
        <time>2026-04-25T09:17:58Z</time>
      </trkpt>
      <trkpt lat="59.066855907440186" lon="30.005958080291748">
        <time>2026-04-25T09:18:00Z</time>
      </trkpt>
      <trkpt lat="59.066855907440186" lon="30.005958080291748">
        <time>2026-04-25T09:18:03Z</time>
      </trkpt>
      <trkpt lat="59.066855907440186" lon="30.005958080291748">
        <time>2026-04-25T09:18:05Z</time>
      </trkpt>
      <trkpt lat="59.066855907440186" lon="30.005958080291748">
        <time>2026-04-25T09:18:08Z</time>
      </trkpt>
      <trkpt lat="59.066855907440186" lon="30.00591516494751">
        <time>2026-04-25T09:18:10Z</time>
      </trkpt>
      <trkpt lat="59.066855907440186" lon="30.005807876586914">
        <time>2026-04-25T09:18:13Z</time>
      </trkpt>
      <trkpt lat="59.066855907440186" lon="30.005722045898438">
        <time>2026-04-25T09:18:15Z</time>
      </trkpt>
      <trkpt lat="59.066855907440186" lon="30.005679130554199">
        <time>2026-04-25T09:18:18Z</time>
      </trkpt>
      <trkpt lat="59.066898822784424" lon="30.005593299865723">
        <time>2026-04-25T09:18:20Z</time>
      </trkpt>
      <trkpt lat="59.066898822784424" lon="30.005571842193604">
        <time>2026-04-25T09:18:23Z</time>
      </trkpt>
      <trkpt lat="59.066941738128662" lon="30.005550384521484">
        <time>2026-04-25T09:18:25Z</time>
      </trkpt>
      <trkpt lat="59.066941738128662" lon="30.005486011505127">
        <time>2026-04-25T09:18:28Z</time>
      </trkpt>
      <trkpt lat="59.066963195800781" lon="30.005464553833008">
        <time>2026-04-25T09:18:30Z</time>
      </trkpt>
      <trkpt lat="59.0669846534729" lon="30.005443096160889">
        <time>2026-04-25T09:18:33Z</time>
      </trkpt>
      <trkpt lat="59.067027568817139" lon="30.005378723144531">
        <time>2026-04-25T09:18:35Z</time>
      </trkpt>
      <trkpt lat="59.067049026489258" lon="30.005357265472412">
        <time>2026-04-25T09:18:38Z</time>
      </trkpt>
      <trkpt lat="59.067049026489258" lon="30.005335807800293">
        <time>2026-04-25T09:18:40Z</time>
      </trkpt>
      <trkpt lat="59.067070484161377" lon="30.005335807800293">
        <time>2026-04-25T09:18:43Z</time>
      </trkpt>
      <trkpt lat="59.067091941833496" lon="30.005271434783936">
        <time>2026-04-25T09:18:45Z</time>
      </trkpt>
      <trkpt lat="59.067134857177734" lon="30.005228519439697">
        <time>2026-04-25T09:18:48Z</time>
      </trkpt>
      <trkpt lat="59.067156314849854" lon="30.005185604095459">
        <time>2026-04-25T09:18:50Z</time>
      </trkpt>
      <trkpt lat="59.067156314849854" lon="30.005142688751221">
        <time>2026-04-25T09:18:53Z</time>
      </trkpt>
      <trkpt lat="59.067177772521973" lon="30.005099773406982">
        <time>2026-04-25T09:18:55Z</time>
      </trkpt>
      <trkpt lat="59.067199230194092" lon="30.005078315734863">
        <time>2026-04-25T09:18:58Z</time>
      </trkpt>
      <trkpt lat="59.067220687866211" lon="30.005056858062744">
        <time>2026-04-25T09:19:00Z</time>
      </trkpt>
      <trkpt lat="59.067220687866211" lon="30.005056858062744">
        <time>2026-04-25T09:19:03Z</time>
      </trkpt>
      <trkpt lat="59.067220687866211" lon="30.005035400390625">
        <time>2026-04-25T09:19:05Z</time>
      </trkpt>
      <trkpt lat="59.06724214553833" lon="30.004971027374268">
        <time>2026-04-25T09:19:08Z</time>
      </trkpt>
      <trkpt lat="59.067263603210449" lon="30.004928112030029">
        <time>2026-04-25T09:19:10Z</time>
      </trkpt>
      <trkpt lat="59.067263603210449" lon="30.004863739013672">
        <time>2026-04-25T09:19:13Z</time>
      </trkpt>
      <trkpt lat="59.067263603210449" lon="30.004842281341553">
        <time>2026-04-25T09:19:15Z</time>
      </trkpt>
      <trkpt lat="59.067263603210449" lon="30.004842281341553">
        <time>2026-04-25T09:19:18Z</time>
      </trkpt>
      <trkpt lat="59.067263603210449" lon="30.004799365997314">
        <time>2026-04-25T09:19:20Z</time>
      </trkpt>
      <trkpt lat="59.067285060882568" lon="30.004777908325195">
        <time>2026-04-25T09:19:23Z</time>
      </trkpt>
      <trkpt lat="59.067306518554688" lon="30.004734992980957">
        <time>2026-04-25T09:19:25Z</time>
      </trkpt>
      <trkpt lat="59.067306518554688" lon="30.004734992980957">
        <time>2026-04-25T09:19:28Z</time>
      </trkpt>
      <trkpt lat="59.067285060882568" lon="30.004734992980957">
        <time>2026-04-25T09:19:30Z</time>
      </trkpt>
      <trkpt lat="59.067306518554688" lon="30.004734992980957">
        <time>2026-04-25T09:19:33Z</time>
      </trkpt>
      <trkpt lat="59.067306518554688" lon="30.004756450653076">
        <time>2026-04-25T09:19:35Z</time>
      </trkpt>
      <trkpt lat="59.067306518554688" lon="30.004734992980957">
        <time>2026-04-25T09:19:38Z</time>
      </trkpt>
      <trkpt lat="59.067306518554688" lon="30.004734992980957">
        <time>2026-04-25T09:19:40Z</time>
      </trkpt>
      <trkpt lat="59.067306518554688" lon="30.004734992980957">
        <time>2026-04-25T09:19:43Z</time>
      </trkpt>
      <trkpt lat="59.067306518554688" lon="30.004734992980957">
        <time>2026-04-25T09:19:45Z</time>
      </trkpt>
      <trkpt lat="59.067306518554688" lon="30.004713535308838">
        <time>2026-04-25T09:19:48Z</time>
      </trkpt>
      <trkpt lat="59.067327976226807" lon="30.0046706199646">
        <time>2026-04-25T09:19:50Z</time>
      </trkpt>
      <trkpt lat="59.067349433898926" lon="30.004627704620361">
        <time>2026-04-25T09:19:53Z</time>
      </trkpt>
      <trkpt lat="59.067392349243164" lon="30.004627704620361">
        <time>2026-04-25T09:19:55Z</time>
      </trkpt>
      <trkpt lat="59.067392349243164" lon="30.004584789276123">
        <time>2026-04-25T09:19:58Z</time>
      </trkpt>
      <trkpt lat="59.067413806915283" lon="30.004541873931885">
        <time>2026-04-25T09:20:00Z</time>
      </trkpt>
      <trkpt lat="59.067456722259521" lon="30.004477500915527">
        <time>2026-04-25T09:20:03Z</time>
      </trkpt>
      <trkpt lat="59.067456722259521" lon="30.004456043243408">
        <time>2026-04-25T09:20:05Z</time>
      </trkpt>
      <trkpt lat="59.067478179931641" lon="30.004434585571289">
        <time>2026-04-25T09:20:08Z</time>
      </trkpt>
      <trkpt lat="59.067478179931641" lon="30.004434585571289">
        <time>2026-04-25T09:20:10Z</time>
      </trkpt>
      <trkpt lat="59.06749963760376" lon="30.00441312789917">
        <time>2026-04-25T09:20:13Z</time>
      </trkpt>
      <trkpt lat="59.067521095275879" lon="30.004391670227051">
        <time>2026-04-25T09:20:15Z</time>
      </trkpt>
      <trkpt lat="59.067564010620117" lon="30.004391670227051">
        <time>2026-04-25T09:20:18Z</time>
      </trkpt>
      <trkpt lat="59.067606925964355" lon="30.004370212554932">
        <time>2026-04-25T09:20:20Z</time>
      </trkpt>
      <trkpt lat="59.067606925964355" lon="30.004370212554932">
        <time>2026-04-25T09:20:23Z</time>
      </trkpt>
      <trkpt lat="59.067628383636475" lon="30.004348754882813">
        <time>2026-04-25T09:20:25Z</time>
      </trkpt>
      <trkpt lat="59.067671298980713" lon="30.004327297210693">
        <time>2026-04-25T09:20:28Z</time>
      </trkpt>
      <trkpt lat="59.067692756652832" lon="30.004348754882813">
        <time>2026-04-25T09:20:30Z</time>
      </trkpt>
      <trkpt lat="59.067714214324951" lon="30.004327297210693">
        <time>2026-04-25T09:20:33Z</time>
      </trkpt>
      <trkpt lat="59.06773567199707" lon="30.004327297210693">
        <time>2026-04-25T09:20:35Z</time>
      </trkpt>
      <trkpt lat="59.067757129669189" lon="30.004327297210693">
        <time>2026-04-25T09:20:38Z</time>
      </trkpt>
      <trkpt lat="59.067757129669189" lon="30.004305839538574">
        <time>2026-04-25T09:20:40Z</time>
      </trkpt>
      <trkpt lat="59.067778587341309" lon="30.004305839538574">
        <time>2026-04-25T09:20:43Z</time>
      </trkpt>
      <trkpt lat="59.067800045013428" lon="30.004305839538574">
        <time>2026-04-25T09:20:45Z</time>
      </trkpt>
      <trkpt lat="59.067821502685547" lon="30.004284381866455">
        <time>2026-04-25T09:20:48Z</time>
      </trkpt>
      <trkpt lat="59.067821502685547" lon="30.004284381866455">
        <time>2026-04-25T09:20:50Z</time>
      </trkpt>
      <trkpt lat="59.067842960357666" lon="30.004284381866455">
        <time>2026-04-25T09:20:53Z</time>
      </trkpt>
      <trkpt lat="59.067842960357666" lon="30.004262924194336">
        <time>2026-04-25T09:20:55Z</time>
      </trkpt>
      <trkpt lat="59.067864418029785" lon="30.004284381866455">
        <time>2026-04-25T09:20:58Z</time>
      </trkpt>
      <trkpt lat="59.067907333374023" lon="30.004262924194336">
        <time>2026-04-25T09:21:00Z</time>
      </trkpt>
      <trkpt lat="59.067928791046143" lon="30.004262924194336">
        <time>2026-04-25T09:21:03Z</time>
      </trkpt>
      <trkpt lat="59.067950248718262" lon="30.004241466522217">
        <time>2026-04-25T09:21:05Z</time>
      </trkpt>
      <trkpt lat="59.067971706390381" lon="30.004220008850098">
        <time>2026-04-25T09:21:08Z</time>
      </trkpt>
      <trkpt lat="59.0679931640625" lon="30.004220008850098">
        <time>2026-04-25T09:21:10Z</time>
      </trkpt>
      <trkpt lat="59.0679931640625" lon="30.004220008850098">
        <time>2026-04-25T09:21:13Z</time>
      </trkpt>
      <trkpt lat="59.068036079406738" lon="30.004198551177979">
        <time>2026-04-25T09:21:15Z</time>
      </trkpt>
      <trkpt lat="59.068057537078857" lon="30.004177093505859">
        <time>2026-04-25T09:21:18Z</time>
      </trkpt>
      <trkpt lat="59.068057537078857" lon="30.004177093505859">
        <time>2026-04-25T09:21:20Z</time>
      </trkpt>
      <trkpt lat="59.068078994750977" lon="30.00415563583374">
        <time>2026-04-25T09:21:23Z</time>
      </trkpt>
      <trkpt lat="59.068164825439453" lon="30.004134178161621">
        <time>2026-04-25T09:21:25Z</time>
      </trkpt>
      <trkpt lat="59.068207740783691" lon="30.004112720489502">
        <time>2026-04-25T09:21:28Z</time>
      </trkpt>
      <trkpt lat="59.068207740783691" lon="30.004112720489502">
        <time>2026-04-25T09:21:30Z</time>
      </trkpt>
      <trkpt lat="59.068207740783691" lon="30.004112720489502">
        <time>2026-04-25T09:21:33Z</time>
      </trkpt>
      <trkpt lat="59.068229198455811" lon="30.004134178161621">
        <time>2026-04-25T09:21:35Z</time>
      </trkpt>
      <trkpt lat="59.068272113800049" lon="30.004134178161621">
        <time>2026-04-25T09:21:38Z</time>
      </trkpt>
      <trkpt lat="59.068293571472168" lon="30.004112720489502">
        <time>2026-04-25T09:21:40Z</time>
      </trkpt>
      <trkpt lat="59.068315029144287" lon="30.004112720489502">
        <time>2026-04-25T09:21:43Z</time>
      </trkpt>
      <trkpt lat="59.068315029144287" lon="30.004091262817383">
        <time>2026-04-25T09:21:45Z</time>
      </trkpt>
      <trkpt lat="59.068357944488525" lon="30.004069805145264">
        <time>2026-04-25T09:21:48Z</time>
      </trkpt>
      <trkpt lat="59.068379402160645" lon="30.004048347473145">
        <time>2026-04-25T09:21:50Z</time>
      </trkpt>
      <trkpt lat="59.068400859832764" lon="30.004048347473145">
        <time>2026-04-25T09:21:53Z</time>
      </trkpt>
      <trkpt lat="59.068422317504883" lon="30.004048347473145">
        <time>2026-04-25T09:21:55Z</time>
      </trkpt>
      <trkpt lat="59.068443775177002" lon="30.004026889801025">
        <time>2026-04-25T09:21:58Z</time>
      </trkpt>
      <trkpt lat="59.068465232849121" lon="30.004026889801025">
        <time>2026-04-25T09:22:00Z</time>
      </trkpt>
      <trkpt lat="59.068508148193359" lon="30.004026889801025">
        <time>2026-04-25T09:22:03Z</time>
      </trkpt>
      <trkpt lat="59.068529605865479" lon="30.004005432128906">
        <time>2026-04-25T09:22:05Z</time>
      </trkpt>
      <trkpt lat="59.068529605865479" lon="30.004026889801025">
        <time>2026-04-25T09:22:08Z</time>
      </trkpt>
      <trkpt lat="59.068551063537598" lon="30.004026889801025">
        <time>2026-04-25T09:22:10Z</time>
      </trkpt>
      <trkpt lat="59.068593978881836" lon="30.004005432128906">
        <time>2026-04-25T09:22:13Z</time>
      </trkpt>
      <trkpt lat="59.068636894226074" lon="30.004005432128906">
        <time>2026-04-25T09:22:15Z</time>
      </trkpt>
      <trkpt lat="59.068636894226074" lon="30.004005432128906">
        <time>2026-04-25T09:22:18Z</time>
      </trkpt>
      <trkpt lat="59.068658351898193" lon="30.004005432128906">
        <time>2026-04-25T09:22:20Z</time>
      </trkpt>
      <trkpt lat="59.068658351898193" lon="30.004005432128906">
        <time>2026-04-25T09:22:23Z</time>
      </trkpt>
      <trkpt lat="59.068701267242432" lon="30.003983974456787">
        <time>2026-04-25T09:22:25Z</time>
      </trkpt>
      <trkpt lat="59.06874418258667" lon="30.003941059112549">
        <time>2026-04-25T09:22:28Z</time>
      </trkpt>
      <trkpt lat="59.068787097930908" lon="30.003898143768311">
        <time>2026-04-25T09:22:30Z</time>
      </trkpt>
      <trkpt lat="59.068808555603027" lon="30.003876686096191">
        <time>2026-04-25T09:22:33Z</time>
      </trkpt>
      <trkpt lat="59.068830013275146" lon="30.003876686096191">
        <time>2026-04-25T09:22:35Z</time>
      </trkpt>
      <trkpt lat="59.068851470947266" lon="30.003876686096191">
        <time>2026-04-25T09:22:38Z</time>
      </trkpt>
      <trkpt lat="59.068872928619385" lon="30.003876686096191">
        <time>2026-04-25T09:22:40Z</time>
      </trkpt>
      <trkpt lat="59.068894386291504" lon="30.003876686096191">
        <time>2026-04-25T09:22:43Z</time>
      </trkpt>
      <trkpt lat="59.068915843963623" lon="30.003876686096191">
        <time>2026-04-25T09:22:45Z</time>
      </trkpt>
      <trkpt lat="59.068958759307861" lon="30.003876686096191">
        <time>2026-04-25T09:22:48Z</time>
      </trkpt>
      <trkpt lat="59.068958759307861" lon="30.003876686096191">
        <time>2026-04-25T09:22:50Z</time>
      </trkpt>
      <trkpt lat="59.06898021697998" lon="30.003855228424072">
        <time>2026-04-25T09:22:53Z</time>
      </trkpt>
      <trkpt lat="59.0690016746521" lon="30.003833770751953">
        <time>2026-04-25T09:22:55Z</time>
      </trkpt>
      <trkpt lat="59.069023132324219" lon="30.003833770751953">
        <time>2026-04-25T09:22:58Z</time>
      </trkpt>
      <trkpt lat="59.069066047668457" lon="30.003855228424072">
        <time>2026-04-25T09:23:00Z</time>
      </trkpt>
      <trkpt lat="59.069108963012695" lon="30.003833770751953">
        <time>2026-04-25T09:23:03Z</time>
      </trkpt>
      <trkpt lat="59.069151878356934" lon="30.003833770751953">
        <time>2026-04-25T09:23:05Z</time>
      </trkpt>
      <trkpt lat="59.069173336029053" lon="30.003833770751953">
        <time>2026-04-25T09:23:08Z</time>
      </trkpt>
      <trkpt lat="59.069216251373291" lon="30.003833770751953">
        <time>2026-04-25T09:23:10Z</time>
      </trkpt>
      <trkpt lat="59.06923770904541" lon="30.003876686096191">
        <time>2026-04-25T09:23:13Z</time>
      </trkpt>
      <trkpt lat="59.06923770904541" lon="30.003898143768311">
        <time>2026-04-25T09:23:15Z</time>
      </trkpt>
      <trkpt lat="59.069259166717529" lon="30.003898143768311">
        <time>2026-04-25T09:23:18Z</time>
      </trkpt>
      <trkpt lat="59.069259166717529" lon="30.003898143768311">
        <time>2026-04-25T09:23:20Z</time>
      </trkpt>
      <trkpt lat="59.069280624389648" lon="30.003876686096191">
        <time>2026-04-25T09:23:23Z</time>
      </trkpt>
      <trkpt lat="59.069302082061768" lon="30.003855228424072">
        <time>2026-04-25T09:23:25Z</time>
      </trkpt>
      <trkpt lat="59.069302082061768" lon="30.003833770751953">
        <time>2026-04-25T09:23:28Z</time>
      </trkpt>
      <trkpt lat="59.069323539733887" lon="30.003812313079834">
        <time>2026-04-25T09:23:30Z</time>
      </trkpt>
      <trkpt lat="59.069344997406006" lon="30.003790855407715">
        <time>2026-04-25T09:23:33Z</time>
      </trkpt>
      <trkpt lat="59.069366455078125" lon="30.003812313079834">
        <time>2026-04-25T09:23:35Z</time>
      </trkpt>
      <trkpt lat="59.069387912750244" lon="30.003790855407715">
        <time>2026-04-25T09:23:38Z</time>
      </trkpt>
      <trkpt lat="59.069409370422363" lon="30.003769397735596">
        <time>2026-04-25T09:23:40Z</time>
      </trkpt>
      <trkpt lat="59.069430828094482" lon="30.003747940063477">
        <time>2026-04-25T09:23:43Z</time>
      </trkpt>
      <trkpt lat="59.069452285766602" lon="30.003747940063477">
        <time>2026-04-25T09:23:45Z</time>
      </trkpt>
      <trkpt lat="59.069473743438721" lon="30.003726482391357">
        <time>2026-04-25T09:23:48Z</time>
      </trkpt>
      <trkpt lat="59.06949520111084" lon="30.003726482391357">
        <time>2026-04-25T09:23:50Z</time>
      </trkpt>
      <trkpt lat="59.069516658782959" lon="30.003726482391357">
        <time>2026-04-25T09:23:53Z</time>
      </trkpt>
      <trkpt lat="59.069538116455078" lon="30.003705024719238">
        <time>2026-04-25T09:23:55Z</time>
      </trkpt>
      <trkpt lat="59.069559574127197" lon="30.003705024719238">
        <time>2026-04-25T09:23:58Z</time>
      </trkpt>
      <trkpt lat="59.069581031799316" lon="30.003683567047119">
        <time>2026-04-25T09:24:00Z</time>
      </trkpt>
      <trkpt lat="59.069602489471436" lon="30.003662109375">
        <time>2026-04-25T09:24:03Z</time>
      </trkpt>
      <trkpt lat="59.069645404815674" lon="30.003662109375">
        <time>2026-04-25T09:24:05Z</time>
      </trkpt>
      <trkpt lat="59.069645404815674" lon="30.003662109375">
        <time>2026-04-25T09:24:08Z</time>
      </trkpt>
      <trkpt lat="59.069666862487793" lon="30.003662109375">
        <time>2026-04-25T09:24:10Z</time>
      </trkpt>
      <trkpt lat="59.069688320159912" lon="30.003662109375">
        <time>2026-04-25T09:24:13Z</time>
      </trkpt>
      <trkpt lat="59.069709777832031" lon="30.003662109375">
        <time>2026-04-25T09:24:15Z</time>
      </trkpt>
      <trkpt lat="59.06973123550415" lon="30.003683567047119">
        <time>2026-04-25T09:24:18Z</time>
      </trkpt>
      <trkpt lat="59.06975269317627" lon="30.003662109375">
        <time>2026-04-25T09:24:20Z</time>
      </trkpt>
      <trkpt lat="59.069774150848389" lon="30.003640651702881">
        <time>2026-04-25T09:24:23Z</time>
      </trkpt>
      <trkpt lat="59.069795608520508" lon="30.003640651702881">
        <time>2026-04-25T09:24:25Z</time>
      </trkpt>
      <trkpt lat="59.069838523864746" lon="30.003619194030762">
        <time>2026-04-25T09:24:28Z</time>
      </trkpt>
      <trkpt lat="59.069881439208984" lon="30.003619194030762">
        <time>2026-04-25T09:24:30Z</time>
      </trkpt>
      <trkpt lat="59.069924354553223" lon="30.003619194030762">
        <time>2026-04-25T09:24:33Z</time>
      </trkpt>
      <trkpt lat="59.069967269897461" lon="30.003597736358643">
        <time>2026-04-25T09:24:35Z</time>
      </trkpt>
      <trkpt lat="59.070010185241699" lon="30.003619194030762">
        <time>2026-04-25T09:24:38Z</time>
      </trkpt>
      <trkpt lat="59.070010185241699" lon="30.003640651702881">
        <time>2026-04-25T09:24:40Z</time>
      </trkpt>
      <trkpt lat="59.070031642913818" lon="30.003683567047119">
        <time>2026-04-25T09:24:43Z</time>
      </trkpt>
      <trkpt lat="59.070031642913818" lon="30.003705024719238">
        <time>2026-04-25T09:24:45Z</time>
      </trkpt>
      <trkpt lat="59.070053100585938" lon="30.003747940063477">
        <time>2026-04-25T09:24:48Z</time>
      </trkpt>
      <trkpt lat="59.070053100585938" lon="30.003790855407715">
        <time>2026-04-25T09:24:50Z</time>
      </trkpt>
      <trkpt lat="59.070053100585938" lon="30.003855228424072">
        <time>2026-04-25T09:24:53Z</time>
      </trkpt>
      <trkpt lat="59.070074558258057" lon="30.00391960144043">
        <time>2026-04-25T09:24:55Z</time>
      </trkpt>
      <trkpt lat="59.070074558258057" lon="30.003962516784668">
        <time>2026-04-25T09:24:58Z</time>
      </trkpt>
      <trkpt lat="59.070074558258057" lon="30.003941059112549">
        <time>2026-04-25T09:25:00Z</time>
      </trkpt>
      <trkpt lat="59.070074558258057" lon="30.003983974456787">
        <time>2026-04-25T09:25:03Z</time>
      </trkpt>
      <trkpt lat="59.070074558258057" lon="30.004005432128906">
        <time>2026-04-25T09:25:05Z</time>
      </trkpt>
      <trkpt lat="59.070096015930176" lon="30.004048347473145">
        <time>2026-04-25T09:25:08Z</time>
      </trkpt>
      <trkpt lat="59.070117473602295" lon="30.004112720489502">
        <time>2026-04-25T09:25:10Z</time>
      </trkpt>
      <trkpt lat="59.070117473602295" lon="30.00415563583374">
        <time>2026-04-25T09:25:13Z</time>
      </trkpt>
      <trkpt lat="59.070138931274414" lon="30.004198551177979">
        <time>2026-04-25T09:25:15Z</time>
      </trkpt>
      <trkpt lat="59.070138931274414" lon="30.004241466522217">
        <time>2026-04-25T09:25:18Z</time>
      </trkpt>
      <trkpt lat="59.070138931274414" lon="30.004241466522217">
        <time>2026-04-25T09:25:20Z</time>
      </trkpt>
      <trkpt lat="59.070138931274414" lon="30.004262924194336">
        <time>2026-04-25T09:25:23Z</time>
      </trkpt>
      <trkpt lat="59.070138931274414" lon="30.004327297210693">
        <time>2026-04-25T09:25:25Z</time>
      </trkpt>
      <trkpt lat="59.070160388946533" lon="30.004370212554932">
        <time>2026-04-25T09:25:28Z</time>
      </trkpt>
      <trkpt lat="59.070160388946533" lon="30.00441312789917">
        <time>2026-04-25T09:25:30Z</time>
      </trkpt>
      <trkpt lat="59.070160388946533" lon="30.004477500915527">
        <time>2026-04-25T09:25:33Z</time>
      </trkpt>
      <trkpt lat="59.070160388946533" lon="30.004498958587646">
        <time>2026-04-25T09:25:35Z</time>
      </trkpt>
      <trkpt lat="59.070181846618652" lon="30.004541873931885">
        <time>2026-04-25T09:25:38Z</time>
      </trkpt>
      <trkpt lat="59.070160388946533" lon="30.004584789276123">
        <time>2026-04-25T09:25:40Z</time>
      </trkpt>
      <trkpt lat="59.070160388946533" lon="30.00464916229248">
        <time>2026-04-25T09:25:43Z</time>
      </trkpt>
      <trkpt lat="59.070160388946533" lon="30.00464916229248">
        <time>2026-04-25T09:25:45Z</time>
      </trkpt>
      <trkpt lat="59.070181846618652" lon="30.004713535308838">
        <time>2026-04-25T09:25:48Z</time>
      </trkpt>
      <trkpt lat="59.070181846618652" lon="30.004799365997314">
        <time>2026-04-25T09:25:50Z</time>
      </trkpt>
      <trkpt lat="59.070181846618652" lon="30.004799365997314">
        <time>2026-04-25T09:25:53Z</time>
      </trkpt>
      <trkpt lat="59.070203304290771" lon="30.004799365997314">
        <time>2026-04-25T09:25:55Z</time>
      </trkpt>
      <trkpt lat="59.070203304290771" lon="30.00490665435791">
        <time>2026-04-25T09:25:58Z</time>
      </trkpt>
      <trkpt lat="59.070203304290771" lon="30.00490665435791">
        <time>2026-04-25T09:26:00Z</time>
      </trkpt>
      <trkpt lat="59.070203304290771" lon="30.004928112030029">
        <time>2026-04-25T09:26:03Z</time>
      </trkpt>
      <trkpt lat="59.07024621963501" lon="30.005078315734863">
        <time>2026-04-25T09:26:05Z</time>
      </trkpt>
      <trkpt lat="59.070267677307129" lon="30.005185604095459">
        <time>2026-04-25T09:26:08Z</time>
      </trkpt>
      <trkpt lat="59.070289134979248" lon="30.005228519439697">
        <time>2026-04-25T09:26:10Z</time>
      </trkpt>
      <trkpt lat="59.070289134979248" lon="30.005292892456055">
        <time>2026-04-25T09:26:13Z</time>
      </trkpt>
      <trkpt lat="59.070289134979248" lon="30.005314350128174">
        <time>2026-04-25T09:26:15Z</time>
      </trkpt>
      <trkpt lat="59.070289134979248" lon="30.005357265472412">
        <time>2026-04-25T09:26:18Z</time>
      </trkpt>
      <trkpt lat="59.070289134979248" lon="30.00542163848877">
        <time>2026-04-25T09:26:20Z</time>
      </trkpt>
      <trkpt lat="59.070289134979248" lon="30.005443096160889">
        <time>2026-04-25T09:26:23Z</time>
      </trkpt>
      <trkpt lat="59.070289134979248" lon="30.005443096160889">
        <time>2026-04-25T09:26:25Z</time>
      </trkpt>
      <trkpt lat="59.070289134979248" lon="30.005464553833008">
        <time>2026-04-25T09:26:28Z</time>
      </trkpt>
      <trkpt lat="59.070310592651367" lon="30.005507469177246">
        <time>2026-04-25T09:26:30Z</time>
      </trkpt>
      <trkpt lat="59.070310592651367" lon="30.005550384521484">
        <time>2026-04-25T09:26:33Z</time>
      </trkpt>
      <trkpt lat="59.070310592651367" lon="30.005571842193604">
        <time>2026-04-25T09:26:35Z</time>
      </trkpt>
      <trkpt lat="59.070310592651367" lon="30.005636215209961">
        <time>2026-04-25T09:26:38Z</time>
      </trkpt>
      <trkpt lat="59.070332050323486" lon="30.00565767288208">
        <time>2026-04-25T09:26:40Z</time>
      </trkpt>
      <trkpt lat="59.070332050323486" lon="30.005700588226318">
        <time>2026-04-25T09:26:43Z</time>
      </trkpt>
      <trkpt lat="59.070332050323486" lon="30.005743503570557">
        <time>2026-04-25T09:26:45Z</time>
      </trkpt>
      <trkpt lat="59.070310592651367" lon="30.005807876586914">
        <time>2026-04-25T09:26:48Z</time>
      </trkpt>
      <trkpt lat="59.070289134979248" lon="30.005872249603271">
        <time>2026-04-25T09:26:50Z</time>
      </trkpt>
      <trkpt lat="59.070267677307129" lon="30.005936622619629">
        <time>2026-04-25T09:26:53Z</time>
      </trkpt>
      <trkpt lat="59.070267677307129" lon="30.006000995635986">
        <time>2026-04-25T09:26:55Z</time>
      </trkpt>
      <trkpt lat="59.070267677307129" lon="30.006000995635986">
        <time>2026-04-25T09:26:58Z</time>
      </trkpt>
      <trkpt lat="59.070267677307129" lon="30.006022453308105">
        <time>2026-04-25T09:27:00Z</time>
      </trkpt>
      <trkpt lat="59.070267677307129" lon="30.006022453308105">
        <time>2026-04-25T09:27:03Z</time>
      </trkpt>
      <trkpt lat="59.070267677307129" lon="30.006022453308105">
        <time>2026-04-25T09:27:05Z</time>
      </trkpt>
      <trkpt lat="59.070267677307129" lon="30.006022453308105">
        <time>2026-04-25T09:27:08Z</time>
      </trkpt>
      <trkpt lat="59.070267677307129" lon="30.006022453308105">
        <time>2026-04-25T09:27:10Z</time>
      </trkpt>
      <trkpt lat="59.070267677307129" lon="30.006022453308105">
        <time>2026-04-25T09:27:13Z</time>
      </trkpt>
      <trkpt lat="59.070267677307129" lon="30.006022453308105">
        <time>2026-04-25T09:27:15Z</time>
      </trkpt>
      <trkpt lat="59.070267677307129" lon="30.006022453308105">
        <time>2026-04-25T09:27:18Z</time>
      </trkpt>
      <trkpt lat="59.070267677307129" lon="30.006022453308105">
        <time>2026-04-25T09:27:20Z</time>
      </trkpt>
      <trkpt lat="59.070267677307129" lon="30.006022453308105">
        <time>2026-04-25T09:27:23Z</time>
      </trkpt>
      <trkpt lat="59.070267677307129" lon="30.006022453308105">
        <time>2026-04-25T09:27:25Z</time>
      </trkpt>
      <trkpt lat="59.070267677307129" lon="30.006022453308105">
        <time>2026-04-25T09:27:28Z</time>
      </trkpt>
      <trkpt lat="59.070267677307129" lon="30.006022453308105">
        <time>2026-04-25T09:27:30Z</time>
      </trkpt>
      <trkpt lat="59.070267677307129" lon="30.006022453308105">
        <time>2026-04-25T09:27:33Z</time>
      </trkpt>
      <trkpt lat="59.070267677307129" lon="30.006043910980225">
        <time>2026-04-25T09:27:35Z</time>
      </trkpt>
      <trkpt lat="59.070267677307129" lon="30.006043910980225">
        <time>2026-04-25T09:27:38Z</time>
      </trkpt>
      <trkpt lat="59.070267677307129" lon="30.006065368652344">
        <time>2026-04-25T09:27:40Z</time>
      </trkpt>
      <trkpt lat="59.070267677307129" lon="30.006065368652344">
        <time>2026-04-25T09:27:43Z</time>
      </trkpt>
      <trkpt lat="59.070267677307129" lon="30.006065368652344">
        <time>2026-04-25T09:27:45Z</time>
      </trkpt>
      <trkpt lat="59.070267677307129" lon="30.006065368652344">
        <time>2026-04-25T09:27:48Z</time>
      </trkpt>
      <trkpt lat="59.070267677307129" lon="30.006065368652344">
        <time>2026-04-25T09:27:50Z</time>
      </trkpt>
      <trkpt lat="59.070267677307129" lon="30.006065368652344">
        <time>2026-04-25T09:27:53Z</time>
      </trkpt>
      <trkpt lat="59.070267677307129" lon="30.006065368652344">
        <time>2026-04-25T09:27:55Z</time>
      </trkpt>
      <trkpt lat="59.070267677307129" lon="30.006065368652344">
        <time>2026-04-25T09:27:58Z</time>
      </trkpt>
      <trkpt lat="59.070267677307129" lon="30.006065368652344">
        <time>2026-04-25T09:28:00Z</time>
      </trkpt>
      <trkpt lat="59.070267677307129" lon="30.006065368652344">
        <time>2026-04-25T09:28:03Z</time>
      </trkpt>
      <trkpt lat="59.070289134979248" lon="30.006086826324463">
        <time>2026-04-25T09:28:05Z</time>
      </trkpt>
      <trkpt lat="59.070289134979248" lon="30.006108283996582">
        <time>2026-04-25T09:28:08Z</time>
      </trkpt>
      <trkpt lat="59.070289134979248" lon="30.006129741668701">
        <time>2026-04-25T09:28:10Z</time>
      </trkpt>
      <trkpt lat="59.070289134979248" lon="30.006129741668701">
        <time>2026-04-25T09:28:13Z</time>
      </trkpt>
      <trkpt lat="59.070289134979248" lon="30.006129741668701">
        <time>2026-04-25T09:28:15Z</time>
      </trkpt>
      <trkpt lat="59.070289134979248" lon="30.006129741668701">
        <time>2026-04-25T09:28:18Z</time>
      </trkpt>
      <trkpt lat="59.070289134979248" lon="30.006129741668701">
        <time>2026-04-25T09:28:20Z</time>
      </trkpt>
      <trkpt lat="59.070289134979248" lon="30.006129741668701">
        <time>2026-04-25T09:28:23Z</time>
      </trkpt>
      <trkpt lat="59.070289134979248" lon="30.006129741668701">
        <time>2026-04-25T09:28:25Z</time>
      </trkpt>
      <trkpt lat="59.070310592651367" lon="30.006129741668701">
        <time>2026-04-25T09:28:28Z</time>
      </trkpt>
      <trkpt lat="59.070310592651367" lon="30.006129741668701">
        <time>2026-04-25T09:28:30Z</time>
      </trkpt>
      <trkpt lat="59.070310592651367" lon="30.006129741668701">
        <time>2026-04-25T09:28:33Z</time>
      </trkpt>
      <trkpt lat="59.070310592651367" lon="30.006129741668701">
        <time>2026-04-25T09:28:35Z</time>
      </trkpt>
      <trkpt lat="59.070289134979248" lon="30.00615119934082">
        <time>2026-04-25T09:28:38Z</time>
      </trkpt>
      <trkpt lat="59.070289134979248" lon="30.006215572357178">
        <time>2026-04-25T09:28:40Z</time>
      </trkpt>
      <trkpt lat="59.070289134979248" lon="30.006258487701416">
        <time>2026-04-25T09:28:43Z</time>
      </trkpt>
      <trkpt lat="59.070289134979248" lon="30.006344318389893">
        <time>2026-04-25T09:28:45Z</time>
      </trkpt>
      <trkpt lat="59.070289134979248" lon="30.00640869140625">
        <time>2026-04-25T09:28:48Z</time>
      </trkpt>
      <trkpt lat="59.070267677307129" lon="30.00640869140625">
        <time>2026-04-25T09:28:50Z</time>
      </trkpt>
      <trkpt lat="59.070267677307129" lon="30.006451606750488">
        <time>2026-04-25T09:28:53Z</time>
      </trkpt>
      <trkpt lat="59.070267677307129" lon="30.006451606750488">
        <time>2026-04-25T09:28:55Z</time>
      </trkpt>
      <trkpt lat="59.07024621963501" lon="30.006451606750488">
        <time>2026-04-25T09:28:58Z</time>
      </trkpt>
      <trkpt lat="59.07024621963501" lon="30.006451606750488">
        <time>2026-04-25T09:29:00Z</time>
      </trkpt>
      <trkpt lat="59.070224761962891" lon="30.006430149078369">
        <time>2026-04-25T09:29:03Z</time>
      </trkpt>
      <trkpt lat="59.07024621963501" lon="30.006430149078369">
        <time>2026-04-25T09:29:05Z</time>
      </trkpt>
      <trkpt lat="59.07024621963501" lon="30.006473064422607">
        <time>2026-04-25T09:29:08Z</time>
      </trkpt>
      <trkpt lat="59.07024621963501" lon="30.006515979766846">
        <time>2026-04-25T09:29:10Z</time>
      </trkpt>
      <trkpt lat="59.07024621963501" lon="30.006494522094727">
        <time>2026-04-25T09:29:13Z</time>
      </trkpt>
      <trkpt lat="59.070267677307129" lon="30.006494522094727">
        <time>2026-04-25T09:29:15Z</time>
      </trkpt>
      <trkpt lat="59.070267677307129" lon="30.006451606750488">
        <time>2026-04-25T09:29:18Z</time>
      </trkpt>
      <trkpt lat="59.070289134979248" lon="30.006430149078369">
        <time>2026-04-25T09:29:20Z</time>
      </trkpt>
      <trkpt lat="59.070310592651367" lon="30.00640869140625">
        <time>2026-04-25T09:29:23Z</time>
      </trkpt>
      <trkpt lat="59.070289134979248" lon="30.006387233734131">
        <time>2026-04-25T09:29:25Z</time>
      </trkpt>
      <trkpt lat="59.070267677307129" lon="30.006365776062012">
        <time>2026-04-25T09:29:28Z</time>
      </trkpt>
      <trkpt lat="59.070267677307129" lon="30.006387233734131">
        <time>2026-04-25T09:29:30Z</time>
      </trkpt>
      <trkpt lat="59.070267677307129" lon="30.00640869140625">
        <time>2026-04-25T09:29:33Z</time>
      </trkpt>
      <trkpt lat="59.07024621963501" lon="30.006430149078369">
        <time>2026-04-25T09:29:35Z</time>
      </trkpt>
      <trkpt lat="59.07024621963501" lon="30.00640869140625">
        <time>2026-04-25T09:29:38Z</time>
      </trkpt>
      <trkpt lat="59.07024621963501" lon="30.006387233734131">
        <time>2026-04-25T09:29:40Z</time>
      </trkpt>
      <trkpt lat="59.070267677307129" lon="30.006344318389893">
        <time>2026-04-25T09:29:43Z</time>
      </trkpt>
      <trkpt lat="59.070289134979248" lon="30.006322860717773">
        <time>2026-04-25T09:29:45Z</time>
      </trkpt>
      <trkpt lat="59.070289134979248" lon="30.006301403045654">
        <time>2026-04-25T09:29:48Z</time>
      </trkpt>
      <trkpt lat="59.070310592651367" lon="30.006279945373535">
        <time>2026-04-25T09:29:50Z</time>
      </trkpt>
      <trkpt lat="59.070310592651367" lon="30.006258487701416">
        <time>2026-04-25T09:29:53Z</time>
      </trkpt>
      <trkpt lat="59.070310592651367" lon="30.006215572357178">
        <time>2026-04-25T09:29:55Z</time>
      </trkpt>
      <trkpt lat="59.070332050323486" lon="30.006194114685059">
        <time>2026-04-25T09:29:58Z</time>
      </trkpt>
      <trkpt lat="59.070332050323486" lon="30.00615119934082">
        <time>2026-04-25T09:30:00Z</time>
      </trkpt>
      <trkpt lat="59.070332050323486" lon="30.006129741668701">
        <time>2026-04-25T09:30:03Z</time>
      </trkpt>
      <trkpt lat="59.070332050323486" lon="30.006108283996582">
        <time>2026-04-25T09:30:05Z</time>
      </trkpt>
      <trkpt lat="59.070332050323486" lon="30.006108283996582">
        <time>2026-04-25T09:30:08Z</time>
      </trkpt>
      <trkpt lat="59.070353507995605" lon="30.006086826324463">
        <time>2026-04-25T09:30:10Z</time>
      </trkpt>
      <trkpt lat="59.070353507995605" lon="30.006065368652344">
        <time>2026-04-25T09:30:13Z</time>
      </trkpt>
      <trkpt lat="59.070353507995605" lon="30.006022453308105">
        <time>2026-04-25T09:30:15Z</time>
      </trkpt>
      <trkpt lat="59.070353507995605" lon="30.006000995635986">
        <time>2026-04-25T09:30:18Z</time>
      </trkpt>
      <trkpt lat="59.070353507995605" lon="30.005979537963867">
        <time>2026-04-25T09:30:20Z</time>
      </trkpt>
      <trkpt lat="59.070353507995605" lon="30.005979537963867">
        <time>2026-04-25T09:30:23Z</time>
      </trkpt>
      <trkpt lat="59.070353507995605" lon="30.005979537963867">
        <time>2026-04-25T09:30:25Z</time>
      </trkpt>
      <trkpt lat="59.070353507995605" lon="30.005979537963867">
        <time>2026-04-25T09:30:28Z</time>
      </trkpt>
      <trkpt lat="59.070353507995605" lon="30.005979537963867">
        <time>2026-04-25T09:30:30Z</time>
      </trkpt>
      <trkpt lat="59.070353507995605" lon="30.005979537963867">
        <time>2026-04-25T09:30:33Z</time>
      </trkpt>
      <trkpt lat="59.070353507995605" lon="30.005979537963867">
        <time>2026-04-25T09:30:35Z</time>
      </trkpt>
      <trkpt lat="59.070353507995605" lon="30.005979537963867">
        <time>2026-04-25T09:30:38Z</time>
      </trkpt>
      <trkpt lat="59.070353507995605" lon="30.005979537963867">
        <time>2026-04-25T09:30:40Z</time>
      </trkpt>
      <trkpt lat="59.070353507995605" lon="30.005958080291748">
        <time>2026-04-25T09:30:43Z</time>
      </trkpt>
      <trkpt lat="59.070374965667725" lon="30.005893707275391">
        <time>2026-04-25T09:30:45Z</time>
      </trkpt>
      <trkpt lat="59.070374965667725" lon="30.005850791931152">
        <time>2026-04-25T09:30:48Z</time>
      </trkpt>
      <trkpt lat="59.070374965667725" lon="30.005850791931152">
        <time>2026-04-25T09:30:50Z</time>
      </trkpt>
      <trkpt lat="59.070374965667725" lon="30.005829334259033">
        <time>2026-04-25T09:30:53Z</time>
      </trkpt>
      <trkpt lat="59.070374965667725" lon="30.005872249603271">
        <time>2026-04-25T09:30:55Z</time>
      </trkpt>
      <trkpt lat="59.070396423339844" lon="30.005893707275391">
        <time>2026-04-25T09:30:58Z</time>
      </trkpt>
      <trkpt lat="59.070417881011963" lon="30.005936622619629">
        <time>2026-04-25T09:31:00Z</time>
      </trkpt>
      <trkpt lat="59.070439338684082" lon="30.006000995635986">
        <time>2026-04-25T09:31:03Z</time>
      </trkpt>
      <trkpt lat="59.070417881011963" lon="30.006043910980225">
        <time>2026-04-25T09:31:05Z</time>
      </trkpt>
      <trkpt lat="59.070439338684082" lon="30.006086826324463">
        <time>2026-04-25T09:31:08Z</time>
      </trkpt>
      <trkpt lat="59.070439338684082" lon="30.006108283996582">
        <time>2026-04-25T09:31:10Z</time>
      </trkpt>
      <trkpt lat="59.070460796356201" lon="30.006108283996582">
        <time>2026-04-25T09:31:13Z</time>
      </trkpt>
      <trkpt lat="59.070460796356201" lon="30.006129741668701">
        <time>2026-04-25T09:31:15Z</time>
      </trkpt>
      <trkpt lat="59.070460796356201" lon="30.006129741668701">
        <time>2026-04-25T09:31:18Z</time>
      </trkpt>
      <trkpt lat="59.070460796356201" lon="30.006129741668701">
        <time>2026-04-25T09:31:20Z</time>
      </trkpt>
      <trkpt lat="59.070460796356201" lon="30.006129741668701">
        <time>2026-04-25T09:31:23Z</time>
      </trkpt>
      <trkpt lat="59.070460796356201" lon="30.006129741668701">
        <time>2026-04-25T09:31:25Z</time>
      </trkpt>
      <trkpt lat="59.070460796356201" lon="30.006129741668701">
        <time>2026-04-25T09:31:28Z</time>
      </trkpt>
      <trkpt lat="59.070460796356201" lon="30.006129741668701">
        <time>2026-04-25T09:31:30Z</time>
      </trkpt>
      <trkpt lat="59.070460796356201" lon="30.006129741668701">
        <time>2026-04-25T09:31:33Z</time>
      </trkpt>
      <trkpt lat="59.070460796356201" lon="30.006129741668701">
        <time>2026-04-25T09:31:35Z</time>
      </trkpt>
      <trkpt lat="59.070460796356201" lon="30.006129741668701">
        <time>2026-04-25T09:31:38Z</time>
      </trkpt>
      <trkpt lat="59.070460796356201" lon="30.00615119934082">
        <time>2026-04-25T09:31:40Z</time>
      </trkpt>
      <trkpt lat="59.070460796356201" lon="30.006194114685059">
        <time>2026-04-25T09:31:43Z</time>
      </trkpt>
      <trkpt lat="59.070460796356201" lon="30.006258487701416">
        <time>2026-04-25T09:31:45Z</time>
      </trkpt>
      <trkpt lat="59.070460796356201" lon="30.006322860717773">
        <time>2026-04-25T09:31:48Z</time>
      </trkpt>
      <trkpt lat="59.07048225402832" lon="30.006387233734131">
        <time>2026-04-25T09:31:50Z</time>
      </trkpt>
      <trkpt lat="59.07048225402832" lon="30.006430149078369">
        <time>2026-04-25T09:31:53Z</time>
      </trkpt>
      <trkpt lat="59.070503711700439" lon="30.006430149078369">
        <time>2026-04-25T09:31:55Z</time>
      </trkpt>
      <trkpt lat="59.070503711700439" lon="30.006473064422607">
        <time>2026-04-25T09:31:58Z</time>
      </trkpt>
      <trkpt lat="59.07048225402832" lon="30.006494522094727">
        <time>2026-04-25T09:32:00Z</time>
      </trkpt>
      <trkpt lat="59.070503711700439" lon="30.006537437438965">
        <time>2026-04-25T09:32:03Z</time>
      </trkpt>
      <trkpt lat="59.070503711700439" lon="30.006580352783203">
        <time>2026-04-25T09:32:05Z</time>
      </trkpt>
      <trkpt lat="59.070525169372559" lon="30.006601810455322">
        <time>2026-04-25T09:32:08Z</time>
      </trkpt>
      <trkpt lat="59.070546627044678" lon="30.006580352783203">
        <time>2026-04-25T09:32:10Z</time>
      </trkpt>
      <trkpt lat="59.070568084716797" lon="30.006580352783203">
        <time>2026-04-25T09:32:13Z</time>
      </trkpt>
      <trkpt lat="59.070568084716797" lon="30.006623268127441">
        <time>2026-04-25T09:32:15Z</time>
      </trkpt>
      <trkpt lat="59.070568084716797" lon="30.006644725799561">
        <time>2026-04-25T09:32:18Z</time>
      </trkpt>
      <trkpt lat="59.070589542388916" lon="30.006687641143799">
        <time>2026-04-25T09:32:20Z</time>
      </trkpt>
      <trkpt lat="59.070589542388916" lon="30.006709098815918">
        <time>2026-04-25T09:32:23Z</time>
      </trkpt>
      <trkpt lat="59.070611000061035" lon="30.006709098815918">
        <time>2026-04-25T09:32:25Z</time>
      </trkpt>
      <trkpt lat="59.070611000061035" lon="30.006709098815918">
        <time>2026-04-25T09:32:28Z</time>
      </trkpt>
      <trkpt lat="59.070611000061035" lon="30.006709098815918">
        <time>2026-04-25T09:32:30Z</time>
      </trkpt>
      <trkpt lat="59.070611000061035" lon="30.006730556488037">
        <time>2026-04-25T09:32:33Z</time>
      </trkpt>
      <trkpt lat="59.070611000061035" lon="30.006794929504395">
        <time>2026-04-25T09:32:35Z</time>
      </trkpt>
      <trkpt lat="59.070611000061035" lon="30.006816387176514">
        <time>2026-04-25T09:32:38Z</time>
      </trkpt>
      <trkpt lat="59.070632457733154" lon="30.006816387176514">
        <time>2026-04-25T09:32:40Z</time>
      </trkpt>
      <trkpt lat="59.070632457733154" lon="30.006816387176514">
        <time>2026-04-25T09:32:43Z</time>
      </trkpt>
      <trkpt lat="59.070653915405273" lon="30.006794929504395">
        <time>2026-04-25T09:32:45Z</time>
      </trkpt>
      <trkpt lat="59.070675373077393" lon="30.006816387176514">
        <time>2026-04-25T09:32:48Z</time>
      </trkpt>
      <trkpt lat="59.070696830749512" lon="30.006816387176514">
        <time>2026-04-25T09:32:50Z</time>
      </trkpt>
      <trkpt lat="59.070696830749512" lon="30.006794929504395">
        <time>2026-04-25T09:32:55Z</time>
      </trkpt>
      <trkpt lat="59.070632457733154" lon="30.006880760192871">
        <time>2026-04-25T09:33:03Z</time>
      </trkpt>
      <trkpt lat="59.070568084716797" lon="30.006859302520752">
        <time>2026-04-25T09:33:10Z</time>
      </trkpt>
      <trkpt lat="59.070589542388916" lon="30.006816387176514">
        <time>2026-04-25T09:33:18Z</time>
      </trkpt>
      <trkpt lat="59.070611000061035" lon="30.006794929504395">
        <time>2026-04-25T09:33:23Z</time>
      </trkpt>
      <trkpt lat="59.070611000061035" lon="30.006816387176514">
        <time>2026-04-25T09:33:25Z</time>
      </trkpt>
      <trkpt lat="59.070611000061035" lon="30.006880760192871">
        <time>2026-04-25T09:33:28Z</time>
      </trkpt>
      <trkpt lat="59.070611000061035" lon="30.006923675537109">
        <time>2026-04-25T09:33:30Z</time>
      </trkpt>
      <trkpt lat="59.070611000061035" lon="30.006966590881348">
        <time>2026-04-25T09:33:33Z</time>
      </trkpt>
      <trkpt lat="59.070611000061035" lon="30.007030963897705">
        <time>2026-04-25T09:33:35Z</time>
      </trkpt>
      <trkpt lat="59.070632457733154" lon="30.007052421569824">
        <time>2026-04-25T09:33:38Z</time>
      </trkpt>
      <trkpt lat="59.070632457733154" lon="30.007052421569824">
        <time>2026-04-25T09:33:40Z</time>
      </trkpt>
      <trkpt lat="59.070653915405273" lon="30.007073879241943">
        <time>2026-04-25T09:33:43Z</time>
      </trkpt>
      <trkpt lat="59.070653915405273" lon="30.007138252258301">
        <time>2026-04-25T09:33:45Z</time>
      </trkpt>
      <trkpt lat="59.070675373077393" lon="30.00715970993042">
        <time>2026-04-25T09:33:48Z</time>
      </trkpt>
      <trkpt lat="59.070718288421631" lon="30.007138252258301">
        <time>2026-04-25T09:33:50Z</time>
      </trkpt>
      <trkpt lat="59.070718288421631" lon="30.007095336914063">
        <time>2026-04-25T09:33:53Z</time>
      </trkpt>
      <trkpt lat="59.070718288421631" lon="30.007095336914063">
        <time>2026-04-25T09:33:55Z</time>
      </trkpt>
      <trkpt lat="59.070718288421631" lon="30.007073879241943">
        <time>2026-04-25T09:33:58Z</time>
      </trkpt>
      <trkpt lat="59.070718288421631" lon="30.007095336914063">
        <time>2026-04-25T09:34:00Z</time>
      </trkpt>
      <trkpt lat="59.07073974609375" lon="30.007073879241943">
        <time>2026-04-25T09:34:03Z</time>
      </trkpt>
      <trkpt lat="59.070718288421631" lon="30.007073879241943">
        <time>2026-04-25T09:34:05Z</time>
      </trkpt>
      <trkpt lat="59.070718288421631" lon="30.007073879241943">
        <time>2026-04-25T09:34:08Z</time>
      </trkpt>
      <trkpt lat="59.070696830749512" lon="30.007116794586182">
        <time>2026-04-25T09:34:10Z</time>
      </trkpt>
      <trkpt lat="59.070718288421631" lon="30.007181167602539">
        <time>2026-04-25T09:34:13Z</time>
      </trkpt>
      <trkpt lat="59.070718288421631" lon="30.007224082946777">
        <time>2026-04-25T09:34:15Z</time>
      </trkpt>
      <trkpt lat="59.070718288421631" lon="30.007245540618896">
        <time>2026-04-25T09:34:18Z</time>
      </trkpt>
      <trkpt lat="59.070761203765869" lon="30.007266998291016">
        <time>2026-04-25T09:34:20Z</time>
      </trkpt>
      <trkpt lat="59.070761203765869" lon="30.007309913635254">
        <time>2026-04-25T09:34:23Z</time>
      </trkpt>
      <trkpt lat="59.07073974609375" lon="30.007374286651611">
        <time>2026-04-25T09:34:25Z</time>
      </trkpt>
      <trkpt lat="59.070761203765869" lon="30.00741720199585">
        <time>2026-04-25T09:34:28Z</time>
      </trkpt>
      <trkpt lat="59.070782661437988" lon="30.00741720199585">
        <time>2026-04-25T09:34:30Z</time>
      </trkpt>
      <trkpt lat="59.070761203765869" lon="30.00741720199585">
        <time>2026-04-25T09:34:33Z</time>
      </trkpt>
      <trkpt lat="59.07073974609375" lon="30.007481575012207">
        <time>2026-04-25T09:34:35Z</time>
      </trkpt>
      <trkpt lat="59.070718288421631" lon="30.007503032684326">
        <time>2026-04-25T09:34:38Z</time>
      </trkpt>
      <trkpt lat="59.070696830749512" lon="30.007524490356445">
        <time>2026-04-25T09:34:40Z</time>
      </trkpt>
      <trkpt lat="59.070675373077393" lon="30.007503032684326">
        <time>2026-04-25T09:34:43Z</time>
      </trkpt>
      <trkpt lat="59.070675373077393" lon="30.007503032684326">
        <time>2026-04-25T09:34:45Z</time>
      </trkpt>
      <trkpt lat="59.070675373077393" lon="30.007481575012207">
        <time>2026-04-25T09:34:48Z</time>
      </trkpt>
      <trkpt lat="59.070653915405273" lon="30.00739574432373">
        <time>2026-04-25T09:34:50Z</time>
      </trkpt>
      <trkpt lat="59.070653915405273" lon="30.00739574432373">
        <time>2026-04-25T09:34:53Z</time>
      </trkpt>
      <trkpt lat="59.070653915405273" lon="30.00739574432373">
        <time>2026-04-25T09:34:55Z</time>
      </trkpt>
      <trkpt lat="59.070653915405273" lon="30.00739574432373">
        <time>2026-04-25T09:34:58Z</time>
      </trkpt>
      <trkpt lat="59.070653915405273" lon="30.00739574432373">
        <time>2026-04-25T09:35:00Z</time>
      </trkpt>
      <trkpt lat="59.070632457733154" lon="30.007352828979492">
        <time>2026-04-25T09:35:03Z</time>
      </trkpt>
      <trkpt lat="59.070589542388916" lon="30.007331371307373">
        <time>2026-04-25T09:35:05Z</time>
      </trkpt>
      <trkpt lat="59.070568084716797" lon="30.007309913635254">
        <time>2026-04-25T09:35:08Z</time>
      </trkpt>
      <trkpt lat="59.070546627044678" lon="30.007288455963135">
        <time>2026-04-25T09:35:10Z</time>
      </trkpt>
      <trkpt lat="59.070546627044678" lon="30.007288455963135">
        <time>2026-04-25T09:35:13Z</time>
      </trkpt>
      <trkpt lat="59.070525169372559" lon="30.007288455963135">
        <time>2026-04-25T09:35:15Z</time>
      </trkpt>
      <trkpt lat="59.070503711700439" lon="30.007288455963135">
        <time>2026-04-25T09:35:18Z</time>
      </trkpt>
      <trkpt lat="59.07048225402832" lon="30.007288455963135">
        <time>2026-04-25T09:35:20Z</time>
      </trkpt>
      <trkpt lat="59.07048225402832" lon="30.007309913635254">
        <time>2026-04-25T09:35:23Z</time>
      </trkpt>
      <trkpt lat="59.07048225402832" lon="30.007331371307373">
        <time>2026-04-25T09:35:25Z</time>
      </trkpt>
      <trkpt lat="59.07048225402832" lon="30.007352828979492">
        <time>2026-04-25T09:35:28Z</time>
      </trkpt>
      <trkpt lat="59.070460796356201" lon="30.00739574432373">
        <time>2026-04-25T09:35:30Z</time>
      </trkpt>
      <trkpt lat="59.07048225402832" lon="30.00741720199585">
        <time>2026-04-25T09:35:33Z</time>
      </trkpt>
      <trkpt lat="59.07048225402832" lon="30.007460117340088">
        <time>2026-04-25T09:35:35Z</time>
      </trkpt>
      <trkpt lat="59.070503711700439" lon="30.007481575012207">
        <time>2026-04-25T09:35:38Z</time>
      </trkpt>
      <trkpt lat="59.070503711700439" lon="30.007481575012207">
        <time>2026-04-25T09:35:40Z</time>
      </trkpt>
      <trkpt lat="59.070525169372559" lon="30.007481575012207">
        <time>2026-04-25T09:35:43Z</time>
      </trkpt>
      <trkpt lat="59.070525169372559" lon="30.007503032684326">
        <time>2026-04-25T09:35:45Z</time>
      </trkpt>
      <trkpt lat="59.070525169372559" lon="30.007503032684326">
        <time>2026-04-25T09:35:48Z</time>
      </trkpt>
      <trkpt lat="59.070546627044678" lon="30.007503032684326">
        <time>2026-04-25T09:35:50Z</time>
      </trkpt>
      <trkpt lat="59.070546627044678" lon="30.007524490356445">
        <time>2026-04-25T09:35:53Z</time>
      </trkpt>
      <trkpt lat="59.070546627044678" lon="30.007588863372803">
        <time>2026-04-25T09:35:55Z</time>
      </trkpt>
      <trkpt lat="59.070568084716797" lon="30.007631778717041">
        <time>2026-04-25T09:35:58Z</time>
      </trkpt>
      <trkpt lat="59.070568084716797" lon="30.00765323638916">
        <time>2026-04-25T09:36:00Z</time>
      </trkpt>
      <trkpt lat="59.070568084716797" lon="30.00765323638916">
        <time>2026-04-25T09:36:03Z</time>
      </trkpt>
      <trkpt lat="59.070568084716797" lon="30.00765323638916">
        <time>2026-04-25T09:36:05Z</time>
      </trkpt>
      <trkpt lat="59.070568084716797" lon="30.007696151733398">
        <time>2026-04-25T09:36:08Z</time>
      </trkpt>
      <trkpt lat="59.070568084716797" lon="30.007739067077637">
        <time>2026-04-25T09:36:10Z</time>
      </trkpt>
      <trkpt lat="59.070589542388916" lon="30.007803440093994">
        <time>2026-04-25T09:36:13Z</time>
      </trkpt>
      <trkpt lat="59.070589542388916" lon="30.007846355438232">
        <time>2026-04-25T09:36:15Z</time>
      </trkpt>
      <trkpt lat="59.070611000061035" lon="30.007867813110352">
        <time>2026-04-25T09:36:18Z</time>
      </trkpt>
      <trkpt lat="59.070611000061035" lon="30.007867813110352">
        <time>2026-04-25T09:36:20Z</time>
      </trkpt>
      <trkpt lat="59.070611000061035" lon="30.007867813110352">
        <time>2026-04-25T09:36:23Z</time>
      </trkpt>
      <trkpt lat="59.070611000061035" lon="30.00791072845459">
        <time>2026-04-25T09:36:25Z</time>
      </trkpt>
      <trkpt lat="59.070611000061035" lon="30.007953643798828">
        <time>2026-04-25T09:36:28Z</time>
      </trkpt>
      <trkpt lat="59.070611000061035" lon="30.007996559143066">
        <time>2026-04-25T09:36:30Z</time>
      </trkpt>
      <trkpt lat="59.070611000061035" lon="30.008018016815186">
        <time>2026-04-25T09:36:33Z</time>
      </trkpt>
      <trkpt lat="59.070632457733154" lon="30.008039474487305">
        <time>2026-04-25T09:36:35Z</time>
      </trkpt>
      <trkpt lat="59.070632457733154" lon="30.008060932159424">
        <time>2026-04-25T09:36:38Z</time>
      </trkpt>
      <trkpt lat="59.070653915405273" lon="30.008082389831543">
        <time>2026-04-25T09:36:40Z</time>
      </trkpt>
      <trkpt lat="59.070675373077393" lon="30.008103847503662">
        <time>2026-04-25T09:36:43Z</time>
      </trkpt>
      <trkpt lat="59.070675373077393" lon="30.008125305175781">
        <time>2026-04-25T09:36:45Z</time>
      </trkpt>
      <trkpt lat="59.070675373077393" lon="30.00816822052002">
        <time>2026-04-25T09:36:48Z</time>
      </trkpt>
      <trkpt lat="59.070696830749512" lon="30.008232593536377">
        <time>2026-04-25T09:36:50Z</time>
      </trkpt>
      <trkpt lat="59.070718288421631" lon="30.008232593536377">
        <time>2026-04-25T09:36:53Z</time>
      </trkpt>
      <trkpt lat="59.07073974609375" lon="30.008232593536377">
        <time>2026-04-25T09:36:55Z</time>
      </trkpt>
      <trkpt lat="59.070761203765869" lon="30.00816822052002">
        <time>2026-04-25T09:36:58Z</time>
      </trkpt>
      <trkpt lat="59.070761203765869" lon="30.0081467628479">
        <time>2026-04-25T09:37:00Z</time>
      </trkpt>
      <trkpt lat="59.070761203765869" lon="30.008103847503662">
        <time>2026-04-25T09:37:03Z</time>
      </trkpt>
      <trkpt lat="59.070782661437988" lon="30.008082389831543">
        <time>2026-04-25T09:37:05Z</time>
      </trkpt>
      <trkpt lat="59.070782661437988" lon="30.008082389831543">
        <time>2026-04-25T09:37:08Z</time>
      </trkpt>
      <trkpt lat="59.070782661437988" lon="30.008039474487305">
        <time>2026-04-25T09:37:10Z</time>
      </trkpt>
      <trkpt lat="59.070782661437988" lon="30.007996559143066">
        <time>2026-04-25T09:37:13Z</time>
      </trkpt>
      <trkpt lat="59.070782661437988" lon="30.007953643798828">
        <time>2026-04-25T09:37:15Z</time>
      </trkpt>
      <trkpt lat="59.070804119110107" lon="30.007889270782471">
        <time>2026-04-25T09:37:18Z</time>
      </trkpt>
      <trkpt lat="59.070825576782227" lon="30.007846355438232">
        <time>2026-04-25T09:37:20Z</time>
      </trkpt>
      <trkpt lat="59.070825576782227" lon="30.007803440093994">
        <time>2026-04-25T09:37:23Z</time>
      </trkpt>
      <trkpt lat="59.070825576782227" lon="30.007803440093994">
        <time>2026-04-25T09:37:25Z</time>
      </trkpt>
      <trkpt lat="59.070825576782227" lon="30.007803440093994">
        <time>2026-04-25T09:37:28Z</time>
      </trkpt>
      <trkpt lat="59.070825576782227" lon="30.007781982421875">
        <time>2026-04-25T09:37:30Z</time>
      </trkpt>
      <trkpt lat="59.070847034454346" lon="30.007781982421875">
        <time>2026-04-25T09:37:33Z</time>
      </trkpt>
      <trkpt lat="59.070889949798584" lon="30.007803440093994">
        <time>2026-04-25T09:37:35Z</time>
      </trkpt>
      <trkpt lat="59.070889949798584" lon="30.007781982421875">
        <time>2026-04-25T09:37:38Z</time>
      </trkpt>
      <trkpt lat="59.070911407470703" lon="30.007739067077637">
        <time>2026-04-25T09:37:40Z</time>
      </trkpt>
      <trkpt lat="59.070932865142822" lon="30.007696151733398">
        <time>2026-04-25T09:37:43Z</time>
      </trkpt>
      <trkpt lat="59.070932865142822" lon="30.007631778717041">
        <time>2026-04-25T09:37:45Z</time>
      </trkpt>
      <trkpt lat="59.070954322814941" lon="30.007588863372803">
        <time>2026-04-25T09:37:48Z</time>
      </trkpt>
      <trkpt lat="59.07099723815918" lon="30.007588863372803">
        <time>2026-04-25T09:37:50Z</time>
      </trkpt>
      <trkpt lat="59.071018695831299" lon="30.007610321044922">
        <time>2026-04-25T09:37:53Z</time>
      </trkpt>
      <trkpt lat="59.07099723815918" lon="30.007631778717041">
        <time>2026-04-25T09:37:55Z</time>
      </trkpt>
      <trkpt lat="59.071018695831299" lon="30.007631778717041">
        <time>2026-04-25T09:37:58Z</time>
      </trkpt>
      <trkpt lat="59.071040153503418" lon="30.007696151733398">
        <time>2026-04-25T09:38:00Z</time>
      </trkpt>
      <trkpt lat="59.071061611175537" lon="30.007696151733398">
        <time>2026-04-25T09:38:03Z</time>
      </trkpt>
      <trkpt lat="59.071104526519775" lon="30.00765323638916">
        <time>2026-04-25T09:38:05Z</time>
      </trkpt>
      <trkpt lat="59.071125984191895" lon="30.007674694061279">
        <time>2026-04-25T09:38:08Z</time>
      </trkpt>
      <trkpt lat="59.071147441864014" lon="30.007696151733398">
        <time>2026-04-25T09:38:10Z</time>
      </trkpt>
      <trkpt lat="59.071147441864014" lon="30.007739067077637">
        <time>2026-04-25T09:38:13Z</time>
      </trkpt>
      <trkpt lat="59.071147441864014" lon="30.007760524749756">
        <time>2026-04-25T09:38:15Z</time>
      </trkpt>
      <trkpt lat="59.071147441864014" lon="30.007760524749756">
        <time>2026-04-25T09:38:18Z</time>
      </trkpt>
      <trkpt lat="59.071147441864014" lon="30.007760524749756">
        <time>2026-04-25T09:38:20Z</time>
      </trkpt>
      <trkpt lat="59.071147441864014" lon="30.007760524749756">
        <time>2026-04-25T09:38:23Z</time>
      </trkpt>
      <trkpt lat="59.071147441864014" lon="30.007803440093994">
        <time>2026-04-25T09:38:25Z</time>
      </trkpt>
      <trkpt lat="59.071147441864014" lon="30.007846355438232">
        <time>2026-04-25T09:38:28Z</time>
      </trkpt>
      <trkpt lat="59.071168899536133" lon="30.00791072845459">
        <time>2026-04-25T09:38:30Z</time>
      </trkpt>
      <trkpt lat="59.071168899536133" lon="30.007975101470947">
        <time>2026-04-25T09:38:33Z</time>
      </trkpt>
      <trkpt lat="59.071168899536133" lon="30.008039474487305">
        <time>2026-04-25T09:38:35Z</time>
      </trkpt>
      <trkpt lat="59.071147441864014" lon="30.008060932159424">
        <time>2026-04-25T09:38:38Z</time>
      </trkpt>
      <trkpt lat="59.071104526519775" lon="30.008060932159424">
        <time>2026-04-25T09:38:40Z</time>
      </trkpt>
      <trkpt lat="59.071083068847656" lon="30.008060932159424">
        <time>2026-04-25T09:38:43Z</time>
      </trkpt>
      <trkpt lat="59.071083068847656" lon="30.008103847503662">
        <time>2026-04-25T09:38:45Z</time>
      </trkpt>
      <trkpt lat="59.071083068847656" lon="30.00816822052002">
        <time>2026-04-25T09:38:48Z</time>
      </trkpt>
      <trkpt lat="59.071104526519775" lon="30.008189678192139">
        <time>2026-04-25T09:38:50Z</time>
      </trkpt>
      <trkpt lat="59.071104526519775" lon="30.008232593536377">
        <time>2026-04-25T09:38:53Z</time>
      </trkpt>
      <trkpt lat="59.071104526519775" lon="30.008275508880615">
        <time>2026-04-25T09:38:55Z</time>
      </trkpt>
      <trkpt lat="59.071125984191895" lon="30.008296966552734">
        <time>2026-04-25T09:38:58Z</time>
      </trkpt>
      <trkpt lat="59.071125984191895" lon="30.008275508880615">
        <time>2026-04-25T09:39:00Z</time>
      </trkpt>
      <trkpt lat="59.071125984191895" lon="30.008318424224854">
        <time>2026-04-25T09:39:03Z</time>
      </trkpt>
      <trkpt lat="59.071125984191895" lon="30.008361339569092">
        <time>2026-04-25T09:39:05Z</time>
      </trkpt>
      <trkpt lat="59.071125984191895" lon="30.008382797241211">
        <time>2026-04-25T09:39:08Z</time>
      </trkpt>
      <trkpt lat="59.071125984191895" lon="30.008447170257568">
        <time>2026-04-25T09:39:10Z</time>
      </trkpt>
      <trkpt lat="59.071147441864014" lon="30.008490085601807">
        <time>2026-04-25T09:39:13Z</time>
      </trkpt>
      <trkpt lat="59.071147441864014" lon="30.008533000946045">
        <time>2026-04-25T09:39:15Z</time>
      </trkpt>
      <trkpt lat="59.071147441864014" lon="30.008554458618164">
        <time>2026-04-25T09:39:18Z</time>
      </trkpt>
      <trkpt lat="59.071147441864014" lon="30.008597373962402">
        <time>2026-04-25T09:39:20Z</time>
      </trkpt>
      <trkpt lat="59.071147441864014" lon="30.008640289306641">
        <time>2026-04-25T09:39:23Z</time>
      </trkpt>
      <trkpt lat="59.071147441864014" lon="30.008683204650879">
        <time>2026-04-25T09:39:25Z</time>
      </trkpt>
      <trkpt lat="59.071168899536133" lon="30.008704662322998">
        <time>2026-04-25T09:39:28Z</time>
      </trkpt>
      <trkpt lat="59.071168899536133" lon="30.008704662322998">
        <time>2026-04-25T09:39:30Z</time>
      </trkpt>
      <trkpt lat="59.071147441864014" lon="30.008704662322998">
        <time>2026-04-25T09:39:33Z</time>
      </trkpt>
      <trkpt lat="59.071125984191895" lon="30.008704662322998">
        <time>2026-04-25T09:39:35Z</time>
      </trkpt>
      <trkpt lat="59.071125984191895" lon="30.008726119995117">
        <time>2026-04-25T09:39:38Z</time>
      </trkpt>
      <trkpt lat="59.071125984191895" lon="30.008747577667236">
        <time>2026-04-25T09:39:40Z</time>
      </trkpt>
      <trkpt lat="59.071125984191895" lon="30.008790493011475">
        <time>2026-04-25T09:39:43Z</time>
      </trkpt>
      <trkpt lat="59.071104526519775" lon="30.008833408355713">
        <time>2026-04-25T09:39:45Z</time>
      </trkpt>
      <trkpt lat="59.071104526519775" lon="30.008854866027832">
        <time>2026-04-25T09:39:48Z</time>
      </trkpt>
      <trkpt lat="59.071104526519775" lon="30.008876323699951">
        <time>2026-04-25T09:39:50Z</time>
      </trkpt>
      <trkpt lat="59.071083068847656" lon="30.008854866027832">
        <time>2026-04-25T09:39:53Z</time>
      </trkpt>
      <trkpt lat="59.071083068847656" lon="30.008876323699951">
        <time>2026-04-25T09:39:55Z</time>
      </trkpt>
      <trkpt lat="59.071061611175537" lon="30.008919239044189">
        <time>2026-04-25T09:39:58Z</time>
      </trkpt>
      <trkpt lat="59.071061611175537" lon="30.008940696716309">
        <time>2026-04-25T09:40:00Z</time>
      </trkpt>
      <trkpt lat="59.071040153503418" lon="30.008940696716309">
        <time>2026-04-25T09:40:03Z</time>
      </trkpt>
      <trkpt lat="59.071040153503418" lon="30.008962154388428">
        <time>2026-04-25T09:40:05Z</time>
      </trkpt>
      <trkpt lat="59.071040153503418" lon="30.008962154388428">
        <time>2026-04-25T09:40:08Z</time>
      </trkpt>
      <trkpt lat="59.071040153503418" lon="30.008962154388428">
        <time>2026-04-25T09:40:10Z</time>
      </trkpt>
      <trkpt lat="59.071040153503418" lon="30.008962154388428">
        <time>2026-04-25T09:40:13Z</time>
      </trkpt>
      <trkpt lat="59.071040153503418" lon="30.008962154388428">
        <time>2026-04-25T09:40:15Z</time>
      </trkpt>
      <trkpt lat="59.071040153503418" lon="30.008962154388428">
        <time>2026-04-25T09:40:18Z</time>
      </trkpt>
      <trkpt lat="59.071040153503418" lon="30.008962154388428">
        <time>2026-04-25T09:40:20Z</time>
      </trkpt>
      <trkpt lat="59.071040153503418" lon="30.008962154388428">
        <time>2026-04-25T09:40:23Z</time>
      </trkpt>
      <trkpt lat="59.071040153503418" lon="30.008962154388428">
        <time>2026-04-25T09:40:25Z</time>
      </trkpt>
      <trkpt lat="59.071018695831299" lon="30.009005069732666">
        <time>2026-04-25T09:40:28Z</time>
      </trkpt>
      <trkpt lat="59.07099723815918" lon="30.009069442749023">
        <time>2026-04-25T09:40:30Z</time>
      </trkpt>
      <trkpt lat="59.07099723815918" lon="30.009112358093262">
        <time>2026-04-25T09:40:33Z</time>
      </trkpt>
      <trkpt lat="59.070975780487061" lon="30.009176731109619">
        <time>2026-04-25T09:40:35Z</time>
      </trkpt>
      <trkpt lat="59.070975780487061" lon="30.009176731109619">
        <time>2026-04-25T09:40:38Z</time>
      </trkpt>
      <trkpt lat="59.070932865142822" lon="30.009198188781738">
        <time>2026-04-25T09:40:40Z</time>
      </trkpt>
      <trkpt lat="59.070932865142822" lon="30.009219646453857">
        <time>2026-04-25T09:40:43Z</time>
      </trkpt>
      <trkpt lat="59.070932865142822" lon="30.009262561798096">
        <time>2026-04-25T09:40:45Z</time>
      </trkpt>
      <trkpt lat="59.070911407470703" lon="30.009262561798096">
        <time>2026-04-25T09:40:48Z</time>
      </trkpt>
      <trkpt lat="59.070911407470703" lon="30.009305477142334">
        <time>2026-04-25T09:40:50Z</time>
      </trkpt>
      <trkpt lat="59.070932865142822" lon="30.009326934814453">
        <time>2026-04-25T09:40:53Z</time>
      </trkpt>
      <trkpt lat="59.070932865142822" lon="30.009369850158691">
        <time>2026-04-25T09:40:55Z</time>
      </trkpt>
      <trkpt lat="59.070932865142822" lon="30.009391307830811">
        <time>2026-04-25T09:40:58Z</time>
      </trkpt>
      <trkpt lat="59.070932865142822" lon="30.009391307830811">
        <time>2026-04-25T09:41:00Z</time>
      </trkpt>
      <trkpt lat="59.070932865142822" lon="30.009434223175049">
        <time>2026-04-25T09:41:03Z</time>
      </trkpt>
      <trkpt lat="59.070932865142822" lon="30.009477138519287">
        <time>2026-04-25T09:41:05Z</time>
      </trkpt>
      <trkpt lat="59.070954322814941" lon="30.009498596191406">
        <time>2026-04-25T09:41:08Z</time>
      </trkpt>
      <trkpt lat="59.070954322814941" lon="30.009520053863525">
        <time>2026-04-25T09:41:10Z</time>
      </trkpt>
      <trkpt lat="59.070975780487061" lon="30.009562969207764">
        <time>2026-04-25T09:41:13Z</time>
      </trkpt>
      <trkpt lat="59.070975780487061" lon="30.009584426879883">
        <time>2026-04-25T09:41:15Z</time>
      </trkpt>
      <trkpt lat="59.07099723815918" lon="30.009605884552002">
        <time>2026-04-25T09:41:18Z</time>
      </trkpt>
      <trkpt lat="59.07099723815918" lon="30.009605884552002">
        <time>2026-04-25T09:41:20Z</time>
      </trkpt>
      <trkpt lat="59.071018695831299" lon="30.009627342224121">
        <time>2026-04-25T09:41:23Z</time>
      </trkpt>
      <trkpt lat="59.071061611175537" lon="30.009670257568359">
        <time>2026-04-25T09:41:25Z</time>
      </trkpt>
      <trkpt lat="59.071061611175537" lon="30.009691715240479">
        <time>2026-04-25T09:41:28Z</time>
      </trkpt>
      <trkpt lat="59.071061611175537" lon="30.009713172912598">
        <time>2026-04-25T09:41:30Z</time>
      </trkpt>
      <trkpt lat="59.071061611175537" lon="30.009713172912598">
        <time>2026-04-25T09:41:33Z</time>
      </trkpt>
      <trkpt lat="59.071061611175537" lon="30.009734630584717">
        <time>2026-04-25T09:41:35Z</time>
      </trkpt>
      <trkpt lat="59.071104526519775" lon="30.009799003601074">
        <time>2026-04-25T09:41:38Z</time>
      </trkpt>
      <trkpt lat="59.071125984191895" lon="30.009841918945313">
        <time>2026-04-25T09:41:40Z</time>
      </trkpt>
      <trkpt lat="59.071125984191895" lon="30.009820461273193">
        <time>2026-04-25T09:41:43Z</time>
      </trkpt>
      <trkpt lat="59.071147441864014" lon="30.009841918945313">
        <time>2026-04-25T09:41:45Z</time>
      </trkpt>
      <trkpt lat="59.071168899536133" lon="30.009863376617432">
        <time>2026-04-25T09:41:48Z</time>
      </trkpt>
      <trkpt lat="59.071190357208252" lon="30.009841918945313">
        <time>2026-04-25T09:41:50Z</time>
      </trkpt>
      <trkpt lat="59.071190357208252" lon="30.009820461273193">
        <time>2026-04-25T09:41:53Z</time>
      </trkpt>
      <trkpt lat="59.071211814880371" lon="30.009777545928955">
        <time>2026-04-25T09:41:55Z</time>
      </trkpt>
      <trkpt lat="59.071254730224609" lon="30.009756088256836">
        <time>2026-04-25T09:41:58Z</time>
      </trkpt>
      <trkpt lat="59.071297645568848" lon="30.009713172912598">
        <time>2026-04-25T09:42:00Z</time>
      </trkpt>
      <trkpt lat="59.071319103240967" lon="30.009691715240479">
        <time>2026-04-25T09:42:03Z</time>
      </trkpt>
      <trkpt lat="59.071319103240967" lon="30.009670257568359">
        <time>2026-04-25T09:42:05Z</time>
      </trkpt>
      <trkpt lat="59.071319103240967" lon="30.009670257568359">
        <time>2026-04-25T09:42:08Z</time>
      </trkpt>
      <trkpt lat="59.071319103240967" lon="30.009627342224121">
        <time>2026-04-25T09:42:10Z</time>
      </trkpt>
      <trkpt lat="59.071319103240967" lon="30.009627342224121">
        <time>2026-04-25T09:42:13Z</time>
      </trkpt>
      <trkpt lat="59.071319103240967" lon="30.009605884552002">
        <time>2026-04-25T09:42:15Z</time>
      </trkpt>
      <trkpt lat="59.071319103240967" lon="30.009605884552002">
        <time>2026-04-25T09:42:18Z</time>
      </trkpt>
      <trkpt lat="59.071319103240967" lon="30.009605884552002">
        <time>2026-04-25T09:42:20Z</time>
      </trkpt>
      <trkpt lat="59.071319103240967" lon="30.009605884552002">
        <time>2026-04-25T09:42:23Z</time>
      </trkpt>
      <trkpt lat="59.071297645568848" lon="30.009670257568359">
        <time>2026-04-25T09:42:25Z</time>
      </trkpt>
      <trkpt lat="59.071276187896729" lon="30.009713172912598">
        <time>2026-04-25T09:42:28Z</time>
      </trkpt>
      <trkpt lat="59.071276187896729" lon="30.009713172912598">
        <time>2026-04-25T09:42:30Z</time>
      </trkpt>
      <trkpt lat="59.071254730224609" lon="30.009756088256836">
        <time>2026-04-25T09:42:33Z</time>
      </trkpt>
      <trkpt lat="59.071254730224609" lon="30.009799003601074">
        <time>2026-04-25T09:42:35Z</time>
      </trkpt>
      <trkpt lat="59.071254730224609" lon="30.009799003601074">
        <time>2026-04-25T09:42:38Z</time>
      </trkpt>
      <trkpt lat="59.071254730224609" lon="30.009799003601074">
        <time>2026-04-25T09:42:40Z</time>
      </trkpt>
      <trkpt lat="59.071254730224609" lon="30.009799003601074">
        <time>2026-04-25T09:42:43Z</time>
      </trkpt>
      <trkpt lat="59.071254730224609" lon="30.009799003601074">
        <time>2026-04-25T09:42:45Z</time>
      </trkpt>
      <trkpt lat="59.071254730224609" lon="30.009799003601074">
        <time>2026-04-25T09:42:48Z</time>
      </trkpt>
      <trkpt lat="59.071254730224609" lon="30.009799003601074">
        <time>2026-04-25T09:42:50Z</time>
      </trkpt>
      <trkpt lat="59.071254730224609" lon="30.009799003601074">
        <time>2026-04-25T09:42:53Z</time>
      </trkpt>
      <trkpt lat="59.071254730224609" lon="30.009799003601074">
        <time>2026-04-25T09:42:55Z</time>
      </trkpt>
      <trkpt lat="59.071254730224609" lon="30.009799003601074">
        <time>2026-04-25T09:42:58Z</time>
      </trkpt>
      <trkpt lat="59.071254730224609" lon="30.009820461273193">
        <time>2026-04-25T09:43:00Z</time>
      </trkpt>
      <trkpt lat="59.07123327255249" lon="30.009863376617432">
        <time>2026-04-25T09:43:03Z</time>
      </trkpt>
      <trkpt lat="59.071211814880371" lon="30.00990629196167">
        <time>2026-04-25T09:43:05Z</time>
      </trkpt>
      <trkpt lat="59.071211814880371" lon="30.009927749633789">
        <time>2026-04-25T09:43:08Z</time>
      </trkpt>
      <trkpt lat="59.071190357208252" lon="30.009970664978027">
        <time>2026-04-25T09:43:10Z</time>
      </trkpt>
      <trkpt lat="59.071190357208252" lon="30.009992122650146">
        <time>2026-04-25T09:43:13Z</time>
      </trkpt>
      <trkpt lat="59.071190357208252" lon="30.010035037994385">
        <time>2026-04-25T09:43:15Z</time>
      </trkpt>
      <trkpt lat="59.071190357208252" lon="30.010077953338623">
        <time>2026-04-25T09:43:18Z</time>
      </trkpt>
      <trkpt lat="59.071211814880371" lon="30.010120868682861">
        <time>2026-04-25T09:43:20Z</time>
      </trkpt>
      <trkpt lat="59.071190357208252" lon="30.0101637840271">
        <time>2026-04-25T09:43:23Z</time>
      </trkpt>
      <trkpt lat="59.071211814880371" lon="30.010206699371338">
        <time>2026-04-25T09:43:25Z</time>
      </trkpt>
      <trkpt lat="59.071211814880371" lon="30.010206699371338">
        <time>2026-04-25T09:43:28Z</time>
      </trkpt>
      <trkpt lat="59.071211814880371" lon="30.010228157043457">
        <time>2026-04-25T09:43:30Z</time>
      </trkpt>
      <trkpt lat="59.07123327255249" lon="30.010249614715576">
        <time>2026-04-25T09:43:33Z</time>
      </trkpt>
      <trkpt lat="59.071254730224609" lon="30.010249614715576">
        <time>2026-04-25T09:43:35Z</time>
      </trkpt>
      <trkpt lat="59.071254730224609" lon="30.010271072387695">
        <time>2026-04-25T09:43:38Z</time>
      </trkpt>
      <trkpt lat="59.071276187896729" lon="30.010271072387695">
        <time>2026-04-25T09:43:40Z</time>
      </trkpt>
      <trkpt lat="59.071297645568848" lon="30.010249614715576">
        <time>2026-04-25T09:43:43Z</time>
      </trkpt>
      <trkpt lat="59.071319103240967" lon="30.010249614715576">
        <time>2026-04-25T09:43:45Z</time>
      </trkpt>
      <trkpt lat="59.071319103240967" lon="30.010271072387695">
        <time>2026-04-25T09:43:48Z</time>
      </trkpt>
      <trkpt lat="59.071319103240967" lon="30.010271072387695">
        <time>2026-04-25T09:43:50Z</time>
      </trkpt>
      <trkpt lat="59.071319103240967" lon="30.010271072387695">
        <time>2026-04-25T09:43:53Z</time>
      </trkpt>
      <trkpt lat="59.071319103240967" lon="30.010271072387695">
        <time>2026-04-25T09:43:55Z</time>
      </trkpt>
      <trkpt lat="59.071319103240967" lon="30.010271072387695">
        <time>2026-04-25T09:43:58Z</time>
      </trkpt>
      <trkpt lat="59.071319103240967" lon="30.010271072387695">
        <time>2026-04-25T09:44:00Z</time>
      </trkpt>
      <trkpt lat="59.071319103240967" lon="30.010271072387695">
        <time>2026-04-25T09:44:03Z</time>
      </trkpt>
      <trkpt lat="59.071319103240967" lon="30.010271072387695">
        <time>2026-04-25T09:44:05Z</time>
      </trkpt>
      <trkpt lat="59.071319103240967" lon="30.010271072387695">
        <time>2026-04-25T09:44:08Z</time>
      </trkpt>
      <trkpt lat="59.071319103240967" lon="30.010271072387695">
        <time>2026-04-25T09:44:10Z</time>
      </trkpt>
      <trkpt lat="59.071319103240967" lon="30.010271072387695">
        <time>2026-04-25T09:44:13Z</time>
      </trkpt>
      <trkpt lat="59.071319103240967" lon="30.010271072387695">
        <time>2026-04-25T09:44:15Z</time>
      </trkpt>
      <trkpt lat="59.071319103240967" lon="30.010271072387695">
        <time>2026-04-25T09:44:18Z</time>
      </trkpt>
      <trkpt lat="59.071319103240967" lon="30.010271072387695">
        <time>2026-04-25T09:44:20Z</time>
      </trkpt>
      <trkpt lat="59.071319103240967" lon="30.010271072387695">
        <time>2026-04-25T09:44:23Z</time>
      </trkpt>
      <trkpt lat="59.071319103240967" lon="30.010271072387695">
        <time>2026-04-25T09:44:25Z</time>
      </trkpt>
      <trkpt lat="59.071319103240967" lon="30.010271072387695">
        <time>2026-04-25T09:44:28Z</time>
      </trkpt>
      <trkpt lat="59.071319103240967" lon="30.010271072387695">
        <time>2026-04-25T09:44:30Z</time>
      </trkpt>
      <trkpt lat="59.071319103240967" lon="30.010271072387695">
        <time>2026-04-25T09:44:33Z</time>
      </trkpt>
      <trkpt lat="59.071319103240967" lon="30.010271072387695">
        <time>2026-04-25T09:44:35Z</time>
      </trkpt>
      <trkpt lat="59.071319103240967" lon="30.010271072387695">
        <time>2026-04-25T09:44:38Z</time>
      </trkpt>
      <trkpt lat="59.071319103240967" lon="30.010271072387695">
        <time>2026-04-25T09:44:40Z</time>
      </trkpt>
      <trkpt lat="59.071319103240967" lon="30.010271072387695">
        <time>2026-04-25T09:44:43Z</time>
      </trkpt>
      <trkpt lat="59.071319103240967" lon="30.010271072387695">
        <time>2026-04-25T09:44:45Z</time>
      </trkpt>
      <trkpt lat="59.071319103240967" lon="30.010271072387695">
        <time>2026-04-25T09:44:48Z</time>
      </trkpt>
      <trkpt lat="59.071319103240967" lon="30.010292530059814">
        <time>2026-04-25T09:44:50Z</time>
      </trkpt>
      <trkpt lat="59.071319103240967" lon="30.010313987731934">
        <time>2026-04-25T09:44:53Z</time>
      </trkpt>
      <trkpt lat="59.071297645568848" lon="30.010356903076172">
        <time>2026-04-25T09:44:55Z</time>
      </trkpt>
      <trkpt lat="59.071276187896729" lon="30.010356903076172">
        <time>2026-04-25T09:44:58Z</time>
      </trkpt>
      <trkpt lat="59.071254730224609" lon="30.01039981842041">
        <time>2026-04-25T09:45:00Z</time>
      </trkpt>
      <trkpt lat="59.07123327255249" lon="30.01039981842041">
        <time>2026-04-25T09:45:03Z</time>
      </trkpt>
      <trkpt lat="59.07123327255249" lon="30.010442733764648">
        <time>2026-04-25T09:45:05Z</time>
      </trkpt>
      <trkpt lat="59.07123327255249" lon="30.010485649108887">
        <time>2026-04-25T09:45:08Z</time>
      </trkpt>
      <trkpt lat="59.071211814880371" lon="30.010507106781006">
        <time>2026-04-25T09:45:10Z</time>
      </trkpt>
      <trkpt lat="59.071190357208252" lon="30.010528564453125">
        <time>2026-04-25T09:45:13Z</time>
      </trkpt>
      <trkpt lat="59.071211814880371" lon="30.010571479797363">
        <time>2026-04-25T09:45:15Z</time>
      </trkpt>
      <trkpt lat="59.071190357208252" lon="30.010592937469482">
        <time>2026-04-25T09:45:18Z</time>
      </trkpt>
      <trkpt lat="59.071190357208252" lon="30.010614395141602">
        <time>2026-04-25T09:45:20Z</time>
      </trkpt>
      <trkpt lat="59.071168899536133" lon="30.010614395141602">
        <time>2026-04-25T09:45:23Z</time>
      </trkpt>
      <trkpt lat="59.071147441864014" lon="30.01065731048584">
        <time>2026-04-25T09:45:25Z</time>
      </trkpt>
      <trkpt lat="59.071147441864014" lon="30.010700225830078">
        <time>2026-04-25T09:45:28Z</time>
      </trkpt>
      <trkpt lat="59.071125984191895" lon="30.010743141174316">
        <time>2026-04-25T09:45:30Z</time>
      </trkpt>
      <trkpt lat="59.071104526519775" lon="30.010764598846436">
        <time>2026-04-25T09:45:33Z</time>
      </trkpt>
      <trkpt lat="59.071083068847656" lon="30.010764598846436">
        <time>2026-04-25T09:45:35Z</time>
      </trkpt>
      <trkpt lat="59.071061611175537" lon="30.010786056518555">
        <time>2026-04-25T09:45:38Z</time>
      </trkpt>
      <trkpt lat="59.071061611175537" lon="30.010807514190674">
        <time>2026-04-25T09:45:40Z</time>
      </trkpt>
      <trkpt lat="59.071061611175537" lon="30.010807514190674">
        <time>2026-04-25T09:45:43Z</time>
      </trkpt>
      <trkpt lat="59.071061611175537" lon="30.010828971862793">
        <time>2026-04-25T09:45:45Z</time>
      </trkpt>
      <trkpt lat="59.071040153503418" lon="30.01089334487915">
        <time>2026-04-25T09:45:48Z</time>
      </trkpt>
      <trkpt lat="59.071018695831299" lon="30.01091480255127">
        <time>2026-04-25T09:45:50Z</time>
      </trkpt>
      <trkpt lat="59.071040153503418" lon="30.01091480255127">
        <time>2026-04-25T09:45:53Z</time>
      </trkpt>
      <trkpt lat="59.071040153503418" lon="30.010979175567627">
        <time>2026-04-25T09:45:55Z</time>
      </trkpt>
      <trkpt lat="59.071018695831299" lon="30.011022090911865">
        <time>2026-04-25T09:45:58Z</time>
      </trkpt>
      <trkpt lat="59.071040153503418" lon="30.011065006256104">
        <time>2026-04-25T09:46:00Z</time>
      </trkpt>
      <trkpt lat="59.071040153503418" lon="30.011107921600342">
        <time>2026-04-25T09:46:03Z</time>
      </trkpt>
      <trkpt lat="59.071040153503418" lon="30.011172294616699">
        <time>2026-04-25T09:46:05Z</time>
      </trkpt>
      <trkpt lat="59.071040153503418" lon="30.011215209960938">
        <time>2026-04-25T09:46:08Z</time>
      </trkpt>
      <trkpt lat="59.071040153503418" lon="30.011258125305176">
        <time>2026-04-25T09:46:10Z</time>
      </trkpt>
      <trkpt lat="59.071061611175537" lon="30.011258125305176">
        <time>2026-04-25T09:46:13Z</time>
      </trkpt>
      <trkpt lat="59.071061611175537" lon="30.011279582977295">
        <time>2026-04-25T09:46:15Z</time>
      </trkpt>
      <trkpt lat="59.071040153503418" lon="30.011301040649414">
        <time>2026-04-25T09:46:18Z</time>
      </trkpt>
      <trkpt lat="59.071040153503418" lon="30.011343955993652">
        <time>2026-04-25T09:46:20Z</time>
      </trkpt>
      <trkpt lat="59.071040153503418" lon="30.011343955993652">
        <time>2026-04-25T09:46:23Z</time>
      </trkpt>
      <trkpt lat="59.071061611175537" lon="30.011386871337891">
        <time>2026-04-25T09:46:25Z</time>
      </trkpt>
      <trkpt lat="59.071061611175537" lon="30.011429786682129">
        <time>2026-04-25T09:46:28Z</time>
      </trkpt>
      <trkpt lat="59.071061611175537" lon="30.011451244354248">
        <time>2026-04-25T09:46:30Z</time>
      </trkpt>
      <trkpt lat="59.071061611175537" lon="30.011494159698486">
        <time>2026-04-25T09:46:33Z</time>
      </trkpt>
      <trkpt lat="59.071083068847656" lon="30.011537075042725">
        <time>2026-04-25T09:46:35Z</time>
      </trkpt>
      <trkpt lat="59.071083068847656" lon="30.011579990386963">
        <time>2026-04-25T09:46:38Z</time>
      </trkpt>
      <trkpt lat="59.071061611175537" lon="30.011558532714844">
        <time>2026-04-25T09:46:40Z</time>
      </trkpt>
      <trkpt lat="59.071061611175537" lon="30.011537075042725">
        <time>2026-04-25T09:46:43Z</time>
      </trkpt>
      <trkpt lat="59.071061611175537" lon="30.011558532714844">
        <time>2026-04-25T09:46:45Z</time>
      </trkpt>
      <trkpt lat="59.071083068847656" lon="30.011665821075439">
        <time>2026-04-25T09:46:48Z</time>
      </trkpt>
      <trkpt lat="59.071125984191895" lon="30.011773109436035">
        <time>2026-04-25T09:46:50Z</time>
      </trkpt>
      <trkpt lat="59.071125984191895" lon="30.011773109436035">
        <time>2026-04-25T09:46:53Z</time>
      </trkpt>
      <trkpt lat="59.071147441864014" lon="30.011773109436035">
        <time>2026-04-25T09:46:55Z</time>
      </trkpt>
      <trkpt lat="59.071168899536133" lon="30.011773109436035">
        <time>2026-04-25T09:46:58Z</time>
      </trkpt>
      <trkpt lat="59.071168899536133" lon="30.011794567108154">
        <time>2026-04-25T09:47:00Z</time>
      </trkpt>
      <trkpt lat="59.071190357208252" lon="30.011837482452393">
        <time>2026-04-25T09:47:03Z</time>
      </trkpt>
      <trkpt lat="59.071190357208252" lon="30.011837482452393">
        <time>2026-04-25T09:47:05Z</time>
      </trkpt>
      <trkpt lat="59.071211814880371" lon="30.011816024780273">
        <time>2026-04-25T09:47:08Z</time>
      </trkpt>
      <trkpt lat="59.07123327255249" lon="30.011816024780273">
        <time>2026-04-25T09:47:10Z</time>
      </trkpt>
      <trkpt lat="59.07123327255249" lon="30.011816024780273">
        <time>2026-04-25T09:47:13Z</time>
      </trkpt>
      <trkpt lat="59.07123327255249" lon="30.011794567108154">
        <time>2026-04-25T09:47:15Z</time>
      </trkpt>
      <trkpt lat="59.07123327255249" lon="30.011794567108154">
        <time>2026-04-25T09:47:18Z</time>
      </trkpt>
      <trkpt lat="59.071276187896729" lon="30.011816024780273">
        <time>2026-04-25T09:47:20Z</time>
      </trkpt>
      <trkpt lat="59.071276187896729" lon="30.011837482452393">
        <time>2026-04-25T09:47:23Z</time>
      </trkpt>
      <trkpt lat="59.071276187896729" lon="30.011858940124512">
        <time>2026-04-25T09:47:25Z</time>
      </trkpt>
      <trkpt lat="59.071276187896729" lon="30.011858940124512">
        <time>2026-04-25T09:47:28Z</time>
      </trkpt>
      <trkpt lat="59.071297645568848" lon="30.011858940124512">
        <time>2026-04-25T09:47:30Z</time>
      </trkpt>
      <trkpt lat="59.071319103240967" lon="30.011880397796631">
        <time>2026-04-25T09:47:33Z</time>
      </trkpt>
      <trkpt lat="59.071340560913086" lon="30.011923313140869">
        <time>2026-04-25T09:47:35Z</time>
      </trkpt>
      <trkpt lat="59.071340560913086" lon="30.011966228485107">
        <time>2026-04-25T09:47:38Z</time>
      </trkpt>
      <trkpt lat="59.071340560913086" lon="30.011966228485107">
        <time>2026-04-25T09:47:40Z</time>
      </trkpt>
      <trkpt lat="59.071340560913086" lon="30.011987686157227">
        <time>2026-04-25T09:47:43Z</time>
      </trkpt>
      <trkpt lat="59.071340560913086" lon="30.011966228485107">
        <time>2026-04-25T09:47:45Z</time>
      </trkpt>
      <trkpt lat="59.071340560913086" lon="30.011966228485107">
        <time>2026-04-25T09:47:48Z</time>
      </trkpt>
      <trkpt lat="59.071340560913086" lon="30.011966228485107">
        <time>2026-04-25T09:47:50Z</time>
      </trkpt>
      <trkpt lat="59.071340560913086" lon="30.011966228485107">
        <time>2026-04-25T09:47:53Z</time>
      </trkpt>
      <trkpt lat="59.071340560913086" lon="30.011923313140869">
        <time>2026-04-25T09:47:55Z</time>
      </trkpt>
      <trkpt lat="59.071340560913086" lon="30.01190185546875">
        <time>2026-04-25T09:47:58Z</time>
      </trkpt>
      <trkpt lat="59.071340560913086" lon="30.011880397796631">
        <time>2026-04-25T09:48:00Z</time>
      </trkpt>
      <trkpt lat="59.071362018585205" lon="30.011837482452393">
        <time>2026-04-25T09:48:03Z</time>
      </trkpt>
      <trkpt lat="59.071362018585205" lon="30.011837482452393">
        <time>2026-04-25T09:48:05Z</time>
      </trkpt>
      <trkpt lat="59.071362018585205" lon="30.011837482452393">
        <time>2026-04-25T09:48:08Z</time>
      </trkpt>
      <trkpt lat="59.071362018585205" lon="30.011837482452393">
        <time>2026-04-25T09:48:10Z</time>
      </trkpt>
      <trkpt lat="59.071362018585205" lon="30.011837482452393">
        <time>2026-04-25T09:48:13Z</time>
      </trkpt>
      <trkpt lat="59.071362018585205" lon="30.011837482452393">
        <time>2026-04-25T09:48:15Z</time>
      </trkpt>
      <trkpt lat="59.071362018585205" lon="30.011816024780273">
        <time>2026-04-25T09:48:18Z</time>
      </trkpt>
      <trkpt lat="59.071362018585205" lon="30.011816024780273">
        <time>2026-04-25T09:48:20Z</time>
      </trkpt>
      <trkpt lat="59.071362018585205" lon="30.011816024780273">
        <time>2026-04-25T09:48:23Z</time>
      </trkpt>
      <trkpt lat="59.071362018585205" lon="30.011816024780273">
        <time>2026-04-25T09:48:25Z</time>
      </trkpt>
      <trkpt lat="59.071362018585205" lon="30.011816024780273">
        <time>2026-04-25T09:48:28Z</time>
      </trkpt>
      <trkpt lat="59.071383476257324" lon="30.011816024780273">
        <time>2026-04-25T09:48:30Z</time>
      </trkpt>
      <trkpt lat="59.071383476257324" lon="30.011816024780273">
        <time>2026-04-25T09:48:33Z</time>
      </trkpt>
      <trkpt lat="59.071383476257324" lon="30.011816024780273">
        <time>2026-04-25T09:48:35Z</time>
      </trkpt>
      <trkpt lat="59.071383476257324" lon="30.011816024780273">
        <time>2026-04-25T09:48:38Z</time>
      </trkpt>
      <trkpt lat="59.071383476257324" lon="30.011816024780273">
        <time>2026-04-25T09:48:40Z</time>
      </trkpt>
      <trkpt lat="59.071383476257324" lon="30.011816024780273">
        <time>2026-04-25T09:48:43Z</time>
      </trkpt>
      <trkpt lat="59.071383476257324" lon="30.011816024780273">
        <time>2026-04-25T09:48:45Z</time>
      </trkpt>
      <trkpt lat="59.071383476257324" lon="30.011816024780273">
        <time>2026-04-25T09:48:48Z</time>
      </trkpt>
      <trkpt lat="59.071383476257324" lon="30.011816024780273">
        <time>2026-04-25T09:48:50Z</time>
      </trkpt>
      <trkpt lat="59.071404933929443" lon="30.011773109436035">
        <time>2026-04-25T09:48:53Z</time>
      </trkpt>
      <trkpt lat="59.071447849273682" lon="30.011730194091797">
        <time>2026-04-25T09:48:55Z</time>
      </trkpt>
      <trkpt lat="59.071469306945801" lon="30.011687278747559">
        <time>2026-04-25T09:48:58Z</time>
      </trkpt>
      <trkpt lat="59.071512222290039" lon="30.01164436340332">
        <time>2026-04-25T09:49:00Z</time>
      </trkpt>
      <trkpt lat="59.071533679962158" lon="30.01164436340332">
        <time>2026-04-25T09:49:03Z</time>
      </trkpt>
      <trkpt lat="59.071576595306396" lon="30.011622905731201">
        <time>2026-04-25T09:49:05Z</time>
      </trkpt>
      <trkpt lat="59.071555137634277" lon="30.011601448059082">
        <time>2026-04-25T09:49:08Z</time>
      </trkpt>
      <trkpt lat="59.071576595306396" lon="30.01164436340332">
        <time>2026-04-25T09:49:10Z</time>
      </trkpt>
      <trkpt lat="59.071576595306396" lon="30.01164436340332">
        <time>2026-04-25T09:49:13Z</time>
      </trkpt>
      <trkpt lat="59.071576595306396" lon="30.01164436340332">
        <time>2026-04-25T09:49:15Z</time>
      </trkpt>
      <trkpt lat="59.071598052978516" lon="30.01164436340332">
        <time>2026-04-25T09:49:18Z</time>
      </trkpt>
      <trkpt lat="59.071619510650635" lon="30.01164436340332">
        <time>2026-04-25T09:49:20Z</time>
      </trkpt>
      <trkpt lat="59.071598052978516" lon="30.01164436340332">
        <time>2026-04-25T09:49:23Z</time>
      </trkpt>
      <trkpt lat="59.071598052978516" lon="30.01164436340332">
        <time>2026-04-25T09:49:25Z</time>
      </trkpt>
      <trkpt lat="59.071598052978516" lon="30.01164436340332">
        <time>2026-04-25T09:49:28Z</time>
      </trkpt>
      <trkpt lat="59.071598052978516" lon="30.01164436340332">
        <time>2026-04-25T09:49:30Z</time>
      </trkpt>
      <trkpt lat="59.071598052978516" lon="30.01164436340332">
        <time>2026-04-25T09:49:33Z</time>
      </trkpt>
      <trkpt lat="59.071640968322754" lon="30.011579990386963">
        <time>2026-04-25T09:49:35Z</time>
      </trkpt>
      <trkpt lat="59.071683883666992" lon="30.011537075042725">
        <time>2026-04-25T09:49:38Z</time>
      </trkpt>
      <trkpt lat="59.071705341339111" lon="30.011537075042725">
        <time>2026-04-25T09:49:40Z</time>
      </trkpt>
      <trkpt lat="59.07172679901123" lon="30.011515617370605">
        <time>2026-04-25T09:49:43Z</time>
      </trkpt>
      <trkpt lat="59.071769714355469" lon="30.011494159698486">
        <time>2026-04-25T09:49:45Z</time>
      </trkpt>
      <trkpt lat="59.071791172027588" lon="30.011472702026367">
        <time>2026-04-25T09:49:48Z</time>
      </trkpt>
      <trkpt lat="59.071855545043945" lon="30.011472702026367">
        <time>2026-04-25T09:49:50Z</time>
      </trkpt>
      <trkpt lat="59.071877002716064" lon="30.011429786682129">
        <time>2026-04-25T09:49:53Z</time>
      </trkpt>
      <trkpt lat="59.071919918060303" lon="30.01140832901001">
        <time>2026-04-25T09:49:55Z</time>
      </trkpt>
      <trkpt lat="59.071919918060303" lon="30.011429786682129">
        <time>2026-04-25T09:49:58Z</time>
      </trkpt>
      <trkpt lat="59.071919918060303" lon="30.01140832901001">
        <time>2026-04-25T09:50:00Z</time>
      </trkpt>
      <trkpt lat="59.071941375732422" lon="30.011386871337891">
        <time>2026-04-25T09:50:03Z</time>
      </trkpt>
      <trkpt lat="59.071962833404541" lon="30.011365413665771">
        <time>2026-04-25T09:50:05Z</time>
      </trkpt>
      <trkpt lat="59.072005748748779" lon="30.011365413665771">
        <time>2026-04-25T09:50:08Z</time>
      </trkpt>
      <trkpt lat="59.072048664093018" lon="30.011365413665771">
        <time>2026-04-25T09:50:10Z</time>
      </trkpt>
      <trkpt lat="59.072070121765137" lon="30.011365413665771">
        <time>2026-04-25T09:50:13Z</time>
      </trkpt>
      <trkpt lat="59.072091579437256" lon="30.011365413665771">
        <time>2026-04-25T09:50:15Z</time>
      </trkpt>
      <trkpt lat="59.072113037109375" lon="30.011343955993652">
        <time>2026-04-25T09:50:18Z</time>
      </trkpt>
      <trkpt lat="59.072134494781494" lon="30.011322498321533">
        <time>2026-04-25T09:50:20Z</time>
      </trkpt>
      <trkpt lat="59.072155952453613" lon="30.011322498321533">
        <time>2026-04-25T09:50:23Z</time>
      </trkpt>
      <trkpt lat="59.072155952453613" lon="30.011343955993652">
        <time>2026-04-25T09:50:25Z</time>
      </trkpt>
      <trkpt lat="59.072177410125732" lon="30.011343955993652">
        <time>2026-04-25T09:50:28Z</time>
      </trkpt>
      <trkpt lat="59.072198867797852" lon="30.011386871337891">
        <time>2026-04-25T09:50:30Z</time>
      </trkpt>
      <trkpt lat="59.072220325469971" lon="30.011429786682129">
        <time>2026-04-25T09:50:33Z</time>
      </trkpt>
      <trkpt lat="59.07224178314209" lon="30.01140832901001">
        <time>2026-04-25T09:50:35Z</time>
      </trkpt>
      <trkpt lat="59.072284698486328" lon="30.011386871337891">
        <time>2026-04-25T09:50:38Z</time>
      </trkpt>
      <trkpt lat="59.072306156158447" lon="30.011365413665771">
        <time>2026-04-25T09:50:40Z</time>
      </trkpt>
      <trkpt lat="59.072327613830566" lon="30.011343955993652">
        <time>2026-04-25T09:50:43Z</time>
      </trkpt>
      <trkpt lat="59.072327613830566" lon="30.011343955993652">
        <time>2026-04-25T09:50:45Z</time>
      </trkpt>
      <trkpt lat="59.072327613830566" lon="30.011343955993652">
        <time>2026-04-25T09:50:48Z</time>
      </trkpt>
      <trkpt lat="59.072327613830566" lon="30.011343955993652">
        <time>2026-04-25T09:50:50Z</time>
      </trkpt>
      <trkpt lat="59.072327613830566" lon="30.011343955993652">
        <time>2026-04-25T09:50:53Z</time>
      </trkpt>
      <trkpt lat="59.072306156158447" lon="30.011386871337891">
        <time>2026-04-25T09:50:55Z</time>
      </trkpt>
      <trkpt lat="59.072284698486328" lon="30.01140832901001">
        <time>2026-04-25T09:50:58Z</time>
      </trkpt>
      <trkpt lat="59.072284698486328" lon="30.01140832901001">
        <time>2026-04-25T09:51:00Z</time>
      </trkpt>
      <trkpt lat="59.072327613830566" lon="30.011386871337891">
        <time>2026-04-25T09:51:03Z</time>
      </trkpt>
      <trkpt lat="59.072349071502686" lon="30.011365413665771">
        <time>2026-04-25T09:51:05Z</time>
      </trkpt>
      <trkpt lat="59.072370529174805" lon="30.011386871337891">
        <time>2026-04-25T09:51:08Z</time>
      </trkpt>
      <trkpt lat="59.072370529174805" lon="30.011386871337891">
        <time>2026-04-25T09:51:10Z</time>
      </trkpt>
      <trkpt lat="59.072391986846924" lon="30.011365413665771">
        <time>2026-04-25T09:51:13Z</time>
      </trkpt>
      <trkpt lat="59.072413444519043" lon="30.011365413665771">
        <time>2026-04-25T09:51:15Z</time>
      </trkpt>
      <trkpt lat="59.072434902191162" lon="30.011322498321533">
        <time>2026-04-25T09:51:18Z</time>
      </trkpt>
      <trkpt lat="59.072456359863281" lon="30.011279582977295">
        <time>2026-04-25T09:51:20Z</time>
      </trkpt>
      <trkpt lat="59.0724778175354" lon="30.011236667633057">
        <time>2026-04-25T09:51:23Z</time>
      </trkpt>
      <trkpt lat="59.07249927520752" lon="30.011172294616699">
        <time>2026-04-25T09:51:25Z</time>
      </trkpt>
      <trkpt lat="59.072520732879639" lon="30.011172294616699">
        <time>2026-04-25T09:51:28Z</time>
      </trkpt>
      <trkpt lat="59.072542190551758" lon="30.011236667633057">
        <time>2026-04-25T09:51:30Z</time>
      </trkpt>
      <trkpt lat="59.072563648223877" lon="30.011258125305176">
        <time>2026-04-25T09:51:33Z</time>
      </trkpt>
      <trkpt lat="59.072585105895996" lon="30.011215209960938">
        <time>2026-04-25T09:51:35Z</time>
      </trkpt>
      <trkpt lat="59.072606563568115" lon="30.011215209960938">
        <time>2026-04-25T09:51:38Z</time>
      </trkpt>
      <trkpt lat="59.072628021240234" lon="30.011215209960938">
        <time>2026-04-25T09:51:40Z</time>
      </trkpt>
      <trkpt lat="59.072628021240234" lon="30.011258125305176">
        <time>2026-04-25T09:51:43Z</time>
      </trkpt>
      <trkpt lat="59.072628021240234" lon="30.011258125305176">
        <time>2026-04-25T09:51:45Z</time>
      </trkpt>
      <trkpt lat="59.072628021240234" lon="30.011258125305176">
        <time>2026-04-25T09:51:48Z</time>
      </trkpt>
      <trkpt lat="59.072628021240234" lon="30.011258125305176">
        <time>2026-04-25T09:51:50Z</time>
      </trkpt>
      <trkpt lat="59.072628021240234" lon="30.011258125305176">
        <time>2026-04-25T09:51:53Z</time>
      </trkpt>
      <trkpt lat="59.072628021240234" lon="30.011258125305176">
        <time>2026-04-25T09:51:55Z</time>
      </trkpt>
      <trkpt lat="59.072628021240234" lon="30.011258125305176">
        <time>2026-04-25T09:51:58Z</time>
      </trkpt>
      <trkpt lat="59.072628021240234" lon="30.011258125305176">
        <time>2026-04-25T09:52:00Z</time>
      </trkpt>
      <trkpt lat="59.072628021240234" lon="30.011258125305176">
        <time>2026-04-25T09:52:03Z</time>
      </trkpt>
      <trkpt lat="59.072628021240234" lon="30.011258125305176">
        <time>2026-04-25T09:52:05Z</time>
      </trkpt>
      <trkpt lat="59.072628021240234" lon="30.011258125305176">
        <time>2026-04-25T09:52:08Z</time>
      </trkpt>
      <trkpt lat="59.072628021240234" lon="30.011258125305176">
        <time>2026-04-25T09:52:10Z</time>
      </trkpt>
      <trkpt lat="59.072628021240234" lon="30.011258125305176">
        <time>2026-04-25T09:52:13Z</time>
      </trkpt>
      <trkpt lat="59.072628021240234" lon="30.011258125305176">
        <time>2026-04-25T09:52:15Z</time>
      </trkpt>
      <trkpt lat="59.072628021240234" lon="30.011258125305176">
        <time>2026-04-25T09:52:18Z</time>
      </trkpt>
      <trkpt lat="59.072628021240234" lon="30.011258125305176">
        <time>2026-04-25T09:52:20Z</time>
      </trkpt>
      <trkpt lat="59.072628021240234" lon="30.011258125305176">
        <time>2026-04-25T09:52:23Z</time>
      </trkpt>
      <trkpt lat="59.072628021240234" lon="30.011258125305176">
        <time>2026-04-25T09:52:25Z</time>
      </trkpt>
      <trkpt lat="59.072628021240234" lon="30.011258125305176">
        <time>2026-04-25T09:52:28Z</time>
      </trkpt>
      <trkpt lat="59.072628021240234" lon="30.011258125305176">
        <time>2026-04-25T09:52:30Z</time>
      </trkpt>
      <trkpt lat="59.072628021240234" lon="30.011258125305176">
        <time>2026-04-25T09:52:33Z</time>
      </trkpt>
      <trkpt lat="59.072628021240234" lon="30.011258125305176">
        <time>2026-04-25T09:52:35Z</time>
      </trkpt>
      <trkpt lat="59.072628021240234" lon="30.011258125305176">
        <time>2026-04-25T09:52:38Z</time>
      </trkpt>
      <trkpt lat="59.072628021240234" lon="30.011258125305176">
        <time>2026-04-25T09:52:40Z</time>
      </trkpt>
      <trkpt lat="59.072628021240234" lon="30.011258125305176">
        <time>2026-04-25T09:52:43Z</time>
      </trkpt>
      <trkpt lat="59.072628021240234" lon="30.011258125305176">
        <time>2026-04-25T09:52:45Z</time>
      </trkpt>
      <trkpt lat="59.072628021240234" lon="30.011258125305176">
        <time>2026-04-25T09:52:48Z</time>
      </trkpt>
      <trkpt lat="59.072628021240234" lon="30.011258125305176">
        <time>2026-04-25T09:52:50Z</time>
      </trkpt>
      <trkpt lat="59.072628021240234" lon="30.011258125305176">
        <time>2026-04-25T09:52:53Z</time>
      </trkpt>
      <trkpt lat="59.072628021240234" lon="30.011258125305176">
        <time>2026-04-25T09:52:55Z</time>
      </trkpt>
      <trkpt lat="59.072628021240234" lon="30.011258125305176">
        <time>2026-04-25T09:52:58Z</time>
      </trkpt>
      <trkpt lat="59.072628021240234" lon="30.011258125305176">
        <time>2026-04-25T09:53:00Z</time>
      </trkpt>
      <trkpt lat="59.072628021240234" lon="30.011258125305176">
        <time>2026-04-25T09:53:03Z</time>
      </trkpt>
      <trkpt lat="59.072628021240234" lon="30.011258125305176">
        <time>2026-04-25T09:53:05Z</time>
      </trkpt>
      <trkpt lat="59.072628021240234" lon="30.011258125305176">
        <time>2026-04-25T09:53:08Z</time>
      </trkpt>
      <trkpt lat="59.072628021240234" lon="30.011258125305176">
        <time>2026-04-25T09:53:10Z</time>
      </trkpt>
      <trkpt lat="59.072628021240234" lon="30.011258125305176">
        <time>2026-04-25T09:53:13Z</time>
      </trkpt>
      <trkpt lat="59.072649478912354" lon="30.011258125305176">
        <time>2026-04-25T09:53:15Z</time>
      </trkpt>
      <trkpt lat="59.072649478912354" lon="30.011258125305176">
        <time>2026-04-25T09:53:18Z</time>
      </trkpt>
      <trkpt lat="59.072670936584473" lon="30.011279582977295">
        <time>2026-04-25T09:53:20Z</time>
      </trkpt>
      <trkpt lat="59.072670936584473" lon="30.011279582977295">
        <time>2026-04-25T09:53:23Z</time>
      </trkpt>
      <trkpt lat="59.072670936584473" lon="30.011279582977295">
        <time>2026-04-25T09:53:25Z</time>
      </trkpt>
      <trkpt lat="59.072670936584473" lon="30.011279582977295">
        <time>2026-04-25T09:53:28Z</time>
      </trkpt>
      <trkpt lat="59.072670936584473" lon="30.011279582977295">
        <time>2026-04-25T09:53:30Z</time>
      </trkpt>
      <trkpt lat="59.072670936584473" lon="30.011279582977295">
        <time>2026-04-25T09:53:33Z</time>
      </trkpt>
      <trkpt lat="59.072670936584473" lon="30.011279582977295">
        <time>2026-04-25T09:53:35Z</time>
      </trkpt>
      <trkpt lat="59.072670936584473" lon="30.011279582977295">
        <time>2026-04-25T09:53:38Z</time>
      </trkpt>
      <trkpt lat="59.072692394256592" lon="30.011258125305176">
        <time>2026-04-25T09:53:40Z</time>
      </trkpt>
      <trkpt lat="59.07273530960083" lon="30.011236667633057">
        <time>2026-04-25T09:53:43Z</time>
      </trkpt>
      <trkpt lat="59.072756767272949" lon="30.011193752288818">
        <time>2026-04-25T09:53:45Z</time>
      </trkpt>
      <trkpt lat="59.072799682617187" lon="30.011172294616699">
        <time>2026-04-25T09:53:48Z</time>
      </trkpt>
      <trkpt lat="59.072821140289307" lon="30.01115083694458">
        <time>2026-04-25T09:53:50Z</time>
      </trkpt>
      <trkpt lat="59.072864055633545" lon="30.011107921600342">
        <time>2026-04-25T09:53:53Z</time>
      </trkpt>
      <trkpt lat="59.072864055633545" lon="30.011065006256104">
        <time>2026-04-25T09:53:55Z</time>
      </trkpt>
      <trkpt lat="59.072864055633545" lon="30.011022090911865">
        <time>2026-04-25T09:53:58Z</time>
      </trkpt>
      <trkpt lat="59.072885513305664" lon="30.011022090911865">
        <time>2026-04-25T09:54:00Z</time>
      </trkpt>
      <trkpt lat="59.072906970977783" lon="30.011000633239746">
        <time>2026-04-25T09:54:03Z</time>
      </trkpt>
      <trkpt lat="59.072949886322021" lon="30.011022090911865">
        <time>2026-04-25T09:54:05Z</time>
      </trkpt>
      <trkpt lat="59.072971343994141" lon="30.011022090911865">
        <time>2026-04-25T09:54:08Z</time>
      </trkpt>
      <trkpt lat="59.07299280166626" lon="30.011043548583984">
        <time>2026-04-25T09:54:10Z</time>
      </trkpt>
      <trkpt lat="59.07299280166626" lon="30.011065006256104">
        <time>2026-04-25T09:54:13Z</time>
      </trkpt>
      <trkpt lat="59.07299280166626" lon="30.011065006256104">
        <time>2026-04-25T09:54:15Z</time>
      </trkpt>
      <trkpt lat="59.07299280166626" lon="30.011065006256104">
        <time>2026-04-25T09:54:18Z</time>
      </trkpt>
      <trkpt lat="59.07299280166626" lon="30.011065006256104">
        <time>2026-04-25T09:54:20Z</time>
      </trkpt>
      <trkpt lat="59.073014259338379" lon="30.011022090911865">
        <time>2026-04-25T09:54:23Z</time>
      </trkpt>
      <trkpt lat="59.073035717010498" lon="30.010979175567627">
        <time>2026-04-25T09:54:25Z</time>
      </trkpt>
      <trkpt lat="59.073035717010498" lon="30.010957717895508">
        <time>2026-04-25T09:54:28Z</time>
      </trkpt>
      <trkpt lat="59.073057174682617" lon="30.01091480255127">
        <time>2026-04-25T09:54:30Z</time>
      </trkpt>
      <trkpt lat="59.073078632354736" lon="30.01091480255127">
        <time>2026-04-25T09:54:33Z</time>
      </trkpt>
      <trkpt lat="59.073100090026855" lon="30.01089334487915">
        <time>2026-04-25T09:54:35Z</time>
      </trkpt>
      <trkpt lat="59.073121547698975" lon="30.01091480255127">
        <time>2026-04-25T09:54:38Z</time>
      </trkpt>
      <trkpt lat="59.073121547698975" lon="30.010871887207031">
        <time>2026-04-25T09:54:40Z</time>
      </trkpt>
      <trkpt lat="59.073143005371094" lon="30.010850429534912">
        <time>2026-04-25T09:54:43Z</time>
      </trkpt>
      <trkpt lat="59.073164463043213" lon="30.010871887207031">
        <time>2026-04-25T09:54:45Z</time>
      </trkpt>
      <trkpt lat="59.073207378387451" lon="30.01089334487915">
        <time>2026-04-25T09:54:48Z</time>
      </trkpt>
      <trkpt lat="59.07322883605957" lon="30.01091480255127">
        <time>2026-04-25T09:54:50Z</time>
      </trkpt>
      <trkpt lat="59.07322883605957" lon="30.010936260223389">
        <time>2026-04-25T09:54:53Z</time>
      </trkpt>
      <trkpt lat="59.07322883605957" lon="30.01091480255127">
        <time>2026-04-25T09:54:55Z</time>
      </trkpt>
      <trkpt lat="59.073250293731689" lon="30.010936260223389">
        <time>2026-04-25T09:54:58Z</time>
      </trkpt>
      <trkpt lat="59.073271751403809" lon="30.010957717895508">
        <time>2026-04-25T09:55:00Z</time>
      </trkpt>
      <trkpt lat="59.073293209075928" lon="30.010979175567627">
        <time>2026-04-25T09:55:03Z</time>
      </trkpt>
      <trkpt lat="59.073293209075928" lon="30.010957717895508">
        <time>2026-04-25T09:55:05Z</time>
      </trkpt>
      <trkpt lat="59.073293209075928" lon="30.010957717895508">
        <time>2026-04-25T09:55:08Z</time>
      </trkpt>
      <trkpt lat="59.073314666748047" lon="30.010936260223389">
        <time>2026-04-25T09:55:10Z</time>
      </trkpt>
      <trkpt lat="59.073336124420166" lon="30.010936260223389">
        <time>2026-04-25T09:55:13Z</time>
      </trkpt>
      <trkpt lat="59.073357582092285" lon="30.01091480255127">
        <time>2026-04-25T09:55:15Z</time>
      </trkpt>
      <trkpt lat="59.073379039764404" lon="30.01089334487915">
        <time>2026-04-25T09:55:18Z</time>
      </trkpt>
      <trkpt lat="59.073400497436523" lon="30.010936260223389">
        <time>2026-04-25T09:55:20Z</time>
      </trkpt>
      <trkpt lat="59.073421955108643" lon="30.010936260223389">
        <time>2026-04-25T09:55:23Z</time>
      </trkpt>
      <trkpt lat="59.073421955108643" lon="30.010936260223389">
        <time>2026-04-25T09:55:25Z</time>
      </trkpt>
      <trkpt lat="59.073421955108643" lon="30.010936260223389">
        <time>2026-04-25T09:55:28Z</time>
      </trkpt>
      <trkpt lat="59.073400497436523" lon="30.010936260223389">
        <time>2026-04-25T09:55:30Z</time>
      </trkpt>
      <trkpt lat="59.073400497436523" lon="30.010979175567627">
        <time>2026-04-25T09:55:33Z</time>
      </trkpt>
      <trkpt lat="59.073400497436523" lon="30.010936260223389">
        <time>2026-04-25T09:55:35Z</time>
      </trkpt>
      <trkpt lat="59.073421955108643" lon="30.01091480255127">
        <time>2026-04-25T09:55:38Z</time>
      </trkpt>
      <trkpt lat="59.073443412780762" lon="30.010936260223389">
        <time>2026-04-25T09:55:40Z</time>
      </trkpt>
      <trkpt lat="59.073464870452881" lon="30.01091480255127">
        <time>2026-04-25T09:55:43Z</time>
      </trkpt>
      <trkpt lat="59.073486328125" lon="30.01089334487915">
        <time>2026-04-25T09:55:45Z</time>
      </trkpt>
      <trkpt lat="59.073486328125" lon="30.01089334487915">
        <time>2026-04-25T09:55:48Z</time>
      </trkpt>
      <trkpt lat="59.073507785797119" lon="30.01089334487915">
        <time>2026-04-25T09:55:50Z</time>
      </trkpt>
      <trkpt lat="59.073507785797119" lon="30.01091480255127">
        <time>2026-04-25T09:55:53Z</time>
      </trkpt>
      <trkpt lat="59.073529243469238" lon="30.01091480255127">
        <time>2026-04-25T09:55:55Z</time>
      </trkpt>
      <trkpt lat="59.073550701141357" lon="30.01091480255127">
        <time>2026-04-25T09:55:58Z</time>
      </trkpt>
      <trkpt lat="59.073593616485596" lon="30.01089334487915">
        <time>2026-04-25T09:56:00Z</time>
      </trkpt>
      <trkpt lat="59.073615074157715" lon="30.010871887207031">
        <time>2026-04-25T09:56:03Z</time>
      </trkpt>
      <trkpt lat="59.073615074157715" lon="30.010828971862793">
        <time>2026-04-25T09:56:05Z</time>
      </trkpt>
      <trkpt lat="59.073615074157715" lon="30.010764598846436">
        <time>2026-04-25T09:56:08Z</time>
      </trkpt>
      <trkpt lat="59.073636531829834" lon="30.010721683502197">
        <time>2026-04-25T09:56:10Z</time>
      </trkpt>
      <trkpt lat="59.073657989501953" lon="30.010700225830078">
        <time>2026-04-25T09:56:13Z</time>
      </trkpt>
      <trkpt lat="59.073679447174072" lon="30.01065731048584">
        <time>2026-04-25T09:56:15Z</time>
      </trkpt>
      <trkpt lat="59.073700904846191" lon="30.010635852813721">
        <time>2026-04-25T09:56:18Z</time>
      </trkpt>
      <trkpt lat="59.073722362518311" lon="30.010592937469482">
        <time>2026-04-25T09:56:20Z</time>
      </trkpt>
      <trkpt lat="59.073722362518311" lon="30.010550022125244">
        <time>2026-04-25T09:56:23Z</time>
      </trkpt>
      <trkpt lat="59.07374382019043" lon="30.010550022125244">
        <time>2026-04-25T09:56:25Z</time>
      </trkpt>
      <trkpt lat="59.073765277862549" lon="30.010571479797363">
        <time>2026-04-25T09:56:28Z</time>
      </trkpt>
      <trkpt lat="59.073786735534668" lon="30.010592937469482">
        <time>2026-04-25T09:56:30Z</time>
      </trkpt>
      <trkpt lat="59.073808193206787" lon="30.010635852813721">
        <time>2026-04-25T09:56:33Z</time>
      </trkpt>
      <trkpt lat="59.073829650878906" lon="30.010635852813721">
        <time>2026-04-25T09:56:35Z</time>
      </trkpt>
      <trkpt lat="59.073829650878906" lon="30.010700225830078">
        <time>2026-04-25T09:56:38Z</time>
      </trkpt>
      <trkpt lat="59.073851108551025" lon="30.010721683502197">
        <time>2026-04-25T09:56:40Z</time>
      </trkpt>
      <trkpt lat="59.073872566223145" lon="30.010743141174316">
        <time>2026-04-25T09:56:43Z</time>
      </trkpt>
      <trkpt lat="59.073894023895264" lon="30.010743141174316">
        <time>2026-04-25T09:56:45Z</time>
      </trkpt>
      <trkpt lat="59.073915481567383" lon="30.010743141174316">
        <time>2026-04-25T09:56:48Z</time>
      </trkpt>
      <trkpt lat="59.073915481567383" lon="30.010743141174316">
        <time>2026-04-25T09:56:50Z</time>
      </trkpt>
      <trkpt lat="59.073915481567383" lon="30.010743141174316">
        <time>2026-04-25T09:56:53Z</time>
      </trkpt>
      <trkpt lat="59.073915481567383" lon="30.010743141174316">
        <time>2026-04-25T09:56:55Z</time>
      </trkpt>
      <trkpt lat="59.073915481567383" lon="30.010743141174316">
        <time>2026-04-25T09:56:58Z</time>
      </trkpt>
      <trkpt lat="59.073915481567383" lon="30.010743141174316">
        <time>2026-04-25T09:57:00Z</time>
      </trkpt>
      <trkpt lat="59.073915481567383" lon="30.010743141174316">
        <time>2026-04-25T09:57:03Z</time>
      </trkpt>
      <trkpt lat="59.073915481567383" lon="30.010743141174316">
        <time>2026-04-25T09:57:05Z</time>
      </trkpt>
      <trkpt lat="59.073936939239502" lon="30.010764598846436">
        <time>2026-04-25T09:57:08Z</time>
      </trkpt>
      <trkpt lat="59.073958396911621" lon="30.010786056518555">
        <time>2026-04-25T09:57:10Z</time>
      </trkpt>
      <trkpt lat="59.074001312255859" lon="30.010807514190674">
        <time>2026-04-25T09:57:13Z</time>
      </trkpt>
      <trkpt lat="59.074022769927979" lon="30.010807514190674">
        <time>2026-04-25T09:57:15Z</time>
      </trkpt>
      <trkpt lat="59.074022769927979" lon="30.010764598846436">
        <time>2026-04-25T09:57:18Z</time>
      </trkpt>
      <trkpt lat="59.074044227600098" lon="30.010764598846436">
        <time>2026-04-25T09:57:20Z</time>
      </trkpt>
      <trkpt lat="59.074065685272217" lon="30.010743141174316">
        <time>2026-04-25T09:57:23Z</time>
      </trkpt>
      <trkpt lat="59.074065685272217" lon="30.010743141174316">
        <time>2026-04-25T09:57:25Z</time>
      </trkpt>
      <trkpt lat="59.074065685272217" lon="30.010743141174316">
        <time>2026-04-25T09:57:28Z</time>
      </trkpt>
      <trkpt lat="59.074065685272217" lon="30.010678768157959">
        <time>2026-04-25T09:57:30Z</time>
      </trkpt>
      <trkpt lat="59.074065685272217" lon="30.010635852813721">
        <time>2026-04-25T09:57:33Z</time>
      </trkpt>
      <trkpt lat="59.074087142944336" lon="30.010614395141602">
        <time>2026-04-25T09:57:35Z</time>
      </trkpt>
      <trkpt lat="59.074108600616455" lon="30.010614395141602">
        <time>2026-04-25T09:57:38Z</time>
      </trkpt>
      <trkpt lat="59.074151515960693" lon="30.010592937469482">
        <time>2026-04-25T09:57:40Z</time>
      </trkpt>
      <trkpt lat="59.074172973632813" lon="30.010571479797363">
        <time>2026-04-25T09:57:43Z</time>
      </trkpt>
      <trkpt lat="59.074194431304932" lon="30.010571479797363">
        <time>2026-04-25T09:57:45Z</time>
      </trkpt>
      <trkpt lat="59.074215888977051" lon="30.010571479797363">
        <time>2026-04-25T09:57:48Z</time>
      </trkpt>
      <trkpt lat="59.074194431304932" lon="30.010571479797363">
        <time>2026-04-25T09:57:50Z</time>
      </trkpt>
      <trkpt lat="59.074194431304932" lon="30.010571479797363">
        <time>2026-04-25T09:57:53Z</time>
      </trkpt>
      <trkpt lat="59.074215888977051" lon="30.010571479797363">
        <time>2026-04-25T09:57:55Z</time>
      </trkpt>
      <trkpt lat="59.07423734664917" lon="30.010550022125244">
        <time>2026-04-25T09:57:58Z</time>
      </trkpt>
      <trkpt lat="59.074258804321289" lon="30.010550022125244">
        <time>2026-04-25T09:58:00Z</time>
      </trkpt>
      <trkpt lat="59.074258804321289" lon="30.010550022125244">
        <time>2026-04-25T09:58:03Z</time>
      </trkpt>
      <trkpt lat="59.074258804321289" lon="30.010550022125244">
        <time>2026-04-25T09:58:05Z</time>
      </trkpt>
      <trkpt lat="59.074258804321289" lon="30.010550022125244">
        <time>2026-04-25T09:58:08Z</time>
      </trkpt>
      <trkpt lat="59.074258804321289" lon="30.010550022125244">
        <time>2026-04-25T09:58:10Z</time>
      </trkpt>
      <trkpt lat="59.074258804321289" lon="30.010550022125244">
        <time>2026-04-25T09:58:13Z</time>
      </trkpt>
      <trkpt lat="59.074258804321289" lon="30.010550022125244">
        <time>2026-04-25T09:58:15Z</time>
      </trkpt>
      <trkpt lat="59.074258804321289" lon="30.010550022125244">
        <time>2026-04-25T09:58:18Z</time>
      </trkpt>
      <trkpt lat="59.074258804321289" lon="30.010550022125244">
        <time>2026-04-25T09:58:20Z</time>
      </trkpt>
      <trkpt lat="59.074258804321289" lon="30.010571479797363">
        <time>2026-04-25T09:58:23Z</time>
      </trkpt>
      <trkpt lat="59.074280261993408" lon="30.010592937469482">
        <time>2026-04-25T09:58:25Z</time>
      </trkpt>
      <trkpt lat="59.074301719665527" lon="30.010592937469482">
        <time>2026-04-25T09:58:28Z</time>
      </trkpt>
      <trkpt lat="59.074323177337646" lon="30.010550022125244">
        <time>2026-04-25T09:58:30Z</time>
      </trkpt>
      <trkpt lat="59.074344635009766" lon="30.010528564453125">
        <time>2026-04-25T09:58:33Z</time>
      </trkpt>
      <trkpt lat="59.074366092681885" lon="30.010485649108887">
        <time>2026-04-25T09:58:35Z</time>
      </trkpt>
      <trkpt lat="59.074387550354004" lon="30.010464191436768">
        <time>2026-04-25T09:58:38Z</time>
      </trkpt>
      <trkpt lat="59.074387550354004" lon="30.010464191436768">
        <time>2026-04-25T09:58:40Z</time>
      </trkpt>
      <trkpt lat="59.074387550354004" lon="30.010464191436768">
        <time>2026-04-25T09:58:43Z</time>
      </trkpt>
      <trkpt lat="59.074409008026123" lon="30.010442733764648">
        <time>2026-04-25T09:58:45Z</time>
      </trkpt>
      <trkpt lat="59.074409008026123" lon="30.01039981842041">
        <time>2026-04-25T09:58:48Z</time>
      </trkpt>
      <trkpt lat="59.074430465698242" lon="30.010378360748291">
        <time>2026-04-25T09:58:50Z</time>
      </trkpt>
      <trkpt lat="59.074451923370361" lon="30.010378360748291">
        <time>2026-04-25T09:58:53Z</time>
      </trkpt>
      <trkpt lat="59.07447338104248" lon="30.01039981842041">
        <time>2026-04-25T09:58:55Z</time>
      </trkpt>
      <trkpt lat="59.0744948387146" lon="30.01039981842041">
        <time>2026-04-25T09:58:58Z</time>
      </trkpt>
      <trkpt lat="59.0744948387146" lon="30.01039981842041">
        <time>2026-04-25T09:59:00Z</time>
      </trkpt>
      <trkpt lat="59.0744948387146" lon="30.01039981842041">
        <time>2026-04-25T09:59:03Z</time>
      </trkpt>
      <trkpt lat="59.074516296386719" lon="30.010421276092529">
        <time>2026-04-25T09:59:05Z</time>
      </trkpt>
      <trkpt lat="59.074516296386719" lon="30.010421276092529">
        <time>2026-04-25T09:59:08Z</time>
      </trkpt>
      <trkpt lat="59.074537754058838" lon="30.010421276092529">
        <time>2026-04-25T09:59:10Z</time>
      </trkpt>
      <trkpt lat="59.074537754058838" lon="30.01039981842041">
        <time>2026-04-25T09:59:13Z</time>
      </trkpt>
      <trkpt lat="59.074580669403076" lon="30.01039981842041">
        <time>2026-04-25T09:59:15Z</time>
      </trkpt>
      <trkpt lat="59.074580669403076" lon="30.01039981842041">
        <time>2026-04-25T09:59:18Z</time>
      </trkpt>
      <trkpt lat="59.074580669403076" lon="30.01039981842041">
        <time>2026-04-25T09:59:20Z</time>
      </trkpt>
      <trkpt lat="59.074602127075195" lon="30.010378360748291">
        <time>2026-04-25T09:59:23Z</time>
      </trkpt>
      <trkpt lat="59.074623584747314" lon="30.010378360748291">
        <time>2026-04-25T09:59:25Z</time>
      </trkpt>
      <trkpt lat="59.074645042419434" lon="30.010356903076172">
        <time>2026-04-25T09:59:28Z</time>
      </trkpt>
      <trkpt lat="59.074666500091553" lon="30.010313987731934">
        <time>2026-04-25T09:59:30Z</time>
      </trkpt>
      <trkpt lat="59.074666500091553" lon="30.010271072387695">
        <time>2026-04-25T09:59:33Z</time>
      </trkpt>
      <trkpt lat="59.074666500091553" lon="30.010271072387695">
        <time>2026-04-25T09:59:35Z</time>
      </trkpt>
      <trkpt lat="59.074666500091553" lon="30.010249614715576">
        <time>2026-04-25T09:59:38Z</time>
      </trkpt>
      <trkpt lat="59.074687957763672" lon="30.010206699371338">
        <time>2026-04-25T09:59:40Z</time>
      </trkpt>
      <trkpt lat="59.074709415435791" lon="30.010206699371338">
        <time>2026-04-25T09:59:43Z</time>
      </trkpt>
      <trkpt lat="59.07473087310791" lon="30.010206699371338">
        <time>2026-04-25T09:59:45Z</time>
      </trkpt>
      <trkpt lat="59.074752330780029" lon="30.010228157043457">
        <time>2026-04-25T09:59:48Z</time>
      </trkpt>
      <trkpt lat="59.074752330780029" lon="30.010228157043457">
        <time>2026-04-25T09:59:50Z</time>
      </trkpt>
      <trkpt lat="59.074752330780029" lon="30.010228157043457">
        <time>2026-04-25T09:59:53Z</time>
      </trkpt>
      <trkpt lat="59.074752330780029" lon="30.010228157043457">
        <time>2026-04-25T09:59:55Z</time>
      </trkpt>
      <trkpt lat="59.074752330780029" lon="30.010228157043457">
        <time>2026-04-25T09:59:58Z</time>
      </trkpt>
      <trkpt lat="59.074752330780029" lon="30.010228157043457">
        <time>2026-04-25T10:00:00Z</time>
      </trkpt>
      <trkpt lat="59.074752330780029" lon="30.010228157043457">
        <time>2026-04-25T10:00:03Z</time>
      </trkpt>
      <trkpt lat="59.074752330780029" lon="30.010228157043457">
        <time>2026-04-25T10:00:05Z</time>
      </trkpt>
      <trkpt lat="59.074752330780029" lon="30.010228157043457">
        <time>2026-04-25T10:00:08Z</time>
      </trkpt>
      <trkpt lat="59.074752330780029" lon="30.010228157043457">
        <time>2026-04-25T10:00:10Z</time>
      </trkpt>
      <trkpt lat="59.074752330780029" lon="30.010228157043457">
        <time>2026-04-25T10:00:13Z</time>
      </trkpt>
      <trkpt lat="59.074752330780029" lon="30.010228157043457">
        <time>2026-04-25T10:00:15Z</time>
      </trkpt>
      <trkpt lat="59.074752330780029" lon="30.010228157043457">
        <time>2026-04-25T10:00:18Z</time>
      </trkpt>
      <trkpt lat="59.074752330780029" lon="30.010228157043457">
        <time>2026-04-25T10:00:20Z</time>
      </trkpt>
      <trkpt lat="59.074752330780029" lon="30.010228157043457">
        <time>2026-04-25T10:00:23Z</time>
      </trkpt>
      <trkpt lat="59.074752330780029" lon="30.010228157043457">
        <time>2026-04-25T10:00:25Z</time>
      </trkpt>
      <trkpt lat="59.074752330780029" lon="30.010228157043457">
        <time>2026-04-25T10:00:28Z</time>
      </trkpt>
      <trkpt lat="59.074752330780029" lon="30.010228157043457">
        <time>2026-04-25T10:00:30Z</time>
      </trkpt>
      <trkpt lat="59.074752330780029" lon="30.010228157043457">
        <time>2026-04-25T10:00:33Z</time>
      </trkpt>
      <trkpt lat="59.074752330780029" lon="30.010228157043457">
        <time>2026-04-25T10:00:35Z</time>
      </trkpt>
      <trkpt lat="59.074752330780029" lon="30.010228157043457">
        <time>2026-04-25T10:00:38Z</time>
      </trkpt>
      <trkpt lat="59.074752330780029" lon="30.010249614715576">
        <time>2026-04-25T10:00:40Z</time>
      </trkpt>
      <trkpt lat="59.074752330780029" lon="30.010271072387695">
        <time>2026-04-25T10:00:43Z</time>
      </trkpt>
      <trkpt lat="59.074752330780029" lon="30.010271072387695">
        <time>2026-04-25T10:00:45Z</time>
      </trkpt>
      <trkpt lat="59.074752330780029" lon="30.010271072387695">
        <time>2026-04-25T10:00:48Z</time>
      </trkpt>
      <trkpt lat="59.074752330780029" lon="30.010271072387695">
        <time>2026-04-25T10:00:50Z</time>
      </trkpt>
      <trkpt lat="59.074752330780029" lon="30.010271072387695">
        <time>2026-04-25T10:00:53Z</time>
      </trkpt>
      <trkpt lat="59.074752330780029" lon="30.010271072387695">
        <time>2026-04-25T10:00:55Z</time>
      </trkpt>
      <trkpt lat="59.074752330780029" lon="30.010271072387695">
        <time>2026-04-25T10:00:58Z</time>
      </trkpt>
      <trkpt lat="59.074752330780029" lon="30.010271072387695">
        <time>2026-04-25T10:01:00Z</time>
      </trkpt>
      <trkpt lat="59.074752330780029" lon="30.010271072387695">
        <time>2026-04-25T10:01:03Z</time>
      </trkpt>
      <trkpt lat="59.074752330780029" lon="30.010271072387695">
        <time>2026-04-25T10:01:05Z</time>
      </trkpt>
      <trkpt lat="59.074752330780029" lon="30.010271072387695">
        <time>2026-04-25T10:01:08Z</time>
      </trkpt>
      <trkpt lat="59.074752330780029" lon="30.010271072387695">
        <time>2026-04-25T10:01:10Z</time>
      </trkpt>
      <trkpt lat="59.074752330780029" lon="30.010271072387695">
        <time>2026-04-25T10:01:13Z</time>
      </trkpt>
      <trkpt lat="59.074752330780029" lon="30.010271072387695">
        <time>2026-04-25T10:01:15Z</time>
      </trkpt>
      <trkpt lat="59.074752330780029" lon="30.010271072387695">
        <time>2026-04-25T10:01:18Z</time>
      </trkpt>
      <trkpt lat="59.074752330780029" lon="30.010271072387695">
        <time>2026-04-25T10:01:20Z</time>
      </trkpt>
      <trkpt lat="59.074752330780029" lon="30.010271072387695">
        <time>2026-04-25T10:01:23Z</time>
      </trkpt>
      <trkpt lat="59.074752330780029" lon="30.010271072387695">
        <time>2026-04-25T10:01:25Z</time>
      </trkpt>
      <trkpt lat="59.074752330780029" lon="30.010271072387695">
        <time>2026-04-25T10:01:28Z</time>
      </trkpt>
      <trkpt lat="59.074752330780029" lon="30.010271072387695">
        <time>2026-04-25T10:01:30Z</time>
      </trkpt>
      <trkpt lat="59.074752330780029" lon="30.010271072387695">
        <time>2026-04-25T10:01:33Z</time>
      </trkpt>
      <trkpt lat="59.074752330780029" lon="30.010271072387695">
        <time>2026-04-25T10:01:35Z</time>
      </trkpt>
      <trkpt lat="59.074795246124268" lon="30.010292530059814">
        <time>2026-04-25T10:01:38Z</time>
      </trkpt>
      <trkpt lat="59.074816703796387" lon="30.010292530059814">
        <time>2026-04-25T10:01:40Z</time>
      </trkpt>
      <trkpt lat="59.074838161468506" lon="30.010292530059814">
        <time>2026-04-25T10:01:43Z</time>
      </trkpt>
      <trkpt lat="59.074881076812744" lon="30.010292530059814">
        <time>2026-04-25T10:01:45Z</time>
      </trkpt>
      <trkpt lat="59.074902534484863" lon="30.010292530059814">
        <time>2026-04-25T10:01:48Z</time>
      </trkpt>
      <trkpt lat="59.074923992156982" lon="30.010292530059814">
        <time>2026-04-25T10:01:50Z</time>
      </trkpt>
      <trkpt lat="59.074923992156982" lon="30.010271072387695">
        <time>2026-04-25T10:01:53Z</time>
      </trkpt>
      <trkpt lat="59.074945449829102" lon="30.010249614715576">
        <time>2026-04-25T10:01:55Z</time>
      </trkpt>
      <trkpt lat="59.074945449829102" lon="30.010228157043457">
        <time>2026-04-25T10:01:58Z</time>
      </trkpt>
      <trkpt lat="59.074966907501221" lon="30.010228157043457">
        <time>2026-04-25T10:02:00Z</time>
      </trkpt>
      <trkpt lat="59.07498836517334" lon="30.010206699371338">
        <time>2026-04-25T10:02:03Z</time>
      </trkpt>
      <trkpt lat="59.075009822845459" lon="30.010185241699219">
        <time>2026-04-25T10:02:05Z</time>
      </trkpt>
      <trkpt lat="59.075009822845459" lon="30.01014232635498">
        <time>2026-04-25T10:02:08Z</time>
      </trkpt>
      <trkpt lat="59.075009822845459" lon="30.01014232635498">
        <time>2026-04-25T10:02:10Z</time>
      </trkpt>
      <trkpt lat="59.075009822845459" lon="30.010120868682861">
        <time>2026-04-25T10:02:13Z</time>
      </trkpt>
      <trkpt lat="59.075031280517578" lon="30.010120868682861">
        <time>2026-04-25T10:02:15Z</time>
      </trkpt>
      <trkpt lat="59.075052738189697" lon="30.010077953338623">
        <time>2026-04-25T10:02:18Z</time>
      </trkpt>
      <trkpt lat="59.075052738189697" lon="30.010013580322266">
        <time>2026-04-25T10:02:20Z</time>
      </trkpt>
      <trkpt lat="59.075052738189697" lon="30.009970664978027">
        <time>2026-04-25T10:02:23Z</time>
      </trkpt>
      <trkpt lat="59.075095653533936" lon="30.009970664978027">
        <time>2026-04-25T10:02:25Z</time>
      </trkpt>
      <trkpt lat="59.075117111206055" lon="30.009949207305908">
        <time>2026-04-25T10:02:28Z</time>
      </trkpt>
      <trkpt lat="59.075138568878174" lon="30.00990629196167">
        <time>2026-04-25T10:02:30Z</time>
      </trkpt>
      <trkpt lat="59.075160026550293" lon="30.009863376617432">
        <time>2026-04-25T10:02:33Z</time>
      </trkpt>
      <trkpt lat="59.075160026550293" lon="30.009799003601074">
        <time>2026-04-25T10:02:35Z</time>
      </trkpt>
      <trkpt lat="59.075160026550293" lon="30.009756088256836">
        <time>2026-04-25T10:02:38Z</time>
      </trkpt>
      <trkpt lat="59.075160026550293" lon="30.009756088256836">
        <time>2026-04-25T10:02:40Z</time>
      </trkpt>
      <trkpt lat="59.075160026550293" lon="30.009756088256836">
        <time>2026-04-25T10:02:43Z</time>
      </trkpt>
      <trkpt lat="59.075138568878174" lon="30.009756088256836">
        <time>2026-04-25T10:02:45Z</time>
      </trkpt>
      <trkpt lat="59.075138568878174" lon="30.009756088256836">
        <time>2026-04-25T10:02:48Z</time>
      </trkpt>
      <trkpt lat="59.075117111206055" lon="30.009734630584717">
        <time>2026-04-25T10:02:50Z</time>
      </trkpt>
      <trkpt lat="59.075117111206055" lon="30.009734630584717">
        <time>2026-04-25T10:02:53Z</time>
      </trkpt>
      <trkpt lat="59.075095653533936" lon="30.009713172912598">
        <time>2026-04-25T10:02:55Z</time>
      </trkpt>
      <trkpt lat="59.075095653533936" lon="30.009713172912598">
        <time>2026-04-25T10:02:58Z</time>
      </trkpt>
      <trkpt lat="59.075095653533936" lon="30.009713172912598">
        <time>2026-04-25T10:03:00Z</time>
      </trkpt>
      <trkpt lat="59.075095653533936" lon="30.009691715240479">
        <time>2026-04-25T10:03:03Z</time>
      </trkpt>
      <trkpt lat="59.075095653533936" lon="30.00964879989624">
        <time>2026-04-25T10:03:05Z</time>
      </trkpt>
      <trkpt lat="59.075095653533936" lon="30.00964879989624">
        <time>2026-04-25T10:03:08Z</time>
      </trkpt>
      <trkpt lat="59.075095653533936" lon="30.00964879989624">
        <time>2026-04-25T10:03:10Z</time>
      </trkpt>
      <trkpt lat="59.075095653533936" lon="30.009670257568359">
        <time>2026-04-25T10:03:13Z</time>
      </trkpt>
      <trkpt lat="59.075117111206055" lon="30.009691715240479">
        <time>2026-04-25T10:03:15Z</time>
      </trkpt>
      <trkpt lat="59.075138568878174" lon="30.009734630584717">
        <time>2026-04-25T10:03:18Z</time>
      </trkpt>
      <trkpt lat="59.075181484222412" lon="30.009777545928955">
        <time>2026-04-25T10:03:20Z</time>
      </trkpt>
      <trkpt lat="59.075202941894531" lon="30.009799003601074">
        <time>2026-04-25T10:03:23Z</time>
      </trkpt>
      <trkpt lat="59.07522439956665" lon="30.009820461273193">
        <time>2026-04-25T10:03:25Z</time>
      </trkpt>
      <trkpt lat="59.07522439956665" lon="30.009863376617432">
        <time>2026-04-25T10:03:28Z</time>
      </trkpt>
      <trkpt lat="59.07524585723877" lon="30.009841918945313">
        <time>2026-04-25T10:03:30Z</time>
      </trkpt>
      <trkpt lat="59.075267314910889" lon="30.009820461273193">
        <time>2026-04-25T10:03:33Z</time>
      </trkpt>
      <trkpt lat="59.075267314910889" lon="30.009820461273193">
        <time>2026-04-25T10:03:35Z</time>
      </trkpt>
      <trkpt lat="59.075310230255127" lon="30.009799003601074">
        <time>2026-04-25T10:03:38Z</time>
      </trkpt>
      <trkpt lat="59.075310230255127" lon="30.009799003601074">
        <time>2026-04-25T10:03:40Z</time>
      </trkpt>
      <trkpt lat="59.075331687927246" lon="30.009777545928955">
        <time>2026-04-25T10:03:43Z</time>
      </trkpt>
      <trkpt lat="59.075353145599365" lon="30.009734630584717">
        <time>2026-04-25T10:03:45Z</time>
      </trkpt>
      <trkpt lat="59.075374603271484" lon="30.009734630584717">
        <time>2026-04-25T10:03:48Z</time>
      </trkpt>
      <trkpt lat="59.075396060943604" lon="30.009713172912598">
        <time>2026-04-25T10:03:50Z</time>
      </trkpt>
      <trkpt lat="59.075396060943604" lon="30.009734630584717">
        <time>2026-04-25T10:03:53Z</time>
      </trkpt>
      <trkpt lat="59.075417518615723" lon="30.009756088256836">
        <time>2026-04-25T10:03:55Z</time>
      </trkpt>
      <trkpt lat="59.075438976287842" lon="30.009777545928955">
        <time>2026-04-25T10:03:58Z</time>
      </trkpt>
      <trkpt lat="59.075438976287842" lon="30.009863376617432">
        <time>2026-04-25T10:04:00Z</time>
      </trkpt>
      <trkpt lat="59.075438976287842" lon="30.009949207305908">
        <time>2026-04-25T10:04:03Z</time>
      </trkpt>
      <trkpt lat="59.075417518615723" lon="30.010013580322266">
        <time>2026-04-25T10:04:05Z</time>
      </trkpt>
      <trkpt lat="59.075417518615723" lon="30.010056495666504">
        <time>2026-04-25T10:04:08Z</time>
      </trkpt>
      <trkpt lat="59.075417518615723" lon="30.010099411010742">
        <time>2026-04-25T10:04:10Z</time>
      </trkpt>
      <trkpt lat="59.075396060943604" lon="30.01014232635498">
        <time>2026-04-25T10:04:13Z</time>
      </trkpt>
      <trkpt lat="59.075396060943604" lon="30.0101637840271">
        <time>2026-04-25T10:04:15Z</time>
      </trkpt>
      <trkpt lat="59.075396060943604" lon="30.0101637840271">
        <time>2026-04-25T10:04:18Z</time>
      </trkpt>
      <trkpt lat="59.075396060943604" lon="30.0101637840271">
        <time>2026-04-25T10:04:20Z</time>
      </trkpt>
      <trkpt lat="59.075396060943604" lon="30.0101637840271">
        <time>2026-04-25T10:04:23Z</time>
      </trkpt>
      <trkpt lat="59.075396060943604" lon="30.01014232635498">
        <time>2026-04-25T10:04:25Z</time>
      </trkpt>
      <trkpt lat="59.075417518615723" lon="30.010099411010742">
        <time>2026-04-25T10:04:28Z</time>
      </trkpt>
      <trkpt lat="59.075438976287842" lon="30.010077953338623">
        <time>2026-04-25T10:04:30Z</time>
      </trkpt>
      <trkpt lat="59.075438976287842" lon="30.010056495666504">
        <time>2026-04-25T10:04:33Z</time>
      </trkpt>
      <trkpt lat="59.075460433959961" lon="30.010035037994385">
        <time>2026-04-25T10:04:35Z</time>
      </trkpt>
      <trkpt lat="59.07548189163208" lon="30.009992122650146">
        <time>2026-04-25T10:04:38Z</time>
      </trkpt>
      <trkpt lat="59.075503349304199" lon="30.009970664978027">
        <time>2026-04-25T10:04:40Z</time>
      </trkpt>
      <trkpt lat="59.075524806976318" lon="30.009949207305908">
        <time>2026-04-25T10:04:43Z</time>
      </trkpt>
      <trkpt lat="59.075524806976318" lon="30.00990629196167">
        <time>2026-04-25T10:04:45Z</time>
      </trkpt>
      <trkpt lat="59.075524806976318" lon="30.009863376617432">
        <time>2026-04-25T10:04:48Z</time>
      </trkpt>
      <trkpt lat="59.075524806976318" lon="30.009820461273193">
        <time>2026-04-25T10:04:50Z</time>
      </trkpt>
      <trkpt lat="59.075546264648438" lon="30.009799003601074">
        <time>2026-04-25T10:04:53Z</time>
      </trkpt>
      <trkpt lat="59.075546264648438" lon="30.009799003601074">
        <time>2026-04-25T10:04:55Z</time>
      </trkpt>
      <trkpt lat="59.075546264648438" lon="30.009756088256836">
        <time>2026-04-25T10:04:58Z</time>
      </trkpt>
      <trkpt lat="59.075546264648438" lon="30.009734630584717">
        <time>2026-04-25T10:05:00Z</time>
      </trkpt>
      <trkpt lat="59.075567722320557" lon="30.009713172912598">
        <time>2026-04-25T10:05:03Z</time>
      </trkpt>
      <trkpt lat="59.075610637664795" lon="30.009691715240479">
        <time>2026-04-25T10:05:05Z</time>
      </trkpt>
      <trkpt lat="59.075632095336914" lon="30.009691715240479">
        <time>2026-04-25T10:05:08Z</time>
      </trkpt>
      <trkpt lat="59.075632095336914" lon="30.009691715240479">
        <time>2026-04-25T10:05:10Z</time>
      </trkpt>
      <trkpt lat="59.075675010681152" lon="30.009713172912598">
        <time>2026-04-25T10:05:13Z</time>
      </trkpt>
      <trkpt lat="59.075675010681152" lon="30.009713172912598">
        <time>2026-04-25T10:05:15Z</time>
      </trkpt>
      <trkpt lat="59.075675010681152" lon="30.009713172912598">
        <time>2026-04-25T10:05:18Z</time>
      </trkpt>
      <trkpt lat="59.075675010681152" lon="30.009713172912598">
        <time>2026-04-25T10:05:20Z</time>
      </trkpt>
      <trkpt lat="59.075717926025391" lon="30.009756088256836">
        <time>2026-04-25T10:05:23Z</time>
      </trkpt>
      <trkpt lat="59.075717926025391" lon="30.009799003601074">
        <time>2026-04-25T10:05:25Z</time>
      </trkpt>
      <trkpt lat="59.075717926025391" lon="30.009863376617432">
        <time>2026-04-25T10:05:28Z</time>
      </trkpt>
      <trkpt lat="59.075717926025391" lon="30.009820461273193">
        <time>2026-04-25T10:05:30Z</time>
      </trkpt>
      <trkpt lat="59.07573938369751" lon="30.009777545928955">
        <time>2026-04-25T10:05:33Z</time>
      </trkpt>
      <trkpt lat="59.075717926025391" lon="30.009756088256836">
        <time>2026-04-25T10:05:35Z</time>
      </trkpt>
      <trkpt lat="59.075717926025391" lon="30.009713172912598">
        <time>2026-04-25T10:05:38Z</time>
      </trkpt>
      <trkpt lat="59.07573938369751" lon="30.009670257568359">
        <time>2026-04-25T10:05:40Z</time>
      </trkpt>
      <trkpt lat="59.075760841369629" lon="30.009691715240479">
        <time>2026-04-25T10:05:43Z</time>
      </trkpt>
      <trkpt lat="59.075782299041748" lon="30.009734630584717">
        <time>2026-04-25T10:05:45Z</time>
      </trkpt>
      <trkpt lat="59.075803756713867" lon="30.009756088256836">
        <time>2026-04-25T10:05:48Z</time>
      </trkpt>
      <trkpt lat="59.075825214385986" lon="30.009756088256836">
        <time>2026-04-25T10:05:50Z</time>
      </trkpt>
      <trkpt lat="59.075846672058105" lon="30.009734630584717">
        <time>2026-04-25T10:05:53Z</time>
      </trkpt>
      <trkpt lat="59.075868129730225" lon="30.009691715240479">
        <time>2026-04-25T10:05:55Z</time>
      </trkpt>
      <trkpt lat="59.075889587402344" lon="30.009670257568359">
        <time>2026-04-25T10:05:58Z</time>
      </trkpt>
      <trkpt lat="59.075889587402344" lon="30.009670257568359">
        <time>2026-04-25T10:06:00Z</time>
      </trkpt>
      <trkpt lat="59.075911045074463" lon="30.00964879989624">
        <time>2026-04-25T10:06:03Z</time>
      </trkpt>
      <trkpt lat="59.075932502746582" lon="30.00964879989624">
        <time>2026-04-25T10:06:05Z</time>
      </trkpt>
      <trkpt lat="59.075953960418701" lon="30.00964879989624">
        <time>2026-04-25T10:06:08Z</time>
      </trkpt>
      <trkpt lat="59.07597541809082" lon="30.009627342224121">
        <time>2026-04-25T10:06:10Z</time>
      </trkpt>
      <trkpt lat="59.075996875762939" lon="30.009670257568359">
        <time>2026-04-25T10:06:13Z</time>
      </trkpt>
      <trkpt lat="59.075996875762939" lon="30.009713172912598">
        <time>2026-04-25T10:06:15Z</time>
      </trkpt>
      <trkpt lat="59.075996875762939" lon="30.009777545928955">
        <time>2026-04-25T10:06:18Z</time>
      </trkpt>
      <trkpt lat="59.075996875762939" lon="30.009799003601074">
        <time>2026-04-25T10:06:20Z</time>
      </trkpt>
      <trkpt lat="59.075996875762939" lon="30.009841918945313">
        <time>2026-04-25T10:06:23Z</time>
      </trkpt>
      <trkpt lat="59.07597541809082" lon="30.009863376617432">
        <time>2026-04-25T10:06:25Z</time>
      </trkpt>
      <trkpt lat="59.07597541809082" lon="30.009863376617432">
        <time>2026-04-25T10:06:28Z</time>
      </trkpt>
      <trkpt lat="59.07597541809082" lon="30.009863376617432">
        <time>2026-04-25T10:06:30Z</time>
      </trkpt>
      <trkpt lat="59.07597541809082" lon="30.009863376617432">
        <time>2026-04-25T10:06:33Z</time>
      </trkpt>
      <trkpt lat="59.075996875762939" lon="30.009841918945313">
        <time>2026-04-25T10:06:35Z</time>
      </trkpt>
      <trkpt lat="59.076039791107178" lon="30.009820461273193">
        <time>2026-04-25T10:06:38Z</time>
      </trkpt>
      <trkpt lat="59.076061248779297" lon="30.009820461273193">
        <time>2026-04-25T10:06:40Z</time>
      </trkpt>
      <trkpt lat="59.076082706451416" lon="30.009799003601074">
        <time>2026-04-25T10:06:43Z</time>
      </trkpt>
      <trkpt lat="59.076082706451416" lon="30.009756088256836">
        <time>2026-04-25T10:06:45Z</time>
      </trkpt>
      <trkpt lat="59.076104164123535" lon="30.009734630584717">
        <time>2026-04-25T10:06:48Z</time>
      </trkpt>
      <trkpt lat="59.076147079467773" lon="30.009734630584717">
        <time>2026-04-25T10:06:50Z</time>
      </trkpt>
      <trkpt lat="59.076168537139893" lon="30.009713172912598">
        <time>2026-04-25T10:06:53Z</time>
      </trkpt>
      <trkpt lat="59.076168537139893" lon="30.009691715240479">
        <time>2026-04-25T10:06:55Z</time>
      </trkpt>
      <trkpt lat="59.076189994812012" lon="30.00964879989624">
        <time>2026-04-25T10:06:58Z</time>
      </trkpt>
      <trkpt lat="59.076189994812012" lon="30.00964879989624">
        <time>2026-04-25T10:07:00Z</time>
      </trkpt>
      <trkpt lat="59.076211452484131" lon="30.009627342224121">
        <time>2026-04-25T10:07:03Z</time>
      </trkpt>
      <trkpt lat="59.07623291015625" lon="30.009584426879883">
        <time>2026-04-25T10:07:05Z</time>
      </trkpt>
      <trkpt lat="59.076275825500488" lon="30.009584426879883">
        <time>2026-04-25T10:07:08Z</time>
      </trkpt>
      <trkpt lat="59.076297283172607" lon="30.009605884552002">
        <time>2026-04-25T10:07:10Z</time>
      </trkpt>
      <trkpt lat="59.076318740844727" lon="30.009584426879883">
        <time>2026-04-25T10:07:13Z</time>
      </trkpt>
      <trkpt lat="59.076340198516846" lon="30.009562969207764">
        <time>2026-04-25T10:07:15Z</time>
      </trkpt>
      <trkpt lat="59.076361656188965" lon="30.009562969207764">
        <time>2026-04-25T10:07:18Z</time>
      </trkpt>
      <trkpt lat="59.076383113861084" lon="30.009541511535645">
        <time>2026-04-25T10:07:20Z</time>
      </trkpt>
      <trkpt lat="59.076404571533203" lon="30.009498596191406">
        <time>2026-04-25T10:07:23Z</time>
      </trkpt>
      <trkpt lat="59.076404571533203" lon="30.009477138519287">
        <time>2026-04-25T10:07:25Z</time>
      </trkpt>
      <trkpt lat="59.076383113861084" lon="30.009455680847168">
        <time>2026-04-25T10:07:28Z</time>
      </trkpt>
      <trkpt lat="59.076361656188965" lon="30.009434223175049">
        <time>2026-04-25T10:07:30Z</time>
      </trkpt>
      <trkpt lat="59.076361656188965" lon="30.009434223175049">
        <time>2026-04-25T10:07:33Z</time>
      </trkpt>
      <trkpt lat="59.076361656188965" lon="30.009477138519287">
        <time>2026-04-25T10:07:35Z</time>
      </trkpt>
      <trkpt lat="59.076361656188965" lon="30.009498596191406">
        <time>2026-04-25T10:07:38Z</time>
      </trkpt>
      <trkpt lat="59.076361656188965" lon="30.009562969207764">
        <time>2026-04-25T10:07:40Z</time>
      </trkpt>
      <trkpt lat="59.076383113861084" lon="30.009605884552002">
        <time>2026-04-25T10:07:43Z</time>
      </trkpt>
      <trkpt lat="59.076404571533203" lon="30.009605884552002">
        <time>2026-04-25T10:07:45Z</time>
      </trkpt>
      <trkpt lat="59.076426029205322" lon="30.009605884552002">
        <time>2026-04-25T10:07:48Z</time>
      </trkpt>
      <trkpt lat="59.076426029205322" lon="30.009605884552002">
        <time>2026-04-25T10:07:50Z</time>
      </trkpt>
      <trkpt lat="59.076447486877441" lon="30.009605884552002">
        <time>2026-04-25T10:07:53Z</time>
      </trkpt>
      <trkpt lat="59.076468944549561" lon="30.009584426879883">
        <time>2026-04-25T10:07:55Z</time>
      </trkpt>
      <trkpt lat="59.076468944549561" lon="30.009541511535645">
        <time>2026-04-25T10:07:58Z</time>
      </trkpt>
      <trkpt lat="59.07649040222168" lon="30.009541511535645">
        <time>2026-04-25T10:08:00Z</time>
      </trkpt>
      <trkpt lat="59.076511859893799" lon="30.009562969207764">
        <time>2026-04-25T10:08:03Z</time>
      </trkpt>
      <trkpt lat="59.076533317565918" lon="30.009562969207764">
        <time>2026-04-25T10:08:05Z</time>
      </trkpt>
      <trkpt lat="59.076554775238037" lon="30.009562969207764">
        <time>2026-04-25T10:08:08Z</time>
      </trkpt>
      <trkpt lat="59.076554775238037" lon="30.009562969207764">
        <time>2026-04-25T10:08:10Z</time>
      </trkpt>
      <trkpt lat="59.076533317565918" lon="30.009562969207764">
        <time>2026-04-25T10:08:13Z</time>
      </trkpt>
      <trkpt lat="59.076533317565918" lon="30.009584426879883">
        <time>2026-04-25T10:08:15Z</time>
      </trkpt>
      <trkpt lat="59.076533317565918" lon="30.009605884552002">
        <time>2026-04-25T10:08:18Z</time>
      </trkpt>
      <trkpt lat="59.076533317565918" lon="30.009605884552002">
        <time>2026-04-25T10:08:20Z</time>
      </trkpt>
      <trkpt lat="59.076554775238037" lon="30.009584426879883">
        <time>2026-04-25T10:08:23Z</time>
      </trkpt>
      <trkpt lat="59.076554775238037" lon="30.009541511535645">
        <time>2026-04-25T10:08:25Z</time>
      </trkpt>
      <trkpt lat="59.076597690582275" lon="30.009498596191406">
        <time>2026-04-25T10:08:28Z</time>
      </trkpt>
      <trkpt lat="59.076597690582275" lon="30.009520053863525">
        <time>2026-04-25T10:08:30Z</time>
      </trkpt>
      <trkpt lat="59.076597690582275" lon="30.009562969207764">
        <time>2026-04-25T10:08:33Z</time>
      </trkpt>
      <trkpt lat="59.076597690582275" lon="30.009605884552002">
        <time>2026-04-25T10:08:35Z</time>
      </trkpt>
      <trkpt lat="59.076597690582275" lon="30.00964879989624">
        <time>2026-04-25T10:08:38Z</time>
      </trkpt>
      <trkpt lat="59.076576232910156" lon="30.009691715240479">
        <time>2026-04-25T10:08:40Z</time>
      </trkpt>
      <trkpt lat="59.076576232910156" lon="30.009713172912598">
        <time>2026-04-25T10:08:43Z</time>
      </trkpt>
      <trkpt lat="59.076554775238037" lon="30.009713172912598">
        <time>2026-04-25T10:08:45Z</time>
      </trkpt>
      <trkpt lat="59.076554775238037" lon="30.009713172912598">
        <time>2026-04-25T10:08:48Z</time>
      </trkpt>
      <trkpt lat="59.076533317565918" lon="30.009713172912598">
        <time>2026-04-25T10:08:50Z</time>
      </trkpt>
      <trkpt lat="59.076533317565918" lon="30.009670257568359">
        <time>2026-04-25T10:08:53Z</time>
      </trkpt>
      <trkpt lat="59.076533317565918" lon="30.00964879989624">
        <time>2026-04-25T10:08:55Z</time>
      </trkpt>
      <trkpt lat="59.076533317565918" lon="30.009627342224121">
        <time>2026-04-25T10:08:58Z</time>
      </trkpt>
      <trkpt lat="59.076511859893799" lon="30.009584426879883">
        <time>2026-04-25T10:09:00Z</time>
      </trkpt>
      <trkpt lat="59.076511859893799" lon="30.009562969207764">
        <time>2026-04-25T10:09:03Z</time>
      </trkpt>
      <trkpt lat="59.076511859893799" lon="30.009562969207764">
        <time>2026-04-25T10:09:05Z</time>
      </trkpt>
      <trkpt lat="59.076511859893799" lon="30.009562969207764">
        <time>2026-04-25T10:09:08Z</time>
      </trkpt>
      <trkpt lat="59.076511859893799" lon="30.009562969207764">
        <time>2026-04-25T10:09:10Z</time>
      </trkpt>
      <trkpt lat="59.076533317565918" lon="30.009605884552002">
        <time>2026-04-25T10:09:13Z</time>
      </trkpt>
      <trkpt lat="59.076554775238037" lon="30.009584426879883">
        <time>2026-04-25T10:09:15Z</time>
      </trkpt>
      <trkpt lat="59.076576232910156" lon="30.009605884552002">
        <time>2026-04-25T10:09:18Z</time>
      </trkpt>
      <trkpt lat="59.076597690582275" lon="30.009605884552002">
        <time>2026-04-25T10:09:20Z</time>
      </trkpt>
      <trkpt lat="59.076619148254395" lon="30.009584426879883">
        <time>2026-04-25T10:09:23Z</time>
      </trkpt>
      <trkpt lat="59.076640605926514" lon="30.009541511535645">
        <time>2026-04-25T10:09:25Z</time>
      </trkpt>
      <trkpt lat="59.076662063598633" lon="30.009541511535645">
        <time>2026-04-25T10:09:28Z</time>
      </trkpt>
      <trkpt lat="59.076683521270752" lon="30.009520053863525">
        <time>2026-04-25T10:09:30Z</time>
      </trkpt>
      <trkpt lat="59.076704978942871" lon="30.009477138519287">
        <time>2026-04-25T10:09:33Z</time>
      </trkpt>
      <trkpt lat="59.07672643661499" lon="30.009477138519287">
        <time>2026-04-25T10:09:35Z</time>
      </trkpt>
      <trkpt lat="59.076747894287109" lon="30.009477138519287">
        <time>2026-04-25T10:09:38Z</time>
      </trkpt>
      <trkpt lat="59.076747894287109" lon="30.009455680847168">
        <time>2026-04-25T10:09:40Z</time>
      </trkpt>
      <trkpt lat="59.076747894287109" lon="30.009434223175049">
        <time>2026-04-25T10:09:43Z</time>
      </trkpt>
      <trkpt lat="59.076769351959229" lon="30.009434223175049">
        <time>2026-04-25T10:09:45Z</time>
      </trkpt>
      <trkpt lat="59.076812267303467" lon="30.009434223175049">
        <time>2026-04-25T10:09:48Z</time>
      </trkpt>
      <trkpt lat="59.076833724975586" lon="30.009434223175049">
        <time>2026-04-25T10:09:50Z</time>
      </trkpt>
      <trkpt lat="59.076855182647705" lon="30.00941276550293">
        <time>2026-04-25T10:09:53Z</time>
      </trkpt>
      <trkpt lat="59.076898097991943" lon="30.00941276550293">
        <time>2026-04-25T10:09:55Z</time>
      </trkpt>
      <trkpt lat="59.076919555664063" lon="30.009434223175049">
        <time>2026-04-25T10:09:58Z</time>
      </trkpt>
      <trkpt lat="59.076941013336182" lon="30.00941276550293">
        <time>2026-04-25T10:10:00Z</time>
      </trkpt>
      <trkpt lat="59.076962471008301" lon="30.009391307830811">
        <time>2026-04-25T10:10:03Z</time>
      </trkpt>
      <trkpt lat="59.07698392868042" lon="30.009348392486572">
        <time>2026-04-25T10:10:05Z</time>
      </trkpt>
      <trkpt lat="59.077005386352539" lon="30.009348392486572">
        <time>2026-04-25T10:10:08Z</time>
      </trkpt>
      <trkpt lat="59.077048301696777" lon="30.009348392486572">
        <time>2026-04-25T10:10:10Z</time>
      </trkpt>
      <trkpt lat="59.077069759368896" lon="30.009369850158691">
        <time>2026-04-25T10:10:13Z</time>
      </trkpt>
      <trkpt lat="59.077091217041016" lon="30.00941276550293">
        <time>2026-04-25T10:10:15Z</time>
      </trkpt>
      <trkpt lat="59.077091217041016" lon="30.009455680847168">
        <time>2026-04-25T10:10:18Z</time>
      </trkpt>
      <trkpt lat="59.077112674713135" lon="30.009477138519287">
        <time>2026-04-25T10:10:20Z</time>
      </trkpt>
      <trkpt lat="59.077134132385254" lon="30.009520053863525">
        <time>2026-04-25T10:10:23Z</time>
      </trkpt>
      <trkpt lat="59.077112674713135" lon="30.009520053863525">
        <time>2026-04-25T10:10:25Z</time>
      </trkpt>
      <trkpt lat="59.077112674713135" lon="30.009498596191406">
        <time>2026-04-25T10:10:28Z</time>
      </trkpt>
      <trkpt lat="59.077134132385254" lon="30.009520053863525">
        <time>2026-04-25T10:10:30Z</time>
      </trkpt>
      <trkpt lat="59.077155590057373" lon="30.009498596191406">
        <time>2026-04-25T10:10:33Z</time>
      </trkpt>
      <trkpt lat="59.077177047729492" lon="30.009498596191406">
        <time>2026-04-25T10:10:35Z</time>
      </trkpt>
      <trkpt lat="59.077198505401611" lon="30.009455680847168">
        <time>2026-04-25T10:10:38Z</time>
      </trkpt>
      <trkpt lat="59.077198505401611" lon="30.009434223175049">
        <time>2026-04-25T10:10:40Z</time>
      </trkpt>
      <trkpt lat="59.077198505401611" lon="30.00941276550293">
        <time>2026-04-25T10:10:43Z</time>
      </trkpt>
      <trkpt lat="59.07721996307373" lon="30.009391307830811">
        <time>2026-04-25T10:10:45Z</time>
      </trkpt>
      <trkpt lat="59.07724142074585" lon="30.009369850158691">
        <time>2026-04-25T10:10:48Z</time>
      </trkpt>
      <trkpt lat="59.077262878417969" lon="30.009348392486572">
        <time>2026-04-25T10:10:50Z</time>
      </trkpt>
      <trkpt lat="59.07724142074585" lon="30.009348392486572">
        <time>2026-04-25T10:10:53Z</time>
      </trkpt>
      <trkpt lat="59.077262878417969" lon="30.009305477142334">
        <time>2026-04-25T10:10:55Z</time>
      </trkpt>
      <trkpt lat="59.077262878417969" lon="30.009284019470215">
        <time>2026-04-25T10:10:58Z</time>
      </trkpt>
      <trkpt lat="59.077284336090088" lon="30.009262561798096">
        <time>2026-04-25T10:11:00Z</time>
      </trkpt>
      <trkpt lat="59.077284336090088" lon="30.009241104125977">
        <time>2026-04-25T10:11:03Z</time>
      </trkpt>
      <trkpt lat="59.077284336090088" lon="30.009219646453857">
        <time>2026-04-25T10:11:05Z</time>
      </trkpt>
      <trkpt lat="59.077305793762207" lon="30.009198188781738">
        <time>2026-04-25T10:11:08Z</time>
      </trkpt>
      <trkpt lat="59.077327251434326" lon="30.0091552734375">
        <time>2026-04-25T10:11:10Z</time>
      </trkpt>
      <trkpt lat="59.077370166778564" lon="30.009090900421143">
        <time>2026-04-25T10:11:13Z</time>
      </trkpt>
      <trkpt lat="59.077391624450684" lon="30.009069442749023">
        <time>2026-04-25T10:11:15Z</time>
      </trkpt>
      <trkpt lat="59.077391624450684" lon="30.009026527404785">
        <time>2026-04-25T10:11:18Z</time>
      </trkpt>
      <trkpt lat="59.077413082122803" lon="30.009005069732666">
        <time>2026-04-25T10:11:20Z</time>
      </trkpt>
      <trkpt lat="59.077434539794922" lon="30.008962154388428">
        <time>2026-04-25T10:11:23Z</time>
      </trkpt>
      <trkpt lat="59.077455997467041" lon="30.008940696716309">
        <time>2026-04-25T10:11:25Z</time>
      </trkpt>
      <trkpt lat="59.07747745513916" lon="30.008962154388428">
        <time>2026-04-25T10:11:28Z</time>
      </trkpt>
      <trkpt lat="59.077498912811279" lon="30.008983612060547">
        <time>2026-04-25T10:11:30Z</time>
      </trkpt>
      <trkpt lat="59.077520370483398" lon="30.009005069732666">
        <time>2026-04-25T10:11:33Z</time>
      </trkpt>
      <trkpt lat="59.077541828155518" lon="30.009047985076904">
        <time>2026-04-25T10:11:35Z</time>
      </trkpt>
      <trkpt lat="59.077563285827637" lon="30.009112358093262">
        <time>2026-04-25T10:11:38Z</time>
      </trkpt>
      <trkpt lat="59.077563285827637" lon="30.009133815765381">
        <time>2026-04-25T10:11:40Z</time>
      </trkpt>
      <trkpt lat="59.077584743499756" lon="30.0091552734375">
        <time>2026-04-25T10:11:43Z</time>
      </trkpt>
      <trkpt lat="59.077606201171875" lon="30.009198188781738">
        <time>2026-04-25T10:11:45Z</time>
      </trkpt>
      <trkpt lat="59.077606201171875" lon="30.009176731109619">
        <time>2026-04-25T10:11:48Z</time>
      </trkpt>
      <trkpt lat="59.077606201171875" lon="30.009176731109619">
        <time>2026-04-25T10:11:50Z</time>
      </trkpt>
      <trkpt lat="59.077584743499756" lon="30.009198188781738">
        <time>2026-04-25T10:11:53Z</time>
      </trkpt>
      <trkpt lat="59.077584743499756" lon="30.009198188781738">
        <time>2026-04-25T10:11:55Z</time>
      </trkpt>
      <trkpt lat="59.077563285827637" lon="30.009198188781738">
        <time>2026-04-25T10:11:58Z</time>
      </trkpt>
      <trkpt lat="59.077563285827637" lon="30.009176731109619">
        <time>2026-04-25T10:12:00Z</time>
      </trkpt>
      <trkpt lat="59.077606201171875" lon="30.0091552734375">
        <time>2026-04-25T10:12:03Z</time>
      </trkpt>
      <trkpt lat="59.077627658843994" lon="30.009176731109619">
        <time>2026-04-25T10:12:05Z</time>
      </trkpt>
      <trkpt lat="59.077649116516113" lon="30.009176731109619">
        <time>2026-04-25T10:12:08Z</time>
      </trkpt>
      <trkpt lat="59.077670574188232" lon="30.0091552734375">
        <time>2026-04-25T10:12:10Z</time>
      </trkpt>
      <trkpt lat="59.077692031860352" lon="30.009133815765381">
        <time>2026-04-25T10:12:13Z</time>
      </trkpt>
      <trkpt lat="59.077713489532471" lon="30.009112358093262">
        <time>2026-04-25T10:12:15Z</time>
      </trkpt>
      <trkpt lat="59.07773494720459" lon="30.009090900421143">
        <time>2026-04-25T10:12:18Z</time>
      </trkpt>
      <trkpt lat="59.07773494720459" lon="30.009069442749023">
        <time>2026-04-25T10:12:20Z</time>
      </trkpt>
      <trkpt lat="59.077756404876709" lon="30.009069442749023">
        <time>2026-04-25T10:12:23Z</time>
      </trkpt>
      <trkpt lat="59.077799320220947" lon="30.009069442749023">
        <time>2026-04-25T10:12:25Z</time>
      </trkpt>
      <trkpt lat="59.077799320220947" lon="30.009090900421143">
        <time>2026-04-25T10:12:28Z</time>
      </trkpt>
      <trkpt lat="59.077820777893066" lon="30.009112358093262">
        <time>2026-04-25T10:12:30Z</time>
      </trkpt>
      <trkpt lat="59.077842235565186" lon="30.009112358093262">
        <time>2026-04-25T10:12:33Z</time>
      </trkpt>
      <trkpt lat="59.077863693237305" lon="30.009069442749023">
        <time>2026-04-25T10:12:35Z</time>
      </trkpt>
      <trkpt lat="59.077863693237305" lon="30.009069442749023">
        <time>2026-04-25T10:12:38Z</time>
      </trkpt>
      <trkpt lat="59.077885150909424" lon="30.009047985076904">
        <time>2026-04-25T10:12:40Z</time>
      </trkpt>
      <trkpt lat="59.077906608581543" lon="30.009047985076904">
        <time>2026-04-25T10:12:43Z</time>
      </trkpt>
      <trkpt lat="59.077928066253662" lon="30.009112358093262">
        <time>2026-04-25T10:12:45Z</time>
      </trkpt>
      <trkpt lat="59.0779709815979" lon="30.009133815765381">
        <time>2026-04-25T10:12:48Z</time>
      </trkpt>
      <trkpt lat="59.07799243927002" lon="30.0091552734375">
        <time>2026-04-25T10:12:50Z</time>
      </trkpt>
      <trkpt lat="59.078013896942139" lon="30.0091552734375">
        <time>2026-04-25T10:12:53Z</time>
      </trkpt>
      <trkpt lat="59.078035354614258" lon="30.009133815765381">
        <time>2026-04-25T10:12:55Z</time>
      </trkpt>
      <trkpt lat="59.078035354614258" lon="30.009112358093262">
        <time>2026-04-25T10:12:58Z</time>
      </trkpt>
      <trkpt lat="59.078056812286377" lon="30.009112358093262">
        <time>2026-04-25T10:13:00Z</time>
      </trkpt>
      <trkpt lat="59.078056812286377" lon="30.009133815765381">
        <time>2026-04-25T10:13:03Z</time>
      </trkpt>
      <trkpt lat="59.078099727630615" lon="30.009133815765381">
        <time>2026-04-25T10:13:05Z</time>
      </trkpt>
      <trkpt lat="59.078121185302734" lon="30.0091552734375">
        <time>2026-04-25T10:13:08Z</time>
      </trkpt>
      <trkpt lat="59.078164100646973" lon="30.009176731109619">
        <time>2026-04-25T10:13:10Z</time>
      </trkpt>
      <trkpt lat="59.078185558319092" lon="30.009176731109619">
        <time>2026-04-25T10:13:13Z</time>
      </trkpt>
      <trkpt lat="59.078185558319092" lon="30.009198188781738">
        <time>2026-04-25T10:13:15Z</time>
      </trkpt>
      <trkpt lat="59.078207015991211" lon="30.009219646453857">
        <time>2026-04-25T10:13:18Z</time>
      </trkpt>
      <trkpt lat="59.078249931335449" lon="30.009198188781738">
        <time>2026-04-25T10:13:20Z</time>
      </trkpt>
      <trkpt lat="59.078249931335449" lon="30.0091552734375">
        <time>2026-04-25T10:13:23Z</time>
      </trkpt>
      <trkpt lat="59.078249931335449" lon="30.009112358093262">
        <time>2026-04-25T10:13:25Z</time>
      </trkpt>
      <trkpt lat="59.078207015991211" lon="30.009069442749023">
        <time>2026-04-25T10:13:28Z</time>
      </trkpt>
      <trkpt lat="59.078185558319092" lon="30.009005069732666">
        <time>2026-04-25T10:13:30Z</time>
      </trkpt>
      <trkpt lat="59.078207015991211" lon="30.008962154388428">
        <time>2026-04-25T10:13:33Z</time>
      </trkpt>
      <trkpt lat="59.078207015991211" lon="30.008940696716309">
        <time>2026-04-25T10:13:35Z</time>
      </trkpt>
      <trkpt lat="59.07822847366333" lon="30.008919239044189">
        <time>2026-04-25T10:13:38Z</time>
      </trkpt>
      <trkpt lat="59.078271389007568" lon="30.008919239044189">
        <time>2026-04-25T10:13:40Z</time>
      </trkpt>
      <trkpt lat="59.078292846679688" lon="30.008919239044189">
        <time>2026-04-25T10:13:43Z</time>
      </trkpt>
      <trkpt lat="59.078314304351807" lon="30.008919239044189">
        <time>2026-04-25T10:13:45Z</time>
      </trkpt>
      <trkpt lat="59.078335762023926" lon="30.008940696716309">
        <time>2026-04-25T10:13:48Z</time>
      </trkpt>
      <trkpt lat="59.078357219696045" lon="30.008919239044189">
        <time>2026-04-25T10:13:50Z</time>
      </trkpt>
      <trkpt lat="59.078378677368164" lon="30.008940696716309">
        <time>2026-04-25T10:13:53Z</time>
      </trkpt>
      <trkpt lat="59.078400135040283" lon="30.008962154388428">
        <time>2026-04-25T10:13:55Z</time>
      </trkpt>
      <trkpt lat="59.078421592712402" lon="30.009005069732666">
        <time>2026-04-25T10:13:58Z</time>
      </trkpt>
      <trkpt lat="59.078443050384521" lon="30.009026527404785">
        <time>2026-04-25T10:14:00Z</time>
      </trkpt>
      <trkpt lat="59.078464508056641" lon="30.009047985076904">
        <time>2026-04-25T10:14:03Z</time>
      </trkpt>
      <trkpt lat="59.07848596572876" lon="30.009112358093262">
        <time>2026-04-25T10:14:05Z</time>
      </trkpt>
      <trkpt lat="59.078507423400879" lon="30.009112358093262">
        <time>2026-04-25T10:14:08Z</time>
      </trkpt>
      <trkpt lat="59.078528881072998" lon="30.009069442749023">
        <time>2026-04-25T10:14:10Z</time>
      </trkpt>
      <trkpt lat="59.078528881072998" lon="30.009026527404785">
        <time>2026-04-25T10:14:13Z</time>
      </trkpt>
      <trkpt lat="59.078550338745117" lon="30.008983612060547">
        <time>2026-04-25T10:14:15Z</time>
      </trkpt>
      <trkpt lat="59.078571796417236" lon="30.008940696716309">
        <time>2026-04-25T10:14:18Z</time>
      </trkpt>
      <trkpt lat="59.078571796417236" lon="30.00889778137207">
        <time>2026-04-25T10:14:20Z</time>
      </trkpt>
      <trkpt lat="59.078593254089355" lon="30.008854866027832">
        <time>2026-04-25T10:14:23Z</time>
      </trkpt>
      <trkpt lat="59.078593254089355" lon="30.008833408355713">
        <time>2026-04-25T10:14:25Z</time>
      </trkpt>
      <trkpt lat="59.078614711761475" lon="30.008833408355713">
        <time>2026-04-25T10:14:28Z</time>
      </trkpt>
      <trkpt lat="59.078636169433594" lon="30.008833408355713">
        <time>2026-04-25T10:14:30Z</time>
      </trkpt>
      <trkpt lat="59.078657627105713" lon="30.008811950683594">
        <time>2026-04-25T10:14:33Z</time>
      </trkpt>
      <trkpt lat="59.078679084777832" lon="30.008833408355713">
        <time>2026-04-25T10:14:35Z</time>
      </trkpt>
      <trkpt lat="59.078700542449951" lon="30.008854866027832">
        <time>2026-04-25T10:14:38Z</time>
      </trkpt>
      <trkpt lat="59.07872200012207" lon="30.00889778137207">
        <time>2026-04-25T10:14:40Z</time>
      </trkpt>
      <trkpt lat="59.078743457794189" lon="30.008940696716309">
        <time>2026-04-25T10:14:43Z</time>
      </trkpt>
      <trkpt lat="59.078743457794189" lon="30.008940696716309">
        <time>2026-04-25T10:14:45Z</time>
      </trkpt>
      <trkpt lat="59.078764915466309" lon="30.008940696716309">
        <time>2026-04-25T10:14:48Z</time>
      </trkpt>
      <trkpt lat="59.078764915466309" lon="30.008919239044189">
        <time>2026-04-25T10:14:50Z</time>
      </trkpt>
      <trkpt lat="59.078786373138428" lon="30.00889778137207">
        <time>2026-04-25T10:14:53Z</time>
      </trkpt>
      <trkpt lat="59.078807830810547" lon="30.008876323699951">
        <time>2026-04-25T10:14:55Z</time>
      </trkpt>
      <trkpt lat="59.078807830810547" lon="30.008833408355713">
        <time>2026-04-25T10:14:58Z</time>
      </trkpt>
      <trkpt lat="59.078807830810547" lon="30.008833408355713">
        <time>2026-04-25T10:15:00Z</time>
      </trkpt>
      <trkpt lat="59.078807830810547" lon="30.008833408355713">
        <time>2026-04-25T10:15:03Z</time>
      </trkpt>
      <trkpt lat="59.078807830810547" lon="30.008833408355713">
        <time>2026-04-25T10:15:05Z</time>
      </trkpt>
      <trkpt lat="59.078807830810547" lon="30.008833408355713">
        <time>2026-04-25T10:15:08Z</time>
      </trkpt>
      <trkpt lat="59.078807830810547" lon="30.008833408355713">
        <time>2026-04-25T10:15:10Z</time>
      </trkpt>
      <trkpt lat="59.078807830810547" lon="30.008833408355713">
        <time>2026-04-25T10:15:13Z</time>
      </trkpt>
      <trkpt lat="59.078807830810547" lon="30.008833408355713">
        <time>2026-04-25T10:15:15Z</time>
      </trkpt>
      <trkpt lat="59.078807830810547" lon="30.008833408355713">
        <time>2026-04-25T10:15:18Z</time>
      </trkpt>
      <trkpt lat="59.078807830810547" lon="30.008833408355713">
        <time>2026-04-25T10:15:20Z</time>
      </trkpt>
      <trkpt lat="59.078807830810547" lon="30.008833408355713">
        <time>2026-04-25T10:15:23Z</time>
      </trkpt>
      <trkpt lat="59.078807830810547" lon="30.008833408355713">
        <time>2026-04-25T10:15:25Z</time>
      </trkpt>
      <trkpt lat="59.078807830810547" lon="30.008833408355713">
        <time>2026-04-25T10:15:28Z</time>
      </trkpt>
      <trkpt lat="59.078807830810547" lon="30.008833408355713">
        <time>2026-04-25T10:15:30Z</time>
      </trkpt>
      <trkpt lat="59.078807830810547" lon="30.008833408355713">
        <time>2026-04-25T10:15:33Z</time>
      </trkpt>
      <trkpt lat="59.078807830810547" lon="30.008833408355713">
        <time>2026-04-25T10:15:35Z</time>
      </trkpt>
      <trkpt lat="59.078807830810547" lon="30.008833408355713">
        <time>2026-04-25T10:15:38Z</time>
      </trkpt>
      <trkpt lat="59.078807830810547" lon="30.008833408355713">
        <time>2026-04-25T10:15:40Z</time>
      </trkpt>
      <trkpt lat="59.078807830810547" lon="30.008833408355713">
        <time>2026-04-25T10:15:43Z</time>
      </trkpt>
      <trkpt lat="59.078807830810547" lon="30.008833408355713">
        <time>2026-04-25T10:15:45Z</time>
      </trkpt>
      <trkpt lat="59.078807830810547" lon="30.008833408355713">
        <time>2026-04-25T10:15:48Z</time>
      </trkpt>
      <trkpt lat="59.078807830810547" lon="30.008833408355713">
        <time>2026-04-25T10:15:50Z</time>
      </trkpt>
      <trkpt lat="59.078807830810547" lon="30.008833408355713">
        <time>2026-04-25T10:15:53Z</time>
      </trkpt>
      <trkpt lat="59.078807830810547" lon="30.008833408355713">
        <time>2026-04-25T10:15:55Z</time>
      </trkpt>
      <trkpt lat="59.078807830810547" lon="30.008833408355713">
        <time>2026-04-25T10:15:58Z</time>
      </trkpt>
      <trkpt lat="59.078807830810547" lon="30.008833408355713">
        <time>2026-04-25T10:16:00Z</time>
      </trkpt>
      <trkpt lat="59.078807830810547" lon="30.008833408355713">
        <time>2026-04-25T10:16:03Z</time>
      </trkpt>
      <trkpt lat="59.078807830810547" lon="30.008833408355713">
        <time>2026-04-25T10:16:05Z</time>
      </trkpt>
      <trkpt lat="59.078807830810547" lon="30.008833408355713">
        <time>2026-04-25T10:16:08Z</time>
      </trkpt>
      <trkpt lat="59.078807830810547" lon="30.008833408355713">
        <time>2026-04-25T10:16:10Z</time>
      </trkpt>
      <trkpt lat="59.078807830810547" lon="30.008833408355713">
        <time>2026-04-25T10:16:13Z</time>
      </trkpt>
      <trkpt lat="59.078807830810547" lon="30.008833408355713">
        <time>2026-04-25T10:16:15Z</time>
      </trkpt>
      <trkpt lat="59.078807830810547" lon="30.008833408355713">
        <time>2026-04-25T10:16:18Z</time>
      </trkpt>
      <trkpt lat="59.078807830810547" lon="30.008833408355713">
        <time>2026-04-25T10:16:20Z</time>
      </trkpt>
      <trkpt lat="59.078807830810547" lon="30.008833408355713">
        <time>2026-04-25T10:16:23Z</time>
      </trkpt>
      <trkpt lat="59.078807830810547" lon="30.008811950683594">
        <time>2026-04-25T10:16:25Z</time>
      </trkpt>
      <trkpt lat="59.078807830810547" lon="30.008811950683594">
        <time>2026-04-25T10:16:28Z</time>
      </trkpt>
      <trkpt lat="59.078807830810547" lon="30.008769035339355">
        <time>2026-04-25T10:16:30Z</time>
      </trkpt>
      <trkpt lat="59.078829288482666" lon="30.008769035339355">
        <time>2026-04-25T10:16:33Z</time>
      </trkpt>
      <trkpt lat="59.078829288482666" lon="30.008747577667236">
        <time>2026-04-25T10:16:35Z</time>
      </trkpt>
      <trkpt lat="59.078829288482666" lon="30.008747577667236">
        <time>2026-04-25T10:16:38Z</time>
      </trkpt>
      <trkpt lat="59.078829288482666" lon="30.008747577667236">
        <time>2026-04-25T10:16:40Z</time>
      </trkpt>
      <trkpt lat="59.078829288482666" lon="30.008747577667236">
        <time>2026-04-25T10:16:43Z</time>
      </trkpt>
      <trkpt lat="59.078829288482666" lon="30.008747577667236">
        <time>2026-04-25T10:16:45Z</time>
      </trkpt>
      <trkpt lat="59.078829288482666" lon="30.008747577667236">
        <time>2026-04-25T10:16:48Z</time>
      </trkpt>
      <trkpt lat="59.078829288482666" lon="30.008747577667236">
        <time>2026-04-25T10:16:50Z</time>
      </trkpt>
      <trkpt lat="59.078829288482666" lon="30.008747577667236">
        <time>2026-04-25T10:16:53Z</time>
      </trkpt>
      <trkpt lat="59.078829288482666" lon="30.008747577667236">
        <time>2026-04-25T10:16:55Z</time>
      </trkpt>
      <trkpt lat="59.078829288482666" lon="30.008747577667236">
        <time>2026-04-25T10:16:58Z</time>
      </trkpt>
      <trkpt lat="59.078829288482666" lon="30.008747577667236">
        <time>2026-04-25T10:17:00Z</time>
      </trkpt>
      <trkpt lat="59.078829288482666" lon="30.008747577667236">
        <time>2026-04-25T10:17:03Z</time>
      </trkpt>
      <trkpt lat="59.078829288482666" lon="30.008747577667236">
        <time>2026-04-25T10:17:05Z</time>
      </trkpt>
      <trkpt lat="59.078829288482666" lon="30.008747577667236">
        <time>2026-04-25T10:17:08Z</time>
      </trkpt>
      <trkpt lat="59.078829288482666" lon="30.008747577667236">
        <time>2026-04-25T10:17:10Z</time>
      </trkpt>
      <trkpt lat="59.078829288482666" lon="30.008747577667236">
        <time>2026-04-25T10:17:13Z</time>
      </trkpt>
      <trkpt lat="59.078829288482666" lon="30.008747577667236">
        <time>2026-04-25T10:17:15Z</time>
      </trkpt>
      <trkpt lat="59.078829288482666" lon="30.008747577667236">
        <time>2026-04-25T10:17:18Z</time>
      </trkpt>
      <trkpt lat="59.078829288482666" lon="30.008747577667236">
        <time>2026-04-25T10:17:20Z</time>
      </trkpt>
      <trkpt lat="59.078829288482666" lon="30.008747577667236">
        <time>2026-04-25T10:17:23Z</time>
      </trkpt>
      <trkpt lat="59.078829288482666" lon="30.008747577667236">
        <time>2026-04-25T10:17:25Z</time>
      </trkpt>
      <trkpt lat="59.078829288482666" lon="30.008747577667236">
        <time>2026-04-25T10:17:28Z</time>
      </trkpt>
      <trkpt lat="59.078829288482666" lon="30.008747577667236">
        <time>2026-04-25T10:17:30Z</time>
      </trkpt>
      <trkpt lat="59.078829288482666" lon="30.008747577667236">
        <time>2026-04-25T10:17:33Z</time>
      </trkpt>
      <trkpt lat="59.078829288482666" lon="30.008747577667236">
        <time>2026-04-25T10:17:35Z</time>
      </trkpt>
      <trkpt lat="59.078829288482666" lon="30.008747577667236">
        <time>2026-04-25T10:17:38Z</time>
      </trkpt>
      <trkpt lat="59.078807830810547" lon="30.008747577667236">
        <time>2026-04-25T10:17:40Z</time>
      </trkpt>
      <trkpt lat="59.078807830810547" lon="30.008747577667236">
        <time>2026-04-25T10:17:43Z</time>
      </trkpt>
      <trkpt lat="59.078807830810547" lon="30.008747577667236">
        <time>2026-04-25T10:17:45Z</time>
      </trkpt>
      <trkpt lat="59.078807830810547" lon="30.008747577667236">
        <time>2026-04-25T10:17:48Z</time>
      </trkpt>
      <trkpt lat="59.078807830810547" lon="30.008747577667236">
        <time>2026-04-25T10:17:50Z</time>
      </trkpt>
      <trkpt lat="59.078807830810547" lon="30.008747577667236">
        <time>2026-04-25T10:17:53Z</time>
      </trkpt>
      <trkpt lat="59.078807830810547" lon="30.008747577667236">
        <time>2026-04-25T10:17:55Z</time>
      </trkpt>
      <trkpt lat="59.078829288482666" lon="30.008726119995117">
        <time>2026-04-25T10:17:58Z</time>
      </trkpt>
      <trkpt lat="59.078872203826904" lon="30.008704662322998">
        <time>2026-04-25T10:18:00Z</time>
      </trkpt>
      <trkpt lat="59.078893661499023" lon="30.00866174697876">
        <time>2026-04-25T10:18:03Z</time>
      </trkpt>
      <trkpt lat="59.078915119171143" lon="30.008618831634521">
        <time>2026-04-25T10:18:05Z</time>
      </trkpt>
      <trkpt lat="59.078936576843262" lon="30.008597373962402">
        <time>2026-04-25T10:18:08Z</time>
      </trkpt>
      <trkpt lat="59.078958034515381" lon="30.008575916290283">
        <time>2026-04-25T10:18:10Z</time>
      </trkpt>
      <trkpt lat="59.0789794921875" lon="30.008554458618164">
        <time>2026-04-25T10:18:13Z</time>
      </trkpt>
      <trkpt lat="59.079022407531738" lon="30.008533000946045">
        <time>2026-04-25T10:18:15Z</time>
      </trkpt>
      <trkpt lat="59.079043865203857" lon="30.008533000946045">
        <time>2026-04-25T10:18:18Z</time>
      </trkpt>
      <trkpt lat="59.079065322875977" lon="30.008533000946045">
        <time>2026-04-25T10:18:20Z</time>
      </trkpt>
      <trkpt lat="59.079065322875977" lon="30.008511543273926">
        <time>2026-04-25T10:18:23Z</time>
      </trkpt>
      <trkpt lat="59.079086780548096" lon="30.008511543273926">
        <time>2026-04-25T10:18:25Z</time>
      </trkpt>
      <trkpt lat="59.079108238220215" lon="30.008490085601807">
        <time>2026-04-25T10:18:28Z</time>
      </trkpt>
      <trkpt lat="59.079108238220215" lon="30.008468627929687">
        <time>2026-04-25T10:18:30Z</time>
      </trkpt>
      <trkpt lat="59.079108238220215" lon="30.008447170257568">
        <time>2026-04-25T10:18:33Z</time>
      </trkpt>
      <trkpt lat="59.079108238220215" lon="30.008425712585449">
        <time>2026-04-25T10:18:35Z</time>
      </trkpt>
      <trkpt lat="59.079086780548096" lon="30.008382797241211">
        <time>2026-04-25T10:18:38Z</time>
      </trkpt>
      <trkpt lat="59.079108238220215" lon="30.008339881896973">
        <time>2026-04-25T10:18:40Z</time>
      </trkpt>
      <trkpt lat="59.079129695892334" lon="30.008318424224854">
        <time>2026-04-25T10:18:43Z</time>
      </trkpt>
      <trkpt lat="59.079151153564453" lon="30.008254051208496">
        <time>2026-04-25T10:18:45Z</time>
      </trkpt>
      <trkpt lat="59.079194068908691" lon="30.008232593536377">
        <time>2026-04-25T10:18:48Z</time>
      </trkpt>
      <trkpt lat="59.079215526580811" lon="30.008254051208496">
        <time>2026-04-25T10:18:50Z</time>
      </trkpt>
      <trkpt lat="59.079215526580811" lon="30.008296966552734">
        <time>2026-04-25T10:18:53Z</time>
      </trkpt>
      <trkpt lat="59.07923698425293" lon="30.008318424224854">
        <time>2026-04-25T10:18:55Z</time>
      </trkpt>
      <trkpt lat="59.07923698425293" lon="30.008339881896973">
        <time>2026-04-25T10:18:58Z</time>
      </trkpt>
      <trkpt lat="59.079258441925049" lon="30.008339881896973">
        <time>2026-04-25T10:19:00Z</time>
      </trkpt>
      <trkpt lat="59.079258441925049" lon="30.008318424224854">
        <time>2026-04-25T10:19:03Z</time>
      </trkpt>
      <trkpt lat="59.079301357269287" lon="30.008296966552734">
        <time>2026-04-25T10:19:05Z</time>
      </trkpt>
      <trkpt lat="59.079322814941406" lon="30.008296966552734">
        <time>2026-04-25T10:19:08Z</time>
      </trkpt>
      <trkpt lat="59.079344272613525" lon="30.008296966552734">
        <time>2026-04-25T10:19:10Z</time>
      </trkpt>
      <trkpt lat="59.079344272613525" lon="30.008296966552734">
        <time>2026-04-25T10:19:13Z</time>
      </trkpt>
      <trkpt lat="59.079344272613525" lon="30.008296966552734">
        <time>2026-04-25T10:19:15Z</time>
      </trkpt>
      <trkpt lat="59.079365730285645" lon="30.008254051208496">
        <time>2026-04-25T10:19:18Z</time>
      </trkpt>
      <trkpt lat="59.079408645629883" lon="30.008232593536377">
        <time>2026-04-25T10:19:20Z</time>
      </trkpt>
      <trkpt lat="59.079430103302002" lon="30.008232593536377">
        <time>2026-04-25T10:19:23Z</time>
      </trkpt>
      <trkpt lat="59.079430103302002" lon="30.008211135864258">
        <time>2026-04-25T10:19:25Z</time>
      </trkpt>
      <trkpt lat="59.079430103302002" lon="30.008189678192139">
        <time>2026-04-25T10:19:28Z</time>
      </trkpt>
      <trkpt lat="59.079451560974121" lon="30.00816822052002">
        <time>2026-04-25T10:19:30Z</time>
      </trkpt>
      <trkpt lat="59.07947301864624" lon="30.00816822052002">
        <time>2026-04-25T10:19:33Z</time>
      </trkpt>
      <trkpt lat="59.079494476318359" lon="30.0081467628479">
        <time>2026-04-25T10:19:35Z</time>
      </trkpt>
      <trkpt lat="59.079515933990479" lon="30.008103847503662">
        <time>2026-04-25T10:19:38Z</time>
      </trkpt>
      <trkpt lat="59.079558849334717" lon="30.008082389831543">
        <time>2026-04-25T10:19:40Z</time>
      </trkpt>
      <trkpt lat="59.079558849334717" lon="30.008082389831543">
        <time>2026-04-25T10:19:43Z</time>
      </trkpt>
      <trkpt lat="59.079580307006836" lon="30.008039474487305">
        <time>2026-04-25T10:19:45Z</time>
      </trkpt>
      <trkpt lat="59.079623222351074" lon="30.007975101470947">
        <time>2026-04-25T10:19:48Z</time>
      </trkpt>
      <trkpt lat="59.079666137695312" lon="30.007953643798828">
        <time>2026-04-25T10:19:50Z</time>
      </trkpt>
      <trkpt lat="59.079709053039551" lon="30.007932186126709">
        <time>2026-04-25T10:19:53Z</time>
      </trkpt>
      <trkpt lat="59.079709053039551" lon="30.007953643798828">
        <time>2026-04-25T10:19:55Z</time>
      </trkpt>
      <trkpt lat="59.079751968383789" lon="30.007975101470947">
        <time>2026-04-25T10:19:58Z</time>
      </trkpt>
      <trkpt lat="59.079773426055908" lon="30.007996559143066">
        <time>2026-04-25T10:20:00Z</time>
      </trkpt>
      <trkpt lat="59.079816341400146" lon="30.007996559143066">
        <time>2026-04-25T10:20:03Z</time>
      </trkpt>
      <trkpt lat="59.079816341400146" lon="30.008039474487305">
        <time>2026-04-25T10:20:05Z</time>
      </trkpt>
      <trkpt lat="59.079837799072266" lon="30.008060932159424">
        <time>2026-04-25T10:20:08Z</time>
      </trkpt>
      <trkpt lat="59.079837799072266" lon="30.008103847503662">
        <time>2026-04-25T10:20:10Z</time>
      </trkpt>
      <trkpt lat="59.079837799072266" lon="30.0081467628479">
        <time>2026-04-25T10:20:13Z</time>
      </trkpt>
      <trkpt lat="59.079837799072266" lon="30.0081467628479">
        <time>2026-04-25T10:20:15Z</time>
      </trkpt>
      <trkpt lat="59.079837799072266" lon="30.0081467628479">
        <time>2026-04-25T10:20:18Z</time>
      </trkpt>
      <trkpt lat="59.079837799072266" lon="30.0081467628479">
        <time>2026-04-25T10:20:20Z</time>
      </trkpt>
      <trkpt lat="59.079859256744385" lon="30.0081467628479">
        <time>2026-04-25T10:20:23Z</time>
      </trkpt>
      <trkpt lat="59.079880714416504" lon="30.008103847503662">
        <time>2026-04-25T10:20:25Z</time>
      </trkpt>
      <trkpt lat="59.079902172088623" lon="30.008060932159424">
        <time>2026-04-25T10:20:28Z</time>
      </trkpt>
      <trkpt lat="59.079923629760742" lon="30.008060932159424">
        <time>2026-04-25T10:20:30Z</time>
      </trkpt>
      <trkpt lat="59.079945087432861" lon="30.008060932159424">
        <time>2026-04-25T10:20:33Z</time>
      </trkpt>
      <trkpt lat="59.07996654510498" lon="30.008060932159424">
        <time>2026-04-25T10:20:35Z</time>
      </trkpt>
      <trkpt lat="59.07996654510498" lon="30.008060932159424">
        <time>2026-04-25T10:20:38Z</time>
      </trkpt>
      <trkpt lat="59.07996654510498" lon="30.008060932159424">
        <time>2026-04-25T10:20:40Z</time>
      </trkpt>
      <trkpt lat="59.07996654510498" lon="30.008060932159424">
        <time>2026-04-25T10:20:43Z</time>
      </trkpt>
      <trkpt lat="59.07996654510498" lon="30.008039474487305">
        <time>2026-04-25T10:20:45Z</time>
      </trkpt>
      <trkpt lat="59.0799880027771" lon="30.008018016815186">
        <time>2026-04-25T10:20:48Z</time>
      </trkpt>
      <trkpt lat="59.080009460449219" lon="30.007996559143066">
        <time>2026-04-25T10:20:50Z</time>
      </trkpt>
      <trkpt lat="59.080030918121338" lon="30.007975101470947">
        <time>2026-04-25T10:20:53Z</time>
      </trkpt>
      <trkpt lat="59.080030918121338" lon="30.007953643798828">
        <time>2026-04-25T10:20:55Z</time>
      </trkpt>
      <trkpt lat="59.080030918121338" lon="30.00791072845459">
        <time>2026-04-25T10:20:58Z</time>
      </trkpt>
      <trkpt lat="59.080052375793457" lon="30.007932186126709">
        <time>2026-04-25T10:21:00Z</time>
      </trkpt>
      <trkpt lat="59.080052375793457" lon="30.008018016815186">
        <time>2026-04-25T10:21:03Z</time>
      </trkpt>
      <trkpt lat="59.080052375793457" lon="30.008082389831543">
        <time>2026-04-25T10:21:05Z</time>
      </trkpt>
      <trkpt lat="59.080052375793457" lon="30.008189678192139">
        <time>2026-04-25T10:21:08Z</time>
      </trkpt>
      <trkpt lat="59.080073833465576" lon="30.008232593536377">
        <time>2026-04-25T10:21:10Z</time>
      </trkpt>
      <trkpt lat="59.080095291137695" lon="30.008232593536377">
        <time>2026-04-25T10:21:13Z</time>
      </trkpt>
      <trkpt lat="59.080116748809814" lon="30.008189678192139">
        <time>2026-04-25T10:21:15Z</time>
      </trkpt>
      <trkpt lat="59.080159664154053" lon="30.008189678192139">
        <time>2026-04-25T10:21:18Z</time>
      </trkpt>
      <trkpt lat="59.080181121826172" lon="30.008232593536377">
        <time>2026-04-25T10:21:20Z</time>
      </trkpt>
      <trkpt lat="59.080181121826172" lon="30.008254051208496">
        <time>2026-04-25T10:21:23Z</time>
      </trkpt>
      <trkpt lat="59.080202579498291" lon="30.008296966552734">
        <time>2026-04-25T10:21:25Z</time>
      </trkpt>
      <trkpt lat="59.08022403717041" lon="30.008318424224854">
        <time>2026-04-25T10:21:28Z</time>
      </trkpt>
      <trkpt lat="59.080266952514648" lon="30.008318424224854">
        <time>2026-04-25T10:21:30Z</time>
      </trkpt>
      <trkpt lat="59.080288410186768" lon="30.008275508880615">
        <time>2026-04-25T10:21:33Z</time>
      </trkpt>
      <trkpt lat="59.080309867858887" lon="30.008275508880615">
        <time>2026-04-25T10:21:35Z</time>
      </trkpt>
      <trkpt lat="59.080331325531006" lon="30.008275508880615">
        <time>2026-04-25T10:21:38Z</time>
      </trkpt>
      <trkpt lat="59.080374240875244" lon="30.008232593536377">
        <time>2026-04-25T10:21:40Z</time>
      </trkpt>
      <trkpt lat="59.080395698547363" lon="30.008211135864258">
        <time>2026-04-25T10:21:43Z</time>
      </trkpt>
      <trkpt lat="59.080417156219482" lon="30.00816822052002">
        <time>2026-04-25T10:21:45Z</time>
      </trkpt>
      <trkpt lat="59.080438613891602" lon="30.008189678192139">
        <time>2026-04-25T10:21:48Z</time>
      </trkpt>
      <trkpt lat="59.08048152923584" lon="30.00816822052002">
        <time>2026-04-25T10:21:50Z</time>
      </trkpt>
      <trkpt lat="59.08048152923584" lon="30.008125305175781">
        <time>2026-04-25T10:21:53Z</time>
      </trkpt>
      <trkpt lat="59.080502986907959" lon="30.008103847503662">
        <time>2026-04-25T10:21:55Z</time>
      </trkpt>
      <trkpt lat="59.080502986907959" lon="30.008103847503662">
        <time>2026-04-25T10:21:58Z</time>
      </trkpt>
      <trkpt lat="59.080524444580078" lon="30.008103847503662">
        <time>2026-04-25T10:22:00Z</time>
      </trkpt>
      <trkpt lat="59.080524444580078" lon="30.008103847503662">
        <time>2026-04-25T10:22:03Z</time>
      </trkpt>
      <trkpt lat="59.080524444580078" lon="30.008103847503662">
        <time>2026-04-25T10:22:05Z</time>
      </trkpt>
      <trkpt lat="59.080524444580078" lon="30.008125305175781">
        <time>2026-04-25T10:22:08Z</time>
      </trkpt>
      <trkpt lat="59.080545902252197" lon="30.008125305175781">
        <time>2026-04-25T10:22:10Z</time>
      </trkpt>
      <trkpt lat="59.080567359924316" lon="30.008103847503662">
        <time>2026-04-25T10:22:13Z</time>
      </trkpt>
      <trkpt lat="59.080588817596436" lon="30.008103847503662">
        <time>2026-04-25T10:22:15Z</time>
      </trkpt>
      <trkpt lat="59.080588817596436" lon="30.008125305175781">
        <time>2026-04-25T10:22:18Z</time>
      </trkpt>
      <trkpt lat="59.080588817596436" lon="30.008125305175781">
        <time>2026-04-25T10:22:20Z</time>
      </trkpt>
      <trkpt lat="59.080610275268555" lon="30.008103847503662">
        <time>2026-04-25T10:22:23Z</time>
      </trkpt>
      <trkpt lat="59.080610275268555" lon="30.008103847503662">
        <time>2026-04-25T10:22:25Z</time>
      </trkpt>
      <trkpt lat="59.080631732940674" lon="30.008103847503662">
        <time>2026-04-25T10:22:28Z</time>
      </trkpt>
      <trkpt lat="59.080631732940674" lon="30.008082389831543">
        <time>2026-04-25T10:22:30Z</time>
      </trkpt>
      <trkpt lat="59.080631732940674" lon="30.008082389831543">
        <time>2026-04-25T10:22:33Z</time>
      </trkpt>
      <trkpt lat="59.080631732940674" lon="30.008082389831543">
        <time>2026-04-25T10:22:35Z</time>
      </trkpt>
      <trkpt lat="59.080631732940674" lon="30.008082389831543">
        <time>2026-04-25T10:22:38Z</time>
      </trkpt>
      <trkpt lat="59.080653190612793" lon="30.008082389831543">
        <time>2026-04-25T10:22:40Z</time>
      </trkpt>
      <trkpt lat="59.080653190612793" lon="30.008082389831543">
        <time>2026-04-25T10:22:43Z</time>
      </trkpt>
      <trkpt lat="59.080653190612793" lon="30.008082389831543">
        <time>2026-04-25T10:22:45Z</time>
      </trkpt>
      <trkpt lat="59.080653190612793" lon="30.008082389831543">
        <time>2026-04-25T10:22:48Z</time>
      </trkpt>
      <trkpt lat="59.080653190612793" lon="30.008082389831543">
        <time>2026-04-25T10:22:50Z</time>
      </trkpt>
      <trkpt lat="59.080653190612793" lon="30.008082389831543">
        <time>2026-04-25T10:22:53Z</time>
      </trkpt>
      <trkpt lat="59.080653190612793" lon="30.008082389831543">
        <time>2026-04-25T10:22:55Z</time>
      </trkpt>
      <trkpt lat="59.080631732940674" lon="30.008082389831543">
        <time>2026-04-25T10:22:58Z</time>
      </trkpt>
      <trkpt lat="59.080631732940674" lon="30.008082389831543">
        <time>2026-04-25T10:23:00Z</time>
      </trkpt>
      <trkpt lat="59.080631732940674" lon="30.008082389831543">
        <time>2026-04-25T10:23:03Z</time>
      </trkpt>
      <trkpt lat="59.080653190612793" lon="30.008060932159424">
        <time>2026-04-25T10:23:05Z</time>
      </trkpt>
      <trkpt lat="59.080653190612793" lon="30.008060932159424">
        <time>2026-04-25T10:23:08Z</time>
      </trkpt>
      <trkpt lat="59.080653190612793" lon="30.008060932159424">
        <time>2026-04-25T10:23:10Z</time>
      </trkpt>
      <trkpt lat="59.080653190612793" lon="30.008060932159424">
        <time>2026-04-25T10:23:13Z</time>
      </trkpt>
      <trkpt lat="59.080653190612793" lon="30.008060932159424">
        <time>2026-04-25T10:23:15Z</time>
      </trkpt>
      <trkpt lat="59.080674648284912" lon="30.008060932159424">
        <time>2026-04-25T10:23:18Z</time>
      </trkpt>
      <trkpt lat="59.080674648284912" lon="30.008060932159424">
        <time>2026-04-25T10:23:20Z</time>
      </trkpt>
      <trkpt lat="59.080696105957031" lon="30.008039474487305">
        <time>2026-04-25T10:23:23Z</time>
      </trkpt>
      <trkpt lat="59.080696105957031" lon="30.008039474487305">
        <time>2026-04-25T10:23:25Z</time>
      </trkpt>
      <trkpt lat="59.080696105957031" lon="30.008039474487305">
        <time>2026-04-25T10:23:28Z</time>
      </trkpt>
      <trkpt lat="59.080696105957031" lon="30.008039474487305">
        <time>2026-04-25T10:23:30Z</time>
      </trkpt>
      <trkpt lat="59.080696105957031" lon="30.008039474487305">
        <time>2026-04-25T10:23:33Z</time>
      </trkpt>
      <trkpt lat="59.080696105957031" lon="30.008018016815186">
        <time>2026-04-25T10:23:35Z</time>
      </trkpt>
      <trkpt lat="59.080696105957031" lon="30.008018016815186">
        <time>2026-04-25T10:23:38Z</time>
      </trkpt>
      <trkpt lat="59.080696105957031" lon="30.008018016815186">
        <time>2026-04-25T10:23:40Z</time>
      </trkpt>
      <trkpt lat="59.080696105957031" lon="30.008018016815186">
        <time>2026-04-25T10:23:43Z</time>
      </trkpt>
      <trkpt lat="59.080696105957031" lon="30.008018016815186">
        <time>2026-04-25T10:23:45Z</time>
      </trkpt>
      <trkpt lat="59.08071756362915" lon="30.008018016815186">
        <time>2026-04-25T10:23:48Z</time>
      </trkpt>
      <trkpt lat="59.08071756362915" lon="30.008018016815186">
        <time>2026-04-25T10:23:50Z</time>
      </trkpt>
      <trkpt lat="59.08071756362915" lon="30.008018016815186">
        <time>2026-04-25T10:23:53Z</time>
      </trkpt>
      <trkpt lat="59.08071756362915" lon="30.008018016815186">
        <time>2026-04-25T10:23:55Z</time>
      </trkpt>
      <trkpt lat="59.08071756362915" lon="30.007996559143066">
        <time>2026-04-25T10:23:58Z</time>
      </trkpt>
      <trkpt lat="59.08071756362915" lon="30.007996559143066">
        <time>2026-04-25T10:24:00Z</time>
      </trkpt>
      <trkpt lat="59.08073902130127" lon="30.007996559143066">
        <time>2026-04-25T10:24:03Z</time>
      </trkpt>
      <trkpt lat="59.08073902130127" lon="30.007975101470947">
        <time>2026-04-25T10:24:05Z</time>
      </trkpt>
      <trkpt lat="59.080760478973389" lon="30.007953643798828">
        <time>2026-04-25T10:24:08Z</time>
      </trkpt>
      <trkpt lat="59.080781936645508" lon="30.007932186126709">
        <time>2026-04-25T10:24:10Z</time>
      </trkpt>
      <trkpt lat="59.080781936645508" lon="30.007932186126709">
        <time>2026-04-25T10:24:13Z</time>
      </trkpt>
      <trkpt lat="59.080781936645508" lon="30.00791072845459">
        <time>2026-04-25T10:24:15Z</time>
      </trkpt>
      <trkpt lat="59.080781936645508" lon="30.00791072845459">
        <time>2026-04-25T10:24:18Z</time>
      </trkpt>
      <trkpt lat="59.080781936645508" lon="30.00791072845459">
        <time>2026-04-25T10:24:20Z</time>
      </trkpt>
      <trkpt lat="59.080803394317627" lon="30.007889270782471">
        <time>2026-04-25T10:24:23Z</time>
      </trkpt>
      <trkpt lat="59.080846309661865" lon="30.007846355438232">
        <time>2026-04-25T10:24:25Z</time>
      </trkpt>
      <trkpt lat="59.080867767333984" lon="30.007846355438232">
        <time>2026-04-25T10:24:28Z</time>
      </trkpt>
      <trkpt lat="59.080910682678223" lon="30.007824897766113">
        <time>2026-04-25T10:24:30Z</time>
      </trkpt>
      <trkpt lat="59.080932140350342" lon="30.007824897766113">
        <time>2026-04-25T10:24:33Z</time>
      </trkpt>
      <trkpt lat="59.080932140350342" lon="30.007824897766113">
        <time>2026-04-25T10:24:35Z</time>
      </trkpt>
      <trkpt lat="59.080932140350342" lon="30.007824897766113">
        <time>2026-04-25T10:24:38Z</time>
      </trkpt>
      <trkpt lat="59.080932140350342" lon="30.007824897766113">
        <time>2026-04-25T10:24:40Z</time>
      </trkpt>
      <trkpt lat="59.080932140350342" lon="30.007824897766113">
        <time>2026-04-25T10:24:43Z</time>
      </trkpt>
      <trkpt lat="59.080932140350342" lon="30.007824897766113">
        <time>2026-04-25T10:24:45Z</time>
      </trkpt>
      <trkpt lat="59.080932140350342" lon="30.007824897766113">
        <time>2026-04-25T10:24:48Z</time>
      </trkpt>
      <trkpt lat="59.080932140350342" lon="30.007824897766113">
        <time>2026-04-25T10:24:50Z</time>
      </trkpt>
      <trkpt lat="59.080932140350342" lon="30.007824897766113">
        <time>2026-04-25T10:24:53Z</time>
      </trkpt>
      <trkpt lat="59.080932140350342" lon="30.007824897766113">
        <time>2026-04-25T10:24:55Z</time>
      </trkpt>
      <trkpt lat="59.080953598022461" lon="30.007846355438232">
        <time>2026-04-25T10:24:58Z</time>
      </trkpt>
      <trkpt lat="59.080932140350342" lon="30.007824897766113">
        <time>2026-04-25T10:25:00Z</time>
      </trkpt>
      <trkpt lat="59.080932140350342" lon="30.007824897766113">
        <time>2026-04-25T10:25:03Z</time>
      </trkpt>
      <trkpt lat="59.080953598022461" lon="30.007824897766113">
        <time>2026-04-25T10:25:05Z</time>
      </trkpt>
      <trkpt lat="59.080953598022461" lon="30.007846355438232">
        <time>2026-04-25T10:25:08Z</time>
      </trkpt>
      <trkpt lat="59.080953598022461" lon="30.007846355438232">
        <time>2026-04-25T10:25:10Z</time>
      </trkpt>
      <trkpt lat="59.080953598022461" lon="30.007846355438232">
        <time>2026-04-25T10:25:13Z</time>
      </trkpt>
      <trkpt lat="59.080953598022461" lon="30.007846355438232">
        <time>2026-04-25T10:25:15Z</time>
      </trkpt>
      <trkpt lat="59.080953598022461" lon="30.007846355438232">
        <time>2026-04-25T10:25:18Z</time>
      </trkpt>
      <trkpt lat="59.080953598022461" lon="30.007846355438232">
        <time>2026-04-25T10:25:20Z</time>
      </trkpt>
      <trkpt lat="59.080953598022461" lon="30.007846355438232">
        <time>2026-04-25T10:25:23Z</time>
      </trkpt>
      <trkpt lat="59.080953598022461" lon="30.007846355438232">
        <time>2026-04-25T10:25:25Z</time>
      </trkpt>
      <trkpt lat="59.080953598022461" lon="30.007846355438232">
        <time>2026-04-25T10:25:28Z</time>
      </trkpt>
      <trkpt lat="59.080953598022461" lon="30.007846355438232">
        <time>2026-04-25T10:25:30Z</time>
      </trkpt>
      <trkpt lat="59.080953598022461" lon="30.007846355438232">
        <time>2026-04-25T10:25:33Z</time>
      </trkpt>
      <trkpt lat="59.080953598022461" lon="30.007846355438232">
        <time>2026-04-25T10:25:35Z</time>
      </trkpt>
      <trkpt lat="59.080953598022461" lon="30.007846355438232">
        <time>2026-04-25T10:25:38Z</time>
      </trkpt>
      <trkpt lat="59.080953598022461" lon="30.007846355438232">
        <time>2026-04-25T10:25:40Z</time>
      </trkpt>
      <trkpt lat="59.080953598022461" lon="30.007846355438232">
        <time>2026-04-25T10:25:43Z</time>
      </trkpt>
      <trkpt lat="59.080953598022461" lon="30.007846355438232">
        <time>2026-04-25T10:25:45Z</time>
      </trkpt>
      <trkpt lat="59.080953598022461" lon="30.007846355438232">
        <time>2026-04-25T10:25:48Z</time>
      </trkpt>
      <trkpt lat="59.080953598022461" lon="30.007846355438232">
        <time>2026-04-25T10:25:50Z</time>
      </trkpt>
      <trkpt lat="59.080953598022461" lon="30.007846355438232">
        <time>2026-04-25T10:25:53Z</time>
      </trkpt>
      <trkpt lat="59.080953598022461" lon="30.007846355438232">
        <time>2026-04-25T10:25:55Z</time>
      </trkpt>
      <trkpt lat="59.080953598022461" lon="30.007846355438232">
        <time>2026-04-25T10:25:58Z</time>
      </trkpt>
      <trkpt lat="59.080953598022461" lon="30.007846355438232">
        <time>2026-04-25T10:26:00Z</time>
      </trkpt>
      <trkpt lat="59.080953598022461" lon="30.007846355438232">
        <time>2026-04-25T10:26:03Z</time>
      </trkpt>
      <trkpt lat="59.080953598022461" lon="30.007846355438232">
        <time>2026-04-25T10:26:05Z</time>
      </trkpt>
      <trkpt lat="59.080953598022461" lon="30.007846355438232">
        <time>2026-04-25T10:26:08Z</time>
      </trkpt>
      <trkpt lat="59.080953598022461" lon="30.007846355438232">
        <time>2026-04-25T10:26:10Z</time>
      </trkpt>
      <trkpt lat="59.080953598022461" lon="30.007846355438232">
        <time>2026-04-25T10:26:13Z</time>
      </trkpt>
      <trkpt lat="59.080953598022461" lon="30.007846355438232">
        <time>2026-04-25T10:26:15Z</time>
      </trkpt>
      <trkpt lat="59.080953598022461" lon="30.007846355438232">
        <time>2026-04-25T10:26:18Z</time>
      </trkpt>
      <trkpt lat="59.080953598022461" lon="30.007846355438232">
        <time>2026-04-25T10:26:20Z</time>
      </trkpt>
      <trkpt lat="59.080953598022461" lon="30.007824897766113">
        <time>2026-04-25T10:26:23Z</time>
      </trkpt>
      <trkpt lat="59.080953598022461" lon="30.007824897766113">
        <time>2026-04-25T10:26:25Z</time>
      </trkpt>
      <trkpt lat="59.08097505569458" lon="30.007824897766113">
        <time>2026-04-25T10:26:28Z</time>
      </trkpt>
      <trkpt lat="59.08097505569458" lon="30.007824897766113">
        <time>2026-04-25T10:26:30Z</time>
      </trkpt>
      <trkpt lat="59.080996513366699" lon="30.007824897766113">
        <time>2026-04-25T10:26:33Z</time>
      </trkpt>
      <trkpt lat="59.081017971038818" lon="30.007824897766113">
        <time>2026-04-25T10:26:35Z</time>
      </trkpt>
      <trkpt lat="59.081017971038818" lon="30.007824897766113">
        <time>2026-04-25T10:26:38Z</time>
      </trkpt>
      <trkpt lat="59.081017971038818" lon="30.007824897766113">
        <time>2026-04-25T10:26:40Z</time>
      </trkpt>
      <trkpt lat="59.081017971038818" lon="30.007824897766113">
        <time>2026-04-25T10:26:43Z</time>
      </trkpt>
      <trkpt lat="59.081017971038818" lon="30.007824897766113">
        <time>2026-04-25T10:26:45Z</time>
      </trkpt>
      <trkpt lat="59.081017971038818" lon="30.007803440093994">
        <time>2026-04-25T10:26:48Z</time>
      </trkpt>
      <trkpt lat="59.081017971038818" lon="30.007803440093994">
        <time>2026-04-25T10:26:50Z</time>
      </trkpt>
      <trkpt lat="59.080996513366699" lon="30.007803440093994">
        <time>2026-04-25T10:26:53Z</time>
      </trkpt>
      <trkpt lat="59.080996513366699" lon="30.007803440093994">
        <time>2026-04-25T10:26:55Z</time>
      </trkpt>
      <trkpt lat="59.080996513366699" lon="30.007803440093994">
        <time>2026-04-25T10:26:58Z</time>
      </trkpt>
      <trkpt lat="59.080996513366699" lon="30.007803440093994">
        <time>2026-04-25T10:27:00Z</time>
      </trkpt>
      <trkpt lat="59.080996513366699" lon="30.007803440093994">
        <time>2026-04-25T10:27:03Z</time>
      </trkpt>
      <trkpt lat="59.080996513366699" lon="30.007803440093994">
        <time>2026-04-25T10:27:05Z</time>
      </trkpt>
      <trkpt lat="59.080996513366699" lon="30.007803440093994">
        <time>2026-04-25T10:27:08Z</time>
      </trkpt>
      <trkpt lat="59.080996513366699" lon="30.007803440093994">
        <time>2026-04-25T10:27:10Z</time>
      </trkpt>
      <trkpt lat="59.080996513366699" lon="30.007803440093994">
        <time>2026-04-25T10:27:13Z</time>
      </trkpt>
      <trkpt lat="59.080996513366699" lon="30.007803440093994">
        <time>2026-04-25T10:27:15Z</time>
      </trkpt>
      <trkpt lat="59.080996513366699" lon="30.007803440093994">
        <time>2026-04-25T10:27:18Z</time>
      </trkpt>
      <trkpt lat="59.080996513366699" lon="30.007803440093994">
        <time>2026-04-25T10:27:20Z</time>
      </trkpt>
      <trkpt lat="59.080996513366699" lon="30.007803440093994">
        <time>2026-04-25T10:27:23Z</time>
      </trkpt>
      <trkpt lat="59.080996513366699" lon="30.007803440093994">
        <time>2026-04-25T10:27:25Z</time>
      </trkpt>
      <trkpt lat="59.080996513366699" lon="30.007803440093994">
        <time>2026-04-25T10:27:28Z</time>
      </trkpt>
      <trkpt lat="59.080996513366699" lon="30.007803440093994">
        <time>2026-04-25T10:27:30Z</time>
      </trkpt>
      <trkpt lat="59.080996513366699" lon="30.007803440093994">
        <time>2026-04-25T10:27:33Z</time>
      </trkpt>
      <trkpt lat="59.080996513366699" lon="30.007803440093994">
        <time>2026-04-25T10:27:35Z</time>
      </trkpt>
      <trkpt lat="59.081017971038818" lon="30.007803440093994">
        <time>2026-04-25T10:27:38Z</time>
      </trkpt>
      <trkpt lat="59.081017971038818" lon="30.007803440093994">
        <time>2026-04-25T10:27:40Z</time>
      </trkpt>
      <trkpt lat="59.081017971038818" lon="30.007803440093994">
        <time>2026-04-25T10:27:43Z</time>
      </trkpt>
      <trkpt lat="59.081017971038818" lon="30.007803440093994">
        <time>2026-04-25T10:27:45Z</time>
      </trkpt>
      <trkpt lat="59.081017971038818" lon="30.007803440093994">
        <time>2026-04-25T10:27:48Z</time>
      </trkpt>
      <trkpt lat="59.081039428710938" lon="30.007760524749756">
        <time>2026-04-25T10:27:50Z</time>
      </trkpt>
      <trkpt lat="59.081039428710938" lon="30.007760524749756">
        <time>2026-04-25T10:27:53Z</time>
      </trkpt>
      <trkpt lat="59.081039428710938" lon="30.007739067077637">
        <time>2026-04-25T10:27:55Z</time>
      </trkpt>
      <trkpt lat="59.081039428710938" lon="30.007739067077637">
        <time>2026-04-25T10:27:58Z</time>
      </trkpt>
      <trkpt lat="59.081060886383057" lon="30.007717609405518">
        <time>2026-04-25T10:28:00Z</time>
      </trkpt>
      <trkpt lat="59.081082344055176" lon="30.007717609405518">
        <time>2026-04-25T10:28:03Z</time>
      </trkpt>
      <trkpt lat="59.081082344055176" lon="30.007696151733398">
        <time>2026-04-25T10:28:05Z</time>
      </trkpt>
      <trkpt lat="59.081082344055176" lon="30.007696151733398">
        <time>2026-04-25T10:28:08Z</time>
      </trkpt>
      <trkpt lat="59.081082344055176" lon="30.007696151733398">
        <time>2026-04-25T10:28:10Z</time>
      </trkpt>
      <trkpt lat="59.081082344055176" lon="30.007696151733398">
        <time>2026-04-25T10:28:13Z</time>
      </trkpt>
      <trkpt lat="59.081103801727295" lon="30.007717609405518">
        <time>2026-04-25T10:28:15Z</time>
      </trkpt>
      <trkpt lat="59.081125259399414" lon="30.007717609405518">
        <time>2026-04-25T10:28:18Z</time>
      </trkpt>
      <trkpt lat="59.081146717071533" lon="30.007717609405518">
        <time>2026-04-25T10:28:20Z</time>
      </trkpt>
      <trkpt lat="59.081168174743652" lon="30.007717609405518">
        <time>2026-04-25T10:28:23Z</time>
      </trkpt>
      <trkpt lat="59.081189632415771" lon="30.007674694061279">
        <time>2026-04-25T10:28:25Z</time>
      </trkpt>
      <trkpt lat="59.081211090087891" lon="30.007674694061279">
        <time>2026-04-25T10:28:28Z</time>
      </trkpt>
      <trkpt lat="59.081211090087891" lon="30.007674694061279">
        <time>2026-04-25T10:28:30Z</time>
      </trkpt>
      <trkpt lat="59.08123254776001" lon="30.007674694061279">
        <time>2026-04-25T10:28:33Z</time>
      </trkpt>
      <trkpt lat="59.08123254776001" lon="30.007674694061279">
        <time>2026-04-25T10:28:35Z</time>
      </trkpt>
      <trkpt lat="59.08123254776001" lon="30.007674694061279">
        <time>2026-04-25T10:28:38Z</time>
      </trkpt>
      <trkpt lat="59.08123254776001" lon="30.007674694061279">
        <time>2026-04-25T10:28:40Z</time>
      </trkpt>
      <trkpt lat="59.08123254776001" lon="30.007674694061279">
        <time>2026-04-25T10:28:43Z</time>
      </trkpt>
      <trkpt lat="59.08123254776001" lon="30.00765323638916">
        <time>2026-04-25T10:28:45Z</time>
      </trkpt>
      <trkpt lat="59.081254005432129" lon="30.00765323638916">
        <time>2026-04-25T10:28:48Z</time>
      </trkpt>
      <trkpt lat="59.081275463104248" lon="30.007631778717041">
        <time>2026-04-25T10:28:50Z</time>
      </trkpt>
      <trkpt lat="59.081296920776367" lon="30.007631778717041">
        <time>2026-04-25T10:28:53Z</time>
      </trkpt>
      <trkpt lat="59.081318378448486" lon="30.007610321044922">
        <time>2026-04-25T10:28:55Z</time>
      </trkpt>
      <trkpt lat="59.081339836120605" lon="30.007631778717041">
        <time>2026-04-25T10:28:58Z</time>
      </trkpt>
      <trkpt lat="59.081318378448486" lon="30.007631778717041">
        <time>2026-04-25T10:29:00Z</time>
      </trkpt>
      <trkpt lat="59.081318378448486" lon="30.007631778717041">
        <time>2026-04-25T10:29:03Z</time>
      </trkpt>
      <trkpt lat="59.081339836120605" lon="30.007631778717041">
        <time>2026-04-25T10:29:05Z</time>
      </trkpt>
      <trkpt lat="59.081361293792725" lon="30.007610321044922">
        <time>2026-04-25T10:29:08Z</time>
      </trkpt>
      <trkpt lat="59.081404209136963" lon="30.007610321044922">
        <time>2026-04-25T10:29:10Z</time>
      </trkpt>
      <trkpt lat="59.081425666809082" lon="30.007631778717041">
        <time>2026-04-25T10:29:13Z</time>
      </trkpt>
      <trkpt lat="59.081425666809082" lon="30.007610321044922">
        <time>2026-04-25T10:29:15Z</time>
      </trkpt>
      <trkpt lat="59.08146858215332" lon="30.007610321044922">
        <time>2026-04-25T10:29:18Z</time>
      </trkpt>
      <trkpt lat="59.08146858215332" lon="30.007610321044922">
        <time>2026-04-25T10:29:20Z</time>
      </trkpt>
      <trkpt lat="59.08146858215332" lon="30.007610321044922">
        <time>2026-04-25T10:29:23Z</time>
      </trkpt>
      <trkpt lat="59.08146858215332" lon="30.007610321044922">
        <time>2026-04-25T10:29:25Z</time>
      </trkpt>
      <trkpt lat="59.08146858215332" lon="30.007610321044922">
        <time>2026-04-25T10:29:28Z</time>
      </trkpt>
      <trkpt lat="59.08146858215332" lon="30.007610321044922">
        <time>2026-04-25T10:29:30Z</time>
      </trkpt>
      <trkpt lat="59.08146858215332" lon="30.007631778717041">
        <time>2026-04-25T10:29:33Z</time>
      </trkpt>
      <trkpt lat="59.081511497497559" lon="30.007631778717041">
        <time>2026-04-25T10:29:35Z</time>
      </trkpt>
      <trkpt lat="59.081511497497559" lon="30.007631778717041">
        <time>2026-04-25T10:29:38Z</time>
      </trkpt>
      <trkpt lat="59.081532955169678" lon="30.007631778717041">
        <time>2026-04-25T10:29:40Z</time>
      </trkpt>
      <trkpt lat="59.081532955169678" lon="30.007631778717041">
        <time>2026-04-25T10:29:43Z</time>
      </trkpt>
      <trkpt lat="59.081532955169678" lon="30.007631778717041">
        <time>2026-04-25T10:29:45Z</time>
      </trkpt>
      <trkpt lat="59.081532955169678" lon="30.007631778717041">
        <time>2026-04-25T10:29:48Z</time>
      </trkpt>
      <trkpt lat="59.081532955169678" lon="30.007631778717041">
        <time>2026-04-25T10:29:50Z</time>
      </trkpt>
      <trkpt lat="59.081532955169678" lon="30.007631778717041">
        <time>2026-04-25T10:29:53Z</time>
      </trkpt>
      <trkpt lat="59.081532955169678" lon="30.007631778717041">
        <time>2026-04-25T10:29:55Z</time>
      </trkpt>
      <trkpt lat="59.081532955169678" lon="30.007631778717041">
        <time>2026-04-25T10:29:58Z</time>
      </trkpt>
      <trkpt lat="59.081532955169678" lon="30.007631778717041">
        <time>2026-04-25T10:30:00Z</time>
      </trkpt>
      <trkpt lat="59.081532955169678" lon="30.007631778717041">
        <time>2026-04-25T10:30:03Z</time>
      </trkpt>
      <trkpt lat="59.081532955169678" lon="30.007631778717041">
        <time>2026-04-25T10:30:05Z</time>
      </trkpt>
      <trkpt lat="59.081532955169678" lon="30.007631778717041">
        <time>2026-04-25T10:30:08Z</time>
      </trkpt>
      <trkpt lat="59.081511497497559" lon="30.007631778717041">
        <time>2026-04-25T10:30:10Z</time>
      </trkpt>
      <trkpt lat="59.081511497497559" lon="30.007631778717041">
        <time>2026-04-25T10:30:13Z</time>
      </trkpt>
      <trkpt lat="59.081511497497559" lon="30.007631778717041">
        <time>2026-04-25T10:30:15Z</time>
      </trkpt>
      <trkpt lat="59.081511497497559" lon="30.007631778717041">
        <time>2026-04-25T10:30:18Z</time>
      </trkpt>
      <trkpt lat="59.081511497497559" lon="30.007631778717041">
        <time>2026-04-25T10:30:20Z</time>
      </trkpt>
      <trkpt lat="59.081511497497559" lon="30.007631778717041">
        <time>2026-04-25T10:30:23Z</time>
      </trkpt>
      <trkpt lat="59.081511497497559" lon="30.00765323638916">
        <time>2026-04-25T10:30:25Z</time>
      </trkpt>
      <trkpt lat="59.081511497497559" lon="30.00765323638916">
        <time>2026-04-25T10:30:28Z</time>
      </trkpt>
      <trkpt lat="59.081511497497559" lon="30.00765323638916">
        <time>2026-04-25T10:30:30Z</time>
      </trkpt>
      <trkpt lat="59.081511497497559" lon="30.00765323638916">
        <time>2026-04-25T10:30:33Z</time>
      </trkpt>
      <trkpt lat="59.081511497497559" lon="30.00765323638916">
        <time>2026-04-25T10:30:35Z</time>
      </trkpt>
      <trkpt lat="59.081511497497559" lon="30.00765323638916">
        <time>2026-04-25T10:30:38Z</time>
      </trkpt>
      <trkpt lat="59.081511497497559" lon="30.00765323638916">
        <time>2026-04-25T10:30:40Z</time>
      </trkpt>
      <trkpt lat="59.081532955169678" lon="30.00765323638916">
        <time>2026-04-25T10:30:43Z</time>
      </trkpt>
      <trkpt lat="59.081554412841797" lon="30.00765323638916">
        <time>2026-04-25T10:30:45Z</time>
      </trkpt>
      <trkpt lat="59.081554412841797" lon="30.00765323638916">
        <time>2026-04-25T10:30:48Z</time>
      </trkpt>
      <trkpt lat="59.081575870513916" lon="30.007631778717041">
        <time>2026-04-25T10:30:50Z</time>
      </trkpt>
      <trkpt lat="59.081597328186035" lon="30.007631778717041">
        <time>2026-04-25T10:30:53Z</time>
      </trkpt>
      <trkpt lat="59.081661701202393" lon="30.007588863372803">
        <time>2026-04-25T10:30:55Z</time>
      </trkpt>
      <trkpt lat="59.081704616546631" lon="30.007545948028564">
        <time>2026-04-25T10:30:58Z</time>
      </trkpt>
      <trkpt lat="59.08172607421875" lon="30.007524490356445">
        <time>2026-04-25T10:31:00Z</time>
      </trkpt>
      <trkpt lat="59.081768989562988" lon="30.007503032684326">
        <time>2026-04-25T10:31:03Z</time>
      </trkpt>
      <trkpt lat="59.081790447235107" lon="30.007503032684326">
        <time>2026-04-25T10:31:05Z</time>
      </trkpt>
      <trkpt lat="59.081790447235107" lon="30.007503032684326">
        <time>2026-04-25T10:31:08Z</time>
      </trkpt>
      <trkpt lat="59.081811904907227" lon="30.007524490356445">
        <time>2026-04-25T10:31:10Z</time>
      </trkpt>
      <trkpt lat="59.081811904907227" lon="30.007545948028564">
        <time>2026-04-25T10:31:13Z</time>
      </trkpt>
      <trkpt lat="59.081833362579346" lon="30.007524490356445">
        <time>2026-04-25T10:31:15Z</time>
      </trkpt>
      <trkpt lat="59.081833362579346" lon="30.007503032684326">
        <time>2026-04-25T10:31:18Z</time>
      </trkpt>
      <trkpt lat="59.081854820251465" lon="30.007481575012207">
        <time>2026-04-25T10:31:20Z</time>
      </trkpt>
      <trkpt lat="59.081876277923584" lon="30.007460117340088">
        <time>2026-04-25T10:31:23Z</time>
      </trkpt>
      <trkpt lat="59.081897735595703" lon="30.007438659667969">
        <time>2026-04-25T10:31:25Z</time>
      </trkpt>
      <trkpt lat="59.081919193267822" lon="30.007438659667969">
        <time>2026-04-25T10:31:28Z</time>
      </trkpt>
      <trkpt lat="59.081919193267822" lon="30.007438659667969">
        <time>2026-04-25T10:31:30Z</time>
      </trkpt>
      <trkpt lat="59.081940650939941" lon="30.007438659667969">
        <time>2026-04-25T10:31:33Z</time>
      </trkpt>
      <trkpt lat="59.081940650939941" lon="30.007460117340088">
        <time>2026-04-25T10:31:35Z</time>
      </trkpt>
      <trkpt lat="59.081940650939941" lon="30.007438659667969">
        <time>2026-04-25T10:31:38Z</time>
      </trkpt>
      <trkpt lat="59.081962108612061" lon="30.007438659667969">
        <time>2026-04-25T10:31:40Z</time>
      </trkpt>
      <trkpt lat="59.081962108612061" lon="30.00741720199585">
        <time>2026-04-25T10:31:43Z</time>
      </trkpt>
      <trkpt lat="59.08198356628418" lon="30.00739574432373">
        <time>2026-04-25T10:31:45Z</time>
      </trkpt>
      <trkpt lat="59.082005023956299" lon="30.00739574432373">
        <time>2026-04-25T10:31:48Z</time>
      </trkpt>
      <trkpt lat="59.082026481628418" lon="30.00739574432373">
        <time>2026-04-25T10:31:50Z</time>
      </trkpt>
      <trkpt lat="59.082026481628418" lon="30.00739574432373">
        <time>2026-04-25T10:31:53Z</time>
      </trkpt>
      <trkpt lat="59.082047939300537" lon="30.007374286651611">
        <time>2026-04-25T10:31:55Z</time>
      </trkpt>
      <trkpt lat="59.082069396972656" lon="30.007374286651611">
        <time>2026-04-25T10:31:58Z</time>
      </trkpt>
      <trkpt lat="59.082069396972656" lon="30.007374286651611">
        <time>2026-04-25T10:32:00Z</time>
      </trkpt>
      <trkpt lat="59.082090854644775" lon="30.007331371307373">
        <time>2026-04-25T10:32:03Z</time>
      </trkpt>
      <trkpt lat="59.082112312316895" lon="30.007309913635254">
        <time>2026-04-25T10:32:05Z</time>
      </trkpt>
      <trkpt lat="59.082112312316895" lon="30.007309913635254">
        <time>2026-04-25T10:32:08Z</time>
      </trkpt>
      <trkpt lat="59.082133769989014" lon="30.007309913635254">
        <time>2026-04-25T10:32:10Z</time>
      </trkpt>
      <trkpt lat="59.082155227661133" lon="30.007309913635254">
        <time>2026-04-25T10:32:13Z</time>
      </trkpt>
      <trkpt lat="59.082155227661133" lon="30.007309913635254">
        <time>2026-04-25T10:32:15Z</time>
      </trkpt>
      <trkpt lat="59.082176685333252" lon="30.007266998291016">
        <time>2026-04-25T10:32:18Z</time>
      </trkpt>
      <trkpt lat="59.08221960067749" lon="30.007266998291016">
        <time>2026-04-25T10:32:20Z</time>
      </trkpt>
      <trkpt lat="59.082241058349609" lon="30.007266998291016">
        <time>2026-04-25T10:32:23Z</time>
      </trkpt>
      <trkpt lat="59.082262516021729" lon="30.007266998291016">
        <time>2026-04-25T10:32:25Z</time>
      </trkpt>
      <trkpt lat="59.082283973693848" lon="30.007266998291016">
        <time>2026-04-25T10:32:28Z</time>
      </trkpt>
      <trkpt lat="59.082283973693848" lon="30.007266998291016">
        <time>2026-04-25T10:32:30Z</time>
      </trkpt>
      <trkpt lat="59.082305431365967" lon="30.007245540618896">
        <time>2026-04-25T10:32:33Z</time>
      </trkpt>
      <trkpt lat="59.082305431365967" lon="30.007245540618896">
        <time>2026-04-25T10:32:35Z</time>
      </trkpt>
      <trkpt lat="59.082326889038086" lon="30.007245540618896">
        <time>2026-04-25T10:32:38Z</time>
      </trkpt>
      <trkpt lat="59.082369804382324" lon="30.007245540618896">
        <time>2026-04-25T10:32:40Z</time>
      </trkpt>
      <trkpt lat="59.082369804382324" lon="30.007245540618896">
        <time>2026-04-25T10:32:43Z</time>
      </trkpt>
      <trkpt lat="59.082391262054443" lon="30.007245540618896">
        <time>2026-04-25T10:32:45Z</time>
      </trkpt>
      <trkpt lat="59.082391262054443" lon="30.007266998291016">
        <time>2026-04-25T10:32:48Z</time>
      </trkpt>
      <trkpt lat="59.082391262054443" lon="30.007245540618896">
        <time>2026-04-25T10:32:50Z</time>
      </trkpt>
      <trkpt lat="59.082412719726563" lon="30.007224082946777">
        <time>2026-04-25T10:32:53Z</time>
      </trkpt>
      <trkpt lat="59.082434177398682" lon="30.007224082946777">
        <time>2026-04-25T10:32:55Z</time>
      </trkpt>
      <trkpt lat="59.082434177398682" lon="30.007224082946777">
        <time>2026-04-25T10:32:58Z</time>
      </trkpt>
      <trkpt lat="59.082455635070801" lon="30.007266998291016">
        <time>2026-04-25T10:33:00Z</time>
      </trkpt>
      <trkpt lat="59.082455635070801" lon="30.007309913635254">
        <time>2026-04-25T10:33:03Z</time>
      </trkpt>
      <trkpt lat="59.08247709274292" lon="30.007331371307373">
        <time>2026-04-25T10:33:05Z</time>
      </trkpt>
      <trkpt lat="59.08247709274292" lon="30.007288455963135">
        <time>2026-04-25T10:33:08Z</time>
      </trkpt>
      <trkpt lat="59.082455635070801" lon="30.007245540618896">
        <time>2026-04-25T10:33:10Z</time>
      </trkpt>
      <trkpt lat="59.08247709274292" lon="30.007202625274658">
        <time>2026-04-25T10:33:13Z</time>
      </trkpt>
      <trkpt lat="59.082498550415039" lon="30.00715970993042">
        <time>2026-04-25T10:33:15Z</time>
      </trkpt>
      <trkpt lat="59.082498550415039" lon="30.00715970993042">
        <time>2026-04-25T10:33:18Z</time>
      </trkpt>
      <trkpt lat="59.082520008087158" lon="30.007138252258301">
        <time>2026-04-25T10:33:20Z</time>
      </trkpt>
      <trkpt lat="59.082541465759277" lon="30.007138252258301">
        <time>2026-04-25T10:33:23Z</time>
      </trkpt>
      <trkpt lat="59.082541465759277" lon="30.007138252258301">
        <time>2026-04-25T10:33:25Z</time>
      </trkpt>
      <trkpt lat="59.082562923431396" lon="30.00715970993042">
        <time>2026-04-25T10:33:28Z</time>
      </trkpt>
      <trkpt lat="59.082562923431396" lon="30.007138252258301">
        <time>2026-04-25T10:33:30Z</time>
      </trkpt>
      <trkpt lat="59.082562923431396" lon="30.007138252258301">
        <time>2026-04-25T10:33:33Z</time>
      </trkpt>
      <trkpt lat="59.082562923431396" lon="30.00715970993042">
        <time>2026-04-25T10:33:35Z</time>
      </trkpt>
      <trkpt lat="59.082562923431396" lon="30.007138252258301">
        <time>2026-04-25T10:33:38Z</time>
      </trkpt>
      <trkpt lat="59.082562923431396" lon="30.007138252258301">
        <time>2026-04-25T10:33:40Z</time>
      </trkpt>
      <trkpt lat="59.082562923431396" lon="30.007138252258301">
        <time>2026-04-25T10:33:43Z</time>
      </trkpt>
      <trkpt lat="59.082562923431396" lon="30.007138252258301">
        <time>2026-04-25T10:33:45Z</time>
      </trkpt>
      <trkpt lat="59.082562923431396" lon="30.007138252258301">
        <time>2026-04-25T10:33:48Z</time>
      </trkpt>
      <trkpt lat="59.082584381103516" lon="30.007138252258301">
        <time>2026-04-25T10:33:50Z</time>
      </trkpt>
      <trkpt lat="59.082605838775635" lon="30.007095336914063">
        <time>2026-04-25T10:33:53Z</time>
      </trkpt>
      <trkpt lat="59.082627296447754" lon="30.007073879241943">
        <time>2026-04-25T10:33:55Z</time>
      </trkpt>
      <trkpt lat="59.082627296447754" lon="30.007030963897705">
        <time>2026-04-25T10:33:58Z</time>
      </trkpt>
      <trkpt lat="59.082627296447754" lon="30.007030963897705">
        <time>2026-04-25T10:34:00Z</time>
      </trkpt>
      <trkpt lat="59.082648754119873" lon="30.007009506225586">
        <time>2026-04-25T10:34:03Z</time>
      </trkpt>
      <trkpt lat="59.082648754119873" lon="30.006988048553467">
        <time>2026-04-25T10:34:05Z</time>
      </trkpt>
      <trkpt lat="59.082670211791992" lon="30.006966590881348">
        <time>2026-04-25T10:34:08Z</time>
      </trkpt>
      <trkpt lat="59.082691669464111" lon="30.006966590881348">
        <time>2026-04-25T10:34:10Z</time>
      </trkpt>
      <trkpt lat="59.08271312713623" lon="30.006945133209229">
        <time>2026-04-25T10:34:13Z</time>
      </trkpt>
      <trkpt lat="59.08273458480835" lon="30.006923675537109">
        <time>2026-04-25T10:34:15Z</time>
      </trkpt>
      <trkpt lat="59.082777500152588" lon="30.00690221786499">
        <time>2026-04-25T10:34:18Z</time>
      </trkpt>
      <trkpt lat="59.082798957824707" lon="30.006859302520752">
        <time>2026-04-25T10:34:20Z</time>
      </trkpt>
      <trkpt lat="59.082820415496826" lon="30.006837844848633">
        <time>2026-04-25T10:34:23Z</time>
      </trkpt>
      <trkpt lat="59.082841873168945" lon="30.006859302520752">
        <time>2026-04-25T10:34:25Z</time>
      </trkpt>
      <trkpt lat="59.082841873168945" lon="30.006837844848633">
        <time>2026-04-25T10:34:28Z</time>
      </trkpt>
      <trkpt lat="59.082841873168945" lon="30.006880760192871">
        <time>2026-04-25T10:34:30Z</time>
      </trkpt>
      <trkpt lat="59.082841873168945" lon="30.006816387176514">
        <time>2026-04-25T10:34:33Z</time>
      </trkpt>
      <trkpt lat="59.082841873168945" lon="30.006794929504395">
        <time>2026-04-25T10:34:35Z</time>
      </trkpt>
      <trkpt lat="59.082841873168945" lon="30.006794929504395">
        <time>2026-04-25T10:34:38Z</time>
      </trkpt>
      <trkpt lat="59.082841873168945" lon="30.006794929504395">
        <time>2026-04-25T10:34:40Z</time>
      </trkpt>
      <trkpt lat="59.082841873168945" lon="30.006794929504395">
        <time>2026-04-25T10:34:43Z</time>
      </trkpt>
      <trkpt lat="59.082841873168945" lon="30.006794929504395">
        <time>2026-04-25T10:34:45Z</time>
      </trkpt>
      <trkpt lat="59.082841873168945" lon="30.006794929504395">
        <time>2026-04-25T10:34:48Z</time>
      </trkpt>
      <trkpt lat="59.082841873168945" lon="30.006794929504395">
        <time>2026-04-25T10:34:50Z</time>
      </trkpt>
      <trkpt lat="59.082841873168945" lon="30.006794929504395">
        <time>2026-04-25T10:34:53Z</time>
      </trkpt>
      <trkpt lat="59.082841873168945" lon="30.006794929504395">
        <time>2026-04-25T10:34:55Z</time>
      </trkpt>
      <trkpt lat="59.082841873168945" lon="30.006794929504395">
        <time>2026-04-25T10:34:58Z</time>
      </trkpt>
      <trkpt lat="59.082841873168945" lon="30.006794929504395">
        <time>2026-04-25T10:35:00Z</time>
      </trkpt>
      <trkpt lat="59.082841873168945" lon="30.006794929504395">
        <time>2026-04-25T10:35:03Z</time>
      </trkpt>
      <trkpt lat="59.082841873168945" lon="30.006837844848633">
        <time>2026-04-25T10:35:05Z</time>
      </trkpt>
      <trkpt lat="59.082841873168945" lon="30.006837844848633">
        <time>2026-04-25T10:35:08Z</time>
      </trkpt>
      <trkpt lat="59.082820415496826" lon="30.006859302520752">
        <time>2026-04-25T10:35:10Z</time>
      </trkpt>
      <trkpt lat="59.082841873168945" lon="30.006837844848633">
        <time>2026-04-25T10:35:13Z</time>
      </trkpt>
      <trkpt lat="59.082841873168945" lon="30.006816387176514">
        <time>2026-04-25T10:35:15Z</time>
      </trkpt>
      <trkpt lat="59.082841873168945" lon="30.006794929504395">
        <time>2026-04-25T10:35:18Z</time>
      </trkpt>
      <trkpt lat="59.082841873168945" lon="30.006752014160156">
        <time>2026-04-25T10:35:20Z</time>
      </trkpt>
      <trkpt lat="59.082820415496826" lon="30.006687641143799">
        <time>2026-04-25T10:35:23Z</time>
      </trkpt>
      <trkpt lat="59.082820415496826" lon="30.006623268127441">
        <time>2026-04-25T10:35:25Z</time>
      </trkpt>
      <trkpt lat="59.082820415496826" lon="30.006580352783203">
        <time>2026-04-25T10:35:28Z</time>
      </trkpt>
      <trkpt lat="59.082798957824707" lon="30.006537437438965">
        <time>2026-04-25T10:35:30Z</time>
      </trkpt>
      <trkpt lat="59.082798957824707" lon="30.006537437438965">
        <time>2026-04-25T10:35:33Z</time>
      </trkpt>
      <trkpt lat="59.082798957824707" lon="30.006494522094727">
        <time>2026-04-25T10:35:35Z</time>
      </trkpt>
      <trkpt lat="59.082798957824707" lon="30.006430149078369">
        <time>2026-04-25T10:35:38Z</time>
      </trkpt>
      <trkpt lat="59.082777500152588" lon="30.006387233734131">
        <time>2026-04-25T10:35:40Z</time>
      </trkpt>
      <trkpt lat="59.082777500152588" lon="30.006344318389893">
        <time>2026-04-25T10:35:43Z</time>
      </trkpt>
      <trkpt lat="59.082777500152588" lon="30.006279945373535">
        <time>2026-04-25T10:35:45Z</time>
      </trkpt>
      <trkpt lat="59.082777500152588" lon="30.006215572357178">
        <time>2026-04-25T10:35:48Z</time>
      </trkpt>
      <trkpt lat="59.082756042480469" lon="30.00615119934082">
        <time>2026-04-25T10:35:50Z</time>
      </trkpt>
      <trkpt lat="59.082756042480469" lon="30.006086826324463">
        <time>2026-04-25T10:35:53Z</time>
      </trkpt>
      <trkpt lat="59.082756042480469" lon="30.006022453308105">
        <time>2026-04-25T10:35:55Z</time>
      </trkpt>
      <trkpt lat="59.08273458480835" lon="30.006022453308105">
        <time>2026-04-25T10:35:58Z</time>
      </trkpt>
      <trkpt lat="59.08273458480835" lon="30.005958080291748">
        <time>2026-04-25T10:36:00Z</time>
      </trkpt>
      <trkpt lat="59.08273458480835" lon="30.005893707275391">
        <time>2026-04-25T10:36:03Z</time>
      </trkpt>
      <trkpt lat="59.08271312713623" lon="30.005872249603271">
        <time>2026-04-25T10:36:05Z</time>
      </trkpt>
      <trkpt lat="59.08273458480835" lon="30.005850791931152">
        <time>2026-04-25T10:36:08Z</time>
      </trkpt>
      <trkpt lat="59.08271312713623" lon="30.005850791931152">
        <time>2026-04-25T10:36:10Z</time>
      </trkpt>
      <trkpt lat="59.08273458480835" lon="30.005872249603271">
        <time>2026-04-25T10:36:13Z</time>
      </trkpt>
      <trkpt lat="59.08271312713623" lon="30.005872249603271">
        <time>2026-04-25T10:36:15Z</time>
      </trkpt>
      <trkpt lat="59.08271312713623" lon="30.005872249603271">
        <time>2026-04-25T10:36:18Z</time>
      </trkpt>
      <trkpt lat="59.08271312713623" lon="30.005872249603271">
        <time>2026-04-25T10:36:20Z</time>
      </trkpt>
      <trkpt lat="59.08271312713623" lon="30.005872249603271">
        <time>2026-04-25T10:36:23Z</time>
      </trkpt>
      <trkpt lat="59.08271312713623" lon="30.005872249603271">
        <time>2026-04-25T10:36:25Z</time>
      </trkpt>
      <trkpt lat="59.08271312713623" lon="30.005872249603271">
        <time>2026-04-25T10:36:28Z</time>
      </trkpt>
      <trkpt lat="59.08271312713623" lon="30.005872249603271">
        <time>2026-04-25T10:36:30Z</time>
      </trkpt>
      <trkpt lat="59.08271312713623" lon="30.005872249603271">
        <time>2026-04-25T10:36:33Z</time>
      </trkpt>
      <trkpt lat="59.08273458480835" lon="30.005872249603271">
        <time>2026-04-25T10:36:35Z</time>
      </trkpt>
      <trkpt lat="59.08273458480835" lon="30.005872249603271">
        <time>2026-04-25T10:36:38Z</time>
      </trkpt>
      <trkpt lat="59.08273458480835" lon="30.005872249603271">
        <time>2026-04-25T10:36:40Z</time>
      </trkpt>
      <trkpt lat="59.08273458480835" lon="30.005872249603271">
        <time>2026-04-25T10:36:43Z</time>
      </trkpt>
      <trkpt lat="59.08273458480835" lon="30.005872249603271">
        <time>2026-04-25T10:36:45Z</time>
      </trkpt>
      <trkpt lat="59.08273458480835" lon="30.005872249603271">
        <time>2026-04-25T10:36:48Z</time>
      </trkpt>
      <trkpt lat="59.08273458480835" lon="30.005872249603271">
        <time>2026-04-25T10:36:50Z</time>
      </trkpt>
      <trkpt lat="59.08273458480835" lon="30.005872249603271">
        <time>2026-04-25T10:36:53Z</time>
      </trkpt>
      <trkpt lat="59.08273458480835" lon="30.005872249603271">
        <time>2026-04-25T10:36:55Z</time>
      </trkpt>
      <trkpt lat="59.08273458480835" lon="30.005872249603271">
        <time>2026-04-25T10:36:58Z</time>
      </trkpt>
      <trkpt lat="59.08273458480835" lon="30.005872249603271">
        <time>2026-04-25T10:37:00Z</time>
      </trkpt>
      <trkpt lat="59.08273458480835" lon="30.005872249603271">
        <time>2026-04-25T10:37:03Z</time>
      </trkpt>
      <trkpt lat="59.08273458480835" lon="30.005850791931152">
        <time>2026-04-25T10:37:05Z</time>
      </trkpt>
      <trkpt lat="59.08273458480835" lon="30.005850791931152">
        <time>2026-04-25T10:37:08Z</time>
      </trkpt>
      <trkpt lat="59.08273458480835" lon="30.005850791931152">
        <time>2026-04-25T10:37:10Z</time>
      </trkpt>
      <trkpt lat="59.08273458480835" lon="30.005850791931152">
        <time>2026-04-25T10:37:13Z</time>
      </trkpt>
      <trkpt lat="59.08273458480835" lon="30.005850791931152">
        <time>2026-04-25T10:37:15Z</time>
      </trkpt>
      <trkpt lat="59.08273458480835" lon="30.005850791931152">
        <time>2026-04-25T10:37:18Z</time>
      </trkpt>
      <trkpt lat="59.08273458480835" lon="30.005850791931152">
        <time>2026-04-25T10:37:20Z</time>
      </trkpt>
      <trkpt lat="59.08273458480835" lon="30.005850791931152">
        <time>2026-04-25T10:37:23Z</time>
      </trkpt>
      <trkpt lat="59.08273458480835" lon="30.005850791931152">
        <time>2026-04-25T10:37:25Z</time>
      </trkpt>
      <trkpt lat="59.08273458480835" lon="30.005850791931152">
        <time>2026-04-25T10:37:28Z</time>
      </trkpt>
      <trkpt lat="59.08273458480835" lon="30.005850791931152">
        <time>2026-04-25T10:37:30Z</time>
      </trkpt>
      <trkpt lat="59.08271312713623" lon="30.005850791931152">
        <time>2026-04-25T10:37:33Z</time>
      </trkpt>
      <trkpt lat="59.08271312713623" lon="30.005850791931152">
        <time>2026-04-25T10:37:35Z</time>
      </trkpt>
      <trkpt lat="59.08271312713623" lon="30.005850791931152">
        <time>2026-04-25T10:37:38Z</time>
      </trkpt>
      <trkpt lat="59.08271312713623" lon="30.005850791931152">
        <time>2026-04-25T10:37:40Z</time>
      </trkpt>
      <trkpt lat="59.08271312713623" lon="30.005850791931152">
        <time>2026-04-25T10:37:43Z</time>
      </trkpt>
      <trkpt lat="59.08271312713623" lon="30.005850791931152">
        <time>2026-04-25T10:37:45Z</time>
      </trkpt>
      <trkpt lat="59.08271312713623" lon="30.005850791931152">
        <time>2026-04-25T10:37:48Z</time>
      </trkpt>
      <trkpt lat="59.08271312713623" lon="30.005850791931152">
        <time>2026-04-25T10:37:50Z</time>
      </trkpt>
      <trkpt lat="59.08271312713623" lon="30.005850791931152">
        <time>2026-04-25T10:37:53Z</time>
      </trkpt>
      <trkpt lat="59.08271312713623" lon="30.005850791931152">
        <time>2026-04-25T10:37:55Z</time>
      </trkpt>
      <trkpt lat="59.08271312713623" lon="30.005872249603271">
        <time>2026-04-25T10:37:58Z</time>
      </trkpt>
      <trkpt lat="59.08271312713623" lon="30.005872249603271">
        <time>2026-04-25T10:38:00Z</time>
      </trkpt>
      <trkpt lat="59.08271312713623" lon="30.005872249603271">
        <time>2026-04-25T10:38:03Z</time>
      </trkpt>
      <trkpt lat="59.08271312713623" lon="30.005872249603271">
        <time>2026-04-25T10:38:05Z</time>
      </trkpt>
      <trkpt lat="59.08271312713623" lon="30.005872249603271">
        <time>2026-04-25T10:38:08Z</time>
      </trkpt>
      <trkpt lat="59.08271312713623" lon="30.005872249603271">
        <time>2026-04-25T10:38:10Z</time>
      </trkpt>
      <trkpt lat="59.08271312713623" lon="30.005872249603271">
        <time>2026-04-25T10:38:13Z</time>
      </trkpt>
      <trkpt lat="59.08271312713623" lon="30.005872249603271">
        <time>2026-04-25T10:38:15Z</time>
      </trkpt>
      <trkpt lat="59.08271312713623" lon="30.005872249603271">
        <time>2026-04-25T10:38:18Z</time>
      </trkpt>
      <trkpt lat="59.08271312713623" lon="30.005872249603271">
        <time>2026-04-25T10:38:20Z</time>
      </trkpt>
      <trkpt lat="59.08271312713623" lon="30.005872249603271">
        <time>2026-04-25T10:38:23Z</time>
      </trkpt>
      <trkpt lat="59.08271312713623" lon="30.005872249603271">
        <time>2026-04-25T10:38:25Z</time>
      </trkpt>
      <trkpt lat="59.08271312713623" lon="30.005872249603271">
        <time>2026-04-25T10:38:28Z</time>
      </trkpt>
      <trkpt lat="59.08271312713623" lon="30.005872249603271">
        <time>2026-04-25T10:38:30Z</time>
      </trkpt>
      <trkpt lat="59.08271312713623" lon="30.005872249603271">
        <time>2026-04-25T10:38:33Z</time>
      </trkpt>
      <trkpt lat="59.08271312713623" lon="30.005872249603271">
        <time>2026-04-25T10:38:35Z</time>
      </trkpt>
      <trkpt lat="59.08271312713623" lon="30.005872249603271">
        <time>2026-04-25T10:38:38Z</time>
      </trkpt>
      <trkpt lat="59.08271312713623" lon="30.005872249603271">
        <time>2026-04-25T10:38:40Z</time>
      </trkpt>
      <trkpt lat="59.08271312713623" lon="30.005872249603271">
        <time>2026-04-25T10:38:43Z</time>
      </trkpt>
      <trkpt lat="59.08271312713623" lon="30.005872249603271">
        <time>2026-04-25T10:38:45Z</time>
      </trkpt>
      <trkpt lat="59.08271312713623" lon="30.005872249603271">
        <time>2026-04-25T10:38:48Z</time>
      </trkpt>
      <trkpt lat="59.08271312713623" lon="30.005872249603271">
        <time>2026-04-25T10:38:50Z</time>
      </trkpt>
      <trkpt lat="59.08271312713623" lon="30.005872249603271">
        <time>2026-04-25T10:38:53Z</time>
      </trkpt>
      <trkpt lat="59.08271312713623" lon="30.005872249603271">
        <time>2026-04-25T10:38:55Z</time>
      </trkpt>
      <trkpt lat="59.08271312713623" lon="30.005872249603271">
        <time>2026-04-25T10:38:58Z</time>
      </trkpt>
      <trkpt lat="59.08271312713623" lon="30.005872249603271">
        <time>2026-04-25T10:39:00Z</time>
      </trkpt>
      <trkpt lat="59.08271312713623" lon="30.005872249603271">
        <time>2026-04-25T10:39:03Z</time>
      </trkpt>
      <trkpt lat="59.08271312713623" lon="30.005872249603271">
        <time>2026-04-25T10:39:05Z</time>
      </trkpt>
      <trkpt lat="59.08271312713623" lon="30.005872249603271">
        <time>2026-04-25T10:39:08Z</time>
      </trkpt>
      <trkpt lat="59.08271312713623" lon="30.005872249603271">
        <time>2026-04-25T10:39:10Z</time>
      </trkpt>
      <trkpt lat="59.08271312713623" lon="30.005872249603271">
        <time>2026-04-25T10:39:13Z</time>
      </trkpt>
      <trkpt lat="59.08271312713623" lon="30.005872249603271">
        <time>2026-04-25T10:39:15Z</time>
      </trkpt>
      <trkpt lat="59.08271312713623" lon="30.005872249603271">
        <time>2026-04-25T10:39:18Z</time>
      </trkpt>
      <trkpt lat="59.08271312713623" lon="30.005872249603271">
        <time>2026-04-25T10:39:20Z</time>
      </trkpt>
      <trkpt lat="59.08271312713623" lon="30.005872249603271">
        <time>2026-04-25T10:39:23Z</time>
      </trkpt>
      <trkpt lat="59.08271312713623" lon="30.005872249603271">
        <time>2026-04-25T10:39:25Z</time>
      </trkpt>
      <trkpt lat="59.08271312713623" lon="30.005872249603271">
        <time>2026-04-25T10:39:28Z</time>
      </trkpt>
      <trkpt lat="59.08271312713623" lon="30.005872249603271">
        <time>2026-04-25T10:39:30Z</time>
      </trkpt>
      <trkpt lat="59.08271312713623" lon="30.005872249603271">
        <time>2026-04-25T10:39:33Z</time>
      </trkpt>
      <trkpt lat="59.08271312713623" lon="30.005872249603271">
        <time>2026-04-25T10:39:35Z</time>
      </trkpt>
      <trkpt lat="59.08271312713623" lon="30.005872249603271">
        <time>2026-04-25T10:39:38Z</time>
      </trkpt>
      <trkpt lat="59.08271312713623" lon="30.005872249603271">
        <time>2026-04-25T10:39:40Z</time>
      </trkpt>
      <trkpt lat="59.08271312713623" lon="30.005872249603271">
        <time>2026-04-25T10:39:43Z</time>
      </trkpt>
      <trkpt lat="59.08271312713623" lon="30.005872249603271">
        <time>2026-04-25T10:39:45Z</time>
      </trkpt>
      <trkpt lat="59.08271312713623" lon="30.005872249603271">
        <time>2026-04-25T10:39:48Z</time>
      </trkpt>
      <trkpt lat="59.08271312713623" lon="30.005872249603271">
        <time>2026-04-25T10:39:50Z</time>
      </trkpt>
      <trkpt lat="59.08271312713623" lon="30.005872249603271">
        <time>2026-04-25T10:39:53Z</time>
      </trkpt>
      <trkpt lat="59.08271312713623" lon="30.005872249603271">
        <time>2026-04-25T10:39:55Z</time>
      </trkpt>
      <trkpt lat="59.08271312713623" lon="30.005872249603271">
        <time>2026-04-25T10:39:58Z</time>
      </trkpt>
      <trkpt lat="59.08271312713623" lon="30.005872249603271">
        <time>2026-04-25T10:40:00Z</time>
      </trkpt>
      <trkpt lat="59.08271312713623" lon="30.005872249603271">
        <time>2026-04-25T10:40:03Z</time>
      </trkpt>
      <trkpt lat="59.08271312713623" lon="30.005872249603271">
        <time>2026-04-25T10:40:05Z</time>
      </trkpt>
      <trkpt lat="59.08271312713623" lon="30.005872249603271">
        <time>2026-04-25T10:40:08Z</time>
      </trkpt>
      <trkpt lat="59.08271312713623" lon="30.005872249603271">
        <time>2026-04-25T10:40:10Z</time>
      </trkpt>
      <trkpt lat="59.08271312713623" lon="30.005872249603271">
        <time>2026-04-25T10:40:13Z</time>
      </trkpt>
      <trkpt lat="59.08271312713623" lon="30.005872249603271">
        <time>2026-04-25T10:40:15Z</time>
      </trkpt>
      <trkpt lat="59.08271312713623" lon="30.005872249603271">
        <time>2026-04-25T10:40:18Z</time>
      </trkpt>
      <trkpt lat="59.08271312713623" lon="30.005872249603271">
        <time>2026-04-25T10:40:20Z</time>
      </trkpt>
      <trkpt lat="59.08271312713623" lon="30.005872249603271">
        <time>2026-04-25T10:40:23Z</time>
      </trkpt>
      <trkpt lat="59.08271312713623" lon="30.005872249603271">
        <time>2026-04-25T10:40:25Z</time>
      </trkpt>
      <trkpt lat="59.08271312713623" lon="30.005872249603271">
        <time>2026-04-25T10:40:28Z</time>
      </trkpt>
      <trkpt lat="59.08271312713623" lon="30.005872249603271">
        <time>2026-04-25T10:40:30Z</time>
      </trkpt>
      <trkpt lat="59.08271312713623" lon="30.005872249603271">
        <time>2026-04-25T10:40:33Z</time>
      </trkpt>
      <trkpt lat="59.08271312713623" lon="30.005872249603271">
        <time>2026-04-25T10:40:35Z</time>
      </trkpt>
      <trkpt lat="59.08271312713623" lon="30.005872249603271">
        <time>2026-04-25T10:40:38Z</time>
      </trkpt>
      <trkpt lat="59.08271312713623" lon="30.005872249603271">
        <time>2026-04-25T10:40:40Z</time>
      </trkpt>
      <trkpt lat="59.08271312713623" lon="30.005872249603271">
        <time>2026-04-25T10:40:43Z</time>
      </trkpt>
      <trkpt lat="59.08271312713623" lon="30.005872249603271">
        <time>2026-04-25T10:40:45Z</time>
      </trkpt>
      <trkpt lat="59.08271312713623" lon="30.005872249603271">
        <time>2026-04-25T10:40:48Z</time>
      </trkpt>
      <trkpt lat="59.08271312713623" lon="30.005872249603271">
        <time>2026-04-25T10:40:50Z</time>
      </trkpt>
      <trkpt lat="59.08271312713623" lon="30.005872249603271">
        <time>2026-04-25T10:40:53Z</time>
      </trkpt>
      <trkpt lat="59.08271312713623" lon="30.005872249603271">
        <time>2026-04-25T10:40:55Z</time>
      </trkpt>
      <trkpt lat="59.08271312713623" lon="30.005872249603271">
        <time>2026-04-25T10:40:58Z</time>
      </trkpt>
      <trkpt lat="59.08271312713623" lon="30.005872249603271">
        <time>2026-04-25T10:41:00Z</time>
      </trkpt>
      <trkpt lat="59.08271312713623" lon="30.005872249603271">
        <time>2026-04-25T10:41:03Z</time>
      </trkpt>
      <trkpt lat="59.08271312713623" lon="30.005872249603271">
        <time>2026-04-25T10:41:05Z</time>
      </trkpt>
      <trkpt lat="59.08271312713623" lon="30.005872249603271">
        <time>2026-04-25T10:41:08Z</time>
      </trkpt>
      <trkpt lat="59.08271312713623" lon="30.005872249603271">
        <time>2026-04-25T10:41:10Z</time>
      </trkpt>
      <trkpt lat="59.08271312713623" lon="30.005872249603271">
        <time>2026-04-25T10:41:13Z</time>
      </trkpt>
      <trkpt lat="59.08271312713623" lon="30.005872249603271">
        <time>2026-04-25T10:41:15Z</time>
      </trkpt>
      <trkpt lat="59.08271312713623" lon="30.005872249603271">
        <time>2026-04-25T10:41:18Z</time>
      </trkpt>
      <trkpt lat="59.08271312713623" lon="30.005872249603271">
        <time>2026-04-25T10:41:20Z</time>
      </trkpt>
      <trkpt lat="59.08271312713623" lon="30.005872249603271">
        <time>2026-04-25T10:41:23Z</time>
      </trkpt>
      <trkpt lat="59.08271312713623" lon="30.005872249603271">
        <time>2026-04-25T10:41:25Z</time>
      </trkpt>
      <trkpt lat="59.08271312713623" lon="30.005872249603271">
        <time>2026-04-25T10:41:28Z</time>
      </trkpt>
      <trkpt lat="59.08271312713623" lon="30.005872249603271">
        <time>2026-04-25T10:41:30Z</time>
      </trkpt>
      <trkpt lat="59.08271312713623" lon="30.005872249603271">
        <time>2026-04-25T10:41:33Z</time>
      </trkpt>
      <trkpt lat="59.08271312713623" lon="30.005872249603271">
        <time>2026-04-25T10:41:35Z</time>
      </trkpt>
      <trkpt lat="59.08271312713623" lon="30.005872249603271">
        <time>2026-04-25T10:41:38Z</time>
      </trkpt>
      <trkpt lat="59.08271312713623" lon="30.005872249603271">
        <time>2026-04-25T10:41:40Z</time>
      </trkpt>
      <trkpt lat="59.08271312713623" lon="30.005872249603271">
        <time>2026-04-25T10:41:43Z</time>
      </trkpt>
      <trkpt lat="59.08271312713623" lon="30.005872249603271">
        <time>2026-04-25T10:41:45Z</time>
      </trkpt>
      <trkpt lat="59.08271312713623" lon="30.005872249603271">
        <time>2026-04-25T10:41:48Z</time>
      </trkpt>
      <trkpt lat="59.08271312713623" lon="30.005872249603271">
        <time>2026-04-25T10:41:50Z</time>
      </trkpt>
      <trkpt lat="59.08271312713623" lon="30.005872249603271">
        <time>2026-04-25T10:41:53Z</time>
      </trkpt>
      <trkpt lat="59.08271312713623" lon="30.005872249603271">
        <time>2026-04-25T10:41:55Z</time>
      </trkpt>
      <trkpt lat="59.08271312713623" lon="30.005872249603271">
        <time>2026-04-25T10:41:58Z</time>
      </trkpt>
      <trkpt lat="59.08271312713623" lon="30.005872249603271">
        <time>2026-04-25T10:42:00Z</time>
      </trkpt>
      <trkpt lat="59.08271312713623" lon="30.005872249603271">
        <time>2026-04-25T10:42:03Z</time>
      </trkpt>
      <trkpt lat="59.08271312713623" lon="30.005872249603271">
        <time>2026-04-25T10:42:05Z</time>
      </trkpt>
      <trkpt lat="59.08271312713623" lon="30.005872249603271">
        <time>2026-04-25T10:42:08Z</time>
      </trkpt>
      <trkpt lat="59.08271312713623" lon="30.005872249603271">
        <time>2026-04-25T10:42:10Z</time>
      </trkpt>
      <trkpt lat="59.08271312713623" lon="30.005872249603271">
        <time>2026-04-25T10:42:13Z</time>
      </trkpt>
      <trkpt lat="59.08271312713623" lon="30.005872249603271">
        <time>2026-04-25T10:42:15Z</time>
      </trkpt>
      <trkpt lat="59.08271312713623" lon="30.005872249603271">
        <time>2026-04-25T10:42:18Z</time>
      </trkpt>
      <trkpt lat="59.08271312713623" lon="30.005872249603271">
        <time>2026-04-25T10:42:20Z</time>
      </trkpt>
      <trkpt lat="59.08271312713623" lon="30.005872249603271">
        <time>2026-04-25T10:42:23Z</time>
      </trkpt>
      <trkpt lat="59.08271312713623" lon="30.005872249603271">
        <time>2026-04-25T10:42:25Z</time>
      </trkpt>
      <trkpt lat="59.08271312713623" lon="30.005872249603271">
        <time>2026-04-25T10:42:28Z</time>
      </trkpt>
      <trkpt lat="59.08271312713623" lon="30.005872249603271">
        <time>2026-04-25T10:42:30Z</time>
      </trkpt>
      <trkpt lat="59.08271312713623" lon="30.005872249603271">
        <time>2026-04-25T10:42:33Z</time>
      </trkpt>
      <trkpt lat="59.08271312713623" lon="30.005872249603271">
        <time>2026-04-25T10:42:35Z</time>
      </trkpt>
      <trkpt lat="59.08271312713623" lon="30.005872249603271">
        <time>2026-04-25T10:42:38Z</time>
      </trkpt>
      <trkpt lat="59.08271312713623" lon="30.005872249603271">
        <time>2026-04-25T10:42:40Z</time>
      </trkpt>
      <trkpt lat="59.08271312713623" lon="30.005872249603271">
        <time>2026-04-25T10:42:43Z</time>
      </trkpt>
      <trkpt lat="59.08271312713623" lon="30.005872249603271">
        <time>2026-04-25T10:42:45Z</time>
      </trkpt>
      <trkpt lat="59.08271312713623" lon="30.005872249603271">
        <time>2026-04-25T10:42:48Z</time>
      </trkpt>
      <trkpt lat="59.08271312713623" lon="30.005872249603271">
        <time>2026-04-25T10:42:50Z</time>
      </trkpt>
      <trkpt lat="59.08271312713623" lon="30.005872249603271">
        <time>2026-04-25T10:42:53Z</time>
      </trkpt>
      <trkpt lat="59.08271312713623" lon="30.005872249603271">
        <time>2026-04-25T10:42:55Z</time>
      </trkpt>
      <trkpt lat="59.08271312713623" lon="30.005850791931152">
        <time>2026-04-25T10:42:58Z</time>
      </trkpt>
      <trkpt lat="59.08271312713623" lon="30.005764961242676">
        <time>2026-04-25T10:43:00Z</time>
      </trkpt>
      <trkpt lat="59.082691669464111" lon="30.005700588226318">
        <time>2026-04-25T10:43:03Z</time>
      </trkpt>
      <trkpt lat="59.082691669464111" lon="30.00565767288208">
        <time>2026-04-25T10:43:05Z</time>
      </trkpt>
      <trkpt lat="59.082670211791992" lon="30.005593299865723">
        <time>2026-04-25T10:43:08Z</time>
      </trkpt>
      <trkpt lat="59.082670211791992" lon="30.005528926849365">
        <time>2026-04-25T10:43:10Z</time>
      </trkpt>
      <trkpt lat="59.082648754119873" lon="30.005464553833008">
        <time>2026-04-25T10:43:13Z</time>
      </trkpt>
      <trkpt lat="59.082648754119873" lon="30.00542163848877">
        <time>2026-04-25T10:43:15Z</time>
      </trkpt>
      <trkpt lat="59.082648754119873" lon="30.005357265472412">
        <time>2026-04-25T10:43:18Z</time>
      </trkpt>
      <trkpt lat="59.082627296447754" lon="30.005314350128174">
        <time>2026-04-25T10:43:20Z</time>
      </trkpt>
      <trkpt lat="59.082627296447754" lon="30.005271434783936">
        <time>2026-04-25T10:43:23Z</time>
      </trkpt>
      <trkpt lat="59.082627296447754" lon="30.005249977111816">
        <time>2026-04-25T10:43:25Z</time>
      </trkpt>
      <trkpt lat="59.082605838775635" lon="30.005228519439697">
        <time>2026-04-25T10:43:28Z</time>
      </trkpt>
      <trkpt lat="59.082627296447754" lon="30.005228519439697">
        <time>2026-04-25T10:43:30Z</time>
      </trkpt>
      <trkpt lat="59.082627296447754" lon="30.005228519439697">
        <time>2026-04-25T10:43:33Z</time>
      </trkpt>
      <trkpt lat="59.082605838775635" lon="30.00516414642334">
        <time>2026-04-25T10:43:35Z</time>
      </trkpt>
      <trkpt lat="59.082605838775635" lon="30.005078315734863">
        <time>2026-04-25T10:43:38Z</time>
      </trkpt>
      <trkpt lat="59.082605838775635" lon="30.005078315734863">
        <time>2026-04-25T10:43:40Z</time>
      </trkpt>
      <trkpt lat="59.082605838775635" lon="30.005035400390625">
        <time>2026-04-25T10:43:43Z</time>
      </trkpt>
      <trkpt lat="59.082605838775635" lon="30.004992485046387">
        <time>2026-04-25T10:43:45Z</time>
      </trkpt>
      <trkpt lat="59.082605838775635" lon="30.004971027374268">
        <time>2026-04-25T10:43:48Z</time>
      </trkpt>
      <trkpt lat="59.082605838775635" lon="30.004971027374268">
        <time>2026-04-25T10:43:50Z</time>
      </trkpt>
      <trkpt lat="59.082605838775635" lon="30.00490665435791">
        <time>2026-04-25T10:43:53Z</time>
      </trkpt>
      <trkpt lat="59.082584381103516" lon="30.004863739013672">
        <time>2026-04-25T10:43:55Z</time>
      </trkpt>
      <trkpt lat="59.082584381103516" lon="30.004842281341553">
        <time>2026-04-25T10:43:58Z</time>
      </trkpt>
      <trkpt lat="59.082584381103516" lon="30.004820823669434">
        <time>2026-04-25T10:44:00Z</time>
      </trkpt>
      <trkpt lat="59.082584381103516" lon="30.004756450653076">
        <time>2026-04-25T10:44:03Z</time>
      </trkpt>
      <trkpt lat="59.082562923431396" lon="30.004692077636719">
        <time>2026-04-25T10:44:05Z</time>
      </trkpt>
      <trkpt lat="59.082562923431396" lon="30.004627704620361">
        <time>2026-04-25T10:44:08Z</time>
      </trkpt>
      <trkpt lat="59.082541465759277" lon="30.004563331604004">
        <time>2026-04-25T10:44:10Z</time>
      </trkpt>
      <trkpt lat="59.082541465759277" lon="30.004520416259766">
        <time>2026-04-25T10:44:13Z</time>
      </trkpt>
      <trkpt lat="59.082541465759277" lon="30.004477500915527">
        <time>2026-04-25T10:44:15Z</time>
      </trkpt>
      <trkpt lat="59.082541465759277" lon="30.004456043243408">
        <time>2026-04-25T10:44:18Z</time>
      </trkpt>
      <trkpt lat="59.082541465759277" lon="30.004498958587646">
        <time>2026-04-25T10:44:20Z</time>
      </trkpt>
      <trkpt lat="59.082541465759277" lon="30.004563331604004">
        <time>2026-04-25T10:44:23Z</time>
      </trkpt>
      <trkpt lat="59.082541465759277" lon="30.00464916229248">
        <time>2026-04-25T10:44:25Z</time>
      </trkpt>
      <trkpt lat="59.082520008087158" lon="30.00464916229248">
        <time>2026-04-25T10:44:28Z</time>
      </trkpt>
      <trkpt lat="59.082541465759277" lon="30.004627704620361">
        <time>2026-04-25T10:44:30Z</time>
      </trkpt>
      <trkpt lat="59.082541465759277" lon="30.004627704620361">
        <time>2026-04-25T10:44:33Z</time>
      </trkpt>
      <trkpt lat="59.082541465759277" lon="30.004627704620361">
        <time>2026-04-25T10:44:35Z</time>
      </trkpt>
      <trkpt lat="59.082541465759277" lon="30.004627704620361">
        <time>2026-04-25T10:44:38Z</time>
      </trkpt>
      <trkpt lat="59.082541465759277" lon="30.004627704620361">
        <time>2026-04-25T10:44:40Z</time>
      </trkpt>
      <trkpt lat="59.082541465759277" lon="30.004627704620361">
        <time>2026-04-25T10:44:43Z</time>
      </trkpt>
      <trkpt lat="59.082541465759277" lon="30.004627704620361">
        <time>2026-04-25T10:44:45Z</time>
      </trkpt>
      <trkpt lat="59.082520008087158" lon="30.00464916229248">
        <time>2026-04-25T10:44:48Z</time>
      </trkpt>
      <trkpt lat="59.082520008087158" lon="30.00464916229248">
        <time>2026-04-25T10:44:50Z</time>
      </trkpt>
      <trkpt lat="59.082520008087158" lon="30.00464916229248">
        <time>2026-04-25T10:44:53Z</time>
      </trkpt>
      <trkpt lat="59.082520008087158" lon="30.00464916229248">
        <time>2026-04-25T10:44:55Z</time>
      </trkpt>
      <trkpt lat="59.082498550415039" lon="30.00464916229248">
        <time>2026-04-25T10:44:58Z</time>
      </trkpt>
      <trkpt lat="59.082498550415039" lon="30.00464916229248">
        <time>2026-04-25T10:45:00Z</time>
      </trkpt>
      <trkpt lat="59.082498550415039" lon="30.00464916229248">
        <time>2026-04-25T10:45:03Z</time>
      </trkpt>
      <trkpt lat="59.08247709274292" lon="30.004692077636719">
        <time>2026-04-25T10:45:05Z</time>
      </trkpt>
      <trkpt lat="59.08247709274292" lon="30.004692077636719">
        <time>2026-04-25T10:45:08Z</time>
      </trkpt>
      <trkpt lat="59.082455635070801" lon="30.004692077636719">
        <time>2026-04-25T10:45:10Z</time>
      </trkpt>
      <trkpt lat="59.082455635070801" lon="30.004692077636719">
        <time>2026-04-25T10:45:13Z</time>
      </trkpt>
      <trkpt lat="59.082434177398682" lon="30.004692077636719">
        <time>2026-04-25T10:45:15Z</time>
      </trkpt>
      <trkpt lat="59.082434177398682" lon="30.004692077636719">
        <time>2026-04-25T10:45:18Z</time>
      </trkpt>
      <trkpt lat="59.082412719726563" lon="30.004692077636719">
        <time>2026-04-25T10:45:20Z</time>
      </trkpt>
      <trkpt lat="59.082391262054443" lon="30.004692077636719">
        <time>2026-04-25T10:45:23Z</time>
      </trkpt>
      <trkpt lat="59.082369804382324" lon="30.004713535308838">
        <time>2026-04-25T10:45:25Z</time>
      </trkpt>
      <trkpt lat="59.082369804382324" lon="30.004713535308838">
        <time>2026-04-25T10:45:28Z</time>
      </trkpt>
      <trkpt lat="59.082348346710205" lon="30.004713535308838">
        <time>2026-04-25T10:45:30Z</time>
      </trkpt>
      <trkpt lat="59.082348346710205" lon="30.004734992980957">
        <time>2026-04-25T10:45:33Z</time>
      </trkpt>
      <trkpt lat="59.082348346710205" lon="30.004734992980957">
        <time>2026-04-25T10:45:35Z</time>
      </trkpt>
      <trkpt lat="59.082348346710205" lon="30.004734992980957">
        <time>2026-04-25T10:45:38Z</time>
      </trkpt>
      <trkpt lat="59.082348346710205" lon="30.004734992980957">
        <time>2026-04-25T10:45:40Z</time>
      </trkpt>
      <trkpt lat="59.082348346710205" lon="30.004734992980957">
        <time>2026-04-25T10:45:43Z</time>
      </trkpt>
      <trkpt lat="59.082348346710205" lon="30.004734992980957">
        <time>2026-04-25T10:45:45Z</time>
      </trkpt>
      <trkpt lat="59.082348346710205" lon="30.004734992980957">
        <time>2026-04-25T10:45:48Z</time>
      </trkpt>
      <trkpt lat="59.082326889038086" lon="30.004734992980957">
        <time>2026-04-25T10:45:50Z</time>
      </trkpt>
      <trkpt lat="59.082326889038086" lon="30.004734992980957">
        <time>2026-04-25T10:45:53Z</time>
      </trkpt>
      <trkpt lat="59.082326889038086" lon="30.004734992980957">
        <time>2026-04-25T10:45:55Z</time>
      </trkpt>
      <trkpt lat="59.082326889038086" lon="30.004734992980957">
        <time>2026-04-25T10:45:58Z</time>
      </trkpt>
      <trkpt lat="59.082326889038086" lon="30.004734992980957">
        <time>2026-04-25T10:46:00Z</time>
      </trkpt>
      <trkpt lat="59.082326889038086" lon="30.004734992980957">
        <time>2026-04-25T10:46:03Z</time>
      </trkpt>
      <trkpt lat="59.082326889038086" lon="30.004734992980957">
        <time>2026-04-25T10:46:05Z</time>
      </trkpt>
      <trkpt lat="59.082283973693848" lon="30.0046706199646">
        <time>2026-04-25T10:46:08Z</time>
      </trkpt>
      <trkpt lat="59.082262516021729" lon="30.004627704620361">
        <time>2026-04-25T10:46:10Z</time>
      </trkpt>
      <trkpt lat="59.082241058349609" lon="30.004584789276123">
        <time>2026-04-25T10:46:13Z</time>
      </trkpt>
      <trkpt lat="59.082198143005371" lon="30.004541873931885">
        <time>2026-04-25T10:46:15Z</time>
      </trkpt>
      <trkpt lat="59.082176685333252" lon="30.004541873931885">
        <time>2026-04-25T10:46:18Z</time>
      </trkpt>
      <trkpt lat="59.082155227661133" lon="30.004541873931885">
        <time>2026-04-25T10:46:20Z</time>
      </trkpt>
      <trkpt lat="59.082176685333252" lon="30.004563331604004">
        <time>2026-04-25T10:46:23Z</time>
      </trkpt>
      <trkpt lat="59.082155227661133" lon="30.004541873931885">
        <time>2026-04-25T10:46:25Z</time>
      </trkpt>
      <trkpt lat="59.082176685333252" lon="30.004584789276123">
        <time>2026-04-25T10:46:28Z</time>
      </trkpt>
      <trkpt lat="59.082176685333252" lon="30.004627704620361">
        <time>2026-04-25T10:46:30Z</time>
      </trkpt>
      <trkpt lat="59.082198143005371" lon="30.0046706199646">
        <time>2026-04-25T10:46:33Z</time>
      </trkpt>
      <trkpt lat="59.082176685333252" lon="30.004713535308838">
        <time>2026-04-25T10:46:35Z</time>
      </trkpt>
      <trkpt lat="59.082155227661133" lon="30.004692077636719">
        <time>2026-04-25T10:46:38Z</time>
      </trkpt>
      <trkpt lat="59.082133769989014" lon="30.004692077636719">
        <time>2026-04-25T10:46:40Z</time>
      </trkpt>
      <trkpt lat="59.082133769989014" lon="30.004692077636719">
        <time>2026-04-25T10:46:43Z</time>
      </trkpt>
      <trkpt lat="59.082155227661133" lon="30.004692077636719">
        <time>2026-04-25T10:46:45Z</time>
      </trkpt>
      <trkpt lat="59.082155227661133" lon="30.004692077636719">
        <time>2026-04-25T10:46:48Z</time>
      </trkpt>
      <trkpt lat="59.082155227661133" lon="30.004692077636719">
        <time>2026-04-25T10:46:50Z</time>
      </trkpt>
      <trkpt lat="59.082155227661133" lon="30.004692077636719">
        <time>2026-04-25T10:46:53Z</time>
      </trkpt>
      <trkpt lat="59.082155227661133" lon="30.004692077636719">
        <time>2026-04-25T10:46:55Z</time>
      </trkpt>
      <trkpt lat="59.082155227661133" lon="30.004692077636719">
        <time>2026-04-25T10:46:58Z</time>
      </trkpt>
      <trkpt lat="59.082133769989014" lon="30.004692077636719">
        <time>2026-04-25T10:47:00Z</time>
      </trkpt>
      <trkpt lat="59.082133769989014" lon="30.004692077636719">
        <time>2026-04-25T10:47:03Z</time>
      </trkpt>
      <trkpt lat="59.082133769989014" lon="30.004713535308838">
        <time>2026-04-25T10:47:05Z</time>
      </trkpt>
      <trkpt lat="59.082133769989014" lon="30.004713535308838">
        <time>2026-04-25T10:47:08Z</time>
      </trkpt>
      <trkpt lat="59.082133769989014" lon="30.004713535308838">
        <time>2026-04-25T10:47:10Z</time>
      </trkpt>
      <trkpt lat="59.082133769989014" lon="30.004713535308838">
        <time>2026-04-25T10:47:13Z</time>
      </trkpt>
      <trkpt lat="59.082133769989014" lon="30.004713535308838">
        <time>2026-04-25T10:47:15Z</time>
      </trkpt>
      <trkpt lat="59.082133769989014" lon="30.004713535308838">
        <time>2026-04-25T10:47:18Z</time>
      </trkpt>
      <trkpt lat="59.082112312316895" lon="30.004713535308838">
        <time>2026-04-25T10:47:20Z</time>
      </trkpt>
      <trkpt lat="59.082112312316895" lon="30.004713535308838">
        <time>2026-04-25T10:47:23Z</time>
      </trkpt>
      <trkpt lat="59.082112312316895" lon="30.004713535308838">
        <time>2026-04-25T10:47:25Z</time>
      </trkpt>
      <trkpt lat="59.082112312316895" lon="30.004713535308838">
        <time>2026-04-25T10:47:28Z</time>
      </trkpt>
      <trkpt lat="59.082112312316895" lon="30.004734992980957">
        <time>2026-04-25T10:47:30Z</time>
      </trkpt>
      <trkpt lat="59.082112312316895" lon="30.004734992980957">
        <time>2026-04-25T10:47:33Z</time>
      </trkpt>
      <trkpt lat="59.082112312316895" lon="30.004734992980957">
        <time>2026-04-25T10:47:35Z</time>
      </trkpt>
      <trkpt lat="59.082112312316895" lon="30.004734992980957">
        <time>2026-04-25T10:47:38Z</time>
      </trkpt>
      <trkpt lat="59.082112312316895" lon="30.004756450653076">
        <time>2026-04-25T10:47:40Z</time>
      </trkpt>
      <trkpt lat="59.082112312316895" lon="30.004777908325195">
        <time>2026-04-25T10:47:43Z</time>
      </trkpt>
      <trkpt lat="59.082112312316895" lon="30.004799365997314">
        <time>2026-04-25T10:47:45Z</time>
      </trkpt>
      <trkpt lat="59.082112312316895" lon="30.004820823669434">
        <time>2026-04-25T10:47:48Z</time>
      </trkpt>
      <trkpt lat="59.082112312316895" lon="30.004820823669434">
        <time>2026-04-25T10:47:50Z</time>
      </trkpt>
      <trkpt lat="59.082112312316895" lon="30.004842281341553">
        <time>2026-04-25T10:47:53Z</time>
      </trkpt>
      <trkpt lat="59.082112312316895" lon="30.004885196685791">
        <time>2026-04-25T10:47:55Z</time>
      </trkpt>
      <trkpt lat="59.082112312316895" lon="30.00490665435791">
        <time>2026-04-25T10:47:58Z</time>
      </trkpt>
      <trkpt lat="59.082112312316895" lon="30.004928112030029">
        <time>2026-04-25T10:48:00Z</time>
      </trkpt>
      <trkpt lat="59.082112312316895" lon="30.004992485046387">
        <time>2026-04-25T10:48:03Z</time>
      </trkpt>
      <trkpt lat="59.082133769989014" lon="30.005056858062744">
        <time>2026-04-25T10:48:05Z</time>
      </trkpt>
      <trkpt lat="59.082155227661133" lon="30.005142688751221">
        <time>2026-04-25T10:48:08Z</time>
      </trkpt>
      <trkpt lat="59.082176685333252" lon="30.005207061767578">
        <time>2026-04-25T10:48:10Z</time>
      </trkpt>
      <trkpt lat="59.082176685333252" lon="30.005228519439697">
        <time>2026-04-25T10:48:13Z</time>
      </trkpt>
      <trkpt lat="59.082176685333252" lon="30.005249977111816">
        <time>2026-04-25T10:48:15Z</time>
      </trkpt>
      <trkpt lat="59.082176685333252" lon="30.005271434783936">
        <time>2026-04-25T10:48:18Z</time>
      </trkpt>
      <trkpt lat="59.082176685333252" lon="30.005271434783936">
        <time>2026-04-25T10:48:20Z</time>
      </trkpt>
      <trkpt lat="59.082198143005371" lon="30.005292892456055">
        <time>2026-04-25T10:48:23Z</time>
      </trkpt>
      <trkpt lat="59.082198143005371" lon="30.005314350128174">
        <time>2026-04-25T10:48:25Z</time>
      </trkpt>
      <trkpt lat="59.082198143005371" lon="30.005335807800293">
        <time>2026-04-25T10:48:28Z</time>
      </trkpt>
      <trkpt lat="59.08221960067749" lon="30.005357265472412">
        <time>2026-04-25T10:48:30Z</time>
      </trkpt>
      <trkpt lat="59.08221960067749" lon="30.005378723144531">
        <time>2026-04-25T10:48:33Z</time>
      </trkpt>
      <trkpt lat="59.08221960067749" lon="30.00540018081665">
        <time>2026-04-25T10:48:35Z</time>
      </trkpt>
      <trkpt lat="59.082241058349609" lon="30.00542163848877">
        <time>2026-04-25T10:48:38Z</time>
      </trkpt>
      <trkpt lat="59.082241058349609" lon="30.005464553833008">
        <time>2026-04-25T10:48:40Z</time>
      </trkpt>
      <trkpt lat="59.082241058349609" lon="30.005486011505127">
        <time>2026-04-25T10:48:43Z</time>
      </trkpt>
      <trkpt lat="59.082241058349609" lon="30.005507469177246">
        <time>2026-04-25T10:48:45Z</time>
      </trkpt>
      <trkpt lat="59.08221960067749" lon="30.005571842193604">
        <time>2026-04-25T10:48:50Z</time>
      </trkpt>
      <trkpt lat="59.08221960067749" lon="30.005593299865723">
        <time>2026-04-25T10:48:53Z</time>
      </trkpt>
      <trkpt lat="59.08221960067749" lon="30.005593299865723">
        <time>2026-04-25T10:48:55Z</time>
      </trkpt>
      <trkpt lat="59.08221960067749" lon="30.005593299865723">
        <time>2026-04-25T10:48:58Z</time>
      </trkpt>
      <trkpt lat="59.08221960067749" lon="30.005593299865723">
        <time>2026-04-25T10:49:00Z</time>
      </trkpt>
      <trkpt lat="59.08221960067749" lon="30.005593299865723">
        <time>2026-04-25T10:49:03Z</time>
      </trkpt>
      <trkpt lat="59.08221960067749" lon="30.005614757537842">
        <time>2026-04-25T10:49:05Z</time>
      </trkpt>
      <trkpt lat="59.08221960067749" lon="30.005614757537842">
        <time>2026-04-25T10:49:08Z</time>
      </trkpt>
      <trkpt lat="59.08221960067749" lon="30.005614757537842">
        <time>2026-04-25T10:49:10Z</time>
      </trkpt>
      <trkpt lat="59.08221960067749" lon="30.005614757537842">
        <time>2026-04-25T10:49:13Z</time>
      </trkpt>
      <trkpt lat="59.08221960067749" lon="30.005614757537842">
        <time>2026-04-25T10:49:15Z</time>
      </trkpt>
      <trkpt lat="59.08221960067749" lon="30.005614757537842">
        <time>2026-04-25T10:49:18Z</time>
      </trkpt>
      <trkpt lat="59.08221960067749" lon="30.005614757537842">
        <time>2026-04-25T10:49:20Z</time>
      </trkpt>
      <trkpt lat="59.08221960067749" lon="30.005614757537842">
        <time>2026-04-25T10:49:23Z</time>
      </trkpt>
      <trkpt lat="59.08221960067749" lon="30.005614757537842">
        <time>2026-04-25T10:49:25Z</time>
      </trkpt>
      <trkpt lat="59.08221960067749" lon="30.005614757537842">
        <time>2026-04-25T10:49:28Z</time>
      </trkpt>
      <trkpt lat="59.08221960067749" lon="30.00565767288208">
        <time>2026-04-25T10:49:33Z</time>
      </trkpt>
      <trkpt lat="59.082241058349609" lon="30.005679130554199">
        <time>2026-04-25T10:49:35Z</time>
      </trkpt>
      <trkpt lat="59.082241058349609" lon="30.005700588226318">
        <time>2026-04-25T10:49:38Z</time>
      </trkpt>
      <trkpt lat="59.082241058349609" lon="30.005700588226318">
        <time>2026-04-25T10:49:40Z</time>
      </trkpt>
      <trkpt lat="59.082241058349609" lon="30.005722045898438">
        <time>2026-04-25T10:49:43Z</time>
      </trkpt>
      <trkpt lat="59.082241058349609" lon="30.005722045898438">
        <time>2026-04-25T10:49:45Z</time>
      </trkpt>
      <trkpt lat="59.082262516021729" lon="30.005743503570557">
        <time>2026-04-25T10:49:48Z</time>
      </trkpt>
      <trkpt lat="59.082262516021729" lon="30.005743503570557">
        <time>2026-04-25T10:49:50Z</time>
      </trkpt>
      <trkpt lat="59.082262516021729" lon="30.005764961242676">
        <time>2026-04-25T10:49:53Z</time>
      </trkpt>
      <trkpt lat="59.082262516021729" lon="30.005807876586914">
        <time>2026-04-25T10:49:55Z</time>
      </trkpt>
      <trkpt lat="59.082262516021729" lon="30.005829334259033">
        <time>2026-04-25T10:49:58Z</time>
      </trkpt>
      <trkpt lat="59.082283973693848" lon="30.005829334259033">
        <time>2026-04-25T10:50:00Z</time>
      </trkpt>
      <trkpt lat="59.082283973693848" lon="30.005893707275391">
        <time>2026-04-25T10:50:03Z</time>
      </trkpt>
      <trkpt lat="59.082326889038086" lon="30.005936622619629">
        <time>2026-04-25T10:50:05Z</time>
      </trkpt>
      <trkpt lat="59.082348346710205" lon="30.005979537963867">
        <time>2026-04-25T10:50:08Z</time>
      </trkpt>
      <trkpt lat="59.082369804382324" lon="30.006022453308105">
        <time>2026-04-25T10:50:10Z</time>
      </trkpt>
      <trkpt lat="59.082369804382324" lon="30.006022453308105">
        <time>2026-04-25T10:50:13Z</time>
      </trkpt>
      <trkpt lat="59.082369804382324" lon="30.006065368652344">
        <time>2026-04-25T10:50:15Z</time>
      </trkpt>
      <trkpt lat="59.082369804382324" lon="30.006086826324463">
        <time>2026-04-25T10:50:18Z</time>
      </trkpt>
      <trkpt lat="59.082369804382324" lon="30.00615119934082">
        <time>2026-04-25T10:50:20Z</time>
      </trkpt>
      <trkpt lat="59.082391262054443" lon="30.006172657012939">
        <time>2026-04-25T10:50:23Z</time>
      </trkpt>
      <trkpt lat="59.082412719726563" lon="30.006194114685059">
        <time>2026-04-25T10:50:25Z</time>
      </trkpt>
      <trkpt lat="59.082412719726563" lon="30.006215572357178">
        <time>2026-04-25T10:50:28Z</time>
      </trkpt>
      <trkpt lat="59.082434177398682" lon="30.006194114685059">
        <time>2026-04-25T10:50:30Z</time>
      </trkpt>
      <trkpt lat="59.082434177398682" lon="30.006215572357178">
        <time>2026-04-25T10:50:33Z</time>
      </trkpt>
      <trkpt lat="59.082412719726563" lon="30.006237030029297">
        <time>2026-04-25T10:50:35Z</time>
      </trkpt>
      <trkpt lat="59.082412719726563" lon="30.006237030029297">
        <time>2026-04-25T10:50:38Z</time>
      </trkpt>
      <trkpt lat="59.082369804382324" lon="30.006258487701416">
        <time>2026-04-25T10:50:40Z</time>
      </trkpt>
      <trkpt lat="59.082369804382324" lon="30.006258487701416">
        <time>2026-04-25T10:50:43Z</time>
      </trkpt>
      <trkpt lat="59.082348346710205" lon="30.006279945373535">
        <time>2026-04-25T10:50:45Z</time>
      </trkpt>
      <trkpt lat="59.082348346710205" lon="30.006301403045654">
        <time>2026-04-25T10:50:48Z</time>
      </trkpt>
      <trkpt lat="59.082348346710205" lon="30.006301403045654">
        <time>2026-04-25T10:50:50Z</time>
      </trkpt>
      <trkpt lat="59.082348346710205" lon="30.006322860717773">
        <time>2026-04-25T10:50:53Z</time>
      </trkpt>
      <trkpt lat="59.082326889038086" lon="30.006344318389893">
        <time>2026-04-25T10:50:55Z</time>
      </trkpt>
      <trkpt lat="59.082326889038086" lon="30.006365776062012">
        <time>2026-04-25T10:50:58Z</time>
      </trkpt>
      <trkpt lat="59.082326889038086" lon="30.006387233734131">
        <time>2026-04-25T10:51:00Z</time>
      </trkpt>
      <trkpt lat="59.082326889038086" lon="30.00640869140625">
        <time>2026-04-25T10:51:03Z</time>
      </trkpt>
      <trkpt lat="59.082348346710205" lon="30.006430149078369">
        <time>2026-04-25T10:51:05Z</time>
      </trkpt>
      <trkpt lat="59.082326889038086" lon="30.006451606750488">
        <time>2026-04-25T10:51:08Z</time>
      </trkpt>
      <trkpt lat="59.082348346710205" lon="30.006451606750488">
        <time>2026-04-25T10:51:10Z</time>
      </trkpt>
      <trkpt lat="59.082369804382324" lon="30.006473064422607">
        <time>2026-04-25T10:51:13Z</time>
      </trkpt>
      <trkpt lat="59.082369804382324" lon="30.006515979766846">
        <time>2026-04-25T10:51:15Z</time>
      </trkpt>
      <trkpt lat="59.082369804382324" lon="30.006515979766846">
        <time>2026-04-25T10:51:18Z</time>
      </trkpt>
      <trkpt lat="59.082369804382324" lon="30.006515979766846">
        <time>2026-04-25T10:51:20Z</time>
      </trkpt>
      <trkpt lat="59.082369804382324" lon="30.006515979766846">
        <time>2026-04-25T10:51:25Z</time>
      </trkpt>
      <trkpt lat="59.082369804382324" lon="30.006515979766846">
        <time>2026-04-25T10:51:28Z</time>
      </trkpt>
      <trkpt lat="59.082369804382324" lon="30.006515979766846">
        <time>2026-04-25T10:51:30Z</time>
      </trkpt>
      <trkpt lat="59.082369804382324" lon="30.006515979766846">
        <time>2026-04-25T10:51:33Z</time>
      </trkpt>
      <trkpt lat="59.082369804382324" lon="30.006515979766846">
        <time>2026-04-25T10:51:35Z</time>
      </trkpt>
      <trkpt lat="59.082369804382324" lon="30.006515979766846">
        <time>2026-04-25T10:51:38Z</time>
      </trkpt>
      <trkpt lat="59.082369804382324" lon="30.006515979766846">
        <time>2026-04-25T10:51:40Z</time>
      </trkpt>
      <trkpt lat="59.082369804382324" lon="30.006515979766846">
        <time>2026-04-25T10:51:43Z</time>
      </trkpt>
      <trkpt lat="59.082369804382324" lon="30.006515979766846">
        <time>2026-04-25T10:51:45Z</time>
      </trkpt>
      <trkpt lat="59.082391262054443" lon="30.006515979766846">
        <time>2026-04-25T10:51:48Z</time>
      </trkpt>
      <trkpt lat="59.082391262054443" lon="30.006515979766846">
        <time>2026-04-25T10:51:50Z</time>
      </trkpt>
      <trkpt lat="59.082391262054443" lon="30.006537437438965">
        <time>2026-04-25T10:51:53Z</time>
      </trkpt>
      <trkpt lat="59.082391262054443" lon="30.006537437438965">
        <time>2026-04-25T10:51:55Z</time>
      </trkpt>
      <trkpt lat="59.082391262054443" lon="30.006558895111084">
        <time>2026-04-25T10:51:58Z</time>
      </trkpt>
      <trkpt lat="59.082369804382324" lon="30.006623268127441">
        <time>2026-04-25T10:52:00Z</time>
      </trkpt>
      <trkpt lat="59.082369804382324" lon="30.006644725799561">
        <time>2026-04-25T10:52:03Z</time>
      </trkpt>
      <trkpt lat="59.082369804382324" lon="30.006709098815918">
        <time>2026-04-25T10:52:05Z</time>
      </trkpt>
      <trkpt lat="59.082391262054443" lon="30.006752014160156">
        <time>2026-04-25T10:52:08Z</time>
      </trkpt>
      <trkpt lat="59.082391262054443" lon="30.006773471832275">
        <time>2026-04-25T10:52:10Z</time>
      </trkpt>
      <trkpt lat="59.082391262054443" lon="30.006773471832275">
        <time>2026-04-25T10:52:13Z</time>
      </trkpt>
      <trkpt lat="59.082369804382324" lon="30.006794929504395">
        <time>2026-04-25T10:52:15Z</time>
      </trkpt>
      <trkpt lat="59.082348346710205" lon="30.006816387176514">
        <time>2026-04-25T10:52:18Z</time>
      </trkpt>
      <trkpt lat="59.082348346710205" lon="30.006816387176514">
        <time>2026-04-25T10:52:20Z</time>
      </trkpt>
      <trkpt lat="59.082348346710205" lon="30.006837844848633">
        <time>2026-04-25T10:52:23Z</time>
      </trkpt>
      <trkpt lat="59.082348346710205" lon="30.006837844848633">
        <time>2026-04-25T10:52:25Z</time>
      </trkpt>
      <trkpt lat="59.082348346710205" lon="30.006837844848633">
        <time>2026-04-25T10:52:28Z</time>
      </trkpt>
      <trkpt lat="59.082348346710205" lon="30.006837844848633">
        <time>2026-04-25T10:52:30Z</time>
      </trkpt>
      <trkpt lat="59.082348346710205" lon="30.006837844848633">
        <time>2026-04-25T10:52:33Z</time>
      </trkpt>
      <trkpt lat="59.082348346710205" lon="30.006816387176514">
        <time>2026-04-25T10:52:35Z</time>
      </trkpt>
      <trkpt lat="59.082348346710205" lon="30.006816387176514">
        <time>2026-04-25T10:52:38Z</time>
      </trkpt>
      <trkpt lat="59.082348346710205" lon="30.006816387176514">
        <time>2026-04-25T10:52:40Z</time>
      </trkpt>
      <trkpt lat="59.082348346710205" lon="30.006816387176514">
        <time>2026-04-25T10:52:43Z</time>
      </trkpt>
      <trkpt lat="59.082348346710205" lon="30.006816387176514">
        <time>2026-04-25T10:52:45Z</time>
      </trkpt>
      <trkpt lat="59.082348346710205" lon="30.006816387176514">
        <time>2026-04-25T10:52:48Z</time>
      </trkpt>
      <trkpt lat="59.082348346710205" lon="30.006816387176514">
        <time>2026-04-25T10:52:50Z</time>
      </trkpt>
      <trkpt lat="59.082348346710205" lon="30.006816387176514">
        <time>2026-04-25T10:52:53Z</time>
      </trkpt>
      <trkpt lat="59.082348346710205" lon="30.006816387176514">
        <time>2026-04-25T10:52:55Z</time>
      </trkpt>
      <trkpt lat="59.082348346710205" lon="30.006816387176514">
        <time>2026-04-25T10:52:58Z</time>
      </trkpt>
      <trkpt lat="59.082348346710205" lon="30.006837844848633">
        <time>2026-04-25T10:53:00Z</time>
      </trkpt>
      <trkpt lat="59.082348346710205" lon="30.006837844848633">
        <time>2026-04-25T10:53:03Z</time>
      </trkpt>
      <trkpt lat="59.082326889038086" lon="30.006837844848633">
        <time>2026-04-25T10:53:05Z</time>
      </trkpt>
      <trkpt lat="59.082326889038086" lon="30.006859302520752">
        <time>2026-04-25T10:53:08Z</time>
      </trkpt>
      <trkpt lat="59.082305431365967" lon="30.006880760192871">
        <time>2026-04-25T10:53:10Z</time>
      </trkpt>
      <trkpt lat="59.082305431365967" lon="30.006880760192871">
        <time>2026-04-25T10:53:13Z</time>
      </trkpt>
      <trkpt lat="59.082305431365967" lon="30.006880760192871">
        <time>2026-04-25T10:53:15Z</time>
      </trkpt>
      <trkpt lat="59.082305431365967" lon="30.00690221786499">
        <time>2026-04-25T10:53:18Z</time>
      </trkpt>
      <trkpt lat="59.082283973693848" lon="30.00690221786499">
        <time>2026-04-25T10:53:20Z</time>
      </trkpt>
      <trkpt lat="59.082283973693848" lon="30.006923675537109">
        <time>2026-04-25T10:53:23Z</time>
      </trkpt>
      <trkpt lat="59.082283973693848" lon="30.006945133209229">
        <time>2026-04-25T10:53:25Z</time>
      </trkpt>
      <trkpt lat="59.082262516021729" lon="30.006945133209229">
        <time>2026-04-25T10:53:28Z</time>
      </trkpt>
      <trkpt lat="59.082262516021729" lon="30.006945133209229">
        <time>2026-04-25T10:53:30Z</time>
      </trkpt>
      <trkpt lat="59.082262516021729" lon="30.006966590881348">
        <time>2026-04-25T10:53:33Z</time>
      </trkpt>
      <trkpt lat="59.082241058349609" lon="30.006988048553467">
        <time>2026-04-25T10:53:35Z</time>
      </trkpt>
      <trkpt lat="59.082241058349609" lon="30.006988048553467">
        <time>2026-04-25T10:53:38Z</time>
      </trkpt>
      <trkpt lat="59.08221960067749" lon="30.007009506225586">
        <time>2026-04-25T10:53:40Z</time>
      </trkpt>
      <trkpt lat="59.08221960067749" lon="30.007009506225586">
        <time>2026-04-25T10:53:43Z</time>
      </trkpt>
      <trkpt lat="59.082198143005371" lon="30.007009506225586">
        <time>2026-04-25T10:53:45Z</time>
      </trkpt>
      <trkpt lat="59.082198143005371" lon="30.007009506225586">
        <time>2026-04-25T10:53:48Z</time>
      </trkpt>
      <trkpt lat="59.082176685333252" lon="30.007030963897705">
        <time>2026-04-25T10:53:50Z</time>
      </trkpt>
      <trkpt lat="59.082176685333252" lon="30.007030963897705">
        <time>2026-04-25T10:53:53Z</time>
      </trkpt>
      <trkpt lat="59.082155227661133" lon="30.007030963897705">
        <time>2026-04-25T10:53:55Z</time>
      </trkpt>
      <trkpt lat="59.082155227661133" lon="30.007030963897705">
        <time>2026-04-25T10:53:58Z</time>
      </trkpt>
      <trkpt lat="59.082133769989014" lon="30.007052421569824">
        <time>2026-04-25T10:54:00Z</time>
      </trkpt>
      <trkpt lat="59.082133769989014" lon="30.007052421569824">
        <time>2026-04-25T10:54:03Z</time>
      </trkpt>
      <trkpt lat="59.082112312316895" lon="30.007052421569824">
        <time>2026-04-25T10:54:05Z</time>
      </trkpt>
      <trkpt lat="59.082090854644775" lon="30.007052421569824">
        <time>2026-04-25T10:54:08Z</time>
      </trkpt>
      <trkpt lat="59.082069396972656" lon="30.007052421569824">
        <time>2026-04-25T10:54:10Z</time>
      </trkpt>
      <trkpt lat="59.082047939300537" lon="30.007052421569824">
        <time>2026-04-25T10:54:13Z</time>
      </trkpt>
      <trkpt lat="59.082047939300537" lon="30.007073879241943">
        <time>2026-04-25T10:54:15Z</time>
      </trkpt>
      <trkpt lat="59.082026481628418" lon="30.007073879241943">
        <time>2026-04-25T10:54:18Z</time>
      </trkpt>
      <trkpt lat="59.082026481628418" lon="30.007073879241943">
        <time>2026-04-25T10:54:20Z</time>
      </trkpt>
      <trkpt lat="59.082026481628418" lon="30.007095336914063">
        <time>2026-04-25T10:54:23Z</time>
      </trkpt>
      <trkpt lat="59.082026481628418" lon="30.007095336914063">
        <time>2026-04-25T10:54:25Z</time>
      </trkpt>
      <trkpt lat="59.082026481628418" lon="30.007095336914063">
        <time>2026-04-25T10:54:28Z</time>
      </trkpt>
      <trkpt lat="59.082005023956299" lon="30.007095336914063">
        <time>2026-04-25T10:54:30Z</time>
      </trkpt>
      <trkpt lat="59.082005023956299" lon="30.007095336914063">
        <time>2026-04-25T10:54:33Z</time>
      </trkpt>
      <trkpt lat="59.082005023956299" lon="30.007095336914063">
        <time>2026-04-25T10:54:35Z</time>
      </trkpt>
      <trkpt lat="59.082005023956299" lon="30.007073879241943">
        <time>2026-04-25T10:54:38Z</time>
      </trkpt>
      <trkpt lat="59.082005023956299" lon="30.007073879241943">
        <time>2026-04-25T10:54:40Z</time>
      </trkpt>
      <trkpt lat="59.082005023956299" lon="30.007073879241943">
        <time>2026-04-25T10:54:43Z</time>
      </trkpt>
      <trkpt lat="59.08198356628418" lon="30.007073879241943">
        <time>2026-04-25T10:54:45Z</time>
      </trkpt>
      <trkpt lat="59.08198356628418" lon="30.007073879241943">
        <time>2026-04-25T10:54:48Z</time>
      </trkpt>
      <trkpt lat="59.08198356628418" lon="30.007073879241943">
        <time>2026-04-25T10:54:50Z</time>
      </trkpt>
      <trkpt lat="59.08198356628418" lon="30.007052421569824">
        <time>2026-04-25T10:54:53Z</time>
      </trkpt>
      <trkpt lat="59.08198356628418" lon="30.007030963897705">
        <time>2026-04-25T10:54:55Z</time>
      </trkpt>
      <trkpt lat="59.08198356628418" lon="30.007030963897705">
        <time>2026-04-25T10:54:58Z</time>
      </trkpt>
      <trkpt lat="59.08198356628418" lon="30.007030963897705">
        <time>2026-04-25T10:55:00Z</time>
      </trkpt>
      <trkpt lat="59.08198356628418" lon="30.007030963897705">
        <time>2026-04-25T10:55:03Z</time>
      </trkpt>
      <trkpt lat="59.08198356628418" lon="30.007030963897705">
        <time>2026-04-25T10:55:05Z</time>
      </trkpt>
      <trkpt lat="59.08198356628418" lon="30.007030963897705">
        <time>2026-04-25T10:55:08Z</time>
      </trkpt>
      <trkpt lat="59.08198356628418" lon="30.007030963897705">
        <time>2026-04-25T10:55:10Z</time>
      </trkpt>
      <trkpt lat="59.08198356628418" lon="30.007030963897705">
        <time>2026-04-25T10:55:13Z</time>
      </trkpt>
      <trkpt lat="59.08198356628418" lon="30.007009506225586">
        <time>2026-04-25T10:55:15Z</time>
      </trkpt>
      <trkpt lat="59.08198356628418" lon="30.007009506225586">
        <time>2026-04-25T10:55:18Z</time>
      </trkpt>
      <trkpt lat="59.08198356628418" lon="30.006988048553467">
        <time>2026-04-25T10:55:20Z</time>
      </trkpt>
      <trkpt lat="59.081962108612061" lon="30.00690221786499">
        <time>2026-04-25T10:55:23Z</time>
      </trkpt>
      <trkpt lat="59.081962108612061" lon="30.006816387176514">
        <time>2026-04-25T10:55:25Z</time>
      </trkpt>
      <trkpt lat="59.081962108612061" lon="30.006752014160156">
        <time>2026-04-25T10:55:28Z</time>
      </trkpt>
      <trkpt lat="59.081962108612061" lon="30.006687641143799">
        <time>2026-04-25T10:55:30Z</time>
      </trkpt>
      <trkpt lat="59.08198356628418" lon="30.00666618347168">
        <time>2026-04-25T10:55:33Z</time>
      </trkpt>
      <trkpt lat="59.081962108612061" lon="30.006623268127441">
        <time>2026-04-25T10:55:35Z</time>
      </trkpt>
      <trkpt lat="59.081962108612061" lon="30.006601810455322">
        <time>2026-04-25T10:55:38Z</time>
      </trkpt>
      <trkpt lat="59.081962108612061" lon="30.006558895111084">
        <time>2026-04-25T10:55:40Z</time>
      </trkpt>
      <trkpt lat="59.081962108612061" lon="30.006537437438965">
        <time>2026-04-25T10:55:43Z</time>
      </trkpt>
      <trkpt lat="59.081962108612061" lon="30.006537437438965">
        <time>2026-04-25T10:55:45Z</time>
      </trkpt>
      <trkpt lat="59.081962108612061" lon="30.006515979766846">
        <time>2026-04-25T10:55:48Z</time>
      </trkpt>
      <trkpt lat="59.081962108612061" lon="30.006473064422607">
        <time>2026-04-25T10:55:50Z</time>
      </trkpt>
      <trkpt lat="59.081940650939941" lon="30.006451606750488">
        <time>2026-04-25T10:55:53Z</time>
      </trkpt>
      <trkpt lat="59.081940650939941" lon="30.006430149078369">
        <time>2026-04-25T10:55:55Z</time>
      </trkpt>
      <trkpt lat="59.081940650939941" lon="30.00640869140625">
        <time>2026-04-25T10:55:58Z</time>
      </trkpt>
      <trkpt lat="59.081940650939941" lon="30.006387233734131">
        <time>2026-04-25T10:56:00Z</time>
      </trkpt>
      <trkpt lat="59.081940650939941" lon="30.006365776062012">
        <time>2026-04-25T10:56:03Z</time>
      </trkpt>
      <trkpt lat="59.081940650939941" lon="30.006344318389893">
        <time>2026-04-25T10:56:05Z</time>
      </trkpt>
      <trkpt lat="59.081940650939941" lon="30.006344318389893">
        <time>2026-04-25T10:56:08Z</time>
      </trkpt>
      <trkpt lat="59.081919193267822" lon="30.006322860717773">
        <time>2026-04-25T10:56:10Z</time>
      </trkpt>
      <trkpt lat="59.081919193267822" lon="30.006301403045654">
        <time>2026-04-25T10:56:13Z</time>
      </trkpt>
      <trkpt lat="59.081897735595703" lon="30.006258487701416">
        <time>2026-04-25T10:56:15Z</time>
      </trkpt>
      <trkpt lat="59.081897735595703" lon="30.006215572357178">
        <time>2026-04-25T10:56:18Z</time>
      </trkpt>
      <trkpt lat="59.081897735595703" lon="30.006194114685059">
        <time>2026-04-25T10:56:20Z</time>
      </trkpt>
      <trkpt lat="59.081897735595703" lon="30.006172657012939">
        <time>2026-04-25T10:56:23Z</time>
      </trkpt>
      <trkpt lat="59.081897735595703" lon="30.00615119934082">
        <time>2026-04-25T10:56:25Z</time>
      </trkpt>
      <trkpt lat="59.081919193267822" lon="30.006129741668701">
        <time>2026-04-25T10:56:28Z</time>
      </trkpt>
      <trkpt lat="59.081919193267822" lon="30.006108283996582">
        <time>2026-04-25T10:56:30Z</time>
      </trkpt>
      <trkpt lat="59.081919193267822" lon="30.006086826324463">
        <time>2026-04-25T10:56:33Z</time>
      </trkpt>
      <trkpt lat="59.081919193267822" lon="30.006065368652344">
        <time>2026-04-25T10:56:35Z</time>
      </trkpt>
      <trkpt lat="59.081919193267822" lon="30.006043910980225">
        <time>2026-04-25T10:56:38Z</time>
      </trkpt>
      <trkpt lat="59.081897735595703" lon="30.006000995635986">
        <time>2026-04-25T10:56:40Z</time>
      </trkpt>
      <trkpt lat="59.081876277923584" lon="30.005979537963867">
        <time>2026-04-25T10:56:43Z</time>
      </trkpt>
      <trkpt lat="59.081854820251465" lon="30.005979537963867">
        <time>2026-04-25T10:56:45Z</time>
      </trkpt>
      <trkpt lat="59.081854820251465" lon="30.005958080291748">
        <time>2026-04-25T10:56:48Z</time>
      </trkpt>
      <trkpt lat="59.081854820251465" lon="30.005936622619629">
        <time>2026-04-25T10:56:50Z</time>
      </trkpt>
      <trkpt lat="59.081854820251465" lon="30.005893707275391">
        <time>2026-04-25T10:56:53Z</time>
      </trkpt>
      <trkpt lat="59.081833362579346" lon="30.005893707275391">
        <time>2026-04-25T10:56:55Z</time>
      </trkpt>
      <trkpt lat="59.081833362579346" lon="30.005872249603271">
        <time>2026-04-25T10:56:58Z</time>
      </trkpt>
      <trkpt lat="59.081811904907227" lon="30.005829334259033">
        <time>2026-04-25T10:57:00Z</time>
      </trkpt>
      <trkpt lat="59.081833362579346" lon="30.005807876586914">
        <time>2026-04-25T10:57:03Z</time>
      </trkpt>
      <trkpt lat="59.081833362579346" lon="30.005786418914795">
        <time>2026-04-25T10:57:05Z</time>
      </trkpt>
      <trkpt lat="59.081833362579346" lon="30.005764961242676">
        <time>2026-04-25T10:57:08Z</time>
      </trkpt>
      <trkpt lat="59.081833362579346" lon="30.005722045898438">
        <time>2026-04-25T10:57:10Z</time>
      </trkpt>
      <trkpt lat="59.081811904907227" lon="30.005722045898438">
        <time>2026-04-25T10:57:13Z</time>
      </trkpt>
      <trkpt lat="59.081811904907227" lon="30.005700588226318">
        <time>2026-04-25T10:57:15Z</time>
      </trkpt>
      <trkpt lat="59.081811904907227" lon="30.005679130554199">
        <time>2026-04-25T10:57:18Z</time>
      </trkpt>
      <trkpt lat="59.081790447235107" lon="30.00565767288208">
        <time>2026-04-25T10:57:20Z</time>
      </trkpt>
      <trkpt lat="59.081790447235107" lon="30.005614757537842">
        <time>2026-04-25T10:57:23Z</time>
      </trkpt>
      <trkpt lat="59.081790447235107" lon="30.005593299865723">
        <time>2026-04-25T10:57:25Z</time>
      </trkpt>
      <trkpt lat="59.081790447235107" lon="30.005571842193604">
        <time>2026-04-25T10:57:28Z</time>
      </trkpt>
      <trkpt lat="59.081790447235107" lon="30.005571842193604">
        <time>2026-04-25T10:57:30Z</time>
      </trkpt>
      <trkpt lat="59.081790447235107" lon="30.005550384521484">
        <time>2026-04-25T10:57:33Z</time>
      </trkpt>
      <trkpt lat="59.081811904907227" lon="30.005507469177246">
        <time>2026-04-25T10:57:35Z</time>
      </trkpt>
      <trkpt lat="59.081811904907227" lon="30.005486011505127">
        <time>2026-04-25T10:57:38Z</time>
      </trkpt>
      <trkpt lat="59.081811904907227" lon="30.005464553833008">
        <time>2026-04-25T10:57:40Z</time>
      </trkpt>
      <trkpt lat="59.081811904907227" lon="30.005443096160889">
        <time>2026-04-25T10:57:43Z</time>
      </trkpt>
      <trkpt lat="59.081811904907227" lon="30.00540018081665">
        <time>2026-04-25T10:57:45Z</time>
      </trkpt>
      <trkpt lat="59.081811904907227" lon="30.00540018081665">
        <time>2026-04-25T10:57:48Z</time>
      </trkpt>
      <trkpt lat="59.081833362579346" lon="30.00540018081665">
        <time>2026-04-25T10:57:50Z</time>
      </trkpt>
      <trkpt lat="59.081833362579346" lon="30.00540018081665">
        <time>2026-04-25T10:57:53Z</time>
      </trkpt>
      <trkpt lat="59.081811904907227" lon="30.00540018081665">
        <time>2026-04-25T10:57:55Z</time>
      </trkpt>
      <trkpt lat="59.081811904907227" lon="30.00540018081665">
        <time>2026-04-25T10:57:58Z</time>
      </trkpt>
      <trkpt lat="59.081811904907227" lon="30.00540018081665">
        <time>2026-04-25T10:58:00Z</time>
      </trkpt>
      <trkpt lat="59.081811904907227" lon="30.00540018081665">
        <time>2026-04-25T10:58:03Z</time>
      </trkpt>
      <trkpt lat="59.081811904907227" lon="30.00540018081665">
        <time>2026-04-25T10:58:05Z</time>
      </trkpt>
      <trkpt lat="59.081811904907227" lon="30.00540018081665">
        <time>2026-04-25T10:58:08Z</time>
      </trkpt>
      <trkpt lat="59.081811904907227" lon="30.00540018081665">
        <time>2026-04-25T10:58:10Z</time>
      </trkpt>
      <trkpt lat="59.081811904907227" lon="30.00540018081665">
        <time>2026-04-25T10:58:13Z</time>
      </trkpt>
      <trkpt lat="59.081811904907227" lon="30.00540018081665">
        <time>2026-04-25T10:58:15Z</time>
      </trkpt>
      <trkpt lat="59.081811904907227" lon="30.00542163848877">
        <time>2026-04-25T10:58:18Z</time>
      </trkpt>
      <trkpt lat="59.081811904907227" lon="30.00542163848877">
        <time>2026-04-25T10:58:20Z</time>
      </trkpt>
      <trkpt lat="59.081811904907227" lon="30.00542163848877">
        <time>2026-04-25T10:58:23Z</time>
      </trkpt>
      <trkpt lat="59.081790447235107" lon="30.005443096160889">
        <time>2026-04-25T10:58:25Z</time>
      </trkpt>
      <trkpt lat="59.081768989562988" lon="30.005464553833008">
        <time>2026-04-25T10:58:28Z</time>
      </trkpt>
      <trkpt lat="59.081768989562988" lon="30.005464553833008">
        <time>2026-04-25T10:58:30Z</time>
      </trkpt>
      <trkpt lat="59.081790447235107" lon="30.005443096160889">
        <time>2026-04-25T10:58:33Z</time>
      </trkpt>
      <trkpt lat="59.081811904907227" lon="30.00540018081665">
        <time>2026-04-25T10:58:35Z</time>
      </trkpt>
      <trkpt lat="59.081811904907227" lon="30.005378723144531">
        <time>2026-04-25T10:58:38Z</time>
      </trkpt>
      <trkpt lat="59.081833362579346" lon="30.005335807800293">
        <time>2026-04-25T10:58:40Z</time>
      </trkpt>
      <trkpt lat="59.081833362579346" lon="30.005314350128174">
        <time>2026-04-25T10:58:43Z</time>
      </trkpt>
      <trkpt lat="59.081833362579346" lon="30.005314350128174">
        <time>2026-04-25T10:58:45Z</time>
      </trkpt>
      <trkpt lat="59.081833362579346" lon="30.005292892456055">
        <time>2026-04-25T10:58:48Z</time>
      </trkpt>
      <trkpt lat="59.081833362579346" lon="30.005271434783936">
        <time>2026-04-25T10:58:50Z</time>
      </trkpt>
      <trkpt lat="59.081833362579346" lon="30.005249977111816">
        <time>2026-04-25T10:58:53Z</time>
      </trkpt>
      <trkpt lat="59.081833362579346" lon="30.005228519439697">
        <time>2026-04-25T10:58:55Z</time>
      </trkpt>
      <trkpt lat="59.081833362579346" lon="30.005185604095459">
        <time>2026-04-25T10:58:58Z</time>
      </trkpt>
      <trkpt lat="59.081833362579346" lon="30.005185604095459">
        <time>2026-04-25T10:59:00Z</time>
      </trkpt>
      <trkpt lat="59.081833362579346" lon="30.005185604095459">
        <time>2026-04-25T10:59:03Z</time>
      </trkpt>
      <trkpt lat="59.081833362579346" lon="30.005185604095459">
        <time>2026-04-25T10:59:05Z</time>
      </trkpt>
      <trkpt lat="59.081833362579346" lon="30.00516414642334">
        <time>2026-04-25T10:59:08Z</time>
      </trkpt>
      <trkpt lat="59.081833362579346" lon="30.00516414642334">
        <time>2026-04-25T10:59:10Z</time>
      </trkpt>
      <trkpt lat="59.081811904907227" lon="30.00516414642334">
        <time>2026-04-25T10:59:13Z</time>
      </trkpt>
      <trkpt lat="59.081811904907227" lon="30.005185604095459">
        <time>2026-04-25T10:59:15Z</time>
      </trkpt>
      <trkpt lat="59.081811904907227" lon="30.005185604095459">
        <time>2026-04-25T10:59:18Z</time>
      </trkpt>
      <trkpt lat="59.081811904907227" lon="30.005185604095459">
        <time>2026-04-25T10:59:20Z</time>
      </trkpt>
      <trkpt lat="59.081811904907227" lon="30.005185604095459">
        <time>2026-04-25T10:59:23Z</time>
      </trkpt>
      <trkpt lat="59.081811904907227" lon="30.005185604095459">
        <time>2026-04-25T10:59:25Z</time>
      </trkpt>
      <trkpt lat="59.081811904907227" lon="30.005185604095459">
        <time>2026-04-25T10:59:28Z</time>
      </trkpt>
      <trkpt lat="59.081811904907227" lon="30.005185604095459">
        <time>2026-04-25T10:59:30Z</time>
      </trkpt>
      <trkpt lat="59.081811904907227" lon="30.005185604095459">
        <time>2026-04-25T10:59:33Z</time>
      </trkpt>
      <trkpt lat="59.081811904907227" lon="30.00516414642334">
        <time>2026-04-25T10:59:35Z</time>
      </trkpt>
      <trkpt lat="59.081811904907227" lon="30.00516414642334">
        <time>2026-04-25T10:59:38Z</time>
      </trkpt>
      <trkpt lat="59.081811904907227" lon="30.00516414642334">
        <time>2026-04-25T10:59:40Z</time>
      </trkpt>
      <trkpt lat="59.081811904907227" lon="30.00516414642334">
        <time>2026-04-25T10:59:43Z</time>
      </trkpt>
      <trkpt lat="59.081811904907227" lon="30.00516414642334">
        <time>2026-04-25T10:59:45Z</time>
      </trkpt>
      <trkpt lat="59.081811904907227" lon="30.00516414642334">
        <time>2026-04-25T10:59:48Z</time>
      </trkpt>
      <trkpt lat="59.081790447235107" lon="30.00516414642334">
        <time>2026-04-25T10:59:50Z</time>
      </trkpt>
      <trkpt lat="59.081790447235107" lon="30.00516414642334">
        <time>2026-04-25T10:59:53Z</time>
      </trkpt>
      <trkpt lat="59.081790447235107" lon="30.00516414642334">
        <time>2026-04-25T10:59:55Z</time>
      </trkpt>
      <trkpt lat="59.081790447235107" lon="30.00516414642334">
        <time>2026-04-25T10:59:58Z</time>
      </trkpt>
      <trkpt lat="59.081790447235107" lon="30.00516414642334">
        <time>2026-04-25T11:00:00Z</time>
      </trkpt>
      <trkpt lat="59.081790447235107" lon="30.00516414642334">
        <time>2026-04-25T11:00:03Z</time>
      </trkpt>
      <trkpt lat="59.081790447235107" lon="30.00516414642334">
        <time>2026-04-25T11:00:05Z</time>
      </trkpt>
      <trkpt lat="59.081768989562988" lon="30.00516414642334">
        <time>2026-04-25T11:00:08Z</time>
      </trkpt>
      <trkpt lat="59.081768989562988" lon="30.00516414642334">
        <time>2026-04-25T11:00:10Z</time>
      </trkpt>
      <trkpt lat="59.081768989562988" lon="30.005142688751221">
        <time>2026-04-25T11:00:13Z</time>
      </trkpt>
      <trkpt lat="59.081768989562988" lon="30.005142688751221">
        <time>2026-04-25T11:00:15Z</time>
      </trkpt>
      <trkpt lat="59.081768989562988" lon="30.005121231079102">
        <time>2026-04-25T11:00:18Z</time>
      </trkpt>
      <trkpt lat="59.081768989562988" lon="30.005099773406982">
        <time>2026-04-25T11:00:20Z</time>
      </trkpt>
      <trkpt lat="59.081768989562988" lon="30.005078315734863">
        <time>2026-04-25T11:00:23Z</time>
      </trkpt>
      <trkpt lat="59.081768989562988" lon="30.005056858062744">
        <time>2026-04-25T11:00:25Z</time>
      </trkpt>
      <trkpt lat="59.081768989562988" lon="30.005056858062744">
        <time>2026-04-25T11:00:28Z</time>
      </trkpt>
      <trkpt lat="59.081768989562988" lon="30.005056858062744">
        <time>2026-04-25T11:00:30Z</time>
      </trkpt>
      <trkpt lat="59.081768989562988" lon="30.005056858062744">
        <time>2026-04-25T11:00:33Z</time>
      </trkpt>
      <trkpt lat="59.081768989562988" lon="30.005056858062744">
        <time>2026-04-25T11:00:35Z</time>
      </trkpt>
      <trkpt lat="59.081768989562988" lon="30.005056858062744">
        <time>2026-04-25T11:00:38Z</time>
      </trkpt>
      <trkpt lat="59.081768989562988" lon="30.005056858062744">
        <time>2026-04-25T11:00:40Z</time>
      </trkpt>
      <trkpt lat="59.081768989562988" lon="30.005056858062744">
        <time>2026-04-25T11:00:43Z</time>
      </trkpt>
      <trkpt lat="59.081747531890869" lon="30.005056858062744">
        <time>2026-04-25T11:00:45Z</time>
      </trkpt>
      <trkpt lat="59.081747531890869" lon="30.005056858062744">
        <time>2026-04-25T11:00:48Z</time>
      </trkpt>
      <trkpt lat="59.081747531890869" lon="30.005056858062744">
        <time>2026-04-25T11:00:50Z</time>
      </trkpt>
      <trkpt lat="59.081747531890869" lon="30.005056858062744">
        <time>2026-04-25T11:00:53Z</time>
      </trkpt>
      <trkpt lat="59.081747531890869" lon="30.005056858062744">
        <time>2026-04-25T11:00:55Z</time>
      </trkpt>
      <trkpt lat="59.081747531890869" lon="30.005035400390625">
        <time>2026-04-25T11:00:58Z</time>
      </trkpt>
      <trkpt lat="59.081747531890869" lon="30.005013942718506">
        <time>2026-04-25T11:01:00Z</time>
      </trkpt>
      <trkpt lat="59.081747531890869" lon="30.005013942718506">
        <time>2026-04-25T11:01:03Z</time>
      </trkpt>
      <trkpt lat="59.081747531890869" lon="30.004992485046387">
        <time>2026-04-25T11:01:05Z</time>
      </trkpt>
      <trkpt lat="59.081747531890869" lon="30.004971027374268">
        <time>2026-04-25T11:01:08Z</time>
      </trkpt>
      <trkpt lat="59.08172607421875" lon="30.004949569702148">
        <time>2026-04-25T11:01:10Z</time>
      </trkpt>
      <trkpt lat="59.081704616546631" lon="30.004949569702148">
        <time>2026-04-25T11:01:13Z</time>
      </trkpt>
      <trkpt lat="59.081683158874512" lon="30.004928112030029">
        <time>2026-04-25T11:01:15Z</time>
      </trkpt>
      <trkpt lat="59.081661701202393" lon="30.004928112030029">
        <time>2026-04-25T11:01:18Z</time>
      </trkpt>
      <trkpt lat="59.081661701202393" lon="30.004928112030029">
        <time>2026-04-25T11:01:20Z</time>
      </trkpt>
      <trkpt lat="59.081661701202393" lon="30.004928112030029">
        <time>2026-04-25T11:01:23Z</time>
      </trkpt>
      <trkpt lat="59.081640243530273" lon="30.004928112030029">
        <time>2026-04-25T11:01:25Z</time>
      </trkpt>
      <trkpt lat="59.081640243530273" lon="30.004949569702148">
        <time>2026-04-25T11:01:28Z</time>
      </trkpt>
      <trkpt lat="59.081618785858154" lon="30.004992485046387">
        <time>2026-04-25T11:01:30Z</time>
      </trkpt>
      <trkpt lat="59.081597328186035" lon="30.005035400390625">
        <time>2026-04-25T11:01:33Z</time>
      </trkpt>
      <trkpt lat="59.081597328186035" lon="30.005035400390625">
        <time>2026-04-25T11:01:35Z</time>
      </trkpt>
      <trkpt lat="59.081575870513916" lon="30.005056858062744">
        <time>2026-04-25T11:01:38Z</time>
      </trkpt>
      <trkpt lat="59.081575870513916" lon="30.005078315734863">
        <time>2026-04-25T11:01:40Z</time>
      </trkpt>
      <trkpt lat="59.081575870513916" lon="30.005099773406982">
        <time>2026-04-25T11:01:43Z</time>
      </trkpt>
      <trkpt lat="59.081554412841797" lon="30.005142688751221">
        <time>2026-04-25T11:01:45Z</time>
      </trkpt>
      <trkpt lat="59.081554412841797" lon="30.00516414642334">
        <time>2026-04-25T11:01:48Z</time>
      </trkpt>
      <trkpt lat="59.081554412841797" lon="30.005185604095459">
        <time>2026-04-25T11:01:50Z</time>
      </trkpt>
      <trkpt lat="59.081554412841797" lon="30.005207061767578">
        <time>2026-04-25T11:01:53Z</time>
      </trkpt>
      <trkpt lat="59.081554412841797" lon="30.005185604095459">
        <time>2026-04-25T11:01:55Z</time>
      </trkpt>
      <trkpt lat="59.081554412841797" lon="30.005185604095459">
        <time>2026-04-25T11:01:58Z</time>
      </trkpt>
      <trkpt lat="59.081554412841797" lon="30.005207061767578">
        <time>2026-04-25T11:02:00Z</time>
      </trkpt>
      <trkpt lat="59.081532955169678" lon="30.005228519439697">
        <time>2026-04-25T11:02:03Z</time>
      </trkpt>
      <trkpt lat="59.081532955169678" lon="30.005271434783936">
        <time>2026-04-25T11:02:05Z</time>
      </trkpt>
      <trkpt lat="59.081532955169678" lon="30.005292892456055">
        <time>2026-04-25T11:02:08Z</time>
      </trkpt>
      <trkpt lat="59.081490039825439" lon="30.005335807800293">
        <time>2026-04-25T11:02:10Z</time>
      </trkpt>
      <trkpt lat="59.081490039825439" lon="30.005335807800293">
        <time>2026-04-25T11:02:13Z</time>
      </trkpt>
      <trkpt lat="59.081490039825439" lon="30.005378723144531">
        <time>2026-04-25T11:02:15Z</time>
      </trkpt>
      <trkpt lat="59.081490039825439" lon="30.00540018081665">
        <time>2026-04-25T11:02:18Z</time>
      </trkpt>
      <trkpt lat="59.081490039825439" lon="30.00542163848877">
        <time>2026-04-25T11:02:20Z</time>
      </trkpt>
      <trkpt lat="59.08146858215332" lon="30.00542163848877">
        <time>2026-04-25T11:02:23Z</time>
      </trkpt>
      <trkpt lat="59.08146858215332" lon="30.005443096160889">
        <time>2026-04-25T11:02:25Z</time>
      </trkpt>
      <trkpt lat="59.08146858215332" lon="30.005443096160889">
        <time>2026-04-25T11:02:28Z</time>
      </trkpt>
      <trkpt lat="59.08146858215332" lon="30.005464553833008">
        <time>2026-04-25T11:02:30Z</time>
      </trkpt>
      <trkpt lat="59.08146858215332" lon="30.005464553833008">
        <time>2026-04-25T11:02:33Z</time>
      </trkpt>
      <trkpt lat="59.08146858215332" lon="30.005443096160889">
        <time>2026-04-25T11:02:35Z</time>
      </trkpt>
      <trkpt lat="59.081447124481201" lon="30.005443096160889">
        <time>2026-04-25T11:02:38Z</time>
      </trkpt>
      <trkpt lat="59.08146858215332" lon="30.005443096160889">
        <time>2026-04-25T11:02:40Z</time>
      </trkpt>
      <trkpt lat="59.08146858215332" lon="30.005443096160889">
        <time>2026-04-25T11:02:43Z</time>
      </trkpt>
      <trkpt lat="59.08146858215332" lon="30.005443096160889">
        <time>2026-04-25T11:02:45Z</time>
      </trkpt>
      <trkpt lat="59.08146858215332" lon="30.005443096160889">
        <time>2026-04-25T11:02:48Z</time>
      </trkpt>
      <trkpt lat="59.08146858215332" lon="30.005443096160889">
        <time>2026-04-25T11:02:50Z</time>
      </trkpt>
      <trkpt lat="59.08146858215332" lon="30.005443096160889">
        <time>2026-04-25T11:02:53Z</time>
      </trkpt>
      <trkpt lat="59.081447124481201" lon="30.005464553833008">
        <time>2026-04-25T11:02:55Z</time>
      </trkpt>
      <trkpt lat="59.081447124481201" lon="30.005464553833008">
        <time>2026-04-25T11:02:58Z</time>
      </trkpt>
      <trkpt lat="59.081447124481201" lon="30.005464553833008">
        <time>2026-04-25T11:03:00Z</time>
      </trkpt>
      <trkpt lat="59.081447124481201" lon="30.005464553833008">
        <time>2026-04-25T11:03:03Z</time>
      </trkpt>
      <trkpt lat="59.081447124481201" lon="30.005464553833008">
        <time>2026-04-25T11:03:05Z</time>
      </trkpt>
      <trkpt lat="59.081447124481201" lon="30.005464553833008">
        <time>2026-04-25T11:03:08Z</time>
      </trkpt>
      <trkpt lat="59.081447124481201" lon="30.005486011505127">
        <time>2026-04-25T11:03:10Z</time>
      </trkpt>
      <trkpt lat="59.081447124481201" lon="30.005486011505127">
        <time>2026-04-25T11:03:13Z</time>
      </trkpt>
      <trkpt lat="59.081447124481201" lon="30.005486011505127">
        <time>2026-04-25T11:03:15Z</time>
      </trkpt>
      <trkpt lat="59.081447124481201" lon="30.005486011505127">
        <time>2026-04-25T11:03:18Z</time>
      </trkpt>
      <trkpt lat="59.081447124481201" lon="30.005486011505127">
        <time>2026-04-25T11:03:20Z</time>
      </trkpt>
      <trkpt lat="59.081447124481201" lon="30.005486011505127">
        <time>2026-04-25T11:03:23Z</time>
      </trkpt>
      <trkpt lat="59.081447124481201" lon="30.005486011505127">
        <time>2026-04-25T11:03:25Z</time>
      </trkpt>
      <trkpt lat="59.081447124481201" lon="30.005486011505127">
        <time>2026-04-25T11:03:28Z</time>
      </trkpt>
      <trkpt lat="59.081447124481201" lon="30.005507469177246">
        <time>2026-04-25T11:03:30Z</time>
      </trkpt>
      <trkpt lat="59.081447124481201" lon="30.005507469177246">
        <time>2026-04-25T11:03:33Z</time>
      </trkpt>
      <trkpt lat="59.081447124481201" lon="30.005550384521484">
        <time>2026-04-25T11:03:35Z</time>
      </trkpt>
      <trkpt lat="59.081425666809082" lon="30.005571842193604">
        <time>2026-04-25T11:03:38Z</time>
      </trkpt>
      <trkpt lat="59.081425666809082" lon="30.005593299865723">
        <time>2026-04-25T11:03:40Z</time>
      </trkpt>
      <trkpt lat="59.081425666809082" lon="30.005593299865723">
        <time>2026-04-25T11:03:43Z</time>
      </trkpt>
      <trkpt lat="59.081425666809082" lon="30.005593299865723">
        <time>2026-04-25T11:03:45Z</time>
      </trkpt>
      <trkpt lat="59.081425666809082" lon="30.005593299865723">
        <time>2026-04-25T11:03:48Z</time>
      </trkpt>
      <trkpt lat="59.081425666809082" lon="30.005593299865723">
        <time>2026-04-25T11:03:50Z</time>
      </trkpt>
      <trkpt lat="59.081425666809082" lon="30.005593299865723">
        <time>2026-04-25T11:03:53Z</time>
      </trkpt>
      <trkpt lat="59.081425666809082" lon="30.005593299865723">
        <time>2026-04-25T11:03:55Z</time>
      </trkpt>
      <trkpt lat="59.081425666809082" lon="30.005593299865723">
        <time>2026-04-25T11:03:58Z</time>
      </trkpt>
      <trkpt lat="59.081425666809082" lon="30.005593299865723">
        <time>2026-04-25T11:04:00Z</time>
      </trkpt>
      <trkpt lat="59.081425666809082" lon="30.005636215209961">
        <time>2026-04-25T11:04:03Z</time>
      </trkpt>
      <trkpt lat="59.081447124481201" lon="30.005700588226318">
        <time>2026-04-25T11:04:05Z</time>
      </trkpt>
      <trkpt lat="59.081447124481201" lon="30.005764961242676">
        <time>2026-04-25T11:04:08Z</time>
      </trkpt>
      <trkpt lat="59.081425666809082" lon="30.005850791931152">
        <time>2026-04-25T11:04:10Z</time>
      </trkpt>
      <trkpt lat="59.081425666809082" lon="30.005872249603271">
        <time>2026-04-25T11:04:13Z</time>
      </trkpt>
      <trkpt lat="59.081425666809082" lon="30.005893707275391">
        <time>2026-04-25T11:04:15Z</time>
      </trkpt>
      <trkpt lat="59.081425666809082" lon="30.005893707275391">
        <time>2026-04-25T11:04:18Z</time>
      </trkpt>
      <trkpt lat="59.081425666809082" lon="30.00591516494751">
        <time>2026-04-25T11:04:20Z</time>
      </trkpt>
      <trkpt lat="59.081404209136963" lon="30.005936622619629">
        <time>2026-04-25T11:04:23Z</time>
      </trkpt>
      <trkpt lat="59.081404209136963" lon="30.005979537963867">
        <time>2026-04-25T11:04:25Z</time>
      </trkpt>
      <trkpt lat="59.081404209136963" lon="30.006000995635986">
        <time>2026-04-25T11:04:28Z</time>
      </trkpt>
      <trkpt lat="59.081404209136963" lon="30.006022453308105">
        <time>2026-04-25T11:04:30Z</time>
      </trkpt>
      <trkpt lat="59.081382751464844" lon="30.006022453308105">
        <time>2026-04-25T11:04:33Z</time>
      </trkpt>
      <trkpt lat="59.081404209136963" lon="30.006022453308105">
        <time>2026-04-25T11:04:35Z</time>
      </trkpt>
      <trkpt lat="59.081404209136963" lon="30.006022453308105">
        <time>2026-04-25T11:04:38Z</time>
      </trkpt>
      <trkpt lat="59.081404209136963" lon="30.006022453308105">
        <time>2026-04-25T11:04:40Z</time>
      </trkpt>
      <trkpt lat="59.081425666809082" lon="30.006022453308105">
        <time>2026-04-25T11:04:43Z</time>
      </trkpt>
      <trkpt lat="59.081404209136963" lon="30.006043910980225">
        <time>2026-04-25T11:04:45Z</time>
      </trkpt>
      <trkpt lat="59.081404209136963" lon="30.006043910980225">
        <time>2026-04-25T11:04:48Z</time>
      </trkpt>
      <trkpt lat="59.081382751464844" lon="30.006086826324463">
        <time>2026-04-25T11:04:50Z</time>
      </trkpt>
      <trkpt lat="59.081382751464844" lon="30.006108283996582">
        <time>2026-04-25T11:04:53Z</time>
      </trkpt>
      <trkpt lat="59.081361293792725" lon="30.00615119934082">
        <time>2026-04-25T11:04:55Z</time>
      </trkpt>
      <trkpt lat="59.081361293792725" lon="30.006172657012939">
        <time>2026-04-25T11:04:58Z</time>
      </trkpt>
      <trkpt lat="59.081361293792725" lon="30.006172657012939">
        <time>2026-04-25T11:05:00Z</time>
      </trkpt>
      <trkpt lat="59.081361293792725" lon="30.006172657012939">
        <time>2026-04-25T11:05:03Z</time>
      </trkpt>
      <trkpt lat="59.081361293792725" lon="30.006215572357178">
        <time>2026-04-25T11:05:05Z</time>
      </trkpt>
      <trkpt lat="59.081382751464844" lon="30.006237030029297">
        <time>2026-04-25T11:05:08Z</time>
      </trkpt>
      <trkpt lat="59.081361293792725" lon="30.006301403045654">
        <time>2026-04-25T11:05:10Z</time>
      </trkpt>
      <trkpt lat="59.081361293792725" lon="30.006322860717773">
        <time>2026-04-25T11:05:13Z</time>
      </trkpt>
      <trkpt lat="59.081361293792725" lon="30.006344318389893">
        <time>2026-04-25T11:05:15Z</time>
      </trkpt>
      <trkpt lat="59.081339836120605" lon="30.006365776062012">
        <time>2026-04-25T11:05:18Z</time>
      </trkpt>
      <trkpt lat="59.081318378448486" lon="30.006387233734131">
        <time>2026-04-25T11:05:20Z</time>
      </trkpt>
      <trkpt lat="59.081318378448486" lon="30.006387233734131">
        <time>2026-04-25T11:05:23Z</time>
      </trkpt>
      <trkpt lat="59.081339836120605" lon="30.006365776062012">
        <time>2026-04-25T11:05:25Z</time>
      </trkpt>
      <trkpt lat="59.081361293792725" lon="30.006365776062012">
        <time>2026-04-25T11:05:28Z</time>
      </trkpt>
      <trkpt lat="59.081382751464844" lon="30.006365776062012">
        <time>2026-04-25T11:05:30Z</time>
      </trkpt>
      <trkpt lat="59.081404209136963" lon="30.006344318389893">
        <time>2026-04-25T11:05:33Z</time>
      </trkpt>
      <trkpt lat="59.081425666809082" lon="30.006344318389893">
        <time>2026-04-25T11:05:35Z</time>
      </trkpt>
      <trkpt lat="59.081425666809082" lon="30.006344318389893">
        <time>2026-04-25T11:05:38Z</time>
      </trkpt>
      <trkpt lat="59.081447124481201" lon="30.006344318389893">
        <time>2026-04-25T11:05:40Z</time>
      </trkpt>
      <trkpt lat="59.08146858215332" lon="30.006365776062012">
        <time>2026-04-25T11:05:43Z</time>
      </trkpt>
      <trkpt lat="59.081490039825439" lon="30.006365776062012">
        <time>2026-04-25T11:05:45Z</time>
      </trkpt>
      <trkpt lat="59.08146858215332" lon="30.006344318389893">
        <time>2026-04-25T11:05:48Z</time>
      </trkpt>
      <trkpt lat="59.081490039825439" lon="30.006365776062012">
        <time>2026-04-25T11:05:50Z</time>
      </trkpt>
      <trkpt lat="59.081490039825439" lon="30.006387233734131">
        <time>2026-04-25T11:05:53Z</time>
      </trkpt>
      <trkpt lat="59.081490039825439" lon="30.006365776062012">
        <time>2026-04-25T11:05:55Z</time>
      </trkpt>
      <trkpt lat="59.081490039825439" lon="30.006365776062012">
        <time>2026-04-25T11:05:58Z</time>
      </trkpt>
      <trkpt lat="59.081490039825439" lon="30.006365776062012">
        <time>2026-04-25T11:06:00Z</time>
      </trkpt>
      <trkpt lat="59.081490039825439" lon="30.006365776062012">
        <time>2026-04-25T11:06:03Z</time>
      </trkpt>
      <trkpt lat="59.081490039825439" lon="30.006365776062012">
        <time>2026-04-25T11:06:05Z</time>
      </trkpt>
      <trkpt lat="59.081490039825439" lon="30.006365776062012">
        <time>2026-04-25T11:06:08Z</time>
      </trkpt>
      <trkpt lat="59.081490039825439" lon="30.006365776062012">
        <time>2026-04-25T11:06:10Z</time>
      </trkpt>
      <trkpt lat="59.081490039825439" lon="30.006365776062012">
        <time>2026-04-25T11:06:13Z</time>
      </trkpt>
      <trkpt lat="59.081490039825439" lon="30.006387233734131">
        <time>2026-04-25T11:06:15Z</time>
      </trkpt>
      <trkpt lat="59.081490039825439" lon="30.006387233734131">
        <time>2026-04-25T11:06:18Z</time>
      </trkpt>
      <trkpt lat="59.081490039825439" lon="30.00640869140625">
        <time>2026-04-25T11:06:20Z</time>
      </trkpt>
      <trkpt lat="59.08146858215332" lon="30.006430149078369">
        <time>2026-04-25T11:06:23Z</time>
      </trkpt>
      <trkpt lat="59.08146858215332" lon="30.006430149078369">
        <time>2026-04-25T11:06:25Z</time>
      </trkpt>
      <trkpt lat="59.081447124481201" lon="30.006451606750488">
        <time>2026-04-25T11:06:28Z</time>
      </trkpt>
      <trkpt lat="59.081447124481201" lon="30.006451606750488">
        <time>2026-04-25T11:06:30Z</time>
      </trkpt>
      <trkpt lat="59.081447124481201" lon="30.006473064422607">
        <time>2026-04-25T11:06:33Z</time>
      </trkpt>
      <trkpt lat="59.081447124481201" lon="30.006494522094727">
        <time>2026-04-25T11:06:35Z</time>
      </trkpt>
      <trkpt lat="59.081447124481201" lon="30.006515979766846">
        <time>2026-04-25T11:06:38Z</time>
      </trkpt>
      <trkpt lat="59.081447124481201" lon="30.006558895111084">
        <time>2026-04-25T11:06:40Z</time>
      </trkpt>
      <trkpt lat="59.08146858215332" lon="30.006623268127441">
        <time>2026-04-25T11:06:43Z</time>
      </trkpt>
      <trkpt lat="59.08146858215332" lon="30.00666618347168">
        <time>2026-04-25T11:06:45Z</time>
      </trkpt>
      <trkpt lat="59.08146858215332" lon="30.006730556488037">
        <time>2026-04-25T11:06:48Z</time>
      </trkpt>
      <trkpt lat="59.08146858215332" lon="30.006837844848633">
        <time>2026-04-25T11:06:50Z</time>
      </trkpt>
      <trkpt lat="59.081490039825439" lon="30.006880760192871">
        <time>2026-04-25T11:06:53Z</time>
      </trkpt>
      <trkpt lat="59.08146858215332" lon="30.006923675537109">
        <time>2026-04-25T11:06:55Z</time>
      </trkpt>
      <trkpt lat="59.08146858215332" lon="30.006966590881348">
        <time>2026-04-25T11:06:58Z</time>
      </trkpt>
      <trkpt lat="59.081490039825439" lon="30.007009506225586">
        <time>2026-04-25T11:07:00Z</time>
      </trkpt>
      <trkpt lat="59.081490039825439" lon="30.007030963897705">
        <time>2026-04-25T11:07:03Z</time>
      </trkpt>
      <trkpt lat="59.081490039825439" lon="30.007052421569824">
        <time>2026-04-25T11:07:05Z</time>
      </trkpt>
      <trkpt lat="59.081490039825439" lon="30.007052421569824">
        <time>2026-04-25T11:07:08Z</time>
      </trkpt>
      <trkpt lat="59.081490039825439" lon="30.007073879241943">
        <time>2026-04-25T11:07:10Z</time>
      </trkpt>
      <trkpt lat="59.081490039825439" lon="30.007073879241943">
        <time>2026-04-25T11:07:13Z</time>
      </trkpt>
      <trkpt lat="59.081511497497559" lon="30.007052421569824">
        <time>2026-04-25T11:07:15Z</time>
      </trkpt>
      <trkpt lat="59.081532955169678" lon="30.007052421569824">
        <time>2026-04-25T11:07:18Z</time>
      </trkpt>
      <trkpt lat="59.081511497497559" lon="30.007073879241943">
        <time>2026-04-25T11:07:20Z</time>
      </trkpt>
      <trkpt lat="59.081511497497559" lon="30.007073879241943">
        <time>2026-04-25T11:07:23Z</time>
      </trkpt>
      <trkpt lat="59.081511497497559" lon="30.007073879241943">
        <time>2026-04-25T11:07:25Z</time>
      </trkpt>
      <trkpt lat="59.081511497497559" lon="30.007073879241943">
        <time>2026-04-25T11:07:28Z</time>
      </trkpt>
      <trkpt lat="59.081511497497559" lon="30.007073879241943">
        <time>2026-04-25T11:07:30Z</time>
      </trkpt>
      <trkpt lat="59.081511497497559" lon="30.007073879241943">
        <time>2026-04-25T11:07:33Z</time>
      </trkpt>
      <trkpt lat="59.081511497497559" lon="30.007073879241943">
        <time>2026-04-25T11:07:35Z</time>
      </trkpt>
      <trkpt lat="59.081511497497559" lon="30.007073879241943">
        <time>2026-04-25T11:07:38Z</time>
      </trkpt>
      <trkpt lat="59.081532955169678" lon="30.007073879241943">
        <time>2026-04-25T11:07:40Z</time>
      </trkpt>
      <trkpt lat="59.081532955169678" lon="30.007073879241943">
        <time>2026-04-25T11:07:43Z</time>
      </trkpt>
      <trkpt lat="59.081532955169678" lon="30.007073879241943">
        <time>2026-04-25T11:07:45Z</time>
      </trkpt>
      <trkpt lat="59.081532955169678" lon="30.007073879241943">
        <time>2026-04-25T11:07:48Z</time>
      </trkpt>
      <trkpt lat="59.081532955169678" lon="30.007095336914063">
        <time>2026-04-25T11:07:50Z</time>
      </trkpt>
      <trkpt lat="59.081532955169678" lon="30.007095336914063">
        <time>2026-04-25T11:07:53Z</time>
      </trkpt>
      <trkpt lat="59.081532955169678" lon="30.007095336914063">
        <time>2026-04-25T11:07:55Z</time>
      </trkpt>
      <trkpt lat="59.081532955169678" lon="30.007095336914063">
        <time>2026-04-25T11:07:58Z</time>
      </trkpt>
      <trkpt lat="59.081532955169678" lon="30.007095336914063">
        <time>2026-04-25T11:08:00Z</time>
      </trkpt>
      <trkpt lat="59.081532955169678" lon="30.007095336914063">
        <time>2026-04-25T11:08:03Z</time>
      </trkpt>
      <trkpt lat="59.081532955169678" lon="30.007095336914063">
        <time>2026-04-25T11:08:05Z</time>
      </trkpt>
      <trkpt lat="59.081532955169678" lon="30.007095336914063">
        <time>2026-04-25T11:08:08Z</time>
      </trkpt>
      <trkpt lat="59.081532955169678" lon="30.007095336914063">
        <time>2026-04-25T11:08:10Z</time>
      </trkpt>
      <trkpt lat="59.081511497497559" lon="30.007116794586182">
        <time>2026-04-25T11:08:13Z</time>
      </trkpt>
      <trkpt lat="59.081490039825439" lon="30.00715970993042">
        <time>2026-04-25T11:08:15Z</time>
      </trkpt>
      <trkpt lat="59.08146858215332" lon="30.007181167602539">
        <time>2026-04-25T11:08:18Z</time>
      </trkpt>
      <trkpt lat="59.081447124481201" lon="30.007181167602539">
        <time>2026-04-25T11:08:20Z</time>
      </trkpt>
      <trkpt lat="59.081447124481201" lon="30.007181167602539">
        <time>2026-04-25T11:08:23Z</time>
      </trkpt>
      <trkpt lat="59.081404209136963" lon="30.00715970993042">
        <time>2026-04-25T11:08:25Z</time>
      </trkpt>
      <trkpt lat="59.081382751464844" lon="30.00715970993042">
        <time>2026-04-25T11:08:28Z</time>
      </trkpt>
      <trkpt lat="59.081382751464844" lon="30.007181167602539">
        <time>2026-04-25T11:08:30Z</time>
      </trkpt>
      <trkpt lat="59.081361293792725" lon="30.007181167602539">
        <time>2026-04-25T11:08:33Z</time>
      </trkpt>
      <trkpt lat="59.081339836120605" lon="30.007181167602539">
        <time>2026-04-25T11:08:35Z</time>
      </trkpt>
      <trkpt lat="59.081318378448486" lon="30.007202625274658">
        <time>2026-04-25T11:08:38Z</time>
      </trkpt>
      <trkpt lat="59.081296920776367" lon="30.007224082946777">
        <time>2026-04-25T11:08:40Z</time>
      </trkpt>
      <trkpt lat="59.081275463104248" lon="30.007202625274658">
        <time>2026-04-25T11:08:43Z</time>
      </trkpt>
      <trkpt lat="59.081254005432129" lon="30.007202625274658">
        <time>2026-04-25T11:08:45Z</time>
      </trkpt>
      <trkpt lat="59.081275463104248" lon="30.007202625274658">
        <time>2026-04-25T11:08:48Z</time>
      </trkpt>
      <trkpt lat="59.081275463104248" lon="30.007202625274658">
        <time>2026-04-25T11:08:50Z</time>
      </trkpt>
      <trkpt lat="59.081275463104248" lon="30.007224082946777">
        <time>2026-04-25T11:08:53Z</time>
      </trkpt>
      <trkpt lat="59.081275463104248" lon="30.007224082946777">
        <time>2026-04-25T11:08:55Z</time>
      </trkpt>
      <trkpt lat="59.081275463104248" lon="30.007224082946777">
        <time>2026-04-25T11:08:58Z</time>
      </trkpt>
      <trkpt lat="59.081275463104248" lon="30.007224082946777">
        <time>2026-04-25T11:09:00Z</time>
      </trkpt>
      <trkpt lat="59.081275463104248" lon="30.007224082946777">
        <time>2026-04-25T11:09:03Z</time>
      </trkpt>
      <trkpt lat="59.081275463104248" lon="30.007224082946777">
        <time>2026-04-25T11:09:05Z</time>
      </trkpt>
      <trkpt lat="59.081275463104248" lon="30.007224082946777">
        <time>2026-04-25T11:09:08Z</time>
      </trkpt>
      <trkpt lat="59.081254005432129" lon="30.007224082946777">
        <time>2026-04-25T11:09:10Z</time>
      </trkpt>
      <trkpt lat="59.081254005432129" lon="30.007224082946777">
        <time>2026-04-25T11:09:13Z</time>
      </trkpt>
      <trkpt lat="59.08123254776001" lon="30.007224082946777">
        <time>2026-04-25T11:09:15Z</time>
      </trkpt>
      <trkpt lat="59.08123254776001" lon="30.007245540618896">
        <time>2026-04-25T11:09:18Z</time>
      </trkpt>
      <trkpt lat="59.08123254776001" lon="30.007245540618896">
        <time>2026-04-25T11:09:20Z</time>
      </trkpt>
      <trkpt lat="59.081211090087891" lon="30.007245540618896">
        <time>2026-04-25T11:09:23Z</time>
      </trkpt>
      <trkpt lat="59.081211090087891" lon="30.007245540618896">
        <time>2026-04-25T11:09:25Z</time>
      </trkpt>
      <trkpt lat="59.081211090087891" lon="30.007245540618896">
        <time>2026-04-25T11:09:28Z</time>
      </trkpt>
      <trkpt lat="59.081189632415771" lon="30.007266998291016">
        <time>2026-04-25T11:09:30Z</time>
      </trkpt>
      <trkpt lat="59.081189632415771" lon="30.007266998291016">
        <time>2026-04-25T11:09:33Z</time>
      </trkpt>
      <trkpt lat="59.081168174743652" lon="30.007266998291016">
        <time>2026-04-25T11:09:35Z</time>
      </trkpt>
      <trkpt lat="59.081146717071533" lon="30.007266998291016">
        <time>2026-04-25T11:09:38Z</time>
      </trkpt>
      <trkpt lat="59.081146717071533" lon="30.007266998291016">
        <time>2026-04-25T11:09:40Z</time>
      </trkpt>
      <trkpt lat="59.081146717071533" lon="30.007266998291016">
        <time>2026-04-25T11:09:45Z</time>
      </trkpt>
      <trkpt lat="59.081146717071533" lon="30.007266998291016">
        <time>2026-04-25T11:09:48Z</time>
      </trkpt>
      <trkpt lat="59.081146717071533" lon="30.007266998291016">
        <time>2026-04-25T11:09:50Z</time>
      </trkpt>
      <trkpt lat="59.081146717071533" lon="30.007266998291016">
        <time>2026-04-25T11:09:53Z</time>
      </trkpt>
      <trkpt lat="59.081146717071533" lon="30.007266998291016">
        <time>2026-04-25T11:09:55Z</time>
      </trkpt>
      <trkpt lat="59.081146717071533" lon="30.007266998291016">
        <time>2026-04-25T11:09:58Z</time>
      </trkpt>
      <trkpt lat="59.081146717071533" lon="30.007266998291016">
        <time>2026-04-25T11:10:00Z</time>
      </trkpt>
      <trkpt lat="59.081146717071533" lon="30.007266998291016">
        <time>2026-04-25T11:10:03Z</time>
      </trkpt>
      <trkpt lat="59.081146717071533" lon="30.007266998291016">
        <time>2026-04-25T11:10:05Z</time>
      </trkpt>
      <trkpt lat="59.081146717071533" lon="30.007266998291016">
        <time>2026-04-25T11:10:08Z</time>
      </trkpt>
      <trkpt lat="59.081146717071533" lon="30.007266998291016">
        <time>2026-04-25T11:10:10Z</time>
      </trkpt>
      <trkpt lat="59.081146717071533" lon="30.007266998291016">
        <time>2026-04-25T11:10:13Z</time>
      </trkpt>
      <trkpt lat="59.081146717071533" lon="30.007266998291016">
        <time>2026-04-25T11:10:15Z</time>
      </trkpt>
      <trkpt lat="59.081146717071533" lon="30.007266998291016">
        <time>2026-04-25T11:10:18Z</time>
      </trkpt>
      <trkpt lat="59.081146717071533" lon="30.007266998291016">
        <time>2026-04-25T11:10:20Z</time>
      </trkpt>
      <trkpt lat="59.081146717071533" lon="30.007245540618896">
        <time>2026-04-25T11:10:23Z</time>
      </trkpt>
      <trkpt lat="59.081146717071533" lon="30.007224082946777">
        <time>2026-04-25T11:10:25Z</time>
      </trkpt>
      <trkpt lat="59.081146717071533" lon="30.007224082946777">
        <time>2026-04-25T11:10:28Z</time>
      </trkpt>
      <trkpt lat="59.081146717071533" lon="30.007202625274658">
        <time>2026-04-25T11:10:30Z</time>
      </trkpt>
      <trkpt lat="59.081125259399414" lon="30.007181167602539">
        <time>2026-04-25T11:10:33Z</time>
      </trkpt>
      <trkpt lat="59.081125259399414" lon="30.007181167602539">
        <time>2026-04-25T11:10:35Z</time>
      </trkpt>
      <trkpt lat="59.081125259399414" lon="30.007181167602539">
        <time>2026-04-25T11:10:38Z</time>
      </trkpt>
      <trkpt lat="59.081125259399414" lon="30.00715970993042">
        <time>2026-04-25T11:10:40Z</time>
      </trkpt>
      <trkpt lat="59.081103801727295" lon="30.00715970993042">
        <time>2026-04-25T11:10:43Z</time>
      </trkpt>
      <trkpt lat="59.081103801727295" lon="30.007116794586182">
        <time>2026-04-25T11:10:45Z</time>
      </trkpt>
      <trkpt lat="59.081103801727295" lon="30.007095336914063">
        <time>2026-04-25T11:10:48Z</time>
      </trkpt>
      <trkpt lat="59.081103801727295" lon="30.007073879241943">
        <time>2026-04-25T11:10:50Z</time>
      </trkpt>
      <trkpt lat="59.081103801727295" lon="30.007073879241943">
        <time>2026-04-25T11:10:53Z</time>
      </trkpt>
      <trkpt lat="59.081103801727295" lon="30.007073879241943">
        <time>2026-04-25T11:10:55Z</time>
      </trkpt>
      <trkpt lat="59.081103801727295" lon="30.007073879241943">
        <time>2026-04-25T11:10:58Z</time>
      </trkpt>
      <trkpt lat="59.081103801727295" lon="30.007052421569824">
        <time>2026-04-25T11:11:00Z</time>
      </trkpt>
      <trkpt lat="59.081103801727295" lon="30.007030963897705">
        <time>2026-04-25T11:11:03Z</time>
      </trkpt>
      <trkpt lat="59.081103801727295" lon="30.007009506225586">
        <time>2026-04-25T11:11:05Z</time>
      </trkpt>
      <trkpt lat="59.081103801727295" lon="30.006988048553467">
        <time>2026-04-25T11:11:08Z</time>
      </trkpt>
      <trkpt lat="59.081103801727295" lon="30.006966590881348">
        <time>2026-04-25T11:11:10Z</time>
      </trkpt>
      <trkpt lat="59.081103801727295" lon="30.006945133209229">
        <time>2026-04-25T11:11:13Z</time>
      </trkpt>
      <trkpt lat="59.081103801727295" lon="30.00690221786499">
        <time>2026-04-25T11:11:15Z</time>
      </trkpt>
      <trkpt lat="59.081103801727295" lon="30.00690221786499">
        <time>2026-04-25T11:11:18Z</time>
      </trkpt>
      <trkpt lat="59.081103801727295" lon="30.006859302520752">
        <time>2026-04-25T11:11:20Z</time>
      </trkpt>
      <trkpt lat="59.081103801727295" lon="30.006837844848633">
        <time>2026-04-25T11:11:23Z</time>
      </trkpt>
      <trkpt lat="59.081103801727295" lon="30.006794929504395">
        <time>2026-04-25T11:11:25Z</time>
      </trkpt>
      <trkpt lat="59.081082344055176" lon="30.006752014160156">
        <time>2026-04-25T11:11:28Z</time>
      </trkpt>
      <trkpt lat="59.081082344055176" lon="30.006687641143799">
        <time>2026-04-25T11:11:30Z</time>
      </trkpt>
      <trkpt lat="59.081082344055176" lon="30.006644725799561">
        <time>2026-04-25T11:11:33Z</time>
      </trkpt>
      <trkpt lat="59.081082344055176" lon="30.006644725799561">
        <time>2026-04-25T11:11:35Z</time>
      </trkpt>
      <trkpt lat="59.081082344055176" lon="30.006644725799561">
        <time>2026-04-25T11:11:38Z</time>
      </trkpt>
      <trkpt lat="59.081103801727295" lon="30.006644725799561">
        <time>2026-04-25T11:11:40Z</time>
      </trkpt>
      <trkpt lat="59.081103801727295" lon="30.006601810455322">
        <time>2026-04-25T11:11:43Z</time>
      </trkpt>
      <trkpt lat="59.081103801727295" lon="30.006558895111084">
        <time>2026-04-25T11:11:45Z</time>
      </trkpt>
      <trkpt lat="59.081103801727295" lon="30.006515979766846">
        <time>2026-04-25T11:11:48Z</time>
      </trkpt>
      <trkpt lat="59.081103801727295" lon="30.006494522094727">
        <time>2026-04-25T11:11:50Z</time>
      </trkpt>
      <trkpt lat="59.081125259399414" lon="30.006473064422607">
        <time>2026-04-25T11:11:53Z</time>
      </trkpt>
      <trkpt lat="59.081103801727295" lon="30.006494522094727">
        <time>2026-04-25T11:11:55Z</time>
      </trkpt>
      <trkpt lat="59.081103801727295" lon="30.006515979766846">
        <time>2026-04-25T11:11:58Z</time>
      </trkpt>
      <trkpt lat="59.081082344055176" lon="30.006515979766846">
        <time>2026-04-25T11:12:00Z</time>
      </trkpt>
      <trkpt lat="59.081060886383057" lon="30.006515979766846">
        <time>2026-04-25T11:12:03Z</time>
      </trkpt>
      <trkpt lat="59.081060886383057" lon="30.006515979766846">
        <time>2026-04-25T11:12:05Z</time>
      </trkpt>
      <trkpt lat="59.081060886383057" lon="30.006515979766846">
        <time>2026-04-25T11:12:08Z</time>
      </trkpt>
      <trkpt lat="59.081060886383057" lon="30.006515979766846">
        <time>2026-04-25T11:12:10Z</time>
      </trkpt>
      <trkpt lat="59.081060886383057" lon="30.006515979766846">
        <time>2026-04-25T11:12:13Z</time>
      </trkpt>
      <trkpt lat="59.081060886383057" lon="30.006515979766846">
        <time>2026-04-25T11:12:15Z</time>
      </trkpt>
      <trkpt lat="59.081060886383057" lon="30.006515979766846">
        <time>2026-04-25T11:12:18Z</time>
      </trkpt>
      <trkpt lat="59.081060886383057" lon="30.006494522094727">
        <time>2026-04-25T11:12:20Z</time>
      </trkpt>
      <trkpt lat="59.081060886383057" lon="30.006494522094727">
        <time>2026-04-25T11:12:23Z</time>
      </trkpt>
      <trkpt lat="59.081060886383057" lon="30.006473064422607">
        <time>2026-04-25T11:12:25Z</time>
      </trkpt>
      <trkpt lat="59.081039428710938" lon="30.006451606750488">
        <time>2026-04-25T11:12:28Z</time>
      </trkpt>
      <trkpt lat="59.081039428710938" lon="30.006430149078369">
        <time>2026-04-25T11:12:30Z</time>
      </trkpt>
      <trkpt lat="59.081017971038818" lon="30.006430149078369">
        <time>2026-04-25T11:12:33Z</time>
      </trkpt>
      <trkpt lat="59.081017971038818" lon="30.006430149078369">
        <time>2026-04-25T11:12:35Z</time>
      </trkpt>
      <trkpt lat="59.081017971038818" lon="30.00640869140625">
        <time>2026-04-25T11:12:38Z</time>
      </trkpt>
      <trkpt lat="59.080996513366699" lon="30.00640869140625">
        <time>2026-04-25T11:12:40Z</time>
      </trkpt>
      <trkpt lat="59.080996513366699" lon="30.006365776062012">
        <time>2026-04-25T11:12:43Z</time>
      </trkpt>
      <trkpt lat="59.080996513366699" lon="30.006322860717773">
        <time>2026-04-25T11:12:45Z</time>
      </trkpt>
      <trkpt lat="59.080996513366699" lon="30.006322860717773">
        <time>2026-04-25T11:12:48Z</time>
      </trkpt>
      <trkpt lat="59.080996513366699" lon="30.006322860717773">
        <time>2026-04-25T11:12:50Z</time>
      </trkpt>
      <trkpt lat="59.080996513366699" lon="30.006322860717773">
        <time>2026-04-25T11:12:53Z</time>
      </trkpt>
      <trkpt lat="59.080996513366699" lon="30.006322860717773">
        <time>2026-04-25T11:12:55Z</time>
      </trkpt>
      <trkpt lat="59.080996513366699" lon="30.006322860717773">
        <time>2026-04-25T11:12:58Z</time>
      </trkpt>
      <trkpt lat="59.081017971038818" lon="30.006258487701416">
        <time>2026-04-25T11:13:00Z</time>
      </trkpt>
      <trkpt lat="59.081017971038818" lon="30.006215572357178">
        <time>2026-04-25T11:13:03Z</time>
      </trkpt>
      <trkpt lat="59.081039428710938" lon="30.00615119934082">
        <time>2026-04-25T11:13:05Z</time>
      </trkpt>
      <trkpt lat="59.081039428710938" lon="30.006108283996582">
        <time>2026-04-25T11:13:08Z</time>
      </trkpt>
      <trkpt lat="59.081039428710938" lon="30.006108283996582">
        <time>2026-04-25T11:13:10Z</time>
      </trkpt>
      <trkpt lat="59.081039428710938" lon="30.006086826324463">
        <time>2026-04-25T11:13:13Z</time>
      </trkpt>
      <trkpt lat="59.081060886383057" lon="30.006065368652344">
        <time>2026-04-25T11:13:15Z</time>
      </trkpt>
      <trkpt lat="59.081060886383057" lon="30.006043910980225">
        <time>2026-04-25T11:13:18Z</time>
      </trkpt>
      <trkpt lat="59.081060886383057" lon="30.006043910980225">
        <time>2026-04-25T11:13:20Z</time>
      </trkpt>
      <trkpt lat="59.081060886383057" lon="30.006043910980225">
        <time>2026-04-25T11:13:23Z</time>
      </trkpt>
      <trkpt lat="59.081060886383057" lon="30.006043910980225">
        <time>2026-04-25T11:13:25Z</time>
      </trkpt>
      <trkpt lat="59.081060886383057" lon="30.006043910980225">
        <time>2026-04-25T11:13:30Z</time>
      </trkpt>
      <trkpt lat="59.081060886383057" lon="30.006043910980225">
        <time>2026-04-25T11:13:33Z</time>
      </trkpt>
      <trkpt lat="59.081060886383057" lon="30.006043910980225">
        <time>2026-04-25T11:13:35Z</time>
      </trkpt>
      <trkpt lat="59.081060886383057" lon="30.006043910980225">
        <time>2026-04-25T11:13:38Z</time>
      </trkpt>
      <trkpt lat="59.081060886383057" lon="30.006043910980225">
        <time>2026-04-25T11:13:40Z</time>
      </trkpt>
      <trkpt lat="59.081060886383057" lon="30.006043910980225">
        <time>2026-04-25T11:13:43Z</time>
      </trkpt>
      <trkpt lat="59.081060886383057" lon="30.006022453308105">
        <time>2026-04-25T11:13:45Z</time>
      </trkpt>
      <trkpt lat="59.081060886383057" lon="30.005958080291748">
        <time>2026-04-25T11:13:48Z</time>
      </trkpt>
      <trkpt lat="59.081060886383057" lon="30.00591516494751">
        <time>2026-04-25T11:13:50Z</time>
      </trkpt>
      <trkpt lat="59.081060886383057" lon="30.005872249603271">
        <time>2026-04-25T11:13:53Z</time>
      </trkpt>
      <trkpt lat="59.081060886383057" lon="30.005829334259033">
        <time>2026-04-25T11:13:55Z</time>
      </trkpt>
      <trkpt lat="59.081060886383057" lon="30.005829334259033">
        <time>2026-04-25T11:13:58Z</time>
      </trkpt>
      <trkpt lat="59.081060886383057" lon="30.005829334259033">
        <time>2026-04-25T11:14:00Z</time>
      </trkpt>
      <trkpt lat="59.081060886383057" lon="30.005829334259033">
        <time>2026-04-25T11:14:03Z</time>
      </trkpt>
      <trkpt lat="59.081060886383057" lon="30.005829334259033">
        <time>2026-04-25T11:14:05Z</time>
      </trkpt>
      <trkpt lat="59.081060886383057" lon="30.005829334259033">
        <time>2026-04-25T11:14:08Z</time>
      </trkpt>
      <trkpt lat="59.081060886383057" lon="30.005829334259033">
        <time>2026-04-25T11:14:10Z</time>
      </trkpt>
      <trkpt lat="59.081060886383057" lon="30.005829334259033">
        <time>2026-04-25T11:14:13Z</time>
      </trkpt>
      <trkpt lat="59.081039428710938" lon="30.005829334259033">
        <time>2026-04-25T11:14:15Z</time>
      </trkpt>
      <trkpt lat="59.081017971038818" lon="30.005829334259033">
        <time>2026-04-25T11:14:18Z</time>
      </trkpt>
      <trkpt lat="59.08097505569458" lon="30.005807876586914">
        <time>2026-04-25T11:14:20Z</time>
      </trkpt>
      <trkpt lat="59.080996513366699" lon="30.005743503570557">
        <time>2026-04-25T11:14:23Z</time>
      </trkpt>
      <trkpt lat="59.080996513366699" lon="30.005679130554199">
        <time>2026-04-25T11:14:25Z</time>
      </trkpt>
      <trkpt lat="59.080996513366699" lon="30.005636215209961">
        <time>2026-04-25T11:14:28Z</time>
      </trkpt>
      <trkpt lat="59.080996513366699" lon="30.005593299865723">
        <time>2026-04-25T11:14:30Z</time>
      </trkpt>
      <trkpt lat="59.081017971038818" lon="30.005593299865723">
        <time>2026-04-25T11:14:33Z</time>
      </trkpt>
      <trkpt lat="59.081017971038818" lon="30.005571842193604">
        <time>2026-04-25T11:14:35Z</time>
      </trkpt>
      <trkpt lat="59.081017971038818" lon="30.005571842193604">
        <time>2026-04-25T11:14:38Z</time>
      </trkpt>
      <trkpt lat="59.081017971038818" lon="30.005571842193604">
        <time>2026-04-25T11:14:40Z</time>
      </trkpt>
      <trkpt lat="59.081017971038818" lon="30.005571842193604">
        <time>2026-04-25T11:14:43Z</time>
      </trkpt>
      <trkpt lat="59.080996513366699" lon="30.005571842193604">
        <time>2026-04-25T11:14:45Z</time>
      </trkpt>
      <trkpt lat="59.08097505569458" lon="30.005528926849365">
        <time>2026-04-25T11:14:48Z</time>
      </trkpt>
      <trkpt lat="59.08097505569458" lon="30.005528926849365">
        <time>2026-04-25T11:14:50Z</time>
      </trkpt>
      <trkpt lat="59.080953598022461" lon="30.005507469177246">
        <time>2026-04-25T11:14:53Z</time>
      </trkpt>
      <trkpt lat="59.080953598022461" lon="30.005486011505127">
        <time>2026-04-25T11:14:55Z</time>
      </trkpt>
      <trkpt lat="59.080953598022461" lon="30.005486011505127">
        <time>2026-04-25T11:14:58Z</time>
      </trkpt>
      <trkpt lat="59.080953598022461" lon="30.005486011505127">
        <time>2026-04-25T11:15:00Z</time>
      </trkpt>
      <trkpt lat="59.08097505569458" lon="30.005486011505127">
        <time>2026-04-25T11:15:03Z</time>
      </trkpt>
      <trkpt lat="59.080996513366699" lon="30.005464553833008">
        <time>2026-04-25T11:15:05Z</time>
      </trkpt>
      <trkpt lat="59.080996513366699" lon="30.005443096160889">
        <time>2026-04-25T11:15:08Z</time>
      </trkpt>
      <trkpt lat="59.080996513366699" lon="30.005464553833008">
        <time>2026-04-25T11:15:10Z</time>
      </trkpt>
      <trkpt lat="59.080996513366699" lon="30.005464553833008">
        <time>2026-04-25T11:15:13Z</time>
      </trkpt>
      <trkpt lat="59.080996513366699" lon="30.005464553833008">
        <time>2026-04-25T11:15:15Z</time>
      </trkpt>
      <trkpt lat="59.080996513366699" lon="30.005464553833008">
        <time>2026-04-25T11:15:18Z</time>
      </trkpt>
      <trkpt lat="59.080996513366699" lon="30.005464553833008">
        <time>2026-04-25T11:15:20Z</time>
      </trkpt>
      <trkpt lat="59.080996513366699" lon="30.005464553833008">
        <time>2026-04-25T11:15:23Z</time>
      </trkpt>
      <trkpt lat="59.080996513366699" lon="30.005464553833008">
        <time>2026-04-25T11:15:25Z</time>
      </trkpt>
      <trkpt lat="59.080996513366699" lon="30.005464553833008">
        <time>2026-04-25T11:15:28Z</time>
      </trkpt>
      <trkpt lat="59.080996513366699" lon="30.005464553833008">
        <time>2026-04-25T11:15:30Z</time>
      </trkpt>
      <trkpt lat="59.080996513366699" lon="30.005464553833008">
        <time>2026-04-25T11:15:33Z</time>
      </trkpt>
      <trkpt lat="59.080996513366699" lon="30.005464553833008">
        <time>2026-04-25T11:15:35Z</time>
      </trkpt>
      <trkpt lat="59.080996513366699" lon="30.005464553833008">
        <time>2026-04-25T11:15:38Z</time>
      </trkpt>
      <trkpt lat="59.080996513366699" lon="30.005464553833008">
        <time>2026-04-25T11:15:40Z</time>
      </trkpt>
      <trkpt lat="59.080996513366699" lon="30.005464553833008">
        <time>2026-04-25T11:15:43Z</time>
      </trkpt>
      <trkpt lat="59.080996513366699" lon="30.005464553833008">
        <time>2026-04-25T11:15:45Z</time>
      </trkpt>
      <trkpt lat="59.080996513366699" lon="30.005464553833008">
        <time>2026-04-25T11:15:48Z</time>
      </trkpt>
      <trkpt lat="59.080996513366699" lon="30.005464553833008">
        <time>2026-04-25T11:15:50Z</time>
      </trkpt>
      <trkpt lat="59.080996513366699" lon="30.005464553833008">
        <time>2026-04-25T11:15:53Z</time>
      </trkpt>
      <trkpt lat="59.080996513366699" lon="30.005464553833008">
        <time>2026-04-25T11:15:55Z</time>
      </trkpt>
      <trkpt lat="59.080996513366699" lon="30.005464553833008">
        <time>2026-04-25T11:15:58Z</time>
      </trkpt>
      <trkpt lat="59.080996513366699" lon="30.005464553833008">
        <time>2026-04-25T11:16:00Z</time>
      </trkpt>
      <trkpt lat="59.080996513366699" lon="30.005464553833008">
        <time>2026-04-25T11:16:03Z</time>
      </trkpt>
      <trkpt lat="59.080996513366699" lon="30.005464553833008">
        <time>2026-04-25T11:16:05Z</time>
      </trkpt>
      <trkpt lat="59.080996513366699" lon="30.005464553833008">
        <time>2026-04-25T11:16:08Z</time>
      </trkpt>
      <trkpt lat="59.081017971038818" lon="30.005443096160889">
        <time>2026-04-25T11:16:10Z</time>
      </trkpt>
      <trkpt lat="59.081039428710938" lon="30.00542163848877">
        <time>2026-04-25T11:16:13Z</time>
      </trkpt>
      <trkpt lat="59.081060886383057" lon="30.00540018081665">
        <time>2026-04-25T11:16:15Z</time>
      </trkpt>
      <trkpt lat="59.081082344055176" lon="30.005378723144531">
        <time>2026-04-25T11:16:18Z</time>
      </trkpt>
      <trkpt lat="59.081082344055176" lon="30.005378723144531">
        <time>2026-04-25T11:16:20Z</time>
      </trkpt>
      <trkpt lat="59.081082344055176" lon="30.005378723144531">
        <time>2026-04-25T11:16:23Z</time>
      </trkpt>
      <trkpt lat="59.081082344055176" lon="30.005378723144531">
        <time>2026-04-25T11:16:25Z</time>
      </trkpt>
      <trkpt lat="59.081082344055176" lon="30.005378723144531">
        <time>2026-04-25T11:16:28Z</time>
      </trkpt>
      <trkpt lat="59.081082344055176" lon="30.005378723144531">
        <time>2026-04-25T11:16:30Z</time>
      </trkpt>
      <trkpt lat="59.081082344055176" lon="30.005378723144531">
        <time>2026-04-25T11:16:33Z</time>
      </trkpt>
      <trkpt lat="59.081082344055176" lon="30.005378723144531">
        <time>2026-04-25T11:16:35Z</time>
      </trkpt>
      <trkpt lat="59.081082344055176" lon="30.005378723144531">
        <time>2026-04-25T11:16:38Z</time>
      </trkpt>
      <trkpt lat="59.081082344055176" lon="30.00540018081665">
        <time>2026-04-25T11:16:40Z</time>
      </trkpt>
      <trkpt lat="59.081082344055176" lon="30.00540018081665">
        <time>2026-04-25T11:16:43Z</time>
      </trkpt>
      <trkpt lat="59.081082344055176" lon="30.00540018081665">
        <time>2026-04-25T11:16:45Z</time>
      </trkpt>
      <trkpt lat="59.081082344055176" lon="30.00540018081665">
        <time>2026-04-25T11:16:48Z</time>
      </trkpt>
      <trkpt lat="59.081082344055176" lon="30.00540018081665">
        <time>2026-04-25T11:16:50Z</time>
      </trkpt>
      <trkpt lat="59.081082344055176" lon="30.00540018081665">
        <time>2026-04-25T11:16:53Z</time>
      </trkpt>
      <trkpt lat="59.081082344055176" lon="30.00540018081665">
        <time>2026-04-25T11:16:55Z</time>
      </trkpt>
      <trkpt lat="59.081082344055176" lon="30.00540018081665">
        <time>2026-04-25T11:16:58Z</time>
      </trkpt>
      <trkpt lat="59.081082344055176" lon="30.00540018081665">
        <time>2026-04-25T11:17:00Z</time>
      </trkpt>
      <trkpt lat="59.081082344055176" lon="30.00540018081665">
        <time>2026-04-25T11:17:03Z</time>
      </trkpt>
      <trkpt lat="59.081082344055176" lon="30.00540018081665">
        <time>2026-04-25T11:17:05Z</time>
      </trkpt>
      <trkpt lat="59.081082344055176" lon="30.00540018081665">
        <time>2026-04-25T11:17:08Z</time>
      </trkpt>
      <trkpt lat="59.081082344055176" lon="30.00540018081665">
        <time>2026-04-25T11:17:10Z</time>
      </trkpt>
      <trkpt lat="59.081082344055176" lon="30.00540018081665">
        <time>2026-04-25T11:17:13Z</time>
      </trkpt>
      <trkpt lat="59.081082344055176" lon="30.00540018081665">
        <time>2026-04-25T11:17:15Z</time>
      </trkpt>
      <trkpt lat="59.081082344055176" lon="30.00540018081665">
        <time>2026-04-25T11:17:18Z</time>
      </trkpt>
      <trkpt lat="59.081082344055176" lon="30.005378723144531">
        <time>2026-04-25T11:17:20Z</time>
      </trkpt>
      <trkpt lat="59.081082344055176" lon="30.005357265472412">
        <time>2026-04-25T11:17:23Z</time>
      </trkpt>
      <trkpt lat="59.081082344055176" lon="30.005335807800293">
        <time>2026-04-25T11:17:25Z</time>
      </trkpt>
      <trkpt lat="59.081060886383057" lon="30.005314350128174">
        <time>2026-04-25T11:17:28Z</time>
      </trkpt>
      <trkpt lat="59.081060886383057" lon="30.005292892456055">
        <time>2026-04-25T11:17:30Z</time>
      </trkpt>
      <trkpt lat="59.081060886383057" lon="30.005271434783936">
        <time>2026-04-25T11:17:33Z</time>
      </trkpt>
      <trkpt lat="59.081060886383057" lon="30.005249977111816">
        <time>2026-04-25T11:17:35Z</time>
      </trkpt>
      <trkpt lat="59.081060886383057" lon="30.005228519439697">
        <time>2026-04-25T11:17:38Z</time>
      </trkpt>
      <trkpt lat="59.081060886383057" lon="30.005207061767578">
        <time>2026-04-25T11:17:40Z</time>
      </trkpt>
      <trkpt lat="59.081060886383057" lon="30.005207061767578">
        <time>2026-04-25T11:17:43Z</time>
      </trkpt>
      <trkpt lat="59.081082344055176" lon="30.005185604095459">
        <time>2026-04-25T11:17:45Z</time>
      </trkpt>
      <trkpt lat="59.081082344055176" lon="30.00516414642334">
        <time>2026-04-25T11:17:48Z</time>
      </trkpt>
      <trkpt lat="59.081082344055176" lon="30.005142688751221">
        <time>2026-04-25T11:17:50Z</time>
      </trkpt>
      <trkpt lat="59.081082344055176" lon="30.005142688751221">
        <time>2026-04-25T11:17:53Z</time>
      </trkpt>
      <trkpt lat="59.081082344055176" lon="30.005142688751221">
        <time>2026-04-25T11:17:55Z</time>
      </trkpt>
      <trkpt lat="59.081082344055176" lon="30.005121231079102">
        <time>2026-04-25T11:17:58Z</time>
      </trkpt>
      <trkpt lat="59.081103801727295" lon="30.005121231079102">
        <time>2026-04-25T11:18:00Z</time>
      </trkpt>
      <trkpt lat="59.081103801727295" lon="30.005099773406982">
        <time>2026-04-25T11:18:03Z</time>
      </trkpt>
      <trkpt lat="59.081103801727295" lon="30.005099773406982">
        <time>2026-04-25T11:18:05Z</time>
      </trkpt>
      <trkpt lat="59.081103801727295" lon="30.005078315734863">
        <time>2026-04-25T11:18:08Z</time>
      </trkpt>
      <trkpt lat="59.081125259399414" lon="30.005035400390625">
        <time>2026-04-25T11:18:10Z</time>
      </trkpt>
      <trkpt lat="59.081125259399414" lon="30.005013942718506">
        <time>2026-04-25T11:18:13Z</time>
      </trkpt>
      <trkpt lat="59.081125259399414" lon="30.004992485046387">
        <time>2026-04-25T11:18:15Z</time>
      </trkpt>
      <trkpt lat="59.081125259399414" lon="30.004992485046387">
        <time>2026-04-25T11:18:18Z</time>
      </trkpt>
      <trkpt lat="59.081125259399414" lon="30.004992485046387">
        <time>2026-04-25T11:18:20Z</time>
      </trkpt>
      <trkpt lat="59.081125259399414" lon="30.004992485046387">
        <time>2026-04-25T11:18:23Z</time>
      </trkpt>
      <trkpt lat="59.081125259399414" lon="30.004971027374268">
        <time>2026-04-25T11:18:25Z</time>
      </trkpt>
      <trkpt lat="59.081125259399414" lon="30.004971027374268">
        <time>2026-04-25T11:18:28Z</time>
      </trkpt>
      <trkpt lat="59.081146717071533" lon="30.004971027374268">
        <time>2026-04-25T11:18:30Z</time>
      </trkpt>
      <trkpt lat="59.081146717071533" lon="30.004971027374268">
        <time>2026-04-25T11:18:33Z</time>
      </trkpt>
      <trkpt lat="59.081146717071533" lon="30.004971027374268">
        <time>2026-04-25T11:18:35Z</time>
      </trkpt>
      <trkpt lat="59.081168174743652" lon="30.004971027374268">
        <time>2026-04-25T11:18:38Z</time>
      </trkpt>
      <trkpt lat="59.081168174743652" lon="30.004971027374268">
        <time>2026-04-25T11:18:40Z</time>
      </trkpt>
      <trkpt lat="59.081168174743652" lon="30.004949569702148">
        <time>2026-04-25T11:18:43Z</time>
      </trkpt>
      <trkpt lat="59.081168174743652" lon="30.004949569702148">
        <time>2026-04-25T11:18:45Z</time>
      </trkpt>
      <trkpt lat="59.081168174743652" lon="30.004949569702148">
        <time>2026-04-25T11:18:48Z</time>
      </trkpt>
      <trkpt lat="59.081189632415771" lon="30.004949569702148">
        <time>2026-04-25T11:18:50Z</time>
      </trkpt>
      <trkpt lat="59.081189632415771" lon="30.004928112030029">
        <time>2026-04-25T11:18:53Z</time>
      </trkpt>
      <trkpt lat="59.081168174743652" lon="30.004949569702148">
        <time>2026-04-25T11:18:55Z</time>
      </trkpt>
      <trkpt lat="59.081125259399414" lon="30.004971027374268">
        <time>2026-04-25T11:18:58Z</time>
      </trkpt>
      <trkpt lat="59.081103801727295" lon="30.004992485046387">
        <time>2026-04-25T11:19:00Z</time>
      </trkpt>
      <trkpt lat="59.081082344055176" lon="30.004971027374268">
        <time>2026-04-25T11:19:03Z</time>
      </trkpt>
      <trkpt lat="59.081082344055176" lon="30.004971027374268">
        <time>2026-04-25T11:19:05Z</time>
      </trkpt>
      <trkpt lat="59.081082344055176" lon="30.004971027374268">
        <time>2026-04-25T11:19:08Z</time>
      </trkpt>
      <trkpt lat="59.081082344055176" lon="30.004971027374268">
        <time>2026-04-25T11:19:10Z</time>
      </trkpt>
      <trkpt lat="59.081082344055176" lon="30.004971027374268">
        <time>2026-04-25T11:19:13Z</time>
      </trkpt>
      <trkpt lat="59.081060886383057" lon="30.004992485046387">
        <time>2026-04-25T11:19:15Z</time>
      </trkpt>
      <trkpt lat="59.081039428710938" lon="30.005013942718506">
        <time>2026-04-25T11:19:18Z</time>
      </trkpt>
      <trkpt lat="59.081017971038818" lon="30.005013942718506">
        <time>2026-04-25T11:19:20Z</time>
      </trkpt>
      <trkpt lat="59.080996513366699" lon="30.005013942718506">
        <time>2026-04-25T11:19:23Z</time>
      </trkpt>
      <trkpt lat="59.080996513366699" lon="30.004992485046387">
        <time>2026-04-25T11:19:25Z</time>
      </trkpt>
      <trkpt lat="59.080996513366699" lon="30.005013942718506">
        <time>2026-04-25T11:19:28Z</time>
      </trkpt>
      <trkpt lat="59.080953598022461" lon="30.005013942718506">
        <time>2026-04-25T11:19:30Z</time>
      </trkpt>
      <trkpt lat="59.080932140350342" lon="30.005035400390625">
        <time>2026-04-25T11:19:33Z</time>
      </trkpt>
      <trkpt lat="59.080910682678223" lon="30.005056858062744">
        <time>2026-04-25T11:19:35Z</time>
      </trkpt>
      <trkpt lat="59.080889225006104" lon="30.005056858062744">
        <time>2026-04-25T11:19:38Z</time>
      </trkpt>
      <trkpt lat="59.080867767333984" lon="30.005056858062744">
        <time>2026-04-25T11:19:40Z</time>
      </trkpt>
      <trkpt lat="59.080846309661865" lon="30.005099773406982">
        <time>2026-04-25T11:19:43Z</time>
      </trkpt>
      <trkpt lat="59.080824851989746" lon="30.005121231079102">
        <time>2026-04-25T11:19:45Z</time>
      </trkpt>
      <trkpt lat="59.080803394317627" lon="30.005142688751221">
        <time>2026-04-25T11:19:48Z</time>
      </trkpt>
      <trkpt lat="59.080803394317627" lon="30.005142688751221">
        <time>2026-04-25T11:19:50Z</time>
      </trkpt>
      <trkpt lat="59.080781936645508" lon="30.005142688751221">
        <time>2026-04-25T11:19:53Z</time>
      </trkpt>
      <trkpt lat="59.080781936645508" lon="30.00516414642334">
        <time>2026-04-25T11:19:55Z</time>
      </trkpt>
      <trkpt lat="59.080781936645508" lon="30.00516414642334">
        <time>2026-04-25T11:19:58Z</time>
      </trkpt>
      <trkpt lat="59.080760478973389" lon="30.00516414642334">
        <time>2026-04-25T11:20:00Z</time>
      </trkpt>
      <trkpt lat="59.08073902130127" lon="30.00516414642334">
        <time>2026-04-25T11:20:03Z</time>
      </trkpt>
      <trkpt lat="59.08073902130127" lon="30.00516414642334">
        <time>2026-04-25T11:20:05Z</time>
      </trkpt>
      <trkpt lat="59.08073902130127" lon="30.00516414642334">
        <time>2026-04-25T11:20:08Z</time>
      </trkpt>
      <trkpt lat="59.08073902130127" lon="30.00516414642334">
        <time>2026-04-25T11:20:10Z</time>
      </trkpt>
      <trkpt lat="59.08073902130127" lon="30.00516414642334">
        <time>2026-04-25T11:20:13Z</time>
      </trkpt>
      <trkpt lat="59.08073902130127" lon="30.00516414642334">
        <time>2026-04-25T11:20:15Z</time>
      </trkpt>
      <trkpt lat="59.08073902130127" lon="30.00516414642334">
        <time>2026-04-25T11:20:18Z</time>
      </trkpt>
      <trkpt lat="59.08073902130127" lon="30.00516414642334">
        <time>2026-04-25T11:20:20Z</time>
      </trkpt>
      <trkpt lat="59.08073902130127" lon="30.00516414642334">
        <time>2026-04-25T11:20:23Z</time>
      </trkpt>
      <trkpt lat="59.08073902130127" lon="30.00516414642334">
        <time>2026-04-25T11:20:25Z</time>
      </trkpt>
      <trkpt lat="59.08073902130127" lon="30.00516414642334">
        <time>2026-04-25T11:20:28Z</time>
      </trkpt>
      <trkpt lat="59.08073902130127" lon="30.00516414642334">
        <time>2026-04-25T11:20:30Z</time>
      </trkpt>
      <trkpt lat="59.08073902130127" lon="30.00516414642334">
        <time>2026-04-25T11:20:33Z</time>
      </trkpt>
      <trkpt lat="59.08073902130127" lon="30.00516414642334">
        <time>2026-04-25T11:20:35Z</time>
      </trkpt>
      <trkpt lat="59.08073902130127" lon="30.00516414642334">
        <time>2026-04-25T11:20:38Z</time>
      </trkpt>
      <trkpt lat="59.08073902130127" lon="30.00516414642334">
        <time>2026-04-25T11:20:40Z</time>
      </trkpt>
      <trkpt lat="59.08073902130127" lon="30.00516414642334">
        <time>2026-04-25T11:20:43Z</time>
      </trkpt>
      <trkpt lat="59.080760478973389" lon="30.00516414642334">
        <time>2026-04-25T11:20:45Z</time>
      </trkpt>
      <trkpt lat="59.080760478973389" lon="30.00516414642334">
        <time>2026-04-25T11:20:48Z</time>
      </trkpt>
      <trkpt lat="59.080760478973389" lon="30.00516414642334">
        <time>2026-04-25T11:20:50Z</time>
      </trkpt>
      <trkpt lat="59.080760478973389" lon="30.00516414642334">
        <time>2026-04-25T11:20:53Z</time>
      </trkpt>
      <trkpt lat="59.080760478973389" lon="30.00516414642334">
        <time>2026-04-25T11:20:55Z</time>
      </trkpt>
      <trkpt lat="59.080760478973389" lon="30.00516414642334">
        <time>2026-04-25T11:20:58Z</time>
      </trkpt>
      <trkpt lat="59.080760478973389" lon="30.00516414642334">
        <time>2026-04-25T11:21:00Z</time>
      </trkpt>
      <trkpt lat="59.080760478973389" lon="30.00516414642334">
        <time>2026-04-25T11:21:03Z</time>
      </trkpt>
      <trkpt lat="59.080760478973389" lon="30.00516414642334">
        <time>2026-04-25T11:21:05Z</time>
      </trkpt>
      <trkpt lat="59.080760478973389" lon="30.00516414642334">
        <time>2026-04-25T11:21:08Z</time>
      </trkpt>
      <trkpt lat="59.08073902130127" lon="30.00516414642334">
        <time>2026-04-25T11:21:10Z</time>
      </trkpt>
      <trkpt lat="59.08073902130127" lon="30.005185604095459">
        <time>2026-04-25T11:21:13Z</time>
      </trkpt>
      <trkpt lat="59.08071756362915" lon="30.005185604095459">
        <time>2026-04-25T11:21:15Z</time>
      </trkpt>
      <trkpt lat="59.08071756362915" lon="30.005207061767578">
        <time>2026-04-25T11:21:18Z</time>
      </trkpt>
      <trkpt lat="59.08071756362915" lon="30.005207061767578">
        <time>2026-04-25T11:21:20Z</time>
      </trkpt>
      <trkpt lat="59.08071756362915" lon="30.005207061767578">
        <time>2026-04-25T11:21:23Z</time>
      </trkpt>
      <trkpt lat="59.08071756362915" lon="30.005207061767578">
        <time>2026-04-25T11:21:25Z</time>
      </trkpt>
      <trkpt lat="59.08071756362915" lon="30.005207061767578">
        <time>2026-04-25T11:21:28Z</time>
      </trkpt>
      <trkpt lat="59.080696105957031" lon="30.005228519439697">
        <time>2026-04-25T11:21:30Z</time>
      </trkpt>
      <trkpt lat="59.080696105957031" lon="30.005228519439697">
        <time>2026-04-25T11:21:33Z</time>
      </trkpt>
      <trkpt lat="59.080674648284912" lon="30.005249977111816">
        <time>2026-04-25T11:21:35Z</time>
      </trkpt>
      <trkpt lat="59.080674648284912" lon="30.005249977111816">
        <time>2026-04-25T11:21:38Z</time>
      </trkpt>
      <trkpt lat="59.080653190612793" lon="30.005271434783936">
        <time>2026-04-25T11:21:40Z</time>
      </trkpt>
      <trkpt lat="59.080631732940674" lon="30.005271434783936">
        <time>2026-04-25T11:21:43Z</time>
      </trkpt>
      <trkpt lat="59.080631732940674" lon="30.005292892456055">
        <time>2026-04-25T11:21:45Z</time>
      </trkpt>
      <trkpt lat="59.080631732940674" lon="30.005292892456055">
        <time>2026-04-25T11:21:48Z</time>
      </trkpt>
      <trkpt lat="59.080631732940674" lon="30.005314350128174">
        <time>2026-04-25T11:21:50Z</time>
      </trkpt>
      <trkpt lat="59.080631732940674" lon="30.005335807800293">
        <time>2026-04-25T11:21:53Z</time>
      </trkpt>
      <trkpt lat="59.080610275268555" lon="30.005335807800293">
        <time>2026-04-25T11:21:55Z</time>
      </trkpt>
      <trkpt lat="59.080567359924316" lon="30.005314350128174">
        <time>2026-04-25T11:21:58Z</time>
      </trkpt>
      <trkpt lat="59.080545902252197" lon="30.005314350128174">
        <time>2026-04-25T11:22:00Z</time>
      </trkpt>
      <trkpt lat="59.080502986907959" lon="30.005335807800293">
        <time>2026-04-25T11:22:03Z</time>
      </trkpt>
      <trkpt lat="59.08048152923584" lon="30.005335807800293">
        <time>2026-04-25T11:22:05Z</time>
      </trkpt>
      <trkpt lat="59.080502986907959" lon="30.005335807800293">
        <time>2026-04-25T11:22:08Z</time>
      </trkpt>
      <trkpt lat="59.080524444580078" lon="30.005335807800293">
        <time>2026-04-25T11:22:10Z</time>
      </trkpt>
      <trkpt lat="59.080545902252197" lon="30.005335807800293">
        <time>2026-04-25T11:22:13Z</time>
      </trkpt>
      <trkpt lat="59.080545902252197" lon="30.005335807800293">
        <time>2026-04-25T11:22:15Z</time>
      </trkpt>
      <trkpt lat="59.080545902252197" lon="30.005335807800293">
        <time>2026-04-25T11:22:18Z</time>
      </trkpt>
      <trkpt lat="59.080545902252197" lon="30.005335807800293">
        <time>2026-04-25T11:22:20Z</time>
      </trkpt>
      <trkpt lat="59.080545902252197" lon="30.005335807800293">
        <time>2026-04-25T11:22:23Z</time>
      </trkpt>
      <trkpt lat="59.080545902252197" lon="30.005335807800293">
        <time>2026-04-25T11:22:25Z</time>
      </trkpt>
      <trkpt lat="59.080545902252197" lon="30.005335807800293">
        <time>2026-04-25T11:22:28Z</time>
      </trkpt>
      <trkpt lat="59.080545902252197" lon="30.005335807800293">
        <time>2026-04-25T11:22:30Z</time>
      </trkpt>
      <trkpt lat="59.080545902252197" lon="30.005335807800293">
        <time>2026-04-25T11:22:33Z</time>
      </trkpt>
      <trkpt lat="59.080545902252197" lon="30.005335807800293">
        <time>2026-04-25T11:22:35Z</time>
      </trkpt>
      <trkpt lat="59.080567359924316" lon="30.005357265472412">
        <time>2026-04-25T11:22:38Z</time>
      </trkpt>
      <trkpt lat="59.080588817596436" lon="30.00542163848877">
        <time>2026-04-25T11:22:40Z</time>
      </trkpt>
      <trkpt lat="59.080610275268555" lon="30.005486011505127">
        <time>2026-04-25T11:22:43Z</time>
      </trkpt>
      <trkpt lat="59.080631732940674" lon="30.005528926849365">
        <time>2026-04-25T11:22:45Z</time>
      </trkpt>
      <trkpt lat="59.080631732940674" lon="30.005571842193604">
        <time>2026-04-25T11:22:48Z</time>
      </trkpt>
      <trkpt lat="59.080631732940674" lon="30.005593299865723">
        <time>2026-04-25T11:22:50Z</time>
      </trkpt>
      <trkpt lat="59.080610275268555" lon="30.005636215209961">
        <time>2026-04-25T11:22:53Z</time>
      </trkpt>
      <trkpt lat="59.080588817596436" lon="30.005636215209961">
        <time>2026-04-25T11:22:55Z</time>
      </trkpt>
      <trkpt lat="59.080588817596436" lon="30.00565767288208">
        <time>2026-04-25T11:22:58Z</time>
      </trkpt>
      <trkpt lat="59.080588817596436" lon="30.005700588226318">
        <time>2026-04-25T11:23:00Z</time>
      </trkpt>
      <trkpt lat="59.080610275268555" lon="30.005722045898438">
        <time>2026-04-25T11:23:03Z</time>
      </trkpt>
      <trkpt lat="59.080610275268555" lon="30.005743503570557">
        <time>2026-04-25T11:23:05Z</time>
      </trkpt>
      <trkpt lat="59.080631732940674" lon="30.005764961242676">
        <time>2026-04-25T11:23:08Z</time>
      </trkpt>
      <trkpt lat="59.080631732940674" lon="30.005786418914795">
        <time>2026-04-25T11:23:10Z</time>
      </trkpt>
      <trkpt lat="59.080631732940674" lon="30.005807876586914">
        <time>2026-04-25T11:23:13Z</time>
      </trkpt>
      <trkpt lat="59.080653190612793" lon="30.005850791931152">
        <time>2026-04-25T11:23:15Z</time>
      </trkpt>
      <trkpt lat="59.080653190612793" lon="30.005872249603271">
        <time>2026-04-25T11:23:18Z</time>
      </trkpt>
      <trkpt lat="59.080674648284912" lon="30.005893707275391">
        <time>2026-04-25T11:23:20Z</time>
      </trkpt>
      <trkpt lat="59.080674648284912" lon="30.00591516494751">
        <time>2026-04-25T11:23:23Z</time>
      </trkpt>
      <trkpt lat="59.080674648284912" lon="30.00591516494751">
        <time>2026-04-25T11:23:25Z</time>
      </trkpt>
      <trkpt lat="59.080674648284912" lon="30.00591516494751">
        <time>2026-04-25T11:23:28Z</time>
      </trkpt>
      <trkpt lat="59.080674648284912" lon="30.00591516494751">
        <time>2026-04-25T11:23:30Z</time>
      </trkpt>
      <trkpt lat="59.080653190612793" lon="30.00591516494751">
        <time>2026-04-25T11:23:33Z</time>
      </trkpt>
      <trkpt lat="59.080653190612793" lon="30.005936622619629">
        <time>2026-04-25T11:23:35Z</time>
      </trkpt>
      <trkpt lat="59.080631732940674" lon="30.005958080291748">
        <time>2026-04-25T11:23:38Z</time>
      </trkpt>
      <trkpt lat="59.080631732940674" lon="30.005979537963867">
        <time>2026-04-25T11:23:40Z</time>
      </trkpt>
      <trkpt lat="59.080631732940674" lon="30.006000995635986">
        <time>2026-04-25T11:23:43Z</time>
      </trkpt>
      <trkpt lat="59.080653190612793" lon="30.006000995635986">
        <time>2026-04-25T11:23:45Z</time>
      </trkpt>
      <trkpt lat="59.080653190612793" lon="30.006043910980225">
        <time>2026-04-25T11:23:48Z</time>
      </trkpt>
      <trkpt lat="59.080653190612793" lon="30.006043910980225">
        <time>2026-04-25T11:23:50Z</time>
      </trkpt>
      <trkpt lat="59.080653190612793" lon="30.006065368652344">
        <time>2026-04-25T11:23:53Z</time>
      </trkpt>
      <trkpt lat="59.080631732940674" lon="30.006086826324463">
        <time>2026-04-25T11:23:55Z</time>
      </trkpt>
      <trkpt lat="59.080631732940674" lon="30.006108283996582">
        <time>2026-04-25T11:23:58Z</time>
      </trkpt>
      <trkpt lat="59.080631732940674" lon="30.006108283996582">
        <time>2026-04-25T11:24:00Z</time>
      </trkpt>
      <trkpt lat="59.080631732940674" lon="30.006108283996582">
        <time>2026-04-25T11:24:03Z</time>
      </trkpt>
      <trkpt lat="59.080631732940674" lon="30.006108283996582">
        <time>2026-04-25T11:24:05Z</time>
      </trkpt>
      <trkpt lat="59.080631732940674" lon="30.006108283996582">
        <time>2026-04-25T11:24:08Z</time>
      </trkpt>
      <trkpt lat="59.080631732940674" lon="30.006108283996582">
        <time>2026-04-25T11:24:10Z</time>
      </trkpt>
      <trkpt lat="59.080631732940674" lon="30.006108283996582">
        <time>2026-04-25T11:24:13Z</time>
      </trkpt>
      <trkpt lat="59.080631732940674" lon="30.006108283996582">
        <time>2026-04-25T11:24:15Z</time>
      </trkpt>
      <trkpt lat="59.080631732940674" lon="30.006108283996582">
        <time>2026-04-25T11:24:18Z</time>
      </trkpt>
      <trkpt lat="59.080631732940674" lon="30.006129741668701">
        <time>2026-04-25T11:24:20Z</time>
      </trkpt>
      <trkpt lat="59.080631732940674" lon="30.00615119934082">
        <time>2026-04-25T11:24:23Z</time>
      </trkpt>
      <trkpt lat="59.080631732940674" lon="30.006172657012939">
        <time>2026-04-25T11:24:25Z</time>
      </trkpt>
      <trkpt lat="59.080631732940674" lon="30.006194114685059">
        <time>2026-04-25T11:24:28Z</time>
      </trkpt>
      <trkpt lat="59.080631732940674" lon="30.006215572357178">
        <time>2026-04-25T11:24:30Z</time>
      </trkpt>
      <trkpt lat="59.080631732940674" lon="30.006237030029297">
        <time>2026-04-25T11:24:33Z</time>
      </trkpt>
      <trkpt lat="59.080631732940674" lon="30.006258487701416">
        <time>2026-04-25T11:24:35Z</time>
      </trkpt>
      <trkpt lat="59.080631732940674" lon="30.006258487701416">
        <time>2026-04-25T11:24:38Z</time>
      </trkpt>
      <trkpt lat="59.080631732940674" lon="30.006279945373535">
        <time>2026-04-25T11:24:40Z</time>
      </trkpt>
      <trkpt lat="59.080631732940674" lon="30.006301403045654">
        <time>2026-04-25T11:24:43Z</time>
      </trkpt>
      <trkpt lat="59.080631732940674" lon="30.006322860717773">
        <time>2026-04-25T11:24:45Z</time>
      </trkpt>
      <trkpt lat="59.080631732940674" lon="30.006344318389893">
        <time>2026-04-25T11:24:48Z</time>
      </trkpt>
      <trkpt lat="59.080631732940674" lon="30.006387233734131">
        <time>2026-04-25T11:24:50Z</time>
      </trkpt>
      <trkpt lat="59.080653190612793" lon="30.006387233734131">
        <time>2026-04-25T11:24:53Z</time>
      </trkpt>
      <trkpt lat="59.080653190612793" lon="30.00640869140625">
        <time>2026-04-25T11:24:55Z</time>
      </trkpt>
      <trkpt lat="59.080653190612793" lon="30.00640869140625">
        <time>2026-04-25T11:24:58Z</time>
      </trkpt>
      <trkpt lat="59.080653190612793" lon="30.00640869140625">
        <time>2026-04-25T11:25:00Z</time>
      </trkpt>
      <trkpt lat="59.080653190612793" lon="30.00640869140625">
        <time>2026-04-25T11:25:03Z</time>
      </trkpt>
      <trkpt lat="59.080653190612793" lon="30.00640869140625">
        <time>2026-04-25T11:25:05Z</time>
      </trkpt>
      <trkpt lat="59.080653190612793" lon="30.00640869140625">
        <time>2026-04-25T11:25:08Z</time>
      </trkpt>
      <trkpt lat="59.080653190612793" lon="30.00640869140625">
        <time>2026-04-25T11:25:10Z</time>
      </trkpt>
      <trkpt lat="59.080653190612793" lon="30.00640869140625">
        <time>2026-04-25T11:25:13Z</time>
      </trkpt>
      <trkpt lat="59.080653190612793" lon="30.00640869140625">
        <time>2026-04-25T11:25:15Z</time>
      </trkpt>
      <trkpt lat="59.080653190612793" lon="30.00640869140625">
        <time>2026-04-25T11:25:18Z</time>
      </trkpt>
      <trkpt lat="59.080653190612793" lon="30.00640869140625">
        <time>2026-04-25T11:25:20Z</time>
      </trkpt>
      <trkpt lat="59.080653190612793" lon="30.00640869140625">
        <time>2026-04-25T11:25:23Z</time>
      </trkpt>
      <trkpt lat="59.080653190612793" lon="30.00640869140625">
        <time>2026-04-25T11:25:25Z</time>
      </trkpt>
      <trkpt lat="59.080653190612793" lon="30.006430149078369">
        <time>2026-04-25T11:25:28Z</time>
      </trkpt>
      <trkpt lat="59.080653190612793" lon="30.006430149078369">
        <time>2026-04-25T11:25:30Z</time>
      </trkpt>
      <trkpt lat="59.080653190612793" lon="30.006451606750488">
        <time>2026-04-25T11:25:33Z</time>
      </trkpt>
      <trkpt lat="59.080674648284912" lon="30.006473064422607">
        <time>2026-04-25T11:25:35Z</time>
      </trkpt>
      <trkpt lat="59.080674648284912" lon="30.006473064422607">
        <time>2026-04-25T11:25:38Z</time>
      </trkpt>
      <trkpt lat="59.080674648284912" lon="30.006494522094727">
        <time>2026-04-25T11:25:40Z</time>
      </trkpt>
      <trkpt lat="59.080674648284912" lon="30.006515979766846">
        <time>2026-04-25T11:25:43Z</time>
      </trkpt>
      <trkpt lat="59.080674648284912" lon="30.006558895111084">
        <time>2026-04-25T11:25:45Z</time>
      </trkpt>
      <trkpt lat="59.080674648284912" lon="30.006558895111084">
        <time>2026-04-25T11:25:48Z</time>
      </trkpt>
      <trkpt lat="59.080674648284912" lon="30.006580352783203">
        <time>2026-04-25T11:25:50Z</time>
      </trkpt>
      <trkpt lat="59.080674648284912" lon="30.006601810455322">
        <time>2026-04-25T11:25:53Z</time>
      </trkpt>
      <trkpt lat="59.080674648284912" lon="30.006623268127441">
        <time>2026-04-25T11:25:55Z</time>
      </trkpt>
      <trkpt lat="59.080674648284912" lon="30.006644725799561">
        <time>2026-04-25T11:25:58Z</time>
      </trkpt>
      <trkpt lat="59.080674648284912" lon="30.006644725799561">
        <time>2026-04-25T11:26:00Z</time>
      </trkpt>
      <trkpt lat="59.080674648284912" lon="30.00666618347168">
        <time>2026-04-25T11:26:03Z</time>
      </trkpt>
      <trkpt lat="59.080696105957031" lon="30.006687641143799">
        <time>2026-04-25T11:26:05Z</time>
      </trkpt>
      <trkpt lat="59.080696105957031" lon="30.006709098815918">
        <time>2026-04-25T11:26:08Z</time>
      </trkpt>
      <trkpt lat="59.08071756362915" lon="30.006752014160156">
        <time>2026-04-25T11:26:10Z</time>
      </trkpt>
      <trkpt lat="59.08071756362915" lon="30.006773471832275">
        <time>2026-04-25T11:26:13Z</time>
      </trkpt>
      <trkpt lat="59.08071756362915" lon="30.006794929504395">
        <time>2026-04-25T11:26:15Z</time>
      </trkpt>
      <trkpt lat="59.08071756362915" lon="30.006816387176514">
        <time>2026-04-25T11:26:18Z</time>
      </trkpt>
      <trkpt lat="59.08071756362915" lon="30.006837844848633">
        <time>2026-04-25T11:26:20Z</time>
      </trkpt>
      <trkpt lat="59.08071756362915" lon="30.006859302520752">
        <time>2026-04-25T11:26:23Z</time>
      </trkpt>
      <trkpt lat="59.08071756362915" lon="30.006859302520752">
        <time>2026-04-25T11:26:25Z</time>
      </trkpt>
      <trkpt lat="59.08071756362915" lon="30.006880760192871">
        <time>2026-04-25T11:26:28Z</time>
      </trkpt>
      <trkpt lat="59.08071756362915" lon="30.006945133209229">
        <time>2026-04-25T11:26:30Z</time>
      </trkpt>
      <trkpt lat="59.08073902130127" lon="30.006988048553467">
        <time>2026-04-25T11:26:33Z</time>
      </trkpt>
      <trkpt lat="59.080760478973389" lon="30.007052421569824">
        <time>2026-04-25T11:26:35Z</time>
      </trkpt>
      <trkpt lat="59.080781936645508" lon="30.007095336914063">
        <time>2026-04-25T11:26:38Z</time>
      </trkpt>
      <trkpt lat="59.080781936645508" lon="30.007095336914063">
        <time>2026-04-25T11:26:40Z</time>
      </trkpt>
      <trkpt lat="59.080781936645508" lon="30.007095336914063">
        <time>2026-04-25T11:26:43Z</time>
      </trkpt>
      <trkpt lat="59.080781936645508" lon="30.007138252258301">
        <time>2026-04-25T11:26:45Z</time>
      </trkpt>
      <trkpt lat="59.080781936645508" lon="30.007181167602539">
        <time>2026-04-25T11:26:48Z</time>
      </trkpt>
      <trkpt lat="59.080803394317627" lon="30.007245540618896">
        <time>2026-04-25T11:26:50Z</time>
      </trkpt>
      <trkpt lat="59.080803394317627" lon="30.007288455963135">
        <time>2026-04-25T11:26:53Z</time>
      </trkpt>
      <trkpt lat="59.080803394317627" lon="30.007331371307373">
        <time>2026-04-25T11:26:55Z</time>
      </trkpt>
      <trkpt lat="59.080803394317627" lon="30.007331371307373">
        <time>2026-04-25T11:26:58Z</time>
      </trkpt>
      <trkpt lat="59.080803394317627" lon="30.007352828979492">
        <time>2026-04-25T11:27:00Z</time>
      </trkpt>
      <trkpt lat="59.080803394317627" lon="30.007374286651611">
        <time>2026-04-25T11:27:03Z</time>
      </trkpt>
      <trkpt lat="59.080824851989746" lon="30.007352828979492">
        <time>2026-04-25T11:27:05Z</time>
      </trkpt>
      <trkpt lat="59.080824851989746" lon="30.00739574432373">
        <time>2026-04-25T11:27:08Z</time>
      </trkpt>
      <trkpt lat="59.080824851989746" lon="30.007438659667969">
        <time>2026-04-25T11:27:10Z</time>
      </trkpt>
      <trkpt lat="59.080824851989746" lon="30.007460117340088">
        <time>2026-04-25T11:27:13Z</time>
      </trkpt>
      <trkpt lat="59.080824851989746" lon="30.007503032684326">
        <time>2026-04-25T11:27:15Z</time>
      </trkpt>
      <trkpt lat="59.080824851989746" lon="30.007545948028564">
        <time>2026-04-25T11:27:18Z</time>
      </trkpt>
      <trkpt lat="59.080824851989746" lon="30.007545948028564">
        <time>2026-04-25T11:27:20Z</time>
      </trkpt>
      <trkpt lat="59.080824851989746" lon="30.007545948028564">
        <time>2026-04-25T11:27:23Z</time>
      </trkpt>
      <trkpt lat="59.080824851989746" lon="30.007545948028564">
        <time>2026-04-25T11:27:25Z</time>
      </trkpt>
      <trkpt lat="59.080824851989746" lon="30.007545948028564">
        <time>2026-04-25T11:27:28Z</time>
      </trkpt>
      <trkpt lat="59.080824851989746" lon="30.007503032684326">
        <time>2026-04-25T11:27:30Z</time>
      </trkpt>
      <trkpt lat="59.080846309661865" lon="30.007460117340088">
        <time>2026-04-25T11:27:33Z</time>
      </trkpt>
      <trkpt lat="59.080824851989746" lon="30.00741720199585">
        <time>2026-04-25T11:27:35Z</time>
      </trkpt>
      <trkpt lat="59.080803394317627" lon="30.00739574432373">
        <time>2026-04-25T11:27:38Z</time>
      </trkpt>
      <trkpt lat="59.080803394317627" lon="30.00741720199585">
        <time>2026-04-25T11:27:40Z</time>
      </trkpt>
      <trkpt lat="59.080803394317627" lon="30.00741720199585">
        <time>2026-04-25T11:27:43Z</time>
      </trkpt>
      <trkpt lat="59.080803394317627" lon="30.00741720199585">
        <time>2026-04-25T11:27:45Z</time>
      </trkpt>
      <trkpt lat="59.080803394317627" lon="30.00741720199585">
        <time>2026-04-25T11:27:48Z</time>
      </trkpt>
      <trkpt lat="59.080803394317627" lon="30.00741720199585">
        <time>2026-04-25T11:27:50Z</time>
      </trkpt>
      <trkpt lat="59.080803394317627" lon="30.00739574432373">
        <time>2026-04-25T11:27:53Z</time>
      </trkpt>
      <trkpt lat="59.080803394317627" lon="30.00739574432373">
        <time>2026-04-25T11:27:55Z</time>
      </trkpt>
      <trkpt lat="59.080803394317627" lon="30.00739574432373">
        <time>2026-04-25T11:27:58Z</time>
      </trkpt>
      <trkpt lat="59.080803394317627" lon="30.00739574432373">
        <time>2026-04-25T11:28:00Z</time>
      </trkpt>
      <trkpt lat="59.080803394317627" lon="30.00739574432373">
        <time>2026-04-25T11:28:03Z</time>
      </trkpt>
      <trkpt lat="59.080803394317627" lon="30.00739574432373">
        <time>2026-04-25T11:28:05Z</time>
      </trkpt>
      <trkpt lat="59.080803394317627" lon="30.00739574432373">
        <time>2026-04-25T11:28:08Z</time>
      </trkpt>
      <trkpt lat="59.080803394317627" lon="30.00739574432373">
        <time>2026-04-25T11:28:10Z</time>
      </trkpt>
      <trkpt lat="59.080803394317627" lon="30.00739574432373">
        <time>2026-04-25T11:28:13Z</time>
      </trkpt>
      <trkpt lat="59.080803394317627" lon="30.00739574432373">
        <time>2026-04-25T11:28:15Z</time>
      </trkpt>
      <trkpt lat="59.080803394317627" lon="30.00739574432373">
        <time>2026-04-25T11:28:18Z</time>
      </trkpt>
      <trkpt lat="59.080803394317627" lon="30.00739574432373">
        <time>2026-04-25T11:28:20Z</time>
      </trkpt>
      <trkpt lat="59.080803394317627" lon="30.00739574432373">
        <time>2026-04-25T11:28:23Z</time>
      </trkpt>
      <trkpt lat="59.080803394317627" lon="30.00739574432373">
        <time>2026-04-25T11:28:25Z</time>
      </trkpt>
      <trkpt lat="59.080781936645508" lon="30.00741720199585">
        <time>2026-04-25T11:28:28Z</time>
      </trkpt>
      <trkpt lat="59.08073902130127" lon="30.007438659667969">
        <time>2026-04-25T11:28:30Z</time>
      </trkpt>
      <trkpt lat="59.08071756362915" lon="30.007460117340088">
        <time>2026-04-25T11:28:33Z</time>
      </trkpt>
      <trkpt lat="59.08071756362915" lon="30.007460117340088">
        <time>2026-04-25T11:28:35Z</time>
      </trkpt>
      <trkpt lat="59.08073902130127" lon="30.007460117340088">
        <time>2026-04-25T11:28:38Z</time>
      </trkpt>
      <trkpt lat="59.080760478973389" lon="30.007503032684326">
        <time>2026-04-25T11:28:40Z</time>
      </trkpt>
      <trkpt lat="59.08073902130127" lon="30.007524490356445">
        <time>2026-04-25T11:28:43Z</time>
      </trkpt>
      <trkpt lat="59.08073902130127" lon="30.007545948028564">
        <time>2026-04-25T11:28:45Z</time>
      </trkpt>
      <trkpt lat="59.08071756362915" lon="30.007588863372803">
        <time>2026-04-25T11:28:48Z</time>
      </trkpt>
      <trkpt lat="59.08071756362915" lon="30.007588863372803">
        <time>2026-04-25T11:28:50Z</time>
      </trkpt>
      <trkpt lat="59.08071756362915" lon="30.007588863372803">
        <time>2026-04-25T11:28:53Z</time>
      </trkpt>
      <trkpt lat="59.08071756362915" lon="30.007610321044922">
        <time>2026-04-25T11:28:55Z</time>
      </trkpt>
      <trkpt lat="59.080696105957031" lon="30.007631778717041">
        <time>2026-04-25T11:28:58Z</time>
      </trkpt>
      <trkpt lat="59.080696105957031" lon="30.00765323638916">
        <time>2026-04-25T11:29:00Z</time>
      </trkpt>
      <trkpt lat="59.080696105957031" lon="30.007674694061279">
        <time>2026-04-25T11:29:03Z</time>
      </trkpt>
      <trkpt lat="59.080696105957031" lon="30.007696151733398">
        <time>2026-04-25T11:29:05Z</time>
      </trkpt>
      <trkpt lat="59.080696105957031" lon="30.007674694061279">
        <time>2026-04-25T11:29:08Z</time>
      </trkpt>
      <trkpt lat="59.080674648284912" lon="30.007610321044922">
        <time>2026-04-25T11:29:10Z</time>
      </trkpt>
      <trkpt lat="59.080653190612793" lon="30.007567405700684">
        <time>2026-04-25T11:29:13Z</time>
      </trkpt>
      <trkpt lat="59.080631732940674" lon="30.007567405700684">
        <time>2026-04-25T11:29:15Z</time>
      </trkpt>
      <trkpt lat="59.080610275268555" lon="30.007567405700684">
        <time>2026-04-25T11:29:18Z</time>
      </trkpt>
      <trkpt lat="59.080610275268555" lon="30.007567405700684">
        <time>2026-04-25T11:29:20Z</time>
      </trkpt>
      <trkpt lat="59.080610275268555" lon="30.007567405700684">
        <time>2026-04-25T11:29:23Z</time>
      </trkpt>
      <trkpt lat="59.080588817596436" lon="30.007567405700684">
        <time>2026-04-25T11:29:25Z</time>
      </trkpt>
      <trkpt lat="59.080567359924316" lon="30.007588863372803">
        <time>2026-04-25T11:29:28Z</time>
      </trkpt>
      <trkpt lat="59.080545902252197" lon="30.007588863372803">
        <time>2026-04-25T11:29:30Z</time>
      </trkpt>
      <trkpt lat="59.080524444580078" lon="30.007588863372803">
        <time>2026-04-25T11:29:33Z</time>
      </trkpt>
      <trkpt lat="59.080524444580078" lon="30.007588863372803">
        <time>2026-04-25T11:29:35Z</time>
      </trkpt>
      <trkpt lat="59.080524444580078" lon="30.007588863372803">
        <time>2026-04-25T11:29:38Z</time>
      </trkpt>
      <trkpt lat="59.080502986907959" lon="30.007567405700684">
        <time>2026-04-25T11:29:40Z</time>
      </trkpt>
      <trkpt lat="59.08048152923584" lon="30.007567405700684">
        <time>2026-04-25T11:29:43Z</time>
      </trkpt>
      <trkpt lat="59.08048152923584" lon="30.007567405700684">
        <time>2026-04-25T11:29:45Z</time>
      </trkpt>
      <trkpt lat="59.08048152923584" lon="30.007567405700684">
        <time>2026-04-25T11:29:48Z</time>
      </trkpt>
      <trkpt lat="59.08048152923584" lon="30.007567405700684">
        <time>2026-04-25T11:29:50Z</time>
      </trkpt>
      <trkpt lat="59.08048152923584" lon="30.007567405700684">
        <time>2026-04-25T11:29:53Z</time>
      </trkpt>
      <trkpt lat="59.08048152923584" lon="30.007567405700684">
        <time>2026-04-25T11:29:55Z</time>
      </trkpt>
      <trkpt lat="59.08048152923584" lon="30.007567405700684">
        <time>2026-04-25T11:29:58Z</time>
      </trkpt>
      <trkpt lat="59.08048152923584" lon="30.007567405700684">
        <time>2026-04-25T11:30:00Z</time>
      </trkpt>
      <trkpt lat="59.08048152923584" lon="30.007567405700684">
        <time>2026-04-25T11:30:03Z</time>
      </trkpt>
      <trkpt lat="59.08048152923584" lon="30.007567405700684">
        <time>2026-04-25T11:30:05Z</time>
      </trkpt>
      <trkpt lat="59.08048152923584" lon="30.007567405700684">
        <time>2026-04-25T11:30:08Z</time>
      </trkpt>
      <trkpt lat="59.08048152923584" lon="30.007567405700684">
        <time>2026-04-25T11:30:10Z</time>
      </trkpt>
      <trkpt lat="59.08048152923584" lon="30.007567405700684">
        <time>2026-04-25T11:30:13Z</time>
      </trkpt>
      <trkpt lat="59.08048152923584" lon="30.007567405700684">
        <time>2026-04-25T11:30:15Z</time>
      </trkpt>
      <trkpt lat="59.08048152923584" lon="30.007567405700684">
        <time>2026-04-25T11:30:18Z</time>
      </trkpt>
      <trkpt lat="59.08048152923584" lon="30.007567405700684">
        <time>2026-04-25T11:30:20Z</time>
      </trkpt>
      <trkpt lat="59.08048152923584" lon="30.007567405700684">
        <time>2026-04-25T11:30:23Z</time>
      </trkpt>
      <trkpt lat="59.08048152923584" lon="30.007567405700684">
        <time>2026-04-25T11:30:25Z</time>
      </trkpt>
      <trkpt lat="59.08048152923584" lon="30.007567405700684">
        <time>2026-04-25T11:30:28Z</time>
      </trkpt>
      <trkpt lat="59.08048152923584" lon="30.007567405700684">
        <time>2026-04-25T11:30:30Z</time>
      </trkpt>
      <trkpt lat="59.08048152923584" lon="30.007567405700684">
        <time>2026-04-25T11:30:33Z</time>
      </trkpt>
      <trkpt lat="59.08048152923584" lon="30.007567405700684">
        <time>2026-04-25T11:30:35Z</time>
      </trkpt>
      <trkpt lat="59.08048152923584" lon="30.007567405700684">
        <time>2026-04-25T11:30:38Z</time>
      </trkpt>
      <trkpt lat="59.08048152923584" lon="30.007567405700684">
        <time>2026-04-25T11:30:40Z</time>
      </trkpt>
      <trkpt lat="59.08048152923584" lon="30.007567405700684">
        <time>2026-04-25T11:30:43Z</time>
      </trkpt>
      <trkpt lat="59.08048152923584" lon="30.007588863372803">
        <time>2026-04-25T11:30:45Z</time>
      </trkpt>
      <trkpt lat="59.08048152923584" lon="30.007588863372803">
        <time>2026-04-25T11:30:48Z</time>
      </trkpt>
      <trkpt lat="59.08048152923584" lon="30.007588863372803">
        <time>2026-04-25T11:30:50Z</time>
      </trkpt>
      <trkpt lat="59.08048152923584" lon="30.007588863372803">
        <time>2026-04-25T11:30:53Z</time>
      </trkpt>
      <trkpt lat="59.08048152923584" lon="30.007588863372803">
        <time>2026-04-25T11:30:55Z</time>
      </trkpt>
      <trkpt lat="59.08048152923584" lon="30.007588863372803">
        <time>2026-04-25T11:30:58Z</time>
      </trkpt>
      <trkpt lat="59.08048152923584" lon="30.007588863372803">
        <time>2026-04-25T11:31:00Z</time>
      </trkpt>
      <trkpt lat="59.08048152923584" lon="30.007545948028564">
        <time>2026-04-25T11:31:03Z</time>
      </trkpt>
      <trkpt lat="59.080460071563721" lon="30.007460117340088">
        <time>2026-04-25T11:31:05Z</time>
      </trkpt>
      <trkpt lat="59.080460071563721" lon="30.007438659667969">
        <time>2026-04-25T11:31:08Z</time>
      </trkpt>
      <trkpt lat="59.080438613891602" lon="30.00739574432373">
        <time>2026-04-25T11:31:10Z</time>
      </trkpt>
      <trkpt lat="59.080438613891602" lon="30.007374286651611">
        <time>2026-04-25T11:31:13Z</time>
      </trkpt>
      <trkpt lat="59.080417156219482" lon="30.007374286651611">
        <time>2026-04-25T11:31:15Z</time>
      </trkpt>
      <trkpt lat="59.080417156219482" lon="30.007352828979492">
        <time>2026-04-25T11:31:18Z</time>
      </trkpt>
      <trkpt lat="59.080417156219482" lon="30.007309913635254">
        <time>2026-04-25T11:31:20Z</time>
      </trkpt>
      <trkpt lat="59.080417156219482" lon="30.007266998291016">
        <time>2026-04-25T11:31:23Z</time>
      </trkpt>
      <trkpt lat="59.080417156219482" lon="30.007224082946777">
        <time>2026-04-25T11:31:25Z</time>
      </trkpt>
      <trkpt lat="59.080417156219482" lon="30.007181167602539">
        <time>2026-04-25T11:31:28Z</time>
      </trkpt>
      <trkpt lat="59.080417156219482" lon="30.007181167602539">
        <time>2026-04-25T11:31:30Z</time>
      </trkpt>
      <trkpt lat="59.080417156219482" lon="30.007181167602539">
        <time>2026-04-25T11:31:33Z</time>
      </trkpt>
      <trkpt lat="59.080417156219482" lon="30.007181167602539">
        <time>2026-04-25T11:31:35Z</time>
      </trkpt>
      <trkpt lat="59.080417156219482" lon="30.007181167602539">
        <time>2026-04-25T11:31:38Z</time>
      </trkpt>
      <trkpt lat="59.080395698547363" lon="30.007181167602539">
        <time>2026-04-25T11:31:40Z</time>
      </trkpt>
      <trkpt lat="59.080395698547363" lon="30.007181167602539">
        <time>2026-04-25T11:31:43Z</time>
      </trkpt>
      <trkpt lat="59.080395698547363" lon="30.007138252258301">
        <time>2026-04-25T11:31:45Z</time>
      </trkpt>
      <trkpt lat="59.080395698547363" lon="30.007095336914063">
        <time>2026-04-25T11:31:48Z</time>
      </trkpt>
      <trkpt lat="59.080374240875244" lon="30.007095336914063">
        <time>2026-04-25T11:31:50Z</time>
      </trkpt>
      <trkpt lat="59.080352783203125" lon="30.007073879241943">
        <time>2026-04-25T11:31:53Z</time>
      </trkpt>
      <trkpt lat="59.080352783203125" lon="30.007052421569824">
        <time>2026-04-25T11:31:55Z</time>
      </trkpt>
      <trkpt lat="59.080352783203125" lon="30.007052421569824">
        <time>2026-04-25T11:31:58Z</time>
      </trkpt>
      <trkpt lat="59.080352783203125" lon="30.007052421569824">
        <time>2026-04-25T11:32:00Z</time>
      </trkpt>
      <trkpt lat="59.080352783203125" lon="30.007030963897705">
        <time>2026-04-25T11:32:03Z</time>
      </trkpt>
      <trkpt lat="59.080352783203125" lon="30.006966590881348">
        <time>2026-04-25T11:32:05Z</time>
      </trkpt>
      <trkpt lat="59.080352783203125" lon="30.006966590881348">
        <time>2026-04-25T11:32:08Z</time>
      </trkpt>
      <trkpt lat="59.080331325531006" lon="30.006923675537109">
        <time>2026-04-25T11:32:10Z</time>
      </trkpt>
      <trkpt lat="59.080331325531006" lon="30.006880760192871">
        <time>2026-04-25T11:32:13Z</time>
      </trkpt>
      <trkpt lat="59.080309867858887" lon="30.006837844848633">
        <time>2026-04-25T11:32:15Z</time>
      </trkpt>
      <trkpt lat="59.080309867858887" lon="30.006816387176514">
        <time>2026-04-25T11:32:18Z</time>
      </trkpt>
      <trkpt lat="59.080309867858887" lon="30.006794929504395">
        <time>2026-04-25T11:32:20Z</time>
      </trkpt>
      <trkpt lat="59.080288410186768" lon="30.006752014160156">
        <time>2026-04-25T11:32:23Z</time>
      </trkpt>
      <trkpt lat="59.080266952514648" lon="30.006730556488037">
        <time>2026-04-25T11:32:25Z</time>
      </trkpt>
      <trkpt lat="59.080245494842529" lon="30.006687641143799">
        <time>2026-04-25T11:32:28Z</time>
      </trkpt>
      <trkpt lat="59.080266952514648" lon="30.006644725799561">
        <time>2026-04-25T11:32:30Z</time>
      </trkpt>
      <trkpt lat="59.080245494842529" lon="30.006580352783203">
        <time>2026-04-25T11:32:33Z</time>
      </trkpt>
      <trkpt lat="59.080245494842529" lon="30.006537437438965">
        <time>2026-04-25T11:32:35Z</time>
      </trkpt>
      <trkpt lat="59.080245494842529" lon="30.006473064422607">
        <time>2026-04-25T11:32:38Z</time>
      </trkpt>
      <trkpt lat="59.080245494842529" lon="30.006430149078369">
        <time>2026-04-25T11:32:40Z</time>
      </trkpt>
      <trkpt lat="59.080266952514648" lon="30.006430149078369">
        <time>2026-04-25T11:32:43Z</time>
      </trkpt>
      <trkpt lat="59.080266952514648" lon="30.006430149078369">
        <time>2026-04-25T11:32:45Z</time>
      </trkpt>
      <trkpt lat="59.080266952514648" lon="30.006430149078369">
        <time>2026-04-25T11:32:48Z</time>
      </trkpt>
      <trkpt lat="59.080288410186768" lon="30.006387233734131">
        <time>2026-04-25T11:32:50Z</time>
      </trkpt>
      <trkpt lat="59.080309867858887" lon="30.006387233734131">
        <time>2026-04-25T11:32:53Z</time>
      </trkpt>
      <trkpt lat="59.080309867858887" lon="30.006387233734131">
        <time>2026-04-25T11:32:55Z</time>
      </trkpt>
      <trkpt lat="59.080309867858887" lon="30.006387233734131">
        <time>2026-04-25T11:32:58Z</time>
      </trkpt>
      <trkpt lat="59.080309867858887" lon="30.006387233734131">
        <time>2026-04-25T11:33:00Z</time>
      </trkpt>
      <trkpt lat="59.080331325531006" lon="30.006365776062012">
        <time>2026-04-25T11:33:03Z</time>
      </trkpt>
      <trkpt lat="59.080331325531006" lon="30.006365776062012">
        <time>2026-04-25T11:33:05Z</time>
      </trkpt>
      <trkpt lat="59.080352783203125" lon="30.006322860717773">
        <time>2026-04-25T11:33:08Z</time>
      </trkpt>
      <trkpt lat="59.080331325531006" lon="30.006301403045654">
        <time>2026-04-25T11:33:10Z</time>
      </trkpt>
      <trkpt lat="59.080331325531006" lon="30.006258487701416">
        <time>2026-04-25T11:33:13Z</time>
      </trkpt>
      <trkpt lat="59.080331325531006" lon="30.006215572357178">
        <time>2026-04-25T11:33:15Z</time>
      </trkpt>
      <trkpt lat="59.080331325531006" lon="30.006194114685059">
        <time>2026-04-25T11:33:18Z</time>
      </trkpt>
      <trkpt lat="59.080309867858887" lon="30.006172657012939">
        <time>2026-04-25T11:33:20Z</time>
      </trkpt>
      <trkpt lat="59.080309867858887" lon="30.00615119934082">
        <time>2026-04-25T11:33:23Z</time>
      </trkpt>
      <trkpt lat="59.080288410186768" lon="30.006108283996582">
        <time>2026-04-25T11:33:25Z</time>
      </trkpt>
      <trkpt lat="59.080266952514648" lon="30.006108283996582">
        <time>2026-04-25T11:33:28Z</time>
      </trkpt>
      <trkpt lat="59.080266952514648" lon="30.006108283996582">
        <time>2026-04-25T11:33:30Z</time>
      </trkpt>
      <trkpt lat="59.080266952514648" lon="30.006108283996582">
        <time>2026-04-25T11:33:33Z</time>
      </trkpt>
      <trkpt lat="59.080266952514648" lon="30.006108283996582">
        <time>2026-04-25T11:33:35Z</time>
      </trkpt>
      <trkpt lat="59.080266952514648" lon="30.006086826324463">
        <time>2026-04-25T11:33:38Z</time>
      </trkpt>
      <trkpt lat="59.080245494842529" lon="30.006043910980225">
        <time>2026-04-25T11:33:40Z</time>
      </trkpt>
      <trkpt lat="59.08022403717041" lon="30.006022453308105">
        <time>2026-04-25T11:33:43Z</time>
      </trkpt>
      <trkpt lat="59.080202579498291" lon="30.006000995635986">
        <time>2026-04-25T11:33:45Z</time>
      </trkpt>
      <trkpt lat="59.080181121826172" lon="30.005958080291748">
        <time>2026-04-25T11:33:48Z</time>
      </trkpt>
      <trkpt lat="59.080181121826172" lon="30.005893707275391">
        <time>2026-04-25T11:33:50Z</time>
      </trkpt>
      <trkpt lat="59.080202579498291" lon="30.005872249603271">
        <time>2026-04-25T11:33:53Z</time>
      </trkpt>
      <trkpt lat="59.08022403717041" lon="30.005829334259033">
        <time>2026-04-25T11:33:55Z</time>
      </trkpt>
      <trkpt lat="59.080245494842529" lon="30.005786418914795">
        <time>2026-04-25T11:33:58Z</time>
      </trkpt>
      <trkpt lat="59.08022403717041" lon="30.005764961242676">
        <time>2026-04-25T11:34:00Z</time>
      </trkpt>
      <trkpt lat="59.08022403717041" lon="30.005722045898438">
        <time>2026-04-25T11:34:03Z</time>
      </trkpt>
      <trkpt lat="59.08022403717041" lon="30.005700588226318">
        <time>2026-04-25T11:34:05Z</time>
      </trkpt>
      <trkpt lat="59.080202579498291" lon="30.00565767288208">
        <time>2026-04-25T11:34:08Z</time>
      </trkpt>
      <trkpt lat="59.080202579498291" lon="30.00565767288208">
        <time>2026-04-25T11:34:10Z</time>
      </trkpt>
      <trkpt lat="59.08022403717041" lon="30.005593299865723">
        <time>2026-04-25T11:34:13Z</time>
      </trkpt>
      <trkpt lat="59.080202579498291" lon="30.005550384521484">
        <time>2026-04-25T11:34:15Z</time>
      </trkpt>
      <trkpt lat="59.080202579498291" lon="30.005507469177246">
        <time>2026-04-25T11:34:18Z</time>
      </trkpt>
      <trkpt lat="59.080202579498291" lon="30.005486011505127">
        <time>2026-04-25T11:34:20Z</time>
      </trkpt>
      <trkpt lat="59.080181121826172" lon="30.005486011505127">
        <time>2026-04-25T11:34:23Z</time>
      </trkpt>
      <trkpt lat="59.080159664154053" lon="30.005464553833008">
        <time>2026-04-25T11:34:25Z</time>
      </trkpt>
      <trkpt lat="59.080159664154053" lon="30.005464553833008">
        <time>2026-04-25T11:34:28Z</time>
      </trkpt>
      <trkpt lat="59.080159664154053" lon="30.005464553833008">
        <time>2026-04-25T11:34:30Z</time>
      </trkpt>
      <trkpt lat="59.080159664154053" lon="30.005464553833008">
        <time>2026-04-25T11:34:33Z</time>
      </trkpt>
      <trkpt lat="59.080159664154053" lon="30.005486011505127">
        <time>2026-04-25T11:34:35Z</time>
      </trkpt>
      <trkpt lat="59.080159664154053" lon="30.005486011505127">
        <time>2026-04-25T11:34:38Z</time>
      </trkpt>
      <trkpt lat="59.080159664154053" lon="30.005486011505127">
        <time>2026-04-25T11:34:40Z</time>
      </trkpt>
      <trkpt lat="59.080159664154053" lon="30.005486011505127">
        <time>2026-04-25T11:34:43Z</time>
      </trkpt>
      <trkpt lat="59.080159664154053" lon="30.005486011505127">
        <time>2026-04-25T11:34:45Z</time>
      </trkpt>
      <trkpt lat="59.080159664154053" lon="30.005486011505127">
        <time>2026-04-25T11:34:48Z</time>
      </trkpt>
      <trkpt lat="59.080159664154053" lon="30.005486011505127">
        <time>2026-04-25T11:34:50Z</time>
      </trkpt>
      <trkpt lat="59.080159664154053" lon="30.005486011505127">
        <time>2026-04-25T11:34:53Z</time>
      </trkpt>
      <trkpt lat="59.080159664154053" lon="30.005486011505127">
        <time>2026-04-25T11:34:55Z</time>
      </trkpt>
      <trkpt lat="59.080159664154053" lon="30.005464553833008">
        <time>2026-04-25T11:34:58Z</time>
      </trkpt>
      <trkpt lat="59.080181121826172" lon="30.00540018081665">
        <time>2026-04-25T11:35:00Z</time>
      </trkpt>
      <trkpt lat="59.080181121826172" lon="30.005335807800293">
        <time>2026-04-25T11:35:03Z</time>
      </trkpt>
      <trkpt lat="59.080181121826172" lon="30.005249977111816">
        <time>2026-04-25T11:35:05Z</time>
      </trkpt>
      <trkpt lat="59.080181121826172" lon="30.005185604095459">
        <time>2026-04-25T11:35:08Z</time>
      </trkpt>
      <trkpt lat="59.080159664154053" lon="30.00516414642334">
        <time>2026-04-25T11:35:10Z</time>
      </trkpt>
      <trkpt lat="59.080138206481934" lon="30.005142688751221">
        <time>2026-04-25T11:35:13Z</time>
      </trkpt>
      <trkpt lat="59.080138206481934" lon="30.005142688751221">
        <time>2026-04-25T11:35:15Z</time>
      </trkpt>
      <trkpt lat="59.080138206481934" lon="30.00516414642334">
        <time>2026-04-25T11:35:18Z</time>
      </trkpt>
      <trkpt lat="59.080138206481934" lon="30.00516414642334">
        <time>2026-04-25T11:35:20Z</time>
      </trkpt>
      <trkpt lat="59.080138206481934" lon="30.00516414642334">
        <time>2026-04-25T11:35:23Z</time>
      </trkpt>
      <trkpt lat="59.080138206481934" lon="30.00516414642334">
        <time>2026-04-25T11:35:25Z</time>
      </trkpt>
      <trkpt lat="59.080138206481934" lon="30.00516414642334">
        <time>2026-04-25T11:35:28Z</time>
      </trkpt>
      <trkpt lat="59.080116748809814" lon="30.00516414642334">
        <time>2026-04-25T11:35:30Z</time>
      </trkpt>
      <trkpt lat="59.080073833465576" lon="30.00516414642334">
        <time>2026-04-25T11:35:33Z</time>
      </trkpt>
      <trkpt lat="59.080052375793457" lon="30.005185604095459">
        <time>2026-04-25T11:35:35Z</time>
      </trkpt>
      <trkpt lat="59.080052375793457" lon="30.00516414642334">
        <time>2026-04-25T11:35:38Z</time>
      </trkpt>
      <trkpt lat="59.080030918121338" lon="30.005142688751221">
        <time>2026-04-25T11:35:40Z</time>
      </trkpt>
      <trkpt lat="59.080030918121338" lon="30.00516414642334">
        <time>2026-04-25T11:35:43Z</time>
      </trkpt>
      <trkpt lat="59.080030918121338" lon="30.005207061767578">
        <time>2026-04-25T11:35:45Z</time>
      </trkpt>
      <trkpt lat="59.080030918121338" lon="30.005228519439697">
        <time>2026-04-25T11:35:48Z</time>
      </trkpt>
      <trkpt lat="59.080009460449219" lon="30.005271434783936">
        <time>2026-04-25T11:35:50Z</time>
      </trkpt>
      <trkpt lat="59.0799880027771" lon="30.005292892456055">
        <time>2026-04-25T11:35:53Z</time>
      </trkpt>
      <trkpt lat="59.0799880027771" lon="30.005335807800293">
        <time>2026-04-25T11:35:55Z</time>
      </trkpt>
      <trkpt lat="59.07996654510498" lon="30.005357265472412">
        <time>2026-04-25T11:35:58Z</time>
      </trkpt>
      <trkpt lat="59.07996654510498" lon="30.005357265472412">
        <time>2026-04-25T11:36:00Z</time>
      </trkpt>
      <trkpt lat="59.07996654510498" lon="30.005357265472412">
        <time>2026-04-25T11:36:03Z</time>
      </trkpt>
      <trkpt lat="59.07996654510498" lon="30.005357265472412">
        <time>2026-04-25T11:36:05Z</time>
      </trkpt>
      <trkpt lat="59.07996654510498" lon="30.005378723144531">
        <time>2026-04-25T11:36:08Z</time>
      </trkpt>
      <trkpt lat="59.079945087432861" lon="30.00540018081665">
        <time>2026-04-25T11:36:10Z</time>
      </trkpt>
      <trkpt lat="59.079945087432861" lon="30.00542163848877">
        <time>2026-04-25T11:36:13Z</time>
      </trkpt>
      <trkpt lat="59.079923629760742" lon="30.00542163848877">
        <time>2026-04-25T11:36:15Z</time>
      </trkpt>
      <trkpt lat="59.079902172088623" lon="30.00542163848877">
        <time>2026-04-25T11:36:18Z</time>
      </trkpt>
      <trkpt lat="59.079880714416504" lon="30.00542163848877">
        <time>2026-04-25T11:36:20Z</time>
      </trkpt>
      <trkpt lat="59.079859256744385" lon="30.00542163848877">
        <time>2026-04-25T11:36:23Z</time>
      </trkpt>
      <trkpt lat="59.079837799072266" lon="30.00542163848877">
        <time>2026-04-25T11:36:25Z</time>
      </trkpt>
      <trkpt lat="59.079816341400146" lon="30.00542163848877">
        <time>2026-04-25T11:36:28Z</time>
      </trkpt>
      <trkpt lat="59.079794883728027" lon="30.00542163848877">
        <time>2026-04-25T11:36:30Z</time>
      </trkpt>
      <trkpt lat="59.079751968383789" lon="30.00542163848877">
        <time>2026-04-25T11:36:33Z</time>
      </trkpt>
      <trkpt lat="59.079751968383789" lon="30.00542163848877">
        <time>2026-04-25T11:36:35Z</time>
      </trkpt>
      <trkpt lat="59.079751968383789" lon="30.00542163848877">
        <time>2026-04-25T11:36:38Z</time>
      </trkpt>
      <trkpt lat="59.079751968383789" lon="30.00542163848877">
        <time>2026-04-25T11:36:40Z</time>
      </trkpt>
      <trkpt lat="59.079751968383789" lon="30.00542163848877">
        <time>2026-04-25T11:36:43Z</time>
      </trkpt>
      <trkpt lat="59.079751968383789" lon="30.00542163848877">
        <time>2026-04-25T11:36:45Z</time>
      </trkpt>
      <trkpt lat="59.079751968383789" lon="30.005378723144531">
        <time>2026-04-25T11:36:48Z</time>
      </trkpt>
      <trkpt lat="59.079773426055908" lon="30.005378723144531">
        <time>2026-04-25T11:36:50Z</time>
      </trkpt>
      <trkpt lat="59.079773426055908" lon="30.005378723144531">
        <time>2026-04-25T11:36:53Z</time>
      </trkpt>
      <trkpt lat="59.079773426055908" lon="30.005378723144531">
        <time>2026-04-25T11:36:55Z</time>
      </trkpt>
      <trkpt lat="59.079773426055908" lon="30.005378723144531">
        <time>2026-04-25T11:36:58Z</time>
      </trkpt>
      <trkpt lat="59.079773426055908" lon="30.005378723144531">
        <time>2026-04-25T11:37:00Z</time>
      </trkpt>
      <trkpt lat="59.079773426055908" lon="30.005378723144531">
        <time>2026-04-25T11:37:03Z</time>
      </trkpt>
      <trkpt lat="59.079773426055908" lon="30.005378723144531">
        <time>2026-04-25T11:37:05Z</time>
      </trkpt>
      <trkpt lat="59.079773426055908" lon="30.005378723144531">
        <time>2026-04-25T11:37:08Z</time>
      </trkpt>
      <trkpt lat="59.079773426055908" lon="30.005378723144531">
        <time>2026-04-25T11:37:10Z</time>
      </trkpt>
      <trkpt lat="59.079773426055908" lon="30.00540018081665">
        <time>2026-04-25T11:37:13Z</time>
      </trkpt>
      <trkpt lat="59.079773426055908" lon="30.00540018081665">
        <time>2026-04-25T11:37:15Z</time>
      </trkpt>
      <trkpt lat="59.079773426055908" lon="30.00540018081665">
        <time>2026-04-25T11:37:18Z</time>
      </trkpt>
      <trkpt lat="59.079751968383789" lon="30.00542163848877">
        <time>2026-04-25T11:37:20Z</time>
      </trkpt>
      <trkpt lat="59.079751968383789" lon="30.005443096160889">
        <time>2026-04-25T11:37:23Z</time>
      </trkpt>
      <trkpt lat="59.079751968383789" lon="30.005443096160889">
        <time>2026-04-25T11:37:25Z</time>
      </trkpt>
      <trkpt lat="59.079751968383789" lon="30.005443096160889">
        <time>2026-04-25T11:37:28Z</time>
      </trkpt>
      <trkpt lat="59.079751968383789" lon="30.005443096160889">
        <time>2026-04-25T11:37:30Z</time>
      </trkpt>
      <trkpt lat="59.079751968383789" lon="30.005443096160889">
        <time>2026-04-25T11:37:33Z</time>
      </trkpt>
      <trkpt lat="59.079751968383789" lon="30.005443096160889">
        <time>2026-04-25T11:37:35Z</time>
      </trkpt>
      <trkpt lat="59.079751968383789" lon="30.005443096160889">
        <time>2026-04-25T11:37:38Z</time>
      </trkpt>
      <trkpt lat="59.079751968383789" lon="30.005443096160889">
        <time>2026-04-25T11:37:40Z</time>
      </trkpt>
      <trkpt lat="59.079751968383789" lon="30.005443096160889">
        <time>2026-04-25T11:37:43Z</time>
      </trkpt>
      <trkpt lat="59.079751968383789" lon="30.00542163848877">
        <time>2026-04-25T11:37:45Z</time>
      </trkpt>
      <trkpt lat="59.079751968383789" lon="30.00542163848877">
        <time>2026-04-25T11:37:48Z</time>
      </trkpt>
      <trkpt lat="59.079751968383789" lon="30.00542163848877">
        <time>2026-04-25T11:37:50Z</time>
      </trkpt>
      <trkpt lat="59.079751968383789" lon="30.00542163848877">
        <time>2026-04-25T11:37:53Z</time>
      </trkpt>
      <trkpt lat="59.079751968383789" lon="30.00542163848877">
        <time>2026-04-25T11:37:55Z</time>
      </trkpt>
      <trkpt lat="59.079751968383789" lon="30.00542163848877">
        <time>2026-04-25T11:37:58Z</time>
      </trkpt>
      <trkpt lat="59.079751968383789" lon="30.00542163848877">
        <time>2026-04-25T11:38:00Z</time>
      </trkpt>
      <trkpt lat="59.079751968383789" lon="30.00542163848877">
        <time>2026-04-25T11:38:03Z</time>
      </trkpt>
      <trkpt lat="59.079751968383789" lon="30.00542163848877">
        <time>2026-04-25T11:38:05Z</time>
      </trkpt>
      <trkpt lat="59.079751968383789" lon="30.00542163848877">
        <time>2026-04-25T11:38:08Z</time>
      </trkpt>
      <trkpt lat="59.079751968383789" lon="30.00542163848877">
        <time>2026-04-25T11:38:10Z</time>
      </trkpt>
      <trkpt lat="59.079751968383789" lon="30.00542163848877">
        <time>2026-04-25T11:38:13Z</time>
      </trkpt>
      <trkpt lat="59.079773426055908" lon="30.00542163848877">
        <time>2026-04-25T11:38:15Z</time>
      </trkpt>
      <trkpt lat="59.079773426055908" lon="30.00542163848877">
        <time>2026-04-25T11:38:18Z</time>
      </trkpt>
      <trkpt lat="59.079773426055908" lon="30.00542163848877">
        <time>2026-04-25T11:38:20Z</time>
      </trkpt>
      <trkpt lat="59.079773426055908" lon="30.00542163848877">
        <time>2026-04-25T11:38:23Z</time>
      </trkpt>
      <trkpt lat="59.079773426055908" lon="30.00542163848877">
        <time>2026-04-25T11:38:25Z</time>
      </trkpt>
      <trkpt lat="59.079773426055908" lon="30.00542163848877">
        <time>2026-04-25T11:38:28Z</time>
      </trkpt>
      <trkpt lat="59.079773426055908" lon="30.005443096160889">
        <time>2026-04-25T11:38:30Z</time>
      </trkpt>
      <trkpt lat="59.079773426055908" lon="30.005443096160889">
        <time>2026-04-25T11:38:33Z</time>
      </trkpt>
      <trkpt lat="59.079773426055908" lon="30.005443096160889">
        <time>2026-04-25T11:38:35Z</time>
      </trkpt>
      <trkpt lat="59.079773426055908" lon="30.005443096160889">
        <time>2026-04-25T11:38:38Z</time>
      </trkpt>
      <trkpt lat="59.079773426055908" lon="30.005443096160889">
        <time>2026-04-25T11:38:40Z</time>
      </trkpt>
      <trkpt lat="59.079773426055908" lon="30.005443096160889">
        <time>2026-04-25T11:38:43Z</time>
      </trkpt>
      <trkpt lat="59.079773426055908" lon="30.005443096160889">
        <time>2026-04-25T11:38:45Z</time>
      </trkpt>
      <trkpt lat="59.079773426055908" lon="30.005443096160889">
        <time>2026-04-25T11:38:48Z</time>
      </trkpt>
      <trkpt lat="59.079773426055908" lon="30.005443096160889">
        <time>2026-04-25T11:38:50Z</time>
      </trkpt>
      <trkpt lat="59.079773426055908" lon="30.005443096160889">
        <time>2026-04-25T11:38:53Z</time>
      </trkpt>
      <trkpt lat="59.079773426055908" lon="30.005443096160889">
        <time>2026-04-25T11:38:55Z</time>
      </trkpt>
      <trkpt lat="59.079773426055908" lon="30.005443096160889">
        <time>2026-04-25T11:38:58Z</time>
      </trkpt>
      <trkpt lat="59.079773426055908" lon="30.005443096160889">
        <time>2026-04-25T11:39:00Z</time>
      </trkpt>
      <trkpt lat="59.079773426055908" lon="30.005443096160889">
        <time>2026-04-25T11:39:03Z</time>
      </trkpt>
      <trkpt lat="59.079773426055908" lon="30.005443096160889">
        <time>2026-04-25T11:39:05Z</time>
      </trkpt>
      <trkpt lat="59.079773426055908" lon="30.005443096160889">
        <time>2026-04-25T11:39:08Z</time>
      </trkpt>
      <trkpt lat="59.079773426055908" lon="30.005443096160889">
        <time>2026-04-25T11:39:10Z</time>
      </trkpt>
      <trkpt lat="59.079773426055908" lon="30.005443096160889">
        <time>2026-04-25T11:39:13Z</time>
      </trkpt>
      <trkpt lat="59.079773426055908" lon="30.005443096160889">
        <time>2026-04-25T11:39:15Z</time>
      </trkpt>
      <trkpt lat="59.079773426055908" lon="30.005443096160889">
        <time>2026-04-25T11:39:18Z</time>
      </trkpt>
      <trkpt lat="59.079773426055908" lon="30.005443096160889">
        <time>2026-04-25T11:39:20Z</time>
      </trkpt>
      <trkpt lat="59.079773426055908" lon="30.005443096160889">
        <time>2026-04-25T11:39:23Z</time>
      </trkpt>
      <trkpt lat="59.079773426055908" lon="30.005443096160889">
        <time>2026-04-25T11:39:25Z</time>
      </trkpt>
      <trkpt lat="59.079773426055908" lon="30.005443096160889">
        <time>2026-04-25T11:39:28Z</time>
      </trkpt>
      <trkpt lat="59.079773426055908" lon="30.005443096160889">
        <time>2026-04-25T11:39:30Z</time>
      </trkpt>
      <trkpt lat="59.079773426055908" lon="30.005443096160889">
        <time>2026-04-25T11:39:33Z</time>
      </trkpt>
      <trkpt lat="59.079773426055908" lon="30.005443096160889">
        <time>2026-04-25T11:39:35Z</time>
      </trkpt>
      <trkpt lat="59.079773426055908" lon="30.005443096160889">
        <time>2026-04-25T11:39:38Z</time>
      </trkpt>
      <trkpt lat="59.079773426055908" lon="30.005443096160889">
        <time>2026-04-25T11:39:40Z</time>
      </trkpt>
      <trkpt lat="59.079773426055908" lon="30.005443096160889">
        <time>2026-04-25T11:39:43Z</time>
      </trkpt>
      <trkpt lat="59.079773426055908" lon="30.005443096160889">
        <time>2026-04-25T11:39:45Z</time>
      </trkpt>
      <trkpt lat="59.079773426055908" lon="30.005443096160889">
        <time>2026-04-25T11:39:48Z</time>
      </trkpt>
      <trkpt lat="59.079773426055908" lon="30.005443096160889">
        <time>2026-04-25T11:39:50Z</time>
      </trkpt>
      <trkpt lat="59.079773426055908" lon="30.005443096160889">
        <time>2026-04-25T11:39:53Z</time>
      </trkpt>
      <trkpt lat="59.079773426055908" lon="30.005443096160889">
        <time>2026-04-25T11:39:55Z</time>
      </trkpt>
      <trkpt lat="59.079773426055908" lon="30.005443096160889">
        <time>2026-04-25T11:39:58Z</time>
      </trkpt>
      <trkpt lat="59.079773426055908" lon="30.005443096160889">
        <time>2026-04-25T11:40:00Z</time>
      </trkpt>
      <trkpt lat="59.079773426055908" lon="30.005443096160889">
        <time>2026-04-25T11:40:03Z</time>
      </trkpt>
      <trkpt lat="59.079773426055908" lon="30.005443096160889">
        <time>2026-04-25T11:40:05Z</time>
      </trkpt>
      <trkpt lat="59.079773426055908" lon="30.005443096160889">
        <time>2026-04-25T11:40:08Z</time>
      </trkpt>
      <trkpt lat="59.079773426055908" lon="30.005443096160889">
        <time>2026-04-25T11:40:10Z</time>
      </trkpt>
      <trkpt lat="59.079773426055908" lon="30.005443096160889">
        <time>2026-04-25T11:40:13Z</time>
      </trkpt>
      <trkpt lat="59.079773426055908" lon="30.005443096160889">
        <time>2026-04-25T11:40:15Z</time>
      </trkpt>
      <trkpt lat="59.079773426055908" lon="30.005443096160889">
        <time>2026-04-25T11:40:18Z</time>
      </trkpt>
      <trkpt lat="59.079773426055908" lon="30.005443096160889">
        <time>2026-04-25T11:40:20Z</time>
      </trkpt>
      <trkpt lat="59.079773426055908" lon="30.005443096160889">
        <time>2026-04-25T11:40:23Z</time>
      </trkpt>
      <trkpt lat="59.079773426055908" lon="30.005443096160889">
        <time>2026-04-25T11:40:25Z</time>
      </trkpt>
      <trkpt lat="59.079773426055908" lon="30.005443096160889">
        <time>2026-04-25T11:40:28Z</time>
      </trkpt>
      <trkpt lat="59.079773426055908" lon="30.005443096160889">
        <time>2026-04-25T11:40:30Z</time>
      </trkpt>
      <trkpt lat="59.079773426055908" lon="30.005443096160889">
        <time>2026-04-25T11:40:33Z</time>
      </trkpt>
      <trkpt lat="59.079773426055908" lon="30.005443096160889">
        <time>2026-04-25T11:40:35Z</time>
      </trkpt>
      <trkpt lat="59.079773426055908" lon="30.005443096160889">
        <time>2026-04-25T11:40:38Z</time>
      </trkpt>
      <trkpt lat="59.079773426055908" lon="30.005443096160889">
        <time>2026-04-25T11:40:40Z</time>
      </trkpt>
      <trkpt lat="59.079773426055908" lon="30.005443096160889">
        <time>2026-04-25T11:40:43Z</time>
      </trkpt>
      <trkpt lat="59.079773426055908" lon="30.005443096160889">
        <time>2026-04-25T11:40:45Z</time>
      </trkpt>
      <trkpt lat="59.079773426055908" lon="30.005443096160889">
        <time>2026-04-25T11:40:48Z</time>
      </trkpt>
      <trkpt lat="59.079773426055908" lon="30.005443096160889">
        <time>2026-04-25T11:40:50Z</time>
      </trkpt>
      <trkpt lat="59.079773426055908" lon="30.005443096160889">
        <time>2026-04-25T11:40:53Z</time>
      </trkpt>
      <trkpt lat="59.079773426055908" lon="30.005443096160889">
        <time>2026-04-25T11:40:55Z</time>
      </trkpt>
      <trkpt lat="59.079773426055908" lon="30.005443096160889">
        <time>2026-04-25T11:40:58Z</time>
      </trkpt>
      <trkpt lat="59.079773426055908" lon="30.005443096160889">
        <time>2026-04-25T11:41:00Z</time>
      </trkpt>
      <trkpt lat="59.079773426055908" lon="30.005443096160889">
        <time>2026-04-25T11:41:03Z</time>
      </trkpt>
      <trkpt lat="59.079773426055908" lon="30.005443096160889">
        <time>2026-04-25T11:41:05Z</time>
      </trkpt>
      <trkpt lat="59.079773426055908" lon="30.005443096160889">
        <time>2026-04-25T11:41:08Z</time>
      </trkpt>
      <trkpt lat="59.079773426055908" lon="30.005443096160889">
        <time>2026-04-25T11:41:10Z</time>
      </trkpt>
      <trkpt lat="59.079773426055908" lon="30.005443096160889">
        <time>2026-04-25T11:41:13Z</time>
      </trkpt>
      <trkpt lat="59.079773426055908" lon="30.005443096160889">
        <time>2026-04-25T11:41:15Z</time>
      </trkpt>
      <trkpt lat="59.079773426055908" lon="30.005443096160889">
        <time>2026-04-25T11:41:18Z</time>
      </trkpt>
      <trkpt lat="59.079773426055908" lon="30.005443096160889">
        <time>2026-04-25T11:41:20Z</time>
      </trkpt>
      <trkpt lat="59.079773426055908" lon="30.005443096160889">
        <time>2026-04-25T11:41:23Z</time>
      </trkpt>
      <trkpt lat="59.079773426055908" lon="30.005443096160889">
        <time>2026-04-25T11:41:25Z</time>
      </trkpt>
      <trkpt lat="59.079773426055908" lon="30.005443096160889">
        <time>2026-04-25T11:41:28Z</time>
      </trkpt>
      <trkpt lat="59.079773426055908" lon="30.005443096160889">
        <time>2026-04-25T11:41:30Z</time>
      </trkpt>
      <trkpt lat="59.079773426055908" lon="30.005443096160889">
        <time>2026-04-25T11:41:33Z</time>
      </trkpt>
      <trkpt lat="59.079773426055908" lon="30.005443096160889">
        <time>2026-04-25T11:41:35Z</time>
      </trkpt>
      <trkpt lat="59.079773426055908" lon="30.005443096160889">
        <time>2026-04-25T11:41:38Z</time>
      </trkpt>
      <trkpt lat="59.079773426055908" lon="30.005443096160889">
        <time>2026-04-25T11:41:40Z</time>
      </trkpt>
      <trkpt lat="59.079773426055908" lon="30.005443096160889">
        <time>2026-04-25T11:41:43Z</time>
      </trkpt>
      <trkpt lat="59.079773426055908" lon="30.005443096160889">
        <time>2026-04-25T11:41:45Z</time>
      </trkpt>
      <trkpt lat="59.079773426055908" lon="30.005443096160889">
        <time>2026-04-25T11:41:48Z</time>
      </trkpt>
      <trkpt lat="59.079773426055908" lon="30.005443096160889">
        <time>2026-04-25T11:41:50Z</time>
      </trkpt>
      <trkpt lat="59.079773426055908" lon="30.005443096160889">
        <time>2026-04-25T11:41:53Z</time>
      </trkpt>
      <trkpt lat="59.079751968383789" lon="30.005443096160889">
        <time>2026-04-25T11:41:55Z</time>
      </trkpt>
      <trkpt lat="59.079751968383789" lon="30.005443096160889">
        <time>2026-04-25T11:41:58Z</time>
      </trkpt>
      <trkpt lat="59.079751968383789" lon="30.005443096160889">
        <time>2026-04-25T11:42:00Z</time>
      </trkpt>
      <trkpt lat="59.079751968383789" lon="30.005443096160889">
        <time>2026-04-25T11:42:03Z</time>
      </trkpt>
      <trkpt lat="59.079751968383789" lon="30.005443096160889">
        <time>2026-04-25T11:42:05Z</time>
      </trkpt>
      <trkpt lat="59.079751968383789" lon="30.005443096160889">
        <time>2026-04-25T11:42:08Z</time>
      </trkpt>
      <trkpt lat="59.079751968383789" lon="30.005443096160889">
        <time>2026-04-25T11:42:10Z</time>
      </trkpt>
      <trkpt lat="59.079751968383789" lon="30.005443096160889">
        <time>2026-04-25T11:42:13Z</time>
      </trkpt>
      <trkpt lat="59.079751968383789" lon="30.005443096160889">
        <time>2026-04-25T11:42:15Z</time>
      </trkpt>
      <trkpt lat="59.079751968383789" lon="30.005443096160889">
        <time>2026-04-25T11:42:18Z</time>
      </trkpt>
      <trkpt lat="59.079751968383789" lon="30.005443096160889">
        <time>2026-04-25T11:42:20Z</time>
      </trkpt>
      <trkpt lat="59.079751968383789" lon="30.005443096160889">
        <time>2026-04-25T11:42:23Z</time>
      </trkpt>
      <trkpt lat="59.079751968383789" lon="30.005443096160889">
        <time>2026-04-25T11:42:25Z</time>
      </trkpt>
      <trkpt lat="59.079751968383789" lon="30.005443096160889">
        <time>2026-04-25T11:42:28Z</time>
      </trkpt>
      <trkpt lat="59.079751968383789" lon="30.005443096160889">
        <time>2026-04-25T11:42:30Z</time>
      </trkpt>
      <trkpt lat="59.079751968383789" lon="30.005443096160889">
        <time>2026-04-25T11:42:33Z</time>
      </trkpt>
      <trkpt lat="59.079751968383789" lon="30.005443096160889">
        <time>2026-04-25T11:42:35Z</time>
      </trkpt>
      <trkpt lat="59.079751968383789" lon="30.005443096160889">
        <time>2026-04-25T11:42:38Z</time>
      </trkpt>
      <trkpt lat="59.079751968383789" lon="30.005443096160889">
        <time>2026-04-25T11:42:40Z</time>
      </trkpt>
      <trkpt lat="59.079751968383789" lon="30.005443096160889">
        <time>2026-04-25T11:42:43Z</time>
      </trkpt>
      <trkpt lat="59.079751968383789" lon="30.005507469177246">
        <time>2026-04-25T11:42:45Z</time>
      </trkpt>
      <trkpt lat="59.079751968383789" lon="30.005571842193604">
        <time>2026-04-25T11:42:48Z</time>
      </trkpt>
      <trkpt lat="59.079751968383789" lon="30.005636215209961">
        <time>2026-04-25T11:42:50Z</time>
      </trkpt>
      <trkpt lat="59.079773426055908" lon="30.005700588226318">
        <time>2026-04-25T11:42:53Z</time>
      </trkpt>
      <trkpt lat="59.079773426055908" lon="30.005743503570557">
        <time>2026-04-25T11:42:55Z</time>
      </trkpt>
      <trkpt lat="59.079773426055908" lon="30.005764961242676">
        <time>2026-04-25T11:42:58Z</time>
      </trkpt>
      <trkpt lat="59.079773426055908" lon="30.005764961242676">
        <time>2026-04-25T11:43:00Z</time>
      </trkpt>
      <trkpt lat="59.079773426055908" lon="30.005764961242676">
        <time>2026-04-25T11:43:03Z</time>
      </trkpt>
      <trkpt lat="59.079751968383789" lon="30.005807876586914">
        <time>2026-04-25T11:43:05Z</time>
      </trkpt>
      <trkpt lat="59.079751968383789" lon="30.005829334259033">
        <time>2026-04-25T11:43:08Z</time>
      </trkpt>
      <trkpt lat="59.079751968383789" lon="30.005850791931152">
        <time>2026-04-25T11:43:10Z</time>
      </trkpt>
      <trkpt lat="59.07973051071167" lon="30.005893707275391">
        <time>2026-04-25T11:43:13Z</time>
      </trkpt>
      <trkpt lat="59.07973051071167" lon="30.00591516494751">
        <time>2026-04-25T11:43:15Z</time>
      </trkpt>
      <trkpt lat="59.07973051071167" lon="30.005958080291748">
        <time>2026-04-25T11:43:18Z</time>
      </trkpt>
      <trkpt lat="59.079751968383789" lon="30.005958080291748">
        <time>2026-04-25T11:43:20Z</time>
      </trkpt>
      <trkpt lat="59.079751968383789" lon="30.006000995635986">
        <time>2026-04-25T11:43:23Z</time>
      </trkpt>
      <trkpt lat="59.079773426055908" lon="30.006086826324463">
        <time>2026-04-25T11:43:25Z</time>
      </trkpt>
      <trkpt lat="59.079773426055908" lon="30.006129741668701">
        <time>2026-04-25T11:43:28Z</time>
      </trkpt>
      <trkpt lat="59.079773426055908" lon="30.00615119934082">
        <time>2026-04-25T11:43:30Z</time>
      </trkpt>
      <trkpt lat="59.079773426055908" lon="30.00615119934082">
        <time>2026-04-25T11:43:33Z</time>
      </trkpt>
      <trkpt lat="59.079773426055908" lon="30.00615119934082">
        <time>2026-04-25T11:43:35Z</time>
      </trkpt>
      <trkpt lat="59.079773426055908" lon="30.00615119934082">
        <time>2026-04-25T11:43:38Z</time>
      </trkpt>
      <trkpt lat="59.079794883728027" lon="30.006237030029297">
        <time>2026-04-25T11:43:40Z</time>
      </trkpt>
      <trkpt lat="59.079794883728027" lon="30.006301403045654">
        <time>2026-04-25T11:43:43Z</time>
      </trkpt>
      <trkpt lat="59.079816341400146" lon="30.006322860717773">
        <time>2026-04-25T11:43:45Z</time>
      </trkpt>
      <trkpt lat="59.079816341400146" lon="30.006322860717773">
        <time>2026-04-25T11:43:48Z</time>
      </trkpt>
      <trkpt lat="59.079816341400146" lon="30.006365776062012">
        <time>2026-04-25T11:43:50Z</time>
      </trkpt>
      <trkpt lat="59.079816341400146" lon="30.00640869140625">
        <time>2026-04-25T11:43:53Z</time>
      </trkpt>
      <trkpt lat="59.079816341400146" lon="30.006451606750488">
        <time>2026-04-25T11:43:55Z</time>
      </trkpt>
      <trkpt lat="59.079816341400146" lon="30.006473064422607">
        <time>2026-04-25T11:43:58Z</time>
      </trkpt>
      <trkpt lat="59.079816341400146" lon="30.006494522094727">
        <time>2026-04-25T11:44:00Z</time>
      </trkpt>
      <trkpt lat="59.079816341400146" lon="30.006558895111084">
        <time>2026-04-25T11:44:03Z</time>
      </trkpt>
      <trkpt lat="59.079837799072266" lon="30.006601810455322">
        <time>2026-04-25T11:44:05Z</time>
      </trkpt>
      <trkpt lat="59.079837799072266" lon="30.006623268127441">
        <time>2026-04-25T11:44:08Z</time>
      </trkpt>
      <trkpt lat="59.079837799072266" lon="30.006644725799561">
        <time>2026-04-25T11:44:10Z</time>
      </trkpt>
      <trkpt lat="59.079859256744385" lon="30.00666618347168">
        <time>2026-04-25T11:44:13Z</time>
      </trkpt>
      <trkpt lat="59.079859256744385" lon="30.006687641143799">
        <time>2026-04-25T11:44:15Z</time>
      </trkpt>
      <trkpt lat="59.079880714416504" lon="30.006730556488037">
        <time>2026-04-25T11:44:18Z</time>
      </trkpt>
      <trkpt lat="59.079902172088623" lon="30.006816387176514">
        <time>2026-04-25T11:44:20Z</time>
      </trkpt>
      <trkpt lat="59.079923629760742" lon="30.006880760192871">
        <time>2026-04-25T11:44:23Z</time>
      </trkpt>
      <trkpt lat="59.079923629760742" lon="30.00690221786499">
        <time>2026-04-25T11:44:25Z</time>
      </trkpt>
      <trkpt lat="59.079945087432861" lon="30.006923675537109">
        <time>2026-04-25T11:44:28Z</time>
      </trkpt>
      <trkpt lat="59.079945087432861" lon="30.006966590881348">
        <time>2026-04-25T11:44:30Z</time>
      </trkpt>
      <trkpt lat="59.079923629760742" lon="30.007009506225586">
        <time>2026-04-25T11:44:33Z</time>
      </trkpt>
      <trkpt lat="59.079923629760742" lon="30.007073879241943">
        <time>2026-04-25T11:44:35Z</time>
      </trkpt>
      <trkpt lat="59.079923629760742" lon="30.007073879241943">
        <time>2026-04-25T11:44:38Z</time>
      </trkpt>
      <trkpt lat="59.079923629760742" lon="30.007138252258301">
        <time>2026-04-25T11:44:40Z</time>
      </trkpt>
      <trkpt lat="59.079923629760742" lon="30.007181167602539">
        <time>2026-04-25T11:44:43Z</time>
      </trkpt>
      <trkpt lat="59.079923629760742" lon="30.007245540618896">
        <time>2026-04-25T11:44:45Z</time>
      </trkpt>
      <trkpt lat="59.079923629760742" lon="30.007288455963135">
        <time>2026-04-25T11:44:48Z</time>
      </trkpt>
      <trkpt lat="59.079923629760742" lon="30.007331371307373">
        <time>2026-04-25T11:44:50Z</time>
      </trkpt>
      <trkpt lat="59.079923629760742" lon="30.007374286651611">
        <time>2026-04-25T11:44:53Z</time>
      </trkpt>
      <trkpt lat="59.079945087432861" lon="30.00739574432373">
        <time>2026-04-25T11:44:55Z</time>
      </trkpt>
      <trkpt lat="59.079945087432861" lon="30.00739574432373">
        <time>2026-04-25T11:44:58Z</time>
      </trkpt>
      <trkpt lat="59.07996654510498" lon="30.00741720199585">
        <time>2026-04-25T11:45:00Z</time>
      </trkpt>
      <trkpt lat="59.07996654510498" lon="30.007460117340088">
        <time>2026-04-25T11:45:03Z</time>
      </trkpt>
      <trkpt lat="59.07996654510498" lon="30.007438659667969">
        <time>2026-04-25T11:45:05Z</time>
      </trkpt>
      <trkpt lat="59.07996654510498" lon="30.007438659667969">
        <time>2026-04-25T11:45:08Z</time>
      </trkpt>
      <trkpt lat="59.0799880027771" lon="30.007481575012207">
        <time>2026-04-25T11:45:10Z</time>
      </trkpt>
      <trkpt lat="59.0799880027771" lon="30.007545948028564">
        <time>2026-04-25T11:45:13Z</time>
      </trkpt>
      <trkpt lat="59.080009460449219" lon="30.007588863372803">
        <time>2026-04-25T11:45:15Z</time>
      </trkpt>
      <trkpt lat="59.0799880027771" lon="30.007631778717041">
        <time>2026-04-25T11:45:18Z</time>
      </trkpt>
      <trkpt lat="59.080009460449219" lon="30.007631778717041">
        <time>2026-04-25T11:45:20Z</time>
      </trkpt>
      <trkpt lat="59.080009460449219" lon="30.00765323638916">
        <time>2026-04-25T11:45:23Z</time>
      </trkpt>
      <trkpt lat="59.080009460449219" lon="30.00765323638916">
        <time>2026-04-25T11:45:25Z</time>
      </trkpt>
      <trkpt lat="59.080009460449219" lon="30.00765323638916">
        <time>2026-04-25T11:45:28Z</time>
      </trkpt>
      <trkpt lat="59.080009460449219" lon="30.00765323638916">
        <time>2026-04-25T11:45:30Z</time>
      </trkpt>
      <trkpt lat="59.080009460449219" lon="30.00765323638916">
        <time>2026-04-25T11:45:33Z</time>
      </trkpt>
      <trkpt lat="59.080009460449219" lon="30.00765323638916">
        <time>2026-04-25T11:45:35Z</time>
      </trkpt>
      <trkpt lat="59.080009460449219" lon="30.00765323638916">
        <time>2026-04-25T11:45:38Z</time>
      </trkpt>
      <trkpt lat="59.080009460449219" lon="30.00765323638916">
        <time>2026-04-25T11:45:40Z</time>
      </trkpt>
      <trkpt lat="59.080009460449219" lon="30.00765323638916">
        <time>2026-04-25T11:45:43Z</time>
      </trkpt>
      <trkpt lat="59.080009460449219" lon="30.00765323638916">
        <time>2026-04-25T11:45:45Z</time>
      </trkpt>
      <trkpt lat="59.080009460449219" lon="30.00765323638916">
        <time>2026-04-25T11:45:48Z</time>
      </trkpt>
      <trkpt lat="59.080009460449219" lon="30.00765323638916">
        <time>2026-04-25T11:45:50Z</time>
      </trkpt>
      <trkpt lat="59.080009460449219" lon="30.00765323638916">
        <time>2026-04-25T11:45:53Z</time>
      </trkpt>
      <trkpt lat="59.080009460449219" lon="30.00765323638916">
        <time>2026-04-25T11:45:55Z</time>
      </trkpt>
      <trkpt lat="59.0799880027771" lon="30.00765323638916">
        <time>2026-04-25T11:45:58Z</time>
      </trkpt>
      <trkpt lat="59.0799880027771" lon="30.00765323638916">
        <time>2026-04-25T11:46:00Z</time>
      </trkpt>
      <trkpt lat="59.0799880027771" lon="30.00765323638916">
        <time>2026-04-25T11:46:03Z</time>
      </trkpt>
      <trkpt lat="59.0799880027771" lon="30.00765323638916">
        <time>2026-04-25T11:46:05Z</time>
      </trkpt>
      <trkpt lat="59.0799880027771" lon="30.00765323638916">
        <time>2026-04-25T11:46:08Z</time>
      </trkpt>
      <trkpt lat="59.0799880027771" lon="30.00765323638916">
        <time>2026-04-25T11:46:10Z</time>
      </trkpt>
      <trkpt lat="59.0799880027771" lon="30.00765323638916">
        <time>2026-04-25T11:46:13Z</time>
      </trkpt>
      <trkpt lat="59.0799880027771" lon="30.00765323638916">
        <time>2026-04-25T11:46:15Z</time>
      </trkpt>
      <trkpt lat="59.0799880027771" lon="30.00765323638916">
        <time>2026-04-25T11:46:18Z</time>
      </trkpt>
      <trkpt lat="59.0799880027771" lon="30.00765323638916">
        <time>2026-04-25T11:46:20Z</time>
      </trkpt>
      <trkpt lat="59.0799880027771" lon="30.00765323638916">
        <time>2026-04-25T11:46:23Z</time>
      </trkpt>
      <trkpt lat="59.0799880027771" lon="30.00765323638916">
        <time>2026-04-25T11:46:25Z</time>
      </trkpt>
      <trkpt lat="59.0799880027771" lon="30.00765323638916">
        <time>2026-04-25T11:46:28Z</time>
      </trkpt>
      <trkpt lat="59.0799880027771" lon="30.00765323638916">
        <time>2026-04-25T11:46:30Z</time>
      </trkpt>
      <trkpt lat="59.0799880027771" lon="30.00765323638916">
        <time>2026-04-25T11:46:33Z</time>
      </trkpt>
      <trkpt lat="59.0799880027771" lon="30.00765323638916">
        <time>2026-04-25T11:46:35Z</time>
      </trkpt>
      <trkpt lat="59.0799880027771" lon="30.00765323638916">
        <time>2026-04-25T11:46:38Z</time>
      </trkpt>
      <trkpt lat="59.0799880027771" lon="30.00765323638916">
        <time>2026-04-25T11:46:40Z</time>
      </trkpt>
      <trkpt lat="59.07996654510498" lon="30.007674694061279">
        <time>2026-04-25T11:46:43Z</time>
      </trkpt>
      <trkpt lat="59.07996654510498" lon="30.007696151733398">
        <time>2026-04-25T11:46:45Z</time>
      </trkpt>
      <trkpt lat="59.079945087432861" lon="30.007696151733398">
        <time>2026-04-25T11:46:48Z</time>
      </trkpt>
      <trkpt lat="59.079945087432861" lon="30.007696151733398">
        <time>2026-04-25T11:46:50Z</time>
      </trkpt>
      <trkpt lat="59.079923629760742" lon="30.007739067077637">
        <time>2026-04-25T11:46:53Z</time>
      </trkpt>
      <trkpt lat="59.079880714416504" lon="30.007739067077637">
        <time>2026-04-25T11:46:55Z</time>
      </trkpt>
      <trkpt lat="59.079859256744385" lon="30.007717609405518">
        <time>2026-04-25T11:46:58Z</time>
      </trkpt>
      <trkpt lat="59.079859256744385" lon="30.007717609405518">
        <time>2026-04-25T11:47:00Z</time>
      </trkpt>
      <trkpt lat="59.079837799072266" lon="30.007717609405518">
        <time>2026-04-25T11:47:03Z</time>
      </trkpt>
      <trkpt lat="59.079794883728027" lon="30.007717609405518">
        <time>2026-04-25T11:47:05Z</time>
      </trkpt>
      <trkpt lat="59.079751968383789" lon="30.007696151733398">
        <time>2026-04-25T11:47:08Z</time>
      </trkpt>
      <trkpt lat="59.079751968383789" lon="30.007696151733398">
        <time>2026-04-25T11:47:10Z</time>
      </trkpt>
      <trkpt lat="59.079751968383789" lon="30.007717609405518">
        <time>2026-04-25T11:47:13Z</time>
      </trkpt>
      <trkpt lat="59.07973051071167" lon="30.007739067077637">
        <time>2026-04-25T11:47:15Z</time>
      </trkpt>
      <trkpt lat="59.079709053039551" lon="30.007760524749756">
        <time>2026-04-25T11:47:18Z</time>
      </trkpt>
      <trkpt lat="59.079709053039551" lon="30.007781982421875">
        <time>2026-04-25T11:47:20Z</time>
      </trkpt>
      <trkpt lat="59.079687595367432" lon="30.007803440093994">
        <time>2026-04-25T11:47:23Z</time>
      </trkpt>
      <trkpt lat="59.079666137695312" lon="30.007846355438232">
        <time>2026-04-25T11:47:25Z</time>
      </trkpt>
      <trkpt lat="59.079644680023193" lon="30.007889270782471">
        <time>2026-04-25T11:47:28Z</time>
      </trkpt>
      <trkpt lat="59.079623222351074" lon="30.007889270782471">
        <time>2026-04-25T11:47:30Z</time>
      </trkpt>
      <trkpt lat="59.079601764678955" lon="30.007889270782471">
        <time>2026-04-25T11:47:33Z</time>
      </trkpt>
      <trkpt lat="59.079601764678955" lon="30.007889270782471">
        <time>2026-04-25T11:47:35Z</time>
      </trkpt>
      <trkpt lat="59.079601764678955" lon="30.007889270782471">
        <time>2026-04-25T11:47:38Z</time>
      </trkpt>
      <trkpt lat="59.079601764678955" lon="30.007889270782471">
        <time>2026-04-25T11:47:40Z</time>
      </trkpt>
      <trkpt lat="59.079601764678955" lon="30.007889270782471">
        <time>2026-04-25T11:47:43Z</time>
      </trkpt>
      <trkpt lat="59.079601764678955" lon="30.007889270782471">
        <time>2026-04-25T11:47:45Z</time>
      </trkpt>
      <trkpt lat="59.079601764678955" lon="30.007889270782471">
        <time>2026-04-25T11:47:48Z</time>
      </trkpt>
      <trkpt lat="59.079601764678955" lon="30.007889270782471">
        <time>2026-04-25T11:47:50Z</time>
      </trkpt>
      <trkpt lat="59.079601764678955" lon="30.007889270782471">
        <time>2026-04-25T11:47:53Z</time>
      </trkpt>
      <trkpt lat="59.079601764678955" lon="30.007889270782471">
        <time>2026-04-25T11:47:55Z</time>
      </trkpt>
      <trkpt lat="59.079601764678955" lon="30.007889270782471">
        <time>2026-04-25T11:47:58Z</time>
      </trkpt>
      <trkpt lat="59.079601764678955" lon="30.007889270782471">
        <time>2026-04-25T11:48:00Z</time>
      </trkpt>
      <trkpt lat="59.079601764678955" lon="30.007889270782471">
        <time>2026-04-25T11:48:03Z</time>
      </trkpt>
      <trkpt lat="59.079601764678955" lon="30.007889270782471">
        <time>2026-04-25T11:48:05Z</time>
      </trkpt>
      <trkpt lat="59.079601764678955" lon="30.007889270782471">
        <time>2026-04-25T11:48:08Z</time>
      </trkpt>
      <trkpt lat="59.079601764678955" lon="30.007889270782471">
        <time>2026-04-25T11:48:10Z</time>
      </trkpt>
      <trkpt lat="59.079601764678955" lon="30.007889270782471">
        <time>2026-04-25T11:48:13Z</time>
      </trkpt>
      <trkpt lat="59.079601764678955" lon="30.007889270782471">
        <time>2026-04-25T11:48:15Z</time>
      </trkpt>
      <trkpt lat="59.079601764678955" lon="30.007889270782471">
        <time>2026-04-25T11:48:18Z</time>
      </trkpt>
      <trkpt lat="59.079601764678955" lon="30.007889270782471">
        <time>2026-04-25T11:48:20Z</time>
      </trkpt>
      <trkpt lat="59.079601764678955" lon="30.007889270782471">
        <time>2026-04-25T11:48:23Z</time>
      </trkpt>
      <trkpt lat="59.079601764678955" lon="30.007889270782471">
        <time>2026-04-25T11:48:25Z</time>
      </trkpt>
      <trkpt lat="59.079601764678955" lon="30.007889270782471">
        <time>2026-04-25T11:48:28Z</time>
      </trkpt>
      <trkpt lat="59.079601764678955" lon="30.007889270782471">
        <time>2026-04-25T11:48:30Z</time>
      </trkpt>
      <trkpt lat="59.079601764678955" lon="30.007889270782471">
        <time>2026-04-25T11:48:33Z</time>
      </trkpt>
      <trkpt lat="59.079601764678955" lon="30.007889270782471">
        <time>2026-04-25T11:48:35Z</time>
      </trkpt>
      <trkpt lat="59.079601764678955" lon="30.007889270782471">
        <time>2026-04-25T11:48:38Z</time>
      </trkpt>
      <trkpt lat="59.079601764678955" lon="30.007889270782471">
        <time>2026-04-25T11:48:40Z</time>
      </trkpt>
      <trkpt lat="59.079601764678955" lon="30.007889270782471">
        <time>2026-04-25T11:48:43Z</time>
      </trkpt>
      <trkpt lat="59.079601764678955" lon="30.007889270782471">
        <time>2026-04-25T11:48:45Z</time>
      </trkpt>
      <trkpt lat="59.079601764678955" lon="30.007889270782471">
        <time>2026-04-25T11:48:48Z</time>
      </trkpt>
      <trkpt lat="59.079623222351074" lon="30.007889270782471">
        <time>2026-04-25T11:48:50Z</time>
      </trkpt>
      <trkpt lat="59.079623222351074" lon="30.007867813110352">
        <time>2026-04-25T11:48:53Z</time>
      </trkpt>
      <trkpt lat="59.079623222351074" lon="30.007867813110352">
        <time>2026-04-25T11:48:55Z</time>
      </trkpt>
      <trkpt lat="59.079623222351074" lon="30.007867813110352">
        <time>2026-04-25T11:48:58Z</time>
      </trkpt>
      <trkpt lat="59.079623222351074" lon="30.007846355438232">
        <time>2026-04-25T11:49:00Z</time>
      </trkpt>
      <trkpt lat="59.079623222351074" lon="30.007846355438232">
        <time>2026-04-25T11:49:03Z</time>
      </trkpt>
      <trkpt lat="59.079601764678955" lon="30.007760524749756">
        <time>2026-04-25T11:49:05Z</time>
      </trkpt>
      <trkpt lat="59.079558849334717" lon="30.007696151733398">
        <time>2026-04-25T11:49:08Z</time>
      </trkpt>
      <trkpt lat="59.079537391662598" lon="30.007588863372803">
        <time>2026-04-25T11:49:10Z</time>
      </trkpt>
      <trkpt lat="59.079537391662598" lon="30.007524490356445">
        <time>2026-04-25T11:49:13Z</time>
      </trkpt>
      <trkpt lat="59.079515933990479" lon="30.007503032684326">
        <time>2026-04-25T11:49:15Z</time>
      </trkpt>
      <trkpt lat="59.079494476318359" lon="30.007460117340088">
        <time>2026-04-25T11:49:18Z</time>
      </trkpt>
      <trkpt lat="59.07947301864624" lon="30.00739574432373">
        <time>2026-04-25T11:49:20Z</time>
      </trkpt>
      <trkpt lat="59.079451560974121" lon="30.007352828979492">
        <time>2026-04-25T11:49:23Z</time>
      </trkpt>
      <trkpt lat="59.079430103302002" lon="30.007309913635254">
        <time>2026-04-25T11:49:25Z</time>
      </trkpt>
      <trkpt lat="59.079408645629883" lon="30.007288455963135">
        <time>2026-04-25T11:49:28Z</time>
      </trkpt>
      <trkpt lat="59.079408645629883" lon="30.007245540618896">
        <time>2026-04-25T11:49:30Z</time>
      </trkpt>
      <trkpt lat="59.079387187957764" lon="30.007224082946777">
        <time>2026-04-25T11:49:33Z</time>
      </trkpt>
      <trkpt lat="59.079387187957764" lon="30.007181167602539">
        <time>2026-04-25T11:49:35Z</time>
      </trkpt>
      <trkpt lat="59.079387187957764" lon="30.007116794586182">
        <time>2026-04-25T11:49:38Z</time>
      </trkpt>
      <trkpt lat="59.079387187957764" lon="30.007095336914063">
        <time>2026-04-25T11:49:40Z</time>
      </trkpt>
      <trkpt lat="59.079387187957764" lon="30.007052421569824">
        <time>2026-04-25T11:49:43Z</time>
      </trkpt>
      <trkpt lat="59.079387187957764" lon="30.006988048553467">
        <time>2026-04-25T11:49:45Z</time>
      </trkpt>
      <trkpt lat="59.079387187957764" lon="30.006945133209229">
        <time>2026-04-25T11:49:48Z</time>
      </trkpt>
      <trkpt lat="59.079387187957764" lon="30.00690221786499">
        <time>2026-04-25T11:49:50Z</time>
      </trkpt>
      <trkpt lat="59.079387187957764" lon="30.00690221786499">
        <time>2026-04-25T11:49:53Z</time>
      </trkpt>
      <trkpt lat="59.079408645629883" lon="30.00690221786499">
        <time>2026-04-25T11:49:55Z</time>
      </trkpt>
      <trkpt lat="59.079387187957764" lon="30.00690221786499">
        <time>2026-04-25T11:49:58Z</time>
      </trkpt>
      <trkpt lat="59.079387187957764" lon="30.00690221786499">
        <time>2026-04-25T11:50:00Z</time>
      </trkpt>
      <trkpt lat="59.079387187957764" lon="30.006859302520752">
        <time>2026-04-25T11:50:03Z</time>
      </trkpt>
      <trkpt lat="59.079365730285645" lon="30.006816387176514">
        <time>2026-04-25T11:50:05Z</time>
      </trkpt>
      <trkpt lat="59.079365730285645" lon="30.006752014160156">
        <time>2026-04-25T11:50:08Z</time>
      </trkpt>
      <trkpt lat="59.079365730285645" lon="30.006687641143799">
        <time>2026-04-25T11:50:10Z</time>
      </trkpt>
      <trkpt lat="59.079365730285645" lon="30.006644725799561">
        <time>2026-04-25T11:50:13Z</time>
      </trkpt>
      <trkpt lat="59.079344272613525" lon="30.006601810455322">
        <time>2026-04-25T11:50:15Z</time>
      </trkpt>
      <trkpt lat="59.079322814941406" lon="30.006558895111084">
        <time>2026-04-25T11:50:18Z</time>
      </trkpt>
      <trkpt lat="59.079301357269287" lon="30.006515979766846">
        <time>2026-04-25T11:50:20Z</time>
      </trkpt>
      <trkpt lat="59.079301357269287" lon="30.006473064422607">
        <time>2026-04-25T11:50:23Z</time>
      </trkpt>
      <trkpt lat="59.079279899597168" lon="30.00640869140625">
        <time>2026-04-25T11:50:25Z</time>
      </trkpt>
      <trkpt lat="59.079279899597168" lon="30.006344318389893">
        <time>2026-04-25T11:50:28Z</time>
      </trkpt>
      <trkpt lat="59.079279899597168" lon="30.006344318389893">
        <time>2026-04-25T11:50:30Z</time>
      </trkpt>
      <trkpt lat="59.079279899597168" lon="30.006322860717773">
        <time>2026-04-25T11:50:33Z</time>
      </trkpt>
      <trkpt lat="59.079258441925049" lon="30.006322860717773">
        <time>2026-04-25T11:50:35Z</time>
      </trkpt>
      <trkpt lat="59.079258441925049" lon="30.006322860717773">
        <time>2026-04-25T11:50:38Z</time>
      </trkpt>
      <trkpt lat="59.079258441925049" lon="30.006322860717773">
        <time>2026-04-25T11:50:40Z</time>
      </trkpt>
      <trkpt lat="59.079258441925049" lon="30.006344318389893">
        <time>2026-04-25T11:50:43Z</time>
      </trkpt>
      <trkpt lat="59.079258441925049" lon="30.006322860717773">
        <time>2026-04-25T11:50:45Z</time>
      </trkpt>
      <trkpt lat="59.079258441925049" lon="30.006279945373535">
        <time>2026-04-25T11:50:48Z</time>
      </trkpt>
      <trkpt lat="59.079258441925049" lon="30.006215572357178">
        <time>2026-04-25T11:50:50Z</time>
      </trkpt>
      <trkpt lat="59.079279899597168" lon="30.006172657012939">
        <time>2026-04-25T11:50:53Z</time>
      </trkpt>
      <trkpt lat="59.079258441925049" lon="30.00615119934082">
        <time>2026-04-25T11:50:55Z</time>
      </trkpt>
      <trkpt lat="59.079279899597168" lon="30.006086826324463">
        <time>2026-04-25T11:50:58Z</time>
      </trkpt>
      <trkpt lat="59.079301357269287" lon="30.006043910980225">
        <time>2026-04-25T11:51:00Z</time>
      </trkpt>
      <trkpt lat="59.079279899597168" lon="30.006043910980225">
        <time>2026-04-25T11:51:03Z</time>
      </trkpt>
      <trkpt lat="59.079301357269287" lon="30.006000995635986">
        <time>2026-04-25T11:51:05Z</time>
      </trkpt>
      <trkpt lat="59.079279899597168" lon="30.005979537963867">
        <time>2026-04-25T11:51:08Z</time>
      </trkpt>
      <trkpt lat="59.079279899597168" lon="30.005936622619629">
        <time>2026-04-25T11:51:10Z</time>
      </trkpt>
      <trkpt lat="59.079279899597168" lon="30.005893707275391">
        <time>2026-04-25T11:51:13Z</time>
      </trkpt>
      <trkpt lat="59.079301357269287" lon="30.005829334259033">
        <time>2026-04-25T11:51:15Z</time>
      </trkpt>
      <trkpt lat="59.079279899597168" lon="30.005807876586914">
        <time>2026-04-25T11:51:18Z</time>
      </trkpt>
      <trkpt lat="59.079258441925049" lon="30.005764961242676">
        <time>2026-04-25T11:51:20Z</time>
      </trkpt>
      <trkpt lat="59.079258441925049" lon="30.005743503570557">
        <time>2026-04-25T11:51:23Z</time>
      </trkpt>
      <trkpt lat="59.079258441925049" lon="30.005679130554199">
        <time>2026-04-25T11:51:25Z</time>
      </trkpt>
      <trkpt lat="59.079279899597168" lon="30.005614757537842">
        <time>2026-04-25T11:51:28Z</time>
      </trkpt>
      <trkpt lat="59.079279899597168" lon="30.005571842193604">
        <time>2026-04-25T11:51:30Z</time>
      </trkpt>
      <trkpt lat="59.079279899597168" lon="30.005550384521484">
        <time>2026-04-25T11:51:33Z</time>
      </trkpt>
      <trkpt lat="59.079279899597168" lon="30.005486011505127">
        <time>2026-04-25T11:51:35Z</time>
      </trkpt>
      <trkpt lat="59.079279899597168" lon="30.005486011505127">
        <time>2026-04-25T11:51:38Z</time>
      </trkpt>
      <trkpt lat="59.079279899597168" lon="30.005443096160889">
        <time>2026-04-25T11:51:40Z</time>
      </trkpt>
      <trkpt lat="59.079279899597168" lon="30.00542163848877">
        <time>2026-04-25T11:51:43Z</time>
      </trkpt>
      <trkpt lat="59.079258441925049" lon="30.00540018081665">
        <time>2026-04-25T11:51:45Z</time>
      </trkpt>
      <trkpt lat="59.07923698425293" lon="30.00540018081665">
        <time>2026-04-25T11:51:48Z</time>
      </trkpt>
      <trkpt lat="59.07923698425293" lon="30.00542163848877">
        <time>2026-04-25T11:51:50Z</time>
      </trkpt>
      <trkpt lat="59.07923698425293" lon="30.00542163848877">
        <time>2026-04-25T11:51:53Z</time>
      </trkpt>
      <trkpt lat="59.07923698425293" lon="30.00540018081665">
        <time>2026-04-25T11:51:55Z</time>
      </trkpt>
      <trkpt lat="59.07923698425293" lon="30.00540018081665">
        <time>2026-04-25T11:51:58Z</time>
      </trkpt>
      <trkpt lat="59.079258441925049" lon="30.00540018081665">
        <time>2026-04-25T11:52:00Z</time>
      </trkpt>
      <trkpt lat="59.079258441925049" lon="30.00540018081665">
        <time>2026-04-25T11:52:03Z</time>
      </trkpt>
      <trkpt lat="59.079258441925049" lon="30.00540018081665">
        <time>2026-04-25T11:52:05Z</time>
      </trkpt>
      <trkpt lat="59.079258441925049" lon="30.00540018081665">
        <time>2026-04-25T11:52:08Z</time>
      </trkpt>
      <trkpt lat="59.079258441925049" lon="30.00540018081665">
        <time>2026-04-25T11:52:10Z</time>
      </trkpt>
      <trkpt lat="59.079258441925049" lon="30.00542163848877">
        <time>2026-04-25T11:52:13Z</time>
      </trkpt>
      <trkpt lat="59.079258441925049" lon="30.00542163848877">
        <time>2026-04-25T11:52:15Z</time>
      </trkpt>
      <trkpt lat="59.079279899597168" lon="30.00542163848877">
        <time>2026-04-25T11:52:18Z</time>
      </trkpt>
      <trkpt lat="59.079279899597168" lon="30.00542163848877">
        <time>2026-04-25T11:52:20Z</time>
      </trkpt>
      <trkpt lat="59.079279899597168" lon="30.00542163848877">
        <time>2026-04-25T11:52:23Z</time>
      </trkpt>
      <trkpt lat="59.079279899597168" lon="30.00542163848877">
        <time>2026-04-25T11:52:25Z</time>
      </trkpt>
      <trkpt lat="59.079279899597168" lon="30.005443096160889">
        <time>2026-04-25T11:52:28Z</time>
      </trkpt>
      <trkpt lat="59.079279899597168" lon="30.005443096160889">
        <time>2026-04-25T11:52:30Z</time>
      </trkpt>
      <trkpt lat="59.079279899597168" lon="30.005443096160889">
        <time>2026-04-25T11:52:33Z</time>
      </trkpt>
      <trkpt lat="59.079279899597168" lon="30.005443096160889">
        <time>2026-04-25T11:52:35Z</time>
      </trkpt>
      <trkpt lat="59.079279899597168" lon="30.005443096160889">
        <time>2026-04-25T11:52:38Z</time>
      </trkpt>
      <trkpt lat="59.079279899597168" lon="30.005443096160889">
        <time>2026-04-25T11:52:40Z</time>
      </trkpt>
      <trkpt lat="59.079279899597168" lon="30.005443096160889">
        <time>2026-04-25T11:52:43Z</time>
      </trkpt>
      <trkpt lat="59.079279899597168" lon="30.005443096160889">
        <time>2026-04-25T11:52:45Z</time>
      </trkpt>
      <trkpt lat="59.079279899597168" lon="30.005443096160889">
        <time>2026-04-25T11:52:48Z</time>
      </trkpt>
      <trkpt lat="59.079279899597168" lon="30.005443096160889">
        <time>2026-04-25T11:52:50Z</time>
      </trkpt>
      <trkpt lat="59.079279899597168" lon="30.005443096160889">
        <time>2026-04-25T11:52:53Z</time>
      </trkpt>
      <trkpt lat="59.079279899597168" lon="30.005443096160889">
        <time>2026-04-25T11:52:55Z</time>
      </trkpt>
      <trkpt lat="59.079279899597168" lon="30.005443096160889">
        <time>2026-04-25T11:52:58Z</time>
      </trkpt>
      <trkpt lat="59.079258441925049" lon="30.005443096160889">
        <time>2026-04-25T11:53:00Z</time>
      </trkpt>
      <trkpt lat="59.079215526580811" lon="30.005443096160889">
        <time>2026-04-25T11:53:03Z</time>
      </trkpt>
      <trkpt lat="59.079194068908691" lon="30.00540018081665">
        <time>2026-04-25T11:53:05Z</time>
      </trkpt>
      <trkpt lat="59.079172611236572" lon="30.00540018081665">
        <time>2026-04-25T11:53:08Z</time>
      </trkpt>
      <trkpt lat="59.079151153564453" lon="30.00542163848877">
        <time>2026-04-25T11:53:10Z</time>
      </trkpt>
      <trkpt lat="59.079129695892334" lon="30.005464553833008">
        <time>2026-04-25T11:53:13Z</time>
      </trkpt>
      <trkpt lat="59.079108238220215" lon="30.005486011505127">
        <time>2026-04-25T11:53:15Z</time>
      </trkpt>
      <trkpt lat="59.079108238220215" lon="30.005486011505127">
        <time>2026-04-25T11:53:18Z</time>
      </trkpt>
      <trkpt lat="59.079086780548096" lon="30.005507469177246">
        <time>2026-04-25T11:53:20Z</time>
      </trkpt>
      <trkpt lat="59.079065322875977" lon="30.005486011505127">
        <time>2026-04-25T11:53:23Z</time>
      </trkpt>
      <trkpt lat="59.079043865203857" lon="30.005464553833008">
        <time>2026-04-25T11:53:25Z</time>
      </trkpt>
      <trkpt lat="59.079022407531738" lon="30.005443096160889">
        <time>2026-04-25T11:53:28Z</time>
      </trkpt>
      <trkpt lat="59.079000949859619" lon="30.005443096160889">
        <time>2026-04-25T11:53:30Z</time>
      </trkpt>
      <trkpt lat="59.0789794921875" lon="30.005443096160889">
        <time>2026-04-25T11:53:33Z</time>
      </trkpt>
      <trkpt lat="59.0789794921875" lon="30.00542163848877">
        <time>2026-04-25T11:53:35Z</time>
      </trkpt>
      <trkpt lat="59.0789794921875" lon="30.00542163848877">
        <time>2026-04-25T11:53:38Z</time>
      </trkpt>
      <trkpt lat="59.0789794921875" lon="30.00542163848877">
        <time>2026-04-25T11:53:40Z</time>
      </trkpt>
      <trkpt lat="59.0789794921875" lon="30.00542163848877">
        <time>2026-04-25T11:53:43Z</time>
      </trkpt>
      <trkpt lat="59.0789794921875" lon="30.00542163848877">
        <time>2026-04-25T11:53:45Z</time>
      </trkpt>
      <trkpt lat="59.0789794921875" lon="30.00542163848877">
        <time>2026-04-25T11:53:48Z</time>
      </trkpt>
      <trkpt lat="59.0789794921875" lon="30.00542163848877">
        <time>2026-04-25T11:53:50Z</time>
      </trkpt>
      <trkpt lat="59.0789794921875" lon="30.00542163848877">
        <time>2026-04-25T11:53:53Z</time>
      </trkpt>
      <trkpt lat="59.0789794921875" lon="30.00542163848877">
        <time>2026-04-25T11:53:55Z</time>
      </trkpt>
      <trkpt lat="59.0789794921875" lon="30.00542163848877">
        <time>2026-04-25T11:53:58Z</time>
      </trkpt>
      <trkpt lat="59.0789794921875" lon="30.00542163848877">
        <time>2026-04-25T11:54:00Z</time>
      </trkpt>
      <trkpt lat="59.0789794921875" lon="30.00542163848877">
        <time>2026-04-25T11:54:03Z</time>
      </trkpt>
      <trkpt lat="59.0789794921875" lon="30.005443096160889">
        <time>2026-04-25T11:54:05Z</time>
      </trkpt>
      <trkpt lat="59.0789794921875" lon="30.005443096160889">
        <time>2026-04-25T11:54:08Z</time>
      </trkpt>
      <trkpt lat="59.0789794921875" lon="30.005443096160889">
        <time>2026-04-25T11:54:10Z</time>
      </trkpt>
      <trkpt lat="59.0789794921875" lon="30.005443096160889">
        <time>2026-04-25T11:54:13Z</time>
      </trkpt>
      <trkpt lat="59.0789794921875" lon="30.005443096160889">
        <time>2026-04-25T11:54:15Z</time>
      </trkpt>
      <trkpt lat="59.078958034515381" lon="30.005464553833008">
        <time>2026-04-25T11:54:18Z</time>
      </trkpt>
      <trkpt lat="59.078915119171143" lon="30.005464553833008">
        <time>2026-04-25T11:54:20Z</time>
      </trkpt>
      <trkpt lat="59.078893661499023" lon="30.005486011505127">
        <time>2026-04-25T11:54:23Z</time>
      </trkpt>
      <trkpt lat="59.078850746154785" lon="30.005528926849365">
        <time>2026-04-25T11:54:25Z</time>
      </trkpt>
      <trkpt lat="59.078850746154785" lon="30.005528926849365">
        <time>2026-04-25T11:54:28Z</time>
      </trkpt>
      <trkpt lat="59.078850746154785" lon="30.005528926849365">
        <time>2026-04-25T11:54:30Z</time>
      </trkpt>
      <trkpt lat="59.078850746154785" lon="30.005528926849365">
        <time>2026-04-25T11:54:33Z</time>
      </trkpt>
      <trkpt lat="59.078850746154785" lon="30.005528926849365">
        <time>2026-04-25T11:54:35Z</time>
      </trkpt>
      <trkpt lat="59.078850746154785" lon="30.005528926849365">
        <time>2026-04-25T11:54:38Z</time>
      </trkpt>
      <trkpt lat="59.078850746154785" lon="30.005528926849365">
        <time>2026-04-25T11:54:40Z</time>
      </trkpt>
      <trkpt lat="59.078850746154785" lon="30.005528926849365">
        <time>2026-04-25T11:54:43Z</time>
      </trkpt>
      <trkpt lat="59.078850746154785" lon="30.005550384521484">
        <time>2026-04-25T11:54:45Z</time>
      </trkpt>
      <trkpt lat="59.078829288482666" lon="30.005571842193604">
        <time>2026-04-25T11:54:48Z</time>
      </trkpt>
      <trkpt lat="59.078807830810547" lon="30.005593299865723">
        <time>2026-04-25T11:54:50Z</time>
      </trkpt>
      <trkpt lat="59.078807830810547" lon="30.005614757537842">
        <time>2026-04-25T11:54:53Z</time>
      </trkpt>
      <trkpt lat="59.078786373138428" lon="30.005636215209961">
        <time>2026-04-25T11:54:55Z</time>
      </trkpt>
      <trkpt lat="59.078764915466309" lon="30.005636215209961">
        <time>2026-04-25T11:54:58Z</time>
      </trkpt>
      <trkpt lat="59.078764915466309" lon="30.00565767288208">
        <time>2026-04-25T11:55:00Z</time>
      </trkpt>
      <trkpt lat="59.078764915466309" lon="30.005722045898438">
        <time>2026-04-25T11:55:03Z</time>
      </trkpt>
      <trkpt lat="59.078807830810547" lon="30.005829334259033">
        <time>2026-04-25T11:55:05Z</time>
      </trkpt>
      <trkpt lat="59.078829288482666" lon="30.005872249603271">
        <time>2026-04-25T11:55:08Z</time>
      </trkpt>
      <trkpt lat="59.078829288482666" lon="30.005936622619629">
        <time>2026-04-25T11:55:10Z</time>
      </trkpt>
      <trkpt lat="59.078829288482666" lon="30.006000995635986">
        <time>2026-04-25T11:55:13Z</time>
      </trkpt>
      <trkpt lat="59.078829288482666" lon="30.006043910980225">
        <time>2026-04-25T11:55:15Z</time>
      </trkpt>
      <trkpt lat="59.078829288482666" lon="30.006086826324463">
        <time>2026-04-25T11:55:18Z</time>
      </trkpt>
      <trkpt lat="59.078829288482666" lon="30.006108283996582">
        <time>2026-04-25T11:55:20Z</time>
      </trkpt>
      <trkpt lat="59.078829288482666" lon="30.00615119934082">
        <time>2026-04-25T11:55:23Z</time>
      </trkpt>
      <trkpt lat="59.078850746154785" lon="30.006194114685059">
        <time>2026-04-25T11:55:25Z</time>
      </trkpt>
      <trkpt lat="59.078850746154785" lon="30.006215572357178">
        <time>2026-04-25T11:55:28Z</time>
      </trkpt>
      <trkpt lat="59.078850746154785" lon="30.006237030029297">
        <time>2026-04-25T11:55:30Z</time>
      </trkpt>
      <trkpt lat="59.078850746154785" lon="30.006279945373535">
        <time>2026-04-25T11:55:33Z</time>
      </trkpt>
      <trkpt lat="59.078850746154785" lon="30.006322860717773">
        <time>2026-04-25T11:55:35Z</time>
      </trkpt>
      <trkpt lat="59.078850746154785" lon="30.006387233734131">
        <time>2026-04-25T11:55:38Z</time>
      </trkpt>
      <trkpt lat="59.078850746154785" lon="30.006451606750488">
        <time>2026-04-25T11:55:40Z</time>
      </trkpt>
      <trkpt lat="59.078850746154785" lon="30.006494522094727">
        <time>2026-04-25T11:55:43Z</time>
      </trkpt>
      <trkpt lat="59.078850746154785" lon="30.006537437438965">
        <time>2026-04-25T11:55:45Z</time>
      </trkpt>
      <trkpt lat="59.078872203826904" lon="30.006580352783203">
        <time>2026-04-25T11:55:48Z</time>
      </trkpt>
      <trkpt lat="59.078872203826904" lon="30.006623268127441">
        <time>2026-04-25T11:55:50Z</time>
      </trkpt>
      <trkpt lat="59.078872203826904" lon="30.00666618347168">
        <time>2026-04-25T11:55:53Z</time>
      </trkpt>
      <trkpt lat="59.078872203826904" lon="30.006709098815918">
        <time>2026-04-25T11:55:55Z</time>
      </trkpt>
      <trkpt lat="59.078872203826904" lon="30.006752014160156">
        <time>2026-04-25T11:55:58Z</time>
      </trkpt>
      <trkpt lat="59.078872203826904" lon="30.006794929504395">
        <time>2026-04-25T11:56:00Z</time>
      </trkpt>
      <trkpt lat="59.078872203826904" lon="30.006837844848633">
        <time>2026-04-25T11:56:03Z</time>
      </trkpt>
      <trkpt lat="59.078872203826904" lon="30.006880760192871">
        <time>2026-04-25T11:56:05Z</time>
      </trkpt>
      <trkpt lat="59.078872203826904" lon="30.006880760192871">
        <time>2026-04-25T11:56:08Z</time>
      </trkpt>
      <trkpt lat="59.078872203826904" lon="30.006923675537109">
        <time>2026-04-25T11:56:10Z</time>
      </trkpt>
      <trkpt lat="59.078872203826904" lon="30.006966590881348">
        <time>2026-04-25T11:56:13Z</time>
      </trkpt>
      <trkpt lat="59.078893661499023" lon="30.006988048553467">
        <time>2026-04-25T11:56:15Z</time>
      </trkpt>
      <trkpt lat="59.078893661499023" lon="30.007009506225586">
        <time>2026-04-25T11:56:18Z</time>
      </trkpt>
      <trkpt lat="59.078893661499023" lon="30.007009506225586">
        <time>2026-04-25T11:56:20Z</time>
      </trkpt>
      <trkpt lat="59.078893661499023" lon="30.007009506225586">
        <time>2026-04-25T11:56:23Z</time>
      </trkpt>
      <trkpt lat="59.078893661499023" lon="30.007009506225586">
        <time>2026-04-25T11:56:25Z</time>
      </trkpt>
      <trkpt lat="59.078893661499023" lon="30.007009506225586">
        <time>2026-04-25T11:56:28Z</time>
      </trkpt>
      <trkpt lat="59.078893661499023" lon="30.007009506225586">
        <time>2026-04-25T11:56:30Z</time>
      </trkpt>
      <trkpt lat="59.078893661499023" lon="30.007009506225586">
        <time>2026-04-25T11:56:33Z</time>
      </trkpt>
      <trkpt lat="59.078893661499023" lon="30.007009506225586">
        <time>2026-04-25T11:56:35Z</time>
      </trkpt>
      <trkpt lat="59.078893661499023" lon="30.007009506225586">
        <time>2026-04-25T11:56:38Z</time>
      </trkpt>
      <trkpt lat="59.078893661499023" lon="30.007030963897705">
        <time>2026-04-25T11:56:40Z</time>
      </trkpt>
      <trkpt lat="59.078893661499023" lon="30.007116794586182">
        <time>2026-04-25T11:56:43Z</time>
      </trkpt>
      <trkpt lat="59.078893661499023" lon="30.007224082946777">
        <time>2026-04-25T11:56:45Z</time>
      </trkpt>
      <trkpt lat="59.078893661499023" lon="30.007288455963135">
        <time>2026-04-25T11:56:48Z</time>
      </trkpt>
      <trkpt lat="59.078915119171143" lon="30.007374286651611">
        <time>2026-04-25T11:56:50Z</time>
      </trkpt>
      <trkpt lat="59.078915119171143" lon="30.007438659667969">
        <time>2026-04-25T11:56:53Z</time>
      </trkpt>
      <trkpt lat="59.078915119171143" lon="30.007460117340088">
        <time>2026-04-25T11:56:55Z</time>
      </trkpt>
      <trkpt lat="59.078915119171143" lon="30.007460117340088">
        <time>2026-04-25T11:56:58Z</time>
      </trkpt>
      <trkpt lat="59.078936576843262" lon="30.007481575012207">
        <time>2026-04-25T11:57:00Z</time>
      </trkpt>
      <trkpt lat="59.078936576843262" lon="30.007524490356445">
        <time>2026-04-25T11:57:03Z</time>
      </trkpt>
      <trkpt lat="59.078936576843262" lon="30.007545948028564">
        <time>2026-04-25T11:57:05Z</time>
      </trkpt>
      <trkpt lat="59.078958034515381" lon="30.007545948028564">
        <time>2026-04-25T11:57:08Z</time>
      </trkpt>
      <trkpt lat="59.078958034515381" lon="30.007545948028564">
        <time>2026-04-25T11:57:10Z</time>
      </trkpt>
      <trkpt lat="59.078958034515381" lon="30.007545948028564">
        <time>2026-04-25T11:57:13Z</time>
      </trkpt>
      <trkpt lat="59.078958034515381" lon="30.007545948028564">
        <time>2026-04-25T11:57:15Z</time>
      </trkpt>
      <trkpt lat="59.078958034515381" lon="30.007545948028564">
        <time>2026-04-25T11:57:18Z</time>
      </trkpt>
      <trkpt lat="59.078958034515381" lon="30.007545948028564">
        <time>2026-04-25T11:57:20Z</time>
      </trkpt>
      <trkpt lat="59.078958034515381" lon="30.007545948028564">
        <time>2026-04-25T11:57:23Z</time>
      </trkpt>
      <trkpt lat="59.078958034515381" lon="30.007545948028564">
        <time>2026-04-25T11:57:25Z</time>
      </trkpt>
      <trkpt lat="59.078958034515381" lon="30.007545948028564">
        <time>2026-04-25T11:57:28Z</time>
      </trkpt>
      <trkpt lat="59.078958034515381" lon="30.007545948028564">
        <time>2026-04-25T11:57:30Z</time>
      </trkpt>
      <trkpt lat="59.078958034515381" lon="30.007545948028564">
        <time>2026-04-25T11:57:33Z</time>
      </trkpt>
      <trkpt lat="59.078958034515381" lon="30.007545948028564">
        <time>2026-04-25T11:57:35Z</time>
      </trkpt>
      <trkpt lat="59.078958034515381" lon="30.007545948028564">
        <time>2026-04-25T11:57:38Z</time>
      </trkpt>
      <trkpt lat="59.078958034515381" lon="30.007545948028564">
        <time>2026-04-25T11:57:40Z</time>
      </trkpt>
      <trkpt lat="59.078958034515381" lon="30.007545948028564">
        <time>2026-04-25T11:57:43Z</time>
      </trkpt>
      <trkpt lat="59.078958034515381" lon="30.007545948028564">
        <time>2026-04-25T11:57:45Z</time>
      </trkpt>
      <trkpt lat="59.078958034515381" lon="30.007545948028564">
        <time>2026-04-25T11:57:48Z</time>
      </trkpt>
      <trkpt lat="59.078958034515381" lon="30.007545948028564">
        <time>2026-04-25T11:57:50Z</time>
      </trkpt>
      <trkpt lat="59.078936576843262" lon="30.007588863372803">
        <time>2026-04-25T11:57:53Z</time>
      </trkpt>
      <trkpt lat="59.078915119171143" lon="30.007610321044922">
        <time>2026-04-25T11:57:55Z</time>
      </trkpt>
      <trkpt lat="59.078915119171143" lon="30.007631778717041">
        <time>2026-04-25T11:57:58Z</time>
      </trkpt>
      <trkpt lat="59.078915119171143" lon="30.00765323638916">
        <time>2026-04-25T11:58:00Z</time>
      </trkpt>
      <trkpt lat="59.078893661499023" lon="30.00765323638916">
        <time>2026-04-25T11:58:03Z</time>
      </trkpt>
      <trkpt lat="59.078893661499023" lon="30.00765323638916">
        <time>2026-04-25T11:58:05Z</time>
      </trkpt>
      <trkpt lat="59.078893661499023" lon="30.00765323638916">
        <time>2026-04-25T11:58:08Z</time>
      </trkpt>
      <trkpt lat="59.078872203826904" lon="30.00765323638916">
        <time>2026-04-25T11:58:10Z</time>
      </trkpt>
      <trkpt lat="59.078850746154785" lon="30.00765323638916">
        <time>2026-04-25T11:58:13Z</time>
      </trkpt>
      <trkpt lat="59.078829288482666" lon="30.007674694061279">
        <time>2026-04-25T11:58:15Z</time>
      </trkpt>
      <trkpt lat="59.078829288482666" lon="30.007696151733398">
        <time>2026-04-25T11:58:18Z</time>
      </trkpt>
      <trkpt lat="59.078807830810547" lon="30.007717609405518">
        <time>2026-04-25T11:58:20Z</time>
      </trkpt>
      <trkpt lat="59.078807830810547" lon="30.007717609405518">
        <time>2026-04-25T11:58:23Z</time>
      </trkpt>
      <trkpt lat="59.078786373138428" lon="30.007739067077637">
        <time>2026-04-25T11:58:25Z</time>
      </trkpt>
      <trkpt lat="59.078764915466309" lon="30.007739067077637">
        <time>2026-04-25T11:58:28Z</time>
      </trkpt>
      <trkpt lat="59.078743457794189" lon="30.007739067077637">
        <time>2026-04-25T11:58:30Z</time>
      </trkpt>
      <trkpt lat="59.07872200012207" lon="30.007739067077637">
        <time>2026-04-25T11:58:33Z</time>
      </trkpt>
      <trkpt lat="59.07872200012207" lon="30.007739067077637">
        <time>2026-04-25T11:58:35Z</time>
      </trkpt>
      <trkpt lat="59.07872200012207" lon="30.007739067077637">
        <time>2026-04-25T11:58:38Z</time>
      </trkpt>
      <trkpt lat="59.07872200012207" lon="30.007739067077637">
        <time>2026-04-25T11:58:40Z</time>
      </trkpt>
      <trkpt lat="59.07872200012207" lon="30.007717609405518">
        <time>2026-04-25T11:58:43Z</time>
      </trkpt>
      <trkpt lat="59.07872200012207" lon="30.007717609405518">
        <time>2026-04-25T11:58:45Z</time>
      </trkpt>
      <trkpt lat="59.07872200012207" lon="30.007717609405518">
        <time>2026-04-25T11:58:48Z</time>
      </trkpt>
      <trkpt lat="59.07872200012207" lon="30.007717609405518">
        <time>2026-04-25T11:58:50Z</time>
      </trkpt>
      <trkpt lat="59.07872200012207" lon="30.007717609405518">
        <time>2026-04-25T11:58:53Z</time>
      </trkpt>
      <trkpt lat="59.07872200012207" lon="30.007717609405518">
        <time>2026-04-25T11:58:55Z</time>
      </trkpt>
      <trkpt lat="59.07872200012207" lon="30.007717609405518">
        <time>2026-04-25T11:58:58Z</time>
      </trkpt>
      <trkpt lat="59.07872200012207" lon="30.007717609405518">
        <time>2026-04-25T11:59:00Z</time>
      </trkpt>
      <trkpt lat="59.07872200012207" lon="30.007739067077637">
        <time>2026-04-25T11:59:03Z</time>
      </trkpt>
      <trkpt lat="59.07872200012207" lon="30.007739067077637">
        <time>2026-04-25T11:59:05Z</time>
      </trkpt>
      <trkpt lat="59.07872200012207" lon="30.007739067077637">
        <time>2026-04-25T11:59:08Z</time>
      </trkpt>
      <trkpt lat="59.07872200012207" lon="30.007760524749756">
        <time>2026-04-25T11:59:10Z</time>
      </trkpt>
      <trkpt lat="59.07872200012207" lon="30.007781982421875">
        <time>2026-04-25T11:59:13Z</time>
      </trkpt>
      <trkpt lat="59.07872200012207" lon="30.007824897766113">
        <time>2026-04-25T11:59:15Z</time>
      </trkpt>
      <trkpt lat="59.07872200012207" lon="30.007824897766113">
        <time>2026-04-25T11:59:18Z</time>
      </trkpt>
      <trkpt lat="59.07872200012207" lon="30.007867813110352">
        <time>2026-04-25T11:59:20Z</time>
      </trkpt>
      <trkpt lat="59.07872200012207" lon="30.007889270782471">
        <time>2026-04-25T11:59:23Z</time>
      </trkpt>
      <trkpt lat="59.07872200012207" lon="30.007932186126709">
        <time>2026-04-25T11:59:25Z</time>
      </trkpt>
      <trkpt lat="59.07872200012207" lon="30.007953643798828">
        <time>2026-04-25T11:59:28Z</time>
      </trkpt>
      <trkpt lat="59.07872200012207" lon="30.007975101470947">
        <time>2026-04-25T11:59:30Z</time>
      </trkpt>
      <trkpt lat="59.07872200012207" lon="30.007996559143066">
        <time>2026-04-25T11:59:33Z</time>
      </trkpt>
      <trkpt lat="59.07872200012207" lon="30.008039474487305">
        <time>2026-04-25T11:59:35Z</time>
      </trkpt>
      <trkpt lat="59.078700542449951" lon="30.008060932159424">
        <time>2026-04-25T11:59:38Z</time>
      </trkpt>
      <trkpt lat="59.078700542449951" lon="30.008060932159424">
        <time>2026-04-25T11:59:40Z</time>
      </trkpt>
      <trkpt lat="59.078700542449951" lon="30.008060932159424">
        <time>2026-04-25T11:59:43Z</time>
      </trkpt>
      <trkpt lat="59.078700542449951" lon="30.008103847503662">
        <time>2026-04-25T11:59:45Z</time>
      </trkpt>
      <trkpt lat="59.078700542449951" lon="30.008103847503662">
        <time>2026-04-25T11:59:48Z</time>
      </trkpt>
      <trkpt lat="59.078700542449951" lon="30.008125305175781">
        <time>2026-04-25T11:59:50Z</time>
      </trkpt>
      <trkpt lat="59.078700542449951" lon="30.008125305175781">
        <time>2026-04-25T11:59:53Z</time>
      </trkpt>
      <trkpt lat="59.078700542449951" lon="30.008125305175781">
        <time>2026-04-25T11:59:55Z</time>
      </trkpt>
      <trkpt lat="59.078700542449951" lon="30.008125305175781">
        <time>2026-04-25T11:59:58Z</time>
      </trkpt>
      <trkpt lat="59.078700542449951" lon="30.008125305175781">
        <time>2026-04-25T12:00:00Z</time>
      </trkpt>
      <trkpt lat="59.078700542449951" lon="30.008125305175781">
        <time>2026-04-25T12:00:03Z</time>
      </trkpt>
      <trkpt lat="59.078700542449951" lon="30.008125305175781">
        <time>2026-04-25T12:00:05Z</time>
      </trkpt>
      <trkpt lat="59.078700542449951" lon="30.008125305175781">
        <time>2026-04-25T12:00:08Z</time>
      </trkpt>
      <trkpt lat="59.078700542449951" lon="30.008125305175781">
        <time>2026-04-25T12:00:10Z</time>
      </trkpt>
      <trkpt lat="59.078679084777832" lon="30.008103847503662">
        <time>2026-04-25T12:00:13Z</time>
      </trkpt>
      <trkpt lat="59.078679084777832" lon="30.008082389831543">
        <time>2026-04-25T12:00:15Z</time>
      </trkpt>
      <trkpt lat="59.078679084777832" lon="30.008060932159424">
        <time>2026-04-25T12:00:18Z</time>
      </trkpt>
      <trkpt lat="59.078679084777832" lon="30.008060932159424">
        <time>2026-04-25T12:00:20Z</time>
      </trkpt>
      <trkpt lat="59.078679084777832" lon="30.008060932159424">
        <time>2026-04-25T12:00:23Z</time>
      </trkpt>
      <trkpt lat="59.078679084777832" lon="30.008060932159424">
        <time>2026-04-25T12:00:25Z</time>
      </trkpt>
      <trkpt lat="59.078679084777832" lon="30.008060932159424">
        <time>2026-04-25T12:00:28Z</time>
      </trkpt>
      <trkpt lat="59.078679084777832" lon="30.008060932159424">
        <time>2026-04-25T12:00:30Z</time>
      </trkpt>
      <trkpt lat="59.078679084777832" lon="30.008060932159424">
        <time>2026-04-25T12:00:33Z</time>
      </trkpt>
      <trkpt lat="59.078679084777832" lon="30.008060932159424">
        <time>2026-04-25T12:00:35Z</time>
      </trkpt>
      <trkpt lat="59.078679084777832" lon="30.008060932159424">
        <time>2026-04-25T12:00:38Z</time>
      </trkpt>
      <trkpt lat="59.078679084777832" lon="30.008039474487305">
        <time>2026-04-25T12:00:40Z</time>
      </trkpt>
      <trkpt lat="59.078679084777832" lon="30.008039474487305">
        <time>2026-04-25T12:00:43Z</time>
      </trkpt>
      <trkpt lat="59.078679084777832" lon="30.008039474487305">
        <time>2026-04-25T12:00:45Z</time>
      </trkpt>
      <trkpt lat="59.078679084777832" lon="30.008039474487305">
        <time>2026-04-25T12:00:48Z</time>
      </trkpt>
      <trkpt lat="59.078679084777832" lon="30.008039474487305">
        <time>2026-04-25T12:00:50Z</time>
      </trkpt>
      <trkpt lat="59.078679084777832" lon="30.008039474487305">
        <time>2026-04-25T12:00:53Z</time>
      </trkpt>
      <trkpt lat="59.078679084777832" lon="30.008039474487305">
        <time>2026-04-25T12:00:55Z</time>
      </trkpt>
      <trkpt lat="59.078679084777832" lon="30.008039474487305">
        <time>2026-04-25T12:00:58Z</time>
      </trkpt>
      <trkpt lat="59.078679084777832" lon="30.008039474487305">
        <time>2026-04-25T12:01:00Z</time>
      </trkpt>
      <trkpt lat="59.078679084777832" lon="30.008039474487305">
        <time>2026-04-25T12:01:03Z</time>
      </trkpt>
      <trkpt lat="59.078679084777832" lon="30.008039474487305">
        <time>2026-04-25T12:01:05Z</time>
      </trkpt>
      <trkpt lat="59.078679084777832" lon="30.008039474487305">
        <time>2026-04-25T12:01:08Z</time>
      </trkpt>
      <trkpt lat="59.078679084777832" lon="30.008039474487305">
        <time>2026-04-25T12:01:10Z</time>
      </trkpt>
      <trkpt lat="59.078679084777832" lon="30.008039474487305">
        <time>2026-04-25T12:01:13Z</time>
      </trkpt>
      <trkpt lat="59.078679084777832" lon="30.008039474487305">
        <time>2026-04-25T12:01:15Z</time>
      </trkpt>
      <trkpt lat="59.078679084777832" lon="30.008060932159424">
        <time>2026-04-25T12:01:18Z</time>
      </trkpt>
      <trkpt lat="59.078657627105713" lon="30.008060932159424">
        <time>2026-04-25T12:01:20Z</time>
      </trkpt>
      <trkpt lat="59.078657627105713" lon="30.008060932159424">
        <time>2026-04-25T12:01:23Z</time>
      </trkpt>
      <trkpt lat="59.078657627105713" lon="30.008060932159424">
        <time>2026-04-25T12:01:25Z</time>
      </trkpt>
      <trkpt lat="59.078657627105713" lon="30.008060932159424">
        <time>2026-04-25T12:01:28Z</time>
      </trkpt>
      <trkpt lat="59.078657627105713" lon="30.008060932159424">
        <time>2026-04-25T12:01:30Z</time>
      </trkpt>
      <trkpt lat="59.078657627105713" lon="30.008060932159424">
        <time>2026-04-25T12:01:33Z</time>
      </trkpt>
      <trkpt lat="59.078657627105713" lon="30.008060932159424">
        <time>2026-04-25T12:01:35Z</time>
      </trkpt>
      <trkpt lat="59.078657627105713" lon="30.008060932159424">
        <time>2026-04-25T12:01:38Z</time>
      </trkpt>
      <trkpt lat="59.078657627105713" lon="30.008060932159424">
        <time>2026-04-25T12:01:40Z</time>
      </trkpt>
      <trkpt lat="59.078657627105713" lon="30.008060932159424">
        <time>2026-04-25T12:01:43Z</time>
      </trkpt>
      <trkpt lat="59.078657627105713" lon="30.008060932159424">
        <time>2026-04-25T12:01:45Z</time>
      </trkpt>
      <trkpt lat="59.078657627105713" lon="30.008060932159424">
        <time>2026-04-25T12:01:48Z</time>
      </trkpt>
      <trkpt lat="59.078657627105713" lon="30.008060932159424">
        <time>2026-04-25T12:01:50Z</time>
      </trkpt>
      <trkpt lat="59.078657627105713" lon="30.008060932159424">
        <time>2026-04-25T12:01:53Z</time>
      </trkpt>
      <trkpt lat="59.078657627105713" lon="30.008060932159424">
        <time>2026-04-25T12:01:55Z</time>
      </trkpt>
      <trkpt lat="59.078657627105713" lon="30.008060932159424">
        <time>2026-04-25T12:01:58Z</time>
      </trkpt>
      <trkpt lat="59.078657627105713" lon="30.008060932159424">
        <time>2026-04-25T12:02:00Z</time>
      </trkpt>
      <trkpt lat="59.078657627105713" lon="30.008060932159424">
        <time>2026-04-25T12:02:03Z</time>
      </trkpt>
      <trkpt lat="59.078657627105713" lon="30.008060932159424">
        <time>2026-04-25T12:02:05Z</time>
      </trkpt>
      <trkpt lat="59.078657627105713" lon="30.008060932159424">
        <time>2026-04-25T12:02:08Z</time>
      </trkpt>
      <trkpt lat="59.078657627105713" lon="30.008060932159424">
        <time>2026-04-25T12:02:10Z</time>
      </trkpt>
      <trkpt lat="59.078657627105713" lon="30.008060932159424">
        <time>2026-04-25T12:02:13Z</time>
      </trkpt>
      <trkpt lat="59.078657627105713" lon="30.008060932159424">
        <time>2026-04-25T12:02:15Z</time>
      </trkpt>
      <trkpt lat="59.078657627105713" lon="30.008060932159424">
        <time>2026-04-25T12:02:18Z</time>
      </trkpt>
      <trkpt lat="59.078657627105713" lon="30.008060932159424">
        <time>2026-04-25T12:02:20Z</time>
      </trkpt>
      <trkpt lat="59.078657627105713" lon="30.008060932159424">
        <time>2026-04-25T12:02:23Z</time>
      </trkpt>
      <trkpt lat="59.078657627105713" lon="30.008060932159424">
        <time>2026-04-25T12:02:25Z</time>
      </trkpt>
      <trkpt lat="59.078657627105713" lon="30.008060932159424">
        <time>2026-04-25T12:02:28Z</time>
      </trkpt>
      <trkpt lat="59.078657627105713" lon="30.008060932159424">
        <time>2026-04-25T12:02:30Z</time>
      </trkpt>
      <trkpt lat="59.078657627105713" lon="30.008060932159424">
        <time>2026-04-25T12:02:33Z</time>
      </trkpt>
      <trkpt lat="59.078657627105713" lon="30.008060932159424">
        <time>2026-04-25T12:02:35Z</time>
      </trkpt>
      <trkpt lat="59.078657627105713" lon="30.008060932159424">
        <time>2026-04-25T12:02:38Z</time>
      </trkpt>
      <trkpt lat="59.078657627105713" lon="30.008060932159424">
        <time>2026-04-25T12:02:40Z</time>
      </trkpt>
      <trkpt lat="59.078657627105713" lon="30.008060932159424">
        <time>2026-04-25T12:02:43Z</time>
      </trkpt>
      <trkpt lat="59.078657627105713" lon="30.008060932159424">
        <time>2026-04-25T12:02:45Z</time>
      </trkpt>
      <trkpt lat="59.078657627105713" lon="30.008060932159424">
        <time>2026-04-25T12:02:48Z</time>
      </trkpt>
      <trkpt lat="59.078657627105713" lon="30.008060932159424">
        <time>2026-04-25T12:02:50Z</time>
      </trkpt>
      <trkpt lat="59.078657627105713" lon="30.008060932159424">
        <time>2026-04-25T12:02:53Z</time>
      </trkpt>
      <trkpt lat="59.078657627105713" lon="30.008060932159424">
        <time>2026-04-25T12:02:55Z</time>
      </trkpt>
      <trkpt lat="59.078657627105713" lon="30.008060932159424">
        <time>2026-04-25T12:02:58Z</time>
      </trkpt>
      <trkpt lat="59.078657627105713" lon="30.008060932159424">
        <time>2026-04-25T12:03:00Z</time>
      </trkpt>
      <trkpt lat="59.078657627105713" lon="30.008060932159424">
        <time>2026-04-25T12:03:03Z</time>
      </trkpt>
      <trkpt lat="59.078657627105713" lon="30.008060932159424">
        <time>2026-04-25T12:03:05Z</time>
      </trkpt>
      <trkpt lat="59.078657627105713" lon="30.008060932159424">
        <time>2026-04-25T12:03:08Z</time>
      </trkpt>
      <trkpt lat="59.078657627105713" lon="30.008060932159424">
        <time>2026-04-25T12:03:10Z</time>
      </trkpt>
      <trkpt lat="59.078657627105713" lon="30.008060932159424">
        <time>2026-04-25T12:03:13Z</time>
      </trkpt>
      <trkpt lat="59.078657627105713" lon="30.008060932159424">
        <time>2026-04-25T12:03:15Z</time>
      </trkpt>
      <trkpt lat="59.078657627105713" lon="30.008060932159424">
        <time>2026-04-25T12:03:18Z</time>
      </trkpt>
      <trkpt lat="59.078657627105713" lon="30.008060932159424">
        <time>2026-04-25T12:03:20Z</time>
      </trkpt>
      <trkpt lat="59.078657627105713" lon="30.008060932159424">
        <time>2026-04-25T12:03:23Z</time>
      </trkpt>
      <trkpt lat="59.078657627105713" lon="30.008060932159424">
        <time>2026-04-25T12:03:25Z</time>
      </trkpt>
      <trkpt lat="59.078657627105713" lon="30.008060932159424">
        <time>2026-04-25T12:03:28Z</time>
      </trkpt>
      <trkpt lat="59.078657627105713" lon="30.008060932159424">
        <time>2026-04-25T12:03:30Z</time>
      </trkpt>
      <trkpt lat="59.078657627105713" lon="30.008060932159424">
        <time>2026-04-25T12:03:33Z</time>
      </trkpt>
      <trkpt lat="59.078657627105713" lon="30.008060932159424">
        <time>2026-04-25T12:03:38Z</time>
      </trkpt>
      <trkpt lat="59.078657627105713" lon="30.008060932159424">
        <time>2026-04-25T12:03:40Z</time>
      </trkpt>
      <trkpt lat="59.078657627105713" lon="30.008060932159424">
        <time>2026-04-25T12:03:43Z</time>
      </trkpt>
      <trkpt lat="59.078657627105713" lon="30.008060932159424">
        <time>2026-04-25T12:03:45Z</time>
      </trkpt>
      <trkpt lat="59.078657627105713" lon="30.008060932159424">
        <time>2026-04-25T12:03:48Z</time>
      </trkpt>
      <trkpt lat="59.078657627105713" lon="30.008060932159424">
        <time>2026-04-25T12:03:50Z</time>
      </trkpt>
      <trkpt lat="59.078657627105713" lon="30.008060932159424">
        <time>2026-04-25T12:03:53Z</time>
      </trkpt>
      <trkpt lat="59.078657627105713" lon="30.008060932159424">
        <time>2026-04-25T12:03:55Z</time>
      </trkpt>
      <trkpt lat="59.078657627105713" lon="30.008060932159424">
        <time>2026-04-25T12:03:58Z</time>
      </trkpt>
      <trkpt lat="59.078657627105713" lon="30.008060932159424">
        <time>2026-04-25T12:04:00Z</time>
      </trkpt>
      <trkpt lat="59.078657627105713" lon="30.008060932159424">
        <time>2026-04-25T12:04:03Z</time>
      </trkpt>
      <trkpt lat="59.078657627105713" lon="30.008060932159424">
        <time>2026-04-25T12:04:05Z</time>
      </trkpt>
      <trkpt lat="59.078657627105713" lon="30.008060932159424">
        <time>2026-04-25T12:04:08Z</time>
      </trkpt>
      <trkpt lat="59.078657627105713" lon="30.008060932159424">
        <time>2026-04-25T12:04:10Z</time>
      </trkpt>
      <trkpt lat="59.078657627105713" lon="30.008060932159424">
        <time>2026-04-25T12:04:13Z</time>
      </trkpt>
      <trkpt lat="59.078657627105713" lon="30.008060932159424">
        <time>2026-04-25T12:04:15Z</time>
      </trkpt>
      <trkpt lat="59.078657627105713" lon="30.008060932159424">
        <time>2026-04-25T12:04:18Z</time>
      </trkpt>
      <trkpt lat="59.078657627105713" lon="30.008060932159424">
        <time>2026-04-25T12:04:20Z</time>
      </trkpt>
      <trkpt lat="59.078657627105713" lon="30.008060932159424">
        <time>2026-04-25T12:04:23Z</time>
      </trkpt>
      <trkpt lat="59.078657627105713" lon="30.008060932159424">
        <time>2026-04-25T12:04:25Z</time>
      </trkpt>
      <trkpt lat="59.078657627105713" lon="30.008060932159424">
        <time>2026-04-25T12:04:28Z</time>
      </trkpt>
      <trkpt lat="59.078657627105713" lon="30.008060932159424">
        <time>2026-04-25T12:04:30Z</time>
      </trkpt>
      <trkpt lat="59.078657627105713" lon="30.008060932159424">
        <time>2026-04-25T12:04:33Z</time>
      </trkpt>
      <trkpt lat="59.078657627105713" lon="30.008060932159424">
        <time>2026-04-25T12:04:35Z</time>
      </trkpt>
      <trkpt lat="59.078657627105713" lon="30.008060932159424">
        <time>2026-04-25T12:04:38Z</time>
      </trkpt>
      <trkpt lat="59.078657627105713" lon="30.008060932159424">
        <time>2026-04-25T12:04:40Z</time>
      </trkpt>
      <trkpt lat="59.078657627105713" lon="30.008060932159424">
        <time>2026-04-25T12:04:43Z</time>
      </trkpt>
      <trkpt lat="59.078657627105713" lon="30.008060932159424">
        <time>2026-04-25T12:04:45Z</time>
      </trkpt>
      <trkpt lat="59.078657627105713" lon="30.008060932159424">
        <time>2026-04-25T12:04:48Z</time>
      </trkpt>
      <trkpt lat="59.078657627105713" lon="30.008060932159424">
        <time>2026-04-25T12:04:50Z</time>
      </trkpt>
      <trkpt lat="59.078657627105713" lon="30.008060932159424">
        <time>2026-04-25T12:04:53Z</time>
      </trkpt>
      <trkpt lat="59.078657627105713" lon="30.008060932159424">
        <time>2026-04-25T12:04:55Z</time>
      </trkpt>
      <trkpt lat="59.078657627105713" lon="30.008060932159424">
        <time>2026-04-25T12:04:58Z</time>
      </trkpt>
      <trkpt lat="59.078657627105713" lon="30.008060932159424">
        <time>2026-04-25T12:05:00Z</time>
      </trkpt>
      <trkpt lat="59.078657627105713" lon="30.008060932159424">
        <time>2026-04-25T12:05:03Z</time>
      </trkpt>
      <trkpt lat="59.078657627105713" lon="30.008060932159424">
        <time>2026-04-25T12:05:05Z</time>
      </trkpt>
      <trkpt lat="59.078657627105713" lon="30.008060932159424">
        <time>2026-04-25T12:05:08Z</time>
      </trkpt>
      <trkpt lat="59.078657627105713" lon="30.008060932159424">
        <time>2026-04-25T12:05:10Z</time>
      </trkpt>
      <trkpt lat="59.078657627105713" lon="30.008060932159424">
        <time>2026-04-25T12:05:13Z</time>
      </trkpt>
      <trkpt lat="59.078657627105713" lon="30.008060932159424">
        <time>2026-04-25T12:05:15Z</time>
      </trkpt>
      <trkpt lat="59.078657627105713" lon="30.008060932159424">
        <time>2026-04-25T12:05:18Z</time>
      </trkpt>
      <trkpt lat="59.078657627105713" lon="30.008060932159424">
        <time>2026-04-25T12:05:20Z</time>
      </trkpt>
      <trkpt lat="59.078657627105713" lon="30.008060932159424">
        <time>2026-04-25T12:05:23Z</time>
      </trkpt>
      <trkpt lat="59.078657627105713" lon="30.008060932159424">
        <time>2026-04-25T12:05:25Z</time>
      </trkpt>
      <trkpt lat="59.078657627105713" lon="30.008060932159424">
        <time>2026-04-25T12:05:28Z</time>
      </trkpt>
      <trkpt lat="59.078657627105713" lon="30.008060932159424">
        <time>2026-04-25T12:05:30Z</time>
      </trkpt>
      <trkpt lat="59.078657627105713" lon="30.008060932159424">
        <time>2026-04-25T12:05:33Z</time>
      </trkpt>
      <trkpt lat="59.078636169433594" lon="30.008039474487305">
        <time>2026-04-25T12:05:35Z</time>
      </trkpt>
      <trkpt lat="59.078593254089355" lon="30.007975101470947">
        <time>2026-04-25T12:05:38Z</time>
      </trkpt>
      <trkpt lat="59.078550338745117" lon="30.00791072845459">
        <time>2026-04-25T12:05:40Z</time>
      </trkpt>
      <trkpt lat="59.078528881072998" lon="30.007846355438232">
        <time>2026-04-25T12:05:43Z</time>
      </trkpt>
      <trkpt lat="59.078507423400879" lon="30.007760524749756">
        <time>2026-04-25T12:05:45Z</time>
      </trkpt>
      <trkpt lat="59.078507423400879" lon="30.007739067077637">
        <time>2026-04-25T12:05:48Z</time>
      </trkpt>
      <trkpt lat="59.078464508056641" lon="30.007717609405518">
        <time>2026-04-25T12:05:50Z</time>
      </trkpt>
      <trkpt lat="59.078464508056641" lon="30.007674694061279">
        <time>2026-04-25T12:05:53Z</time>
      </trkpt>
      <trkpt lat="59.078443050384521" lon="30.007631778717041">
        <time>2026-04-25T12:05:55Z</time>
      </trkpt>
      <trkpt lat="59.078443050384521" lon="30.007588863372803">
        <time>2026-04-25T12:05:58Z</time>
      </trkpt>
      <trkpt lat="59.078443050384521" lon="30.007545948028564">
        <time>2026-04-25T12:06:00Z</time>
      </trkpt>
      <trkpt lat="59.078443050384521" lon="30.007524490356445">
        <time>2026-04-25T12:06:03Z</time>
      </trkpt>
      <trkpt lat="59.078443050384521" lon="30.007503032684326">
        <time>2026-04-25T12:06:05Z</time>
      </trkpt>
      <trkpt lat="59.078443050384521" lon="30.007460117340088">
        <time>2026-04-25T12:06:08Z</time>
      </trkpt>
      <trkpt lat="59.078421592712402" lon="30.007438659667969">
        <time>2026-04-25T12:06:10Z</time>
      </trkpt>
      <trkpt lat="59.078443050384521" lon="30.007374286651611">
        <time>2026-04-25T12:06:13Z</time>
      </trkpt>
      <trkpt lat="59.078443050384521" lon="30.007309913635254">
        <time>2026-04-25T12:06:15Z</time>
      </trkpt>
      <trkpt lat="59.078421592712402" lon="30.007288455963135">
        <time>2026-04-25T12:06:18Z</time>
      </trkpt>
      <trkpt lat="59.078443050384521" lon="30.007245540618896">
        <time>2026-04-25T12:06:20Z</time>
      </trkpt>
      <trkpt lat="59.078443050384521" lon="30.007202625274658">
        <time>2026-04-25T12:06:23Z</time>
      </trkpt>
      <trkpt lat="59.078443050384521" lon="30.007181167602539">
        <time>2026-04-25T12:06:25Z</time>
      </trkpt>
      <trkpt lat="59.078443050384521" lon="30.007095336914063">
        <time>2026-04-25T12:06:28Z</time>
      </trkpt>
      <trkpt lat="59.078443050384521" lon="30.007095336914063">
        <time>2026-04-25T12:06:30Z</time>
      </trkpt>
      <trkpt lat="59.078443050384521" lon="30.007052421569824">
        <time>2026-04-25T12:06:33Z</time>
      </trkpt>
      <trkpt lat="59.078421592712402" lon="30.007030963897705">
        <time>2026-04-25T12:06:35Z</time>
      </trkpt>
      <trkpt lat="59.078421592712402" lon="30.007009506225586">
        <time>2026-04-25T12:06:38Z</time>
      </trkpt>
      <trkpt lat="59.078400135040283" lon="30.006988048553467">
        <time>2026-04-25T12:06:40Z</time>
      </trkpt>
      <trkpt lat="59.078400135040283" lon="30.006966590881348">
        <time>2026-04-25T12:06:43Z</time>
      </trkpt>
      <trkpt lat="59.078378677368164" lon="30.006923675537109">
        <time>2026-04-25T12:06:45Z</time>
      </trkpt>
      <trkpt lat="59.078378677368164" lon="30.006859302520752">
        <time>2026-04-25T12:06:48Z</time>
      </trkpt>
      <trkpt lat="59.078378677368164" lon="30.006816387176514">
        <time>2026-04-25T12:06:50Z</time>
      </trkpt>
      <trkpt lat="59.078378677368164" lon="30.006752014160156">
        <time>2026-04-25T12:06:53Z</time>
      </trkpt>
      <trkpt lat="59.078378677368164" lon="30.006709098815918">
        <time>2026-04-25T12:06:55Z</time>
      </trkpt>
      <trkpt lat="59.078357219696045" lon="30.00666618347168">
        <time>2026-04-25T12:06:58Z</time>
      </trkpt>
      <trkpt lat="59.078357219696045" lon="30.006644725799561">
        <time>2026-04-25T12:07:00Z</time>
      </trkpt>
      <trkpt lat="59.078335762023926" lon="30.006601810455322">
        <time>2026-04-25T12:07:03Z</time>
      </trkpt>
      <trkpt lat="59.078314304351807" lon="30.006558895111084">
        <time>2026-04-25T12:07:05Z</time>
      </trkpt>
      <trkpt lat="59.078292846679688" lon="30.006494522094727">
        <time>2026-04-25T12:07:08Z</time>
      </trkpt>
      <trkpt lat="59.078292846679688" lon="30.006451606750488">
        <time>2026-04-25T12:07:10Z</time>
      </trkpt>
      <trkpt lat="59.078271389007568" lon="30.00640869140625">
        <time>2026-04-25T12:07:13Z</time>
      </trkpt>
      <trkpt lat="59.078271389007568" lon="30.006365776062012">
        <time>2026-04-25T12:07:15Z</time>
      </trkpt>
      <trkpt lat="59.078249931335449" lon="30.006344318389893">
        <time>2026-04-25T12:07:18Z</time>
      </trkpt>
      <trkpt lat="59.078249931335449" lon="30.006301403045654">
        <time>2026-04-25T12:07:20Z</time>
      </trkpt>
      <trkpt lat="59.078249931335449" lon="30.006237030029297">
        <time>2026-04-25T12:07:23Z</time>
      </trkpt>
      <trkpt lat="59.078249931335449" lon="30.006194114685059">
        <time>2026-04-25T12:07:25Z</time>
      </trkpt>
      <trkpt lat="59.07822847366333" lon="30.006172657012939">
        <time>2026-04-25T12:07:28Z</time>
      </trkpt>
      <trkpt lat="59.07822847366333" lon="30.00615119934082">
        <time>2026-04-25T12:07:30Z</time>
      </trkpt>
      <trkpt lat="59.078207015991211" lon="30.006129741668701">
        <time>2026-04-25T12:07:33Z</time>
      </trkpt>
      <trkpt lat="59.078185558319092" lon="30.006086826324463">
        <time>2026-04-25T12:07:35Z</time>
      </trkpt>
      <trkpt lat="59.078185558319092" lon="30.006043910980225">
        <time>2026-04-25T12:07:38Z</time>
      </trkpt>
      <trkpt lat="59.078185558319092" lon="30.006043910980225">
        <time>2026-04-25T12:07:40Z</time>
      </trkpt>
      <trkpt lat="59.078185558319092" lon="30.006043910980225">
        <time>2026-04-25T12:07:43Z</time>
      </trkpt>
      <trkpt lat="59.078185558319092" lon="30.006043910980225">
        <time>2026-04-25T12:07:45Z</time>
      </trkpt>
      <trkpt lat="59.078185558319092" lon="30.006065368652344">
        <time>2026-04-25T12:07:48Z</time>
      </trkpt>
      <trkpt lat="59.078207015991211" lon="30.006086826324463">
        <time>2026-04-25T12:07:50Z</time>
      </trkpt>
      <trkpt lat="59.078207015991211" lon="30.006108283996582">
        <time>2026-04-25T12:07:53Z</time>
      </trkpt>
      <trkpt lat="59.078207015991211" lon="30.006129741668701">
        <time>2026-04-25T12:07:55Z</time>
      </trkpt>
      <trkpt lat="59.078207015991211" lon="30.006129741668701">
        <time>2026-04-25T12:07:58Z</time>
      </trkpt>
      <trkpt lat="59.078207015991211" lon="30.006129741668701">
        <time>2026-04-25T12:08:00Z</time>
      </trkpt>
      <trkpt lat="59.078207015991211" lon="30.006129741668701">
        <time>2026-04-25T12:08:03Z</time>
      </trkpt>
      <trkpt lat="59.078207015991211" lon="30.006129741668701">
        <time>2026-04-25T12:08:05Z</time>
      </trkpt>
      <trkpt lat="59.078207015991211" lon="30.00615119934082">
        <time>2026-04-25T12:08:08Z</time>
      </trkpt>
      <trkpt lat="59.078185558319092" lon="30.006194114685059">
        <time>2026-04-25T12:08:10Z</time>
      </trkpt>
      <trkpt lat="59.078164100646973" lon="30.006237030029297">
        <time>2026-04-25T12:08:13Z</time>
      </trkpt>
      <trkpt lat="59.078142642974854" lon="30.006279945373535">
        <time>2026-04-25T12:08:15Z</time>
      </trkpt>
      <trkpt lat="59.078121185302734" lon="30.006301403045654">
        <time>2026-04-25T12:08:18Z</time>
      </trkpt>
      <trkpt lat="59.078099727630615" lon="30.006258487701416">
        <time>2026-04-25T12:08:20Z</time>
      </trkpt>
      <trkpt lat="59.078099727630615" lon="30.006258487701416">
        <time>2026-04-25T12:08:23Z</time>
      </trkpt>
      <trkpt lat="59.078078269958496" lon="30.006237030029297">
        <time>2026-04-25T12:08:25Z</time>
      </trkpt>
      <trkpt lat="59.078078269958496" lon="30.006237030029297">
        <time>2026-04-25T12:08:28Z</time>
      </trkpt>
      <trkpt lat="59.078056812286377" lon="30.006237030029297">
        <time>2026-04-25T12:08:30Z</time>
      </trkpt>
      <trkpt lat="59.078035354614258" lon="30.006258487701416">
        <time>2026-04-25T12:08:33Z</time>
      </trkpt>
      <trkpt lat="59.078013896942139" lon="30.006279945373535">
        <time>2026-04-25T12:08:35Z</time>
      </trkpt>
      <trkpt lat="59.07799243927002" lon="30.006301403045654">
        <time>2026-04-25T12:08:38Z</time>
      </trkpt>
      <trkpt lat="59.07799243927002" lon="30.006301403045654">
        <time>2026-04-25T12:08:40Z</time>
      </trkpt>
      <trkpt lat="59.0779709815979" lon="30.006301403045654">
        <time>2026-04-25T12:08:43Z</time>
      </trkpt>
      <trkpt lat="59.0779709815979" lon="30.006301403045654">
        <time>2026-04-25T12:08:45Z</time>
      </trkpt>
      <trkpt lat="59.0779709815979" lon="30.006301403045654">
        <time>2026-04-25T12:08:48Z</time>
      </trkpt>
      <trkpt lat="59.077949523925781" lon="30.006301403045654">
        <time>2026-04-25T12:08:50Z</time>
      </trkpt>
      <trkpt lat="59.077928066253662" lon="30.006322860717773">
        <time>2026-04-25T12:08:53Z</time>
      </trkpt>
      <trkpt lat="59.077906608581543" lon="30.006344318389893">
        <time>2026-04-25T12:08:55Z</time>
      </trkpt>
      <trkpt lat="59.077885150909424" lon="30.006365776062012">
        <time>2026-04-25T12:08:58Z</time>
      </trkpt>
      <trkpt lat="59.077863693237305" lon="30.006365776062012">
        <time>2026-04-25T12:09:00Z</time>
      </trkpt>
      <trkpt lat="59.077842235565186" lon="30.006365776062012">
        <time>2026-04-25T12:09:03Z</time>
      </trkpt>
      <trkpt lat="59.077842235565186" lon="30.006365776062012">
        <time>2026-04-25T12:09:05Z</time>
      </trkpt>
      <trkpt lat="59.077799320220947" lon="30.006344318389893">
        <time>2026-04-25T12:09:08Z</time>
      </trkpt>
      <trkpt lat="59.077799320220947" lon="30.006344318389893">
        <time>2026-04-25T12:09:10Z</time>
      </trkpt>
      <trkpt lat="59.077777862548828" lon="30.006344318389893">
        <time>2026-04-25T12:09:13Z</time>
      </trkpt>
      <trkpt lat="59.077756404876709" lon="30.006365776062012">
        <time>2026-04-25T12:09:15Z</time>
      </trkpt>
      <trkpt lat="59.077756404876709" lon="30.006365776062012">
        <time>2026-04-25T12:09:18Z</time>
      </trkpt>
      <trkpt lat="59.077756404876709" lon="30.006365776062012">
        <time>2026-04-25T12:09:20Z</time>
      </trkpt>
      <trkpt lat="59.077756404876709" lon="30.006365776062012">
        <time>2026-04-25T12:09:23Z</time>
      </trkpt>
      <trkpt lat="59.077756404876709" lon="30.006365776062012">
        <time>2026-04-25T12:09:25Z</time>
      </trkpt>
      <trkpt lat="59.077756404876709" lon="30.006365776062012">
        <time>2026-04-25T12:09:28Z</time>
      </trkpt>
      <trkpt lat="59.077756404876709" lon="30.006365776062012">
        <time>2026-04-25T12:09:30Z</time>
      </trkpt>
      <trkpt lat="59.077756404876709" lon="30.006365776062012">
        <time>2026-04-25T12:09:33Z</time>
      </trkpt>
      <trkpt lat="59.077756404876709" lon="30.006365776062012">
        <time>2026-04-25T12:09:35Z</time>
      </trkpt>
      <trkpt lat="59.077756404876709" lon="30.006365776062012">
        <time>2026-04-25T12:09:38Z</time>
      </trkpt>
      <trkpt lat="59.077756404876709" lon="30.006365776062012">
        <time>2026-04-25T12:09:40Z</time>
      </trkpt>
      <trkpt lat="59.077756404876709" lon="30.006365776062012">
        <time>2026-04-25T12:09:43Z</time>
      </trkpt>
      <trkpt lat="59.077756404876709" lon="30.006365776062012">
        <time>2026-04-25T12:09:45Z</time>
      </trkpt>
      <trkpt lat="59.077799320220947" lon="30.006387233734131">
        <time>2026-04-25T12:09:48Z</time>
      </trkpt>
      <trkpt lat="59.077820777893066" lon="30.006430149078369">
        <time>2026-04-25T12:09:50Z</time>
      </trkpt>
      <trkpt lat="59.077820777893066" lon="30.006451606750488">
        <time>2026-04-25T12:09:53Z</time>
      </trkpt>
      <trkpt lat="59.077842235565186" lon="30.006494522094727">
        <time>2026-04-25T12:09:55Z</time>
      </trkpt>
      <trkpt lat="59.077842235565186" lon="30.006515979766846">
        <time>2026-04-25T12:09:58Z</time>
      </trkpt>
      <trkpt lat="59.077842235565186" lon="30.006580352783203">
        <time>2026-04-25T12:10:00Z</time>
      </trkpt>
      <trkpt lat="59.077820777893066" lon="30.006601810455322">
        <time>2026-04-25T12:10:03Z</time>
      </trkpt>
      <trkpt lat="59.077820777893066" lon="30.006623268127441">
        <time>2026-04-25T12:10:05Z</time>
      </trkpt>
      <trkpt lat="59.077799320220947" lon="30.00666618347168">
        <time>2026-04-25T12:10:08Z</time>
      </trkpt>
      <trkpt lat="59.077799320220947" lon="30.006687641143799">
        <time>2026-04-25T12:10:10Z</time>
      </trkpt>
      <trkpt lat="59.077799320220947" lon="30.006709098815918">
        <time>2026-04-25T12:10:13Z</time>
      </trkpt>
      <trkpt lat="59.077799320220947" lon="30.006752014160156">
        <time>2026-04-25T12:10:15Z</time>
      </trkpt>
      <trkpt lat="59.077799320220947" lon="30.006773471832275">
        <time>2026-04-25T12:10:18Z</time>
      </trkpt>
      <trkpt lat="59.077799320220947" lon="30.006816387176514">
        <time>2026-04-25T12:10:20Z</time>
      </trkpt>
      <trkpt lat="59.077820777893066" lon="30.006859302520752">
        <time>2026-04-25T12:10:23Z</time>
      </trkpt>
      <trkpt lat="59.077820777893066" lon="30.006859302520752">
        <time>2026-04-25T12:10:25Z</time>
      </trkpt>
      <trkpt lat="59.077842235565186" lon="30.006880760192871">
        <time>2026-04-25T12:10:28Z</time>
      </trkpt>
      <trkpt lat="59.077842235565186" lon="30.00690221786499">
        <time>2026-04-25T12:10:30Z</time>
      </trkpt>
      <trkpt lat="59.077863693237305" lon="30.006945133209229">
        <time>2026-04-25T12:10:33Z</time>
      </trkpt>
      <trkpt lat="59.077863693237305" lon="30.007009506225586">
        <time>2026-04-25T12:10:35Z</time>
      </trkpt>
      <trkpt lat="59.077885150909424" lon="30.007052421569824">
        <time>2026-04-25T12:10:38Z</time>
      </trkpt>
      <trkpt lat="59.077885150909424" lon="30.007095336914063">
        <time>2026-04-25T12:10:40Z</time>
      </trkpt>
      <trkpt lat="59.077906608581543" lon="30.007095336914063">
        <time>2026-04-25T12:10:43Z</time>
      </trkpt>
      <trkpt lat="59.077928066253662" lon="30.007138252258301">
        <time>2026-04-25T12:10:45Z</time>
      </trkpt>
      <trkpt lat="59.077928066253662" lon="30.007181167602539">
        <time>2026-04-25T12:10:48Z</time>
      </trkpt>
      <trkpt lat="59.077949523925781" lon="30.007224082946777">
        <time>2026-04-25T12:10:50Z</time>
      </trkpt>
      <trkpt lat="59.077949523925781" lon="30.007245540618896">
        <time>2026-04-25T12:10:53Z</time>
      </trkpt>
      <trkpt lat="59.077949523925781" lon="30.007266998291016">
        <time>2026-04-25T12:10:55Z</time>
      </trkpt>
      <trkpt lat="59.077949523925781" lon="30.007331371307373">
        <time>2026-04-25T12:10:58Z</time>
      </trkpt>
      <trkpt lat="59.077949523925781" lon="30.007374286651611">
        <time>2026-04-25T12:11:00Z</time>
      </trkpt>
      <trkpt lat="59.0779709815979" lon="30.00739574432373">
        <time>2026-04-25T12:11:03Z</time>
      </trkpt>
      <trkpt lat="59.077949523925781" lon="30.007460117340088">
        <time>2026-04-25T12:11:05Z</time>
      </trkpt>
      <trkpt lat="59.0779709815979" lon="30.007503032684326">
        <time>2026-04-25T12:11:08Z</time>
      </trkpt>
      <trkpt lat="59.0779709815979" lon="30.007524490356445">
        <time>2026-04-25T12:11:10Z</time>
      </trkpt>
      <trkpt lat="59.0779709815979" lon="30.007567405700684">
        <time>2026-04-25T12:11:13Z</time>
      </trkpt>
      <trkpt lat="59.0779709815979" lon="30.007610321044922">
        <time>2026-04-25T12:11:15Z</time>
      </trkpt>
      <trkpt lat="59.07799243927002" lon="30.00765323638916">
        <time>2026-04-25T12:11:18Z</time>
      </trkpt>
      <trkpt lat="59.07799243927002" lon="30.007696151733398">
        <time>2026-04-25T12:11:20Z</time>
      </trkpt>
      <trkpt lat="59.07799243927002" lon="30.007739067077637">
        <time>2026-04-25T12:11:23Z</time>
      </trkpt>
      <trkpt lat="59.07799243927002" lon="30.007781982421875">
        <time>2026-04-25T12:11:25Z</time>
      </trkpt>
      <trkpt lat="59.07799243927002" lon="30.007824897766113">
        <time>2026-04-25T12:11:28Z</time>
      </trkpt>
      <trkpt lat="59.07799243927002" lon="30.007824897766113">
        <time>2026-04-25T12:11:30Z</time>
      </trkpt>
      <trkpt lat="59.078013896942139" lon="30.007846355438232">
        <time>2026-04-25T12:11:33Z</time>
      </trkpt>
      <trkpt lat="59.078013896942139" lon="30.007889270782471">
        <time>2026-04-25T12:11:35Z</time>
      </trkpt>
      <trkpt lat="59.078013896942139" lon="30.007932186126709">
        <time>2026-04-25T12:11:38Z</time>
      </trkpt>
      <trkpt lat="59.078013896942139" lon="30.007975101470947">
        <time>2026-04-25T12:11:40Z</time>
      </trkpt>
      <trkpt lat="59.078013896942139" lon="30.007996559143066">
        <time>2026-04-25T12:11:43Z</time>
      </trkpt>
      <trkpt lat="59.078013896942139" lon="30.007996559143066">
        <time>2026-04-25T12:11:45Z</time>
      </trkpt>
      <trkpt lat="59.078013896942139" lon="30.008018016815186">
        <time>2026-04-25T12:11:48Z</time>
      </trkpt>
      <trkpt lat="59.078013896942139" lon="30.008018016815186">
        <time>2026-04-25T12:11:50Z</time>
      </trkpt>
      <trkpt lat="59.078013896942139" lon="30.008018016815186">
        <time>2026-04-25T12:11:53Z</time>
      </trkpt>
      <trkpt lat="59.078035354614258" lon="30.008060932159424">
        <time>2026-04-25T12:11:55Z</time>
      </trkpt>
      <trkpt lat="59.078035354614258" lon="30.008103847503662">
        <time>2026-04-25T12:11:58Z</time>
      </trkpt>
      <trkpt lat="59.078035354614258" lon="30.008125305175781">
        <time>2026-04-25T12:12:00Z</time>
      </trkpt>
      <trkpt lat="59.078035354614258" lon="30.00816822052002">
        <time>2026-04-25T12:12:03Z</time>
      </trkpt>
      <trkpt lat="59.078035354614258" lon="30.008211135864258">
        <time>2026-04-25T12:12:05Z</time>
      </trkpt>
      <trkpt lat="59.078035354614258" lon="30.008232593536377">
        <time>2026-04-25T12:12:08Z</time>
      </trkpt>
      <trkpt lat="59.078035354614258" lon="30.008275508880615">
        <time>2026-04-25T12:12:10Z</time>
      </trkpt>
      <trkpt lat="59.078056812286377" lon="30.008296966552734">
        <time>2026-04-25T12:12:13Z</time>
      </trkpt>
      <trkpt lat="59.078056812286377" lon="30.008339881896973">
        <time>2026-04-25T12:12:15Z</time>
      </trkpt>
      <trkpt lat="59.078056812286377" lon="30.008339881896973">
        <time>2026-04-25T12:12:18Z</time>
      </trkpt>
      <trkpt lat="59.078056812286377" lon="30.008339881896973">
        <time>2026-04-25T12:12:20Z</time>
      </trkpt>
      <trkpt lat="59.078056812286377" lon="30.008339881896973">
        <time>2026-04-25T12:12:23Z</time>
      </trkpt>
      <trkpt lat="59.078056812286377" lon="30.008339881896973">
        <time>2026-04-25T12:12:25Z</time>
      </trkpt>
      <trkpt lat="59.078056812286377" lon="30.008339881896973">
        <time>2026-04-25T12:12:28Z</time>
      </trkpt>
      <trkpt lat="59.078056812286377" lon="30.008339881896973">
        <time>2026-04-25T12:12:30Z</time>
      </trkpt>
      <trkpt lat="59.078056812286377" lon="30.008339881896973">
        <time>2026-04-25T12:12:33Z</time>
      </trkpt>
      <trkpt lat="59.078056812286377" lon="30.008339881896973">
        <time>2026-04-25T12:12:35Z</time>
      </trkpt>
      <trkpt lat="59.078056812286377" lon="30.008339881896973">
        <time>2026-04-25T12:12:38Z</time>
      </trkpt>
      <trkpt lat="59.078056812286377" lon="30.008339881896973">
        <time>2026-04-25T12:12:40Z</time>
      </trkpt>
      <trkpt lat="59.078056812286377" lon="30.008339881896973">
        <time>2026-04-25T12:12:43Z</time>
      </trkpt>
      <trkpt lat="59.078056812286377" lon="30.008339881896973">
        <time>2026-04-25T12:12:45Z</time>
      </trkpt>
      <trkpt lat="59.078056812286377" lon="30.008339881896973">
        <time>2026-04-25T12:12:50Z</time>
      </trkpt>
      <trkpt lat="59.078056812286377" lon="30.008339881896973">
        <time>2026-04-25T12:12:53Z</time>
      </trkpt>
      <trkpt lat="59.078056812286377" lon="30.008339881896973">
        <time>2026-04-25T12:12:55Z</time>
      </trkpt>
      <trkpt lat="59.078056812286377" lon="30.008339881896973">
        <time>2026-04-25T12:12:58Z</time>
      </trkpt>
      <trkpt lat="59.078056812286377" lon="30.008361339569092">
        <time>2026-04-25T12:13:00Z</time>
      </trkpt>
      <trkpt lat="59.078056812286377" lon="30.008361339569092">
        <time>2026-04-25T12:13:03Z</time>
      </trkpt>
      <trkpt lat="59.078056812286377" lon="30.008382797241211">
        <time>2026-04-25T12:13:05Z</time>
      </trkpt>
      <trkpt lat="59.078056812286377" lon="30.008382797241211">
        <time>2026-04-25T12:13:08Z</time>
      </trkpt>
      <trkpt lat="59.078056812286377" lon="30.008382797241211">
        <time>2026-04-25T12:13:10Z</time>
      </trkpt>
      <trkpt lat="59.078056812286377" lon="30.008382797241211">
        <time>2026-04-25T12:13:13Z</time>
      </trkpt>
      <trkpt lat="59.078056812286377" lon="30.008382797241211">
        <time>2026-04-25T12:13:15Z</time>
      </trkpt>
      <trkpt lat="59.078056812286377" lon="30.008382797241211">
        <time>2026-04-25T12:13:18Z</time>
      </trkpt>
      <trkpt lat="59.078056812286377" lon="30.008382797241211">
        <time>2026-04-25T12:13:20Z</time>
      </trkpt>
      <trkpt lat="59.078056812286377" lon="30.008382797241211">
        <time>2026-04-25T12:13:23Z</time>
      </trkpt>
      <trkpt lat="59.078056812286377" lon="30.008382797241211">
        <time>2026-04-25T12:13:25Z</time>
      </trkpt>
      <trkpt lat="59.078056812286377" lon="30.008382797241211">
        <time>2026-04-25T12:13:28Z</time>
      </trkpt>
      <trkpt lat="59.078056812286377" lon="30.008382797241211">
        <time>2026-04-25T12:13:30Z</time>
      </trkpt>
      <trkpt lat="59.078056812286377" lon="30.008382797241211">
        <time>2026-04-25T12:13:33Z</time>
      </trkpt>
      <trkpt lat="59.078035354614258" lon="30.00840425491333">
        <time>2026-04-25T12:13:35Z</time>
      </trkpt>
      <trkpt lat="59.0779709815979" lon="30.008382797241211">
        <time>2026-04-25T12:13:40Z</time>
      </trkpt>
      <trkpt lat="59.077949523925781" lon="30.008361339569092">
        <time>2026-04-25T12:13:43Z</time>
      </trkpt>
      <trkpt lat="59.077928066253662" lon="30.008382797241211">
        <time>2026-04-25T12:13:45Z</time>
      </trkpt>
      <trkpt lat="59.077906608581543" lon="30.008382797241211">
        <time>2026-04-25T12:13:48Z</time>
      </trkpt>
      <trkpt lat="59.077906608581543" lon="30.008382797241211">
        <time>2026-04-25T12:13:50Z</time>
      </trkpt>
      <trkpt lat="59.077885150909424" lon="30.008382797241211">
        <time>2026-04-25T12:13:53Z</time>
      </trkpt>
      <trkpt lat="59.077863693237305" lon="30.008425712585449">
        <time>2026-04-25T12:13:55Z</time>
      </trkpt>
      <trkpt lat="59.077842235565186" lon="30.008447170257568">
        <time>2026-04-25T12:13:58Z</time>
      </trkpt>
      <trkpt lat="59.077820777893066" lon="30.008447170257568">
        <time>2026-04-25T12:14:00Z</time>
      </trkpt>
      <trkpt lat="59.077799320220947" lon="30.008468627929687">
        <time>2026-04-25T12:14:03Z</time>
      </trkpt>
      <trkpt lat="59.077799320220947" lon="30.008490085601807">
        <time>2026-04-25T12:14:05Z</time>
      </trkpt>
      <trkpt lat="59.077777862548828" lon="30.008511543273926">
        <time>2026-04-25T12:14:08Z</time>
      </trkpt>
      <trkpt lat="59.077756404876709" lon="30.008490085601807">
        <time>2026-04-25T12:14:10Z</time>
      </trkpt>
      <trkpt lat="59.07773494720459" lon="30.008490085601807">
        <time>2026-04-25T12:14:13Z</time>
      </trkpt>
      <trkpt lat="59.077713489532471" lon="30.008511543273926">
        <time>2026-04-25T12:14:15Z</time>
      </trkpt>
      <trkpt lat="59.077713489532471" lon="30.008490085601807">
        <time>2026-04-25T12:14:18Z</time>
      </trkpt>
      <trkpt lat="59.077692031860352" lon="30.008490085601807">
        <time>2026-04-25T12:14:20Z</time>
      </trkpt>
      <trkpt lat="59.077670574188232" lon="30.008511543273926">
        <time>2026-04-25T12:14:23Z</time>
      </trkpt>
      <trkpt lat="59.077670574188232" lon="30.008490085601807">
        <time>2026-04-25T12:14:25Z</time>
      </trkpt>
      <trkpt lat="59.077649116516113" lon="30.008490085601807">
        <time>2026-04-25T12:14:28Z</time>
      </trkpt>
      <trkpt lat="59.077649116516113" lon="30.008490085601807">
        <time>2026-04-25T12:14:30Z</time>
      </trkpt>
      <trkpt lat="59.077649116516113" lon="30.008490085601807">
        <time>2026-04-25T12:14:33Z</time>
      </trkpt>
      <trkpt lat="59.077649116516113" lon="30.008490085601807">
        <time>2026-04-25T12:14:35Z</time>
      </trkpt>
      <trkpt lat="59.077649116516113" lon="30.008490085601807">
        <time>2026-04-25T12:14:38Z</time>
      </trkpt>
      <trkpt lat="59.077649116516113" lon="30.008490085601807">
        <time>2026-04-25T12:14:40Z</time>
      </trkpt>
      <trkpt lat="59.077649116516113" lon="30.008490085601807">
        <time>2026-04-25T12:14:43Z</time>
      </trkpt>
      <trkpt lat="59.077649116516113" lon="30.008490085601807">
        <time>2026-04-25T12:14:45Z</time>
      </trkpt>
      <trkpt lat="59.077649116516113" lon="30.008490085601807">
        <time>2026-04-25T12:14:48Z</time>
      </trkpt>
      <trkpt lat="59.077649116516113" lon="30.008511543273926">
        <time>2026-04-25T12:14:50Z</time>
      </trkpt>
      <trkpt lat="59.077649116516113" lon="30.008511543273926">
        <time>2026-04-25T12:14:53Z</time>
      </trkpt>
      <trkpt lat="59.077649116516113" lon="30.008511543273926">
        <time>2026-04-25T12:14:55Z</time>
      </trkpt>
      <trkpt lat="59.077649116516113" lon="30.008511543273926">
        <time>2026-04-25T12:14:58Z</time>
      </trkpt>
      <trkpt lat="59.077649116516113" lon="30.008511543273926">
        <time>2026-04-25T12:15:00Z</time>
      </trkpt>
      <trkpt lat="59.077649116516113" lon="30.008511543273926">
        <time>2026-04-25T12:15:03Z</time>
      </trkpt>
      <trkpt lat="59.077649116516113" lon="30.008511543273926">
        <time>2026-04-25T12:15:05Z</time>
      </trkpt>
      <trkpt lat="59.077649116516113" lon="30.008511543273926">
        <time>2026-04-25T12:15:08Z</time>
      </trkpt>
      <trkpt lat="59.077649116516113" lon="30.008511543273926">
        <time>2026-04-25T12:15:10Z</time>
      </trkpt>
      <trkpt lat="59.077649116516113" lon="30.008511543273926">
        <time>2026-04-25T12:15:13Z</time>
      </trkpt>
      <trkpt lat="59.077649116516113" lon="30.008511543273926">
        <time>2026-04-25T12:15:15Z</time>
      </trkpt>
      <trkpt lat="59.077649116516113" lon="30.008511543273926">
        <time>2026-04-25T12:15:18Z</time>
      </trkpt>
      <trkpt lat="59.077627658843994" lon="30.008490085601807">
        <time>2026-04-25T12:15:20Z</time>
      </trkpt>
      <trkpt lat="59.077606201171875" lon="30.008447170257568">
        <time>2026-04-25T12:15:23Z</time>
      </trkpt>
      <trkpt lat="59.077563285827637" lon="30.008382797241211">
        <time>2026-04-25T12:15:25Z</time>
      </trkpt>
      <trkpt lat="59.077520370483398" lon="30.008339881896973">
        <time>2026-04-25T12:15:28Z</time>
      </trkpt>
      <trkpt lat="59.07747745513916" lon="30.008296966552734">
        <time>2026-04-25T12:15:30Z</time>
      </trkpt>
      <trkpt lat="59.077455997467041" lon="30.008275508880615">
        <time>2026-04-25T12:15:33Z</time>
      </trkpt>
      <trkpt lat="59.077434539794922" lon="30.008254051208496">
        <time>2026-04-25T12:15:35Z</time>
      </trkpt>
      <trkpt lat="59.077413082122803" lon="30.008254051208496">
        <time>2026-04-25T12:15:38Z</time>
      </trkpt>
      <trkpt lat="59.077391624450684" lon="30.008211135864258">
        <time>2026-04-25T12:15:40Z</time>
      </trkpt>
      <trkpt lat="59.077391624450684" lon="30.008211135864258">
        <time>2026-04-25T12:15:43Z</time>
      </trkpt>
      <trkpt lat="59.077391624450684" lon="30.008189678192139">
        <time>2026-04-25T12:15:45Z</time>
      </trkpt>
      <trkpt lat="59.077413082122803" lon="30.0081467628479">
        <time>2026-04-25T12:15:48Z</time>
      </trkpt>
      <trkpt lat="59.077391624450684" lon="30.008103847503662">
        <time>2026-04-25T12:15:50Z</time>
      </trkpt>
      <trkpt lat="59.077370166778564" lon="30.008060932159424">
        <time>2026-04-25T12:15:53Z</time>
      </trkpt>
      <trkpt lat="59.077370166778564" lon="30.008060932159424">
        <time>2026-04-25T12:15:55Z</time>
      </trkpt>
      <trkpt lat="59.077348709106445" lon="30.007996559143066">
        <time>2026-04-25T12:15:58Z</time>
      </trkpt>
      <trkpt lat="59.077348709106445" lon="30.007932186126709">
        <time>2026-04-25T12:16:00Z</time>
      </trkpt>
      <trkpt lat="59.077370166778564" lon="30.007889270782471">
        <time>2026-04-25T12:16:03Z</time>
      </trkpt>
      <trkpt lat="59.077391624450684" lon="30.007846355438232">
        <time>2026-04-25T12:16:05Z</time>
      </trkpt>
      <trkpt lat="59.077391624450684" lon="30.007824897766113">
        <time>2026-04-25T12:16:08Z</time>
      </trkpt>
      <trkpt lat="59.077370166778564" lon="30.007803440093994">
        <time>2026-04-25T12:16:10Z</time>
      </trkpt>
      <trkpt lat="59.077370166778564" lon="30.007781982421875">
        <time>2026-04-25T12:16:13Z</time>
      </trkpt>
      <trkpt lat="59.077348709106445" lon="30.007739067077637">
        <time>2026-04-25T12:16:15Z</time>
      </trkpt>
      <trkpt lat="59.077348709106445" lon="30.007717609405518">
        <time>2026-04-25T12:16:18Z</time>
      </trkpt>
      <trkpt lat="59.077348709106445" lon="30.007696151733398">
        <time>2026-04-25T12:16:20Z</time>
      </trkpt>
      <trkpt lat="59.077327251434326" lon="30.007696151733398">
        <time>2026-04-25T12:16:23Z</time>
      </trkpt>
      <trkpt lat="59.077327251434326" lon="30.007631778717041">
        <time>2026-04-25T12:16:25Z</time>
      </trkpt>
      <trkpt lat="59.077327251434326" lon="30.007588863372803">
        <time>2026-04-25T12:16:28Z</time>
      </trkpt>
      <trkpt lat="59.077327251434326" lon="30.007545948028564">
        <time>2026-04-25T12:16:30Z</time>
      </trkpt>
      <trkpt lat="59.077348709106445" lon="30.007503032684326">
        <time>2026-04-25T12:16:33Z</time>
      </trkpt>
      <trkpt lat="59.077348709106445" lon="30.007481575012207">
        <time>2026-04-25T12:16:35Z</time>
      </trkpt>
      <trkpt lat="59.077327251434326" lon="30.007460117340088">
        <time>2026-04-25T12:16:38Z</time>
      </trkpt>
      <trkpt lat="59.077327251434326" lon="30.007438659667969">
        <time>2026-04-25T12:16:40Z</time>
      </trkpt>
      <trkpt lat="59.077327251434326" lon="30.00741720199585">
        <time>2026-04-25T12:16:43Z</time>
      </trkpt>
      <trkpt lat="59.077327251434326" lon="30.00741720199585">
        <time>2026-04-25T12:16:45Z</time>
      </trkpt>
      <trkpt lat="59.077327251434326" lon="30.00741720199585">
        <time>2026-04-25T12:16:48Z</time>
      </trkpt>
      <trkpt lat="59.077327251434326" lon="30.00741720199585">
        <time>2026-04-25T12:16:50Z</time>
      </trkpt>
      <trkpt lat="59.077327251434326" lon="30.00741720199585">
        <time>2026-04-25T12:16:53Z</time>
      </trkpt>
      <trkpt lat="59.077327251434326" lon="30.00741720199585">
        <time>2026-04-25T12:16:55Z</time>
      </trkpt>
      <trkpt lat="59.077327251434326" lon="30.00741720199585">
        <time>2026-04-25T12:16:58Z</time>
      </trkpt>
      <trkpt lat="59.077327251434326" lon="30.00741720199585">
        <time>2026-04-25T12:17:00Z</time>
      </trkpt>
      <trkpt lat="59.077327251434326" lon="30.00739574432373">
        <time>2026-04-25T12:17:03Z</time>
      </trkpt>
      <trkpt lat="59.077305793762207" lon="30.007331371307373">
        <time>2026-04-25T12:17:05Z</time>
      </trkpt>
      <trkpt lat="59.077284336090088" lon="30.007288455963135">
        <time>2026-04-25T12:17:08Z</time>
      </trkpt>
      <trkpt lat="59.077284336090088" lon="30.007266998291016">
        <time>2026-04-25T12:17:10Z</time>
      </trkpt>
      <trkpt lat="59.077262878417969" lon="30.007245540618896">
        <time>2026-04-25T12:17:13Z</time>
      </trkpt>
      <trkpt lat="59.077262878417969" lon="30.007245540618896">
        <time>2026-04-25T12:17:15Z</time>
      </trkpt>
      <trkpt lat="59.077262878417969" lon="30.007245540618896">
        <time>2026-04-25T12:17:18Z</time>
      </trkpt>
      <trkpt lat="59.077262878417969" lon="30.007224082946777">
        <time>2026-04-25T12:17:20Z</time>
      </trkpt>
      <trkpt lat="59.077284336090088" lon="30.007138252258301">
        <time>2026-04-25T12:17:23Z</time>
      </trkpt>
      <trkpt lat="59.077284336090088" lon="30.007052421569824">
        <time>2026-04-25T12:17:25Z</time>
      </trkpt>
      <trkpt lat="59.077284336090088" lon="30.006988048553467">
        <time>2026-04-25T12:17:28Z</time>
      </trkpt>
      <trkpt lat="59.077284336090088" lon="30.006966590881348">
        <time>2026-04-25T12:17:30Z</time>
      </trkpt>
      <trkpt lat="59.077284336090088" lon="30.006923675537109">
        <time>2026-04-25T12:17:33Z</time>
      </trkpt>
      <trkpt lat="59.077305793762207" lon="30.006880760192871">
        <time>2026-04-25T12:17:35Z</time>
      </trkpt>
      <trkpt lat="59.077327251434326" lon="30.006859302520752">
        <time>2026-04-25T12:17:38Z</time>
      </trkpt>
      <trkpt lat="59.077327251434326" lon="30.006816387176514">
        <time>2026-04-25T12:17:40Z</time>
      </trkpt>
      <trkpt lat="59.077348709106445" lon="30.006794929504395">
        <time>2026-04-25T12:17:43Z</time>
      </trkpt>
      <trkpt lat="59.077327251434326" lon="30.006794929504395">
        <time>2026-04-25T12:17:45Z</time>
      </trkpt>
      <trkpt lat="59.077327251434326" lon="30.006773471832275">
        <time>2026-04-25T12:17:48Z</time>
      </trkpt>
      <trkpt lat="59.077327251434326" lon="30.006773471832275">
        <time>2026-04-25T12:17:50Z</time>
      </trkpt>
      <trkpt lat="59.077327251434326" lon="30.006773471832275">
        <time>2026-04-25T12:17:53Z</time>
      </trkpt>
      <trkpt lat="59.077305793762207" lon="30.006752014160156">
        <time>2026-04-25T12:17:55Z</time>
      </trkpt>
      <trkpt lat="59.077305793762207" lon="30.006730556488037">
        <time>2026-04-25T12:17:58Z</time>
      </trkpt>
      <trkpt lat="59.077305793762207" lon="30.006709098815918">
        <time>2026-04-25T12:18:00Z</time>
      </trkpt>
      <trkpt lat="59.077284336090088" lon="30.006687641143799">
        <time>2026-04-25T12:18:03Z</time>
      </trkpt>
      <trkpt lat="59.077284336090088" lon="30.006687641143799">
        <time>2026-04-25T12:18:05Z</time>
      </trkpt>
      <trkpt lat="59.077284336090088" lon="30.006687641143799">
        <time>2026-04-25T12:18:08Z</time>
      </trkpt>
      <trkpt lat="59.077284336090088" lon="30.006687641143799">
        <time>2026-04-25T12:18:10Z</time>
      </trkpt>
      <trkpt lat="59.077284336090088" lon="30.006687641143799">
        <time>2026-04-25T12:18:13Z</time>
      </trkpt>
      <trkpt lat="59.077284336090088" lon="30.006687641143799">
        <time>2026-04-25T12:18:15Z</time>
      </trkpt>
      <trkpt lat="59.077284336090088" lon="30.006687641143799">
        <time>2026-04-25T12:18:18Z</time>
      </trkpt>
      <trkpt lat="59.077284336090088" lon="30.006687641143799">
        <time>2026-04-25T12:18:20Z</time>
      </trkpt>
      <trkpt lat="59.077284336090088" lon="30.006687641143799">
        <time>2026-04-25T12:18:23Z</time>
      </trkpt>
      <trkpt lat="59.077284336090088" lon="30.006687641143799">
        <time>2026-04-25T12:18:25Z</time>
      </trkpt>
      <trkpt lat="59.077305793762207" lon="30.006687641143799">
        <time>2026-04-25T12:18:28Z</time>
      </trkpt>
      <trkpt lat="59.077305793762207" lon="30.006687641143799">
        <time>2026-04-25T12:18:30Z</time>
      </trkpt>
      <trkpt lat="59.077305793762207" lon="30.006687641143799">
        <time>2026-04-25T12:18:33Z</time>
      </trkpt>
      <trkpt lat="59.077305793762207" lon="30.006687641143799">
        <time>2026-04-25T12:18:35Z</time>
      </trkpt>
      <trkpt lat="59.077305793762207" lon="30.006687641143799">
        <time>2026-04-25T12:18:38Z</time>
      </trkpt>
      <trkpt lat="59.077305793762207" lon="30.006687641143799">
        <time>2026-04-25T12:18:40Z</time>
      </trkpt>
      <trkpt lat="59.077305793762207" lon="30.006687641143799">
        <time>2026-04-25T12:18:43Z</time>
      </trkpt>
      <trkpt lat="59.077284336090088" lon="30.006644725799561">
        <time>2026-04-25T12:18:45Z</time>
      </trkpt>
      <trkpt lat="59.077284336090088" lon="30.006623268127441">
        <time>2026-04-25T12:18:48Z</time>
      </trkpt>
      <trkpt lat="59.077262878417969" lon="30.006580352783203">
        <time>2026-04-25T12:18:50Z</time>
      </trkpt>
      <trkpt lat="59.077262878417969" lon="30.006580352783203">
        <time>2026-04-25T12:18:53Z</time>
      </trkpt>
      <trkpt lat="59.077262878417969" lon="30.006580352783203">
        <time>2026-04-25T12:18:55Z</time>
      </trkpt>
      <trkpt lat="59.077262878417969" lon="30.006580352783203">
        <time>2026-04-25T12:18:58Z</time>
      </trkpt>
      <trkpt lat="59.077262878417969" lon="30.006580352783203">
        <time>2026-04-25T12:19:00Z</time>
      </trkpt>
      <trkpt lat="59.077262878417969" lon="30.006580352783203">
        <time>2026-04-25T12:19:03Z</time>
      </trkpt>
      <trkpt lat="59.077262878417969" lon="30.006580352783203">
        <time>2026-04-25T12:19:05Z</time>
      </trkpt>
      <trkpt lat="59.077262878417969" lon="30.006580352783203">
        <time>2026-04-25T12:19:08Z</time>
      </trkpt>
      <trkpt lat="59.077262878417969" lon="30.006580352783203">
        <time>2026-04-25T12:19:10Z</time>
      </trkpt>
      <trkpt lat="59.077262878417969" lon="30.006580352783203">
        <time>2026-04-25T12:19:13Z</time>
      </trkpt>
      <trkpt lat="59.077262878417969" lon="30.006580352783203">
        <time>2026-04-25T12:19:15Z</time>
      </trkpt>
      <trkpt lat="59.077262878417969" lon="30.006580352783203">
        <time>2026-04-25T12:19:18Z</time>
      </trkpt>
      <trkpt lat="59.07721996307373" lon="30.006601810455322">
        <time>2026-04-25T12:19:20Z</time>
      </trkpt>
      <trkpt lat="59.07721996307373" lon="30.006601810455322">
        <time>2026-04-25T12:19:23Z</time>
      </trkpt>
      <trkpt lat="59.077198505401611" lon="30.006644725799561">
        <time>2026-04-25T12:19:25Z</time>
      </trkpt>
      <trkpt lat="59.077177047729492" lon="30.00666618347168">
        <time>2026-04-25T12:19:28Z</time>
      </trkpt>
      <trkpt lat="59.077177047729492" lon="30.00666618347168">
        <time>2026-04-25T12:19:30Z</time>
      </trkpt>
      <trkpt lat="59.077177047729492" lon="30.00666618347168">
        <time>2026-04-25T12:19:33Z</time>
      </trkpt>
      <trkpt lat="59.077177047729492" lon="30.00666618347168">
        <time>2026-04-25T12:19:35Z</time>
      </trkpt>
      <trkpt lat="59.077177047729492" lon="30.00666618347168">
        <time>2026-04-25T12:19:38Z</time>
      </trkpt>
      <trkpt lat="59.077177047729492" lon="30.00666618347168">
        <time>2026-04-25T12:19:40Z</time>
      </trkpt>
      <trkpt lat="59.077177047729492" lon="30.00666618347168">
        <time>2026-04-25T12:19:43Z</time>
      </trkpt>
      <trkpt lat="59.077177047729492" lon="30.00666618347168">
        <time>2026-04-25T12:19:45Z</time>
      </trkpt>
      <trkpt lat="59.077177047729492" lon="30.00666618347168">
        <time>2026-04-25T12:19:48Z</time>
      </trkpt>
      <trkpt lat="59.077177047729492" lon="30.00666618347168">
        <time>2026-04-25T12:19:50Z</time>
      </trkpt>
      <trkpt lat="59.077155590057373" lon="30.006601810455322">
        <time>2026-04-25T12:19:53Z</time>
      </trkpt>
      <trkpt lat="59.077134132385254" lon="30.006537437438965">
        <time>2026-04-25T12:19:55Z</time>
      </trkpt>
      <trkpt lat="59.077091217041016" lon="30.006494522094727">
        <time>2026-04-25T12:19:58Z</time>
      </trkpt>
      <trkpt lat="59.077069759368896" lon="30.006473064422607">
        <time>2026-04-25T12:20:00Z</time>
      </trkpt>
      <trkpt lat="59.077069759368896" lon="30.006473064422607">
        <time>2026-04-25T12:20:03Z</time>
      </trkpt>
      <trkpt lat="59.077069759368896" lon="30.006473064422607">
        <time>2026-04-25T12:20:05Z</time>
      </trkpt>
      <trkpt lat="59.077069759368896" lon="30.006451606750488">
        <time>2026-04-25T12:20:08Z</time>
      </trkpt>
      <trkpt lat="59.077069759368896" lon="30.006430149078369">
        <time>2026-04-25T12:20:10Z</time>
      </trkpt>
      <trkpt lat="59.077048301696777" lon="30.006387233734131">
        <time>2026-04-25T12:20:13Z</time>
      </trkpt>
      <trkpt lat="59.077048301696777" lon="30.006387233734131">
        <time>2026-04-25T12:20:15Z</time>
      </trkpt>
      <trkpt lat="59.077048301696777" lon="30.006387233734131">
        <time>2026-04-25T12:20:18Z</time>
      </trkpt>
      <trkpt lat="59.077048301696777" lon="30.006387233734131">
        <time>2026-04-25T12:20:20Z</time>
      </trkpt>
      <trkpt lat="59.077026844024658" lon="30.006387233734131">
        <time>2026-04-25T12:20:23Z</time>
      </trkpt>
      <trkpt lat="59.077005386352539" lon="30.006387233734131">
        <time>2026-04-25T12:20:25Z</time>
      </trkpt>
      <trkpt lat="59.07698392868042" lon="30.006344318389893">
        <time>2026-04-25T12:20:28Z</time>
      </trkpt>
      <trkpt lat="59.076962471008301" lon="30.006365776062012">
        <time>2026-04-25T12:20:30Z</time>
      </trkpt>
      <trkpt lat="59.076962471008301" lon="30.006365776062012">
        <time>2026-04-25T12:20:33Z</time>
      </trkpt>
      <trkpt lat="59.076919555664063" lon="30.006387233734131">
        <time>2026-04-25T12:20:35Z</time>
      </trkpt>
      <trkpt lat="59.076919555664063" lon="30.006365776062012">
        <time>2026-04-25T12:20:38Z</time>
      </trkpt>
      <trkpt lat="59.076898097991943" lon="30.006344318389893">
        <time>2026-04-25T12:20:40Z</time>
      </trkpt>
      <trkpt lat="59.076876640319824" lon="30.006365776062012">
        <time>2026-04-25T12:20:43Z</time>
      </trkpt>
      <trkpt lat="59.076855182647705" lon="30.006365776062012">
        <time>2026-04-25T12:20:45Z</time>
      </trkpt>
      <trkpt lat="59.076833724975586" lon="30.006344318389893">
        <time>2026-04-25T12:20:48Z</time>
      </trkpt>
      <trkpt lat="59.076833724975586" lon="30.006344318389893">
        <time>2026-04-25T12:20:50Z</time>
      </trkpt>
      <trkpt lat="59.076812267303467" lon="30.006344318389893">
        <time>2026-04-25T12:20:53Z</time>
      </trkpt>
      <trkpt lat="59.076812267303467" lon="30.006322860717773">
        <time>2026-04-25T12:20:55Z</time>
      </trkpt>
      <trkpt lat="59.076790809631348" lon="30.006322860717773">
        <time>2026-04-25T12:20:58Z</time>
      </trkpt>
      <trkpt lat="59.076812267303467" lon="30.006322860717773">
        <time>2026-04-25T12:21:00Z</time>
      </trkpt>
      <trkpt lat="59.076812267303467" lon="30.006322860717773">
        <time>2026-04-25T12:21:03Z</time>
      </trkpt>
      <trkpt lat="59.076812267303467" lon="30.006322860717773">
        <time>2026-04-25T12:21:05Z</time>
      </trkpt>
      <trkpt lat="59.076812267303467" lon="30.006322860717773">
        <time>2026-04-25T12:21:08Z</time>
      </trkpt>
      <trkpt lat="59.076812267303467" lon="30.006322860717773">
        <time>2026-04-25T12:21:10Z</time>
      </trkpt>
      <trkpt lat="59.076812267303467" lon="30.006322860717773">
        <time>2026-04-25T12:21:13Z</time>
      </trkpt>
      <trkpt lat="59.076812267303467" lon="30.006322860717773">
        <time>2026-04-25T12:21:15Z</time>
      </trkpt>
      <trkpt lat="59.076812267303467" lon="30.006322860717773">
        <time>2026-04-25T12:21:18Z</time>
      </trkpt>
      <trkpt lat="59.076812267303467" lon="30.006322860717773">
        <time>2026-04-25T12:21:20Z</time>
      </trkpt>
      <trkpt lat="59.076812267303467" lon="30.006365776062012">
        <time>2026-04-25T12:21:23Z</time>
      </trkpt>
      <trkpt lat="59.076812267303467" lon="30.006365776062012">
        <time>2026-04-25T12:21:25Z</time>
      </trkpt>
      <trkpt lat="59.076833724975586" lon="30.006365776062012">
        <time>2026-04-25T12:21:28Z</time>
      </trkpt>
      <trkpt lat="59.076833724975586" lon="30.006365776062012">
        <time>2026-04-25T12:21:30Z</time>
      </trkpt>
      <trkpt lat="59.076833724975586" lon="30.006365776062012">
        <time>2026-04-25T12:21:33Z</time>
      </trkpt>
      <trkpt lat="59.076833724975586" lon="30.006365776062012">
        <time>2026-04-25T12:21:35Z</time>
      </trkpt>
      <trkpt lat="59.076833724975586" lon="30.006365776062012">
        <time>2026-04-25T12:21:38Z</time>
      </trkpt>
      <trkpt lat="59.076833724975586" lon="30.006365776062012">
        <time>2026-04-25T12:21:40Z</time>
      </trkpt>
      <trkpt lat="59.076833724975586" lon="30.006365776062012">
        <time>2026-04-25T12:21:43Z</time>
      </trkpt>
      <trkpt lat="59.076833724975586" lon="30.006387233734131">
        <time>2026-04-25T12:21:45Z</time>
      </trkpt>
      <trkpt lat="59.076812267303467" lon="30.006387233734131">
        <time>2026-04-25T12:21:48Z</time>
      </trkpt>
      <trkpt lat="59.076769351959229" lon="30.006387233734131">
        <time>2026-04-25T12:21:50Z</time>
      </trkpt>
      <trkpt lat="59.076747894287109" lon="30.00640869140625">
        <time>2026-04-25T12:21:53Z</time>
      </trkpt>
      <trkpt lat="59.076704978942871" lon="30.006430149078369">
        <time>2026-04-25T12:21:55Z</time>
      </trkpt>
      <trkpt lat="59.076683521270752" lon="30.006430149078369">
        <time>2026-04-25T12:21:58Z</time>
      </trkpt>
      <trkpt lat="59.076683521270752" lon="30.006451606750488">
        <time>2026-04-25T12:22:00Z</time>
      </trkpt>
      <trkpt lat="59.076683521270752" lon="30.006451606750488">
        <time>2026-04-25T12:22:03Z</time>
      </trkpt>
      <trkpt lat="59.076662063598633" lon="30.006473064422607">
        <time>2026-04-25T12:22:05Z</time>
      </trkpt>
      <trkpt lat="59.076640605926514" lon="30.006494522094727">
        <time>2026-04-25T12:22:08Z</time>
      </trkpt>
      <trkpt lat="59.076619148254395" lon="30.006537437438965">
        <time>2026-04-25T12:22:10Z</time>
      </trkpt>
      <trkpt lat="59.076619148254395" lon="30.006558895111084">
        <time>2026-04-25T12:22:13Z</time>
      </trkpt>
      <trkpt lat="59.076597690582275" lon="30.006558895111084">
        <time>2026-04-25T12:22:15Z</time>
      </trkpt>
      <trkpt lat="59.076597690582275" lon="30.006558895111084">
        <time>2026-04-25T12:22:18Z</time>
      </trkpt>
      <trkpt lat="59.076597690582275" lon="30.006558895111084">
        <time>2026-04-25T12:22:20Z</time>
      </trkpt>
      <trkpt lat="59.076597690582275" lon="30.006558895111084">
        <time>2026-04-25T12:22:23Z</time>
      </trkpt>
      <trkpt lat="59.076619148254395" lon="30.006623268127441">
        <time>2026-04-25T12:22:25Z</time>
      </trkpt>
      <trkpt lat="59.076619148254395" lon="30.006687641143799">
        <time>2026-04-25T12:22:28Z</time>
      </trkpt>
      <trkpt lat="59.076619148254395" lon="30.006709098815918">
        <time>2026-04-25T12:22:30Z</time>
      </trkpt>
      <trkpt lat="59.076619148254395" lon="30.006752014160156">
        <time>2026-04-25T12:22:33Z</time>
      </trkpt>
      <trkpt lat="59.076640605926514" lon="30.006794929504395">
        <time>2026-04-25T12:22:35Z</time>
      </trkpt>
      <trkpt lat="59.076662063598633" lon="30.006816387176514">
        <time>2026-04-25T12:22:38Z</time>
      </trkpt>
      <trkpt lat="59.076683521270752" lon="30.006859302520752">
        <time>2026-04-25T12:22:40Z</time>
      </trkpt>
      <trkpt lat="59.076683521270752" lon="30.006923675537109">
        <time>2026-04-25T12:22:43Z</time>
      </trkpt>
      <trkpt lat="59.076683521270752" lon="30.006945133209229">
        <time>2026-04-25T12:22:45Z</time>
      </trkpt>
      <trkpt lat="59.076683521270752" lon="30.007009506225586">
        <time>2026-04-25T12:22:48Z</time>
      </trkpt>
      <trkpt lat="59.076683521270752" lon="30.007052421569824">
        <time>2026-04-25T12:22:50Z</time>
      </trkpt>
      <trkpt lat="59.076683521270752" lon="30.007073879241943">
        <time>2026-04-25T12:22:53Z</time>
      </trkpt>
      <trkpt lat="59.076683521270752" lon="30.007073879241943">
        <time>2026-04-25T12:22:55Z</time>
      </trkpt>
      <trkpt lat="59.076683521270752" lon="30.007073879241943">
        <time>2026-04-25T12:22:58Z</time>
      </trkpt>
      <trkpt lat="59.076683521270752" lon="30.007095336914063">
        <time>2026-04-25T12:23:00Z</time>
      </trkpt>
      <trkpt lat="59.076683521270752" lon="30.007073879241943">
        <time>2026-04-25T12:23:03Z</time>
      </trkpt>
      <trkpt lat="59.076704978942871" lon="30.007116794586182">
        <time>2026-04-25T12:23:05Z</time>
      </trkpt>
      <trkpt lat="59.07672643661499" lon="30.007181167602539">
        <time>2026-04-25T12:23:08Z</time>
      </trkpt>
      <trkpt lat="59.076747894287109" lon="30.007224082946777">
        <time>2026-04-25T12:23:10Z</time>
      </trkpt>
      <trkpt lat="59.076747894287109" lon="30.007266998291016">
        <time>2026-04-25T12:23:13Z</time>
      </trkpt>
      <trkpt lat="59.076747894287109" lon="30.007309913635254">
        <time>2026-04-25T12:23:15Z</time>
      </trkpt>
      <trkpt lat="59.07672643661499" lon="30.007352828979492">
        <time>2026-04-25T12:23:18Z</time>
      </trkpt>
      <trkpt lat="59.07672643661499" lon="30.00739574432373">
        <time>2026-04-25T12:23:20Z</time>
      </trkpt>
      <trkpt lat="59.076747894287109" lon="30.007438659667969">
        <time>2026-04-25T12:23:23Z</time>
      </trkpt>
      <trkpt lat="59.07672643661499" lon="30.007438659667969">
        <time>2026-04-25T12:23:25Z</time>
      </trkpt>
      <trkpt lat="59.07672643661499" lon="30.007460117340088">
        <time>2026-04-25T12:23:28Z</time>
      </trkpt>
      <trkpt lat="59.07672643661499" lon="30.007503032684326">
        <time>2026-04-25T12:23:30Z</time>
      </trkpt>
      <trkpt lat="59.07672643661499" lon="30.007545948028564">
        <time>2026-04-25T12:23:33Z</time>
      </trkpt>
      <trkpt lat="59.07672643661499" lon="30.007588863372803">
        <time>2026-04-25T12:23:35Z</time>
      </trkpt>
      <trkpt lat="59.07672643661499" lon="30.007631778717041">
        <time>2026-04-25T12:23:38Z</time>
      </trkpt>
      <trkpt lat="59.07672643661499" lon="30.007674694061279">
        <time>2026-04-25T12:23:40Z</time>
      </trkpt>
      <trkpt lat="59.07672643661499" lon="30.007696151733398">
        <time>2026-04-25T12:23:43Z</time>
      </trkpt>
      <trkpt lat="59.07672643661499" lon="30.007717609405518">
        <time>2026-04-25T12:23:45Z</time>
      </trkpt>
      <trkpt lat="59.07672643661499" lon="30.007739067077637">
        <time>2026-04-25T12:23:48Z</time>
      </trkpt>
      <trkpt lat="59.076747894287109" lon="30.007760524749756">
        <time>2026-04-25T12:23:50Z</time>
      </trkpt>
      <trkpt lat="59.076769351959229" lon="30.007781982421875">
        <time>2026-04-25T12:23:53Z</time>
      </trkpt>
      <trkpt lat="59.076769351959229" lon="30.007824897766113">
        <time>2026-04-25T12:23:55Z</time>
      </trkpt>
      <trkpt lat="59.076769351959229" lon="30.007846355438232">
        <time>2026-04-25T12:23:58Z</time>
      </trkpt>
      <trkpt lat="59.076769351959229" lon="30.007867813110352">
        <time>2026-04-25T12:24:00Z</time>
      </trkpt>
      <trkpt lat="59.076790809631348" lon="30.007867813110352">
        <time>2026-04-25T12:24:03Z</time>
      </trkpt>
      <trkpt lat="59.076790809631348" lon="30.007867813110352">
        <time>2026-04-25T12:24:05Z</time>
      </trkpt>
      <trkpt lat="59.076790809631348" lon="30.00791072845459">
        <time>2026-04-25T12:24:08Z</time>
      </trkpt>
      <trkpt lat="59.076790809631348" lon="30.007953643798828">
        <time>2026-04-25T12:24:10Z</time>
      </trkpt>
      <trkpt lat="59.076812267303467" lon="30.007975101470947">
        <time>2026-04-25T12:24:13Z</time>
      </trkpt>
      <trkpt lat="59.076812267303467" lon="30.007996559143066">
        <time>2026-04-25T12:24:15Z</time>
      </trkpt>
      <trkpt lat="59.076812267303467" lon="30.008060932159424">
        <time>2026-04-25T12:24:18Z</time>
      </trkpt>
      <trkpt lat="59.076812267303467" lon="30.008103847503662">
        <time>2026-04-25T12:24:20Z</time>
      </trkpt>
      <trkpt lat="59.076812267303467" lon="30.0081467628479">
        <time>2026-04-25T12:24:23Z</time>
      </trkpt>
      <trkpt lat="59.076812267303467" lon="30.0081467628479">
        <time>2026-04-25T12:24:25Z</time>
      </trkpt>
      <trkpt lat="59.076812267303467" lon="30.00816822052002">
        <time>2026-04-25T12:24:28Z</time>
      </trkpt>
      <trkpt lat="59.076833724975586" lon="30.00816822052002">
        <time>2026-04-25T12:24:30Z</time>
      </trkpt>
      <trkpt lat="59.076855182647705" lon="30.008211135864258">
        <time>2026-04-25T12:24:33Z</time>
      </trkpt>
      <trkpt lat="59.076876640319824" lon="30.008232593536377">
        <time>2026-04-25T12:24:35Z</time>
      </trkpt>
      <trkpt lat="59.076876640319824" lon="30.008254051208496">
        <time>2026-04-25T12:24:38Z</time>
      </trkpt>
      <trkpt lat="59.076898097991943" lon="30.008296966552734">
        <time>2026-04-25T12:24:40Z</time>
      </trkpt>
      <trkpt lat="59.076919555664063" lon="30.008318424224854">
        <time>2026-04-25T12:24:43Z</time>
      </trkpt>
      <trkpt lat="59.076919555664063" lon="30.008361339569092">
        <time>2026-04-25T12:24:45Z</time>
      </trkpt>
      <trkpt lat="59.076919555664063" lon="30.008425712585449">
        <time>2026-04-25T12:24:48Z</time>
      </trkpt>
      <trkpt lat="59.076941013336182" lon="30.008425712585449">
        <time>2026-04-25T12:24:50Z</time>
      </trkpt>
      <trkpt lat="59.076941013336182" lon="30.008447170257568">
        <time>2026-04-25T12:24:53Z</time>
      </trkpt>
      <trkpt lat="59.076962471008301" lon="30.008490085601807">
        <time>2026-04-25T12:24:55Z</time>
      </trkpt>
      <trkpt lat="59.076962471008301" lon="30.008490085601807">
        <time>2026-04-25T12:24:58Z</time>
      </trkpt>
      <trkpt lat="59.077005386352539" lon="30.008533000946045">
        <time>2026-04-25T12:25:00Z</time>
      </trkpt>
      <trkpt lat="59.077005386352539" lon="30.008554458618164">
        <time>2026-04-25T12:25:03Z</time>
      </trkpt>
      <trkpt lat="59.077005386352539" lon="30.008597373962402">
        <time>2026-04-25T12:25:05Z</time>
      </trkpt>
      <trkpt lat="59.077005386352539" lon="30.008597373962402">
        <time>2026-04-25T12:25:08Z</time>
      </trkpt>
      <trkpt lat="59.077005386352539" lon="30.008597373962402">
        <time>2026-04-25T12:25:10Z</time>
      </trkpt>
      <trkpt lat="59.077005386352539" lon="30.008597373962402">
        <time>2026-04-25T12:25:13Z</time>
      </trkpt>
      <trkpt lat="59.077005386352539" lon="30.008597373962402">
        <time>2026-04-25T12:25:15Z</time>
      </trkpt>
      <trkpt lat="59.077005386352539" lon="30.008597373962402">
        <time>2026-04-25T12:25:18Z</time>
      </trkpt>
      <trkpt lat="59.077005386352539" lon="30.008597373962402">
        <time>2026-04-25T12:25:20Z</time>
      </trkpt>
      <trkpt lat="59.077005386352539" lon="30.008597373962402">
        <time>2026-04-25T12:25:23Z</time>
      </trkpt>
      <trkpt lat="59.077005386352539" lon="30.008597373962402">
        <time>2026-04-25T12:25:25Z</time>
      </trkpt>
      <trkpt lat="59.077005386352539" lon="30.008597373962402">
        <time>2026-04-25T12:25:28Z</time>
      </trkpt>
      <trkpt lat="59.077005386352539" lon="30.008618831634521">
        <time>2026-04-25T12:25:30Z</time>
      </trkpt>
      <trkpt lat="59.077005386352539" lon="30.008618831634521">
        <time>2026-04-25T12:25:33Z</time>
      </trkpt>
      <trkpt lat="59.077005386352539" lon="30.008640289306641">
        <time>2026-04-25T12:25:35Z</time>
      </trkpt>
      <trkpt lat="59.077005386352539" lon="30.008640289306641">
        <time>2026-04-25T12:25:38Z</time>
      </trkpt>
      <trkpt lat="59.077005386352539" lon="30.008640289306641">
        <time>2026-04-25T12:25:40Z</time>
      </trkpt>
      <trkpt lat="59.077005386352539" lon="30.008640289306641">
        <time>2026-04-25T12:25:43Z</time>
      </trkpt>
      <trkpt lat="59.077005386352539" lon="30.008640289306641">
        <time>2026-04-25T12:25:45Z</time>
      </trkpt>
      <trkpt lat="59.077005386352539" lon="30.008640289306641">
        <time>2026-04-25T12:25:48Z</time>
      </trkpt>
      <trkpt lat="59.077005386352539" lon="30.008640289306641">
        <time>2026-04-25T12:25:50Z</time>
      </trkpt>
      <trkpt lat="59.077005386352539" lon="30.008640289306641">
        <time>2026-04-25T12:25:53Z</time>
      </trkpt>
      <trkpt lat="59.076962471008301" lon="30.008640289306641">
        <time>2026-04-25T12:25:55Z</time>
      </trkpt>
      <trkpt lat="59.076962471008301" lon="30.00866174697876">
        <time>2026-04-25T12:25:58Z</time>
      </trkpt>
      <trkpt lat="59.076962471008301" lon="30.008683204650879">
        <time>2026-04-25T12:26:00Z</time>
      </trkpt>
      <trkpt lat="59.076919555664063" lon="30.008704662322998">
        <time>2026-04-25T12:26:03Z</time>
      </trkpt>
      <trkpt lat="59.076919555664063" lon="30.008726119995117">
        <time>2026-04-25T12:26:05Z</time>
      </trkpt>
      <trkpt lat="59.076919555664063" lon="30.008726119995117">
        <time>2026-04-25T12:26:08Z</time>
      </trkpt>
      <trkpt lat="59.076919555664063" lon="30.008726119995117">
        <time>2026-04-25T12:26:10Z</time>
      </trkpt>
      <trkpt lat="59.076919555664063" lon="30.008726119995117">
        <time>2026-04-25T12:26:13Z</time>
      </trkpt>
      <trkpt lat="59.076919555664063" lon="30.008726119995117">
        <time>2026-04-25T12:26:15Z</time>
      </trkpt>
      <trkpt lat="59.076919555664063" lon="30.008726119995117">
        <time>2026-04-25T12:26:18Z</time>
      </trkpt>
      <trkpt lat="59.076919555664063" lon="30.008726119995117">
        <time>2026-04-25T12:26:20Z</time>
      </trkpt>
      <trkpt lat="59.076919555664063" lon="30.008726119995117">
        <time>2026-04-25T12:26:23Z</time>
      </trkpt>
      <trkpt lat="59.076919555664063" lon="30.008726119995117">
        <time>2026-04-25T12:26:25Z</time>
      </trkpt>
      <trkpt lat="59.076919555664063" lon="30.008726119995117">
        <time>2026-04-25T12:26:28Z</time>
      </trkpt>
      <trkpt lat="59.076919555664063" lon="30.008726119995117">
        <time>2026-04-25T12:26:30Z</time>
      </trkpt>
      <trkpt lat="59.076919555664063" lon="30.008726119995117">
        <time>2026-04-25T12:26:33Z</time>
      </trkpt>
      <trkpt lat="59.076919555664063" lon="30.008726119995117">
        <time>2026-04-25T12:26:35Z</time>
      </trkpt>
      <trkpt lat="59.076919555664063" lon="30.008726119995117">
        <time>2026-04-25T12:26:38Z</time>
      </trkpt>
      <trkpt lat="59.076919555664063" lon="30.008726119995117">
        <time>2026-04-25T12:26:40Z</time>
      </trkpt>
      <trkpt lat="59.076919555664063" lon="30.008726119995117">
        <time>2026-04-25T12:26:43Z</time>
      </trkpt>
      <trkpt lat="59.076898097991943" lon="30.008726119995117">
        <time>2026-04-25T12:26:45Z</time>
      </trkpt>
      <trkpt lat="59.076898097991943" lon="30.008726119995117">
        <time>2026-04-25T12:26:48Z</time>
      </trkpt>
      <trkpt lat="59.076898097991943" lon="30.008726119995117">
        <time>2026-04-25T12:26:50Z</time>
      </trkpt>
      <trkpt lat="59.076898097991943" lon="30.008726119995117">
        <time>2026-04-25T12:26:53Z</time>
      </trkpt>
      <trkpt lat="59.076898097991943" lon="30.008726119995117">
        <time>2026-04-25T12:26:55Z</time>
      </trkpt>
      <trkpt lat="59.076898097991943" lon="30.008726119995117">
        <time>2026-04-25T12:26:58Z</time>
      </trkpt>
      <trkpt lat="59.076898097991943" lon="30.008726119995117">
        <time>2026-04-25T12:27:00Z</time>
      </trkpt>
      <trkpt lat="59.076898097991943" lon="30.008726119995117">
        <time>2026-04-25T12:27:03Z</time>
      </trkpt>
      <trkpt lat="59.076898097991943" lon="30.008726119995117">
        <time>2026-04-25T12:27:05Z</time>
      </trkpt>
      <trkpt lat="59.076898097991943" lon="30.008726119995117">
        <time>2026-04-25T12:27:08Z</time>
      </trkpt>
      <trkpt lat="59.076898097991943" lon="30.008726119995117">
        <time>2026-04-25T12:27:10Z</time>
      </trkpt>
      <trkpt lat="59.076898097991943" lon="30.008726119995117">
        <time>2026-04-25T12:27:13Z</time>
      </trkpt>
      <trkpt lat="59.076919555664063" lon="30.008726119995117">
        <time>2026-04-25T12:27:15Z</time>
      </trkpt>
      <trkpt lat="59.076919555664063" lon="30.008726119995117">
        <time>2026-04-25T12:27:18Z</time>
      </trkpt>
      <trkpt lat="59.076919555664063" lon="30.008726119995117">
        <time>2026-04-25T12:27:20Z</time>
      </trkpt>
      <trkpt lat="59.076919555664063" lon="30.008726119995117">
        <time>2026-04-25T12:27:23Z</time>
      </trkpt>
      <trkpt lat="59.076919555664063" lon="30.008726119995117">
        <time>2026-04-25T12:27:25Z</time>
      </trkpt>
      <trkpt lat="59.076919555664063" lon="30.008726119995117">
        <time>2026-04-25T12:27:28Z</time>
      </trkpt>
      <trkpt lat="59.076919555664063" lon="30.008726119995117">
        <time>2026-04-25T12:27:30Z</time>
      </trkpt>
      <trkpt lat="59.076919555664063" lon="30.008726119995117">
        <time>2026-04-25T12:27:33Z</time>
      </trkpt>
      <trkpt lat="59.076919555664063" lon="30.008726119995117">
        <time>2026-04-25T12:27:35Z</time>
      </trkpt>
      <trkpt lat="59.076919555664063" lon="30.008726119995117">
        <time>2026-04-25T12:27:38Z</time>
      </trkpt>
      <trkpt lat="59.076919555664063" lon="30.008726119995117">
        <time>2026-04-25T12:27:40Z</time>
      </trkpt>
      <trkpt lat="59.076919555664063" lon="30.008726119995117">
        <time>2026-04-25T12:27:43Z</time>
      </trkpt>
      <trkpt lat="59.076898097991943" lon="30.008769035339355">
        <time>2026-04-25T12:27:45Z</time>
      </trkpt>
      <trkpt lat="59.076876640319824" lon="30.008790493011475">
        <time>2026-04-25T12:27:48Z</time>
      </trkpt>
      <trkpt lat="59.076876640319824" lon="30.008833408355713">
        <time>2026-04-25T12:27:50Z</time>
      </trkpt>
      <trkpt lat="59.076833724975586" lon="30.008854866027832">
        <time>2026-04-25T12:27:53Z</time>
      </trkpt>
      <trkpt lat="59.076833724975586" lon="30.008876323699951">
        <time>2026-04-25T12:27:55Z</time>
      </trkpt>
      <trkpt lat="59.076812267303467" lon="30.00889778137207">
        <time>2026-04-25T12:27:58Z</time>
      </trkpt>
      <trkpt lat="59.076790809631348" lon="30.008919239044189">
        <time>2026-04-25T12:28:00Z</time>
      </trkpt>
      <trkpt lat="59.076790809631348" lon="30.008940696716309">
        <time>2026-04-25T12:28:03Z</time>
      </trkpt>
      <trkpt lat="59.076747894287109" lon="30.008962154388428">
        <time>2026-04-25T12:28:05Z</time>
      </trkpt>
      <trkpt lat="59.076704978942871" lon="30.008983612060547">
        <time>2026-04-25T12:28:08Z</time>
      </trkpt>
      <trkpt lat="59.076683521270752" lon="30.009005069732666">
        <time>2026-04-25T12:28:10Z</time>
      </trkpt>
      <trkpt lat="59.076683521270752" lon="30.009005069732666">
        <time>2026-04-25T12:28:13Z</time>
      </trkpt>
      <trkpt lat="59.076662063598633" lon="30.009026527404785">
        <time>2026-04-25T12:28:15Z</time>
      </trkpt>
      <trkpt lat="59.076640605926514" lon="30.009047985076904">
        <time>2026-04-25T12:28:18Z</time>
      </trkpt>
      <trkpt lat="59.076640605926514" lon="30.009047985076904">
        <time>2026-04-25T12:28:20Z</time>
      </trkpt>
      <trkpt lat="59.076640605926514" lon="30.009047985076904">
        <time>2026-04-25T12:28:23Z</time>
      </trkpt>
      <trkpt lat="59.076640605926514" lon="30.009047985076904">
        <time>2026-04-25T12:28:25Z</time>
      </trkpt>
      <trkpt lat="59.076640605926514" lon="30.009047985076904">
        <time>2026-04-25T12:28:28Z</time>
      </trkpt>
      <trkpt lat="59.076640605926514" lon="30.009047985076904">
        <time>2026-04-25T12:28:30Z</time>
      </trkpt>
      <trkpt lat="59.076640605926514" lon="30.009047985076904">
        <time>2026-04-25T12:28:33Z</time>
      </trkpt>
      <trkpt lat="59.076640605926514" lon="30.009047985076904">
        <time>2026-04-25T12:28:35Z</time>
      </trkpt>
      <trkpt lat="59.076640605926514" lon="30.009047985076904">
        <time>2026-04-25T12:28:38Z</time>
      </trkpt>
      <trkpt lat="59.076640605926514" lon="30.009047985076904">
        <time>2026-04-25T12:28:40Z</time>
      </trkpt>
      <trkpt lat="59.076640605926514" lon="30.009047985076904">
        <time>2026-04-25T12:28:43Z</time>
      </trkpt>
      <trkpt lat="59.076640605926514" lon="30.009047985076904">
        <time>2026-04-25T12:28:45Z</time>
      </trkpt>
      <trkpt lat="59.076640605926514" lon="30.009047985076904">
        <time>2026-04-25T12:28:48Z</time>
      </trkpt>
      <trkpt lat="59.076640605926514" lon="30.009047985076904">
        <time>2026-04-25T12:28:50Z</time>
      </trkpt>
      <trkpt lat="59.076640605926514" lon="30.009047985076904">
        <time>2026-04-25T12:28:53Z</time>
      </trkpt>
      <trkpt lat="59.076640605926514" lon="30.009047985076904">
        <time>2026-04-25T12:28:55Z</time>
      </trkpt>
      <trkpt lat="59.076640605926514" lon="30.009047985076904">
        <time>2026-04-25T12:28:58Z</time>
      </trkpt>
      <trkpt lat="59.076597690582275" lon="30.009026527404785">
        <time>2026-04-25T12:29:00Z</time>
      </trkpt>
      <trkpt lat="59.076576232910156" lon="30.008983612060547">
        <time>2026-04-25T12:29:03Z</time>
      </trkpt>
      <trkpt lat="59.076554775238037" lon="30.008940696716309">
        <time>2026-04-25T12:29:05Z</time>
      </trkpt>
      <trkpt lat="59.076533317565918" lon="30.008919239044189">
        <time>2026-04-25T12:29:08Z</time>
      </trkpt>
      <trkpt lat="59.07649040222168" lon="30.008876323699951">
        <time>2026-04-25T12:29:10Z</time>
      </trkpt>
      <trkpt lat="59.07649040222168" lon="30.008833408355713">
        <time>2026-04-25T12:29:13Z</time>
      </trkpt>
      <trkpt lat="59.07649040222168" lon="30.008790493011475">
        <time>2026-04-25T12:29:15Z</time>
      </trkpt>
      <trkpt lat="59.07649040222168" lon="30.008747577667236">
        <time>2026-04-25T12:29:18Z</time>
      </trkpt>
      <trkpt lat="59.076468944549561" lon="30.008726119995117">
        <time>2026-04-25T12:29:20Z</time>
      </trkpt>
      <trkpt lat="59.076468944549561" lon="30.008704662322998">
        <time>2026-04-25T12:29:23Z</time>
      </trkpt>
      <trkpt lat="59.076447486877441" lon="30.008683204650879">
        <time>2026-04-25T12:29:25Z</time>
      </trkpt>
      <trkpt lat="59.076426029205322" lon="30.00866174697876">
        <time>2026-04-25T12:29:28Z</time>
      </trkpt>
      <trkpt lat="59.076447486877441" lon="30.00866174697876">
        <time>2026-04-25T12:29:30Z</time>
      </trkpt>
      <trkpt lat="59.076447486877441" lon="30.008683204650879">
        <time>2026-04-25T12:29:33Z</time>
      </trkpt>
      <trkpt lat="59.076426029205322" lon="30.008683204650879">
        <time>2026-04-25T12:29:35Z</time>
      </trkpt>
      <trkpt lat="59.076404571533203" lon="30.008640289306641">
        <time>2026-04-25T12:29:38Z</time>
      </trkpt>
      <trkpt lat="59.076383113861084" lon="30.008618831634521">
        <time>2026-04-25T12:29:40Z</time>
      </trkpt>
      <trkpt lat="59.076361656188965" lon="30.008575916290283">
        <time>2026-04-25T12:29:43Z</time>
      </trkpt>
      <trkpt lat="59.076361656188965" lon="30.008554458618164">
        <time>2026-04-25T12:29:45Z</time>
      </trkpt>
      <trkpt lat="59.076340198516846" lon="30.008533000946045">
        <time>2026-04-25T12:29:48Z</time>
      </trkpt>
      <trkpt lat="59.076340198516846" lon="30.008511543273926">
        <time>2026-04-25T12:29:50Z</time>
      </trkpt>
      <trkpt lat="59.076318740844727" lon="30.008490085601807">
        <time>2026-04-25T12:29:53Z</time>
      </trkpt>
      <trkpt lat="59.076297283172607" lon="30.008425712585449">
        <time>2026-04-25T12:29:55Z</time>
      </trkpt>
      <trkpt lat="59.076297283172607" lon="30.00840425491333">
        <time>2026-04-25T12:29:58Z</time>
      </trkpt>
      <trkpt lat="59.076297283172607" lon="30.008382797241211">
        <time>2026-04-25T12:30:00Z</time>
      </trkpt>
      <trkpt lat="59.076297283172607" lon="30.008339881896973">
        <time>2026-04-25T12:30:03Z</time>
      </trkpt>
      <trkpt lat="59.076297283172607" lon="30.008275508880615">
        <time>2026-04-25T12:30:05Z</time>
      </trkpt>
      <trkpt lat="59.076275825500488" lon="30.008254051208496">
        <time>2026-04-25T12:30:08Z</time>
      </trkpt>
      <trkpt lat="59.076275825500488" lon="30.008232593536377">
        <time>2026-04-25T12:30:10Z</time>
      </trkpt>
      <trkpt lat="59.076275825500488" lon="30.008211135864258">
        <time>2026-04-25T12:30:13Z</time>
      </trkpt>
      <trkpt lat="59.076254367828369" lon="30.008211135864258">
        <time>2026-04-25T12:30:15Z</time>
      </trkpt>
      <trkpt lat="59.076254367828369" lon="30.008189678192139">
        <time>2026-04-25T12:30:18Z</time>
      </trkpt>
      <trkpt lat="59.07623291015625" lon="30.00816822052002">
        <time>2026-04-25T12:30:20Z</time>
      </trkpt>
      <trkpt lat="59.076211452484131" lon="30.00816822052002">
        <time>2026-04-25T12:30:23Z</time>
      </trkpt>
      <trkpt lat="59.076211452484131" lon="30.0081467628479">
        <time>2026-04-25T12:30:25Z</time>
      </trkpt>
      <trkpt lat="59.076211452484131" lon="30.008103847503662">
        <time>2026-04-25T12:30:28Z</time>
      </trkpt>
      <trkpt lat="59.076189994812012" lon="30.008082389831543">
        <time>2026-04-25T12:30:30Z</time>
      </trkpt>
      <trkpt lat="59.076168537139893" lon="30.008060932159424">
        <time>2026-04-25T12:30:33Z</time>
      </trkpt>
      <trkpt lat="59.076168537139893" lon="30.007996559143066">
        <time>2026-04-25T12:30:35Z</time>
      </trkpt>
      <trkpt lat="59.076147079467773" lon="30.007953643798828">
        <time>2026-04-25T12:30:38Z</time>
      </trkpt>
      <trkpt lat="59.076147079467773" lon="30.00791072845459">
        <time>2026-04-25T12:30:40Z</time>
      </trkpt>
      <trkpt lat="59.076147079467773" lon="30.007867813110352">
        <time>2026-04-25T12:30:43Z</time>
      </trkpt>
      <trkpt lat="59.076125621795654" lon="30.007824897766113">
        <time>2026-04-25T12:30:45Z</time>
      </trkpt>
      <trkpt lat="59.076125621795654" lon="30.007803440093994">
        <time>2026-04-25T12:30:48Z</time>
      </trkpt>
      <trkpt lat="59.076125621795654" lon="30.007760524749756">
        <time>2026-04-25T12:30:50Z</time>
      </trkpt>
      <trkpt lat="59.076125621795654" lon="30.007717609405518">
        <time>2026-04-25T12:30:53Z</time>
      </trkpt>
      <trkpt lat="59.076125621795654" lon="30.007674694061279">
        <time>2026-04-25T12:30:55Z</time>
      </trkpt>
      <trkpt lat="59.076125621795654" lon="30.007631778717041">
        <time>2026-04-25T12:30:58Z</time>
      </trkpt>
      <trkpt lat="59.076125621795654" lon="30.007588863372803">
        <time>2026-04-25T12:31:00Z</time>
      </trkpt>
      <trkpt lat="59.076125621795654" lon="30.007545948028564">
        <time>2026-04-25T12:31:03Z</time>
      </trkpt>
      <trkpt lat="59.076125621795654" lon="30.007503032684326">
        <time>2026-04-25T12:31:05Z</time>
      </trkpt>
      <trkpt lat="59.076125621795654" lon="30.007481575012207">
        <time>2026-04-25T12:31:08Z</time>
      </trkpt>
      <trkpt lat="59.076125621795654" lon="30.007438659667969">
        <time>2026-04-25T12:31:10Z</time>
      </trkpt>
      <trkpt lat="59.076125621795654" lon="30.00739574432373">
        <time>2026-04-25T12:31:13Z</time>
      </trkpt>
      <trkpt lat="59.076125621795654" lon="30.007374286651611">
        <time>2026-04-25T12:31:15Z</time>
      </trkpt>
      <trkpt lat="59.076125621795654" lon="30.007331371307373">
        <time>2026-04-25T12:31:18Z</time>
      </trkpt>
      <trkpt lat="59.076104164123535" lon="30.007309913635254">
        <time>2026-04-25T12:31:20Z</time>
      </trkpt>
      <trkpt lat="59.076104164123535" lon="30.007288455963135">
        <time>2026-04-25T12:31:23Z</time>
      </trkpt>
      <trkpt lat="59.076104164123535" lon="30.007245540618896">
        <time>2026-04-25T12:31:25Z</time>
      </trkpt>
      <trkpt lat="59.076082706451416" lon="30.007224082946777">
        <time>2026-04-25T12:31:28Z</time>
      </trkpt>
      <trkpt lat="59.076082706451416" lon="30.007224082946777">
        <time>2026-04-25T12:31:30Z</time>
      </trkpt>
      <trkpt lat="59.076082706451416" lon="30.007202625274658">
        <time>2026-04-25T12:31:33Z</time>
      </trkpt>
      <trkpt lat="59.076082706451416" lon="30.007202625274658">
        <time>2026-04-25T12:31:35Z</time>
      </trkpt>
      <trkpt lat="59.076082706451416" lon="30.007202625274658">
        <time>2026-04-25T12:31:38Z</time>
      </trkpt>
      <trkpt lat="59.076082706451416" lon="30.007202625274658">
        <time>2026-04-25T12:31:40Z</time>
      </trkpt>
      <trkpt lat="59.076082706451416" lon="30.007202625274658">
        <time>2026-04-25T12:31:43Z</time>
      </trkpt>
      <trkpt lat="59.076082706451416" lon="30.007202625274658">
        <time>2026-04-25T12:31:45Z</time>
      </trkpt>
      <trkpt lat="59.076082706451416" lon="30.007202625274658">
        <time>2026-04-25T12:31:48Z</time>
      </trkpt>
      <trkpt lat="59.076082706451416" lon="30.007202625274658">
        <time>2026-04-25T12:31:50Z</time>
      </trkpt>
      <trkpt lat="59.076082706451416" lon="30.007202625274658">
        <time>2026-04-25T12:31:53Z</time>
      </trkpt>
      <trkpt lat="59.076082706451416" lon="30.007202625274658">
        <time>2026-04-25T12:31:55Z</time>
      </trkpt>
      <trkpt lat="59.076082706451416" lon="30.007202625274658">
        <time>2026-04-25T12:31:58Z</time>
      </trkpt>
      <trkpt lat="59.076082706451416" lon="30.007202625274658">
        <time>2026-04-25T12:32:00Z</time>
      </trkpt>
      <trkpt lat="59.076082706451416" lon="30.007202625274658">
        <time>2026-04-25T12:32:03Z</time>
      </trkpt>
      <trkpt lat="59.076082706451416" lon="30.007202625274658">
        <time>2026-04-25T12:32:05Z</time>
      </trkpt>
      <trkpt lat="59.076082706451416" lon="30.007202625274658">
        <time>2026-04-25T12:32:08Z</time>
      </trkpt>
      <trkpt lat="59.076082706451416" lon="30.007202625274658">
        <time>2026-04-25T12:32:10Z</time>
      </trkpt>
      <trkpt lat="59.076082706451416" lon="30.007202625274658">
        <time>2026-04-25T12:32:13Z</time>
      </trkpt>
      <trkpt lat="59.076082706451416" lon="30.007202625274658">
        <time>2026-04-25T12:32:15Z</time>
      </trkpt>
      <trkpt lat="59.076082706451416" lon="30.007202625274658">
        <time>2026-04-25T12:32:18Z</time>
      </trkpt>
      <trkpt lat="59.076082706451416" lon="30.007202625274658">
        <time>2026-04-25T12:32:20Z</time>
      </trkpt>
      <trkpt lat="59.076082706451416" lon="30.007202625274658">
        <time>2026-04-25T12:32:23Z</time>
      </trkpt>
      <trkpt lat="59.076082706451416" lon="30.007202625274658">
        <time>2026-04-25T12:32:25Z</time>
      </trkpt>
      <trkpt lat="59.076082706451416" lon="30.007202625274658">
        <time>2026-04-25T12:32:28Z</time>
      </trkpt>
      <trkpt lat="59.076082706451416" lon="30.007181167602539">
        <time>2026-04-25T12:32:30Z</time>
      </trkpt>
      <trkpt lat="59.076082706451416" lon="30.00715970993042">
        <time>2026-04-25T12:32:33Z</time>
      </trkpt>
      <trkpt lat="59.076061248779297" lon="30.00715970993042">
        <time>2026-04-25T12:32:35Z</time>
      </trkpt>
      <trkpt lat="59.076061248779297" lon="30.00715970993042">
        <time>2026-04-25T12:32:38Z</time>
      </trkpt>
      <trkpt lat="59.076061248779297" lon="30.00715970993042">
        <time>2026-04-25T12:32:40Z</time>
      </trkpt>
      <trkpt lat="59.076061248779297" lon="30.00715970993042">
        <time>2026-04-25T12:32:43Z</time>
      </trkpt>
      <trkpt lat="59.076061248779297" lon="30.007116794586182">
        <time>2026-04-25T12:32:45Z</time>
      </trkpt>
      <trkpt lat="59.076061248779297" lon="30.007116794586182">
        <time>2026-04-25T12:32:48Z</time>
      </trkpt>
      <trkpt lat="59.076061248779297" lon="30.007095336914063">
        <time>2026-04-25T12:32:50Z</time>
      </trkpt>
      <trkpt lat="59.076061248779297" lon="30.007095336914063">
        <time>2026-04-25T12:32:53Z</time>
      </trkpt>
      <trkpt lat="59.076061248779297" lon="30.007073879241943">
        <time>2026-04-25T12:32:55Z</time>
      </trkpt>
      <trkpt lat="59.076039791107178" lon="30.007095336914063">
        <time>2026-04-25T12:32:58Z</time>
      </trkpt>
      <trkpt lat="59.076018333435059" lon="30.007073879241943">
        <time>2026-04-25T12:33:00Z</time>
      </trkpt>
      <trkpt lat="59.07597541809082" lon="30.007073879241943">
        <time>2026-04-25T12:33:03Z</time>
      </trkpt>
      <trkpt lat="59.075953960418701" lon="30.007073879241943">
        <time>2026-04-25T12:33:05Z</time>
      </trkpt>
      <trkpt lat="59.075932502746582" lon="30.007073879241943">
        <time>2026-04-25T12:33:08Z</time>
      </trkpt>
      <trkpt lat="59.075932502746582" lon="30.007073879241943">
        <time>2026-04-25T12:33:10Z</time>
      </trkpt>
      <trkpt lat="59.075911045074463" lon="30.007052421569824">
        <time>2026-04-25T12:33:13Z</time>
      </trkpt>
      <trkpt lat="59.075911045074463" lon="30.007073879241943">
        <time>2026-04-25T12:33:15Z</time>
      </trkpt>
      <trkpt lat="59.075911045074463" lon="30.007073879241943">
        <time>2026-04-25T12:33:18Z</time>
      </trkpt>
      <trkpt lat="59.075889587402344" lon="30.007095336914063">
        <time>2026-04-25T12:33:20Z</time>
      </trkpt>
      <trkpt lat="59.075868129730225" lon="30.007095336914063">
        <time>2026-04-25T12:33:23Z</time>
      </trkpt>
      <trkpt lat="59.075846672058105" lon="30.007095336914063">
        <time>2026-04-25T12:33:25Z</time>
      </trkpt>
      <trkpt lat="59.075846672058105" lon="30.007116794586182">
        <time>2026-04-25T12:33:28Z</time>
      </trkpt>
      <trkpt lat="59.075846672058105" lon="30.007116794586182">
        <time>2026-04-25T12:33:30Z</time>
      </trkpt>
      <trkpt lat="59.075846672058105" lon="30.007116794586182">
        <time>2026-04-25T12:33:33Z</time>
      </trkpt>
      <trkpt lat="59.075825214385986" lon="30.007116794586182">
        <time>2026-04-25T12:33:35Z</time>
      </trkpt>
      <trkpt lat="59.075825214385986" lon="30.007116794586182">
        <time>2026-04-25T12:33:38Z</time>
      </trkpt>
      <trkpt lat="59.075803756713867" lon="30.007116794586182">
        <time>2026-04-25T12:33:40Z</time>
      </trkpt>
      <trkpt lat="59.075782299041748" lon="30.007116794586182">
        <time>2026-04-25T12:33:43Z</time>
      </trkpt>
      <trkpt lat="59.075782299041748" lon="30.007116794586182">
        <time>2026-04-25T12:33:45Z</time>
      </trkpt>
      <trkpt lat="59.075782299041748" lon="30.007095336914063">
        <time>2026-04-25T12:33:48Z</time>
      </trkpt>
      <trkpt lat="59.075760841369629" lon="30.007073879241943">
        <time>2026-04-25T12:33:50Z</time>
      </trkpt>
      <trkpt lat="59.07573938369751" lon="30.007073879241943">
        <time>2026-04-25T12:33:53Z</time>
      </trkpt>
      <trkpt lat="59.075717926025391" lon="30.007073879241943">
        <time>2026-04-25T12:33:55Z</time>
      </trkpt>
      <trkpt lat="59.075717926025391" lon="30.007030963897705">
        <time>2026-04-25T12:33:58Z</time>
      </trkpt>
      <trkpt lat="59.075696468353271" lon="30.007030963897705">
        <time>2026-04-25T12:34:00Z</time>
      </trkpt>
      <trkpt lat="59.075717926025391" lon="30.007030963897705">
        <time>2026-04-25T12:34:03Z</time>
      </trkpt>
      <trkpt lat="59.075696468353271" lon="30.007009506225586">
        <time>2026-04-25T12:34:05Z</time>
      </trkpt>
      <trkpt lat="59.075675010681152" lon="30.006988048553467">
        <time>2026-04-25T12:34:08Z</time>
      </trkpt>
      <trkpt lat="59.075653553009033" lon="30.006988048553467">
        <time>2026-04-25T12:34:10Z</time>
      </trkpt>
      <trkpt lat="59.075653553009033" lon="30.006988048553467">
        <time>2026-04-25T12:34:13Z</time>
      </trkpt>
      <trkpt lat="59.075653553009033" lon="30.006988048553467">
        <time>2026-04-25T12:34:15Z</time>
      </trkpt>
      <trkpt lat="59.075632095336914" lon="30.006988048553467">
        <time>2026-04-25T12:34:18Z</time>
      </trkpt>
      <trkpt lat="59.075610637664795" lon="30.006988048553467">
        <time>2026-04-25T12:34:20Z</time>
      </trkpt>
      <trkpt lat="59.075589179992676" lon="30.006966590881348">
        <time>2026-04-25T12:34:23Z</time>
      </trkpt>
      <trkpt lat="59.075567722320557" lon="30.006966590881348">
        <time>2026-04-25T12:34:25Z</time>
      </trkpt>
      <trkpt lat="59.075546264648438" lon="30.006966590881348">
        <time>2026-04-25T12:34:28Z</time>
      </trkpt>
      <trkpt lat="59.075546264648438" lon="30.006966590881348">
        <time>2026-04-25T12:34:30Z</time>
      </trkpt>
      <trkpt lat="59.075546264648438" lon="30.006966590881348">
        <time>2026-04-25T12:34:33Z</time>
      </trkpt>
      <trkpt lat="59.075546264648438" lon="30.006966590881348">
        <time>2026-04-25T12:34:35Z</time>
      </trkpt>
      <trkpt lat="59.075546264648438" lon="30.006966590881348">
        <time>2026-04-25T12:34:38Z</time>
      </trkpt>
      <trkpt lat="59.075546264648438" lon="30.006966590881348">
        <time>2026-04-25T12:34:40Z</time>
      </trkpt>
      <trkpt lat="59.075546264648438" lon="30.006966590881348">
        <time>2026-04-25T12:34:43Z</time>
      </trkpt>
      <trkpt lat="59.075546264648438" lon="30.006966590881348">
        <time>2026-04-25T12:34:45Z</time>
      </trkpt>
      <trkpt lat="59.075546264648438" lon="30.006966590881348">
        <time>2026-04-25T12:34:48Z</time>
      </trkpt>
      <trkpt lat="59.075546264648438" lon="30.006966590881348">
        <time>2026-04-25T12:34:50Z</time>
      </trkpt>
      <trkpt lat="59.075546264648438" lon="30.006966590881348">
        <time>2026-04-25T12:34:53Z</time>
      </trkpt>
      <trkpt lat="59.075546264648438" lon="30.006966590881348">
        <time>2026-04-25T12:34:55Z</time>
      </trkpt>
      <trkpt lat="59.075546264648438" lon="30.006966590881348">
        <time>2026-04-25T12:34:58Z</time>
      </trkpt>
      <trkpt lat="59.075546264648438" lon="30.006988048553467">
        <time>2026-04-25T12:35:00Z</time>
      </trkpt>
      <trkpt lat="59.075546264648438" lon="30.007009506225586">
        <time>2026-04-25T12:35:03Z</time>
      </trkpt>
      <trkpt lat="59.075546264648438" lon="30.007009506225586">
        <time>2026-04-25T12:35:05Z</time>
      </trkpt>
      <trkpt lat="59.075546264648438" lon="30.007009506225586">
        <time>2026-04-25T12:35:08Z</time>
      </trkpt>
      <trkpt lat="59.075546264648438" lon="30.007009506225586">
        <time>2026-04-25T12:35:10Z</time>
      </trkpt>
      <trkpt lat="59.075567722320557" lon="30.007073879241943">
        <time>2026-04-25T12:35:13Z</time>
      </trkpt>
      <trkpt lat="59.075589179992676" lon="30.007138252258301">
        <time>2026-04-25T12:35:15Z</time>
      </trkpt>
      <trkpt lat="59.075610637664795" lon="30.007224082946777">
        <time>2026-04-25T12:35:18Z</time>
      </trkpt>
      <trkpt lat="59.075632095336914" lon="30.007288455963135">
        <time>2026-04-25T12:35:20Z</time>
      </trkpt>
      <trkpt lat="59.075632095336914" lon="30.007309913635254">
        <time>2026-04-25T12:35:23Z</time>
      </trkpt>
      <trkpt lat="59.075632095336914" lon="30.007352828979492">
        <time>2026-04-25T12:35:25Z</time>
      </trkpt>
      <trkpt lat="59.075632095336914" lon="30.007374286651611">
        <time>2026-04-25T12:35:28Z</time>
      </trkpt>
      <trkpt lat="59.075653553009033" lon="30.00741720199585">
        <time>2026-04-25T12:35:30Z</time>
      </trkpt>
      <trkpt lat="59.075653553009033" lon="30.00741720199585">
        <time>2026-04-25T12:35:33Z</time>
      </trkpt>
      <trkpt lat="59.075653553009033" lon="30.007481575012207">
        <time>2026-04-25T12:35:35Z</time>
      </trkpt>
      <trkpt lat="59.075675010681152" lon="30.007524490356445">
        <time>2026-04-25T12:35:38Z</time>
      </trkpt>
      <trkpt lat="59.075675010681152" lon="30.007567405700684">
        <time>2026-04-25T12:35:40Z</time>
      </trkpt>
      <trkpt lat="59.075675010681152" lon="30.007610321044922">
        <time>2026-04-25T12:35:43Z</time>
      </trkpt>
      <trkpt lat="59.075675010681152" lon="30.00765323638916">
        <time>2026-04-25T12:35:45Z</time>
      </trkpt>
      <trkpt lat="59.075696468353271" lon="30.007696151733398">
        <time>2026-04-25T12:35:48Z</time>
      </trkpt>
      <trkpt lat="59.075696468353271" lon="30.007717609405518">
        <time>2026-04-25T12:35:50Z</time>
      </trkpt>
      <trkpt lat="59.075696468353271" lon="30.007760524749756">
        <time>2026-04-25T12:35:53Z</time>
      </trkpt>
      <trkpt lat="59.075696468353271" lon="30.007781982421875">
        <time>2026-04-25T12:35:55Z</time>
      </trkpt>
      <trkpt lat="59.075696468353271" lon="30.007824897766113">
        <time>2026-04-25T12:35:58Z</time>
      </trkpt>
      <trkpt lat="59.075696468353271" lon="30.007846355438232">
        <time>2026-04-25T12:36:00Z</time>
      </trkpt>
      <trkpt lat="59.075696468353271" lon="30.007889270782471">
        <time>2026-04-25T12:36:03Z</time>
      </trkpt>
      <trkpt lat="59.075696468353271" lon="30.00791072845459">
        <time>2026-04-25T12:36:05Z</time>
      </trkpt>
      <trkpt lat="59.075717926025391" lon="30.007953643798828">
        <time>2026-04-25T12:36:08Z</time>
      </trkpt>
      <trkpt lat="59.075717926025391" lon="30.007996559143066">
        <time>2026-04-25T12:36:10Z</time>
      </trkpt>
      <trkpt lat="59.075717926025391" lon="30.007996559143066">
        <time>2026-04-25T12:36:13Z</time>
      </trkpt>
      <trkpt lat="59.07573938369751" lon="30.008039474487305">
        <time>2026-04-25T12:36:15Z</time>
      </trkpt>
      <trkpt lat="59.07573938369751" lon="30.008060932159424">
        <time>2026-04-25T12:36:18Z</time>
      </trkpt>
      <trkpt lat="59.07573938369751" lon="30.008103847503662">
        <time>2026-04-25T12:36:20Z</time>
      </trkpt>
      <trkpt lat="59.075760841369629" lon="30.0081467628479">
        <time>2026-04-25T12:36:23Z</time>
      </trkpt>
      <trkpt lat="59.075760841369629" lon="30.00816822052002">
        <time>2026-04-25T12:36:25Z</time>
      </trkpt>
      <trkpt lat="59.075782299041748" lon="30.008211135864258">
        <time>2026-04-25T12:36:28Z</time>
      </trkpt>
      <trkpt lat="59.075782299041748" lon="30.008254051208496">
        <time>2026-04-25T12:36:30Z</time>
      </trkpt>
      <trkpt lat="59.075782299041748" lon="30.008275508880615">
        <time>2026-04-25T12:36:33Z</time>
      </trkpt>
      <trkpt lat="59.075803756713867" lon="30.008318424224854">
        <time>2026-04-25T12:36:35Z</time>
      </trkpt>
      <trkpt lat="59.075803756713867" lon="30.008339881896973">
        <time>2026-04-25T12:36:38Z</time>
      </trkpt>
      <trkpt lat="59.075803756713867" lon="30.008382797241211">
        <time>2026-04-25T12:36:40Z</time>
      </trkpt>
      <trkpt lat="59.075803756713867" lon="30.008425712585449">
        <time>2026-04-25T12:36:43Z</time>
      </trkpt>
      <trkpt lat="59.075825214385986" lon="30.008447170257568">
        <time>2026-04-25T12:36:45Z</time>
      </trkpt>
      <trkpt lat="59.075825214385986" lon="30.008490085601807">
        <time>2026-04-25T12:36:48Z</time>
      </trkpt>
      <trkpt lat="59.075825214385986" lon="30.008533000946045">
        <time>2026-04-25T12:36:50Z</time>
      </trkpt>
      <trkpt lat="59.075846672058105" lon="30.008554458618164">
        <time>2026-04-25T12:36:53Z</time>
      </trkpt>
      <trkpt lat="59.075846672058105" lon="30.008575916290283">
        <time>2026-04-25T12:36:55Z</time>
      </trkpt>
      <trkpt lat="59.075868129730225" lon="30.008597373962402">
        <time>2026-04-25T12:36:58Z</time>
      </trkpt>
      <trkpt lat="59.075868129730225" lon="30.008618831634521">
        <time>2026-04-25T12:37:00Z</time>
      </trkpt>
      <trkpt lat="59.075889587402344" lon="30.008640289306641">
        <time>2026-04-25T12:37:03Z</time>
      </trkpt>
      <trkpt lat="59.075889587402344" lon="30.008683204650879">
        <time>2026-04-25T12:37:05Z</time>
      </trkpt>
      <trkpt lat="59.075889587402344" lon="30.008726119995117">
        <time>2026-04-25T12:37:08Z</time>
      </trkpt>
      <trkpt lat="59.075911045074463" lon="30.008726119995117">
        <time>2026-04-25T12:37:10Z</time>
      </trkpt>
      <trkpt lat="59.075911045074463" lon="30.008769035339355">
        <time>2026-04-25T12:37:13Z</time>
      </trkpt>
      <trkpt lat="59.075932502746582" lon="30.008790493011475">
        <time>2026-04-25T12:37:15Z</time>
      </trkpt>
      <trkpt lat="59.075953960418701" lon="30.008811950683594">
        <time>2026-04-25T12:37:18Z</time>
      </trkpt>
      <trkpt lat="59.075953960418701" lon="30.008854866027832">
        <time>2026-04-25T12:37:20Z</time>
      </trkpt>
      <trkpt lat="59.07597541809082" lon="30.008876323699951">
        <time>2026-04-25T12:37:23Z</time>
      </trkpt>
      <trkpt lat="59.075996875762939" lon="30.00889778137207">
        <time>2026-04-25T12:37:25Z</time>
      </trkpt>
      <trkpt lat="59.075996875762939" lon="30.008940696716309">
        <time>2026-04-25T12:37:28Z</time>
      </trkpt>
      <trkpt lat="59.075996875762939" lon="30.008962154388428">
        <time>2026-04-25T12:37:30Z</time>
      </trkpt>
      <trkpt lat="59.075996875762939" lon="30.008983612060547">
        <time>2026-04-25T12:37:33Z</time>
      </trkpt>
      <trkpt lat="59.075996875762939" lon="30.009026527404785">
        <time>2026-04-25T12:37:35Z</time>
      </trkpt>
      <trkpt lat="59.076018333435059" lon="30.009047985076904">
        <time>2026-04-25T12:37:38Z</time>
      </trkpt>
      <trkpt lat="59.076018333435059" lon="30.009069442749023">
        <time>2026-04-25T12:37:40Z</time>
      </trkpt>
      <trkpt lat="59.076018333435059" lon="30.009069442749023">
        <time>2026-04-25T12:37:43Z</time>
      </trkpt>
      <trkpt lat="59.076018333435059" lon="30.009069442749023">
        <time>2026-04-25T12:37:45Z</time>
      </trkpt>
      <trkpt lat="59.076018333435059" lon="30.009069442749023">
        <time>2026-04-25T12:37:48Z</time>
      </trkpt>
      <trkpt lat="59.076018333435059" lon="30.009069442749023">
        <time>2026-04-25T12:37:50Z</time>
      </trkpt>
      <trkpt lat="59.076018333435059" lon="30.009069442749023">
        <time>2026-04-25T12:37:53Z</time>
      </trkpt>
      <trkpt lat="59.076018333435059" lon="30.009069442749023">
        <time>2026-04-25T12:37:55Z</time>
      </trkpt>
      <trkpt lat="59.076018333435059" lon="30.009069442749023">
        <time>2026-04-25T12:37:58Z</time>
      </trkpt>
      <trkpt lat="59.076018333435059" lon="30.009069442749023">
        <time>2026-04-25T12:38:00Z</time>
      </trkpt>
      <trkpt lat="59.076039791107178" lon="30.009112358093262">
        <time>2026-04-25T12:38:03Z</time>
      </trkpt>
      <trkpt lat="59.076061248779297" lon="30.009176731109619">
        <time>2026-04-25T12:38:05Z</time>
      </trkpt>
      <trkpt lat="59.076082706451416" lon="30.009198188781738">
        <time>2026-04-25T12:38:08Z</time>
      </trkpt>
      <trkpt lat="59.076104164123535" lon="30.009241104125977">
        <time>2026-04-25T12:38:10Z</time>
      </trkpt>
      <trkpt lat="59.076104164123535" lon="30.009241104125977">
        <time>2026-04-25T12:38:13Z</time>
      </trkpt>
      <trkpt lat="59.076125621795654" lon="30.009262561798096">
        <time>2026-04-25T12:38:15Z</time>
      </trkpt>
      <trkpt lat="59.076147079467773" lon="30.009262561798096">
        <time>2026-04-25T12:38:18Z</time>
      </trkpt>
      <trkpt lat="59.076147079467773" lon="30.009284019470215">
        <time>2026-04-25T12:38:20Z</time>
      </trkpt>
      <trkpt lat="59.076147079467773" lon="30.009326934814453">
        <time>2026-04-25T12:38:23Z</time>
      </trkpt>
      <trkpt lat="59.076147079467773" lon="30.009369850158691">
        <time>2026-04-25T12:38:25Z</time>
      </trkpt>
      <trkpt lat="59.076147079467773" lon="30.009391307830811">
        <time>2026-04-25T12:38:28Z</time>
      </trkpt>
      <trkpt lat="59.076147079467773" lon="30.009391307830811">
        <time>2026-04-25T12:38:30Z</time>
      </trkpt>
      <trkpt lat="59.076147079467773" lon="30.009391307830811">
        <time>2026-04-25T12:38:33Z</time>
      </trkpt>
      <trkpt lat="59.076147079467773" lon="30.009391307830811">
        <time>2026-04-25T12:38:35Z</time>
      </trkpt>
      <trkpt lat="59.076147079467773" lon="30.009391307830811">
        <time>2026-04-25T12:38:38Z</time>
      </trkpt>
      <trkpt lat="59.076147079467773" lon="30.009391307830811">
        <time>2026-04-25T12:38:40Z</time>
      </trkpt>
      <trkpt lat="59.076147079467773" lon="30.009391307830811">
        <time>2026-04-25T12:38:43Z</time>
      </trkpt>
      <trkpt lat="59.076147079467773" lon="30.009391307830811">
        <time>2026-04-25T12:38:45Z</time>
      </trkpt>
      <trkpt lat="59.076147079467773" lon="30.009391307830811">
        <time>2026-04-25T12:38:48Z</time>
      </trkpt>
      <trkpt lat="59.076147079467773" lon="30.009391307830811">
        <time>2026-04-25T12:38:50Z</time>
      </trkpt>
      <trkpt lat="59.076147079467773" lon="30.009391307830811">
        <time>2026-04-25T12:38:53Z</time>
      </trkpt>
      <trkpt lat="59.076147079467773" lon="30.009391307830811">
        <time>2026-04-25T12:38:55Z</time>
      </trkpt>
      <trkpt lat="59.076147079467773" lon="30.009391307830811">
        <time>2026-04-25T12:38:58Z</time>
      </trkpt>
      <trkpt lat="59.076147079467773" lon="30.009391307830811">
        <time>2026-04-25T12:39:00Z</time>
      </trkpt>
      <trkpt lat="59.076147079467773" lon="30.009391307830811">
        <time>2026-04-25T12:39:03Z</time>
      </trkpt>
      <trkpt lat="59.076125621795654" lon="30.009391307830811">
        <time>2026-04-25T12:39:05Z</time>
      </trkpt>
      <trkpt lat="59.076082706451416" lon="30.00941276550293">
        <time>2026-04-25T12:39:08Z</time>
      </trkpt>
      <trkpt lat="59.076039791107178" lon="30.009455680847168">
        <time>2026-04-25T12:39:10Z</time>
      </trkpt>
      <trkpt lat="59.076018333435059" lon="30.009455680847168">
        <time>2026-04-25T12:39:13Z</time>
      </trkpt>
      <trkpt lat="59.07597541809082" lon="30.009455680847168">
        <time>2026-04-25T12:39:15Z</time>
      </trkpt>
      <trkpt lat="59.07597541809082" lon="30.009434223175049">
        <time>2026-04-25T12:39:18Z</time>
      </trkpt>
      <trkpt lat="59.075953960418701" lon="30.009455680847168">
        <time>2026-04-25T12:39:20Z</time>
      </trkpt>
      <trkpt lat="59.075932502746582" lon="30.009455680847168">
        <time>2026-04-25T12:39:23Z</time>
      </trkpt>
      <trkpt lat="59.075911045074463" lon="30.009455680847168">
        <time>2026-04-25T12:39:25Z</time>
      </trkpt>
      <trkpt lat="59.075911045074463" lon="30.009477138519287">
        <time>2026-04-25T12:39:28Z</time>
      </trkpt>
      <trkpt lat="59.075889587402344" lon="30.009477138519287">
        <time>2026-04-25T12:39:30Z</time>
      </trkpt>
      <trkpt lat="59.075868129730225" lon="30.009477138519287">
        <time>2026-04-25T12:39:33Z</time>
      </trkpt>
      <trkpt lat="59.075846672058105" lon="30.009477138519287">
        <time>2026-04-25T12:39:35Z</time>
      </trkpt>
      <trkpt lat="59.075825214385986" lon="30.009477138519287">
        <time>2026-04-25T12:39:38Z</time>
      </trkpt>
      <trkpt lat="59.075803756713867" lon="30.009477138519287">
        <time>2026-04-25T12:39:40Z</time>
      </trkpt>
      <trkpt lat="59.075782299041748" lon="30.009477138519287">
        <time>2026-04-25T12:39:43Z</time>
      </trkpt>
      <trkpt lat="59.075760841369629" lon="30.009477138519287">
        <time>2026-04-25T12:39:45Z</time>
      </trkpt>
      <trkpt lat="59.07573938369751" lon="30.009477138519287">
        <time>2026-04-25T12:39:48Z</time>
      </trkpt>
      <trkpt lat="59.075696468353271" lon="30.009477138519287">
        <time>2026-04-25T12:39:50Z</time>
      </trkpt>
      <trkpt lat="59.075675010681152" lon="30.009477138519287">
        <time>2026-04-25T12:39:53Z</time>
      </trkpt>
      <trkpt lat="59.075653553009033" lon="30.009477138519287">
        <time>2026-04-25T12:39:55Z</time>
      </trkpt>
      <trkpt lat="59.075632095336914" lon="30.009455680847168">
        <time>2026-04-25T12:39:58Z</time>
      </trkpt>
      <trkpt lat="59.075610637664795" lon="30.009455680847168">
        <time>2026-04-25T12:40:00Z</time>
      </trkpt>
      <trkpt lat="59.075589179992676" lon="30.009455680847168">
        <time>2026-04-25T12:40:03Z</time>
      </trkpt>
      <trkpt lat="59.075589179992676" lon="30.009477138519287">
        <time>2026-04-25T12:40:05Z</time>
      </trkpt>
      <trkpt lat="59.075589179992676" lon="30.009477138519287">
        <time>2026-04-25T12:40:08Z</time>
      </trkpt>
      <trkpt lat="59.075589179992676" lon="30.009477138519287">
        <time>2026-04-25T12:40:10Z</time>
      </trkpt>
      <trkpt lat="59.075589179992676" lon="30.009477138519287">
        <time>2026-04-25T12:40:13Z</time>
      </trkpt>
      <trkpt lat="59.075589179992676" lon="30.009477138519287">
        <time>2026-04-25T12:40:15Z</time>
      </trkpt>
      <trkpt lat="59.075610637664795" lon="30.009477138519287">
        <time>2026-04-25T12:40:18Z</time>
      </trkpt>
      <trkpt lat="59.075610637664795" lon="30.009477138519287">
        <time>2026-04-25T12:40:20Z</time>
      </trkpt>
      <trkpt lat="59.075610637664795" lon="30.009477138519287">
        <time>2026-04-25T12:40:23Z</time>
      </trkpt>
      <trkpt lat="59.075610637664795" lon="30.009477138519287">
        <time>2026-04-25T12:40:25Z</time>
      </trkpt>
      <trkpt lat="59.075610637664795" lon="30.009477138519287">
        <time>2026-04-25T12:40:28Z</time>
      </trkpt>
      <trkpt lat="59.075589179992676" lon="30.009477138519287">
        <time>2026-04-25T12:40:30Z</time>
      </trkpt>
      <trkpt lat="59.075589179992676" lon="30.009477138519287">
        <time>2026-04-25T12:40:33Z</time>
      </trkpt>
      <trkpt lat="59.075589179992676" lon="30.009477138519287">
        <time>2026-04-25T12:40:35Z</time>
      </trkpt>
      <trkpt lat="59.075589179992676" lon="30.009477138519287">
        <time>2026-04-25T12:40:38Z</time>
      </trkpt>
      <trkpt lat="59.075589179992676" lon="30.009477138519287">
        <time>2026-04-25T12:40:40Z</time>
      </trkpt>
      <trkpt lat="59.075589179992676" lon="30.009477138519287">
        <time>2026-04-25T12:40:43Z</time>
      </trkpt>
      <trkpt lat="59.075589179992676" lon="30.009477138519287">
        <time>2026-04-25T12:40:45Z</time>
      </trkpt>
      <trkpt lat="59.075589179992676" lon="30.009477138519287">
        <time>2026-04-25T12:40:48Z</time>
      </trkpt>
      <trkpt lat="59.075589179992676" lon="30.009477138519287">
        <time>2026-04-25T12:40:50Z</time>
      </trkpt>
      <trkpt lat="59.075589179992676" lon="30.009477138519287">
        <time>2026-04-25T12:40:53Z</time>
      </trkpt>
      <trkpt lat="59.075589179992676" lon="30.009477138519287">
        <time>2026-04-25T12:40:55Z</time>
      </trkpt>
      <trkpt lat="59.075589179992676" lon="30.009477138519287">
        <time>2026-04-25T12:40:58Z</time>
      </trkpt>
      <trkpt lat="59.075589179992676" lon="30.009477138519287">
        <time>2026-04-25T12:41:00Z</time>
      </trkpt>
      <trkpt lat="59.075589179992676" lon="30.009477138519287">
        <time>2026-04-25T12:41:03Z</time>
      </trkpt>
      <trkpt lat="59.075589179992676" lon="30.009477138519287">
        <time>2026-04-25T12:41:05Z</time>
      </trkpt>
      <trkpt lat="59.075610637664795" lon="30.009477138519287">
        <time>2026-04-25T12:41:08Z</time>
      </trkpt>
      <trkpt lat="59.075610637664795" lon="30.009477138519287">
        <time>2026-04-25T12:41:10Z</time>
      </trkpt>
      <trkpt lat="59.075610637664795" lon="30.009477138519287">
        <time>2026-04-25T12:41:13Z</time>
      </trkpt>
      <trkpt lat="59.075610637664795" lon="30.009477138519287">
        <time>2026-04-25T12:41:15Z</time>
      </trkpt>
      <trkpt lat="59.075610637664795" lon="30.009477138519287">
        <time>2026-04-25T12:41:18Z</time>
      </trkpt>
      <trkpt lat="59.075610637664795" lon="30.009477138519287">
        <time>2026-04-25T12:41:20Z</time>
      </trkpt>
      <trkpt lat="59.075610637664795" lon="30.009477138519287">
        <time>2026-04-25T12:41:23Z</time>
      </trkpt>
      <trkpt lat="59.075610637664795" lon="30.009477138519287">
        <time>2026-04-25T12:41:25Z</time>
      </trkpt>
      <trkpt lat="59.075610637664795" lon="30.009477138519287">
        <time>2026-04-25T12:41:28Z</time>
      </trkpt>
      <trkpt lat="59.075610637664795" lon="30.009477138519287">
        <time>2026-04-25T12:41:30Z</time>
      </trkpt>
      <trkpt lat="59.075610637664795" lon="30.009477138519287">
        <time>2026-04-25T12:41:33Z</time>
      </trkpt>
      <trkpt lat="59.075589179992676" lon="30.009477138519287">
        <time>2026-04-25T12:41:35Z</time>
      </trkpt>
      <trkpt lat="59.075589179992676" lon="30.009477138519287">
        <time>2026-04-25T12:41:38Z</time>
      </trkpt>
      <trkpt lat="59.075589179992676" lon="30.009477138519287">
        <time>2026-04-25T12:41:40Z</time>
      </trkpt>
      <trkpt lat="59.075589179992676" lon="30.009477138519287">
        <time>2026-04-25T12:41:43Z</time>
      </trkpt>
      <trkpt lat="59.075589179992676" lon="30.009477138519287">
        <time>2026-04-25T12:41:45Z</time>
      </trkpt>
      <trkpt lat="59.075589179992676" lon="30.009477138519287">
        <time>2026-04-25T12:41:48Z</time>
      </trkpt>
      <trkpt lat="59.075589179992676" lon="30.009477138519287">
        <time>2026-04-25T12:41:50Z</time>
      </trkpt>
      <trkpt lat="59.075589179992676" lon="30.009477138519287">
        <time>2026-04-25T12:41:53Z</time>
      </trkpt>
      <trkpt lat="59.075589179992676" lon="30.009477138519287">
        <time>2026-04-25T12:41:55Z</time>
      </trkpt>
      <trkpt lat="59.075589179992676" lon="30.009477138519287">
        <time>2026-04-25T12:41:58Z</time>
      </trkpt>
      <trkpt lat="59.075589179992676" lon="30.009477138519287">
        <time>2026-04-25T12:42:00Z</time>
      </trkpt>
      <trkpt lat="59.075589179992676" lon="30.009477138519287">
        <time>2026-04-25T12:42:03Z</time>
      </trkpt>
      <trkpt lat="59.075589179992676" lon="30.009477138519287">
        <time>2026-04-25T12:42:05Z</time>
      </trkpt>
      <trkpt lat="59.075589179992676" lon="30.009477138519287">
        <time>2026-04-25T12:42:08Z</time>
      </trkpt>
      <trkpt lat="59.075589179992676" lon="30.009477138519287">
        <time>2026-04-25T12:42:10Z</time>
      </trkpt>
      <trkpt lat="59.075589179992676" lon="30.009477138519287">
        <time>2026-04-25T12:42:13Z</time>
      </trkpt>
      <trkpt lat="59.075610637664795" lon="30.009477138519287">
        <time>2026-04-25T12:42:15Z</time>
      </trkpt>
      <trkpt lat="59.075610637664795" lon="30.009477138519287">
        <time>2026-04-25T12:42:18Z</time>
      </trkpt>
      <trkpt lat="59.075610637664795" lon="30.009477138519287">
        <time>2026-04-25T12:42:20Z</time>
      </trkpt>
      <trkpt lat="59.075610637664795" lon="30.009477138519287">
        <time>2026-04-25T12:42:23Z</time>
      </trkpt>
      <trkpt lat="59.075610637664795" lon="30.009477138519287">
        <time>2026-04-25T12:42:25Z</time>
      </trkpt>
      <trkpt lat="59.075610637664795" lon="30.009477138519287">
        <time>2026-04-25T12:42:28Z</time>
      </trkpt>
      <trkpt lat="59.075589179992676" lon="30.009477138519287">
        <time>2026-04-25T12:42:30Z</time>
      </trkpt>
      <trkpt lat="59.075589179992676" lon="30.009477138519287">
        <time>2026-04-25T12:42:33Z</time>
      </trkpt>
      <trkpt lat="59.075589179992676" lon="30.009477138519287">
        <time>2026-04-25T12:42:35Z</time>
      </trkpt>
      <trkpt lat="59.075589179992676" lon="30.009477138519287">
        <time>2026-04-25T12:42:38Z</time>
      </trkpt>
      <trkpt lat="59.075589179992676" lon="30.009477138519287">
        <time>2026-04-25T12:42:43Z</time>
      </trkpt>
      <trkpt lat="59.075589179992676" lon="30.009477138519287">
        <time>2026-04-25T12:42:45Z</time>
      </trkpt>
      <trkpt lat="59.075589179992676" lon="30.009477138519287">
        <time>2026-04-25T12:42:48Z</time>
      </trkpt>
      <trkpt lat="59.075589179992676" lon="30.009477138519287">
        <time>2026-04-25T12:42:50Z</time>
      </trkpt>
      <trkpt lat="59.075589179992676" lon="30.009477138519287">
        <time>2026-04-25T12:42:53Z</time>
      </trkpt>
      <trkpt lat="59.075589179992676" lon="30.009477138519287">
        <time>2026-04-25T12:42:55Z</time>
      </trkpt>
      <trkpt lat="59.075589179992676" lon="30.009477138519287">
        <time>2026-04-25T12:42:58Z</time>
      </trkpt>
      <trkpt lat="59.075589179992676" lon="30.009477138519287">
        <time>2026-04-25T12:43:00Z</time>
      </trkpt>
      <trkpt lat="59.075589179992676" lon="30.009477138519287">
        <time>2026-04-25T12:43:03Z</time>
      </trkpt>
      <trkpt lat="59.075610637664795" lon="30.009477138519287">
        <time>2026-04-25T12:43:05Z</time>
      </trkpt>
      <trkpt lat="59.075610637664795" lon="30.009477138519287">
        <time>2026-04-25T12:43:08Z</time>
      </trkpt>
      <trkpt lat="59.075610637664795" lon="30.009477138519287">
        <time>2026-04-25T12:43:10Z</time>
      </trkpt>
      <trkpt lat="59.075610637664795" lon="30.009477138519287">
        <time>2026-04-25T12:43:13Z</time>
      </trkpt>
      <trkpt lat="59.075610637664795" lon="30.009477138519287">
        <time>2026-04-25T12:43:15Z</time>
      </trkpt>
      <trkpt lat="59.075610637664795" lon="30.009477138519287">
        <time>2026-04-25T12:43:18Z</time>
      </trkpt>
      <trkpt lat="59.075610637664795" lon="30.009477138519287">
        <time>2026-04-25T12:43:20Z</time>
      </trkpt>
      <trkpt lat="59.075610637664795" lon="30.009477138519287">
        <time>2026-04-25T12:43:23Z</time>
      </trkpt>
      <trkpt lat="59.075610637664795" lon="30.009477138519287">
        <time>2026-04-25T12:43:25Z</time>
      </trkpt>
      <trkpt lat="59.075610637664795" lon="30.009477138519287">
        <time>2026-04-25T12:43:28Z</time>
      </trkpt>
      <trkpt lat="59.075610637664795" lon="30.009477138519287">
        <time>2026-04-25T12:43:30Z</time>
      </trkpt>
      <trkpt lat="59.075610637664795" lon="30.009477138519287">
        <time>2026-04-25T12:43:33Z</time>
      </trkpt>
      <trkpt lat="59.075610637664795" lon="30.009477138519287">
        <time>2026-04-25T12:43:35Z</time>
      </trkpt>
      <trkpt lat="59.075610637664795" lon="30.009477138519287">
        <time>2026-04-25T12:43:38Z</time>
      </trkpt>
      <trkpt lat="59.075610637664795" lon="30.009477138519287">
        <time>2026-04-25T12:43:40Z</time>
      </trkpt>
      <trkpt lat="59.075610637664795" lon="30.009477138519287">
        <time>2026-04-25T12:43:43Z</time>
      </trkpt>
      <trkpt lat="59.075610637664795" lon="30.009477138519287">
        <time>2026-04-25T12:43:45Z</time>
      </trkpt>
      <trkpt lat="59.075610637664795" lon="30.009477138519287">
        <time>2026-04-25T12:43:48Z</time>
      </trkpt>
      <trkpt lat="59.075610637664795" lon="30.009477138519287">
        <time>2026-04-25T12:43:50Z</time>
      </trkpt>
      <trkpt lat="59.075610637664795" lon="30.009477138519287">
        <time>2026-04-25T12:43:53Z</time>
      </trkpt>
      <trkpt lat="59.075610637664795" lon="30.009477138519287">
        <time>2026-04-25T12:43:55Z</time>
      </trkpt>
      <trkpt lat="59.075610637664795" lon="30.009477138519287">
        <time>2026-04-25T12:43:58Z</time>
      </trkpt>
      <trkpt lat="59.075610637664795" lon="30.009498596191406">
        <time>2026-04-25T12:44:00Z</time>
      </trkpt>
      <trkpt lat="59.075610637664795" lon="30.009498596191406">
        <time>2026-04-25T12:44:03Z</time>
      </trkpt>
      <trkpt lat="59.075610637664795" lon="30.009498596191406">
        <time>2026-04-25T12:44:05Z</time>
      </trkpt>
      <trkpt lat="59.075610637664795" lon="30.009498596191406">
        <time>2026-04-25T12:44:08Z</time>
      </trkpt>
      <trkpt lat="59.075610637664795" lon="30.009498596191406">
        <time>2026-04-25T12:44:10Z</time>
      </trkpt>
      <trkpt lat="59.075610637664795" lon="30.009498596191406">
        <time>2026-04-25T12:44:13Z</time>
      </trkpt>
      <trkpt lat="59.075610637664795" lon="30.009498596191406">
        <time>2026-04-25T12:44:15Z</time>
      </trkpt>
      <trkpt lat="59.075610637664795" lon="30.009498596191406">
        <time>2026-04-25T12:44:18Z</time>
      </trkpt>
      <trkpt lat="59.075610637664795" lon="30.009498596191406">
        <time>2026-04-25T12:44:20Z</time>
      </trkpt>
      <trkpt lat="59.075610637664795" lon="30.009498596191406">
        <time>2026-04-25T12:44:23Z</time>
      </trkpt>
      <trkpt lat="59.075610637664795" lon="30.009498596191406">
        <time>2026-04-25T12:44:25Z</time>
      </trkpt>
      <trkpt lat="59.075610637664795" lon="30.009498596191406">
        <time>2026-04-25T12:44:28Z</time>
      </trkpt>
      <trkpt lat="59.075610637664795" lon="30.009498596191406">
        <time>2026-04-25T12:44:30Z</time>
      </trkpt>
      <trkpt lat="59.075610637664795" lon="30.009498596191406">
        <time>2026-04-25T12:44:33Z</time>
      </trkpt>
      <trkpt lat="59.075589179992676" lon="30.009498596191406">
        <time>2026-04-25T12:44:35Z</time>
      </trkpt>
      <trkpt lat="59.075610637664795" lon="30.009498596191406">
        <time>2026-04-25T12:44:38Z</time>
      </trkpt>
      <trkpt lat="59.075589179992676" lon="30.009498596191406">
        <time>2026-04-25T12:44:40Z</time>
      </trkpt>
      <trkpt lat="59.075589179992676" lon="30.009498596191406">
        <time>2026-04-25T12:44:43Z</time>
      </trkpt>
      <trkpt lat="59.075589179992676" lon="30.009498596191406">
        <time>2026-04-25T12:44:45Z</time>
      </trkpt>
      <trkpt lat="59.075589179992676" lon="30.009498596191406">
        <time>2026-04-25T12:44:48Z</time>
      </trkpt>
      <trkpt lat="59.075589179992676" lon="30.009498596191406">
        <time>2026-04-25T12:44:50Z</time>
      </trkpt>
      <trkpt lat="59.075589179992676" lon="30.009498596191406">
        <time>2026-04-25T12:44:53Z</time>
      </trkpt>
      <trkpt lat="59.075589179992676" lon="30.009498596191406">
        <time>2026-04-25T12:44:55Z</time>
      </trkpt>
      <trkpt lat="59.075589179992676" lon="30.009498596191406">
        <time>2026-04-25T12:44:58Z</time>
      </trkpt>
      <trkpt lat="59.075589179992676" lon="30.009498596191406">
        <time>2026-04-25T12:45:00Z</time>
      </trkpt>
      <trkpt lat="59.075589179992676" lon="30.009498596191406">
        <time>2026-04-25T12:45:03Z</time>
      </trkpt>
      <trkpt lat="59.075589179992676" lon="30.009498596191406">
        <time>2026-04-25T12:45:05Z</time>
      </trkpt>
      <trkpt lat="59.075589179992676" lon="30.009498596191406">
        <time>2026-04-25T12:45:08Z</time>
      </trkpt>
      <trkpt lat="59.075589179992676" lon="30.009498596191406">
        <time>2026-04-25T12:45:10Z</time>
      </trkpt>
      <trkpt lat="59.075589179992676" lon="30.009498596191406">
        <time>2026-04-25T12:45:13Z</time>
      </trkpt>
      <trkpt lat="59.075589179992676" lon="30.009498596191406">
        <time>2026-04-25T12:45:15Z</time>
      </trkpt>
      <trkpt lat="59.075589179992676" lon="30.009498596191406">
        <time>2026-04-25T12:45:18Z</time>
      </trkpt>
      <trkpt lat="59.075589179992676" lon="30.009498596191406">
        <time>2026-04-25T12:45:20Z</time>
      </trkpt>
      <trkpt lat="59.075589179992676" lon="30.009498596191406">
        <time>2026-04-25T12:45:23Z</time>
      </trkpt>
      <trkpt lat="59.075589179992676" lon="30.009498596191406">
        <time>2026-04-25T12:45:25Z</time>
      </trkpt>
      <trkpt lat="59.075589179992676" lon="30.009498596191406">
        <time>2026-04-25T12:45:28Z</time>
      </trkpt>
      <trkpt lat="59.075589179992676" lon="30.009498596191406">
        <time>2026-04-25T12:45:30Z</time>
      </trkpt>
      <trkpt lat="59.075589179992676" lon="30.009498596191406">
        <time>2026-04-25T12:45:33Z</time>
      </trkpt>
      <trkpt lat="59.075589179992676" lon="30.009498596191406">
        <time>2026-04-25T12:45:35Z</time>
      </trkpt>
      <trkpt lat="59.075589179992676" lon="30.009498596191406">
        <time>2026-04-25T12:45:38Z</time>
      </trkpt>
      <trkpt lat="59.075589179992676" lon="30.009498596191406">
        <time>2026-04-25T12:45:40Z</time>
      </trkpt>
      <trkpt lat="59.075589179992676" lon="30.009498596191406">
        <time>2026-04-25T12:45:43Z</time>
      </trkpt>
      <trkpt lat="59.075589179992676" lon="30.009498596191406">
        <time>2026-04-25T12:45:45Z</time>
      </trkpt>
      <trkpt lat="59.075589179992676" lon="30.009498596191406">
        <time>2026-04-25T12:45:48Z</time>
      </trkpt>
      <trkpt lat="59.075589179992676" lon="30.009498596191406">
        <time>2026-04-25T12:45:50Z</time>
      </trkpt>
      <trkpt lat="59.075589179992676" lon="30.009498596191406">
        <time>2026-04-25T12:45:53Z</time>
      </trkpt>
      <trkpt lat="59.075589179992676" lon="30.009498596191406">
        <time>2026-04-25T12:45:55Z</time>
      </trkpt>
      <trkpt lat="59.075589179992676" lon="30.009498596191406">
        <time>2026-04-25T12:45:58Z</time>
      </trkpt>
      <trkpt lat="59.075589179992676" lon="30.009498596191406">
        <time>2026-04-25T12:46:00Z</time>
      </trkpt>
      <trkpt lat="59.075589179992676" lon="30.009498596191406">
        <time>2026-04-25T12:46:03Z</time>
      </trkpt>
      <trkpt lat="59.075589179992676" lon="30.009498596191406">
        <time>2026-04-25T12:46:05Z</time>
      </trkpt>
      <trkpt lat="59.075589179992676" lon="30.009498596191406">
        <time>2026-04-25T12:46:08Z</time>
      </trkpt>
      <trkpt lat="59.075589179992676" lon="30.009498596191406">
        <time>2026-04-25T12:46:10Z</time>
      </trkpt>
      <trkpt lat="59.075589179992676" lon="30.009498596191406">
        <time>2026-04-25T12:46:13Z</time>
      </trkpt>
      <trkpt lat="59.075589179992676" lon="30.009498596191406">
        <time>2026-04-25T12:46:15Z</time>
      </trkpt>
      <trkpt lat="59.075589179992676" lon="30.009498596191406">
        <time>2026-04-25T12:46:18Z</time>
      </trkpt>
      <trkpt lat="59.075589179992676" lon="30.009498596191406">
        <time>2026-04-25T12:46:20Z</time>
      </trkpt>
      <trkpt lat="59.075589179992676" lon="30.009498596191406">
        <time>2026-04-25T12:46:23Z</time>
      </trkpt>
      <trkpt lat="59.075589179992676" lon="30.009498596191406">
        <time>2026-04-25T12:46:25Z</time>
      </trkpt>
      <trkpt lat="59.075589179992676" lon="30.009498596191406">
        <time>2026-04-25T12:46:28Z</time>
      </trkpt>
      <trkpt lat="59.075589179992676" lon="30.009498596191406">
        <time>2026-04-25T12:46:30Z</time>
      </trkpt>
      <trkpt lat="59.075589179992676" lon="30.009498596191406">
        <time>2026-04-25T12:46:33Z</time>
      </trkpt>
      <trkpt lat="59.075589179992676" lon="30.009498596191406">
        <time>2026-04-25T12:46:35Z</time>
      </trkpt>
      <trkpt lat="59.075589179992676" lon="30.009498596191406">
        <time>2026-04-25T12:46:38Z</time>
      </trkpt>
      <trkpt lat="59.075589179992676" lon="30.009498596191406">
        <time>2026-04-25T12:46:40Z</time>
      </trkpt>
      <trkpt lat="59.075589179992676" lon="30.009498596191406">
        <time>2026-04-25T12:46:43Z</time>
      </trkpt>
      <trkpt lat="59.075589179992676" lon="30.009498596191406">
        <time>2026-04-25T12:46:45Z</time>
      </trkpt>
      <trkpt lat="59.075589179992676" lon="30.009498596191406">
        <time>2026-04-25T12:46:48Z</time>
      </trkpt>
      <trkpt lat="59.075589179992676" lon="30.009498596191406">
        <time>2026-04-25T12:46:50Z</time>
      </trkpt>
      <trkpt lat="59.075589179992676" lon="30.009498596191406">
        <time>2026-04-25T12:46:53Z</time>
      </trkpt>
      <trkpt lat="59.075589179992676" lon="30.009498596191406">
        <time>2026-04-25T12:46:55Z</time>
      </trkpt>
      <trkpt lat="59.075589179992676" lon="30.009498596191406">
        <time>2026-04-25T12:46:58Z</time>
      </trkpt>
      <trkpt lat="59.075589179992676" lon="30.009498596191406">
        <time>2026-04-25T12:47:00Z</time>
      </trkpt>
      <trkpt lat="59.075589179992676" lon="30.009498596191406">
        <time>2026-04-25T12:47:03Z</time>
      </trkpt>
      <trkpt lat="59.075589179992676" lon="30.009498596191406">
        <time>2026-04-25T12:47:05Z</time>
      </trkpt>
      <trkpt lat="59.075589179992676" lon="30.009498596191406">
        <time>2026-04-25T12:47:08Z</time>
      </trkpt>
      <trkpt lat="59.075589179992676" lon="30.009498596191406">
        <time>2026-04-25T12:47:10Z</time>
      </trkpt>
      <trkpt lat="59.075589179992676" lon="30.009498596191406">
        <time>2026-04-25T12:47:13Z</time>
      </trkpt>
      <trkpt lat="59.075589179992676" lon="30.009498596191406">
        <time>2026-04-25T12:47:15Z</time>
      </trkpt>
      <trkpt lat="59.075589179992676" lon="30.009498596191406">
        <time>2026-04-25T12:47:18Z</time>
      </trkpt>
      <trkpt lat="59.075589179992676" lon="30.009498596191406">
        <time>2026-04-25T12:47:20Z</time>
      </trkpt>
      <trkpt lat="59.075589179992676" lon="30.009498596191406">
        <time>2026-04-25T12:47:23Z</time>
      </trkpt>
      <trkpt lat="59.075589179992676" lon="30.009498596191406">
        <time>2026-04-25T12:47:25Z</time>
      </trkpt>
      <trkpt lat="59.075589179992676" lon="30.009498596191406">
        <time>2026-04-25T12:47:28Z</time>
      </trkpt>
      <trkpt lat="59.075589179992676" lon="30.009498596191406">
        <time>2026-04-25T12:47:30Z</time>
      </trkpt>
      <trkpt lat="59.075589179992676" lon="30.009498596191406">
        <time>2026-04-25T12:47:33Z</time>
      </trkpt>
      <trkpt lat="59.075589179992676" lon="30.009498596191406">
        <time>2026-04-25T12:47:35Z</time>
      </trkpt>
      <trkpt lat="59.075589179992676" lon="30.009498596191406">
        <time>2026-04-25T12:47:38Z</time>
      </trkpt>
      <trkpt lat="59.075589179992676" lon="30.009498596191406">
        <time>2026-04-25T12:47:40Z</time>
      </trkpt>
      <trkpt lat="59.075589179992676" lon="30.009498596191406">
        <time>2026-04-25T12:47:43Z</time>
      </trkpt>
      <trkpt lat="59.075589179992676" lon="30.009498596191406">
        <time>2026-04-25T12:47:45Z</time>
      </trkpt>
      <trkpt lat="59.075589179992676" lon="30.009498596191406">
        <time>2026-04-25T12:47:48Z</time>
      </trkpt>
      <trkpt lat="59.075589179992676" lon="30.009498596191406">
        <time>2026-04-25T12:47:50Z</time>
      </trkpt>
      <trkpt lat="59.075589179992676" lon="30.009498596191406">
        <time>2026-04-25T12:47:53Z</time>
      </trkpt>
      <trkpt lat="59.075589179992676" lon="30.009498596191406">
        <time>2026-04-25T12:47:55Z</time>
      </trkpt>
      <trkpt lat="59.075589179992676" lon="30.009498596191406">
        <time>2026-04-25T12:47:58Z</time>
      </trkpt>
      <trkpt lat="59.075589179992676" lon="30.009498596191406">
        <time>2026-04-25T12:48:00Z</time>
      </trkpt>
      <trkpt lat="59.075589179992676" lon="30.009498596191406">
        <time>2026-04-25T12:48:03Z</time>
      </trkpt>
      <trkpt lat="59.075589179992676" lon="30.009498596191406">
        <time>2026-04-25T12:48:05Z</time>
      </trkpt>
      <trkpt lat="59.075589179992676" lon="30.009498596191406">
        <time>2026-04-25T12:48:08Z</time>
      </trkpt>
      <trkpt lat="59.075589179992676" lon="30.009498596191406">
        <time>2026-04-25T12:48:10Z</time>
      </trkpt>
      <trkpt lat="59.075589179992676" lon="30.009498596191406">
        <time>2026-04-25T12:48:13Z</time>
      </trkpt>
      <trkpt lat="59.075589179992676" lon="30.009498596191406">
        <time>2026-04-25T12:48:15Z</time>
      </trkpt>
      <trkpt lat="59.075589179992676" lon="30.009498596191406">
        <time>2026-04-25T12:48:18Z</time>
      </trkpt>
      <trkpt lat="59.075589179992676" lon="30.009498596191406">
        <time>2026-04-25T12:48:20Z</time>
      </trkpt>
      <trkpt lat="59.075589179992676" lon="30.009498596191406">
        <time>2026-04-25T12:48:23Z</time>
      </trkpt>
      <trkpt lat="59.075589179992676" lon="30.009498596191406">
        <time>2026-04-25T12:48:25Z</time>
      </trkpt>
      <trkpt lat="59.075589179992676" lon="30.009498596191406">
        <time>2026-04-25T12:48:28Z</time>
      </trkpt>
      <trkpt lat="59.075589179992676" lon="30.009498596191406">
        <time>2026-04-25T12:48:30Z</time>
      </trkpt>
      <trkpt lat="59.075589179992676" lon="30.009498596191406">
        <time>2026-04-25T12:48:33Z</time>
      </trkpt>
      <trkpt lat="59.075589179992676" lon="30.009498596191406">
        <time>2026-04-25T12:48:35Z</time>
      </trkpt>
      <trkpt lat="59.075589179992676" lon="30.009498596191406">
        <time>2026-04-25T12:48:38Z</time>
      </trkpt>
      <trkpt lat="59.075589179992676" lon="30.009498596191406">
        <time>2026-04-25T12:48:40Z</time>
      </trkpt>
      <trkpt lat="59.075589179992676" lon="30.009498596191406">
        <time>2026-04-25T12:48:43Z</time>
      </trkpt>
      <trkpt lat="59.075589179992676" lon="30.009498596191406">
        <time>2026-04-25T12:48:45Z</time>
      </trkpt>
      <trkpt lat="59.075589179992676" lon="30.009498596191406">
        <time>2026-04-25T12:48:48Z</time>
      </trkpt>
      <trkpt lat="59.075589179992676" lon="30.009498596191406">
        <time>2026-04-25T12:48:50Z</time>
      </trkpt>
      <trkpt lat="59.075589179992676" lon="30.009498596191406">
        <time>2026-04-25T12:48:53Z</time>
      </trkpt>
      <trkpt lat="59.075589179992676" lon="30.009498596191406">
        <time>2026-04-25T12:48:55Z</time>
      </trkpt>
      <trkpt lat="59.075589179992676" lon="30.009498596191406">
        <time>2026-04-25T12:48:58Z</time>
      </trkpt>
      <trkpt lat="59.075589179992676" lon="30.009498596191406">
        <time>2026-04-25T12:49:00Z</time>
      </trkpt>
      <trkpt lat="59.075589179992676" lon="30.009498596191406">
        <time>2026-04-25T12:49:03Z</time>
      </trkpt>
      <trkpt lat="59.075589179992676" lon="30.009498596191406">
        <time>2026-04-25T12:49:05Z</time>
      </trkpt>
      <trkpt lat="59.075589179992676" lon="30.009498596191406">
        <time>2026-04-25T12:49:08Z</time>
      </trkpt>
      <trkpt lat="59.075589179992676" lon="30.009498596191406">
        <time>2026-04-25T12:49:10Z</time>
      </trkpt>
      <trkpt lat="59.075589179992676" lon="30.009498596191406">
        <time>2026-04-25T12:49:13Z</time>
      </trkpt>
      <trkpt lat="59.075589179992676" lon="30.009498596191406">
        <time>2026-04-25T12:49:15Z</time>
      </trkpt>
      <trkpt lat="59.075589179992676" lon="30.009498596191406">
        <time>2026-04-25T12:49:18Z</time>
      </trkpt>
      <trkpt lat="59.075589179992676" lon="30.009498596191406">
        <time>2026-04-25T12:49:20Z</time>
      </trkpt>
      <trkpt lat="59.075589179992676" lon="30.009498596191406">
        <time>2026-04-25T12:49:23Z</time>
      </trkpt>
      <trkpt lat="59.075589179992676" lon="30.009498596191406">
        <time>2026-04-25T12:49:25Z</time>
      </trkpt>
      <trkpt lat="59.075589179992676" lon="30.009498596191406">
        <time>2026-04-25T12:49:28Z</time>
      </trkpt>
      <trkpt lat="59.075589179992676" lon="30.009498596191406">
        <time>2026-04-25T12:49:30Z</time>
      </trkpt>
      <trkpt lat="59.075589179992676" lon="30.009498596191406">
        <time>2026-04-25T12:49:33Z</time>
      </trkpt>
      <trkpt lat="59.075589179992676" lon="30.009498596191406">
        <time>2026-04-25T12:49:35Z</time>
      </trkpt>
      <trkpt lat="59.075589179992676" lon="30.009498596191406">
        <time>2026-04-25T12:49:38Z</time>
      </trkpt>
      <trkpt lat="59.075589179992676" lon="30.009498596191406">
        <time>2026-04-25T12:49:40Z</time>
      </trkpt>
      <trkpt lat="59.075589179992676" lon="30.009498596191406">
        <time>2026-04-25T12:49:43Z</time>
      </trkpt>
      <trkpt lat="59.075589179992676" lon="30.009498596191406">
        <time>2026-04-25T12:49:45Z</time>
      </trkpt>
      <trkpt lat="59.075589179992676" lon="30.009498596191406">
        <time>2026-04-25T12:49:48Z</time>
      </trkpt>
      <trkpt lat="59.075589179992676" lon="30.009498596191406">
        <time>2026-04-25T12:49:50Z</time>
      </trkpt>
      <trkpt lat="59.075589179992676" lon="30.009498596191406">
        <time>2026-04-25T12:49:53Z</time>
      </trkpt>
      <trkpt lat="59.075589179992676" lon="30.009498596191406">
        <time>2026-04-25T12:49:55Z</time>
      </trkpt>
      <trkpt lat="59.075589179992676" lon="30.009498596191406">
        <time>2026-04-25T12:49:58Z</time>
      </trkpt>
      <trkpt lat="59.075589179992676" lon="30.009498596191406">
        <time>2026-04-25T12:50:00Z</time>
      </trkpt>
      <trkpt lat="59.075589179992676" lon="30.009498596191406">
        <time>2026-04-25T12:50:03Z</time>
      </trkpt>
      <trkpt lat="59.075589179992676" lon="30.009498596191406">
        <time>2026-04-25T12:50:05Z</time>
      </trkpt>
      <trkpt lat="59.075589179992676" lon="30.009498596191406">
        <time>2026-04-25T12:50:08Z</time>
      </trkpt>
      <trkpt lat="59.075589179992676" lon="30.009498596191406">
        <time>2026-04-25T12:50:10Z</time>
      </trkpt>
      <trkpt lat="59.075589179992676" lon="30.009498596191406">
        <time>2026-04-25T12:50:13Z</time>
      </trkpt>
      <trkpt lat="59.075589179992676" lon="30.009498596191406">
        <time>2026-04-25T12:50:15Z</time>
      </trkpt>
      <trkpt lat="59.075589179992676" lon="30.009498596191406">
        <time>2026-04-25T12:50:18Z</time>
      </trkpt>
      <trkpt lat="59.075589179992676" lon="30.009498596191406">
        <time>2026-04-25T12:50:20Z</time>
      </trkpt>
      <trkpt lat="59.075589179992676" lon="30.009498596191406">
        <time>2026-04-25T12:50:23Z</time>
      </trkpt>
      <trkpt lat="59.075589179992676" lon="30.009498596191406">
        <time>2026-04-25T12:50:25Z</time>
      </trkpt>
      <trkpt lat="59.075589179992676" lon="30.009498596191406">
        <time>2026-04-25T12:50:28Z</time>
      </trkpt>
      <trkpt lat="59.075589179992676" lon="30.009498596191406">
        <time>2026-04-25T12:50:30Z</time>
      </trkpt>
      <trkpt lat="59.075589179992676" lon="30.009498596191406">
        <time>2026-04-25T12:50:33Z</time>
      </trkpt>
      <trkpt lat="59.075589179992676" lon="30.009498596191406">
        <time>2026-04-25T12:50:35Z</time>
      </trkpt>
      <trkpt lat="59.075589179992676" lon="30.009498596191406">
        <time>2026-04-25T12:50:38Z</time>
      </trkpt>
      <trkpt lat="59.075589179992676" lon="30.009498596191406">
        <time>2026-04-25T12:50:40Z</time>
      </trkpt>
      <trkpt lat="59.075589179992676" lon="30.009498596191406">
        <time>2026-04-25T12:50:43Z</time>
      </trkpt>
      <trkpt lat="59.075589179992676" lon="30.009498596191406">
        <time>2026-04-25T12:50:45Z</time>
      </trkpt>
      <trkpt lat="59.075589179992676" lon="30.009498596191406">
        <time>2026-04-25T12:50:48Z</time>
      </trkpt>
      <trkpt lat="59.075589179992676" lon="30.009498596191406">
        <time>2026-04-25T12:50:50Z</time>
      </trkpt>
      <trkpt lat="59.075589179992676" lon="30.009498596191406">
        <time>2026-04-25T12:50:53Z</time>
      </trkpt>
      <trkpt lat="59.075589179992676" lon="30.009498596191406">
        <time>2026-04-25T12:50:55Z</time>
      </trkpt>
      <trkpt lat="59.075589179992676" lon="30.009498596191406">
        <time>2026-04-25T12:50:58Z</time>
      </trkpt>
      <trkpt lat="59.075589179992676" lon="30.009498596191406">
        <time>2026-04-25T12:51:00Z</time>
      </trkpt>
      <trkpt lat="59.075589179992676" lon="30.009498596191406">
        <time>2026-04-25T12:51:03Z</time>
      </trkpt>
      <trkpt lat="59.075589179992676" lon="30.009498596191406">
        <time>2026-04-25T12:51:05Z</time>
      </trkpt>
      <trkpt lat="59.075589179992676" lon="30.009498596191406">
        <time>2026-04-25T12:51:08Z</time>
      </trkpt>
      <trkpt lat="59.075589179992676" lon="30.009498596191406">
        <time>2026-04-25T12:51:10Z</time>
      </trkpt>
      <trkpt lat="59.075589179992676" lon="30.009498596191406">
        <time>2026-04-25T12:51:13Z</time>
      </trkpt>
      <trkpt lat="59.075589179992676" lon="30.009498596191406">
        <time>2026-04-25T12:51:15Z</time>
      </trkpt>
      <trkpt lat="59.075589179992676" lon="30.009498596191406">
        <time>2026-04-25T12:51:18Z</time>
      </trkpt>
      <trkpt lat="59.075567722320557" lon="30.009434223175049">
        <time>2026-04-25T12:51:20Z</time>
      </trkpt>
      <trkpt lat="59.075546264648438" lon="30.009348392486572">
        <time>2026-04-25T12:51:23Z</time>
      </trkpt>
      <trkpt lat="59.075503349304199" lon="30.009219646453857">
        <time>2026-04-25T12:51:25Z</time>
      </trkpt>
      <trkpt lat="59.075460433959961" lon="30.009133815765381">
        <time>2026-04-25T12:51:28Z</time>
      </trkpt>
      <trkpt lat="59.075438976287842" lon="30.009090900421143">
        <time>2026-04-25T12:51:30Z</time>
      </trkpt>
      <trkpt lat="59.075438976287842" lon="30.009069442749023">
        <time>2026-04-25T12:51:33Z</time>
      </trkpt>
      <trkpt lat="59.075417518615723" lon="30.009026527404785">
        <time>2026-04-25T12:51:35Z</time>
      </trkpt>
      <trkpt lat="59.075417518615723" lon="30.009005069732666">
        <time>2026-04-25T12:51:38Z</time>
      </trkpt>
      <trkpt lat="59.075417518615723" lon="30.008962154388428">
        <time>2026-04-25T12:51:40Z</time>
      </trkpt>
      <trkpt lat="59.075417518615723" lon="30.008940696716309">
        <time>2026-04-25T12:51:43Z</time>
      </trkpt>
      <trkpt lat="59.075417518615723" lon="30.00889778137207">
        <time>2026-04-25T12:51:45Z</time>
      </trkpt>
      <trkpt lat="59.075417518615723" lon="30.00889778137207">
        <time>2026-04-25T12:51:48Z</time>
      </trkpt>
      <trkpt lat="59.075396060943604" lon="30.008876323699951">
        <time>2026-04-25T12:51:50Z</time>
      </trkpt>
      <trkpt lat="59.075374603271484" lon="30.008854866027832">
        <time>2026-04-25T12:51:53Z</time>
      </trkpt>
      <trkpt lat="59.075353145599365" lon="30.008833408355713">
        <time>2026-04-25T12:51:55Z</time>
      </trkpt>
      <trkpt lat="59.075331687927246" lon="30.008790493011475">
        <time>2026-04-25T12:51:58Z</time>
      </trkpt>
      <trkpt lat="59.075331687927246" lon="30.008769035339355">
        <time>2026-04-25T12:52:00Z</time>
      </trkpt>
      <trkpt lat="59.075310230255127" lon="30.008704662322998">
        <time>2026-04-25T12:52:03Z</time>
      </trkpt>
      <trkpt lat="59.075310230255127" lon="30.00866174697876">
        <time>2026-04-25T12:52:05Z</time>
      </trkpt>
      <trkpt lat="59.075310230255127" lon="30.008618831634521">
        <time>2026-04-25T12:52:08Z</time>
      </trkpt>
      <trkpt lat="59.075310230255127" lon="30.008618831634521">
        <time>2026-04-25T12:52:10Z</time>
      </trkpt>
      <trkpt lat="59.075310230255127" lon="30.008597373962402">
        <time>2026-04-25T12:52:13Z</time>
      </trkpt>
      <trkpt lat="59.075310230255127" lon="30.008597373962402">
        <time>2026-04-25T12:52:15Z</time>
      </trkpt>
      <trkpt lat="59.075310230255127" lon="30.008597373962402">
        <time>2026-04-25T12:52:18Z</time>
      </trkpt>
      <trkpt lat="59.075310230255127" lon="30.008597373962402">
        <time>2026-04-25T12:52:20Z</time>
      </trkpt>
      <trkpt lat="59.075288772583008" lon="30.008597373962402">
        <time>2026-04-25T12:52:23Z</time>
      </trkpt>
      <trkpt lat="59.075288772583008" lon="30.008597373962402">
        <time>2026-04-25T12:52:25Z</time>
      </trkpt>
      <trkpt lat="59.075288772583008" lon="30.008597373962402">
        <time>2026-04-25T12:52:28Z</time>
      </trkpt>
      <trkpt lat="59.075288772583008" lon="30.008597373962402">
        <time>2026-04-25T12:52:30Z</time>
      </trkpt>
      <trkpt lat="59.075288772583008" lon="30.008597373962402">
        <time>2026-04-25T12:52:33Z</time>
      </trkpt>
      <trkpt lat="59.075288772583008" lon="30.008597373962402">
        <time>2026-04-25T12:52:35Z</time>
      </trkpt>
      <trkpt lat="59.075288772583008" lon="30.008597373962402">
        <time>2026-04-25T12:52:38Z</time>
      </trkpt>
      <trkpt lat="59.075288772583008" lon="30.008597373962402">
        <time>2026-04-25T12:52:40Z</time>
      </trkpt>
      <trkpt lat="59.075288772583008" lon="30.008597373962402">
        <time>2026-04-25T12:52:43Z</time>
      </trkpt>
      <trkpt lat="59.075288772583008" lon="30.008597373962402">
        <time>2026-04-25T12:52:45Z</time>
      </trkpt>
      <trkpt lat="59.075288772583008" lon="30.008597373962402">
        <time>2026-04-25T12:52:48Z</time>
      </trkpt>
      <trkpt lat="59.075288772583008" lon="30.008597373962402">
        <time>2026-04-25T12:52:50Z</time>
      </trkpt>
      <trkpt lat="59.075288772583008" lon="30.008575916290283">
        <time>2026-04-25T12:52:53Z</time>
      </trkpt>
      <trkpt lat="59.075288772583008" lon="30.008575916290283">
        <time>2026-04-25T12:52:55Z</time>
      </trkpt>
      <trkpt lat="59.075288772583008" lon="30.008575916290283">
        <time>2026-04-25T12:52:58Z</time>
      </trkpt>
      <trkpt lat="59.075288772583008" lon="30.008575916290283">
        <time>2026-04-25T12:53:00Z</time>
      </trkpt>
      <trkpt lat="59.075267314910889" lon="30.008554458618164">
        <time>2026-04-25T12:53:03Z</time>
      </trkpt>
      <trkpt lat="59.07524585723877" lon="30.008511543273926">
        <time>2026-04-25T12:53:05Z</time>
      </trkpt>
      <trkpt lat="59.075202941894531" lon="30.008490085601807">
        <time>2026-04-25T12:53:08Z</time>
      </trkpt>
      <trkpt lat="59.075181484222412" lon="30.008447170257568">
        <time>2026-04-25T12:53:10Z</time>
      </trkpt>
      <trkpt lat="59.075181484222412" lon="30.00840425491333">
        <time>2026-04-25T12:53:13Z</time>
      </trkpt>
      <trkpt lat="59.075202941894531" lon="30.008361339569092">
        <time>2026-04-25T12:53:15Z</time>
      </trkpt>
      <trkpt lat="59.075202941894531" lon="30.008339881896973">
        <time>2026-04-25T12:53:18Z</time>
      </trkpt>
      <trkpt lat="59.075181484222412" lon="30.008296966552734">
        <time>2026-04-25T12:53:20Z</time>
      </trkpt>
      <trkpt lat="59.075181484222412" lon="30.008254051208496">
        <time>2026-04-25T12:53:23Z</time>
      </trkpt>
      <trkpt lat="59.075160026550293" lon="30.008211135864258">
        <time>2026-04-25T12:53:25Z</time>
      </trkpt>
      <trkpt lat="59.075160026550293" lon="30.00816822052002">
        <time>2026-04-25T12:53:28Z</time>
      </trkpt>
      <trkpt lat="59.075160026550293" lon="30.0081467628479">
        <time>2026-04-25T12:53:30Z</time>
      </trkpt>
      <trkpt lat="59.075160026550293" lon="30.008103847503662">
        <time>2026-04-25T12:53:33Z</time>
      </trkpt>
      <trkpt lat="59.075160026550293" lon="30.008060932159424">
        <time>2026-04-25T12:53:35Z</time>
      </trkpt>
      <trkpt lat="59.075160026550293" lon="30.008018016815186">
        <time>2026-04-25T12:53:38Z</time>
      </trkpt>
      <trkpt lat="59.075138568878174" lon="30.007975101470947">
        <time>2026-04-25T12:53:40Z</time>
      </trkpt>
      <trkpt lat="59.075138568878174" lon="30.00791072845459">
        <time>2026-04-25T12:53:43Z</time>
      </trkpt>
      <trkpt lat="59.075138568878174" lon="30.007889270782471">
        <time>2026-04-25T12:53:45Z</time>
      </trkpt>
      <trkpt lat="59.075160026550293" lon="30.007867813110352">
        <time>2026-04-25T12:53:48Z</time>
      </trkpt>
      <trkpt lat="59.075160026550293" lon="30.007867813110352">
        <time>2026-04-25T12:53:50Z</time>
      </trkpt>
      <trkpt lat="59.075181484222412" lon="30.007824897766113">
        <time>2026-04-25T12:53:53Z</time>
      </trkpt>
      <trkpt lat="59.075181484222412" lon="30.007781982421875">
        <time>2026-04-25T12:53:55Z</time>
      </trkpt>
      <trkpt lat="59.075160026550293" lon="30.007760524749756">
        <time>2026-04-25T12:53:58Z</time>
      </trkpt>
      <trkpt lat="59.075160026550293" lon="30.007717609405518">
        <time>2026-04-25T12:54:00Z</time>
      </trkpt>
      <trkpt lat="59.075138568878174" lon="30.007696151733398">
        <time>2026-04-25T12:54:03Z</time>
      </trkpt>
      <trkpt lat="59.075117111206055" lon="30.007674694061279">
        <time>2026-04-25T12:54:05Z</time>
      </trkpt>
      <trkpt lat="59.075095653533936" lon="30.00765323638916">
        <time>2026-04-25T12:54:08Z</time>
      </trkpt>
      <trkpt lat="59.075074195861816" lon="30.00765323638916">
        <time>2026-04-25T12:54:10Z</time>
      </trkpt>
      <trkpt lat="59.075052738189697" lon="30.00765323638916">
        <time>2026-04-25T12:54:13Z</time>
      </trkpt>
      <trkpt lat="59.075052738189697" lon="30.007610321044922">
        <time>2026-04-25T12:54:15Z</time>
      </trkpt>
      <trkpt lat="59.075031280517578" lon="30.007588863372803">
        <time>2026-04-25T12:54:18Z</time>
      </trkpt>
      <trkpt lat="59.075009822845459" lon="30.007567405700684">
        <time>2026-04-25T12:54:20Z</time>
      </trkpt>
      <trkpt lat="59.07498836517334" lon="30.007524490356445">
        <time>2026-04-25T12:54:23Z</time>
      </trkpt>
      <trkpt lat="59.07498836517334" lon="30.007524490356445">
        <time>2026-04-25T12:54:25Z</time>
      </trkpt>
      <trkpt lat="59.07498836517334" lon="30.007524490356445">
        <time>2026-04-25T12:54:28Z</time>
      </trkpt>
      <trkpt lat="59.07498836517334" lon="30.007524490356445">
        <time>2026-04-25T12:54:30Z</time>
      </trkpt>
      <trkpt lat="59.07498836517334" lon="30.007524490356445">
        <time>2026-04-25T12:54:33Z</time>
      </trkpt>
      <trkpt lat="59.07498836517334" lon="30.007524490356445">
        <time>2026-04-25T12:54:35Z</time>
      </trkpt>
      <trkpt lat="59.07498836517334" lon="30.007524490356445">
        <time>2026-04-25T12:54:38Z</time>
      </trkpt>
      <trkpt lat="59.07498836517334" lon="30.007524490356445">
        <time>2026-04-25T12:54:40Z</time>
      </trkpt>
      <trkpt lat="59.07498836517334" lon="30.007524490356445">
        <time>2026-04-25T12:54:43Z</time>
      </trkpt>
      <trkpt lat="59.07498836517334" lon="30.007524490356445">
        <time>2026-04-25T12:54:45Z</time>
      </trkpt>
      <trkpt lat="59.07498836517334" lon="30.007524490356445">
        <time>2026-04-25T12:54:48Z</time>
      </trkpt>
      <trkpt lat="59.07498836517334" lon="30.007524490356445">
        <time>2026-04-25T12:54:50Z</time>
      </trkpt>
      <trkpt lat="59.07498836517334" lon="30.007524490356445">
        <time>2026-04-25T12:54:53Z</time>
      </trkpt>
      <trkpt lat="59.07498836517334" lon="30.007524490356445">
        <time>2026-04-25T12:54:55Z</time>
      </trkpt>
      <trkpt lat="59.07498836517334" lon="30.007524490356445">
        <time>2026-04-25T12:54:58Z</time>
      </trkpt>
      <trkpt lat="59.07498836517334" lon="30.007524490356445">
        <time>2026-04-25T12:55:00Z</time>
      </trkpt>
      <trkpt lat="59.07498836517334" lon="30.007524490356445">
        <time>2026-04-25T12:55:03Z</time>
      </trkpt>
      <trkpt lat="59.07498836517334" lon="30.007524490356445">
        <time>2026-04-25T12:55:05Z</time>
      </trkpt>
      <trkpt lat="59.07498836517334" lon="30.007524490356445">
        <time>2026-04-25T12:55:08Z</time>
      </trkpt>
      <trkpt lat="59.074945449829102" lon="30.007545948028564">
        <time>2026-04-25T12:55:10Z</time>
      </trkpt>
      <trkpt lat="59.074923992156982" lon="30.007545948028564">
        <time>2026-04-25T12:55:13Z</time>
      </trkpt>
      <trkpt lat="59.074881076812744" lon="30.007545948028564">
        <time>2026-04-25T12:55:15Z</time>
      </trkpt>
      <trkpt lat="59.074859619140625" lon="30.007588863372803">
        <time>2026-04-25T12:55:18Z</time>
      </trkpt>
      <trkpt lat="59.074859619140625" lon="30.007610321044922">
        <time>2026-04-25T12:55:20Z</time>
      </trkpt>
      <trkpt lat="59.074838161468506" lon="30.007631778717041">
        <time>2026-04-25T12:55:23Z</time>
      </trkpt>
      <trkpt lat="59.074838161468506" lon="30.007631778717041">
        <time>2026-04-25T12:55:25Z</time>
      </trkpt>
      <trkpt lat="59.074816703796387" lon="30.007631778717041">
        <time>2026-04-25T12:55:28Z</time>
      </trkpt>
      <trkpt lat="59.074795246124268" lon="30.007674694061279">
        <time>2026-04-25T12:55:30Z</time>
      </trkpt>
      <trkpt lat="59.074795246124268" lon="30.007696151733398">
        <time>2026-04-25T12:55:33Z</time>
      </trkpt>
      <trkpt lat="59.074795246124268" lon="30.007739067077637">
        <time>2026-04-25T12:55:35Z</time>
      </trkpt>
      <trkpt lat="59.074773788452148" lon="30.007760524749756">
        <time>2026-04-25T12:55:38Z</time>
      </trkpt>
      <trkpt lat="59.074752330780029" lon="30.007760524749756">
        <time>2026-04-25T12:55:40Z</time>
      </trkpt>
      <trkpt lat="59.07473087310791" lon="30.007760524749756">
        <time>2026-04-25T12:55:43Z</time>
      </trkpt>
      <trkpt lat="59.074709415435791" lon="30.007760524749756">
        <time>2026-04-25T12:55:45Z</time>
      </trkpt>
      <trkpt lat="59.074709415435791" lon="30.007760524749756">
        <time>2026-04-25T12:55:48Z</time>
      </trkpt>
      <trkpt lat="59.074709415435791" lon="30.007760524749756">
        <time>2026-04-25T12:55:50Z</time>
      </trkpt>
      <trkpt lat="59.074687957763672" lon="30.007739067077637">
        <time>2026-04-25T12:55:53Z</time>
      </trkpt>
      <trkpt lat="59.074645042419434" lon="30.007739067077637">
        <time>2026-04-25T12:55:55Z</time>
      </trkpt>
      <trkpt lat="59.074623584747314" lon="30.007739067077637">
        <time>2026-04-25T12:55:58Z</time>
      </trkpt>
      <trkpt lat="59.074623584747314" lon="30.007739067077637">
        <time>2026-04-25T12:56:00Z</time>
      </trkpt>
      <trkpt lat="59.074623584747314" lon="30.007739067077637">
        <time>2026-04-25T12:56:03Z</time>
      </trkpt>
      <trkpt lat="59.074580669403076" lon="30.007739067077637">
        <time>2026-04-25T12:56:05Z</time>
      </trkpt>
      <trkpt lat="59.074559211730957" lon="30.007739067077637">
        <time>2026-04-25T12:56:08Z</time>
      </trkpt>
      <trkpt lat="59.074537754058838" lon="30.007760524749756">
        <time>2026-04-25T12:56:10Z</time>
      </trkpt>
      <trkpt lat="59.074516296386719" lon="30.007781982421875">
        <time>2026-04-25T12:56:13Z</time>
      </trkpt>
      <trkpt lat="59.0744948387146" lon="30.007803440093994">
        <time>2026-04-25T12:56:15Z</time>
      </trkpt>
      <trkpt lat="59.074451923370361" lon="30.007781982421875">
        <time>2026-04-25T12:56:18Z</time>
      </trkpt>
      <trkpt lat="59.074430465698242" lon="30.007781982421875">
        <time>2026-04-25T12:56:20Z</time>
      </trkpt>
      <trkpt lat="59.074409008026123" lon="30.007760524749756">
        <time>2026-04-25T12:56:23Z</time>
      </trkpt>
      <trkpt lat="59.074409008026123" lon="30.007760524749756">
        <time>2026-04-25T12:56:25Z</time>
      </trkpt>
      <trkpt lat="59.074409008026123" lon="30.007739067077637">
        <time>2026-04-25T12:56:28Z</time>
      </trkpt>
      <trkpt lat="59.074409008026123" lon="30.007739067077637">
        <time>2026-04-25T12:56:30Z</time>
      </trkpt>
      <trkpt lat="59.074409008026123" lon="30.007739067077637">
        <time>2026-04-25T12:56:33Z</time>
      </trkpt>
      <trkpt lat="59.074409008026123" lon="30.007739067077637">
        <time>2026-04-25T12:56:35Z</time>
      </trkpt>
      <trkpt lat="59.074409008026123" lon="30.007739067077637">
        <time>2026-04-25T12:56:38Z</time>
      </trkpt>
      <trkpt lat="59.074409008026123" lon="30.007739067077637">
        <time>2026-04-25T12:56:40Z</time>
      </trkpt>
      <trkpt lat="59.074409008026123" lon="30.007739067077637">
        <time>2026-04-25T12:56:43Z</time>
      </trkpt>
      <trkpt lat="59.074409008026123" lon="30.007739067077637">
        <time>2026-04-25T12:56:45Z</time>
      </trkpt>
      <trkpt lat="59.074409008026123" lon="30.007739067077637">
        <time>2026-04-25T12:56:48Z</time>
      </trkpt>
      <trkpt lat="59.074409008026123" lon="30.007760524749756">
        <time>2026-04-25T12:56:50Z</time>
      </trkpt>
      <trkpt lat="59.074409008026123" lon="30.007760524749756">
        <time>2026-04-25T12:56:53Z</time>
      </trkpt>
      <trkpt lat="59.074409008026123" lon="30.007760524749756">
        <time>2026-04-25T12:56:55Z</time>
      </trkpt>
      <trkpt lat="59.074409008026123" lon="30.007760524749756">
        <time>2026-04-25T12:56:58Z</time>
      </trkpt>
      <trkpt lat="59.074409008026123" lon="30.007760524749756">
        <time>2026-04-25T12:57:00Z</time>
      </trkpt>
      <trkpt lat="59.074409008026123" lon="30.007760524749756">
        <time>2026-04-25T12:57:03Z</time>
      </trkpt>
      <trkpt lat="59.074409008026123" lon="30.007760524749756">
        <time>2026-04-25T12:57:05Z</time>
      </trkpt>
      <trkpt lat="59.074409008026123" lon="30.007760524749756">
        <time>2026-04-25T12:57:08Z</time>
      </trkpt>
      <trkpt lat="59.074409008026123" lon="30.007760524749756">
        <time>2026-04-25T12:57:10Z</time>
      </trkpt>
      <trkpt lat="59.074409008026123" lon="30.007760524749756">
        <time>2026-04-25T12:57:13Z</time>
      </trkpt>
      <trkpt lat="59.074409008026123" lon="30.007760524749756">
        <time>2026-04-25T12:57:15Z</time>
      </trkpt>
      <trkpt lat="59.074430465698242" lon="30.007760524749756">
        <time>2026-04-25T12:57:18Z</time>
      </trkpt>
      <trkpt lat="59.074516296386719" lon="30.007846355438232">
        <time>2026-04-25T12:57:20Z</time>
      </trkpt>
      <trkpt lat="59.074537754058838" lon="30.007889270782471">
        <time>2026-04-25T12:57:23Z</time>
      </trkpt>
      <trkpt lat="59.074559211730957" lon="30.007889270782471">
        <time>2026-04-25T12:57:25Z</time>
      </trkpt>
      <trkpt lat="59.074559211730957" lon="30.007953643798828">
        <time>2026-04-25T12:57:28Z</time>
      </trkpt>
      <trkpt lat="59.074559211730957" lon="30.007996559143066">
        <time>2026-04-25T12:57:30Z</time>
      </trkpt>
      <trkpt lat="59.074580669403076" lon="30.008018016815186">
        <time>2026-04-25T12:57:33Z</time>
      </trkpt>
      <trkpt lat="59.074580669403076" lon="30.008018016815186">
        <time>2026-04-25T12:57:35Z</time>
      </trkpt>
      <trkpt lat="59.074580669403076" lon="30.008060932159424">
        <time>2026-04-25T12:57:38Z</time>
      </trkpt>
      <trkpt lat="59.074580669403076" lon="30.008103847503662">
        <time>2026-04-25T12:57:40Z</time>
      </trkpt>
      <trkpt lat="59.074602127075195" lon="30.0081467628479">
        <time>2026-04-25T12:57:43Z</time>
      </trkpt>
      <trkpt lat="59.074602127075195" lon="30.00816822052002">
        <time>2026-04-25T12:57:45Z</time>
      </trkpt>
      <trkpt lat="59.074623584747314" lon="30.008189678192139">
        <time>2026-04-25T12:57:48Z</time>
      </trkpt>
      <trkpt lat="59.074623584747314" lon="30.008211135864258">
        <time>2026-04-25T12:57:50Z</time>
      </trkpt>
      <trkpt lat="59.074645042419434" lon="30.008211135864258">
        <time>2026-04-25T12:57:53Z</time>
      </trkpt>
      <trkpt lat="59.074645042419434" lon="30.008254051208496">
        <time>2026-04-25T12:57:55Z</time>
      </trkpt>
      <trkpt lat="59.074666500091553" lon="30.008296966552734">
        <time>2026-04-25T12:57:58Z</time>
      </trkpt>
      <trkpt lat="59.074666500091553" lon="30.008339881896973">
        <time>2026-04-25T12:58:00Z</time>
      </trkpt>
      <trkpt lat="59.074666500091553" lon="30.008361339569092">
        <time>2026-04-25T12:58:03Z</time>
      </trkpt>
      <trkpt lat="59.074687957763672" lon="30.008382797241211">
        <time>2026-04-25T12:58:05Z</time>
      </trkpt>
      <trkpt lat="59.074687957763672" lon="30.008425712585449">
        <time>2026-04-25T12:58:08Z</time>
      </trkpt>
      <trkpt lat="59.074709415435791" lon="30.008468627929687">
        <time>2026-04-25T12:58:10Z</time>
      </trkpt>
      <trkpt lat="59.074709415435791" lon="30.008511543273926">
        <time>2026-04-25T12:58:13Z</time>
      </trkpt>
      <trkpt lat="59.074709415435791" lon="30.008533000946045">
        <time>2026-04-25T12:58:15Z</time>
      </trkpt>
      <trkpt lat="59.074709415435791" lon="30.008554458618164">
        <time>2026-04-25T12:58:18Z</time>
      </trkpt>
      <trkpt lat="59.074709415435791" lon="30.008597373962402">
        <time>2026-04-25T12:58:20Z</time>
      </trkpt>
      <trkpt lat="59.074709415435791" lon="30.008640289306641">
        <time>2026-04-25T12:58:23Z</time>
      </trkpt>
      <trkpt lat="59.074709415435791" lon="30.00866174697876">
        <time>2026-04-25T12:58:25Z</time>
      </trkpt>
      <trkpt lat="59.07473087310791" lon="30.008683204650879">
        <time>2026-04-25T12:58:28Z</time>
      </trkpt>
      <trkpt lat="59.07473087310791" lon="30.008704662322998">
        <time>2026-04-25T12:58:30Z</time>
      </trkpt>
      <trkpt lat="59.07473087310791" lon="30.008747577667236">
        <time>2026-04-25T12:58:33Z</time>
      </trkpt>
      <trkpt lat="59.074752330780029" lon="30.008769035339355">
        <time>2026-04-25T12:58:35Z</time>
      </trkpt>
      <trkpt lat="59.074752330780029" lon="30.008769035339355">
        <time>2026-04-25T12:58:38Z</time>
      </trkpt>
      <trkpt lat="59.074773788452148" lon="30.008769035339355">
        <time>2026-04-25T12:58:40Z</time>
      </trkpt>
      <trkpt lat="59.074795246124268" lon="30.008790493011475">
        <time>2026-04-25T12:58:43Z</time>
      </trkpt>
      <trkpt lat="59.074816703796387" lon="30.008833408355713">
        <time>2026-04-25T12:58:45Z</time>
      </trkpt>
      <trkpt lat="59.074838161468506" lon="30.008876323699951">
        <time>2026-04-25T12:58:48Z</time>
      </trkpt>
      <trkpt lat="59.074838161468506" lon="30.008876323699951">
        <time>2026-04-25T12:58:50Z</time>
      </trkpt>
      <trkpt lat="59.074838161468506" lon="30.008876323699951">
        <time>2026-04-25T12:58:53Z</time>
      </trkpt>
      <trkpt lat="59.074859619140625" lon="30.00889778137207">
        <time>2026-04-25T12:58:55Z</time>
      </trkpt>
      <trkpt lat="59.074859619140625" lon="30.008940696716309">
        <time>2026-04-25T12:58:58Z</time>
      </trkpt>
      <trkpt lat="59.074881076812744" lon="30.008983612060547">
        <time>2026-04-25T12:59:00Z</time>
      </trkpt>
      <trkpt lat="59.074881076812744" lon="30.009005069732666">
        <time>2026-04-25T12:59:03Z</time>
      </trkpt>
      <trkpt lat="59.074881076812744" lon="30.009005069732666">
        <time>2026-04-25T12:59:05Z</time>
      </trkpt>
      <trkpt lat="59.074881076812744" lon="30.009005069732666">
        <time>2026-04-25T12:59:08Z</time>
      </trkpt>
      <trkpt lat="59.074881076812744" lon="30.009005069732666">
        <time>2026-04-25T12:59:10Z</time>
      </trkpt>
      <trkpt lat="59.074881076812744" lon="30.009005069732666">
        <time>2026-04-25T12:59:13Z</time>
      </trkpt>
      <trkpt lat="59.074881076812744" lon="30.009005069732666">
        <time>2026-04-25T12:59:15Z</time>
      </trkpt>
      <trkpt lat="59.074881076812744" lon="30.009005069732666">
        <time>2026-04-25T12:59:18Z</time>
      </trkpt>
      <trkpt lat="59.074881076812744" lon="30.009005069732666">
        <time>2026-04-25T12:59:20Z</time>
      </trkpt>
      <trkpt lat="59.074881076812744" lon="30.009005069732666">
        <time>2026-04-25T12:59:23Z</time>
      </trkpt>
      <trkpt lat="59.074881076812744" lon="30.009005069732666">
        <time>2026-04-25T12:59:25Z</time>
      </trkpt>
      <trkpt lat="59.074881076812744" lon="30.009005069732666">
        <time>2026-04-25T12:59:28Z</time>
      </trkpt>
      <trkpt lat="59.074881076812744" lon="30.009005069732666">
        <time>2026-04-25T12:59:30Z</time>
      </trkpt>
      <trkpt lat="59.074881076812744" lon="30.009005069732666">
        <time>2026-04-25T12:59:33Z</time>
      </trkpt>
      <trkpt lat="59.074881076812744" lon="30.009005069732666">
        <time>2026-04-25T12:59:35Z</time>
      </trkpt>
      <trkpt lat="59.074881076812744" lon="30.009005069732666">
        <time>2026-04-25T12:59:38Z</time>
      </trkpt>
      <trkpt lat="59.074881076812744" lon="30.009005069732666">
        <time>2026-04-25T12:59:40Z</time>
      </trkpt>
      <trkpt lat="59.074881076812744" lon="30.009005069732666">
        <time>2026-04-25T12:59:43Z</time>
      </trkpt>
      <trkpt lat="59.074881076812744" lon="30.009005069732666">
        <time>2026-04-25T12:59:45Z</time>
      </trkpt>
      <trkpt lat="59.074881076812744" lon="30.009005069732666">
        <time>2026-04-25T12:59:48Z</time>
      </trkpt>
      <trkpt lat="59.074881076812744" lon="30.009005069732666">
        <time>2026-04-25T12:59:50Z</time>
      </trkpt>
      <trkpt lat="59.074881076812744" lon="30.009005069732666">
        <time>2026-04-25T12:59:53Z</time>
      </trkpt>
      <trkpt lat="59.074902534484863" lon="30.009047985076904">
        <time>2026-04-25T12:59:55Z</time>
      </trkpt>
      <trkpt lat="59.074923992156982" lon="30.009090900421143">
        <time>2026-04-25T12:59:58Z</time>
      </trkpt>
      <trkpt lat="59.074945449829102" lon="30.0091552734375">
        <time>2026-04-25T13:00:00Z</time>
      </trkpt>
      <trkpt lat="59.07498836517334" lon="30.009198188781738">
        <time>2026-04-25T13:00:03Z</time>
      </trkpt>
      <trkpt lat="59.07498836517334" lon="30.009219646453857">
        <time>2026-04-25T13:00:05Z</time>
      </trkpt>
      <trkpt lat="59.075009822845459" lon="30.009241104125977">
        <time>2026-04-25T13:00:08Z</time>
      </trkpt>
      <trkpt lat="59.075031280517578" lon="30.009284019470215">
        <time>2026-04-25T13:00:10Z</time>
      </trkpt>
      <trkpt lat="59.075031280517578" lon="30.009305477142334">
        <time>2026-04-25T13:00:13Z</time>
      </trkpt>
      <trkpt lat="59.075052738189697" lon="30.009348392486572">
        <time>2026-04-25T13:00:15Z</time>
      </trkpt>
      <trkpt lat="59.075052738189697" lon="30.00941276550293">
        <time>2026-04-25T13:00:18Z</time>
      </trkpt>
      <trkpt lat="59.075074195861816" lon="30.009434223175049">
        <time>2026-04-25T13:00:20Z</time>
      </trkpt>
      <trkpt lat="59.075074195861816" lon="30.009455680847168">
        <time>2026-04-25T13:00:23Z</time>
      </trkpt>
      <trkpt lat="59.075095653533936" lon="30.009477138519287">
        <time>2026-04-25T13:00:25Z</time>
      </trkpt>
      <trkpt lat="59.075095653533936" lon="30.009477138519287">
        <time>2026-04-25T13:00:28Z</time>
      </trkpt>
      <trkpt lat="59.075095653533936" lon="30.009477138519287">
        <time>2026-04-25T13:00:30Z</time>
      </trkpt>
      <trkpt lat="59.075095653533936" lon="30.009477138519287">
        <time>2026-04-25T13:00:33Z</time>
      </trkpt>
      <trkpt lat="59.075095653533936" lon="30.009477138519287">
        <time>2026-04-25T13:00:35Z</time>
      </trkpt>
      <trkpt lat="59.075095653533936" lon="30.009455680847168">
        <time>2026-04-25T13:00:38Z</time>
      </trkpt>
      <trkpt lat="59.075074195861816" lon="30.009455680847168">
        <time>2026-04-25T13:00:40Z</time>
      </trkpt>
      <trkpt lat="59.075074195861816" lon="30.009455680847168">
        <time>2026-04-25T13:00:43Z</time>
      </trkpt>
      <trkpt lat="59.075074195861816" lon="30.009455680847168">
        <time>2026-04-25T13:00:45Z</time>
      </trkpt>
      <trkpt lat="59.075074195861816" lon="30.009455680847168">
        <time>2026-04-25T13:00:48Z</time>
      </trkpt>
      <trkpt lat="59.075074195861816" lon="30.009455680847168">
        <time>2026-04-25T13:00:50Z</time>
      </trkpt>
      <trkpt lat="59.075074195861816" lon="30.009455680847168">
        <time>2026-04-25T13:00:53Z</time>
      </trkpt>
      <trkpt lat="59.075074195861816" lon="30.009455680847168">
        <time>2026-04-25T13:00:55Z</time>
      </trkpt>
      <trkpt lat="59.075074195861816" lon="30.009455680847168">
        <time>2026-04-25T13:00:58Z</time>
      </trkpt>
      <trkpt lat="59.075074195861816" lon="30.009455680847168">
        <time>2026-04-25T13:01:00Z</time>
      </trkpt>
      <trkpt lat="59.075095653533936" lon="30.009520053863525">
        <time>2026-04-25T13:01:03Z</time>
      </trkpt>
      <trkpt lat="59.075095653533936" lon="30.009584426879883">
        <time>2026-04-25T13:01:05Z</time>
      </trkpt>
      <trkpt lat="59.075095653533936" lon="30.009627342224121">
        <time>2026-04-25T13:01:08Z</time>
      </trkpt>
      <trkpt lat="59.075074195861816" lon="30.00964879989624">
        <time>2026-04-25T13:01:10Z</time>
      </trkpt>
      <trkpt lat="59.075074195861816" lon="30.00964879989624">
        <time>2026-04-25T13:01:13Z</time>
      </trkpt>
      <trkpt lat="59.075074195861816" lon="30.00964879989624">
        <time>2026-04-25T13:01:15Z</time>
      </trkpt>
      <trkpt lat="59.075052738189697" lon="30.009627342224121">
        <time>2026-04-25T13:01:18Z</time>
      </trkpt>
      <trkpt lat="59.075052738189697" lon="30.009627342224121">
        <time>2026-04-25T13:01:20Z</time>
      </trkpt>
      <trkpt lat="59.075052738189697" lon="30.009627342224121">
        <time>2026-04-25T13:01:23Z</time>
      </trkpt>
      <trkpt lat="59.075052738189697" lon="30.009627342224121">
        <time>2026-04-25T13:01:25Z</time>
      </trkpt>
      <trkpt lat="59.075031280517578" lon="30.009670257568359">
        <time>2026-04-25T13:01:28Z</time>
      </trkpt>
      <trkpt lat="59.075009822845459" lon="30.009691715240479">
        <time>2026-04-25T13:01:30Z</time>
      </trkpt>
      <trkpt lat="59.07498836517334" lon="30.009713172912598">
        <time>2026-04-25T13:01:33Z</time>
      </trkpt>
      <trkpt lat="59.074966907501221" lon="30.009756088256836">
        <time>2026-04-25T13:01:35Z</time>
      </trkpt>
      <trkpt lat="59.074966907501221" lon="30.009756088256836">
        <time>2026-04-25T13:01:38Z</time>
      </trkpt>
      <trkpt lat="59.074945449829102" lon="30.009756088256836">
        <time>2026-04-25T13:01:40Z</time>
      </trkpt>
      <trkpt lat="59.074923992156982" lon="30.009756088256836">
        <time>2026-04-25T13:01:43Z</time>
      </trkpt>
      <trkpt lat="59.074902534484863" lon="30.009777545928955">
        <time>2026-04-25T13:01:45Z</time>
      </trkpt>
      <trkpt lat="59.074881076812744" lon="30.009777545928955">
        <time>2026-04-25T13:01:48Z</time>
      </trkpt>
      <trkpt lat="59.074881076812744" lon="30.009777545928955">
        <time>2026-04-25T13:01:50Z</time>
      </trkpt>
      <trkpt lat="59.074881076812744" lon="30.009777545928955">
        <time>2026-04-25T13:01:53Z</time>
      </trkpt>
      <trkpt lat="59.074881076812744" lon="30.009777545928955">
        <time>2026-04-25T13:01:55Z</time>
      </trkpt>
      <trkpt lat="59.074881076812744" lon="30.009777545928955">
        <time>2026-04-25T13:01:58Z</time>
      </trkpt>
      <trkpt lat="59.074859619140625" lon="30.009777545928955">
        <time>2026-04-25T13:02:00Z</time>
      </trkpt>
      <trkpt lat="59.074838161468506" lon="30.009799003601074">
        <time>2026-04-25T13:02:03Z</time>
      </trkpt>
      <trkpt lat="59.074816703796387" lon="30.009777545928955">
        <time>2026-04-25T13:02:05Z</time>
      </trkpt>
      <trkpt lat="59.074795246124268" lon="30.009777545928955">
        <time>2026-04-25T13:02:08Z</time>
      </trkpt>
      <trkpt lat="59.074816703796387" lon="30.009799003601074">
        <time>2026-04-25T13:02:10Z</time>
      </trkpt>
      <trkpt lat="59.074795246124268" lon="30.009820461273193">
        <time>2026-04-25T13:02:13Z</time>
      </trkpt>
      <trkpt lat="59.074773788452148" lon="30.009841918945313">
        <time>2026-04-25T13:02:15Z</time>
      </trkpt>
      <trkpt lat="59.074773788452148" lon="30.009841918945313">
        <time>2026-04-25T13:02:18Z</time>
      </trkpt>
      <trkpt lat="59.074773788452148" lon="30.009863376617432">
        <time>2026-04-25T13:02:20Z</time>
      </trkpt>
      <trkpt lat="59.074773788452148" lon="30.009884834289551">
        <time>2026-04-25T13:02:23Z</time>
      </trkpt>
      <trkpt lat="59.074752330780029" lon="30.009884834289551">
        <time>2026-04-25T13:02:25Z</time>
      </trkpt>
      <trkpt lat="59.07473087310791" lon="30.009884834289551">
        <time>2026-04-25T13:02:28Z</time>
      </trkpt>
      <trkpt lat="59.07473087310791" lon="30.009884834289551">
        <time>2026-04-25T13:02:30Z</time>
      </trkpt>
      <trkpt lat="59.07473087310791" lon="30.009884834289551">
        <time>2026-04-25T13:02:33Z</time>
      </trkpt>
      <trkpt lat="59.07473087310791" lon="30.009884834289551">
        <time>2026-04-25T13:02:35Z</time>
      </trkpt>
      <trkpt lat="59.07473087310791" lon="30.009884834289551">
        <time>2026-04-25T13:02:38Z</time>
      </trkpt>
      <trkpt lat="59.07473087310791" lon="30.009884834289551">
        <time>2026-04-25T13:02:40Z</time>
      </trkpt>
      <trkpt lat="59.07473087310791" lon="30.009884834289551">
        <time>2026-04-25T13:02:43Z</time>
      </trkpt>
      <trkpt lat="59.07473087310791" lon="30.009884834289551">
        <time>2026-04-25T13:02:45Z</time>
      </trkpt>
      <trkpt lat="59.07473087310791" lon="30.009884834289551">
        <time>2026-04-25T13:02:48Z</time>
      </trkpt>
      <trkpt lat="59.07473087310791" lon="30.009884834289551">
        <time>2026-04-25T13:02:50Z</time>
      </trkpt>
      <trkpt lat="59.07473087310791" lon="30.009884834289551">
        <time>2026-04-25T13:02:53Z</time>
      </trkpt>
      <trkpt lat="59.07473087310791" lon="30.009884834289551">
        <time>2026-04-25T13:02:55Z</time>
      </trkpt>
      <trkpt lat="59.07473087310791" lon="30.009863376617432">
        <time>2026-04-25T13:02:58Z</time>
      </trkpt>
      <trkpt lat="59.07473087310791" lon="30.009841918945313">
        <time>2026-04-25T13:03:00Z</time>
      </trkpt>
      <trkpt lat="59.07473087310791" lon="30.009841918945313">
        <time>2026-04-25T13:03:03Z</time>
      </trkpt>
      <trkpt lat="59.07473087310791" lon="30.009841918945313">
        <time>2026-04-25T13:03:05Z</time>
      </trkpt>
      <trkpt lat="59.07473087310791" lon="30.009841918945313">
        <time>2026-04-25T13:03:08Z</time>
      </trkpt>
      <trkpt lat="59.07473087310791" lon="30.009841918945313">
        <time>2026-04-25T13:03:10Z</time>
      </trkpt>
      <trkpt lat="59.07473087310791" lon="30.009841918945313">
        <time>2026-04-25T13:03:13Z</time>
      </trkpt>
      <trkpt lat="59.07473087310791" lon="30.009841918945313">
        <time>2026-04-25T13:03:15Z</time>
      </trkpt>
      <trkpt lat="59.07473087310791" lon="30.009841918945313">
        <time>2026-04-25T13:03:18Z</time>
      </trkpt>
      <trkpt lat="59.07473087310791" lon="30.009841918945313">
        <time>2026-04-25T13:03:20Z</time>
      </trkpt>
      <trkpt lat="59.07473087310791" lon="30.009841918945313">
        <time>2026-04-25T13:03:23Z</time>
      </trkpt>
      <trkpt lat="59.07473087310791" lon="30.009841918945313">
        <time>2026-04-25T13:03:25Z</time>
      </trkpt>
      <trkpt lat="59.07473087310791" lon="30.009841918945313">
        <time>2026-04-25T13:03:28Z</time>
      </trkpt>
      <trkpt lat="59.07473087310791" lon="30.009863376617432">
        <time>2026-04-25T13:03:30Z</time>
      </trkpt>
      <trkpt lat="59.07473087310791" lon="30.009863376617432">
        <time>2026-04-25T13:03:33Z</time>
      </trkpt>
      <trkpt lat="59.07473087310791" lon="30.009863376617432">
        <time>2026-04-25T13:03:35Z</time>
      </trkpt>
      <trkpt lat="59.07473087310791" lon="30.009863376617432">
        <time>2026-04-25T13:03:38Z</time>
      </trkpt>
      <trkpt lat="59.07473087310791" lon="30.009863376617432">
        <time>2026-04-25T13:03:40Z</time>
      </trkpt>
      <trkpt lat="59.07473087310791" lon="30.009863376617432">
        <time>2026-04-25T13:03:43Z</time>
      </trkpt>
      <trkpt lat="59.07473087310791" lon="30.009863376617432">
        <time>2026-04-25T13:03:45Z</time>
      </trkpt>
      <trkpt lat="59.07473087310791" lon="30.009863376617432">
        <time>2026-04-25T13:03:48Z</time>
      </trkpt>
      <trkpt lat="59.07473087310791" lon="30.009863376617432">
        <time>2026-04-25T13:03:50Z</time>
      </trkpt>
      <trkpt lat="59.07473087310791" lon="30.009863376617432">
        <time>2026-04-25T13:03:53Z</time>
      </trkpt>
      <trkpt lat="59.07473087310791" lon="30.009863376617432">
        <time>2026-04-25T13:03:55Z</time>
      </trkpt>
      <trkpt lat="59.07473087310791" lon="30.009863376617432">
        <time>2026-04-25T13:03:58Z</time>
      </trkpt>
      <trkpt lat="59.074709415435791" lon="30.009799003601074">
        <time>2026-04-25T13:04:00Z</time>
      </trkpt>
      <trkpt lat="59.074687957763672" lon="30.009777545928955">
        <time>2026-04-25T13:04:03Z</time>
      </trkpt>
      <trkpt lat="59.074666500091553" lon="30.009734630584717">
        <time>2026-04-25T13:04:05Z</time>
      </trkpt>
      <trkpt lat="59.074645042419434" lon="30.009691715240479">
        <time>2026-04-25T13:04:08Z</time>
      </trkpt>
      <trkpt lat="59.074623584747314" lon="30.009670257568359">
        <time>2026-04-25T13:04:10Z</time>
      </trkpt>
      <trkpt lat="59.074623584747314" lon="30.009627342224121">
        <time>2026-04-25T13:04:13Z</time>
      </trkpt>
      <trkpt lat="59.074623584747314" lon="30.009605884552002">
        <time>2026-04-25T13:04:15Z</time>
      </trkpt>
      <trkpt lat="59.074602127075195" lon="30.009584426879883">
        <time>2026-04-25T13:04:18Z</time>
      </trkpt>
      <trkpt lat="59.074602127075195" lon="30.009562969207764">
        <time>2026-04-25T13:04:20Z</time>
      </trkpt>
      <trkpt lat="59.074602127075195" lon="30.009562969207764">
        <time>2026-04-25T13:04:23Z</time>
      </trkpt>
      <trkpt lat="59.074602127075195" lon="30.009584426879883">
        <time>2026-04-25T13:04:25Z</time>
      </trkpt>
      <trkpt lat="59.074602127075195" lon="30.009584426879883">
        <time>2026-04-25T13:04:28Z</time>
      </trkpt>
      <trkpt lat="59.074602127075195" lon="30.009562969207764">
        <time>2026-04-25T13:04:30Z</time>
      </trkpt>
      <trkpt lat="59.074580669403076" lon="30.009498596191406">
        <time>2026-04-25T13:04:33Z</time>
      </trkpt>
      <trkpt lat="59.074559211730957" lon="30.009455680847168">
        <time>2026-04-25T13:04:35Z</time>
      </trkpt>
      <trkpt lat="59.074537754058838" lon="30.009391307830811">
        <time>2026-04-25T13:04:38Z</time>
      </trkpt>
      <trkpt lat="59.074516296386719" lon="30.009348392486572">
        <time>2026-04-25T13:04:40Z</time>
      </trkpt>
      <trkpt lat="59.074516296386719" lon="30.009305477142334">
        <time>2026-04-25T13:04:43Z</time>
      </trkpt>
      <trkpt lat="59.074516296386719" lon="30.009262561798096">
        <time>2026-04-25T13:04:45Z</time>
      </trkpt>
      <trkpt lat="59.0744948387146" lon="30.009241104125977">
        <time>2026-04-25T13:04:48Z</time>
      </trkpt>
      <trkpt lat="59.0744948387146" lon="30.009241104125977">
        <time>2026-04-25T13:04:50Z</time>
      </trkpt>
      <trkpt lat="59.07447338104248" lon="30.009219646453857">
        <time>2026-04-25T13:04:53Z</time>
      </trkpt>
      <trkpt lat="59.074451923370361" lon="30.009198188781738">
        <time>2026-04-25T13:04:55Z</time>
      </trkpt>
      <trkpt lat="59.074430465698242" lon="30.0091552734375">
        <time>2026-04-25T13:04:58Z</time>
      </trkpt>
      <trkpt lat="59.074430465698242" lon="30.009133815765381">
        <time>2026-04-25T13:05:00Z</time>
      </trkpt>
      <trkpt lat="59.074409008026123" lon="30.009112358093262">
        <time>2026-04-25T13:05:03Z</time>
      </trkpt>
      <trkpt lat="59.074409008026123" lon="30.009090900421143">
        <time>2026-04-25T13:05:05Z</time>
      </trkpt>
      <trkpt lat="59.074409008026123" lon="30.009069442749023">
        <time>2026-04-25T13:05:08Z</time>
      </trkpt>
      <trkpt lat="59.074409008026123" lon="30.009005069732666">
        <time>2026-04-25T13:05:10Z</time>
      </trkpt>
      <trkpt lat="59.074387550354004" lon="30.008962154388428">
        <time>2026-04-25T13:05:13Z</time>
      </trkpt>
      <trkpt lat="59.074366092681885" lon="30.008919239044189">
        <time>2026-04-25T13:05:15Z</time>
      </trkpt>
      <trkpt lat="59.074344635009766" lon="30.00889778137207">
        <time>2026-04-25T13:05:18Z</time>
      </trkpt>
      <trkpt lat="59.074323177337646" lon="30.008854866027832">
        <time>2026-04-25T13:05:20Z</time>
      </trkpt>
      <trkpt lat="59.074323177337646" lon="30.008811950683594">
        <time>2026-04-25T13:05:23Z</time>
      </trkpt>
      <trkpt lat="59.074323177337646" lon="30.008769035339355">
        <time>2026-04-25T13:05:25Z</time>
      </trkpt>
      <trkpt lat="59.074301719665527" lon="30.008747577667236">
        <time>2026-04-25T13:05:28Z</time>
      </trkpt>
      <trkpt lat="59.074301719665527" lon="30.008726119995117">
        <time>2026-04-25T13:05:30Z</time>
      </trkpt>
      <trkpt lat="59.074301719665527" lon="30.008726119995117">
        <time>2026-04-25T13:05:33Z</time>
      </trkpt>
      <trkpt lat="59.074301719665527" lon="30.008726119995117">
        <time>2026-04-25T13:05:35Z</time>
      </trkpt>
      <trkpt lat="59.074301719665527" lon="30.008704662322998">
        <time>2026-04-25T13:05:38Z</time>
      </trkpt>
      <trkpt lat="59.074301719665527" lon="30.008640289306641">
        <time>2026-04-25T13:05:40Z</time>
      </trkpt>
      <trkpt lat="59.074280261993408" lon="30.008597373962402">
        <time>2026-04-25T13:05:43Z</time>
      </trkpt>
      <trkpt lat="59.074280261993408" lon="30.008533000946045">
        <time>2026-04-25T13:05:45Z</time>
      </trkpt>
      <trkpt lat="59.074280261993408" lon="30.008490085601807">
        <time>2026-04-25T13:05:48Z</time>
      </trkpt>
      <trkpt lat="59.074258804321289" lon="30.008447170257568">
        <time>2026-04-25T13:05:50Z</time>
      </trkpt>
      <trkpt lat="59.074258804321289" lon="30.00840425491333">
        <time>2026-04-25T13:05:53Z</time>
      </trkpt>
      <trkpt lat="59.07423734664917" lon="30.008382797241211">
        <time>2026-04-25T13:05:55Z</time>
      </trkpt>
      <trkpt lat="59.074215888977051" lon="30.008361339569092">
        <time>2026-04-25T13:05:58Z</time>
      </trkpt>
      <trkpt lat="59.074194431304932" lon="30.008361339569092">
        <time>2026-04-25T13:06:00Z</time>
      </trkpt>
      <trkpt lat="59.074194431304932" lon="30.008339881896973">
        <time>2026-04-25T13:06:03Z</time>
      </trkpt>
      <trkpt lat="59.074194431304932" lon="30.008339881896973">
        <time>2026-04-25T13:06:05Z</time>
      </trkpt>
      <trkpt lat="59.074172973632813" lon="30.008318424224854">
        <time>2026-04-25T13:06:08Z</time>
      </trkpt>
      <trkpt lat="59.074151515960693" lon="30.008275508880615">
        <time>2026-04-25T13:06:10Z</time>
      </trkpt>
      <trkpt lat="59.074151515960693" lon="30.008254051208496">
        <time>2026-04-25T13:06:13Z</time>
      </trkpt>
      <trkpt lat="59.074130058288574" lon="30.008211135864258">
        <time>2026-04-25T13:06:15Z</time>
      </trkpt>
      <trkpt lat="59.074108600616455" lon="30.00816822052002">
        <time>2026-04-25T13:06:18Z</time>
      </trkpt>
      <trkpt lat="59.074087142944336" lon="30.008125305175781">
        <time>2026-04-25T13:06:20Z</time>
      </trkpt>
      <trkpt lat="59.074065685272217" lon="30.008103847503662">
        <time>2026-04-25T13:06:23Z</time>
      </trkpt>
      <trkpt lat="59.074044227600098" lon="30.008060932159424">
        <time>2026-04-25T13:06:25Z</time>
      </trkpt>
      <trkpt lat="59.074044227600098" lon="30.008039474487305">
        <time>2026-04-25T13:06:28Z</time>
      </trkpt>
      <trkpt lat="59.074044227600098" lon="30.008018016815186">
        <time>2026-04-25T13:06:30Z</time>
      </trkpt>
      <trkpt lat="59.074044227600098" lon="30.007975101470947">
        <time>2026-04-25T13:06:33Z</time>
      </trkpt>
      <trkpt lat="59.074065685272217" lon="30.00791072845459">
        <time>2026-04-25T13:06:35Z</time>
      </trkpt>
      <trkpt lat="59.074065685272217" lon="30.007867813110352">
        <time>2026-04-25T13:06:38Z</time>
      </trkpt>
      <trkpt lat="59.074065685272217" lon="30.007824897766113">
        <time>2026-04-25T13:06:40Z</time>
      </trkpt>
      <trkpt lat="59.074065685272217" lon="30.007760524749756">
        <time>2026-04-25T13:06:43Z</time>
      </trkpt>
      <trkpt lat="59.074044227600098" lon="30.007717609405518">
        <time>2026-04-25T13:06:45Z</time>
      </trkpt>
      <trkpt lat="59.074022769927979" lon="30.007696151733398">
        <time>2026-04-25T13:06:48Z</time>
      </trkpt>
      <trkpt lat="59.074001312255859" lon="30.007674694061279">
        <time>2026-04-25T13:06:50Z</time>
      </trkpt>
      <trkpt lat="59.07397985458374" lon="30.007631778717041">
        <time>2026-04-25T13:06:53Z</time>
      </trkpt>
      <trkpt lat="59.07397985458374" lon="30.007631778717041">
        <time>2026-04-25T13:06:55Z</time>
      </trkpt>
      <trkpt lat="59.073958396911621" lon="30.007631778717041">
        <time>2026-04-25T13:06:58Z</time>
      </trkpt>
      <trkpt lat="59.073958396911621" lon="30.007631778717041">
        <time>2026-04-25T13:07:00Z</time>
      </trkpt>
      <trkpt lat="59.073958396911621" lon="30.007631778717041">
        <time>2026-04-25T13:07:03Z</time>
      </trkpt>
      <trkpt lat="59.073958396911621" lon="30.007610321044922">
        <time>2026-04-25T13:07:05Z</time>
      </trkpt>
      <trkpt lat="59.073936939239502" lon="30.007567405700684">
        <time>2026-04-25T13:07:08Z</time>
      </trkpt>
      <trkpt lat="59.073936939239502" lon="30.007545948028564">
        <time>2026-04-25T13:07:10Z</time>
      </trkpt>
      <trkpt lat="59.073936939239502" lon="30.007524490356445">
        <time>2026-04-25T13:07:13Z</time>
      </trkpt>
      <trkpt lat="59.073936939239502" lon="30.007481575012207">
        <time>2026-04-25T13:07:15Z</time>
      </trkpt>
      <trkpt lat="59.073915481567383" lon="30.007503032684326">
        <time>2026-04-25T13:07:18Z</time>
      </trkpt>
      <trkpt lat="59.073894023895264" lon="30.007481575012207">
        <time>2026-04-25T13:07:20Z</time>
      </trkpt>
      <trkpt lat="59.073894023895264" lon="30.007460117340088">
        <time>2026-04-25T13:07:23Z</time>
      </trkpt>
      <trkpt lat="59.073872566223145" lon="30.007438659667969">
        <time>2026-04-25T13:07:25Z</time>
      </trkpt>
      <trkpt lat="59.073851108551025" lon="30.007438659667969">
        <time>2026-04-25T13:07:28Z</time>
      </trkpt>
      <trkpt lat="59.073872566223145" lon="30.007460117340088">
        <time>2026-04-25T13:07:30Z</time>
      </trkpt>
      <trkpt lat="59.073872566223145" lon="30.007438659667969">
        <time>2026-04-25T13:07:33Z</time>
      </trkpt>
      <trkpt lat="59.073872566223145" lon="30.007438659667969">
        <time>2026-04-25T13:07:35Z</time>
      </trkpt>
      <trkpt lat="59.073872566223145" lon="30.007438659667969">
        <time>2026-04-25T13:07:38Z</time>
      </trkpt>
      <trkpt lat="59.073872566223145" lon="30.007438659667969">
        <time>2026-04-25T13:07:40Z</time>
      </trkpt>
      <trkpt lat="59.073872566223145" lon="30.007438659667969">
        <time>2026-04-25T13:07:43Z</time>
      </trkpt>
      <trkpt lat="59.073872566223145" lon="30.007438659667969">
        <time>2026-04-25T13:07:45Z</time>
      </trkpt>
      <trkpt lat="59.073872566223145" lon="30.007438659667969">
        <time>2026-04-25T13:07:48Z</time>
      </trkpt>
      <trkpt lat="59.073894023895264" lon="30.007545948028564">
        <time>2026-04-25T13:07:50Z</time>
      </trkpt>
      <trkpt lat="59.073894023895264" lon="30.007610321044922">
        <time>2026-04-25T13:07:53Z</time>
      </trkpt>
      <trkpt lat="59.073894023895264" lon="30.00765323638916">
        <time>2026-04-25T13:07:55Z</time>
      </trkpt>
      <trkpt lat="59.073872566223145" lon="30.007696151733398">
        <time>2026-04-25T13:07:58Z</time>
      </trkpt>
      <trkpt lat="59.073851108551025" lon="30.007717609405518">
        <time>2026-04-25T13:08:00Z</time>
      </trkpt>
      <trkpt lat="59.073829650878906" lon="30.007739067077637">
        <time>2026-04-25T13:08:03Z</time>
      </trkpt>
      <trkpt lat="59.073808193206787" lon="30.007739067077637">
        <time>2026-04-25T13:08:05Z</time>
      </trkpt>
      <trkpt lat="59.073808193206787" lon="30.007781982421875">
        <time>2026-04-25T13:08:08Z</time>
      </trkpt>
      <trkpt lat="59.073786735534668" lon="30.007781982421875">
        <time>2026-04-25T13:08:10Z</time>
      </trkpt>
      <trkpt lat="59.073765277862549" lon="30.007781982421875">
        <time>2026-04-25T13:08:13Z</time>
      </trkpt>
      <trkpt lat="59.07374382019043" lon="30.007803440093994">
        <time>2026-04-25T13:08:15Z</time>
      </trkpt>
      <trkpt lat="59.073722362518311" lon="30.007803440093994">
        <time>2026-04-25T13:08:18Z</time>
      </trkpt>
      <trkpt lat="59.073700904846191" lon="30.007803440093994">
        <time>2026-04-25T13:08:20Z</time>
      </trkpt>
      <trkpt lat="59.073679447174072" lon="30.007803440093994">
        <time>2026-04-25T13:08:23Z</time>
      </trkpt>
      <trkpt lat="59.073657989501953" lon="30.007824897766113">
        <time>2026-04-25T13:08:25Z</time>
      </trkpt>
      <trkpt lat="59.073657989501953" lon="30.007846355438232">
        <time>2026-04-25T13:08:28Z</time>
      </trkpt>
      <trkpt lat="59.073636531829834" lon="30.007867813110352">
        <time>2026-04-25T13:08:30Z</time>
      </trkpt>
      <trkpt lat="59.073615074157715" lon="30.007889270782471">
        <time>2026-04-25T13:08:33Z</time>
      </trkpt>
      <trkpt lat="59.073615074157715" lon="30.007846355438232">
        <time>2026-04-25T13:08:35Z</time>
      </trkpt>
      <trkpt lat="59.073615074157715" lon="30.007846355438232">
        <time>2026-04-25T13:08:38Z</time>
      </trkpt>
      <trkpt lat="59.073615074157715" lon="30.007846355438232">
        <time>2026-04-25T13:08:40Z</time>
      </trkpt>
      <trkpt lat="59.073615074157715" lon="30.007846355438232">
        <time>2026-04-25T13:08:43Z</time>
      </trkpt>
      <trkpt lat="59.073615074157715" lon="30.007846355438232">
        <time>2026-04-25T13:08:45Z</time>
      </trkpt>
      <trkpt lat="59.073615074157715" lon="30.007846355438232">
        <time>2026-04-25T13:08:48Z</time>
      </trkpt>
      <trkpt lat="59.073615074157715" lon="30.007846355438232">
        <time>2026-04-25T13:08:50Z</time>
      </trkpt>
      <trkpt lat="59.073615074157715" lon="30.007846355438232">
        <time>2026-04-25T13:08:53Z</time>
      </trkpt>
      <trkpt lat="59.073615074157715" lon="30.007867813110352">
        <time>2026-04-25T13:08:55Z</time>
      </trkpt>
      <trkpt lat="59.073615074157715" lon="30.007867813110352">
        <time>2026-04-25T13:08:58Z</time>
      </trkpt>
      <trkpt lat="59.073615074157715" lon="30.007867813110352">
        <time>2026-04-25T13:09:00Z</time>
      </trkpt>
      <trkpt lat="59.073615074157715" lon="30.007867813110352">
        <time>2026-04-25T13:09:03Z</time>
      </trkpt>
      <trkpt lat="59.073636531829834" lon="30.007889270782471">
        <time>2026-04-25T13:09:05Z</time>
      </trkpt>
      <trkpt lat="59.073636531829834" lon="30.007889270782471">
        <time>2026-04-25T13:09:08Z</time>
      </trkpt>
      <trkpt lat="59.073636531829834" lon="30.007889270782471">
        <time>2026-04-25T13:09:10Z</time>
      </trkpt>
      <trkpt lat="59.073636531829834" lon="30.007889270782471">
        <time>2026-04-25T13:09:13Z</time>
      </trkpt>
      <trkpt lat="59.073636531829834" lon="30.007889270782471">
        <time>2026-04-25T13:09:15Z</time>
      </trkpt>
      <trkpt lat="59.073636531829834" lon="30.007889270782471">
        <time>2026-04-25T13:09:18Z</time>
      </trkpt>
      <trkpt lat="59.073636531829834" lon="30.007889270782471">
        <time>2026-04-25T13:09:20Z</time>
      </trkpt>
      <trkpt lat="59.073636531829834" lon="30.007889270782471">
        <time>2026-04-25T13:09:23Z</time>
      </trkpt>
      <trkpt lat="59.073636531829834" lon="30.007889270782471">
        <time>2026-04-25T13:09:25Z</time>
      </trkpt>
      <trkpt lat="59.073636531829834" lon="30.007889270782471">
        <time>2026-04-25T13:09:28Z</time>
      </trkpt>
      <trkpt lat="59.073636531829834" lon="30.007889270782471">
        <time>2026-04-25T13:09:30Z</time>
      </trkpt>
      <trkpt lat="59.073636531829834" lon="30.007889270782471">
        <time>2026-04-25T13:09:33Z</time>
      </trkpt>
      <trkpt lat="59.073636531829834" lon="30.007889270782471">
        <time>2026-04-25T13:09:35Z</time>
      </trkpt>
      <trkpt lat="59.073636531829834" lon="30.007889270782471">
        <time>2026-04-25T13:09:38Z</time>
      </trkpt>
      <trkpt lat="59.073636531829834" lon="30.007889270782471">
        <time>2026-04-25T13:09:40Z</time>
      </trkpt>
      <trkpt lat="59.073636531829834" lon="30.007889270782471">
        <time>2026-04-25T13:09:43Z</time>
      </trkpt>
      <trkpt lat="59.073636531829834" lon="30.007889270782471">
        <time>2026-04-25T13:09:45Z</time>
      </trkpt>
      <trkpt lat="59.073636531829834" lon="30.007889270782471">
        <time>2026-04-25T13:09:48Z</time>
      </trkpt>
      <trkpt lat="59.073636531829834" lon="30.007889270782471">
        <time>2026-04-25T13:09:50Z</time>
      </trkpt>
      <trkpt lat="59.073636531829834" lon="30.007889270782471">
        <time>2026-04-25T13:09:53Z</time>
      </trkpt>
      <trkpt lat="59.073636531829834" lon="30.007889270782471">
        <time>2026-04-25T13:09:55Z</time>
      </trkpt>
      <trkpt lat="59.073636531829834" lon="30.007889270782471">
        <time>2026-04-25T13:09:58Z</time>
      </trkpt>
      <trkpt lat="59.073636531829834" lon="30.007889270782471">
        <time>2026-04-25T13:10:00Z</time>
      </trkpt>
      <trkpt lat="59.073636531829834" lon="30.007889270782471">
        <time>2026-04-25T13:10:03Z</time>
      </trkpt>
      <trkpt lat="59.073636531829834" lon="30.007889270782471">
        <time>2026-04-25T13:10:05Z</time>
      </trkpt>
      <trkpt lat="59.073636531829834" lon="30.007889270782471">
        <time>2026-04-25T13:10:08Z</time>
      </trkpt>
      <trkpt lat="59.073636531829834" lon="30.007889270782471">
        <time>2026-04-25T13:10:10Z</time>
      </trkpt>
      <trkpt lat="59.073636531829834" lon="30.007889270782471">
        <time>2026-04-25T13:10:13Z</time>
      </trkpt>
      <trkpt lat="59.073636531829834" lon="30.007889270782471">
        <time>2026-04-25T13:10:15Z</time>
      </trkpt>
      <trkpt lat="59.073636531829834" lon="30.007889270782471">
        <time>2026-04-25T13:10:18Z</time>
      </trkpt>
      <trkpt lat="59.073636531829834" lon="30.007889270782471">
        <time>2026-04-25T13:10:20Z</time>
      </trkpt>
      <trkpt lat="59.073636531829834" lon="30.00791072845459">
        <time>2026-04-25T13:10:23Z</time>
      </trkpt>
      <trkpt lat="59.073636531829834" lon="30.007996559143066">
        <time>2026-04-25T13:10:25Z</time>
      </trkpt>
      <trkpt lat="59.073636531829834" lon="30.008039474487305">
        <time>2026-04-25T13:10:28Z</time>
      </trkpt>
      <trkpt lat="59.073636531829834" lon="30.008125305175781">
        <time>2026-04-25T13:10:30Z</time>
      </trkpt>
      <trkpt lat="59.073615074157715" lon="30.00816822052002">
        <time>2026-04-25T13:10:33Z</time>
      </trkpt>
      <trkpt lat="59.073615074157715" lon="30.008211135864258">
        <time>2026-04-25T13:10:35Z</time>
      </trkpt>
      <trkpt lat="59.073636531829834" lon="30.008211135864258">
        <time>2026-04-25T13:10:38Z</time>
      </trkpt>
      <trkpt lat="59.073636531829834" lon="30.008254051208496">
        <time>2026-04-25T13:10:40Z</time>
      </trkpt>
      <trkpt lat="59.073636531829834" lon="30.008318424224854">
        <time>2026-04-25T13:10:43Z</time>
      </trkpt>
      <trkpt lat="59.073636531829834" lon="30.008339881896973">
        <time>2026-04-25T13:10:45Z</time>
      </trkpt>
      <trkpt lat="59.073657989501953" lon="30.008382797241211">
        <time>2026-04-25T13:10:48Z</time>
      </trkpt>
      <trkpt lat="59.073657989501953" lon="30.00840425491333">
        <time>2026-04-25T13:10:50Z</time>
      </trkpt>
      <trkpt lat="59.073657989501953" lon="30.008447170257568">
        <time>2026-04-25T13:10:53Z</time>
      </trkpt>
      <trkpt lat="59.073679447174072" lon="30.008468627929687">
        <time>2026-04-25T13:10:55Z</time>
      </trkpt>
      <trkpt lat="59.073679447174072" lon="30.008511543273926">
        <time>2026-04-25T13:10:58Z</time>
      </trkpt>
      <trkpt lat="59.073700904846191" lon="30.008554458618164">
        <time>2026-04-25T13:11:00Z</time>
      </trkpt>
      <trkpt lat="59.073700904846191" lon="30.008597373962402">
        <time>2026-04-25T13:11:03Z</time>
      </trkpt>
      <trkpt lat="59.073700904846191" lon="30.008640289306641">
        <time>2026-04-25T13:11:05Z</time>
      </trkpt>
      <trkpt lat="59.073722362518311" lon="30.00866174697876">
        <time>2026-04-25T13:11:08Z</time>
      </trkpt>
      <trkpt lat="59.073722362518311" lon="30.008704662322998">
        <time>2026-04-25T13:11:10Z</time>
      </trkpt>
      <trkpt lat="59.073722362518311" lon="30.008704662322998">
        <time>2026-04-25T13:11:13Z</time>
      </trkpt>
      <trkpt lat="59.07374382019043" lon="30.008704662322998">
        <time>2026-04-25T13:11:15Z</time>
      </trkpt>
      <trkpt lat="59.07374382019043" lon="30.008704662322998">
        <time>2026-04-25T13:11:18Z</time>
      </trkpt>
      <trkpt lat="59.07374382019043" lon="30.008704662322998">
        <time>2026-04-25T13:11:20Z</time>
      </trkpt>
      <trkpt lat="59.07374382019043" lon="30.008704662322998">
        <time>2026-04-25T13:11:23Z</time>
      </trkpt>
      <trkpt lat="59.07374382019043" lon="30.008704662322998">
        <time>2026-04-25T13:11:25Z</time>
      </trkpt>
      <trkpt lat="59.07374382019043" lon="30.008704662322998">
        <time>2026-04-25T13:11:28Z</time>
      </trkpt>
      <trkpt lat="59.07374382019043" lon="30.008704662322998">
        <time>2026-04-25T13:11:30Z</time>
      </trkpt>
      <trkpt lat="59.07374382019043" lon="30.008704662322998">
        <time>2026-04-25T13:11:33Z</time>
      </trkpt>
      <trkpt lat="59.07374382019043" lon="30.008704662322998">
        <time>2026-04-25T13:11:35Z</time>
      </trkpt>
      <trkpt lat="59.07374382019043" lon="30.008704662322998">
        <time>2026-04-25T13:11:38Z</time>
      </trkpt>
      <trkpt lat="59.07374382019043" lon="30.008704662322998">
        <time>2026-04-25T13:11:40Z</time>
      </trkpt>
      <trkpt lat="59.07374382019043" lon="30.008704662322998">
        <time>2026-04-25T13:11:43Z</time>
      </trkpt>
      <trkpt lat="59.07374382019043" lon="30.008704662322998">
        <time>2026-04-25T13:11:45Z</time>
      </trkpt>
      <trkpt lat="59.07374382019043" lon="30.008704662322998">
        <time>2026-04-25T13:11:48Z</time>
      </trkpt>
      <trkpt lat="59.07374382019043" lon="30.008704662322998">
        <time>2026-04-25T13:11:50Z</time>
      </trkpt>
      <trkpt lat="59.07374382019043" lon="30.008704662322998">
        <time>2026-04-25T13:11:53Z</time>
      </trkpt>
      <trkpt lat="59.07374382019043" lon="30.008704662322998">
        <time>2026-04-25T13:11:55Z</time>
      </trkpt>
      <trkpt lat="59.07374382019043" lon="30.008704662322998">
        <time>2026-04-25T13:11:58Z</time>
      </trkpt>
      <trkpt lat="59.07374382019043" lon="30.008704662322998">
        <time>2026-04-25T13:12:00Z</time>
      </trkpt>
      <trkpt lat="59.07374382019043" lon="30.008704662322998">
        <time>2026-04-25T13:12:03Z</time>
      </trkpt>
      <trkpt lat="59.07374382019043" lon="30.008704662322998">
        <time>2026-04-25T13:12:05Z</time>
      </trkpt>
      <trkpt lat="59.07374382019043" lon="30.008704662322998">
        <time>2026-04-25T13:12:08Z</time>
      </trkpt>
      <trkpt lat="59.07374382019043" lon="30.008726119995117">
        <time>2026-04-25T13:12:10Z</time>
      </trkpt>
      <trkpt lat="59.073765277862549" lon="30.008833408355713">
        <time>2026-04-25T13:12:13Z</time>
      </trkpt>
      <trkpt lat="59.073786735534668" lon="30.00889778137207">
        <time>2026-04-25T13:12:15Z</time>
      </trkpt>
      <trkpt lat="59.073786735534668" lon="30.008962154388428">
        <time>2026-04-25T13:12:18Z</time>
      </trkpt>
      <trkpt lat="59.073808193206787" lon="30.009026527404785">
        <time>2026-04-25T13:12:20Z</time>
      </trkpt>
      <trkpt lat="59.073829650878906" lon="30.009047985076904">
        <time>2026-04-25T13:12:23Z</time>
      </trkpt>
      <trkpt lat="59.073829650878906" lon="30.009090900421143">
        <time>2026-04-25T13:12:25Z</time>
      </trkpt>
      <trkpt lat="59.073829650878906" lon="30.009112358093262">
        <time>2026-04-25T13:12:28Z</time>
      </trkpt>
      <trkpt lat="59.073851108551025" lon="30.0091552734375">
        <time>2026-04-25T13:12:30Z</time>
      </trkpt>
      <trkpt lat="59.073872566223145" lon="30.009176731109619">
        <time>2026-04-25T13:12:33Z</time>
      </trkpt>
      <trkpt lat="59.073872566223145" lon="30.009219646453857">
        <time>2026-04-25T13:12:35Z</time>
      </trkpt>
      <trkpt lat="59.073894023895264" lon="30.009262561798096">
        <time>2026-04-25T13:12:38Z</time>
      </trkpt>
      <trkpt lat="59.073894023895264" lon="30.009305477142334">
        <time>2026-04-25T13:12:40Z</time>
      </trkpt>
      <trkpt lat="59.073915481567383" lon="30.009326934814453">
        <time>2026-04-25T13:12:43Z</time>
      </trkpt>
      <trkpt lat="59.073915481567383" lon="30.009348392486572">
        <time>2026-04-25T13:12:45Z</time>
      </trkpt>
      <trkpt lat="59.073936939239502" lon="30.009391307830811">
        <time>2026-04-25T13:12:48Z</time>
      </trkpt>
      <trkpt lat="59.073936939239502" lon="30.00941276550293">
        <time>2026-04-25T13:12:50Z</time>
      </trkpt>
      <trkpt lat="59.073958396911621" lon="30.009434223175049">
        <time>2026-04-25T13:12:53Z</time>
      </trkpt>
      <trkpt lat="59.07397985458374" lon="30.009477138519287">
        <time>2026-04-25T13:12:55Z</time>
      </trkpt>
      <trkpt lat="59.07397985458374" lon="30.009520053863525">
        <time>2026-04-25T13:12:58Z</time>
      </trkpt>
      <trkpt lat="59.07397985458374" lon="30.009562969207764">
        <time>2026-04-25T13:13:00Z</time>
      </trkpt>
      <trkpt lat="59.074001312255859" lon="30.009605884552002">
        <time>2026-04-25T13:13:03Z</time>
      </trkpt>
      <trkpt lat="59.074001312255859" lon="30.009627342224121">
        <time>2026-04-25T13:13:05Z</time>
      </trkpt>
      <trkpt lat="59.074001312255859" lon="30.009670257568359">
        <time>2026-04-25T13:13:08Z</time>
      </trkpt>
      <trkpt lat="59.074022769927979" lon="30.009713172912598">
        <time>2026-04-25T13:13:10Z</time>
      </trkpt>
      <trkpt lat="59.074022769927979" lon="30.009756088256836">
        <time>2026-04-25T13:13:13Z</time>
      </trkpt>
      <trkpt lat="59.074044227600098" lon="30.009777545928955">
        <time>2026-04-25T13:13:15Z</time>
      </trkpt>
      <trkpt lat="59.074065685272217" lon="30.009799003601074">
        <time>2026-04-25T13:13:18Z</time>
      </trkpt>
      <trkpt lat="59.074065685272217" lon="30.009799003601074">
        <time>2026-04-25T13:13:20Z</time>
      </trkpt>
      <trkpt lat="59.074087142944336" lon="30.009841918945313">
        <time>2026-04-25T13:13:23Z</time>
      </trkpt>
      <trkpt lat="59.074087142944336" lon="30.009884834289551">
        <time>2026-04-25T13:13:25Z</time>
      </trkpt>
      <trkpt lat="59.074108600616455" lon="30.009927749633789">
        <time>2026-04-25T13:13:28Z</time>
      </trkpt>
      <trkpt lat="59.074108600616455" lon="30.009970664978027">
        <time>2026-04-25T13:13:30Z</time>
      </trkpt>
      <trkpt lat="59.074130058288574" lon="30.009992122650146">
        <time>2026-04-25T13:13:33Z</time>
      </trkpt>
      <trkpt lat="59.074151515960693" lon="30.010013580322266">
        <time>2026-04-25T13:13:35Z</time>
      </trkpt>
      <trkpt lat="59.074151515960693" lon="30.010035037994385">
        <time>2026-04-25T13:13:38Z</time>
      </trkpt>
      <trkpt lat="59.074172973632813" lon="30.010077953338623">
        <time>2026-04-25T13:13:40Z</time>
      </trkpt>
      <trkpt lat="59.074194431304932" lon="30.010099411010742">
        <time>2026-04-25T13:13:43Z</time>
      </trkpt>
      <trkpt lat="59.074194431304932" lon="30.01014232635498">
        <time>2026-04-25T13:13:45Z</time>
      </trkpt>
      <trkpt lat="59.074215888977051" lon="30.0101637840271">
        <time>2026-04-25T13:13:48Z</time>
      </trkpt>
      <trkpt lat="59.074215888977051" lon="30.010185241699219">
        <time>2026-04-25T13:13:50Z</time>
      </trkpt>
      <trkpt lat="59.07423734664917" lon="30.010206699371338">
        <time>2026-04-25T13:13:53Z</time>
      </trkpt>
      <trkpt lat="59.07423734664917" lon="30.010228157043457">
        <time>2026-04-25T13:13:55Z</time>
      </trkpt>
      <trkpt lat="59.07423734664917" lon="30.010249614715576">
        <time>2026-04-25T13:13:58Z</time>
      </trkpt>
      <trkpt lat="59.07423734664917" lon="30.010249614715576">
        <time>2026-04-25T13:14:00Z</time>
      </trkpt>
      <trkpt lat="59.07423734664917" lon="30.010271072387695">
        <time>2026-04-25T13:14:03Z</time>
      </trkpt>
      <trkpt lat="59.07423734664917" lon="30.010292530059814">
        <time>2026-04-25T13:14:05Z</time>
      </trkpt>
      <trkpt lat="59.074258804321289" lon="30.010271072387695">
        <time>2026-04-25T13:14:08Z</time>
      </trkpt>
      <trkpt lat="59.074258804321289" lon="30.010271072387695">
        <time>2026-04-25T13:14:10Z</time>
      </trkpt>
      <trkpt lat="59.074258804321289" lon="30.010271072387695">
        <time>2026-04-25T13:14:13Z</time>
      </trkpt>
      <trkpt lat="59.074258804321289" lon="30.010271072387695">
        <time>2026-04-25T13:14:15Z</time>
      </trkpt>
      <trkpt lat="59.074258804321289" lon="30.010271072387695">
        <time>2026-04-25T13:14:18Z</time>
      </trkpt>
      <trkpt lat="59.074258804321289" lon="30.010271072387695">
        <time>2026-04-25T13:14:20Z</time>
      </trkpt>
      <trkpt lat="59.074258804321289" lon="30.010271072387695">
        <time>2026-04-25T13:14:23Z</time>
      </trkpt>
      <trkpt lat="59.07423734664917" lon="30.010292530059814">
        <time>2026-04-25T13:14:25Z</time>
      </trkpt>
      <trkpt lat="59.074215888977051" lon="30.010335445404053">
        <time>2026-04-25T13:14:28Z</time>
      </trkpt>
      <trkpt lat="59.074172973632813" lon="30.010378360748291">
        <time>2026-04-25T13:14:30Z</time>
      </trkpt>
      <trkpt lat="59.074151515960693" lon="30.01039981842041">
        <time>2026-04-25T13:14:33Z</time>
      </trkpt>
      <trkpt lat="59.074130058288574" lon="30.01039981842041">
        <time>2026-04-25T13:14:35Z</time>
      </trkpt>
      <trkpt lat="59.074108600616455" lon="30.010421276092529">
        <time>2026-04-25T13:14:38Z</time>
      </trkpt>
      <trkpt lat="59.074065685272217" lon="30.010442733764648">
        <time>2026-04-25T13:14:43Z</time>
      </trkpt>
      <trkpt lat="59.074044227600098" lon="30.010442733764648">
        <time>2026-04-25T13:14:45Z</time>
      </trkpt>
      <trkpt lat="59.074044227600098" lon="30.010421276092529">
        <time>2026-04-25T13:14:48Z</time>
      </trkpt>
      <trkpt lat="59.074044227600098" lon="30.010421276092529">
        <time>2026-04-25T13:14:50Z</time>
      </trkpt>
      <trkpt lat="59.074044227600098" lon="30.010421276092529">
        <time>2026-04-25T13:14:53Z</time>
      </trkpt>
      <trkpt lat="59.074044227600098" lon="30.010421276092529">
        <time>2026-04-25T13:14:55Z</time>
      </trkpt>
      <trkpt lat="59.074044227600098" lon="30.010421276092529">
        <time>2026-04-25T13:14:58Z</time>
      </trkpt>
      <trkpt lat="59.074044227600098" lon="30.010421276092529">
        <time>2026-04-25T13:15:00Z</time>
      </trkpt>
      <trkpt lat="59.074044227600098" lon="30.010421276092529">
        <time>2026-04-25T13:15:03Z</time>
      </trkpt>
      <trkpt lat="59.074044227600098" lon="30.010421276092529">
        <time>2026-04-25T13:15:05Z</time>
      </trkpt>
      <trkpt lat="59.074044227600098" lon="30.010421276092529">
        <time>2026-04-25T13:15:08Z</time>
      </trkpt>
      <trkpt lat="59.074044227600098" lon="30.010421276092529">
        <time>2026-04-25T13:15:10Z</time>
      </trkpt>
      <trkpt lat="59.074044227600098" lon="30.010421276092529">
        <time>2026-04-25T13:15:13Z</time>
      </trkpt>
      <trkpt lat="59.074044227600098" lon="30.010442733764648">
        <time>2026-04-25T13:15:15Z</time>
      </trkpt>
      <trkpt lat="59.074044227600098" lon="30.010442733764648">
        <time>2026-04-25T13:15:18Z</time>
      </trkpt>
      <trkpt lat="59.074044227600098" lon="30.010442733764648">
        <time>2026-04-25T13:15:20Z</time>
      </trkpt>
      <trkpt lat="59.074044227600098" lon="30.010442733764648">
        <time>2026-04-25T13:15:23Z</time>
      </trkpt>
      <trkpt lat="59.074044227600098" lon="30.010442733764648">
        <time>2026-04-25T13:15:25Z</time>
      </trkpt>
      <trkpt lat="59.074044227600098" lon="30.010442733764648">
        <time>2026-04-25T13:15:28Z</time>
      </trkpt>
      <trkpt lat="59.074044227600098" lon="30.010442733764648">
        <time>2026-04-25T13:15:30Z</time>
      </trkpt>
      <trkpt lat="59.074044227600098" lon="30.010442733764648">
        <time>2026-04-25T13:15:33Z</time>
      </trkpt>
      <trkpt lat="59.074044227600098" lon="30.010442733764648">
        <time>2026-04-25T13:15:35Z</time>
      </trkpt>
      <trkpt lat="59.074044227600098" lon="30.010442733764648">
        <time>2026-04-25T13:15:38Z</time>
      </trkpt>
      <trkpt lat="59.074044227600098" lon="30.010442733764648">
        <time>2026-04-25T13:15:40Z</time>
      </trkpt>
      <trkpt lat="59.074044227600098" lon="30.010421276092529">
        <time>2026-04-25T13:15:43Z</time>
      </trkpt>
      <trkpt lat="59.074001312255859" lon="30.010421276092529">
        <time>2026-04-25T13:15:45Z</time>
      </trkpt>
      <trkpt lat="59.07397985458374" lon="30.01039981842041">
        <time>2026-04-25T13:15:48Z</time>
      </trkpt>
      <trkpt lat="59.073958396911621" lon="30.01039981842041">
        <time>2026-04-25T13:15:50Z</time>
      </trkpt>
      <trkpt lat="59.073936939239502" lon="30.01039981842041">
        <time>2026-04-25T13:15:53Z</time>
      </trkpt>
      <trkpt lat="59.073936939239502" lon="30.010421276092529">
        <time>2026-04-25T13:15:55Z</time>
      </trkpt>
      <trkpt lat="59.073915481567383" lon="30.010421276092529">
        <time>2026-04-25T13:15:58Z</time>
      </trkpt>
      <trkpt lat="59.073894023895264" lon="30.010442733764648">
        <time>2026-04-25T13:16:00Z</time>
      </trkpt>
      <trkpt lat="59.073872566223145" lon="30.010442733764648">
        <time>2026-04-25T13:16:03Z</time>
      </trkpt>
      <trkpt lat="59.073872566223145" lon="30.010464191436768">
        <time>2026-04-25T13:16:05Z</time>
      </trkpt>
      <trkpt lat="59.073851108551025" lon="30.010485649108887">
        <time>2026-04-25T13:16:08Z</time>
      </trkpt>
      <trkpt lat="59.073808193206787" lon="30.010528564453125">
        <time>2026-04-25T13:16:10Z</time>
      </trkpt>
      <trkpt lat="59.073786735534668" lon="30.010528564453125">
        <time>2026-04-25T13:16:13Z</time>
      </trkpt>
      <trkpt lat="59.073786735534668" lon="30.010485649108887">
        <time>2026-04-25T13:16:15Z</time>
      </trkpt>
      <trkpt lat="59.073765277862549" lon="30.010464191436768">
        <time>2026-04-25T13:16:18Z</time>
      </trkpt>
      <trkpt lat="59.07374382019043" lon="30.010464191436768">
        <time>2026-04-25T13:16:20Z</time>
      </trkpt>
      <trkpt lat="59.07374382019043" lon="30.010485649108887">
        <time>2026-04-25T13:16:23Z</time>
      </trkpt>
      <trkpt lat="59.073722362518311" lon="30.010507106781006">
        <time>2026-04-25T13:16:25Z</time>
      </trkpt>
      <trkpt lat="59.073722362518311" lon="30.010507106781006">
        <time>2026-04-25T13:16:28Z</time>
      </trkpt>
      <trkpt lat="59.073722362518311" lon="30.010507106781006">
        <time>2026-04-25T13:16:30Z</time>
      </trkpt>
      <trkpt lat="59.073722362518311" lon="30.010507106781006">
        <time>2026-04-25T13:16:33Z</time>
      </trkpt>
      <trkpt lat="59.073722362518311" lon="30.010507106781006">
        <time>2026-04-25T13:16:35Z</time>
      </trkpt>
      <trkpt lat="59.073722362518311" lon="30.010507106781006">
        <time>2026-04-25T13:16:38Z</time>
      </trkpt>
      <trkpt lat="59.073722362518311" lon="30.010507106781006">
        <time>2026-04-25T13:16:40Z</time>
      </trkpt>
      <trkpt lat="59.073722362518311" lon="30.010507106781006">
        <time>2026-04-25T13:16:43Z</time>
      </trkpt>
      <trkpt lat="59.073722362518311" lon="30.010507106781006">
        <time>2026-04-25T13:16:45Z</time>
      </trkpt>
      <trkpt lat="59.073722362518311" lon="30.010507106781006">
        <time>2026-04-25T13:16:48Z</time>
      </trkpt>
      <trkpt lat="59.073722362518311" lon="30.010507106781006">
        <time>2026-04-25T13:16:50Z</time>
      </trkpt>
      <trkpt lat="59.073722362518311" lon="30.010507106781006">
        <time>2026-04-25T13:16:53Z</time>
      </trkpt>
      <trkpt lat="59.073722362518311" lon="30.010507106781006">
        <time>2026-04-25T13:16:55Z</time>
      </trkpt>
      <trkpt lat="59.073722362518311" lon="30.010507106781006">
        <time>2026-04-25T13:16:58Z</time>
      </trkpt>
      <trkpt lat="59.073722362518311" lon="30.010507106781006">
        <time>2026-04-25T13:17:00Z</time>
      </trkpt>
      <trkpt lat="59.073722362518311" lon="30.010507106781006">
        <time>2026-04-25T13:17:03Z</time>
      </trkpt>
      <trkpt lat="59.073722362518311" lon="30.010507106781006">
        <time>2026-04-25T13:17:05Z</time>
      </trkpt>
      <trkpt lat="59.073722362518311" lon="30.010528564453125">
        <time>2026-04-25T13:17:08Z</time>
      </trkpt>
      <trkpt lat="59.073722362518311" lon="30.010528564453125">
        <time>2026-04-25T13:17:10Z</time>
      </trkpt>
      <trkpt lat="59.073700904846191" lon="30.010507106781006">
        <time>2026-04-25T13:17:13Z</time>
      </trkpt>
      <trkpt lat="59.073679447174072" lon="30.010507106781006">
        <time>2026-04-25T13:17:15Z</time>
      </trkpt>
      <trkpt lat="59.073657989501953" lon="30.010528564453125">
        <time>2026-04-25T13:17:18Z</time>
      </trkpt>
      <trkpt lat="59.073636531829834" lon="30.010528564453125">
        <time>2026-04-25T13:17:20Z</time>
      </trkpt>
      <trkpt lat="59.073636531829834" lon="30.010528564453125">
        <time>2026-04-25T13:17:23Z</time>
      </trkpt>
      <trkpt lat="59.073636531829834" lon="30.010528564453125">
        <time>2026-04-25T13:17:25Z</time>
      </trkpt>
      <trkpt lat="59.073636531829834" lon="30.010528564453125">
        <time>2026-04-25T13:17:28Z</time>
      </trkpt>
      <trkpt lat="59.073636531829834" lon="30.010528564453125">
        <time>2026-04-25T13:17:30Z</time>
      </trkpt>
      <trkpt lat="59.073636531829834" lon="30.010528564453125">
        <time>2026-04-25T13:17:33Z</time>
      </trkpt>
      <trkpt lat="59.073636531829834" lon="30.010528564453125">
        <time>2026-04-25T13:17:35Z</time>
      </trkpt>
      <trkpt lat="59.073636531829834" lon="30.010528564453125">
        <time>2026-04-25T13:17:38Z</time>
      </trkpt>
      <trkpt lat="59.073636531829834" lon="30.010528564453125">
        <time>2026-04-25T13:17:40Z</time>
      </trkpt>
      <trkpt lat="59.073636531829834" lon="30.010528564453125">
        <time>2026-04-25T13:17:43Z</time>
      </trkpt>
      <trkpt lat="59.073636531829834" lon="30.010528564453125">
        <time>2026-04-25T13:17:45Z</time>
      </trkpt>
      <trkpt lat="59.073636531829834" lon="30.010528564453125">
        <time>2026-04-25T13:17:48Z</time>
      </trkpt>
      <trkpt lat="59.073636531829834" lon="30.010528564453125">
        <time>2026-04-25T13:17:50Z</time>
      </trkpt>
      <trkpt lat="59.073636531829834" lon="30.010528564453125">
        <time>2026-04-25T13:17:53Z</time>
      </trkpt>
      <trkpt lat="59.073636531829834" lon="30.010528564453125">
        <time>2026-04-25T13:17:55Z</time>
      </trkpt>
      <trkpt lat="59.073636531829834" lon="30.010507106781006">
        <time>2026-04-25T13:17:58Z</time>
      </trkpt>
      <trkpt lat="59.073615074157715" lon="30.010442733764648">
        <time>2026-04-25T13:18:00Z</time>
      </trkpt>
      <trkpt lat="59.073593616485596" lon="30.01039981842041">
        <time>2026-04-25T13:18:03Z</time>
      </trkpt>
      <trkpt lat="59.073572158813477" lon="30.010356903076172">
        <time>2026-04-25T13:18:05Z</time>
      </trkpt>
      <trkpt lat="59.073572158813477" lon="30.010313987731934">
        <time>2026-04-25T13:18:08Z</time>
      </trkpt>
      <trkpt lat="59.073550701141357" lon="30.010271072387695">
        <time>2026-04-25T13:18:10Z</time>
      </trkpt>
      <trkpt lat="59.073550701141357" lon="30.010228157043457">
        <time>2026-04-25T13:18:13Z</time>
      </trkpt>
      <trkpt lat="59.073529243469238" lon="30.010185241699219">
        <time>2026-04-25T13:18:15Z</time>
      </trkpt>
      <trkpt lat="59.073529243469238" lon="30.01014232635498">
        <time>2026-04-25T13:18:18Z</time>
      </trkpt>
      <trkpt lat="59.073529243469238" lon="30.01014232635498">
        <time>2026-04-25T13:18:20Z</time>
      </trkpt>
      <trkpt lat="59.073507785797119" lon="30.010120868682861">
        <time>2026-04-25T13:18:23Z</time>
      </trkpt>
      <trkpt lat="59.073507785797119" lon="30.010099411010742">
        <time>2026-04-25T13:18:25Z</time>
      </trkpt>
      <trkpt lat="59.073486328125" lon="30.010056495666504">
        <time>2026-04-25T13:18:28Z</time>
      </trkpt>
      <trkpt lat="59.073464870452881" lon="30.010013580322266">
        <time>2026-04-25T13:18:30Z</time>
      </trkpt>
      <trkpt lat="59.073464870452881" lon="30.009970664978027">
        <time>2026-04-25T13:18:33Z</time>
      </trkpt>
      <trkpt lat="59.073443412780762" lon="30.009949207305908">
        <time>2026-04-25T13:18:35Z</time>
      </trkpt>
      <trkpt lat="59.073421955108643" lon="30.009927749633789">
        <time>2026-04-25T13:18:38Z</time>
      </trkpt>
      <trkpt lat="59.073421955108643" lon="30.009884834289551">
        <time>2026-04-25T13:18:40Z</time>
      </trkpt>
      <trkpt lat="59.073421955108643" lon="30.009841918945313">
        <time>2026-04-25T13:18:43Z</time>
      </trkpt>
      <trkpt lat="59.073421955108643" lon="30.009820461273193">
        <time>2026-04-25T13:18:45Z</time>
      </trkpt>
      <trkpt lat="59.073400497436523" lon="30.009777545928955">
        <time>2026-04-25T13:18:48Z</time>
      </trkpt>
      <trkpt lat="59.073400497436523" lon="30.009734630584717">
        <time>2026-04-25T13:18:50Z</time>
      </trkpt>
      <trkpt lat="59.073379039764404" lon="30.009691715240479">
        <time>2026-04-25T13:18:53Z</time>
      </trkpt>
      <trkpt lat="59.073357582092285" lon="30.009670257568359">
        <time>2026-04-25T13:18:55Z</time>
      </trkpt>
      <trkpt lat="59.073336124420166" lon="30.009670257568359">
        <time>2026-04-25T13:18:58Z</time>
      </trkpt>
      <trkpt lat="59.073336124420166" lon="30.009627342224121">
        <time>2026-04-25T13:19:00Z</time>
      </trkpt>
      <trkpt lat="59.073314666748047" lon="30.009584426879883">
        <time>2026-04-25T13:19:03Z</time>
      </trkpt>
      <trkpt lat="59.073314666748047" lon="30.009541511535645">
        <time>2026-04-25T13:19:05Z</time>
      </trkpt>
      <trkpt lat="59.073314666748047" lon="30.009498596191406">
        <time>2026-04-25T13:19:08Z</time>
      </trkpt>
      <trkpt lat="59.073293209075928" lon="30.009455680847168">
        <time>2026-04-25T13:19:10Z</time>
      </trkpt>
      <trkpt lat="59.073293209075928" lon="30.009434223175049">
        <time>2026-04-25T13:19:13Z</time>
      </trkpt>
      <trkpt lat="59.073271751403809" lon="30.00941276550293">
        <time>2026-04-25T13:19:15Z</time>
      </trkpt>
      <trkpt lat="59.073271751403809" lon="30.00941276550293">
        <time>2026-04-25T13:19:18Z</time>
      </trkpt>
      <trkpt lat="59.073271751403809" lon="30.00941276550293">
        <time>2026-04-25T13:19:20Z</time>
      </trkpt>
      <trkpt lat="59.073271751403809" lon="30.00941276550293">
        <time>2026-04-25T13:19:23Z</time>
      </trkpt>
      <trkpt lat="59.073271751403809" lon="30.009369850158691">
        <time>2026-04-25T13:19:25Z</time>
      </trkpt>
      <trkpt lat="59.073250293731689" lon="30.009326934814453">
        <time>2026-04-25T13:19:28Z</time>
      </trkpt>
      <trkpt lat="59.073250293731689" lon="30.009284019470215">
        <time>2026-04-25T13:19:30Z</time>
      </trkpt>
      <trkpt lat="59.073250293731689" lon="30.009262561798096">
        <time>2026-04-25T13:19:33Z</time>
      </trkpt>
      <trkpt lat="59.073250293731689" lon="30.009284019470215">
        <time>2026-04-25T13:19:35Z</time>
      </trkpt>
      <trkpt lat="59.073250293731689" lon="30.009284019470215">
        <time>2026-04-25T13:19:38Z</time>
      </trkpt>
      <trkpt lat="59.073250293731689" lon="30.009241104125977">
        <time>2026-04-25T13:19:40Z</time>
      </trkpt>
      <trkpt lat="59.073250293731689" lon="30.009198188781738">
        <time>2026-04-25T13:19:43Z</time>
      </trkpt>
      <trkpt lat="59.073271751403809" lon="30.009112358093262">
        <time>2026-04-25T13:19:45Z</time>
      </trkpt>
      <trkpt lat="59.073250293731689" lon="30.009090900421143">
        <time>2026-04-25T13:19:48Z</time>
      </trkpt>
      <trkpt lat="59.073250293731689" lon="30.009090900421143">
        <time>2026-04-25T13:19:50Z</time>
      </trkpt>
      <trkpt lat="59.073250293731689" lon="30.009069442749023">
        <time>2026-04-25T13:19:53Z</time>
      </trkpt>
      <trkpt lat="59.07322883605957" lon="30.009047985076904">
        <time>2026-04-25T13:19:55Z</time>
      </trkpt>
      <trkpt lat="59.07322883605957" lon="30.009047985076904">
        <time>2026-04-25T13:19:58Z</time>
      </trkpt>
      <trkpt lat="59.07322883605957" lon="30.009005069732666">
        <time>2026-04-25T13:20:00Z</time>
      </trkpt>
      <trkpt lat="59.07322883605957" lon="30.008962154388428">
        <time>2026-04-25T13:20:03Z</time>
      </trkpt>
      <trkpt lat="59.073207378387451" lon="30.008940696716309">
        <time>2026-04-25T13:20:05Z</time>
      </trkpt>
      <trkpt lat="59.073185920715332" lon="30.008919239044189">
        <time>2026-04-25T13:20:08Z</time>
      </trkpt>
      <trkpt lat="59.073185920715332" lon="30.00889778137207">
        <time>2026-04-25T13:20:10Z</time>
      </trkpt>
      <trkpt lat="59.073185920715332" lon="30.00889778137207">
        <time>2026-04-25T13:20:13Z</time>
      </trkpt>
      <trkpt lat="59.073185920715332" lon="30.008876323699951">
        <time>2026-04-25T13:20:15Z</time>
      </trkpt>
      <trkpt lat="59.073185920715332" lon="30.008876323699951">
        <time>2026-04-25T13:20:18Z</time>
      </trkpt>
      <trkpt lat="59.073164463043213" lon="30.008876323699951">
        <time>2026-04-25T13:20:20Z</time>
      </trkpt>
      <trkpt lat="59.073164463043213" lon="30.008833408355713">
        <time>2026-04-25T13:20:23Z</time>
      </trkpt>
      <trkpt lat="59.073143005371094" lon="30.008790493011475">
        <time>2026-04-25T13:20:25Z</time>
      </trkpt>
      <trkpt lat="59.073143005371094" lon="30.008747577667236">
        <time>2026-04-25T13:20:28Z</time>
      </trkpt>
      <trkpt lat="59.073121547698975" lon="30.008726119995117">
        <time>2026-04-25T13:20:30Z</time>
      </trkpt>
      <trkpt lat="59.073100090026855" lon="30.008704662322998">
        <time>2026-04-25T13:20:33Z</time>
      </trkpt>
      <trkpt lat="59.073100090026855" lon="30.008640289306641">
        <time>2026-04-25T13:20:35Z</time>
      </trkpt>
      <trkpt lat="59.073100090026855" lon="30.008597373962402">
        <time>2026-04-25T13:20:38Z</time>
      </trkpt>
      <trkpt lat="59.073078632354736" lon="30.008554458618164">
        <time>2026-04-25T13:20:40Z</time>
      </trkpt>
      <trkpt lat="59.073078632354736" lon="30.008511543273926">
        <time>2026-04-25T13:20:43Z</time>
      </trkpt>
      <trkpt lat="59.073078632354736" lon="30.008511543273926">
        <time>2026-04-25T13:20:45Z</time>
      </trkpt>
      <trkpt lat="59.073078632354736" lon="30.008490085601807">
        <time>2026-04-25T13:20:48Z</time>
      </trkpt>
      <trkpt lat="59.073057174682617" lon="30.008425712585449">
        <time>2026-04-25T13:20:50Z</time>
      </trkpt>
      <trkpt lat="59.073057174682617" lon="30.008361339569092">
        <time>2026-04-25T13:20:53Z</time>
      </trkpt>
      <trkpt lat="59.073035717010498" lon="30.008318424224854">
        <time>2026-04-25T13:20:55Z</time>
      </trkpt>
      <trkpt lat="59.073014259338379" lon="30.008275508880615">
        <time>2026-04-25T13:20:58Z</time>
      </trkpt>
      <trkpt lat="59.07299280166626" lon="30.008232593536377">
        <time>2026-04-25T13:21:00Z</time>
      </trkpt>
      <trkpt lat="59.07299280166626" lon="30.008211135864258">
        <time>2026-04-25T13:21:03Z</time>
      </trkpt>
      <trkpt lat="59.07299280166626" lon="30.008211135864258">
        <time>2026-04-25T13:21:05Z</time>
      </trkpt>
      <trkpt lat="59.07299280166626" lon="30.008211135864258">
        <time>2026-04-25T13:21:08Z</time>
      </trkpt>
      <trkpt lat="59.07299280166626" lon="30.008211135864258">
        <time>2026-04-25T13:21:10Z</time>
      </trkpt>
      <trkpt lat="59.07299280166626" lon="30.008211135864258">
        <time>2026-04-25T13:21:13Z</time>
      </trkpt>
      <trkpt lat="59.07299280166626" lon="30.008211135864258">
        <time>2026-04-25T13:21:15Z</time>
      </trkpt>
      <trkpt lat="59.07299280166626" lon="30.008211135864258">
        <time>2026-04-25T13:21:18Z</time>
      </trkpt>
      <trkpt lat="59.07299280166626" lon="30.008211135864258">
        <time>2026-04-25T13:21:20Z</time>
      </trkpt>
      <trkpt lat="59.072971343994141" lon="30.008189678192139">
        <time>2026-04-25T13:21:23Z</time>
      </trkpt>
      <trkpt lat="59.072971343994141" lon="30.008125305175781">
        <time>2026-04-25T13:21:25Z</time>
      </trkpt>
      <trkpt lat="59.072971343994141" lon="30.008060932159424">
        <time>2026-04-25T13:21:28Z</time>
      </trkpt>
      <trkpt lat="59.072949886322021" lon="30.008018016815186">
        <time>2026-04-25T13:21:30Z</time>
      </trkpt>
      <trkpt lat="59.072949886322021" lon="30.007996559143066">
        <time>2026-04-25T13:21:33Z</time>
      </trkpt>
      <trkpt lat="59.072949886322021" lon="30.007996559143066">
        <time>2026-04-25T13:21:35Z</time>
      </trkpt>
      <trkpt lat="59.072949886322021" lon="30.007996559143066">
        <time>2026-04-25T13:21:38Z</time>
      </trkpt>
      <trkpt lat="59.072949886322021" lon="30.008018016815186">
        <time>2026-04-25T13:21:40Z</time>
      </trkpt>
      <trkpt lat="59.072949886322021" lon="30.008018016815186">
        <time>2026-04-25T13:21:43Z</time>
      </trkpt>
      <trkpt lat="59.072949886322021" lon="30.008018016815186">
        <time>2026-04-25T13:21:45Z</time>
      </trkpt>
      <trkpt lat="59.072949886322021" lon="30.008018016815186">
        <time>2026-04-25T13:21:48Z</time>
      </trkpt>
      <trkpt lat="59.072949886322021" lon="30.008018016815186">
        <time>2026-04-25T13:21:50Z</time>
      </trkpt>
      <trkpt lat="59.072949886322021" lon="30.008018016815186">
        <time>2026-04-25T13:21:53Z</time>
      </trkpt>
      <trkpt lat="59.072949886322021" lon="30.008018016815186">
        <time>2026-04-25T13:21:55Z</time>
      </trkpt>
      <trkpt lat="59.072949886322021" lon="30.008018016815186">
        <time>2026-04-25T13:21:58Z</time>
      </trkpt>
      <trkpt lat="59.072949886322021" lon="30.008018016815186">
        <time>2026-04-25T13:22:00Z</time>
      </trkpt>
      <trkpt lat="59.072949886322021" lon="30.008018016815186">
        <time>2026-04-25T13:22:03Z</time>
      </trkpt>
      <trkpt lat="59.072949886322021" lon="30.008018016815186">
        <time>2026-04-25T13:22:05Z</time>
      </trkpt>
      <trkpt lat="59.072949886322021" lon="30.008039474487305">
        <time>2026-04-25T13:22:08Z</time>
      </trkpt>
      <trkpt lat="59.072906970977783" lon="30.008060932159424">
        <time>2026-04-25T13:22:10Z</time>
      </trkpt>
      <trkpt lat="59.072885513305664" lon="30.008103847503662">
        <time>2026-04-25T13:22:13Z</time>
      </trkpt>
      <trkpt lat="59.072864055633545" lon="30.008125305175781">
        <time>2026-04-25T13:22:15Z</time>
      </trkpt>
      <trkpt lat="59.072842597961426" lon="30.008125305175781">
        <time>2026-04-25T13:22:18Z</time>
      </trkpt>
      <trkpt lat="59.072842597961426" lon="30.008125305175781">
        <time>2026-04-25T13:22:20Z</time>
      </trkpt>
      <trkpt lat="59.072821140289307" lon="30.008082389831543">
        <time>2026-04-25T13:22:23Z</time>
      </trkpt>
      <trkpt lat="59.072799682617187" lon="30.008060932159424">
        <time>2026-04-25T13:22:25Z</time>
      </trkpt>
      <trkpt lat="59.072799682617187" lon="30.008060932159424">
        <time>2026-04-25T13:22:28Z</time>
      </trkpt>
      <trkpt lat="59.072778224945068" lon="30.008039474487305">
        <time>2026-04-25T13:22:30Z</time>
      </trkpt>
      <trkpt lat="59.07273530960083" lon="30.008039474487305">
        <time>2026-04-25T13:22:33Z</time>
      </trkpt>
      <trkpt lat="59.07273530960083" lon="30.007996559143066">
        <time>2026-04-25T13:22:35Z</time>
      </trkpt>
      <trkpt lat="59.072713851928711" lon="30.007996559143066">
        <time>2026-04-25T13:22:38Z</time>
      </trkpt>
      <trkpt lat="59.072692394256592" lon="30.007996559143066">
        <time>2026-04-25T13:22:40Z</time>
      </trkpt>
      <trkpt lat="59.072692394256592" lon="30.007975101470947">
        <time>2026-04-25T13:22:43Z</time>
      </trkpt>
      <trkpt lat="59.072670936584473" lon="30.007953643798828">
        <time>2026-04-25T13:22:45Z</time>
      </trkpt>
      <trkpt lat="59.072649478912354" lon="30.007953643798828">
        <time>2026-04-25T13:22:48Z</time>
      </trkpt>
      <trkpt lat="59.072649478912354" lon="30.007953643798828">
        <time>2026-04-25T13:22:50Z</time>
      </trkpt>
      <trkpt lat="59.072628021240234" lon="30.007932186126709">
        <time>2026-04-25T13:22:53Z</time>
      </trkpt>
      <trkpt lat="59.072585105895996" lon="30.007953643798828">
        <time>2026-04-25T13:22:58Z</time>
      </trkpt>
      <trkpt lat="59.072585105895996" lon="30.007953643798828">
        <time>2026-04-25T13:23:00Z</time>
      </trkpt>
      <trkpt lat="59.072585105895996" lon="30.007953643798828">
        <time>2026-04-25T13:23:03Z</time>
      </trkpt>
      <trkpt lat="59.072585105895996" lon="30.007975101470947">
        <time>2026-04-25T13:23:05Z</time>
      </trkpt>
      <trkpt lat="59.072563648223877" lon="30.008018016815186">
        <time>2026-04-25T13:23:08Z</time>
      </trkpt>
      <trkpt lat="59.072563648223877" lon="30.008060932159424">
        <time>2026-04-25T13:23:10Z</time>
      </trkpt>
      <trkpt lat="59.072542190551758" lon="30.008082389831543">
        <time>2026-04-25T13:23:13Z</time>
      </trkpt>
      <trkpt lat="59.072542190551758" lon="30.008103847503662">
        <time>2026-04-25T13:23:15Z</time>
      </trkpt>
      <trkpt lat="59.072520732879639" lon="30.008125305175781">
        <time>2026-04-25T13:23:18Z</time>
      </trkpt>
      <trkpt lat="59.072520732879639" lon="30.0081467628479">
        <time>2026-04-25T13:23:20Z</time>
      </trkpt>
      <trkpt lat="59.072520732879639" lon="30.0081467628479">
        <time>2026-04-25T13:23:23Z</time>
      </trkpt>
      <trkpt lat="59.072520732879639" lon="30.0081467628479">
        <time>2026-04-25T13:23:25Z</time>
      </trkpt>
      <trkpt lat="59.072520732879639" lon="30.0081467628479">
        <time>2026-04-25T13:23:28Z</time>
      </trkpt>
      <trkpt lat="59.072520732879639" lon="30.0081467628479">
        <time>2026-04-25T13:23:30Z</time>
      </trkpt>
      <trkpt lat="59.072520732879639" lon="30.0081467628479">
        <time>2026-04-25T13:23:33Z</time>
      </trkpt>
      <trkpt lat="59.072520732879639" lon="30.0081467628479">
        <time>2026-04-25T13:23:35Z</time>
      </trkpt>
      <trkpt lat="59.072520732879639" lon="30.0081467628479">
        <time>2026-04-25T13:23:38Z</time>
      </trkpt>
      <trkpt lat="59.072520732879639" lon="30.0081467628479">
        <time>2026-04-25T13:23:40Z</time>
      </trkpt>
      <trkpt lat="59.072520732879639" lon="30.0081467628479">
        <time>2026-04-25T13:23:43Z</time>
      </trkpt>
      <trkpt lat="59.072520732879639" lon="30.0081467628479">
        <time>2026-04-25T13:23:45Z</time>
      </trkpt>
      <trkpt lat="59.072520732879639" lon="30.0081467628479">
        <time>2026-04-25T13:23:48Z</time>
      </trkpt>
      <trkpt lat="59.072520732879639" lon="30.0081467628479">
        <time>2026-04-25T13:23:50Z</time>
      </trkpt>
      <trkpt lat="59.072520732879639" lon="30.0081467628479">
        <time>2026-04-25T13:23:53Z</time>
      </trkpt>
      <trkpt lat="59.07249927520752" lon="30.0081467628479">
        <time>2026-04-25T13:23:55Z</time>
      </trkpt>
      <trkpt lat="59.07249927520752" lon="30.0081467628479">
        <time>2026-04-25T13:23:58Z</time>
      </trkpt>
      <trkpt lat="59.07249927520752" lon="30.0081467628479">
        <time>2026-04-25T13:24:00Z</time>
      </trkpt>
      <trkpt lat="59.07249927520752" lon="30.0081467628479">
        <time>2026-04-25T13:24:03Z</time>
      </trkpt>
      <trkpt lat="59.07249927520752" lon="30.008189678192139">
        <time>2026-04-25T13:24:05Z</time>
      </trkpt>
      <trkpt lat="59.07249927520752" lon="30.008211135864258">
        <time>2026-04-25T13:24:08Z</time>
      </trkpt>
      <trkpt lat="59.07249927520752" lon="30.008254051208496">
        <time>2026-04-25T13:24:10Z</time>
      </trkpt>
      <trkpt lat="59.07249927520752" lon="30.008275508880615">
        <time>2026-04-25T13:24:13Z</time>
      </trkpt>
      <trkpt lat="59.07249927520752" lon="30.008318424224854">
        <time>2026-04-25T13:24:15Z</time>
      </trkpt>
      <trkpt lat="59.07249927520752" lon="30.008339881896973">
        <time>2026-04-25T13:24:18Z</time>
      </trkpt>
      <trkpt lat="59.07249927520752" lon="30.008361339569092">
        <time>2026-04-25T13:24:20Z</time>
      </trkpt>
      <trkpt lat="59.072520732879639" lon="30.008382797241211">
        <time>2026-04-25T13:24:23Z</time>
      </trkpt>
      <trkpt lat="59.072520732879639" lon="30.00840425491333">
        <time>2026-04-25T13:24:25Z</time>
      </trkpt>
      <trkpt lat="59.072520732879639" lon="30.008425712585449">
        <time>2026-04-25T13:24:28Z</time>
      </trkpt>
      <trkpt lat="59.072542190551758" lon="30.008447170257568">
        <time>2026-04-25T13:24:30Z</time>
      </trkpt>
      <trkpt lat="59.072542190551758" lon="30.008468627929687">
        <time>2026-04-25T13:24:33Z</time>
      </trkpt>
      <trkpt lat="59.072563648223877" lon="30.008490085601807">
        <time>2026-04-25T13:24:35Z</time>
      </trkpt>
      <trkpt lat="59.072563648223877" lon="30.008511543273926">
        <time>2026-04-25T13:24:38Z</time>
      </trkpt>
      <trkpt lat="59.072563648223877" lon="30.008554458618164">
        <time>2026-04-25T13:24:40Z</time>
      </trkpt>
      <trkpt lat="59.072563648223877" lon="30.008554458618164">
        <time>2026-04-25T13:24:43Z</time>
      </trkpt>
      <trkpt lat="59.072563648223877" lon="30.008554458618164">
        <time>2026-04-25T13:24:45Z</time>
      </trkpt>
      <trkpt lat="59.072563648223877" lon="30.008554458618164">
        <time>2026-04-25T13:24:48Z</time>
      </trkpt>
      <trkpt lat="59.072563648223877" lon="30.008575916290283">
        <time>2026-04-25T13:24:50Z</time>
      </trkpt>
      <trkpt lat="59.072563648223877" lon="30.008575916290283">
        <time>2026-04-25T13:24:53Z</time>
      </trkpt>
      <trkpt lat="59.072563648223877" lon="30.008575916290283">
        <time>2026-04-25T13:24:55Z</time>
      </trkpt>
      <trkpt lat="59.072563648223877" lon="30.008575916290283">
        <time>2026-04-25T13:24:58Z</time>
      </trkpt>
      <trkpt lat="59.072520732879639" lon="30.008575916290283">
        <time>2026-04-25T13:25:00Z</time>
      </trkpt>
      <trkpt lat="59.072520732879639" lon="30.008597373962402">
        <time>2026-04-25T13:25:03Z</time>
      </trkpt>
      <trkpt lat="59.07249927520752" lon="30.008597373962402">
        <time>2026-04-25T13:25:05Z</time>
      </trkpt>
      <trkpt lat="59.07249927520752" lon="30.008597373962402">
        <time>2026-04-25T13:25:08Z</time>
      </trkpt>
      <trkpt lat="59.07249927520752" lon="30.008575916290283">
        <time>2026-04-25T13:25:10Z</time>
      </trkpt>
      <trkpt lat="59.0724778175354" lon="30.008575916290283">
        <time>2026-04-25T13:25:13Z</time>
      </trkpt>
      <trkpt lat="59.072413444519043" lon="30.00866174697876">
        <time>2026-04-25T13:25:15Z</time>
      </trkpt>
      <trkpt lat="59.072349071502686" lon="30.008683204650879">
        <time>2026-04-25T13:25:18Z</time>
      </trkpt>
      <trkpt lat="59.072349071502686" lon="30.008683204650879">
        <time>2026-04-25T13:25:20Z</time>
      </trkpt>
      <trkpt lat="59.072349071502686" lon="30.008683204650879">
        <time>2026-04-25T13:25:23Z</time>
      </trkpt>
      <trkpt lat="59.072327613830566" lon="30.008704662322998">
        <time>2026-04-25T13:25:25Z</time>
      </trkpt>
      <trkpt lat="59.07224178314209" lon="30.008704662322998">
        <time>2026-04-25T13:25:28Z</time>
      </trkpt>
      <trkpt lat="59.072220325469971" lon="30.008704662322998">
        <time>2026-04-25T13:25:30Z</time>
      </trkpt>
      <trkpt lat="59.072220325469971" lon="30.008704662322998">
        <time>2026-04-25T13:25:33Z</time>
      </trkpt>
      <trkpt lat="59.072220325469971" lon="30.008704662322998">
        <time>2026-04-25T13:25:35Z</time>
      </trkpt>
      <trkpt lat="59.072220325469971" lon="30.008704662322998">
        <time>2026-04-25T13:25:38Z</time>
      </trkpt>
      <trkpt lat="59.072220325469971" lon="30.008704662322998">
        <time>2026-04-25T13:25:40Z</time>
      </trkpt>
      <trkpt lat="59.072220325469971" lon="30.008704662322998">
        <time>2026-04-25T13:25:43Z</time>
      </trkpt>
      <trkpt lat="59.072220325469971" lon="30.008704662322998">
        <time>2026-04-25T13:25:45Z</time>
      </trkpt>
      <trkpt lat="59.072220325469971" lon="30.008704662322998">
        <time>2026-04-25T13:25:48Z</time>
      </trkpt>
      <trkpt lat="59.072220325469971" lon="30.008704662322998">
        <time>2026-04-25T13:25:50Z</time>
      </trkpt>
      <trkpt lat="59.072263240814209" lon="30.008704662322998">
        <time>2026-04-25T13:25:53Z</time>
      </trkpt>
      <trkpt lat="59.072306156158447" lon="30.008704662322998">
        <time>2026-04-25T13:25:55Z</time>
      </trkpt>
      <trkpt lat="59.072391986846924" lon="30.008683204650879">
        <time>2026-04-25T13:25:58Z</time>
      </trkpt>
      <trkpt lat="59.0724778175354" lon="30.008683204650879">
        <time>2026-04-25T13:26:00Z</time>
      </trkpt>
      <trkpt lat="59.072542190551758" lon="30.008683204650879">
        <time>2026-04-25T13:26:03Z</time>
      </trkpt>
      <trkpt lat="59.072542190551758" lon="30.008683204650879">
        <time>2026-04-25T13:26:05Z</time>
      </trkpt>
      <trkpt lat="59.072542190551758" lon="30.008683204650879">
        <time>2026-04-25T13:26:08Z</time>
      </trkpt>
      <trkpt lat="59.072542190551758" lon="30.00866174697876">
        <time>2026-04-25T13:26:10Z</time>
      </trkpt>
      <trkpt lat="59.072542190551758" lon="30.00866174697876">
        <time>2026-04-25T13:26:13Z</time>
      </trkpt>
      <trkpt lat="59.072542190551758" lon="30.00866174697876">
        <time>2026-04-25T13:26:15Z</time>
      </trkpt>
      <trkpt lat="59.072542190551758" lon="30.00866174697876">
        <time>2026-04-25T13:26:18Z</time>
      </trkpt>
      <trkpt lat="59.072542190551758" lon="30.00866174697876">
        <time>2026-04-25T13:26:20Z</time>
      </trkpt>
      <trkpt lat="59.072542190551758" lon="30.00866174697876">
        <time>2026-04-25T13:26:23Z</time>
      </trkpt>
      <trkpt lat="59.072542190551758" lon="30.00866174697876">
        <time>2026-04-25T13:26:25Z</time>
      </trkpt>
      <trkpt lat="59.072542190551758" lon="30.00866174697876">
        <time>2026-04-25T13:26:28Z</time>
      </trkpt>
      <trkpt lat="59.072542190551758" lon="30.00866174697876">
        <time>2026-04-25T13:26:30Z</time>
      </trkpt>
      <trkpt lat="59.072542190551758" lon="30.00866174697876">
        <time>2026-04-25T13:26:33Z</time>
      </trkpt>
      <trkpt lat="59.072542190551758" lon="30.00866174697876">
        <time>2026-04-25T13:26:35Z</time>
      </trkpt>
      <trkpt lat="59.072542190551758" lon="30.00866174697876">
        <time>2026-04-25T13:26:38Z</time>
      </trkpt>
      <trkpt lat="59.072542190551758" lon="30.00866174697876">
        <time>2026-04-25T13:26:40Z</time>
      </trkpt>
      <trkpt lat="59.072542190551758" lon="30.00866174697876">
        <time>2026-04-25T13:26:43Z</time>
      </trkpt>
      <trkpt lat="59.072542190551758" lon="30.00866174697876">
        <time>2026-04-25T13:26:45Z</time>
      </trkpt>
      <trkpt lat="59.072542190551758" lon="30.00866174697876">
        <time>2026-04-25T13:26:48Z</time>
      </trkpt>
      <trkpt lat="59.072542190551758" lon="30.00866174697876">
        <time>2026-04-25T13:26:50Z</time>
      </trkpt>
      <trkpt lat="59.072542190551758" lon="30.00866174697876">
        <time>2026-04-25T13:26:53Z</time>
      </trkpt>
      <trkpt lat="59.072542190551758" lon="30.00866174697876">
        <time>2026-04-25T13:26:55Z</time>
      </trkpt>
      <trkpt lat="59.072542190551758" lon="30.00866174697876">
        <time>2026-04-25T13:26:58Z</time>
      </trkpt>
      <trkpt lat="59.072542190551758" lon="30.00866174697876">
        <time>2026-04-25T13:27:00Z</time>
      </trkpt>
      <trkpt lat="59.072542190551758" lon="30.00866174697876">
        <time>2026-04-25T13:27:03Z</time>
      </trkpt>
      <trkpt lat="59.072542190551758" lon="30.00866174697876">
        <time>2026-04-25T13:27:05Z</time>
      </trkpt>
      <trkpt lat="59.072542190551758" lon="30.00866174697876">
        <time>2026-04-25T13:27:08Z</time>
      </trkpt>
      <trkpt lat="59.072542190551758" lon="30.00866174697876">
        <time>2026-04-25T13:27:10Z</time>
      </trkpt>
      <trkpt lat="59.072542190551758" lon="30.00866174697876">
        <time>2026-04-25T13:27:13Z</time>
      </trkpt>
      <trkpt lat="59.072542190551758" lon="30.00866174697876">
        <time>2026-04-25T13:27:15Z</time>
      </trkpt>
      <trkpt lat="59.072542190551758" lon="30.00866174697876">
        <time>2026-04-25T13:27:18Z</time>
      </trkpt>
      <trkpt lat="59.072542190551758" lon="30.00866174697876">
        <time>2026-04-25T13:27:20Z</time>
      </trkpt>
      <trkpt lat="59.072542190551758" lon="30.00866174697876">
        <time>2026-04-25T13:27:23Z</time>
      </trkpt>
      <trkpt lat="59.072542190551758" lon="30.00866174697876">
        <time>2026-04-25T13:27:25Z</time>
      </trkpt>
      <trkpt lat="59.072542190551758" lon="30.00866174697876">
        <time>2026-04-25T13:27:28Z</time>
      </trkpt>
      <trkpt lat="59.072542190551758" lon="30.00866174697876">
        <time>2026-04-25T13:27:30Z</time>
      </trkpt>
      <trkpt lat="59.072542190551758" lon="30.008683204650879">
        <time>2026-04-25T13:27:33Z</time>
      </trkpt>
      <trkpt lat="59.072563648223877" lon="30.008683204650879">
        <time>2026-04-25T13:27:35Z</time>
      </trkpt>
      <trkpt lat="59.072563648223877" lon="30.008747577667236">
        <time>2026-04-25T13:27:38Z</time>
      </trkpt>
      <trkpt lat="59.072606563568115" lon="30.008811950683594">
        <time>2026-04-25T13:27:40Z</time>
      </trkpt>
      <trkpt lat="59.072606563568115" lon="30.00889778137207">
        <time>2026-04-25T13:27:43Z</time>
      </trkpt>
      <trkpt lat="59.072628021240234" lon="30.008962154388428">
        <time>2026-04-25T13:27:45Z</time>
      </trkpt>
      <trkpt lat="59.072628021240234" lon="30.009005069732666">
        <time>2026-04-25T13:27:48Z</time>
      </trkpt>
      <trkpt lat="59.072628021240234" lon="30.009047985076904">
        <time>2026-04-25T13:27:50Z</time>
      </trkpt>
      <trkpt lat="59.072628021240234" lon="30.009090900421143">
        <time>2026-04-25T13:27:53Z</time>
      </trkpt>
      <trkpt lat="59.072628021240234" lon="30.009133815765381">
        <time>2026-04-25T13:27:55Z</time>
      </trkpt>
      <trkpt lat="59.072628021240234" lon="30.0091552734375">
        <time>2026-04-25T13:27:58Z</time>
      </trkpt>
      <trkpt lat="59.072628021240234" lon="30.009176731109619">
        <time>2026-04-25T13:28:00Z</time>
      </trkpt>
      <trkpt lat="59.072649478912354" lon="30.009219646453857">
        <time>2026-04-25T13:28:03Z</time>
      </trkpt>
      <trkpt lat="59.072649478912354" lon="30.009262561798096">
        <time>2026-04-25T13:28:05Z</time>
      </trkpt>
      <trkpt lat="59.072670936584473" lon="30.009284019470215">
        <time>2026-04-25T13:28:08Z</time>
      </trkpt>
      <trkpt lat="59.072692394256592" lon="30.009305477142334">
        <time>2026-04-25T13:28:10Z</time>
      </trkpt>
      <trkpt lat="59.072692394256592" lon="30.009369850158691">
        <time>2026-04-25T13:28:13Z</time>
      </trkpt>
      <trkpt lat="59.072713851928711" lon="30.009391307830811">
        <time>2026-04-25T13:28:15Z</time>
      </trkpt>
      <trkpt lat="59.072713851928711" lon="30.009434223175049">
        <time>2026-04-25T13:28:18Z</time>
      </trkpt>
      <trkpt lat="59.07273530960083" lon="30.009477138519287">
        <time>2026-04-25T13:28:20Z</time>
      </trkpt>
      <trkpt lat="59.07273530960083" lon="30.009498596191406">
        <time>2026-04-25T13:28:23Z</time>
      </trkpt>
      <trkpt lat="59.072756767272949" lon="30.009562969207764">
        <time>2026-04-25T13:28:25Z</time>
      </trkpt>
      <trkpt lat="59.072756767272949" lon="30.009605884552002">
        <time>2026-04-25T13:28:28Z</time>
      </trkpt>
      <trkpt lat="59.072756767272949" lon="30.00964879989624">
        <time>2026-04-25T13:28:30Z</time>
      </trkpt>
      <trkpt lat="59.072778224945068" lon="30.009670257568359">
        <time>2026-04-25T13:28:33Z</time>
      </trkpt>
      <trkpt lat="59.072778224945068" lon="30.009691715240479">
        <time>2026-04-25T13:28:35Z</time>
      </trkpt>
      <trkpt lat="59.072799682617187" lon="30.009734630584717">
        <time>2026-04-25T13:28:38Z</time>
      </trkpt>
      <trkpt lat="59.072821140289307" lon="30.009756088256836">
        <time>2026-04-25T13:28:40Z</time>
      </trkpt>
      <trkpt lat="59.072842597961426" lon="30.009799003601074">
        <time>2026-04-25T13:28:43Z</time>
      </trkpt>
      <trkpt lat="59.072842597961426" lon="30.009841918945313">
        <time>2026-04-25T13:28:45Z</time>
      </trkpt>
      <trkpt lat="59.072864055633545" lon="30.009863376617432">
        <time>2026-04-25T13:28:48Z</time>
      </trkpt>
      <trkpt lat="59.072864055633545" lon="30.00990629196167">
        <time>2026-04-25T13:28:50Z</time>
      </trkpt>
      <trkpt lat="59.072864055633545" lon="30.009884834289551">
        <time>2026-04-25T13:28:53Z</time>
      </trkpt>
      <trkpt lat="59.072864055633545" lon="30.00990629196167">
        <time>2026-04-25T13:28:55Z</time>
      </trkpt>
      <trkpt lat="59.072864055633545" lon="30.009949207305908">
        <time>2026-04-25T13:28:58Z</time>
      </trkpt>
      <trkpt lat="59.072885513305664" lon="30.009992122650146">
        <time>2026-04-25T13:29:00Z</time>
      </trkpt>
      <trkpt lat="59.072885513305664" lon="30.010035037994385">
        <time>2026-04-25T13:29:03Z</time>
      </trkpt>
      <trkpt lat="59.072885513305664" lon="30.010099411010742">
        <time>2026-04-25T13:29:05Z</time>
      </trkpt>
      <trkpt lat="59.072906970977783" lon="30.01014232635498">
        <time>2026-04-25T13:29:08Z</time>
      </trkpt>
      <trkpt lat="59.072906970977783" lon="30.010185241699219">
        <time>2026-04-25T13:29:10Z</time>
      </trkpt>
      <trkpt lat="59.072906970977783" lon="30.010228157043457">
        <time>2026-04-25T13:29:13Z</time>
      </trkpt>
      <trkpt lat="59.072906970977783" lon="30.010292530059814">
        <time>2026-04-25T13:29:15Z</time>
      </trkpt>
      <trkpt lat="59.072928428649902" lon="30.010335445404053">
        <time>2026-04-25T13:29:18Z</time>
      </trkpt>
      <trkpt lat="59.072928428649902" lon="30.010335445404053">
        <time>2026-04-25T13:29:20Z</time>
      </trkpt>
      <trkpt lat="59.072949886322021" lon="30.010356903076172">
        <time>2026-04-25T13:29:23Z</time>
      </trkpt>
      <trkpt lat="59.072971343994141" lon="30.01039981842041">
        <time>2026-04-25T13:29:25Z</time>
      </trkpt>
      <trkpt lat="59.07299280166626" lon="30.010421276092529">
        <time>2026-04-25T13:29:28Z</time>
      </trkpt>
      <trkpt lat="59.07299280166626" lon="30.010464191436768">
        <time>2026-04-25T13:29:30Z</time>
      </trkpt>
      <trkpt lat="59.07299280166626" lon="30.010485649108887">
        <time>2026-04-25T13:29:33Z</time>
      </trkpt>
      <trkpt lat="59.073014259338379" lon="30.010528564453125">
        <time>2026-04-25T13:29:35Z</time>
      </trkpt>
      <trkpt lat="59.073014259338379" lon="30.010571479797363">
        <time>2026-04-25T13:29:38Z</time>
      </trkpt>
      <trkpt lat="59.073014259338379" lon="30.010614395141602">
        <time>2026-04-25T13:29:40Z</time>
      </trkpt>
      <trkpt lat="59.073014259338379" lon="30.01065731048584">
        <time>2026-04-25T13:29:43Z</time>
      </trkpt>
      <trkpt lat="59.073014259338379" lon="30.010700225830078">
        <time>2026-04-25T13:29:45Z</time>
      </trkpt>
      <trkpt lat="59.073035717010498" lon="30.010743141174316">
        <time>2026-04-25T13:29:48Z</time>
      </trkpt>
      <trkpt lat="59.073014259338379" lon="30.010743141174316">
        <time>2026-04-25T13:29:50Z</time>
      </trkpt>
      <trkpt lat="59.073035717010498" lon="30.010743141174316">
        <time>2026-04-25T13:29:53Z</time>
      </trkpt>
      <trkpt lat="59.073035717010498" lon="30.010743141174316">
        <time>2026-04-25T13:29:55Z</time>
      </trkpt>
      <trkpt lat="59.073035717010498" lon="30.010743141174316">
        <time>2026-04-25T13:29:58Z</time>
      </trkpt>
      <trkpt lat="59.073035717010498" lon="30.010743141174316">
        <time>2026-04-25T13:30:00Z</time>
      </trkpt>
      <trkpt lat="59.073035717010498" lon="30.010743141174316">
        <time>2026-04-25T13:30:03Z</time>
      </trkpt>
      <trkpt lat="59.073035717010498" lon="30.010743141174316">
        <time>2026-04-25T13:30:05Z</time>
      </trkpt>
      <trkpt lat="59.073035717010498" lon="30.010743141174316">
        <time>2026-04-25T13:30:08Z</time>
      </trkpt>
      <trkpt lat="59.073035717010498" lon="30.010743141174316">
        <time>2026-04-25T13:30:10Z</time>
      </trkpt>
      <trkpt lat="59.073035717010498" lon="30.010743141174316">
        <time>2026-04-25T13:30:13Z</time>
      </trkpt>
      <trkpt lat="59.073035717010498" lon="30.010743141174316">
        <time>2026-04-25T13:30:15Z</time>
      </trkpt>
      <trkpt lat="59.073035717010498" lon="30.010743141174316">
        <time>2026-04-25T13:30:18Z</time>
      </trkpt>
      <trkpt lat="59.073035717010498" lon="30.010743141174316">
        <time>2026-04-25T13:30:20Z</time>
      </trkpt>
      <trkpt lat="59.073035717010498" lon="30.010743141174316">
        <time>2026-04-25T13:30:23Z</time>
      </trkpt>
      <trkpt lat="59.073035717010498" lon="30.010743141174316">
        <time>2026-04-25T13:30:25Z</time>
      </trkpt>
      <trkpt lat="59.073035717010498" lon="30.010743141174316">
        <time>2026-04-25T13:30:28Z</time>
      </trkpt>
      <trkpt lat="59.073035717010498" lon="30.010743141174316">
        <time>2026-04-25T13:30:30Z</time>
      </trkpt>
      <trkpt lat="59.073035717010498" lon="30.010743141174316">
        <time>2026-04-25T13:30:33Z</time>
      </trkpt>
      <trkpt lat="59.073035717010498" lon="30.010743141174316">
        <time>2026-04-25T13:30:35Z</time>
      </trkpt>
      <trkpt lat="59.073035717010498" lon="30.010743141174316">
        <time>2026-04-25T13:30:38Z</time>
      </trkpt>
      <trkpt lat="59.073035717010498" lon="30.010743141174316">
        <time>2026-04-25T13:30:40Z</time>
      </trkpt>
      <trkpt lat="59.073035717010498" lon="30.010743141174316">
        <time>2026-04-25T13:30:43Z</time>
      </trkpt>
      <trkpt lat="59.073035717010498" lon="30.010743141174316">
        <time>2026-04-25T13:30:45Z</time>
      </trkpt>
      <trkpt lat="59.073035717010498" lon="30.010743141174316">
        <time>2026-04-25T13:30:48Z</time>
      </trkpt>
      <trkpt lat="59.073035717010498" lon="30.010743141174316">
        <time>2026-04-25T13:30:50Z</time>
      </trkpt>
      <trkpt lat="59.073035717010498" lon="30.010743141174316">
        <time>2026-04-25T13:30:53Z</time>
      </trkpt>
      <trkpt lat="59.073035717010498" lon="30.010743141174316">
        <time>2026-04-25T13:30:55Z</time>
      </trkpt>
      <trkpt lat="59.073035717010498" lon="30.010743141174316">
        <time>2026-04-25T13:30:58Z</time>
      </trkpt>
      <trkpt lat="59.073035717010498" lon="30.010743141174316">
        <time>2026-04-25T13:31:00Z</time>
      </trkpt>
      <trkpt lat="59.073035717010498" lon="30.010743141174316">
        <time>2026-04-25T13:31:03Z</time>
      </trkpt>
      <trkpt lat="59.073035717010498" lon="30.010743141174316">
        <time>2026-04-25T13:31:05Z</time>
      </trkpt>
      <trkpt lat="59.073035717010498" lon="30.010743141174316">
        <time>2026-04-25T13:31:08Z</time>
      </trkpt>
      <trkpt lat="59.073035717010498" lon="30.010743141174316">
        <time>2026-04-25T13:31:10Z</time>
      </trkpt>
      <trkpt lat="59.073035717010498" lon="30.010743141174316">
        <time>2026-04-25T13:31:13Z</time>
      </trkpt>
      <trkpt lat="59.073035717010498" lon="30.010743141174316">
        <time>2026-04-25T13:31:15Z</time>
      </trkpt>
      <trkpt lat="59.073035717010498" lon="30.010743141174316">
        <time>2026-04-25T13:31:18Z</time>
      </trkpt>
      <trkpt lat="59.073035717010498" lon="30.010743141174316">
        <time>2026-04-25T13:31:20Z</time>
      </trkpt>
      <trkpt lat="59.073035717010498" lon="30.010743141174316">
        <time>2026-04-25T13:31:23Z</time>
      </trkpt>
      <trkpt lat="59.073035717010498" lon="30.010743141174316">
        <time>2026-04-25T13:31:25Z</time>
      </trkpt>
      <trkpt lat="59.073014259338379" lon="30.010743141174316">
        <time>2026-04-25T13:31:30Z</time>
      </trkpt>
      <trkpt lat="59.073014259338379" lon="30.010743141174316">
        <time>2026-04-25T13:31:33Z</time>
      </trkpt>
      <trkpt lat="59.073014259338379" lon="30.010743141174316">
        <time>2026-04-25T13:31:35Z</time>
      </trkpt>
      <trkpt lat="59.073014259338379" lon="30.010743141174316">
        <time>2026-04-25T13:31:38Z</time>
      </trkpt>
      <trkpt lat="59.073014259338379" lon="30.010743141174316">
        <time>2026-04-25T13:31:40Z</time>
      </trkpt>
      <trkpt lat="59.073014259338379" lon="30.010743141174316">
        <time>2026-04-25T13:31:43Z</time>
      </trkpt>
      <trkpt lat="59.073014259338379" lon="30.010743141174316">
        <time>2026-04-25T13:31:45Z</time>
      </trkpt>
      <trkpt lat="59.073014259338379" lon="30.010743141174316">
        <time>2026-04-25T13:31:48Z</time>
      </trkpt>
      <trkpt lat="59.073014259338379" lon="30.010743141174316">
        <time>2026-04-25T13:31:50Z</time>
      </trkpt>
      <trkpt lat="59.073014259338379" lon="30.010743141174316">
        <time>2026-04-25T13:31:53Z</time>
      </trkpt>
      <trkpt lat="59.073014259338379" lon="30.010743141174316">
        <time>2026-04-25T13:31:55Z</time>
      </trkpt>
      <trkpt lat="59.073014259338379" lon="30.010743141174316">
        <time>2026-04-25T13:31:58Z</time>
      </trkpt>
      <trkpt lat="59.073014259338379" lon="30.010743141174316">
        <time>2026-04-25T13:32:00Z</time>
      </trkpt>
      <trkpt lat="59.073014259338379" lon="30.010743141174316">
        <time>2026-04-25T13:32:03Z</time>
      </trkpt>
      <trkpt lat="59.073014259338379" lon="30.010743141174316">
        <time>2026-04-25T13:32:05Z</time>
      </trkpt>
      <trkpt lat="59.073014259338379" lon="30.010743141174316">
        <time>2026-04-25T13:32:08Z</time>
      </trkpt>
      <trkpt lat="59.073014259338379" lon="30.010743141174316">
        <time>2026-04-25T13:32:10Z</time>
      </trkpt>
      <trkpt lat="59.073014259338379" lon="30.010743141174316">
        <time>2026-04-25T13:32:13Z</time>
      </trkpt>
      <trkpt lat="59.073014259338379" lon="30.010743141174316">
        <time>2026-04-25T13:32:15Z</time>
      </trkpt>
      <trkpt lat="59.073014259338379" lon="30.010743141174316">
        <time>2026-04-25T13:32:18Z</time>
      </trkpt>
      <trkpt lat="59.073014259338379" lon="30.010743141174316">
        <time>2026-04-25T13:32:20Z</time>
      </trkpt>
      <trkpt lat="59.073014259338379" lon="30.010743141174316">
        <time>2026-04-25T13:32:23Z</time>
      </trkpt>
      <trkpt lat="59.073014259338379" lon="30.010743141174316">
        <time>2026-04-25T13:32:25Z</time>
      </trkpt>
      <trkpt lat="59.073014259338379" lon="30.010743141174316">
        <time>2026-04-25T13:32:28Z</time>
      </trkpt>
      <trkpt lat="59.073014259338379" lon="30.010743141174316">
        <time>2026-04-25T13:32:30Z</time>
      </trkpt>
      <trkpt lat="59.073014259338379" lon="30.010743141174316">
        <time>2026-04-25T13:32:33Z</time>
      </trkpt>
      <trkpt lat="59.073014259338379" lon="30.010743141174316">
        <time>2026-04-25T13:32:35Z</time>
      </trkpt>
      <trkpt lat="59.07299280166626" lon="30.010764598846436">
        <time>2026-04-25T13:32:38Z</time>
      </trkpt>
      <trkpt lat="59.072971343994141" lon="30.010764598846436">
        <time>2026-04-25T13:32:40Z</time>
      </trkpt>
      <trkpt lat="59.072928428649902" lon="30.010764598846436">
        <time>2026-04-25T13:32:43Z</time>
      </trkpt>
      <trkpt lat="59.072906970977783" lon="30.010764598846436">
        <time>2026-04-25T13:32:45Z</time>
      </trkpt>
      <trkpt lat="59.072885513305664" lon="30.010764598846436">
        <time>2026-04-25T13:32:48Z</time>
      </trkpt>
      <trkpt lat="59.072864055633545" lon="30.010764598846436">
        <time>2026-04-25T13:32:50Z</time>
      </trkpt>
      <trkpt lat="59.072842597961426" lon="30.010786056518555">
        <time>2026-04-25T13:32:53Z</time>
      </trkpt>
      <trkpt lat="59.072821140289307" lon="30.010807514190674">
        <time>2026-04-25T13:32:55Z</time>
      </trkpt>
      <trkpt lat="59.072799682617187" lon="30.010828971862793">
        <time>2026-04-25T13:32:58Z</time>
      </trkpt>
      <trkpt lat="59.072778224945068" lon="30.010807514190674">
        <time>2026-04-25T13:33:00Z</time>
      </trkpt>
      <trkpt lat="59.072756767272949" lon="30.010828971862793">
        <time>2026-04-25T13:33:03Z</time>
      </trkpt>
      <trkpt lat="59.07273530960083" lon="30.010828971862793">
        <time>2026-04-25T13:33:05Z</time>
      </trkpt>
      <trkpt lat="59.072713851928711" lon="30.010828971862793">
        <time>2026-04-25T13:33:08Z</time>
      </trkpt>
      <trkpt lat="59.072692394256592" lon="30.010850429534912">
        <time>2026-04-25T13:33:10Z</time>
      </trkpt>
      <trkpt lat="59.072692394256592" lon="30.010871887207031">
        <time>2026-04-25T13:33:13Z</time>
      </trkpt>
      <trkpt lat="59.072670936584473" lon="30.010871887207031">
        <time>2026-04-25T13:33:15Z</time>
      </trkpt>
      <trkpt lat="59.072649478912354" lon="30.01089334487915">
        <time>2026-04-25T13:33:18Z</time>
      </trkpt>
      <trkpt lat="59.072628021240234" lon="30.01089334487915">
        <time>2026-04-25T13:33:20Z</time>
      </trkpt>
      <trkpt lat="59.072606563568115" lon="30.01091480255127">
        <time>2026-04-25T13:33:23Z</time>
      </trkpt>
      <trkpt lat="59.072585105895996" lon="30.010936260223389">
        <time>2026-04-25T13:33:25Z</time>
      </trkpt>
      <trkpt lat="59.072563648223877" lon="30.010936260223389">
        <time>2026-04-25T13:33:28Z</time>
      </trkpt>
      <trkpt lat="59.072563648223877" lon="30.010936260223389">
        <time>2026-04-25T13:33:30Z</time>
      </trkpt>
      <trkpt lat="59.072563648223877" lon="30.010936260223389">
        <time>2026-04-25T13:33:33Z</time>
      </trkpt>
      <trkpt lat="59.072563648223877" lon="30.010936260223389">
        <time>2026-04-25T13:33:35Z</time>
      </trkpt>
      <trkpt lat="59.072563648223877" lon="30.010936260223389">
        <time>2026-04-25T13:33:38Z</time>
      </trkpt>
      <trkpt lat="59.072585105895996" lon="30.010936260223389">
        <time>2026-04-25T13:33:40Z</time>
      </trkpt>
      <trkpt lat="59.072585105895996" lon="30.010936260223389">
        <time>2026-04-25T13:33:43Z</time>
      </trkpt>
      <trkpt lat="59.072585105895996" lon="30.010936260223389">
        <time>2026-04-25T13:33:45Z</time>
      </trkpt>
      <trkpt lat="59.072585105895996" lon="30.010936260223389">
        <time>2026-04-25T13:33:48Z</time>
      </trkpt>
      <trkpt lat="59.072585105895996" lon="30.010936260223389">
        <time>2026-04-25T13:33:50Z</time>
      </trkpt>
      <trkpt lat="59.072585105895996" lon="30.010936260223389">
        <time>2026-04-25T13:33:53Z</time>
      </trkpt>
      <trkpt lat="59.072585105895996" lon="30.010936260223389">
        <time>2026-04-25T13:33:55Z</time>
      </trkpt>
      <trkpt lat="59.072585105895996" lon="30.010936260223389">
        <time>2026-04-25T13:33:58Z</time>
      </trkpt>
      <trkpt lat="59.072585105895996" lon="30.010936260223389">
        <time>2026-04-25T13:34:00Z</time>
      </trkpt>
      <trkpt lat="59.072585105895996" lon="30.010936260223389">
        <time>2026-04-25T13:34:03Z</time>
      </trkpt>
      <trkpt lat="59.072585105895996" lon="30.010936260223389">
        <time>2026-04-25T13:34:05Z</time>
      </trkpt>
      <trkpt lat="59.072563648223877" lon="30.01089334487915">
        <time>2026-04-25T13:34:08Z</time>
      </trkpt>
      <trkpt lat="59.072542190551758" lon="30.010807514190674">
        <time>2026-04-25T13:34:10Z</time>
      </trkpt>
      <trkpt lat="59.072520732879639" lon="30.010743141174316">
        <time>2026-04-25T13:34:13Z</time>
      </trkpt>
      <trkpt lat="59.07249927520752" lon="30.010678768157959">
        <time>2026-04-25T13:34:15Z</time>
      </trkpt>
      <trkpt lat="59.0724778175354" lon="30.01065731048584">
        <time>2026-04-25T13:34:18Z</time>
      </trkpt>
      <trkpt lat="59.072456359863281" lon="30.010635852813721">
        <time>2026-04-25T13:34:20Z</time>
      </trkpt>
      <trkpt lat="59.072456359863281" lon="30.010614395141602">
        <time>2026-04-25T13:34:23Z</time>
      </trkpt>
      <trkpt lat="59.072456359863281" lon="30.010592937469482">
        <time>2026-04-25T13:34:25Z</time>
      </trkpt>
      <trkpt lat="59.072434902191162" lon="30.010571479797363">
        <time>2026-04-25T13:34:28Z</time>
      </trkpt>
      <trkpt lat="59.072413444519043" lon="30.010550022125244">
        <time>2026-04-25T13:34:30Z</time>
      </trkpt>
      <trkpt lat="59.072391986846924" lon="30.010528564453125">
        <time>2026-04-25T13:34:33Z</time>
      </trkpt>
      <trkpt lat="59.072413444519043" lon="30.010507106781006">
        <time>2026-04-25T13:34:35Z</time>
      </trkpt>
      <trkpt lat="59.072391986846924" lon="30.010464191436768">
        <time>2026-04-25T13:34:38Z</time>
      </trkpt>
      <trkpt lat="59.072391986846924" lon="30.010442733764648">
        <time>2026-04-25T13:34:40Z</time>
      </trkpt>
      <trkpt lat="59.072370529174805" lon="30.010421276092529">
        <time>2026-04-25T13:34:43Z</time>
      </trkpt>
      <trkpt lat="59.072349071502686" lon="30.010378360748291">
        <time>2026-04-25T13:34:45Z</time>
      </trkpt>
      <trkpt lat="59.072349071502686" lon="30.010356903076172">
        <time>2026-04-25T13:34:48Z</time>
      </trkpt>
      <trkpt lat="59.072327613830566" lon="30.010335445404053">
        <time>2026-04-25T13:34:50Z</time>
      </trkpt>
      <trkpt lat="59.072306156158447" lon="30.010335445404053">
        <time>2026-04-25T13:34:53Z</time>
      </trkpt>
      <trkpt lat="59.072306156158447" lon="30.010313987731934">
        <time>2026-04-25T13:34:55Z</time>
      </trkpt>
      <trkpt lat="59.072284698486328" lon="30.010313987731934">
        <time>2026-04-25T13:34:58Z</time>
      </trkpt>
      <trkpt lat="59.072263240814209" lon="30.010292530059814">
        <time>2026-04-25T13:35:00Z</time>
      </trkpt>
      <trkpt lat="59.072263240814209" lon="30.010292530059814">
        <time>2026-04-25T13:35:03Z</time>
      </trkpt>
      <trkpt lat="59.072263240814209" lon="30.010249614715576">
        <time>2026-04-25T13:35:05Z</time>
      </trkpt>
      <trkpt lat="59.07224178314209" lon="30.010249614715576">
        <time>2026-04-25T13:35:08Z</time>
      </trkpt>
      <trkpt lat="59.07224178314209" lon="30.010228157043457">
        <time>2026-04-25T13:35:10Z</time>
      </trkpt>
      <trkpt lat="59.07224178314209" lon="30.010206699371338">
        <time>2026-04-25T13:35:13Z</time>
      </trkpt>
      <trkpt lat="59.07224178314209" lon="30.01014232635498">
        <time>2026-04-25T13:35:15Z</time>
      </trkpt>
      <trkpt lat="59.072263240814209" lon="30.010099411010742">
        <time>2026-04-25T13:35:18Z</time>
      </trkpt>
      <trkpt lat="59.07224178314209" lon="30.010035037994385">
        <time>2026-04-25T13:35:20Z</time>
      </trkpt>
      <trkpt lat="59.07224178314209" lon="30.010013580322266">
        <time>2026-04-25T13:35:23Z</time>
      </trkpt>
      <trkpt lat="59.072220325469971" lon="30.009992122650146">
        <time>2026-04-25T13:35:25Z</time>
      </trkpt>
      <trkpt lat="59.072198867797852" lon="30.009970664978027">
        <time>2026-04-25T13:35:28Z</time>
      </trkpt>
      <trkpt lat="59.072198867797852" lon="30.009949207305908">
        <time>2026-04-25T13:35:30Z</time>
      </trkpt>
      <trkpt lat="59.072198867797852" lon="30.009927749633789">
        <time>2026-04-25T13:35:33Z</time>
      </trkpt>
      <trkpt lat="59.072177410125732" lon="30.009884834289551">
        <time>2026-04-25T13:35:35Z</time>
      </trkpt>
      <trkpt lat="59.072155952453613" lon="30.009841918945313">
        <time>2026-04-25T13:35:38Z</time>
      </trkpt>
      <trkpt lat="59.072155952453613" lon="30.009799003601074">
        <time>2026-04-25T13:35:40Z</time>
      </trkpt>
      <trkpt lat="59.072177410125732" lon="30.009756088256836">
        <time>2026-04-25T13:35:43Z</time>
      </trkpt>
      <trkpt lat="59.072177410125732" lon="30.009713172912598">
        <time>2026-04-25T13:35:45Z</time>
      </trkpt>
      <trkpt lat="59.072155952453613" lon="30.009670257568359">
        <time>2026-04-25T13:35:48Z</time>
      </trkpt>
      <trkpt lat="59.072155952453613" lon="30.009627342224121">
        <time>2026-04-25T13:35:50Z</time>
      </trkpt>
      <trkpt lat="59.072155952453613" lon="30.009584426879883">
        <time>2026-04-25T13:35:53Z</time>
      </trkpt>
      <trkpt lat="59.072134494781494" lon="30.009541511535645">
        <time>2026-04-25T13:35:55Z</time>
      </trkpt>
      <trkpt lat="59.072134494781494" lon="30.009498596191406">
        <time>2026-04-25T13:35:58Z</time>
      </trkpt>
      <trkpt lat="59.072134494781494" lon="30.009455680847168">
        <time>2026-04-25T13:36:00Z</time>
      </trkpt>
      <trkpt lat="59.072113037109375" lon="30.009434223175049">
        <time>2026-04-25T13:36:03Z</time>
      </trkpt>
      <trkpt lat="59.072113037109375" lon="30.009391307830811">
        <time>2026-04-25T13:36:05Z</time>
      </trkpt>
      <trkpt lat="59.072113037109375" lon="30.009348392486572">
        <time>2026-04-25T13:36:08Z</time>
      </trkpt>
      <trkpt lat="59.072091579437256" lon="30.009305477142334">
        <time>2026-04-25T13:36:10Z</time>
      </trkpt>
      <trkpt lat="59.072091579437256" lon="30.009284019470215">
        <time>2026-04-25T13:36:13Z</time>
      </trkpt>
      <trkpt lat="59.072070121765137" lon="30.009262561798096">
        <time>2026-04-25T13:36:15Z</time>
      </trkpt>
      <trkpt lat="59.072048664093018" lon="30.009262561798096">
        <time>2026-04-25T13:36:18Z</time>
      </trkpt>
      <trkpt lat="59.072027206420898" lon="30.009219646453857">
        <time>2026-04-25T13:36:20Z</time>
      </trkpt>
      <trkpt lat="59.072005748748779" lon="30.009198188781738">
        <time>2026-04-25T13:36:23Z</time>
      </trkpt>
      <trkpt lat="59.07198429107666" lon="30.009176731109619">
        <time>2026-04-25T13:36:25Z</time>
      </trkpt>
      <trkpt lat="59.07198429107666" lon="30.009133815765381">
        <time>2026-04-25T13:36:28Z</time>
      </trkpt>
      <trkpt lat="59.071962833404541" lon="30.009090900421143">
        <time>2026-04-25T13:36:30Z</time>
      </trkpt>
      <trkpt lat="59.071962833404541" lon="30.009069442749023">
        <time>2026-04-25T13:36:33Z</time>
      </trkpt>
      <trkpt lat="59.071962833404541" lon="30.009026527404785">
        <time>2026-04-25T13:36:35Z</time>
      </trkpt>
      <trkpt lat="59.071941375732422" lon="30.008983612060547">
        <time>2026-04-25T13:36:38Z</time>
      </trkpt>
      <trkpt lat="59.071941375732422" lon="30.008940696716309">
        <time>2026-04-25T13:36:40Z</time>
      </trkpt>
      <trkpt lat="59.071941375732422" lon="30.008876323699951">
        <time>2026-04-25T13:36:43Z</time>
      </trkpt>
      <trkpt lat="59.071941375732422" lon="30.008854866027832">
        <time>2026-04-25T13:36:45Z</time>
      </trkpt>
      <trkpt lat="59.071941375732422" lon="30.008790493011475">
        <time>2026-04-25T13:36:48Z</time>
      </trkpt>
      <trkpt lat="59.071919918060303" lon="30.008769035339355">
        <time>2026-04-25T13:36:50Z</time>
      </trkpt>
      <trkpt lat="59.071919918060303" lon="30.008747577667236">
        <time>2026-04-25T13:36:53Z</time>
      </trkpt>
      <trkpt lat="59.071919918060303" lon="30.008747577667236">
        <time>2026-04-25T13:36:55Z</time>
      </trkpt>
      <trkpt lat="59.071898460388184" lon="30.008726119995117">
        <time>2026-04-25T13:36:58Z</time>
      </trkpt>
      <trkpt lat="59.071877002716064" lon="30.008747577667236">
        <time>2026-04-25T13:37:00Z</time>
      </trkpt>
      <trkpt lat="59.071855545043945" lon="30.008704662322998">
        <time>2026-04-25T13:37:03Z</time>
      </trkpt>
      <trkpt lat="59.071834087371826" lon="30.008683204650879">
        <time>2026-04-25T13:37:05Z</time>
      </trkpt>
      <trkpt lat="59.071812629699707" lon="30.008640289306641">
        <time>2026-04-25T13:37:08Z</time>
      </trkpt>
      <trkpt lat="59.071812629699707" lon="30.008597373962402">
        <time>2026-04-25T13:37:10Z</time>
      </trkpt>
      <trkpt lat="59.071791172027588" lon="30.008597373962402">
        <time>2026-04-25T13:37:13Z</time>
      </trkpt>
      <trkpt lat="59.071791172027588" lon="30.008597373962402">
        <time>2026-04-25T13:37:15Z</time>
      </trkpt>
      <trkpt lat="59.071769714355469" lon="30.008554458618164">
        <time>2026-04-25T13:37:18Z</time>
      </trkpt>
      <trkpt lat="59.07174825668335" lon="30.008554458618164">
        <time>2026-04-25T13:37:20Z</time>
      </trkpt>
      <trkpt lat="59.07174825668335" lon="30.008533000946045">
        <time>2026-04-25T13:37:23Z</time>
      </trkpt>
      <trkpt lat="59.07174825668335" lon="30.008554458618164">
        <time>2026-04-25T13:37:25Z</time>
      </trkpt>
      <trkpt lat="59.07174825668335" lon="30.008554458618164">
        <time>2026-04-25T13:37:28Z</time>
      </trkpt>
      <trkpt lat="59.07174825668335" lon="30.008554458618164">
        <time>2026-04-25T13:37:30Z</time>
      </trkpt>
      <trkpt lat="59.07174825668335" lon="30.008554458618164">
        <time>2026-04-25T13:37:33Z</time>
      </trkpt>
      <trkpt lat="59.07174825668335" lon="30.008554458618164">
        <time>2026-04-25T13:37:35Z</time>
      </trkpt>
      <trkpt lat="59.07174825668335" lon="30.008554458618164">
        <time>2026-04-25T13:37:38Z</time>
      </trkpt>
      <trkpt lat="59.07172679901123" lon="30.008554458618164">
        <time>2026-04-25T13:37:40Z</time>
      </trkpt>
      <trkpt lat="59.071705341339111" lon="30.008511543273926">
        <time>2026-04-25T13:37:43Z</time>
      </trkpt>
      <trkpt lat="59.071662425994873" lon="30.008468627929687">
        <time>2026-04-25T13:37:45Z</time>
      </trkpt>
      <trkpt lat="59.071640968322754" lon="30.008425712585449">
        <time>2026-04-25T13:37:48Z</time>
      </trkpt>
      <trkpt lat="59.071619510650635" lon="30.00840425491333">
        <time>2026-04-25T13:37:50Z</time>
      </trkpt>
      <trkpt lat="59.071640968322754" lon="30.008382797241211">
        <time>2026-04-25T13:37:53Z</time>
      </trkpt>
      <trkpt lat="59.071640968322754" lon="30.008382797241211">
        <time>2026-04-25T13:37:55Z</time>
      </trkpt>
      <trkpt lat="59.071640968322754" lon="30.008382797241211">
        <time>2026-04-25T13:37:58Z</time>
      </trkpt>
      <trkpt lat="59.071640968322754" lon="30.008382797241211">
        <time>2026-04-25T13:38:00Z</time>
      </trkpt>
      <trkpt lat="59.071640968322754" lon="30.008382797241211">
        <time>2026-04-25T13:38:03Z</time>
      </trkpt>
      <trkpt lat="59.071662425994873" lon="30.00840425491333">
        <time>2026-04-25T13:38:05Z</time>
      </trkpt>
      <trkpt lat="59.071705341339111" lon="30.008425712585449">
        <time>2026-04-25T13:38:08Z</time>
      </trkpt>
      <trkpt lat="59.071769714355469" lon="30.00840425491333">
        <time>2026-04-25T13:38:10Z</time>
      </trkpt>
      <trkpt lat="59.071812629699707" lon="30.008382797241211">
        <time>2026-04-25T13:38:13Z</time>
      </trkpt>
      <trkpt lat="59.071834087371826" lon="30.008339881896973">
        <time>2026-04-25T13:38:15Z</time>
      </trkpt>
      <trkpt lat="59.071834087371826" lon="30.008339881896973">
        <time>2026-04-25T13:38:18Z</time>
      </trkpt>
      <trkpt lat="59.071834087371826" lon="30.008318424224854">
        <time>2026-04-25T13:38:20Z</time>
      </trkpt>
      <trkpt lat="59.071834087371826" lon="30.008318424224854">
        <time>2026-04-25T13:38:23Z</time>
      </trkpt>
      <trkpt lat="59.071834087371826" lon="30.008318424224854">
        <time>2026-04-25T13:38:25Z</time>
      </trkpt>
      <trkpt lat="59.071834087371826" lon="30.008339881896973">
        <time>2026-04-25T13:38:28Z</time>
      </trkpt>
      <trkpt lat="59.071812629699707" lon="30.008361339569092">
        <time>2026-04-25T13:38:30Z</time>
      </trkpt>
      <trkpt lat="59.071812629699707" lon="30.008318424224854">
        <time>2026-04-25T13:38:33Z</time>
      </trkpt>
      <trkpt lat="59.071791172027588" lon="30.008318424224854">
        <time>2026-04-25T13:38:35Z</time>
      </trkpt>
      <trkpt lat="59.071769714355469" lon="30.008296966552734">
        <time>2026-04-25T13:38:38Z</time>
      </trkpt>
      <trkpt lat="59.071769714355469" lon="30.008275508880615">
        <time>2026-04-25T13:38:40Z</time>
      </trkpt>
      <trkpt lat="59.071769714355469" lon="30.008254051208496">
        <time>2026-04-25T13:38:43Z</time>
      </trkpt>
      <trkpt lat="59.07174825668335" lon="30.008232593536377">
        <time>2026-04-25T13:38:45Z</time>
      </trkpt>
      <trkpt lat="59.07174825668335" lon="30.008211135864258">
        <time>2026-04-25T13:38:48Z</time>
      </trkpt>
      <trkpt lat="59.07172679901123" lon="30.008211135864258">
        <time>2026-04-25T13:38:50Z</time>
      </trkpt>
      <trkpt lat="59.071705341339111" lon="30.008189678192139">
        <time>2026-04-25T13:38:53Z</time>
      </trkpt>
      <trkpt lat="59.071683883666992" lon="30.008189678192139">
        <time>2026-04-25T13:38:55Z</time>
      </trkpt>
      <trkpt lat="59.071683883666992" lon="30.00816822052002">
        <time>2026-04-25T13:38:58Z</time>
      </trkpt>
      <trkpt lat="59.071683883666992" lon="30.0081467628479">
        <time>2026-04-25T13:39:00Z</time>
      </trkpt>
      <trkpt lat="59.071662425994873" lon="30.008125305175781">
        <time>2026-04-25T13:39:03Z</time>
      </trkpt>
      <trkpt lat="59.071662425994873" lon="30.008125305175781">
        <time>2026-04-25T13:39:05Z</time>
      </trkpt>
      <trkpt lat="59.071662425994873" lon="30.0081467628479">
        <time>2026-04-25T13:39:08Z</time>
      </trkpt>
      <trkpt lat="59.071640968322754" lon="30.00816822052002">
        <time>2026-04-25T13:39:10Z</time>
      </trkpt>
      <trkpt lat="59.071619510650635" lon="30.008211135864258">
        <time>2026-04-25T13:39:13Z</time>
      </trkpt>
      <trkpt lat="59.071619510650635" lon="30.008232593536377">
        <time>2026-04-25T13:39:15Z</time>
      </trkpt>
      <trkpt lat="59.071598052978516" lon="30.008254051208496">
        <time>2026-04-25T13:39:18Z</time>
      </trkpt>
      <trkpt lat="59.071598052978516" lon="30.008296966552734">
        <time>2026-04-25T13:39:20Z</time>
      </trkpt>
      <trkpt lat="59.071598052978516" lon="30.008339881896973">
        <time>2026-04-25T13:39:23Z</time>
      </trkpt>
      <trkpt lat="59.071576595306396" lon="30.008361339569092">
        <time>2026-04-25T13:39:25Z</time>
      </trkpt>
      <trkpt lat="59.071576595306396" lon="30.008361339569092">
        <time>2026-04-25T13:39:28Z</time>
      </trkpt>
      <trkpt lat="59.071576595306396" lon="30.008361339569092">
        <time>2026-04-25T13:39:30Z</time>
      </trkpt>
      <trkpt lat="59.071576595306396" lon="30.008382797241211">
        <time>2026-04-25T13:39:33Z</time>
      </trkpt>
      <trkpt lat="59.071576595306396" lon="30.008447170257568">
        <time>2026-04-25T13:39:35Z</time>
      </trkpt>
      <trkpt lat="59.071555137634277" lon="30.008490085601807">
        <time>2026-04-25T13:39:38Z</time>
      </trkpt>
      <trkpt lat="59.071533679962158" lon="30.008511543273926">
        <time>2026-04-25T13:39:40Z</time>
      </trkpt>
      <trkpt lat="59.071512222290039" lon="30.008533000946045">
        <time>2026-04-25T13:39:43Z</time>
      </trkpt>
      <trkpt lat="59.071512222290039" lon="30.008554458618164">
        <time>2026-04-25T13:39:45Z</time>
      </trkpt>
      <trkpt lat="59.07149076461792" lon="30.008554458618164">
        <time>2026-04-25T13:39:48Z</time>
      </trkpt>
      <trkpt lat="59.07149076461792" lon="30.008618831634521">
        <time>2026-04-25T13:39:50Z</time>
      </trkpt>
      <trkpt lat="59.07149076461792" lon="30.008640289306641">
        <time>2026-04-25T13:39:53Z</time>
      </trkpt>
      <trkpt lat="59.071469306945801" lon="30.008640289306641">
        <time>2026-04-25T13:39:55Z</time>
      </trkpt>
      <trkpt lat="59.071469306945801" lon="30.00866174697876">
        <time>2026-04-25T13:39:58Z</time>
      </trkpt>
      <trkpt lat="59.071469306945801" lon="30.00866174697876">
        <time>2026-04-25T13:40:00Z</time>
      </trkpt>
      <trkpt lat="59.071469306945801" lon="30.00866174697876">
        <time>2026-04-25T13:40:03Z</time>
      </trkpt>
      <trkpt lat="59.071469306945801" lon="30.00866174697876">
        <time>2026-04-25T13:40:05Z</time>
      </trkpt>
      <trkpt lat="59.071469306945801" lon="30.00866174697876">
        <time>2026-04-25T13:40:08Z</time>
      </trkpt>
      <trkpt lat="59.071469306945801" lon="30.00866174697876">
        <time>2026-04-25T13:40:10Z</time>
      </trkpt>
      <trkpt lat="59.071469306945801" lon="30.00866174697876">
        <time>2026-04-25T13:40:13Z</time>
      </trkpt>
      <trkpt lat="59.071469306945801" lon="30.00866174697876">
        <time>2026-04-25T13:40:15Z</time>
      </trkpt>
      <trkpt lat="59.071469306945801" lon="30.00866174697876">
        <time>2026-04-25T13:40:18Z</time>
      </trkpt>
      <trkpt lat="59.071469306945801" lon="30.00866174697876">
        <time>2026-04-25T13:40:20Z</time>
      </trkpt>
      <trkpt lat="59.071469306945801" lon="30.00866174697876">
        <time>2026-04-25T13:40:23Z</time>
      </trkpt>
      <trkpt lat="59.071469306945801" lon="30.00866174697876">
        <time>2026-04-25T13:40:25Z</time>
      </trkpt>
      <trkpt lat="59.071469306945801" lon="30.00866174697876">
        <time>2026-04-25T13:40:28Z</time>
      </trkpt>
      <trkpt lat="59.071469306945801" lon="30.00866174697876">
        <time>2026-04-25T13:40:30Z</time>
      </trkpt>
      <trkpt lat="59.071469306945801" lon="30.00866174697876">
        <time>2026-04-25T13:40:33Z</time>
      </trkpt>
      <trkpt lat="59.071469306945801" lon="30.008683204650879">
        <time>2026-04-25T13:40:35Z</time>
      </trkpt>
      <trkpt lat="59.07149076461792" lon="30.008747577667236">
        <time>2026-04-25T13:40:38Z</time>
      </trkpt>
      <trkpt lat="59.07149076461792" lon="30.008790493011475">
        <time>2026-04-25T13:40:40Z</time>
      </trkpt>
      <trkpt lat="59.071512222290039" lon="30.008854866027832">
        <time>2026-04-25T13:40:43Z</time>
      </trkpt>
      <trkpt lat="59.071533679962158" lon="30.00889778137207">
        <time>2026-04-25T13:40:45Z</time>
      </trkpt>
      <trkpt lat="59.071533679962158" lon="30.008962154388428">
        <time>2026-04-25T13:40:48Z</time>
      </trkpt>
      <trkpt lat="59.071533679962158" lon="30.009005069732666">
        <time>2026-04-25T13:40:50Z</time>
      </trkpt>
      <trkpt lat="59.071533679962158" lon="30.009047985076904">
        <time>2026-04-25T13:40:53Z</time>
      </trkpt>
      <trkpt lat="59.071533679962158" lon="30.009090900421143">
        <time>2026-04-25T13:40:55Z</time>
      </trkpt>
      <trkpt lat="59.071555137634277" lon="30.009112358093262">
        <time>2026-04-25T13:40:58Z</time>
      </trkpt>
      <trkpt lat="59.071555137634277" lon="30.009133815765381">
        <time>2026-04-25T13:41:00Z</time>
      </trkpt>
      <trkpt lat="59.071576595306396" lon="30.0091552734375">
        <time>2026-04-25T13:41:03Z</time>
      </trkpt>
      <trkpt lat="59.071576595306396" lon="30.0091552734375">
        <time>2026-04-25T13:41:05Z</time>
      </trkpt>
      <trkpt lat="59.071598052978516" lon="30.009176731109619">
        <time>2026-04-25T13:41:08Z</time>
      </trkpt>
      <trkpt lat="59.071598052978516" lon="30.009198188781738">
        <time>2026-04-25T13:41:10Z</time>
      </trkpt>
      <trkpt lat="59.071619510650635" lon="30.009241104125977">
        <time>2026-04-25T13:41:13Z</time>
      </trkpt>
      <trkpt lat="59.071619510650635" lon="30.009284019470215">
        <time>2026-04-25T13:41:15Z</time>
      </trkpt>
      <trkpt lat="59.071619510650635" lon="30.009326934814453">
        <time>2026-04-25T13:41:18Z</time>
      </trkpt>
      <trkpt lat="59.071640968322754" lon="30.009348392486572">
        <time>2026-04-25T13:41:20Z</time>
      </trkpt>
      <trkpt lat="59.071662425994873" lon="30.009348392486572">
        <time>2026-04-25T13:41:23Z</time>
      </trkpt>
      <trkpt lat="59.071683883666992" lon="30.009391307830811">
        <time>2026-04-25T13:41:25Z</time>
      </trkpt>
      <trkpt lat="59.071705341339111" lon="30.00941276550293">
        <time>2026-04-25T13:41:28Z</time>
      </trkpt>
      <trkpt lat="59.071705341339111" lon="30.00941276550293">
        <time>2026-04-25T13:41:30Z</time>
      </trkpt>
      <trkpt lat="59.07172679901123" lon="30.009434223175049">
        <time>2026-04-25T13:41:33Z</time>
      </trkpt>
      <trkpt lat="59.07174825668335" lon="30.009477138519287">
        <time>2026-04-25T13:41:35Z</time>
      </trkpt>
      <trkpt lat="59.07174825668335" lon="30.009498596191406">
        <time>2026-04-25T13:41:38Z</time>
      </trkpt>
      <trkpt lat="59.07174825668335" lon="30.009541511535645">
        <time>2026-04-25T13:41:40Z</time>
      </trkpt>
      <trkpt lat="59.07174825668335" lon="30.009562969207764">
        <time>2026-04-25T13:41:43Z</time>
      </trkpt>
      <trkpt lat="59.07174825668335" lon="30.009605884552002">
        <time>2026-04-25T13:41:45Z</time>
      </trkpt>
      <trkpt lat="59.07174825668335" lon="30.009627342224121">
        <time>2026-04-25T13:41:48Z</time>
      </trkpt>
      <trkpt lat="59.07174825668335" lon="30.00964879989624">
        <time>2026-04-25T13:41:50Z</time>
      </trkpt>
      <trkpt lat="59.07174825668335" lon="30.009670257568359">
        <time>2026-04-25T13:41:53Z</time>
      </trkpt>
      <trkpt lat="59.07174825668335" lon="30.009713172912598">
        <time>2026-04-25T13:41:55Z</time>
      </trkpt>
      <trkpt lat="59.07172679901123" lon="30.009756088256836">
        <time>2026-04-25T13:41:58Z</time>
      </trkpt>
      <trkpt lat="59.07172679901123" lon="30.009799003601074">
        <time>2026-04-25T13:42:00Z</time>
      </trkpt>
      <trkpt lat="59.07172679901123" lon="30.009841918945313">
        <time>2026-04-25T13:42:03Z</time>
      </trkpt>
      <trkpt lat="59.07172679901123" lon="30.00990629196167">
        <time>2026-04-25T13:42:05Z</time>
      </trkpt>
      <trkpt lat="59.07172679901123" lon="30.009927749633789">
        <time>2026-04-25T13:42:08Z</time>
      </trkpt>
      <trkpt lat="59.07174825668335" lon="30.009970664978027">
        <time>2026-04-25T13:42:10Z</time>
      </trkpt>
      <trkpt lat="59.07174825668335" lon="30.009992122650146">
        <time>2026-04-25T13:42:13Z</time>
      </trkpt>
      <trkpt lat="59.071769714355469" lon="30.010035037994385">
        <time>2026-04-25T13:42:15Z</time>
      </trkpt>
      <trkpt lat="59.071791172027588" lon="30.010077953338623">
        <time>2026-04-25T13:42:18Z</time>
      </trkpt>
      <trkpt lat="59.071791172027588" lon="30.010099411010742">
        <time>2026-04-25T13:42:20Z</time>
      </trkpt>
      <trkpt lat="59.071791172027588" lon="30.01014232635498">
        <time>2026-04-25T13:42:23Z</time>
      </trkpt>
      <trkpt lat="59.071812629699707" lon="30.0101637840271">
        <time>2026-04-25T13:42:25Z</time>
      </trkpt>
      <trkpt lat="59.071812629699707" lon="30.010206699371338">
        <time>2026-04-25T13:42:28Z</time>
      </trkpt>
      <trkpt lat="59.071834087371826" lon="30.010249614715576">
        <time>2026-04-25T13:42:30Z</time>
      </trkpt>
      <trkpt lat="59.071834087371826" lon="30.010292530059814">
        <time>2026-04-25T13:42:33Z</time>
      </trkpt>
      <trkpt lat="59.071855545043945" lon="30.010335445404053">
        <time>2026-04-25T13:42:35Z</time>
      </trkpt>
      <trkpt lat="59.071855545043945" lon="30.010356903076172">
        <time>2026-04-25T13:42:38Z</time>
      </trkpt>
      <trkpt lat="59.071855545043945" lon="30.010421276092529">
        <time>2026-04-25T13:42:40Z</time>
      </trkpt>
      <trkpt lat="59.071877002716064" lon="30.010464191436768">
        <time>2026-04-25T13:42:43Z</time>
      </trkpt>
      <trkpt lat="59.071898460388184" lon="30.010507106781006">
        <time>2026-04-25T13:42:45Z</time>
      </trkpt>
      <trkpt lat="59.071898460388184" lon="30.010550022125244">
        <time>2026-04-25T13:42:48Z</time>
      </trkpt>
      <trkpt lat="59.071919918060303" lon="30.010571479797363">
        <time>2026-04-25T13:42:50Z</time>
      </trkpt>
      <trkpt lat="59.071919918060303" lon="30.010635852813721">
        <time>2026-04-25T13:42:53Z</time>
      </trkpt>
      <trkpt lat="59.071941375732422" lon="30.010678768157959">
        <time>2026-04-25T13:42:55Z</time>
      </trkpt>
      <trkpt lat="59.071962833404541" lon="30.010721683502197">
        <time>2026-04-25T13:42:58Z</time>
      </trkpt>
      <trkpt lat="59.071962833404541" lon="30.010764598846436">
        <time>2026-04-25T13:43:00Z</time>
      </trkpt>
      <trkpt lat="59.071962833404541" lon="30.010807514190674">
        <time>2026-04-25T13:43:03Z</time>
      </trkpt>
      <trkpt lat="59.071962833404541" lon="30.010850429534912">
        <time>2026-04-25T13:43:05Z</time>
      </trkpt>
      <trkpt lat="59.071962833404541" lon="30.010871887207031">
        <time>2026-04-25T13:43:08Z</time>
      </trkpt>
      <trkpt lat="59.071962833404541" lon="30.010871887207031">
        <time>2026-04-25T13:43:10Z</time>
      </trkpt>
      <trkpt lat="59.071962833404541" lon="30.010871887207031">
        <time>2026-04-25T13:43:13Z</time>
      </trkpt>
      <trkpt lat="59.071962833404541" lon="30.010871887207031">
        <time>2026-04-25T13:43:15Z</time>
      </trkpt>
      <trkpt lat="59.071962833404541" lon="30.010871887207031">
        <time>2026-04-25T13:43:18Z</time>
      </trkpt>
      <trkpt lat="59.071962833404541" lon="30.010871887207031">
        <time>2026-04-25T13:43:20Z</time>
      </trkpt>
      <trkpt lat="59.071962833404541" lon="30.010871887207031">
        <time>2026-04-25T13:43:23Z</time>
      </trkpt>
      <trkpt lat="59.071962833404541" lon="30.010871887207031">
        <time>2026-04-25T13:43:25Z</time>
      </trkpt>
      <trkpt lat="59.071962833404541" lon="30.010871887207031">
        <time>2026-04-25T13:43:28Z</time>
      </trkpt>
      <trkpt lat="59.071962833404541" lon="30.010871887207031">
        <time>2026-04-25T13:43:30Z</time>
      </trkpt>
      <trkpt lat="59.071962833404541" lon="30.010871887207031">
        <time>2026-04-25T13:43:33Z</time>
      </trkpt>
      <trkpt lat="59.071962833404541" lon="30.010871887207031">
        <time>2026-04-25T13:43:35Z</time>
      </trkpt>
      <trkpt lat="59.071941375732422" lon="30.01089334487915">
        <time>2026-04-25T13:43:38Z</time>
      </trkpt>
      <trkpt lat="59.071898460388184" lon="30.01091480255127">
        <time>2026-04-25T13:43:40Z</time>
      </trkpt>
      <trkpt lat="59.071855545043945" lon="30.01089334487915">
        <time>2026-04-25T13:43:43Z</time>
      </trkpt>
      <trkpt lat="59.071834087371826" lon="30.01091480255127">
        <time>2026-04-25T13:43:45Z</time>
      </trkpt>
      <trkpt lat="59.071791172027588" lon="30.010936260223389">
        <time>2026-04-25T13:43:48Z</time>
      </trkpt>
      <trkpt lat="59.071769714355469" lon="30.010957717895508">
        <time>2026-04-25T13:43:50Z</time>
      </trkpt>
      <trkpt lat="59.071769714355469" lon="30.011022090911865">
        <time>2026-04-25T13:43:53Z</time>
      </trkpt>
      <trkpt lat="59.07174825668335" lon="30.011043548583984">
        <time>2026-04-25T13:43:55Z</time>
      </trkpt>
      <trkpt lat="59.07174825668335" lon="30.011065006256104">
        <time>2026-04-25T13:43:58Z</time>
      </trkpt>
      <trkpt lat="59.07172679901123" lon="30.011086463928223">
        <time>2026-04-25T13:44:00Z</time>
      </trkpt>
      <trkpt lat="59.07172679901123" lon="30.011129379272461">
        <time>2026-04-25T13:44:03Z</time>
      </trkpt>
      <trkpt lat="59.071705341339111" lon="30.01115083694458">
        <time>2026-04-25T13:44:05Z</time>
      </trkpt>
      <trkpt lat="59.071683883666992" lon="30.011172294616699">
        <time>2026-04-25T13:44:08Z</time>
      </trkpt>
      <trkpt lat="59.071662425994873" lon="30.011172294616699">
        <time>2026-04-25T13:44:10Z</time>
      </trkpt>
      <trkpt lat="59.071640968322754" lon="30.01115083694458">
        <time>2026-04-25T13:44:13Z</time>
      </trkpt>
      <trkpt lat="59.071598052978516" lon="30.01115083694458">
        <time>2026-04-25T13:44:15Z</time>
      </trkpt>
      <trkpt lat="59.071598052978516" lon="30.011129379272461">
        <time>2026-04-25T13:44:18Z</time>
      </trkpt>
      <trkpt lat="59.071576595306396" lon="30.011107921600342">
        <time>2026-04-25T13:44:20Z</time>
      </trkpt>
      <trkpt lat="59.071576595306396" lon="30.011086463928223">
        <time>2026-04-25T13:44:23Z</time>
      </trkpt>
      <trkpt lat="59.071555137634277" lon="30.011043548583984">
        <time>2026-04-25T13:44:25Z</time>
      </trkpt>
      <trkpt lat="59.071555137634277" lon="30.011000633239746">
        <time>2026-04-25T13:44:28Z</time>
      </trkpt>
      <trkpt lat="59.071555137634277" lon="30.010979175567627">
        <time>2026-04-25T13:44:30Z</time>
      </trkpt>
      <trkpt lat="59.071555137634277" lon="30.011000633239746">
        <time>2026-04-25T13:44:33Z</time>
      </trkpt>
      <trkpt lat="59.071555137634277" lon="30.011000633239746">
        <time>2026-04-25T13:44:35Z</time>
      </trkpt>
      <trkpt lat="59.071555137634277" lon="30.011000633239746">
        <time>2026-04-25T13:44:38Z</time>
      </trkpt>
      <trkpt lat="59.071555137634277" lon="30.010979175567627">
        <time>2026-04-25T13:44:40Z</time>
      </trkpt>
      <trkpt lat="59.071555137634277" lon="30.010979175567627">
        <time>2026-04-25T13:44:43Z</time>
      </trkpt>
      <trkpt lat="59.071555137634277" lon="30.010979175567627">
        <time>2026-04-25T13:44:45Z</time>
      </trkpt>
      <trkpt lat="59.071555137634277" lon="30.010957717895508">
        <time>2026-04-25T13:44:48Z</time>
      </trkpt>
      <trkpt lat="59.071555137634277" lon="30.010957717895508">
        <time>2026-04-25T13:44:50Z</time>
      </trkpt>
      <trkpt lat="59.071555137634277" lon="30.010957717895508">
        <time>2026-04-25T13:44:53Z</time>
      </trkpt>
      <trkpt lat="59.071555137634277" lon="30.010957717895508">
        <time>2026-04-25T13:44:55Z</time>
      </trkpt>
      <trkpt lat="59.071555137634277" lon="30.010957717895508">
        <time>2026-04-25T13:44:58Z</time>
      </trkpt>
      <trkpt lat="59.071555137634277" lon="30.010979175567627">
        <time>2026-04-25T13:45:00Z</time>
      </trkpt>
      <trkpt lat="59.071555137634277" lon="30.010979175567627">
        <time>2026-04-25T13:45:03Z</time>
      </trkpt>
      <trkpt lat="59.071555137634277" lon="30.010979175567627">
        <time>2026-04-25T13:45:05Z</time>
      </trkpt>
      <trkpt lat="59.071555137634277" lon="30.010979175567627">
        <time>2026-04-25T13:45:08Z</time>
      </trkpt>
      <trkpt lat="59.071555137634277" lon="30.010979175567627">
        <time>2026-04-25T13:45:10Z</time>
      </trkpt>
      <trkpt lat="59.071555137634277" lon="30.010979175567627">
        <time>2026-04-25T13:45:13Z</time>
      </trkpt>
      <trkpt lat="59.071555137634277" lon="30.010979175567627">
        <time>2026-04-25T13:45:15Z</time>
      </trkpt>
      <trkpt lat="59.071555137634277" lon="30.010979175567627">
        <time>2026-04-25T13:45:18Z</time>
      </trkpt>
      <trkpt lat="59.071555137634277" lon="30.010979175567627">
        <time>2026-04-25T13:45:20Z</time>
      </trkpt>
      <trkpt lat="59.071555137634277" lon="30.010979175567627">
        <time>2026-04-25T13:45:23Z</time>
      </trkpt>
      <trkpt lat="59.071555137634277" lon="30.010979175567627">
        <time>2026-04-25T13:45:25Z</time>
      </trkpt>
      <trkpt lat="59.071555137634277" lon="30.010979175567627">
        <time>2026-04-25T13:45:28Z</time>
      </trkpt>
      <trkpt lat="59.071555137634277" lon="30.010979175567627">
        <time>2026-04-25T13:45:30Z</time>
      </trkpt>
      <trkpt lat="59.071555137634277" lon="30.010979175567627">
        <time>2026-04-25T13:45:33Z</time>
      </trkpt>
      <trkpt lat="59.071555137634277" lon="30.010979175567627">
        <time>2026-04-25T13:45:35Z</time>
      </trkpt>
      <trkpt lat="59.071555137634277" lon="30.011022090911865">
        <time>2026-04-25T13:45:38Z</time>
      </trkpt>
      <trkpt lat="59.071555137634277" lon="30.011000633239746">
        <time>2026-04-25T13:45:40Z</time>
      </trkpt>
      <trkpt lat="59.071555137634277" lon="30.011000633239746">
        <time>2026-04-25T13:45:43Z</time>
      </trkpt>
      <trkpt lat="59.071533679962158" lon="30.01091480255127">
        <time>2026-04-25T13:45:45Z</time>
      </trkpt>
      <trkpt lat="59.071512222290039" lon="30.010871887207031">
        <time>2026-04-25T13:45:48Z</time>
      </trkpt>
      <trkpt lat="59.071512222290039" lon="30.010786056518555">
        <time>2026-04-25T13:45:50Z</time>
      </trkpt>
      <trkpt lat="59.071533679962158" lon="30.010764598846436">
        <time>2026-04-25T13:45:53Z</time>
      </trkpt>
      <trkpt lat="59.071533679962158" lon="30.010807514190674">
        <time>2026-04-25T13:45:55Z</time>
      </trkpt>
      <trkpt lat="59.071533679962158" lon="30.010850429534912">
        <time>2026-04-25T13:45:58Z</time>
      </trkpt>
      <trkpt lat="59.071533679962158" lon="30.010828971862793">
        <time>2026-04-25T13:46:00Z</time>
      </trkpt>
      <trkpt lat="59.071533679962158" lon="30.010828971862793">
        <time>2026-04-25T13:46:03Z</time>
      </trkpt>
      <trkpt lat="59.071533679962158" lon="30.010850429534912">
        <time>2026-04-25T13:46:05Z</time>
      </trkpt>
      <trkpt lat="59.071533679962158" lon="30.010828971862793">
        <time>2026-04-25T13:46:08Z</time>
      </trkpt>
      <trkpt lat="59.071533679962158" lon="30.010828971862793">
        <time>2026-04-25T13:46:10Z</time>
      </trkpt>
      <trkpt lat="59.071533679962158" lon="30.010828971862793">
        <time>2026-04-25T13:46:13Z</time>
      </trkpt>
      <trkpt lat="59.071533679962158" lon="30.010828971862793">
        <time>2026-04-25T13:46:15Z</time>
      </trkpt>
      <trkpt lat="59.071533679962158" lon="30.010828971862793">
        <time>2026-04-25T13:46:18Z</time>
      </trkpt>
      <trkpt lat="59.071533679962158" lon="30.010828971862793">
        <time>2026-04-25T13:46:20Z</time>
      </trkpt>
      <trkpt lat="59.071533679962158" lon="30.010828971862793">
        <time>2026-04-25T13:46:23Z</time>
      </trkpt>
      <trkpt lat="59.071533679962158" lon="30.010828971862793">
        <time>2026-04-25T13:46:25Z</time>
      </trkpt>
      <trkpt lat="59.071533679962158" lon="30.010828971862793">
        <time>2026-04-25T13:46:28Z</time>
      </trkpt>
      <trkpt lat="59.071533679962158" lon="30.010828971862793">
        <time>2026-04-25T13:46:30Z</time>
      </trkpt>
      <trkpt lat="59.071533679962158" lon="30.010828971862793">
        <time>2026-04-25T13:46:33Z</time>
      </trkpt>
      <trkpt lat="59.071533679962158" lon="30.010828971862793">
        <time>2026-04-25T13:46:35Z</time>
      </trkpt>
      <trkpt lat="59.071533679962158" lon="30.010850429534912">
        <time>2026-04-25T13:46:38Z</time>
      </trkpt>
      <trkpt lat="59.071533679962158" lon="30.010850429534912">
        <time>2026-04-25T13:46:40Z</time>
      </trkpt>
      <trkpt lat="59.071533679962158" lon="30.010850429534912">
        <time>2026-04-25T13:46:43Z</time>
      </trkpt>
      <trkpt lat="59.071533679962158" lon="30.010850429534912">
        <time>2026-04-25T13:46:45Z</time>
      </trkpt>
      <trkpt lat="59.071533679962158" lon="30.010850429534912">
        <time>2026-04-25T13:46:48Z</time>
      </trkpt>
      <trkpt lat="59.071512222290039" lon="30.010850429534912">
        <time>2026-04-25T13:46:50Z</time>
      </trkpt>
      <trkpt lat="59.071512222290039" lon="30.010850429534912">
        <time>2026-04-25T13:46:53Z</time>
      </trkpt>
      <trkpt lat="59.071512222290039" lon="30.010850429534912">
        <time>2026-04-25T13:46:55Z</time>
      </trkpt>
      <trkpt lat="59.071512222290039" lon="30.010850429534912">
        <time>2026-04-25T13:46:58Z</time>
      </trkpt>
      <trkpt lat="59.071512222290039" lon="30.010850429534912">
        <time>2026-04-25T13:47:00Z</time>
      </trkpt>
      <trkpt lat="59.071512222290039" lon="30.010850429534912">
        <time>2026-04-25T13:47:03Z</time>
      </trkpt>
      <trkpt lat="59.071512222290039" lon="30.010850429534912">
        <time>2026-04-25T13:47:05Z</time>
      </trkpt>
      <trkpt lat="59.071512222290039" lon="30.010850429534912">
        <time>2026-04-25T13:47:08Z</time>
      </trkpt>
      <trkpt lat="59.071512222290039" lon="30.010828971862793">
        <time>2026-04-25T13:47:10Z</time>
      </trkpt>
      <trkpt lat="59.071512222290039" lon="30.010828971862793">
        <time>2026-04-25T13:47:13Z</time>
      </trkpt>
      <trkpt lat="59.071512222290039" lon="30.010828971862793">
        <time>2026-04-25T13:47:15Z</time>
      </trkpt>
      <trkpt lat="59.071512222290039" lon="30.010828971862793">
        <time>2026-04-25T13:47:18Z</time>
      </trkpt>
      <trkpt lat="59.071512222290039" lon="30.010850429534912">
        <time>2026-04-25T13:47:20Z</time>
      </trkpt>
      <trkpt lat="59.071512222290039" lon="30.010850429534912">
        <time>2026-04-25T13:47:23Z</time>
      </trkpt>
      <trkpt lat="59.071512222290039" lon="30.010850429534912">
        <time>2026-04-25T13:47:25Z</time>
      </trkpt>
      <trkpt lat="59.071512222290039" lon="30.010850429534912">
        <time>2026-04-25T13:47:28Z</time>
      </trkpt>
      <trkpt lat="59.071512222290039" lon="30.010850429534912">
        <time>2026-04-25T13:47:30Z</time>
      </trkpt>
      <trkpt lat="59.071512222290039" lon="30.010850429534912">
        <time>2026-04-25T13:47:33Z</time>
      </trkpt>
      <trkpt lat="59.071512222290039" lon="30.010850429534912">
        <time>2026-04-25T13:47:35Z</time>
      </trkpt>
      <trkpt lat="59.071512222290039" lon="30.010850429534912">
        <time>2026-04-25T13:47:38Z</time>
      </trkpt>
      <trkpt lat="59.071512222290039" lon="30.010850429534912">
        <time>2026-04-25T13:47:40Z</time>
      </trkpt>
      <trkpt lat="59.071512222290039" lon="30.010850429534912">
        <time>2026-04-25T13:47:43Z</time>
      </trkpt>
      <trkpt lat="59.071512222290039" lon="30.010850429534912">
        <time>2026-04-25T13:47:45Z</time>
      </trkpt>
      <trkpt lat="59.071512222290039" lon="30.010850429534912">
        <time>2026-04-25T13:47:48Z</time>
      </trkpt>
      <trkpt lat="59.071512222290039" lon="30.010850429534912">
        <time>2026-04-25T13:47:50Z</time>
      </trkpt>
      <trkpt lat="59.071512222290039" lon="30.010850429534912">
        <time>2026-04-25T13:47:53Z</time>
      </trkpt>
      <trkpt lat="59.071512222290039" lon="30.010850429534912">
        <time>2026-04-25T13:47:55Z</time>
      </trkpt>
      <trkpt lat="59.071512222290039" lon="30.010850429534912">
        <time>2026-04-25T13:47:58Z</time>
      </trkpt>
      <trkpt lat="59.071512222290039" lon="30.010850429534912">
        <time>2026-04-25T13:48:00Z</time>
      </trkpt>
      <trkpt lat="59.07149076461792" lon="30.010850429534912">
        <time>2026-04-25T13:48:03Z</time>
      </trkpt>
      <trkpt lat="59.07149076461792" lon="30.010850429534912">
        <time>2026-04-25T13:48:05Z</time>
      </trkpt>
      <trkpt lat="59.07149076461792" lon="30.010850429534912">
        <time>2026-04-25T13:48:08Z</time>
      </trkpt>
      <trkpt lat="59.07149076461792" lon="30.010850429534912">
        <time>2026-04-25T13:48:10Z</time>
      </trkpt>
      <trkpt lat="59.07149076461792" lon="30.010850429534912">
        <time>2026-04-25T13:48:13Z</time>
      </trkpt>
      <trkpt lat="59.07149076461792" lon="30.010850429534912">
        <time>2026-04-25T13:48:15Z</time>
      </trkpt>
      <trkpt lat="59.07149076461792" lon="30.010850429534912">
        <time>2026-04-25T13:48:18Z</time>
      </trkpt>
      <trkpt lat="59.07149076461792" lon="30.010850429534912">
        <time>2026-04-25T13:48:20Z</time>
      </trkpt>
      <trkpt lat="59.07149076461792" lon="30.010850429534912">
        <time>2026-04-25T13:48:23Z</time>
      </trkpt>
      <trkpt lat="59.07149076461792" lon="30.010850429534912">
        <time>2026-04-25T13:48:25Z</time>
      </trkpt>
      <trkpt lat="59.07149076461792" lon="30.010850429534912">
        <time>2026-04-25T13:48:28Z</time>
      </trkpt>
      <trkpt lat="59.07149076461792" lon="30.010850429534912">
        <time>2026-04-25T13:48:30Z</time>
      </trkpt>
      <trkpt lat="59.07149076461792" lon="30.010850429534912">
        <time>2026-04-25T13:48:33Z</time>
      </trkpt>
      <trkpt lat="59.07149076461792" lon="30.010850429534912">
        <time>2026-04-25T13:48:35Z</time>
      </trkpt>
      <trkpt lat="59.07149076461792" lon="30.010850429534912">
        <time>2026-04-25T13:48:38Z</time>
      </trkpt>
      <trkpt lat="59.07149076461792" lon="30.010850429534912">
        <time>2026-04-25T13:48:40Z</time>
      </trkpt>
      <trkpt lat="59.07149076461792" lon="30.010850429534912">
        <time>2026-04-25T13:48:43Z</time>
      </trkpt>
      <trkpt lat="59.07149076461792" lon="30.010850429534912">
        <time>2026-04-25T13:48:45Z</time>
      </trkpt>
      <trkpt lat="59.07149076461792" lon="30.010850429534912">
        <time>2026-04-25T13:48:48Z</time>
      </trkpt>
      <trkpt lat="59.07149076461792" lon="30.010850429534912">
        <time>2026-04-25T13:48:50Z</time>
      </trkpt>
      <trkpt lat="59.07149076461792" lon="30.010850429534912">
        <time>2026-04-25T13:48:53Z</time>
      </trkpt>
      <trkpt lat="59.07149076461792" lon="30.010850429534912">
        <time>2026-04-25T13:48:55Z</time>
      </trkpt>
      <trkpt lat="59.07149076461792" lon="30.010850429534912">
        <time>2026-04-25T13:48:58Z</time>
      </trkpt>
      <trkpt lat="59.07149076461792" lon="30.010850429534912">
        <time>2026-04-25T13:49:00Z</time>
      </trkpt>
      <trkpt lat="59.07149076461792" lon="30.010850429534912">
        <time>2026-04-25T13:49:03Z</time>
      </trkpt>
      <trkpt lat="59.07149076461792" lon="30.010850429534912">
        <time>2026-04-25T13:49:05Z</time>
      </trkpt>
      <trkpt lat="59.07149076461792" lon="30.010850429534912">
        <time>2026-04-25T13:49:08Z</time>
      </trkpt>
      <trkpt lat="59.07149076461792" lon="30.010850429534912">
        <time>2026-04-25T13:49:10Z</time>
      </trkpt>
      <trkpt lat="59.07149076461792" lon="30.010850429534912">
        <time>2026-04-25T13:49:13Z</time>
      </trkpt>
      <trkpt lat="59.07149076461792" lon="30.010850429534912">
        <time>2026-04-25T13:49:15Z</time>
      </trkpt>
      <trkpt lat="59.07149076461792" lon="30.010850429534912">
        <time>2026-04-25T13:49:18Z</time>
      </trkpt>
      <trkpt lat="59.07149076461792" lon="30.010850429534912">
        <time>2026-04-25T13:49:20Z</time>
      </trkpt>
      <trkpt lat="59.07149076461792" lon="30.010850429534912">
        <time>2026-04-25T13:49:23Z</time>
      </trkpt>
      <trkpt lat="59.07149076461792" lon="30.010850429534912">
        <time>2026-04-25T13:49:25Z</time>
      </trkpt>
      <trkpt lat="59.07149076461792" lon="30.010850429534912">
        <time>2026-04-25T13:49:28Z</time>
      </trkpt>
      <trkpt lat="59.07149076461792" lon="30.010850429534912">
        <time>2026-04-25T13:49:30Z</time>
      </trkpt>
      <trkpt lat="59.07149076461792" lon="30.010850429534912">
        <time>2026-04-25T13:49:33Z</time>
      </trkpt>
      <trkpt lat="59.07149076461792" lon="30.010850429534912">
        <time>2026-04-25T13:49:35Z</time>
      </trkpt>
      <trkpt lat="59.07149076461792" lon="30.010850429534912">
        <time>2026-04-25T13:49:38Z</time>
      </trkpt>
      <trkpt lat="59.07149076461792" lon="30.010850429534912">
        <time>2026-04-25T13:49:40Z</time>
      </trkpt>
      <trkpt lat="59.07149076461792" lon="30.010850429534912">
        <time>2026-04-25T13:49:43Z</time>
      </trkpt>
      <trkpt lat="59.07149076461792" lon="30.010850429534912">
        <time>2026-04-25T13:49:45Z</time>
      </trkpt>
      <trkpt lat="59.07149076461792" lon="30.010850429534912">
        <time>2026-04-25T13:49:48Z</time>
      </trkpt>
      <trkpt lat="59.07149076461792" lon="30.010850429534912">
        <time>2026-04-25T13:49:50Z</time>
      </trkpt>
      <trkpt lat="59.07149076461792" lon="30.010850429534912">
        <time>2026-04-25T13:49:53Z</time>
      </trkpt>
      <trkpt lat="59.07149076461792" lon="30.010850429534912">
        <time>2026-04-25T13:49:55Z</time>
      </trkpt>
      <trkpt lat="59.07149076461792" lon="30.010850429534912">
        <time>2026-04-25T13:49:58Z</time>
      </trkpt>
      <trkpt lat="59.07149076461792" lon="30.010850429534912">
        <time>2026-04-25T13:50:00Z</time>
      </trkpt>
      <trkpt lat="59.07149076461792" lon="30.010850429534912">
        <time>2026-04-25T13:50:03Z</time>
      </trkpt>
      <trkpt lat="59.07149076461792" lon="30.010850429534912">
        <time>2026-04-25T13:50:05Z</time>
      </trkpt>
      <trkpt lat="59.07149076461792" lon="30.010850429534912">
        <time>2026-04-25T13:50:08Z</time>
      </trkpt>
      <trkpt lat="59.07149076461792" lon="30.010850429534912">
        <time>2026-04-25T13:50:10Z</time>
      </trkpt>
      <trkpt lat="59.07149076461792" lon="30.010850429534912">
        <time>2026-04-25T13:50:13Z</time>
      </trkpt>
      <trkpt lat="59.07149076461792" lon="30.010850429534912">
        <time>2026-04-25T13:50:15Z</time>
      </trkpt>
      <trkpt lat="59.07149076461792" lon="30.010850429534912">
        <time>2026-04-25T13:50:18Z</time>
      </trkpt>
      <trkpt lat="59.07149076461792" lon="30.010850429534912">
        <time>2026-04-25T13:50:20Z</time>
      </trkpt>
      <trkpt lat="59.07149076461792" lon="30.010850429534912">
        <time>2026-04-25T13:50:23Z</time>
      </trkpt>
      <trkpt lat="59.07149076461792" lon="30.010850429534912">
        <time>2026-04-25T13:50:25Z</time>
      </trkpt>
      <trkpt lat="59.07149076461792" lon="30.010850429534912">
        <time>2026-04-25T13:50:28Z</time>
      </trkpt>
      <trkpt lat="59.07149076461792" lon="30.010850429534912">
        <time>2026-04-25T13:50:30Z</time>
      </trkpt>
      <trkpt lat="59.07149076461792" lon="30.010850429534912">
        <time>2026-04-25T13:50:33Z</time>
      </trkpt>
      <trkpt lat="59.07149076461792" lon="30.010850429534912">
        <time>2026-04-25T13:50:35Z</time>
      </trkpt>
      <trkpt lat="59.07149076461792" lon="30.010850429534912">
        <time>2026-04-25T13:50:38Z</time>
      </trkpt>
      <trkpt lat="59.07149076461792" lon="30.010850429534912">
        <time>2026-04-25T13:50:40Z</time>
      </trkpt>
      <trkpt lat="59.07149076461792" lon="30.010850429534912">
        <time>2026-04-25T13:50:43Z</time>
      </trkpt>
      <trkpt lat="59.07149076461792" lon="30.010850429534912">
        <time>2026-04-25T13:50:45Z</time>
      </trkpt>
      <trkpt lat="59.07149076461792" lon="30.010850429534912">
        <time>2026-04-25T13:50:48Z</time>
      </trkpt>
      <trkpt lat="59.07149076461792" lon="30.010850429534912">
        <time>2026-04-25T13:50:50Z</time>
      </trkpt>
      <trkpt lat="59.07149076461792" lon="30.010850429534912">
        <time>2026-04-25T13:50:53Z</time>
      </trkpt>
      <trkpt lat="59.07149076461792" lon="30.010850429534912">
        <time>2026-04-25T13:50:55Z</time>
      </trkpt>
      <trkpt lat="59.07149076461792" lon="30.010850429534912">
        <time>2026-04-25T13:50:58Z</time>
      </trkpt>
      <trkpt lat="59.07149076461792" lon="30.010850429534912">
        <time>2026-04-25T13:51:00Z</time>
      </trkpt>
      <trkpt lat="59.07149076461792" lon="30.010850429534912">
        <time>2026-04-25T13:51:03Z</time>
      </trkpt>
      <trkpt lat="59.07149076461792" lon="30.010850429534912">
        <time>2026-04-25T13:51:05Z</time>
      </trkpt>
      <trkpt lat="59.07149076461792" lon="30.010850429534912">
        <time>2026-04-25T13:51:08Z</time>
      </trkpt>
      <trkpt lat="59.07149076461792" lon="30.010850429534912">
        <time>2026-04-25T13:51:10Z</time>
      </trkpt>
      <trkpt lat="59.07149076461792" lon="30.010850429534912">
        <time>2026-04-25T13:51:13Z</time>
      </trkpt>
      <trkpt lat="59.07149076461792" lon="30.010850429534912">
        <time>2026-04-25T13:51:15Z</time>
      </trkpt>
      <trkpt lat="59.07149076461792" lon="30.010850429534912">
        <time>2026-04-25T13:51:18Z</time>
      </trkpt>
      <trkpt lat="59.07149076461792" lon="30.010850429534912">
        <time>2026-04-25T13:51:20Z</time>
      </trkpt>
      <trkpt lat="59.07149076461792" lon="30.010850429534912">
        <time>2026-04-25T13:51:23Z</time>
      </trkpt>
      <trkpt lat="59.07149076461792" lon="30.010850429534912">
        <time>2026-04-25T13:51:25Z</time>
      </trkpt>
      <trkpt lat="59.07149076461792" lon="30.010850429534912">
        <time>2026-04-25T13:51:28Z</time>
      </trkpt>
      <trkpt lat="59.07149076461792" lon="30.010850429534912">
        <time>2026-04-25T13:51:30Z</time>
      </trkpt>
      <trkpt lat="59.07149076461792" lon="30.010850429534912">
        <time>2026-04-25T13:51:33Z</time>
      </trkpt>
      <trkpt lat="59.07149076461792" lon="30.010850429534912">
        <time>2026-04-25T13:51:35Z</time>
      </trkpt>
      <trkpt lat="59.07149076461792" lon="30.010850429534912">
        <time>2026-04-25T13:51:38Z</time>
      </trkpt>
      <trkpt lat="59.07149076461792" lon="30.010850429534912">
        <time>2026-04-25T13:51:40Z</time>
      </trkpt>
      <trkpt lat="59.07149076461792" lon="30.010850429534912">
        <time>2026-04-25T13:51:43Z</time>
      </trkpt>
      <trkpt lat="59.07149076461792" lon="30.010850429534912">
        <time>2026-04-25T13:51:45Z</time>
      </trkpt>
      <trkpt lat="59.07149076461792" lon="30.010850429534912">
        <time>2026-04-25T13:51:48Z</time>
      </trkpt>
      <trkpt lat="59.07149076461792" lon="30.010850429534912">
        <time>2026-04-25T13:51:50Z</time>
      </trkpt>
      <trkpt lat="59.07149076461792" lon="30.010850429534912">
        <time>2026-04-25T13:51:53Z</time>
      </trkpt>
      <trkpt lat="59.07149076461792" lon="30.010850429534912">
        <time>2026-04-25T13:51:55Z</time>
      </trkpt>
      <trkpt lat="59.07149076461792" lon="30.010850429534912">
        <time>2026-04-25T13:51:58Z</time>
      </trkpt>
      <trkpt lat="59.07149076461792" lon="30.010850429534912">
        <time>2026-04-25T13:52:00Z</time>
      </trkpt>
      <trkpt lat="59.07149076461792" lon="30.010850429534912">
        <time>2026-04-25T13:52:03Z</time>
      </trkpt>
      <trkpt lat="59.07149076461792" lon="30.010850429534912">
        <time>2026-04-25T13:52:05Z</time>
      </trkpt>
      <trkpt lat="59.07149076461792" lon="30.010850429534912">
        <time>2026-04-25T13:52:08Z</time>
      </trkpt>
      <trkpt lat="59.07149076461792" lon="30.010850429534912">
        <time>2026-04-25T13:52:10Z</time>
      </trkpt>
      <trkpt lat="59.07149076461792" lon="30.010850429534912">
        <time>2026-04-25T13:52:13Z</time>
      </trkpt>
      <trkpt lat="59.07149076461792" lon="30.010850429534912">
        <time>2026-04-25T13:52:15Z</time>
      </trkpt>
      <trkpt lat="59.07149076461792" lon="30.010850429534912">
        <time>2026-04-25T13:52:18Z</time>
      </trkpt>
      <trkpt lat="59.07149076461792" lon="30.010850429534912">
        <time>2026-04-25T13:52:20Z</time>
      </trkpt>
      <trkpt lat="59.07149076461792" lon="30.010850429534912">
        <time>2026-04-25T13:52:23Z</time>
      </trkpt>
      <trkpt lat="59.07149076461792" lon="30.010850429534912">
        <time>2026-04-25T13:52:25Z</time>
      </trkpt>
      <trkpt lat="59.07149076461792" lon="30.010850429534912">
        <time>2026-04-25T13:52:28Z</time>
      </trkpt>
      <trkpt lat="59.07149076461792" lon="30.010850429534912">
        <time>2026-04-25T13:52:30Z</time>
      </trkpt>
      <trkpt lat="59.07149076461792" lon="30.010850429534912">
        <time>2026-04-25T13:52:33Z</time>
      </trkpt>
      <trkpt lat="59.07149076461792" lon="30.010850429534912">
        <time>2026-04-25T13:52:35Z</time>
      </trkpt>
      <trkpt lat="59.07149076461792" lon="30.010850429534912">
        <time>2026-04-25T13:52:38Z</time>
      </trkpt>
      <trkpt lat="59.07149076461792" lon="30.010850429534912">
        <time>2026-04-25T13:52:40Z</time>
      </trkpt>
      <trkpt lat="59.07149076461792" lon="30.010850429534912">
        <time>2026-04-25T13:52:43Z</time>
      </trkpt>
      <trkpt lat="59.07149076461792" lon="30.010850429534912">
        <time>2026-04-25T13:52:45Z</time>
      </trkpt>
      <trkpt lat="59.07149076461792" lon="30.010850429534912">
        <time>2026-04-25T13:52:48Z</time>
      </trkpt>
      <trkpt lat="59.07149076461792" lon="30.010850429534912">
        <time>2026-04-25T13:52:50Z</time>
      </trkpt>
      <trkpt lat="59.07149076461792" lon="30.010850429534912">
        <time>2026-04-25T13:52:53Z</time>
      </trkpt>
      <trkpt lat="59.07149076461792" lon="30.010850429534912">
        <time>2026-04-25T13:52:55Z</time>
      </trkpt>
      <trkpt lat="59.07149076461792" lon="30.010850429534912">
        <time>2026-04-25T13:52:58Z</time>
      </trkpt>
      <trkpt lat="59.07149076461792" lon="30.010850429534912">
        <time>2026-04-25T13:53:00Z</time>
      </trkpt>
      <trkpt lat="59.07149076461792" lon="30.010850429534912">
        <time>2026-04-25T13:53:03Z</time>
      </trkpt>
      <trkpt lat="59.07149076461792" lon="30.010850429534912">
        <time>2026-04-25T13:53:05Z</time>
      </trkpt>
      <trkpt lat="59.07149076461792" lon="30.010850429534912">
        <time>2026-04-25T13:53:08Z</time>
      </trkpt>
      <trkpt lat="59.07149076461792" lon="30.010850429534912">
        <time>2026-04-25T13:53:10Z</time>
      </trkpt>
      <trkpt lat="59.07149076461792" lon="30.010850429534912">
        <time>2026-04-25T13:53:13Z</time>
      </trkpt>
      <trkpt lat="59.07149076461792" lon="30.010850429534912">
        <time>2026-04-25T13:53:15Z</time>
      </trkpt>
      <trkpt lat="59.07149076461792" lon="30.010850429534912">
        <time>2026-04-25T13:53:18Z</time>
      </trkpt>
      <trkpt lat="59.07149076461792" lon="30.010850429534912">
        <time>2026-04-25T13:53:20Z</time>
      </trkpt>
      <trkpt lat="59.07149076461792" lon="30.010850429534912">
        <time>2026-04-25T13:53:23Z</time>
      </trkpt>
      <trkpt lat="59.07149076461792" lon="30.010850429534912">
        <time>2026-04-25T13:53:25Z</time>
      </trkpt>
      <trkpt lat="59.07149076461792" lon="30.010850429534912">
        <time>2026-04-25T13:53:28Z</time>
      </trkpt>
      <trkpt lat="59.07149076461792" lon="30.010850429534912">
        <time>2026-04-25T13:53:30Z</time>
      </trkpt>
      <trkpt lat="59.07149076461792" lon="30.010850429534912">
        <time>2026-04-25T13:53:33Z</time>
      </trkpt>
      <trkpt lat="59.07149076461792" lon="30.010850429534912">
        <time>2026-04-25T13:53:35Z</time>
      </trkpt>
      <trkpt lat="59.07149076461792" lon="30.010850429534912">
        <time>2026-04-25T13:53:38Z</time>
      </trkpt>
      <trkpt lat="59.07149076461792" lon="30.010850429534912">
        <time>2026-04-25T13:53:40Z</time>
      </trkpt>
      <trkpt lat="59.07149076461792" lon="30.010850429534912">
        <time>2026-04-25T13:53:43Z</time>
      </trkpt>
      <trkpt lat="59.07149076461792" lon="30.010850429534912">
        <time>2026-04-25T13:53:45Z</time>
      </trkpt>
      <trkpt lat="59.07149076461792" lon="30.010850429534912">
        <time>2026-04-25T13:53:48Z</time>
      </trkpt>
      <trkpt lat="59.07149076461792" lon="30.010850429534912">
        <time>2026-04-25T13:53:50Z</time>
      </trkpt>
      <trkpt lat="59.07149076461792" lon="30.010850429534912">
        <time>2026-04-25T13:53:53Z</time>
      </trkpt>
      <trkpt lat="59.07149076461792" lon="30.010850429534912">
        <time>2026-04-25T13:53:55Z</time>
      </trkpt>
      <trkpt lat="59.07149076461792" lon="30.010850429534912">
        <time>2026-04-25T13:53:58Z</time>
      </trkpt>
      <trkpt lat="59.07149076461792" lon="30.010850429534912">
        <time>2026-04-25T13:54:00Z</time>
      </trkpt>
      <trkpt lat="59.07149076461792" lon="30.010850429534912">
        <time>2026-04-25T13:54:03Z</time>
      </trkpt>
      <trkpt lat="59.07149076461792" lon="30.010850429534912">
        <time>2026-04-25T13:54:05Z</time>
      </trkpt>
      <trkpt lat="59.07149076461792" lon="30.010850429534912">
        <time>2026-04-25T13:54:08Z</time>
      </trkpt>
      <trkpt lat="59.07149076461792" lon="30.010850429534912">
        <time>2026-04-25T13:54:10Z</time>
      </trkpt>
      <trkpt lat="59.07149076461792" lon="30.010850429534912">
        <time>2026-04-25T13:54:13Z</time>
      </trkpt>
      <trkpt lat="59.07149076461792" lon="30.010850429534912">
        <time>2026-04-25T13:54:15Z</time>
      </trkpt>
      <trkpt lat="59.07149076461792" lon="30.010850429534912">
        <time>2026-04-25T13:54:18Z</time>
      </trkpt>
      <trkpt lat="59.07149076461792" lon="30.010850429534912">
        <time>2026-04-25T13:54:20Z</time>
      </trkpt>
      <trkpt lat="59.07149076461792" lon="30.010850429534912">
        <time>2026-04-25T13:54:23Z</time>
      </trkpt>
      <trkpt lat="59.07149076461792" lon="30.010850429534912">
        <time>2026-04-25T13:54:25Z</time>
      </trkpt>
      <trkpt lat="59.07149076461792" lon="30.010850429534912">
        <time>2026-04-25T13:54:28Z</time>
      </trkpt>
      <trkpt lat="59.071512222290039" lon="30.010850429534912">
        <time>2026-04-25T13:54:30Z</time>
      </trkpt>
      <trkpt lat="59.071512222290039" lon="30.010850429534912">
        <time>2026-04-25T13:54:33Z</time>
      </trkpt>
      <trkpt lat="59.071512222290039" lon="30.010850429534912">
        <time>2026-04-25T13:54:35Z</time>
      </trkpt>
      <trkpt lat="59.071512222290039" lon="30.010850429534912">
        <time>2026-04-25T13:54:38Z</time>
      </trkpt>
      <trkpt lat="59.071512222290039" lon="30.010850429534912">
        <time>2026-04-25T13:54:40Z</time>
      </trkpt>
      <trkpt lat="59.071512222290039" lon="30.010850429534912">
        <time>2026-04-25T13:54:43Z</time>
      </trkpt>
      <trkpt lat="59.071512222290039" lon="30.010850429534912">
        <time>2026-04-25T13:54:45Z</time>
      </trkpt>
      <trkpt lat="59.071512222290039" lon="30.010850429534912">
        <time>2026-04-25T13:54:48Z</time>
      </trkpt>
      <trkpt lat="59.071512222290039" lon="30.010850429534912">
        <time>2026-04-25T13:54:50Z</time>
      </trkpt>
      <trkpt lat="59.071512222290039" lon="30.010850429534912">
        <time>2026-04-25T13:54:53Z</time>
      </trkpt>
      <trkpt lat="59.071512222290039" lon="30.010850429534912">
        <time>2026-04-25T13:54:55Z</time>
      </trkpt>
      <trkpt lat="59.071512222290039" lon="30.010850429534912">
        <time>2026-04-25T13:54:58Z</time>
      </trkpt>
      <trkpt lat="59.071512222290039" lon="30.010850429534912">
        <time>2026-04-25T13:55:00Z</time>
      </trkpt>
      <trkpt lat="59.071512222290039" lon="30.010850429534912">
        <time>2026-04-25T13:55:03Z</time>
      </trkpt>
      <trkpt lat="59.071512222290039" lon="30.010850429534912">
        <time>2026-04-25T13:55:05Z</time>
      </trkpt>
      <trkpt lat="59.071512222290039" lon="30.010850429534912">
        <time>2026-04-25T13:55:08Z</time>
      </trkpt>
      <trkpt lat="59.071512222290039" lon="30.010850429534912">
        <time>2026-04-25T13:55:10Z</time>
      </trkpt>
      <trkpt lat="59.071512222290039" lon="30.010850429534912">
        <time>2026-04-25T13:55:13Z</time>
      </trkpt>
      <trkpt lat="59.071512222290039" lon="30.010850429534912">
        <time>2026-04-25T13:55:15Z</time>
      </trkpt>
      <trkpt lat="59.071512222290039" lon="30.010850429534912">
        <time>2026-04-25T13:55:18Z</time>
      </trkpt>
      <trkpt lat="59.071512222290039" lon="30.010850429534912">
        <time>2026-04-25T13:55:20Z</time>
      </trkpt>
      <trkpt lat="59.071512222290039" lon="30.010850429534912">
        <time>2026-04-25T13:55:23Z</time>
      </trkpt>
      <trkpt lat="59.071512222290039" lon="30.010850429534912">
        <time>2026-04-25T13:55:25Z</time>
      </trkpt>
      <trkpt lat="59.071512222290039" lon="30.010850429534912">
        <time>2026-04-25T13:55:28Z</time>
      </trkpt>
      <trkpt lat="59.071512222290039" lon="30.010850429534912">
        <time>2026-04-25T13:55:30Z</time>
      </trkpt>
      <trkpt lat="59.071512222290039" lon="30.010850429534912">
        <time>2026-04-25T13:55:33Z</time>
      </trkpt>
      <trkpt lat="59.071512222290039" lon="30.010850429534912">
        <time>2026-04-25T13:55:35Z</time>
      </trkpt>
      <trkpt lat="59.071512222290039" lon="30.010850429534912">
        <time>2026-04-25T13:55:38Z</time>
      </trkpt>
      <trkpt lat="59.071512222290039" lon="30.010850429534912">
        <time>2026-04-25T13:55:40Z</time>
      </trkpt>
      <trkpt lat="59.071512222290039" lon="30.010850429534912">
        <time>2026-04-25T13:55:43Z</time>
      </trkpt>
      <trkpt lat="59.071512222290039" lon="30.010850429534912">
        <time>2026-04-25T13:55:45Z</time>
      </trkpt>
      <trkpt lat="59.071512222290039" lon="30.010850429534912">
        <time>2026-04-25T13:55:48Z</time>
      </trkpt>
      <trkpt lat="59.071512222290039" lon="30.010850429534912">
        <time>2026-04-25T13:55:50Z</time>
      </trkpt>
      <trkpt lat="59.071512222290039" lon="30.010850429534912">
        <time>2026-04-25T13:55:53Z</time>
      </trkpt>
      <trkpt lat="59.071512222290039" lon="30.010850429534912">
        <time>2026-04-25T13:55:55Z</time>
      </trkpt>
      <trkpt lat="59.071512222290039" lon="30.010850429534912">
        <time>2026-04-25T13:55:58Z</time>
      </trkpt>
      <trkpt lat="59.071512222290039" lon="30.010850429534912">
        <time>2026-04-25T13:56:00Z</time>
      </trkpt>
      <trkpt lat="59.071512222290039" lon="30.010850429534912">
        <time>2026-04-25T13:56:03Z</time>
      </trkpt>
      <trkpt lat="59.071512222290039" lon="30.010850429534912">
        <time>2026-04-25T13:56:05Z</time>
      </trkpt>
      <trkpt lat="59.071512222290039" lon="30.010850429534912">
        <time>2026-04-25T13:56:08Z</time>
      </trkpt>
      <trkpt lat="59.071512222290039" lon="30.010850429534912">
        <time>2026-04-25T13:56:10Z</time>
      </trkpt>
      <trkpt lat="59.071512222290039" lon="30.010850429534912">
        <time>2026-04-25T13:56:13Z</time>
      </trkpt>
      <trkpt lat="59.071512222290039" lon="30.010850429534912">
        <time>2026-04-25T13:56:15Z</time>
      </trkpt>
      <trkpt lat="59.071512222290039" lon="30.010850429534912">
        <time>2026-04-25T13:56:18Z</time>
      </trkpt>
      <trkpt lat="59.071512222290039" lon="30.010850429534912">
        <time>2026-04-25T13:56:20Z</time>
      </trkpt>
      <trkpt lat="59.071512222290039" lon="30.010850429534912">
        <time>2026-04-25T13:56:23Z</time>
      </trkpt>
      <trkpt lat="59.071512222290039" lon="30.010850429534912">
        <time>2026-04-25T13:56:25Z</time>
      </trkpt>
      <trkpt lat="59.071512222290039" lon="30.010850429534912">
        <time>2026-04-25T13:56:28Z</time>
      </trkpt>
      <trkpt lat="59.071512222290039" lon="30.010850429534912">
        <time>2026-04-25T13:56:30Z</time>
      </trkpt>
      <trkpt lat="59.071512222290039" lon="30.010850429534912">
        <time>2026-04-25T13:56:33Z</time>
      </trkpt>
      <trkpt lat="59.071512222290039" lon="30.010850429534912">
        <time>2026-04-25T13:56:35Z</time>
      </trkpt>
      <trkpt lat="59.071512222290039" lon="30.010850429534912">
        <time>2026-04-25T13:56:38Z</time>
      </trkpt>
      <trkpt lat="59.071512222290039" lon="30.010850429534912">
        <time>2026-04-25T13:56:40Z</time>
      </trkpt>
      <trkpt lat="59.071512222290039" lon="30.010850429534912">
        <time>2026-04-25T13:56:43Z</time>
      </trkpt>
      <trkpt lat="59.071512222290039" lon="30.010850429534912">
        <time>2026-04-25T13:56:45Z</time>
      </trkpt>
      <trkpt lat="59.071512222290039" lon="30.010850429534912">
        <time>2026-04-25T13:56:48Z</time>
      </trkpt>
      <trkpt lat="59.071512222290039" lon="30.010850429534912">
        <time>2026-04-25T13:56:50Z</time>
      </trkpt>
      <trkpt lat="59.071512222290039" lon="30.010850429534912">
        <time>2026-04-25T13:56:53Z</time>
      </trkpt>
      <trkpt lat="59.071512222290039" lon="30.010850429534912">
        <time>2026-04-25T13:56:55Z</time>
      </trkpt>
      <trkpt lat="59.071512222290039" lon="30.010850429534912">
        <time>2026-04-25T13:56:58Z</time>
      </trkpt>
      <trkpt lat="59.071512222290039" lon="30.010850429534912">
        <time>2026-04-25T13:57:00Z</time>
      </trkpt>
      <trkpt lat="59.071512222290039" lon="30.010850429534912">
        <time>2026-04-25T13:57:03Z</time>
      </trkpt>
      <trkpt lat="59.071512222290039" lon="30.010850429534912">
        <time>2026-04-25T13:57:05Z</time>
      </trkpt>
      <trkpt lat="59.071512222290039" lon="30.010850429534912">
        <time>2026-04-25T13:57:08Z</time>
      </trkpt>
      <trkpt lat="59.071512222290039" lon="30.010850429534912">
        <time>2026-04-25T13:57:10Z</time>
      </trkpt>
      <trkpt lat="59.071512222290039" lon="30.010850429534912">
        <time>2026-04-25T13:57:13Z</time>
      </trkpt>
      <trkpt lat="59.071512222290039" lon="30.010850429534912">
        <time>2026-04-25T13:57:15Z</time>
      </trkpt>
      <trkpt lat="59.071512222290039" lon="30.010850429534912">
        <time>2026-04-25T13:57:18Z</time>
      </trkpt>
      <trkpt lat="59.071512222290039" lon="30.010850429534912">
        <time>2026-04-25T13:57:20Z</time>
      </trkpt>
      <trkpt lat="59.071512222290039" lon="30.010850429534912">
        <time>2026-04-25T13:57:23Z</time>
      </trkpt>
      <trkpt lat="59.071512222290039" lon="30.010850429534912">
        <time>2026-04-25T13:57:25Z</time>
      </trkpt>
      <trkpt lat="59.071512222290039" lon="30.010850429534912">
        <time>2026-04-25T13:57:28Z</time>
      </trkpt>
      <trkpt lat="59.071512222290039" lon="30.010850429534912">
        <time>2026-04-25T13:57:30Z</time>
      </trkpt>
      <trkpt lat="59.071512222290039" lon="30.010850429534912">
        <time>2026-04-25T13:57:33Z</time>
      </trkpt>
      <trkpt lat="59.071512222290039" lon="30.010850429534912">
        <time>2026-04-25T13:57:35Z</time>
      </trkpt>
      <trkpt lat="59.071512222290039" lon="30.010850429534912">
        <time>2026-04-25T13:57:38Z</time>
      </trkpt>
      <trkpt lat="59.071512222290039" lon="30.010850429534912">
        <time>2026-04-25T13:57:40Z</time>
      </trkpt>
      <trkpt lat="59.071512222290039" lon="30.010850429534912">
        <time>2026-04-25T13:57:43Z</time>
      </trkpt>
      <trkpt lat="59.071512222290039" lon="30.010850429534912">
        <time>2026-04-25T13:57:45Z</time>
      </trkpt>
      <trkpt lat="59.071512222290039" lon="30.010828971862793">
        <time>2026-04-25T13:57:48Z</time>
      </trkpt>
      <trkpt lat="59.071512222290039" lon="30.010828971862793">
        <time>2026-04-25T13:57:50Z</time>
      </trkpt>
      <trkpt lat="59.071512222290039" lon="30.010828971862793">
        <time>2026-04-25T13:57:53Z</time>
      </trkpt>
      <trkpt lat="59.071512222290039" lon="30.010828971862793">
        <time>2026-04-25T13:57:55Z</time>
      </trkpt>
      <trkpt lat="59.071512222290039" lon="30.010828971862793">
        <time>2026-04-25T13:57:58Z</time>
      </trkpt>
      <trkpt lat="59.071512222290039" lon="30.010828971862793">
        <time>2026-04-25T13:58:00Z</time>
      </trkpt>
      <trkpt lat="59.071512222290039" lon="30.010828971862793">
        <time>2026-04-25T13:58:03Z</time>
      </trkpt>
      <trkpt lat="59.071512222290039" lon="30.010828971862793">
        <time>2026-04-25T13:58:05Z</time>
      </trkpt>
      <trkpt lat="59.071512222290039" lon="30.010828971862793">
        <time>2026-04-25T13:58:08Z</time>
      </trkpt>
      <trkpt lat="59.071512222290039" lon="30.010828971862793">
        <time>2026-04-25T13:58:10Z</time>
      </trkpt>
      <trkpt lat="59.071512222290039" lon="30.010828971862793">
        <time>2026-04-25T13:58:13Z</time>
      </trkpt>
      <trkpt lat="59.071512222290039" lon="30.010828971862793">
        <time>2026-04-25T13:58:15Z</time>
      </trkpt>
      <trkpt lat="59.071512222290039" lon="30.010828971862793">
        <time>2026-04-25T13:58:18Z</time>
      </trkpt>
      <trkpt lat="59.071512222290039" lon="30.010828971862793">
        <time>2026-04-25T13:58:20Z</time>
      </trkpt>
      <trkpt lat="59.071512222290039" lon="30.010828971862793">
        <time>2026-04-25T13:58:23Z</time>
      </trkpt>
      <trkpt lat="59.071512222290039" lon="30.010828971862793">
        <time>2026-04-25T13:58:25Z</time>
      </trkpt>
      <trkpt lat="59.071512222290039" lon="30.010828971862793">
        <time>2026-04-25T13:58:28Z</time>
      </trkpt>
      <trkpt lat="59.071512222290039" lon="30.010828971862793">
        <time>2026-04-25T13:58:30Z</time>
      </trkpt>
      <trkpt lat="59.071512222290039" lon="30.010828971862793">
        <time>2026-04-25T13:58:33Z</time>
      </trkpt>
      <trkpt lat="59.071512222290039" lon="30.010828971862793">
        <time>2026-04-25T13:58:35Z</time>
      </trkpt>
      <trkpt lat="59.071512222290039" lon="30.010828971862793">
        <time>2026-04-25T13:58:38Z</time>
      </trkpt>
      <trkpt lat="59.071512222290039" lon="30.010828971862793">
        <time>2026-04-25T13:58:40Z</time>
      </trkpt>
      <trkpt lat="59.071512222290039" lon="30.010828971862793">
        <time>2026-04-25T13:58:43Z</time>
      </trkpt>
      <trkpt lat="59.071512222290039" lon="30.010828971862793">
        <time>2026-04-25T13:58:45Z</time>
      </trkpt>
      <trkpt lat="59.071512222290039" lon="30.010828971862793">
        <time>2026-04-25T13:58:48Z</time>
      </trkpt>
      <trkpt lat="59.071512222290039" lon="30.010828971862793">
        <time>2026-04-25T13:58:50Z</time>
      </trkpt>
      <trkpt lat="59.071512222290039" lon="30.010828971862793">
        <time>2026-04-25T13:58:53Z</time>
      </trkpt>
      <trkpt lat="59.071512222290039" lon="30.010828971862793">
        <time>2026-04-25T13:58:55Z</time>
      </trkpt>
      <trkpt lat="59.071512222290039" lon="30.010828971862793">
        <time>2026-04-25T13:58:58Z</time>
      </trkpt>
      <trkpt lat="59.071512222290039" lon="30.010828971862793">
        <time>2026-04-25T13:59:00Z</time>
      </trkpt>
      <trkpt lat="59.071512222290039" lon="30.010828971862793">
        <time>2026-04-25T13:59:03Z</time>
      </trkpt>
      <trkpt lat="59.071512222290039" lon="30.010828971862793">
        <time>2026-04-25T13:59:05Z</time>
      </trkpt>
      <trkpt lat="59.071512222290039" lon="30.010828971862793">
        <time>2026-04-25T13:59:08Z</time>
      </trkpt>
      <trkpt lat="59.071512222290039" lon="30.010828971862793">
        <time>2026-04-25T13:59:10Z</time>
      </trkpt>
      <trkpt lat="59.071512222290039" lon="30.010828971862793">
        <time>2026-04-25T13:59:13Z</time>
      </trkpt>
      <trkpt lat="59.071512222290039" lon="30.010828971862793">
        <time>2026-04-25T13:59:15Z</time>
      </trkpt>
      <trkpt lat="59.071512222290039" lon="30.010828971862793">
        <time>2026-04-25T13:59:18Z</time>
      </trkpt>
      <trkpt lat="59.071512222290039" lon="30.010828971862793">
        <time>2026-04-25T13:59:20Z</time>
      </trkpt>
      <trkpt lat="59.071512222290039" lon="30.010828971862793">
        <time>2026-04-25T13:59:23Z</time>
      </trkpt>
      <trkpt lat="59.071512222290039" lon="30.010828971862793">
        <time>2026-04-25T13:59:25Z</time>
      </trkpt>
      <trkpt lat="59.071512222290039" lon="30.010828971862793">
        <time>2026-04-25T13:59:28Z</time>
      </trkpt>
      <trkpt lat="59.071512222290039" lon="30.010850429534912">
        <time>2026-04-25T13:59:30Z</time>
      </trkpt>
      <trkpt lat="59.071512222290039" lon="30.010850429534912">
        <time>2026-04-25T13:59:33Z</time>
      </trkpt>
      <trkpt lat="59.071512222290039" lon="30.010850429534912">
        <time>2026-04-25T13:59:35Z</time>
      </trkpt>
      <trkpt lat="59.071512222290039" lon="30.010850429534912">
        <time>2026-04-25T13:59:38Z</time>
      </trkpt>
      <trkpt lat="59.071512222290039" lon="30.010850429534912">
        <time>2026-04-25T13:59:40Z</time>
      </trkpt>
      <trkpt lat="59.071512222290039" lon="30.010850429534912">
        <time>2026-04-25T13:59:43Z</time>
      </trkpt>
      <trkpt lat="59.071512222290039" lon="30.010850429534912">
        <time>2026-04-25T13:59:45Z</time>
      </trkpt>
      <trkpt lat="59.071512222290039" lon="30.010850429534912">
        <time>2026-04-25T13:59:48Z</time>
      </trkpt>
      <trkpt lat="59.071512222290039" lon="30.010828971862793">
        <time>2026-04-25T13:59:50Z</time>
      </trkpt>
      <trkpt lat="59.071512222290039" lon="30.010828971862793">
        <time>2026-04-25T13:59:53Z</time>
      </trkpt>
      <trkpt lat="59.071512222290039" lon="30.010828971862793">
        <time>2026-04-25T13:59:55Z</time>
      </trkpt>
      <trkpt lat="59.071512222290039" lon="30.010828971862793">
        <time>2026-04-25T13:59:58Z</time>
      </trkpt>
      <trkpt lat="59.071512222290039" lon="30.010828971862793">
        <time>2026-04-25T14:00:00Z</time>
      </trkpt>
      <trkpt lat="59.071512222290039" lon="30.010828971862793">
        <time>2026-04-25T14:00:03Z</time>
      </trkpt>
      <trkpt lat="59.071512222290039" lon="30.010828971862793">
        <time>2026-04-25T14:00:05Z</time>
      </trkpt>
      <trkpt lat="59.071512222290039" lon="30.010850429534912">
        <time>2026-04-25T14:00:08Z</time>
      </trkpt>
      <trkpt lat="59.071512222290039" lon="30.010828971862793">
        <time>2026-04-25T14:00:10Z</time>
      </trkpt>
      <trkpt lat="59.071512222290039" lon="30.010828971862793">
        <time>2026-04-25T14:00:13Z</time>
      </trkpt>
      <trkpt lat="59.071512222290039" lon="30.010828971862793">
        <time>2026-04-25T14:00:15Z</time>
      </trkpt>
      <trkpt lat="59.071512222290039" lon="30.010850429534912">
        <time>2026-04-25T14:00:18Z</time>
      </trkpt>
      <trkpt lat="59.071512222290039" lon="30.010850429534912">
        <time>2026-04-25T14:00:20Z</time>
      </trkpt>
      <trkpt lat="59.071512222290039" lon="30.010850429534912">
        <time>2026-04-25T14:00:23Z</time>
      </trkpt>
      <trkpt lat="59.071512222290039" lon="30.010850429534912">
        <time>2026-04-25T14:00:25Z</time>
      </trkpt>
      <trkpt lat="59.071512222290039" lon="30.010850429534912">
        <time>2026-04-25T14:00:28Z</time>
      </trkpt>
      <trkpt lat="59.071512222290039" lon="30.010850429534912">
        <time>2026-04-25T14:00:30Z</time>
      </trkpt>
      <trkpt lat="59.071512222290039" lon="30.010850429534912">
        <time>2026-04-25T14:00:33Z</time>
      </trkpt>
      <trkpt lat="59.071512222290039" lon="30.010850429534912">
        <time>2026-04-25T14:00:35Z</time>
      </trkpt>
      <trkpt lat="59.071512222290039" lon="30.010828971862793">
        <time>2026-04-25T14:00:38Z</time>
      </trkpt>
      <trkpt lat="59.071512222290039" lon="30.010828971862793">
        <time>2026-04-25T14:00:40Z</time>
      </trkpt>
      <trkpt lat="59.071512222290039" lon="30.010828971862793">
        <time>2026-04-25T14:00:43Z</time>
      </trkpt>
      <trkpt lat="59.071512222290039" lon="30.010828971862793">
        <time>2026-04-25T14:00:45Z</time>
      </trkpt>
      <trkpt lat="59.071512222290039" lon="30.010828971862793">
        <time>2026-04-25T14:00:48Z</time>
      </trkpt>
      <trkpt lat="59.071512222290039" lon="30.010828971862793">
        <time>2026-04-25T14:00:50Z</time>
      </trkpt>
      <trkpt lat="59.071512222290039" lon="30.010828971862793">
        <time>2026-04-25T14:00:53Z</time>
      </trkpt>
      <trkpt lat="59.071512222290039" lon="30.010828971862793">
        <time>2026-04-25T14:00:55Z</time>
      </trkpt>
      <trkpt lat="59.071512222290039" lon="30.010828971862793">
        <time>2026-04-25T14:00:58Z</time>
      </trkpt>
      <trkpt lat="59.071512222290039" lon="30.010828971862793">
        <time>2026-04-25T14:01:00Z</time>
      </trkpt>
      <trkpt lat="59.071512222290039" lon="30.010828971862793">
        <time>2026-04-25T14:01:03Z</time>
      </trkpt>
      <trkpt lat="59.071512222290039" lon="30.010828971862793">
        <time>2026-04-25T14:01:05Z</time>
      </trkpt>
      <trkpt lat="59.071512222290039" lon="30.010828971862793">
        <time>2026-04-25T14:01:08Z</time>
      </trkpt>
      <trkpt lat="59.071512222290039" lon="30.010828971862793">
        <time>2026-04-25T14:01:10Z</time>
      </trkpt>
      <trkpt lat="59.071512222290039" lon="30.010828971862793">
        <time>2026-04-25T14:01:13Z</time>
      </trkpt>
      <trkpt lat="59.071512222290039" lon="30.010828971862793">
        <time>2026-04-25T14:01:15Z</time>
      </trkpt>
      <trkpt lat="59.071512222290039" lon="30.010828971862793">
        <time>2026-04-25T14:01:18Z</time>
      </trkpt>
      <trkpt lat="59.071512222290039" lon="30.010828971862793">
        <time>2026-04-25T14:01:20Z</time>
      </trkpt>
      <trkpt lat="59.071512222290039" lon="30.010828971862793">
        <time>2026-04-25T14:01:23Z</time>
      </trkpt>
      <trkpt lat="59.071512222290039" lon="30.010828971862793">
        <time>2026-04-25T14:01:25Z</time>
      </trkpt>
      <trkpt lat="59.071512222290039" lon="30.010828971862793">
        <time>2026-04-25T14:01:28Z</time>
      </trkpt>
      <trkpt lat="59.071512222290039" lon="30.010828971862793">
        <time>2026-04-25T14:01:30Z</time>
      </trkpt>
      <trkpt lat="59.071512222290039" lon="30.010828971862793">
        <time>2026-04-25T14:01:33Z</time>
      </trkpt>
      <trkpt lat="59.071512222290039" lon="30.010828971862793">
        <time>2026-04-25T14:01:35Z</time>
      </trkpt>
      <trkpt lat="59.071512222290039" lon="30.010828971862793">
        <time>2026-04-25T14:01:38Z</time>
      </trkpt>
      <trkpt lat="59.071512222290039" lon="30.010828971862793">
        <time>2026-04-25T14:01:40Z</time>
      </trkpt>
      <trkpt lat="59.071512222290039" lon="30.010828971862793">
        <time>2026-04-25T14:01:43Z</time>
      </trkpt>
      <trkpt lat="59.071512222290039" lon="30.010828971862793">
        <time>2026-04-25T14:01:45Z</time>
      </trkpt>
      <trkpt lat="59.071512222290039" lon="30.010828971862793">
        <time>2026-04-25T14:01:48Z</time>
      </trkpt>
      <trkpt lat="59.071512222290039" lon="30.010828971862793">
        <time>2026-04-25T14:01:50Z</time>
      </trkpt>
      <trkpt lat="59.071512222290039" lon="30.010828971862793">
        <time>2026-04-25T14:01:53Z</time>
      </trkpt>
      <trkpt lat="59.071512222290039" lon="30.010828971862793">
        <time>2026-04-25T14:01:55Z</time>
      </trkpt>
      <trkpt lat="59.071512222290039" lon="30.010828971862793">
        <time>2026-04-25T14:01:58Z</time>
      </trkpt>
      <trkpt lat="59.071512222290039" lon="30.010828971862793">
        <time>2026-04-25T14:02:00Z</time>
      </trkpt>
      <trkpt lat="59.071512222290039" lon="30.010828971862793">
        <time>2026-04-25T14:02:03Z</time>
      </trkpt>
      <trkpt lat="59.071512222290039" lon="30.010828971862793">
        <time>2026-04-25T14:02:05Z</time>
      </trkpt>
      <trkpt lat="59.071512222290039" lon="30.010828971862793">
        <time>2026-04-25T14:02:08Z</time>
      </trkpt>
      <trkpt lat="59.071512222290039" lon="30.010828971862793">
        <time>2026-04-25T14:02:10Z</time>
      </trkpt>
      <trkpt lat="59.071512222290039" lon="30.010828971862793">
        <time>2026-04-25T14:02:13Z</time>
      </trkpt>
      <trkpt lat="59.071512222290039" lon="30.010828971862793">
        <time>2026-04-25T14:02:15Z</time>
      </trkpt>
      <trkpt lat="59.071512222290039" lon="30.010828971862793">
        <time>2026-04-25T14:02:18Z</time>
      </trkpt>
      <trkpt lat="59.071512222290039" lon="30.010828971862793">
        <time>2026-04-25T14:02:20Z</time>
      </trkpt>
      <trkpt lat="59.071512222290039" lon="30.010828971862793">
        <time>2026-04-25T14:02:23Z</time>
      </trkpt>
      <trkpt lat="59.071512222290039" lon="30.010828971862793">
        <time>2026-04-25T14:02:25Z</time>
      </trkpt>
      <trkpt lat="59.071512222290039" lon="30.010828971862793">
        <time>2026-04-25T14:02:28Z</time>
      </trkpt>
      <trkpt lat="59.071512222290039" lon="30.010828971862793">
        <time>2026-04-25T14:02:30Z</time>
      </trkpt>
      <trkpt lat="59.071512222290039" lon="30.010828971862793">
        <time>2026-04-25T14:02:33Z</time>
      </trkpt>
      <trkpt lat="59.071512222290039" lon="30.010828971862793">
        <time>2026-04-25T14:02:35Z</time>
      </trkpt>
      <trkpt lat="59.071512222290039" lon="30.010828971862793">
        <time>2026-04-25T14:02:38Z</time>
      </trkpt>
      <trkpt lat="59.071512222290039" lon="30.010828971862793">
        <time>2026-04-25T14:02:40Z</time>
      </trkpt>
      <trkpt lat="59.071512222290039" lon="30.010828971862793">
        <time>2026-04-25T14:02:43Z</time>
      </trkpt>
      <trkpt lat="59.071512222290039" lon="30.010828971862793">
        <time>2026-04-25T14:02:45Z</time>
      </trkpt>
      <trkpt lat="59.071512222290039" lon="30.010828971862793">
        <time>2026-04-25T14:02:48Z</time>
      </trkpt>
      <trkpt lat="59.071512222290039" lon="30.010828971862793">
        <time>2026-04-25T14:02:50Z</time>
      </trkpt>
      <trkpt lat="59.071512222290039" lon="30.010828971862793">
        <time>2026-04-25T14:02:53Z</time>
      </trkpt>
      <trkpt lat="59.071512222290039" lon="30.010828971862793">
        <time>2026-04-25T14:02:55Z</time>
      </trkpt>
      <trkpt lat="59.071512222290039" lon="30.010828971862793">
        <time>2026-04-25T14:02:58Z</time>
      </trkpt>
      <trkpt lat="59.071512222290039" lon="30.010828971862793">
        <time>2026-04-25T14:03:00Z</time>
      </trkpt>
      <trkpt lat="59.071512222290039" lon="30.010828971862793">
        <time>2026-04-25T14:03:03Z</time>
      </trkpt>
      <trkpt lat="59.071512222290039" lon="30.010828971862793">
        <time>2026-04-25T14:03:05Z</time>
      </trkpt>
      <trkpt lat="59.071512222290039" lon="30.010828971862793">
        <time>2026-04-25T14:03:08Z</time>
      </trkpt>
      <trkpt lat="59.071512222290039" lon="30.010828971862793">
        <time>2026-04-25T14:03:10Z</time>
      </trkpt>
      <trkpt lat="59.071512222290039" lon="30.010828971862793">
        <time>2026-04-25T14:03:13Z</time>
      </trkpt>
      <trkpt lat="59.071512222290039" lon="30.010828971862793">
        <time>2026-04-25T14:03:15Z</time>
      </trkpt>
      <trkpt lat="59.071512222290039" lon="30.010828971862793">
        <time>2026-04-25T14:03:18Z</time>
      </trkpt>
      <trkpt lat="59.071512222290039" lon="30.010828971862793">
        <time>2026-04-25T14:03:20Z</time>
      </trkpt>
      <trkpt lat="59.071512222290039" lon="30.010828971862793">
        <time>2026-04-25T14:03:23Z</time>
      </trkpt>
      <trkpt lat="59.071512222290039" lon="30.010828971862793">
        <time>2026-04-25T14:03:25Z</time>
      </trkpt>
      <trkpt lat="59.071512222290039" lon="30.010828971862793">
        <time>2026-04-25T14:03:28Z</time>
      </trkpt>
      <trkpt lat="59.071512222290039" lon="30.010828971862793">
        <time>2026-04-25T14:03:30Z</time>
      </trkpt>
      <trkpt lat="59.071512222290039" lon="30.010828971862793">
        <time>2026-04-25T14:03:33Z</time>
      </trkpt>
      <trkpt lat="59.071512222290039" lon="30.010828971862793">
        <time>2026-04-25T14:03:35Z</time>
      </trkpt>
      <trkpt lat="59.071512222290039" lon="30.010828971862793">
        <time>2026-04-25T14:03:38Z</time>
      </trkpt>
      <trkpt lat="59.071512222290039" lon="30.010828971862793">
        <time>2026-04-25T14:03:40Z</time>
      </trkpt>
      <trkpt lat="59.071512222290039" lon="30.010828971862793">
        <time>2026-04-25T14:03:43Z</time>
      </trkpt>
      <trkpt lat="59.071512222290039" lon="30.010828971862793">
        <time>2026-04-25T14:03:45Z</time>
      </trkpt>
      <trkpt lat="59.071512222290039" lon="30.010828971862793">
        <time>2026-04-25T14:03:48Z</time>
      </trkpt>
      <trkpt lat="59.071512222290039" lon="30.010828971862793">
        <time>2026-04-25T14:03:50Z</time>
      </trkpt>
      <trkpt lat="59.071512222290039" lon="30.010828971862793">
        <time>2026-04-25T14:03:53Z</time>
      </trkpt>
      <trkpt lat="59.071512222290039" lon="30.010828971862793">
        <time>2026-04-25T14:03:55Z</time>
      </trkpt>
      <trkpt lat="59.071512222290039" lon="30.010828971862793">
        <time>2026-04-25T14:03:58Z</time>
      </trkpt>
      <trkpt lat="59.071512222290039" lon="30.010828971862793">
        <time>2026-04-25T14:04:00Z</time>
      </trkpt>
      <trkpt lat="59.071512222290039" lon="30.010828971862793">
        <time>2026-04-25T14:04:03Z</time>
      </trkpt>
      <trkpt lat="59.071512222290039" lon="30.010828971862793">
        <time>2026-04-25T14:04:05Z</time>
      </trkpt>
      <trkpt lat="59.071512222290039" lon="30.010828971862793">
        <time>2026-04-25T14:04:08Z</time>
      </trkpt>
      <trkpt lat="59.071512222290039" lon="30.010828971862793">
        <time>2026-04-25T14:04:10Z</time>
      </trkpt>
      <trkpt lat="59.071512222290039" lon="30.010828971862793">
        <time>2026-04-25T14:04:13Z</time>
      </trkpt>
      <trkpt lat="59.071512222290039" lon="30.010828971862793">
        <time>2026-04-25T14:04:15Z</time>
      </trkpt>
      <trkpt lat="59.071512222290039" lon="30.010828971862793">
        <time>2026-04-25T14:04:18Z</time>
      </trkpt>
      <trkpt lat="59.071512222290039" lon="30.010828971862793">
        <time>2026-04-25T14:04:20Z</time>
      </trkpt>
      <trkpt lat="59.071512222290039" lon="30.010828971862793">
        <time>2026-04-25T14:04:23Z</time>
      </trkpt>
      <trkpt lat="59.071512222290039" lon="30.010828971862793">
        <time>2026-04-25T14:04:25Z</time>
      </trkpt>
      <trkpt lat="59.071512222290039" lon="30.010828971862793">
        <time>2026-04-25T14:04:28Z</time>
      </trkpt>
      <trkpt lat="59.071512222290039" lon="30.010828971862793">
        <time>2026-04-25T14:04:30Z</time>
      </trkpt>
      <trkpt lat="59.071512222290039" lon="30.010828971862793">
        <time>2026-04-25T14:04:33Z</time>
      </trkpt>
      <trkpt lat="59.071512222290039" lon="30.010828971862793">
        <time>2026-04-25T14:04:35Z</time>
      </trkpt>
      <trkpt lat="59.071512222290039" lon="30.010828971862793">
        <time>2026-04-25T14:04:38Z</time>
      </trkpt>
      <trkpt lat="59.071512222290039" lon="30.010828971862793">
        <time>2026-04-25T14:04:40Z</time>
      </trkpt>
      <trkpt lat="59.071512222290039" lon="30.010828971862793">
        <time>2026-04-25T14:04:43Z</time>
      </trkpt>
      <trkpt lat="59.071512222290039" lon="30.010828971862793">
        <time>2026-04-25T14:04:45Z</time>
      </trkpt>
      <trkpt lat="59.071512222290039" lon="30.010828971862793">
        <time>2026-04-25T14:04:48Z</time>
      </trkpt>
      <trkpt lat="59.071512222290039" lon="30.010828971862793">
        <time>2026-04-25T14:04:50Z</time>
      </trkpt>
      <trkpt lat="59.071512222290039" lon="30.010828971862793">
        <time>2026-04-25T14:04:53Z</time>
      </trkpt>
      <trkpt lat="59.071512222290039" lon="30.010828971862793">
        <time>2026-04-25T14:04:55Z</time>
      </trkpt>
      <trkpt lat="59.071512222290039" lon="30.010828971862793">
        <time>2026-04-25T14:04:58Z</time>
      </trkpt>
      <trkpt lat="59.071512222290039" lon="30.010828971862793">
        <time>2026-04-25T14:05:00Z</time>
      </trkpt>
      <trkpt lat="59.071512222290039" lon="30.010828971862793">
        <time>2026-04-25T14:05:03Z</time>
      </trkpt>
      <trkpt lat="59.071512222290039" lon="30.010828971862793">
        <time>2026-04-25T14:05:05Z</time>
      </trkpt>
      <trkpt lat="59.071512222290039" lon="30.010828971862793">
        <time>2026-04-25T14:05:08Z</time>
      </trkpt>
      <trkpt lat="59.071512222290039" lon="30.010828971862793">
        <time>2026-04-25T14:05:10Z</time>
      </trkpt>
      <trkpt lat="59.071512222290039" lon="30.010828971862793">
        <time>2026-04-25T14:05:13Z</time>
      </trkpt>
      <trkpt lat="59.071512222290039" lon="30.010828971862793">
        <time>2026-04-25T14:05:15Z</time>
      </trkpt>
      <trkpt lat="59.071512222290039" lon="30.010828971862793">
        <time>2026-04-25T14:05:18Z</time>
      </trkpt>
      <trkpt lat="59.071512222290039" lon="30.010828971862793">
        <time>2026-04-25T14:05:20Z</time>
      </trkpt>
      <trkpt lat="59.071512222290039" lon="30.010828971862793">
        <time>2026-04-25T14:05:23Z</time>
      </trkpt>
      <trkpt lat="59.071512222290039" lon="30.010828971862793">
        <time>2026-04-25T14:05:25Z</time>
      </trkpt>
      <trkpt lat="59.071512222290039" lon="30.010828971862793">
        <time>2026-04-25T14:05:28Z</time>
      </trkpt>
      <trkpt lat="59.071512222290039" lon="30.010828971862793">
        <time>2026-04-25T14:05:30Z</time>
      </trkpt>
      <trkpt lat="59.071512222290039" lon="30.010828971862793">
        <time>2026-04-25T14:05:33Z</time>
      </trkpt>
      <trkpt lat="59.071512222290039" lon="30.010828971862793">
        <time>2026-04-25T14:05:35Z</time>
      </trkpt>
      <trkpt lat="59.071512222290039" lon="30.010807514190674">
        <time>2026-04-25T14:05:38Z</time>
      </trkpt>
      <trkpt lat="59.07149076461792" lon="30.010743141174316">
        <time>2026-04-25T14:05:40Z</time>
      </trkpt>
      <trkpt lat="59.071512222290039" lon="30.01065731048584">
        <time>2026-04-25T14:05:43Z</time>
      </trkpt>
      <trkpt lat="59.071512222290039" lon="30.010614395141602">
        <time>2026-04-25T14:05:45Z</time>
      </trkpt>
      <trkpt lat="59.071512222290039" lon="30.010614395141602">
        <time>2026-04-25T14:05:48Z</time>
      </trkpt>
      <trkpt lat="59.071512222290039" lon="30.010592937469482">
        <time>2026-04-25T14:05:50Z</time>
      </trkpt>
      <trkpt lat="59.071512222290039" lon="30.010614395141602">
        <time>2026-04-25T14:05:53Z</time>
      </trkpt>
      <trkpt lat="59.071533679962158" lon="30.010614395141602">
        <time>2026-04-25T14:05:55Z</time>
      </trkpt>
      <trkpt lat="59.071533679962158" lon="30.010592937469482">
        <time>2026-04-25T14:05:58Z</time>
      </trkpt>
      <trkpt lat="59.071533679962158" lon="30.010592937469482">
        <time>2026-04-25T14:06:00Z</time>
      </trkpt>
      <trkpt lat="59.071533679962158" lon="30.010592937469482">
        <time>2026-04-25T14:06:03Z</time>
      </trkpt>
      <trkpt lat="59.071533679962158" lon="30.010592937469482">
        <time>2026-04-25T14:06:05Z</time>
      </trkpt>
      <trkpt lat="59.071533679962158" lon="30.010592937469482">
        <time>2026-04-25T14:06:08Z</time>
      </trkpt>
      <trkpt lat="59.071533679962158" lon="30.010592937469482">
        <time>2026-04-25T14:06:10Z</time>
      </trkpt>
      <trkpt lat="59.071533679962158" lon="30.010614395141602">
        <time>2026-04-25T14:06:13Z</time>
      </trkpt>
      <trkpt lat="59.071533679962158" lon="30.010614395141602">
        <time>2026-04-25T14:06:15Z</time>
      </trkpt>
      <trkpt lat="59.071533679962158" lon="30.010614395141602">
        <time>2026-04-25T14:06:18Z</time>
      </trkpt>
      <trkpt lat="59.071533679962158" lon="30.010614395141602">
        <time>2026-04-25T14:06:20Z</time>
      </trkpt>
      <trkpt lat="59.071533679962158" lon="30.010614395141602">
        <time>2026-04-25T14:06:23Z</time>
      </trkpt>
      <trkpt lat="59.071555137634277" lon="30.010635852813721">
        <time>2026-04-25T14:06:25Z</time>
      </trkpt>
      <trkpt lat="59.071555137634277" lon="30.010678768157959">
        <time>2026-04-25T14:06:28Z</time>
      </trkpt>
      <trkpt lat="59.071555137634277" lon="30.010764598846436">
        <time>2026-04-25T14:06:30Z</time>
      </trkpt>
      <trkpt lat="59.071555137634277" lon="30.010828971862793">
        <time>2026-04-25T14:06:33Z</time>
      </trkpt>
      <trkpt lat="59.071576595306396" lon="30.010850429534912">
        <time>2026-04-25T14:06:35Z</time>
      </trkpt>
      <trkpt lat="59.071576595306396" lon="30.010850429534912">
        <time>2026-04-25T14:06:38Z</time>
      </trkpt>
      <trkpt lat="59.071576595306396" lon="30.010871887207031">
        <time>2026-04-25T14:06:40Z</time>
      </trkpt>
      <trkpt lat="59.071576595306396" lon="30.010871887207031">
        <time>2026-04-25T14:06:43Z</time>
      </trkpt>
      <trkpt lat="59.071555137634277" lon="30.010871887207031">
        <time>2026-04-25T14:06:45Z</time>
      </trkpt>
      <trkpt lat="59.071555137634277" lon="30.010871887207031">
        <time>2026-04-25T14:06:48Z</time>
      </trkpt>
      <trkpt lat="59.071555137634277" lon="30.010871887207031">
        <time>2026-04-25T14:06:50Z</time>
      </trkpt>
      <trkpt lat="59.071555137634277" lon="30.010871887207031">
        <time>2026-04-25T14:06:53Z</time>
      </trkpt>
      <trkpt lat="59.071555137634277" lon="30.010871887207031">
        <time>2026-04-25T14:06:55Z</time>
      </trkpt>
      <trkpt lat="59.071555137634277" lon="30.010871887207031">
        <time>2026-04-25T14:06:58Z</time>
      </trkpt>
      <trkpt lat="59.071555137634277" lon="30.010871887207031">
        <time>2026-04-25T14:07:00Z</time>
      </trkpt>
      <trkpt lat="59.071555137634277" lon="30.010871887207031">
        <time>2026-04-25T14:07:03Z</time>
      </trkpt>
      <trkpt lat="59.071555137634277" lon="30.01089334487915">
        <time>2026-04-25T14:07:05Z</time>
      </trkpt>
      <trkpt lat="59.071555137634277" lon="30.01089334487915">
        <time>2026-04-25T14:07:08Z</time>
      </trkpt>
      <trkpt lat="59.071555137634277" lon="30.01089334487915">
        <time>2026-04-25T14:07:10Z</time>
      </trkpt>
      <trkpt lat="59.071555137634277" lon="30.01089334487915">
        <time>2026-04-25T14:07:13Z</time>
      </trkpt>
      <trkpt lat="59.071555137634277" lon="30.01089334487915">
        <time>2026-04-25T14:07:15Z</time>
      </trkpt>
      <trkpt lat="59.071555137634277" lon="30.01089334487915">
        <time>2026-04-25T14:07:18Z</time>
      </trkpt>
      <trkpt lat="59.071555137634277" lon="30.01089334487915">
        <time>2026-04-25T14:07:20Z</time>
      </trkpt>
      <trkpt lat="59.071555137634277" lon="30.01089334487915">
        <time>2026-04-25T14:07:23Z</time>
      </trkpt>
      <trkpt lat="59.071555137634277" lon="30.010871887207031">
        <time>2026-04-25T14:07:25Z</time>
      </trkpt>
      <trkpt lat="59.071555137634277" lon="30.010871887207031">
        <time>2026-04-25T14:07:28Z</time>
      </trkpt>
      <trkpt lat="59.071555137634277" lon="30.010871887207031">
        <time>2026-04-25T14:07:30Z</time>
      </trkpt>
      <trkpt lat="59.071555137634277" lon="30.010828971862793">
        <time>2026-04-25T14:07:33Z</time>
      </trkpt>
      <trkpt lat="59.071555137634277" lon="30.010764598846436">
        <time>2026-04-25T14:07:35Z</time>
      </trkpt>
      <trkpt lat="59.071555137634277" lon="30.010721683502197">
        <time>2026-04-25T14:07:38Z</time>
      </trkpt>
      <trkpt lat="59.071555137634277" lon="30.010614395141602">
        <time>2026-04-25T14:07:40Z</time>
      </trkpt>
      <trkpt lat="59.071555137634277" lon="30.010592937469482">
        <time>2026-04-25T14:07:43Z</time>
      </trkpt>
      <trkpt lat="59.071555137634277" lon="30.010592937469482">
        <time>2026-04-25T14:07:45Z</time>
      </trkpt>
      <trkpt lat="59.071555137634277" lon="30.010571479797363">
        <time>2026-04-25T14:07:48Z</time>
      </trkpt>
      <trkpt lat="59.071533679962158" lon="30.010550022125244">
        <time>2026-04-25T14:07:50Z</time>
      </trkpt>
      <trkpt lat="59.071555137634277" lon="30.010528564453125">
        <time>2026-04-25T14:07:53Z</time>
      </trkpt>
      <trkpt lat="59.071555137634277" lon="30.010507106781006">
        <time>2026-04-25T14:07:55Z</time>
      </trkpt>
      <trkpt lat="59.071533679962158" lon="30.010507106781006">
        <time>2026-04-25T14:07:58Z</time>
      </trkpt>
      <trkpt lat="59.071533679962158" lon="30.010507106781006">
        <time>2026-04-25T14:08:00Z</time>
      </trkpt>
      <trkpt lat="59.071512222290039" lon="30.010421276092529">
        <time>2026-04-25T14:08:03Z</time>
      </trkpt>
      <trkpt lat="59.07149076461792" lon="30.010356903076172">
        <time>2026-04-25T14:08:05Z</time>
      </trkpt>
      <trkpt lat="59.07149076461792" lon="30.010335445404053">
        <time>2026-04-25T14:08:08Z</time>
      </trkpt>
      <trkpt lat="59.071469306945801" lon="30.010292530059814">
        <time>2026-04-25T14:08:10Z</time>
      </trkpt>
      <trkpt lat="59.071469306945801" lon="30.010292530059814">
        <time>2026-04-25T14:08:13Z</time>
      </trkpt>
      <trkpt lat="59.071469306945801" lon="30.010206699371338">
        <time>2026-04-25T14:08:15Z</time>
      </trkpt>
      <trkpt lat="59.071447849273682" lon="30.010077953338623">
        <time>2026-04-25T14:08:18Z</time>
      </trkpt>
      <trkpt lat="59.071426391601563" lon="30.009970664978027">
        <time>2026-04-25T14:08:20Z</time>
      </trkpt>
      <trkpt lat="59.071426391601563" lon="30.009949207305908">
        <time>2026-04-25T14:08:23Z</time>
      </trkpt>
      <trkpt lat="59.071447849273682" lon="30.009949207305908">
        <time>2026-04-25T14:08:25Z</time>
      </trkpt>
      <trkpt lat="59.071447849273682" lon="30.009949207305908">
        <time>2026-04-25T14:08:28Z</time>
      </trkpt>
      <trkpt lat="59.071447849273682" lon="30.00990629196167">
        <time>2026-04-25T14:08:30Z</time>
      </trkpt>
      <trkpt lat="59.071447849273682" lon="30.00990629196167">
        <time>2026-04-25T14:08:33Z</time>
      </trkpt>
      <trkpt lat="59.071426391601563" lon="30.009799003601074">
        <time>2026-04-25T14:08:35Z</time>
      </trkpt>
      <trkpt lat="59.071426391601563" lon="30.009756088256836">
        <time>2026-04-25T14:08:38Z</time>
      </trkpt>
      <trkpt lat="59.071404933929443" lon="30.009734630584717">
        <time>2026-04-25T14:08:40Z</time>
      </trkpt>
      <trkpt lat="59.071404933929443" lon="30.009691715240479">
        <time>2026-04-25T14:08:43Z</time>
      </trkpt>
      <trkpt lat="59.071404933929443" lon="30.009670257568359">
        <time>2026-04-25T14:08:45Z</time>
      </trkpt>
      <trkpt lat="59.071383476257324" lon="30.009605884552002">
        <time>2026-04-25T14:08:48Z</time>
      </trkpt>
      <trkpt lat="59.071383476257324" lon="30.009584426879883">
        <time>2026-04-25T14:08:50Z</time>
      </trkpt>
      <trkpt lat="59.071383476257324" lon="30.009520053863525">
        <time>2026-04-25T14:08:53Z</time>
      </trkpt>
      <trkpt lat="59.071362018585205" lon="30.009455680847168">
        <time>2026-04-25T14:08:55Z</time>
      </trkpt>
      <trkpt lat="59.071362018585205" lon="30.009455680847168">
        <time>2026-04-25T14:08:58Z</time>
      </trkpt>
      <trkpt lat="59.071362018585205" lon="30.009434223175049">
        <time>2026-04-25T14:09:00Z</time>
      </trkpt>
      <trkpt lat="59.071362018585205" lon="30.00941276550293">
        <time>2026-04-25T14:09:03Z</time>
      </trkpt>
      <trkpt lat="59.071362018585205" lon="30.009284019470215">
        <time>2026-04-25T14:09:05Z</time>
      </trkpt>
      <trkpt lat="59.071362018585205" lon="30.009262561798096">
        <time>2026-04-25T14:09:08Z</time>
      </trkpt>
      <trkpt lat="59.071340560913086" lon="30.009219646453857">
        <time>2026-04-25T14:09:10Z</time>
      </trkpt>
      <trkpt lat="59.071340560913086" lon="30.009176731109619">
        <time>2026-04-25T14:09:13Z</time>
      </trkpt>
      <trkpt lat="59.071340560913086" lon="30.009133815765381">
        <time>2026-04-25T14:09:15Z</time>
      </trkpt>
      <trkpt lat="59.071340560913086" lon="30.009112358093262">
        <time>2026-04-25T14:09:18Z</time>
      </trkpt>
      <trkpt lat="59.071340560913086" lon="30.009112358093262">
        <time>2026-04-25T14:09:20Z</time>
      </trkpt>
      <trkpt lat="59.071319103240967" lon="30.009047985076904">
        <time>2026-04-25T14:09:23Z</time>
      </trkpt>
      <trkpt lat="59.071297645568848" lon="30.008962154388428">
        <time>2026-04-25T14:09:25Z</time>
      </trkpt>
      <trkpt lat="59.071297645568848" lon="30.008940696716309">
        <time>2026-04-25T14:09:28Z</time>
      </trkpt>
      <trkpt lat="59.071297645568848" lon="30.008919239044189">
        <time>2026-04-25T14:09:30Z</time>
      </trkpt>
      <trkpt lat="59.071297645568848" lon="30.00889778137207">
        <time>2026-04-25T14:09:33Z</time>
      </trkpt>
      <trkpt lat="59.071297645568848" lon="30.008833408355713">
        <time>2026-04-25T14:09:35Z</time>
      </trkpt>
      <trkpt lat="59.071297645568848" lon="30.008833408355713">
        <time>2026-04-25T14:09:38Z</time>
      </trkpt>
      <trkpt lat="59.071297645568848" lon="30.008790493011475">
        <time>2026-04-25T14:09:40Z</time>
      </trkpt>
      <trkpt lat="59.071276187896729" lon="30.008683204650879">
        <time>2026-04-25T14:09:43Z</time>
      </trkpt>
      <trkpt lat="59.071276187896729" lon="30.008618831634521">
        <time>2026-04-25T14:09:45Z</time>
      </trkpt>
      <trkpt lat="59.071276187896729" lon="30.008597373962402">
        <time>2026-04-25T14:09:48Z</time>
      </trkpt>
      <trkpt lat="59.071276187896729" lon="30.008597373962402">
        <time>2026-04-25T14:09:50Z</time>
      </trkpt>
      <trkpt lat="59.071254730224609" lon="30.008554458618164">
        <time>2026-04-25T14:09:53Z</time>
      </trkpt>
      <trkpt lat="59.071254730224609" lon="30.008511543273926">
        <time>2026-04-25T14:09:55Z</time>
      </trkpt>
      <trkpt lat="59.071254730224609" lon="30.008468627929687">
        <time>2026-04-25T14:09:58Z</time>
      </trkpt>
      <trkpt lat="59.07123327255249" lon="30.008468627929687">
        <time>2026-04-25T14:10:00Z</time>
      </trkpt>
      <trkpt lat="59.071254730224609" lon="30.008447170257568">
        <time>2026-04-25T14:10:03Z</time>
      </trkpt>
      <trkpt lat="59.071254730224609" lon="30.008447170257568">
        <time>2026-04-25T14:10:05Z</time>
      </trkpt>
      <trkpt lat="59.07123327255249" lon="30.008339881896973">
        <time>2026-04-25T14:10:08Z</time>
      </trkpt>
      <trkpt lat="59.07123327255249" lon="30.008318424224854">
        <time>2026-04-25T14:10:10Z</time>
      </trkpt>
      <trkpt lat="59.07123327255249" lon="30.008318424224854">
        <time>2026-04-25T14:10:13Z</time>
      </trkpt>
      <trkpt lat="59.07123327255249" lon="30.008296966552734">
        <time>2026-04-25T14:10:15Z</time>
      </trkpt>
      <trkpt lat="59.07123327255249" lon="30.008296966552734">
        <time>2026-04-25T14:10:18Z</time>
      </trkpt>
      <trkpt lat="59.07123327255249" lon="30.008296966552734">
        <time>2026-04-25T14:10:20Z</time>
      </trkpt>
      <trkpt lat="59.07123327255249" lon="30.008275508880615">
        <time>2026-04-25T14:10:23Z</time>
      </trkpt>
      <trkpt lat="59.07123327255249" lon="30.008211135864258">
        <time>2026-04-25T14:10:25Z</time>
      </trkpt>
      <trkpt lat="59.071211814880371" lon="30.008125305175781">
        <time>2026-04-25T14:10:28Z</time>
      </trkpt>
      <trkpt lat="59.071211814880371" lon="30.008082389831543">
        <time>2026-04-25T14:10:30Z</time>
      </trkpt>
      <trkpt lat="59.071211814880371" lon="30.008039474487305">
        <time>2026-04-25T14:10:33Z</time>
      </trkpt>
      <trkpt lat="59.071190357208252" lon="30.007996559143066">
        <time>2026-04-25T14:10:35Z</time>
      </trkpt>
      <trkpt lat="59.071190357208252" lon="30.007996559143066">
        <time>2026-04-25T14:10:38Z</time>
      </trkpt>
      <trkpt lat="59.071190357208252" lon="30.007996559143066">
        <time>2026-04-25T14:10:40Z</time>
      </trkpt>
      <trkpt lat="59.071190357208252" lon="30.007996559143066">
        <time>2026-04-25T14:10:43Z</time>
      </trkpt>
      <trkpt lat="59.071190357208252" lon="30.007996559143066">
        <time>2026-04-25T14:10:45Z</time>
      </trkpt>
      <trkpt lat="59.071190357208252" lon="30.007996559143066">
        <time>2026-04-25T14:10:48Z</time>
      </trkpt>
      <trkpt lat="59.071190357208252" lon="30.007996559143066">
        <time>2026-04-25T14:10:50Z</time>
      </trkpt>
      <trkpt lat="59.071168899536133" lon="30.007996559143066">
        <time>2026-04-25T14:10:53Z</time>
      </trkpt>
      <trkpt lat="59.071083068847656" lon="30.007975101470947">
        <time>2026-04-25T14:10:55Z</time>
      </trkpt>
      <trkpt lat="59.071061611175537" lon="30.007975101470947">
        <time>2026-04-25T14:10:58Z</time>
      </trkpt>
      <trkpt lat="59.071018695831299" lon="30.007975101470947">
        <time>2026-04-25T14:11:00Z</time>
      </trkpt>
      <trkpt lat="59.071018695831299" lon="30.007996559143066">
        <time>2026-04-25T14:11:03Z</time>
      </trkpt>
      <trkpt lat="59.071018695831299" lon="30.007996559143066">
        <time>2026-04-25T14:11:05Z</time>
      </trkpt>
      <trkpt lat="59.071018695831299" lon="30.007996559143066">
        <time>2026-04-25T14:11:08Z</time>
      </trkpt>
      <trkpt lat="59.071018695831299" lon="30.007996559143066">
        <time>2026-04-25T14:11:10Z</time>
      </trkpt>
      <trkpt lat="59.071018695831299" lon="30.007996559143066">
        <time>2026-04-25T14:11:13Z</time>
      </trkpt>
      <trkpt lat="59.071018695831299" lon="30.007996559143066">
        <time>2026-04-25T14:11:15Z</time>
      </trkpt>
      <trkpt lat="59.071018695831299" lon="30.007996559143066">
        <time>2026-04-25T14:11:18Z</time>
      </trkpt>
      <trkpt lat="59.071018695831299" lon="30.007996559143066">
        <time>2026-04-25T14:11:20Z</time>
      </trkpt>
      <trkpt lat="59.071018695831299" lon="30.007996559143066">
        <time>2026-04-25T14:11:23Z</time>
      </trkpt>
      <trkpt lat="59.071018695831299" lon="30.007996559143066">
        <time>2026-04-25T14:11:25Z</time>
      </trkpt>
      <trkpt lat="59.071018695831299" lon="30.007996559143066">
        <time>2026-04-25T14:11:28Z</time>
      </trkpt>
      <trkpt lat="59.07099723815918" lon="30.007996559143066">
        <time>2026-04-25T14:11:30Z</time>
      </trkpt>
      <trkpt lat="59.07099723815918" lon="30.007996559143066">
        <time>2026-04-25T14:11:33Z</time>
      </trkpt>
      <trkpt lat="59.070975780487061" lon="30.007996559143066">
        <time>2026-04-25T14:11:35Z</time>
      </trkpt>
      <trkpt lat="59.070975780487061" lon="30.007996559143066">
        <time>2026-04-25T14:11:38Z</time>
      </trkpt>
      <trkpt lat="59.070975780487061" lon="30.007996559143066">
        <time>2026-04-25T14:11:40Z</time>
      </trkpt>
      <trkpt lat="59.070975780487061" lon="30.007996559143066">
        <time>2026-04-25T14:11:43Z</time>
      </trkpt>
      <trkpt lat="59.070975780487061" lon="30.007996559143066">
        <time>2026-04-25T14:11:45Z</time>
      </trkpt>
      <trkpt lat="59.070975780487061" lon="30.008018016815186">
        <time>2026-04-25T14:11:48Z</time>
      </trkpt>
      <trkpt lat="59.070975780487061" lon="30.008018016815186">
        <time>2026-04-25T14:11:50Z</time>
      </trkpt>
      <trkpt lat="59.070975780487061" lon="30.008018016815186">
        <time>2026-04-25T14:11:53Z</time>
      </trkpt>
      <trkpt lat="59.070954322814941" lon="30.008018016815186">
        <time>2026-04-25T14:11:55Z</time>
      </trkpt>
      <trkpt lat="59.070932865142822" lon="30.008060932159424">
        <time>2026-04-25T14:11:58Z</time>
      </trkpt>
      <trkpt lat="59.070911407470703" lon="30.008103847503662">
        <time>2026-04-25T14:12:00Z</time>
      </trkpt>
      <trkpt lat="59.070932865142822" lon="30.008125305175781">
        <time>2026-04-25T14:12:03Z</time>
      </trkpt>
      <trkpt lat="59.070911407470703" lon="30.008125305175781">
        <time>2026-04-25T14:12:05Z</time>
      </trkpt>
      <trkpt lat="59.070868492126465" lon="30.0081467628479">
        <time>2026-04-25T14:12:08Z</time>
      </trkpt>
      <trkpt lat="59.070868492126465" lon="30.0081467628479">
        <time>2026-04-25T14:12:10Z</time>
      </trkpt>
      <trkpt lat="59.070847034454346" lon="30.0081467628479">
        <time>2026-04-25T14:12:13Z</time>
      </trkpt>
      <trkpt lat="59.070825576782227" lon="30.00816822052002">
        <time>2026-04-25T14:12:15Z</time>
      </trkpt>
      <trkpt lat="59.070804119110107" lon="30.00816822052002">
        <time>2026-04-25T14:12:18Z</time>
      </trkpt>
      <trkpt lat="59.070782661437988" lon="30.008189678192139">
        <time>2026-04-25T14:12:20Z</time>
      </trkpt>
      <trkpt lat="59.070782661437988" lon="30.008189678192139">
        <time>2026-04-25T14:12:23Z</time>
      </trkpt>
      <trkpt lat="59.070782661437988" lon="30.008211135864258">
        <time>2026-04-25T14:12:25Z</time>
      </trkpt>
      <trkpt lat="59.070761203765869" lon="30.008232593536377">
        <time>2026-04-25T14:12:28Z</time>
      </trkpt>
      <trkpt lat="59.070761203765869" lon="30.008232593536377">
        <time>2026-04-25T14:12:30Z</time>
      </trkpt>
      <trkpt lat="59.07073974609375" lon="30.008232593536377">
        <time>2026-04-25T14:12:33Z</time>
      </trkpt>
      <trkpt lat="59.070718288421631" lon="30.008232593536377">
        <time>2026-04-25T14:12:35Z</time>
      </trkpt>
      <trkpt lat="59.070696830749512" lon="30.008211135864258">
        <time>2026-04-25T14:12:38Z</time>
      </trkpt>
      <trkpt lat="59.070696830749512" lon="30.008211135864258">
        <time>2026-04-25T14:12:40Z</time>
      </trkpt>
      <trkpt lat="59.070696830749512" lon="30.00816822052002">
        <time>2026-04-25T14:12:43Z</time>
      </trkpt>
      <trkpt lat="59.070675373077393" lon="30.008125305175781">
        <time>2026-04-25T14:12:45Z</time>
      </trkpt>
      <trkpt lat="59.070675373077393" lon="30.008103847503662">
        <time>2026-04-25T14:12:48Z</time>
      </trkpt>
      <trkpt lat="59.070653915405273" lon="30.008082389831543">
        <time>2026-04-25T14:12:50Z</time>
      </trkpt>
      <trkpt lat="59.070653915405273" lon="30.008039474487305">
        <time>2026-04-25T14:12:53Z</time>
      </trkpt>
      <trkpt lat="59.070632457733154" lon="30.007975101470947">
        <time>2026-04-25T14:12:55Z</time>
      </trkpt>
      <trkpt lat="59.070632457733154" lon="30.007953643798828">
        <time>2026-04-25T14:12:58Z</time>
      </trkpt>
      <trkpt lat="59.070632457733154" lon="30.007953643798828">
        <time>2026-04-25T14:13:00Z</time>
      </trkpt>
      <trkpt lat="59.070611000061035" lon="30.007889270782471">
        <time>2026-04-25T14:13:03Z</time>
      </trkpt>
      <trkpt lat="59.070611000061035" lon="30.007867813110352">
        <time>2026-04-25T14:13:05Z</time>
      </trkpt>
      <trkpt lat="59.070611000061035" lon="30.007824897766113">
        <time>2026-04-25T14:13:08Z</time>
      </trkpt>
      <trkpt lat="59.070589542388916" lon="30.007760524749756">
        <time>2026-04-25T14:13:10Z</time>
      </trkpt>
      <trkpt lat="59.070589542388916" lon="30.007739067077637">
        <time>2026-04-25T14:13:13Z</time>
      </trkpt>
      <trkpt lat="59.070589542388916" lon="30.007696151733398">
        <time>2026-04-25T14:13:15Z</time>
      </trkpt>
      <trkpt lat="59.070568084716797" lon="30.007631778717041">
        <time>2026-04-25T14:13:18Z</time>
      </trkpt>
      <trkpt lat="59.070546627044678" lon="30.007610321044922">
        <time>2026-04-25T14:13:20Z</time>
      </trkpt>
      <trkpt lat="59.070546627044678" lon="30.007567405700684">
        <time>2026-04-25T14:13:23Z</time>
      </trkpt>
      <trkpt lat="59.070525169372559" lon="30.007524490356445">
        <time>2026-04-25T14:13:25Z</time>
      </trkpt>
      <trkpt lat="59.070525169372559" lon="30.007481575012207">
        <time>2026-04-25T14:13:28Z</time>
      </trkpt>
      <trkpt lat="59.070525169372559" lon="30.00741720199585">
        <time>2026-04-25T14:13:30Z</time>
      </trkpt>
      <trkpt lat="59.070503711700439" lon="30.007374286651611">
        <time>2026-04-25T14:13:33Z</time>
      </trkpt>
      <trkpt lat="59.070503711700439" lon="30.007374286651611">
        <time>2026-04-25T14:13:35Z</time>
      </trkpt>
      <trkpt lat="59.070525169372559" lon="30.007331371307373">
        <time>2026-04-25T14:13:38Z</time>
      </trkpt>
      <trkpt lat="59.070525169372559" lon="30.007245540618896">
        <time>2026-04-25T14:13:40Z</time>
      </trkpt>
      <trkpt lat="59.070525169372559" lon="30.007202625274658">
        <time>2026-04-25T14:13:43Z</time>
      </trkpt>
      <trkpt lat="59.070503711700439" lon="30.00715970993042">
        <time>2026-04-25T14:13:45Z</time>
      </trkpt>
      <trkpt lat="59.070525169372559" lon="30.007095336914063">
        <time>2026-04-25T14:13:48Z</time>
      </trkpt>
      <trkpt lat="59.070546627044678" lon="30.007030963897705">
        <time>2026-04-25T14:13:50Z</time>
      </trkpt>
      <trkpt lat="59.070546627044678" lon="30.006988048553467">
        <time>2026-04-25T14:13:53Z</time>
      </trkpt>
      <trkpt lat="59.070546627044678" lon="30.006923675537109">
        <time>2026-04-25T14:13:58Z</time>
      </trkpt>
      <trkpt lat="59.070525169372559" lon="30.006880760192871">
        <time>2026-04-25T14:14:00Z</time>
      </trkpt>
      <trkpt lat="59.070525169372559" lon="30.006880760192871">
        <time>2026-04-25T14:14:03Z</time>
      </trkpt>
      <trkpt lat="59.070525169372559" lon="30.006837844848633">
        <time>2026-04-25T14:14:05Z</time>
      </trkpt>
      <trkpt lat="59.070525169372559" lon="30.006794929504395">
        <time>2026-04-25T14:14:08Z</time>
      </trkpt>
      <trkpt lat="59.070525169372559" lon="30.006730556488037">
        <time>2026-04-25T14:14:10Z</time>
      </trkpt>
      <trkpt lat="59.070503711700439" lon="30.006687641143799">
        <time>2026-04-25T14:14:13Z</time>
      </trkpt>
      <trkpt lat="59.07048225402832" lon="30.006644725799561">
        <time>2026-04-25T14:14:15Z</time>
      </trkpt>
      <trkpt lat="59.07048225402832" lon="30.006623268127441">
        <time>2026-04-25T14:14:18Z</time>
      </trkpt>
      <trkpt lat="59.07048225402832" lon="30.006558895111084">
        <time>2026-04-25T14:14:20Z</time>
      </trkpt>
      <trkpt lat="59.070460796356201" lon="30.006537437438965">
        <time>2026-04-25T14:14:23Z</time>
      </trkpt>
      <trkpt lat="59.070460796356201" lon="30.006494522094727">
        <time>2026-04-25T14:14:25Z</time>
      </trkpt>
      <trkpt lat="59.070460796356201" lon="30.006494522094727">
        <time>2026-04-25T14:14:28Z</time>
      </trkpt>
      <trkpt lat="59.070460796356201" lon="30.006494522094727">
        <time>2026-04-25T14:14:30Z</time>
      </trkpt>
      <trkpt lat="59.070439338684082" lon="30.006473064422607">
        <time>2026-04-25T14:14:33Z</time>
      </trkpt>
      <trkpt lat="59.070417881011963" lon="30.006430149078369">
        <time>2026-04-25T14:14:35Z</time>
      </trkpt>
      <trkpt lat="59.070417881011963" lon="30.006387233734131">
        <time>2026-04-25T14:14:38Z</time>
      </trkpt>
      <trkpt lat="59.070396423339844" lon="30.006365776062012">
        <time>2026-04-25T14:14:40Z</time>
      </trkpt>
      <trkpt lat="59.070396423339844" lon="30.006365776062012">
        <time>2026-04-25T14:14:43Z</time>
      </trkpt>
      <trkpt lat="59.070374965667725" lon="30.006344318389893">
        <time>2026-04-25T14:14:45Z</time>
      </trkpt>
      <trkpt lat="59.070374965667725" lon="30.006301403045654">
        <time>2026-04-25T14:14:48Z</time>
      </trkpt>
      <trkpt lat="59.070353507995605" lon="30.006237030029297">
        <time>2026-04-25T14:14:50Z</time>
      </trkpt>
      <trkpt lat="59.070332050323486" lon="30.006172657012939">
        <time>2026-04-25T14:14:53Z</time>
      </trkpt>
      <trkpt lat="59.070332050323486" lon="30.00615119934082">
        <time>2026-04-25T14:14:55Z</time>
      </trkpt>
      <trkpt lat="59.070310592651367" lon="30.006108283996582">
        <time>2026-04-25T14:14:58Z</time>
      </trkpt>
      <trkpt lat="59.070310592651367" lon="30.006086826324463">
        <time>2026-04-25T14:15:00Z</time>
      </trkpt>
      <trkpt lat="59.070310592651367" lon="30.006022453308105">
        <time>2026-04-25T14:15:03Z</time>
      </trkpt>
      <trkpt lat="59.070289134979248" lon="30.005979537963867">
        <time>2026-04-25T14:15:05Z</time>
      </trkpt>
      <trkpt lat="59.070289134979248" lon="30.005936622619629">
        <time>2026-04-25T14:15:08Z</time>
      </trkpt>
      <trkpt lat="59.070289134979248" lon="30.00591516494751">
        <time>2026-04-25T14:15:10Z</time>
      </trkpt>
      <trkpt lat="59.070289134979248" lon="30.00591516494751">
        <time>2026-04-25T14:15:13Z</time>
      </trkpt>
      <trkpt lat="59.070289134979248" lon="30.005872249603271">
        <time>2026-04-25T14:15:15Z</time>
      </trkpt>
      <trkpt lat="59.070289134979248" lon="30.005850791931152">
        <time>2026-04-25T14:15:18Z</time>
      </trkpt>
      <trkpt lat="59.070289134979248" lon="30.005850791931152">
        <time>2026-04-25T14:15:20Z</time>
      </trkpt>
      <trkpt lat="59.070267677307129" lon="30.005850791931152">
        <time>2026-04-25T14:15:23Z</time>
      </trkpt>
      <trkpt lat="59.07024621963501" lon="30.005850791931152">
        <time>2026-04-25T14:15:25Z</time>
      </trkpt>
      <trkpt lat="59.07024621963501" lon="30.005829334259033">
        <time>2026-04-25T14:15:28Z</time>
      </trkpt>
      <trkpt lat="59.070203304290771" lon="30.005807876586914">
        <time>2026-04-25T14:15:30Z</time>
      </trkpt>
      <trkpt lat="59.070203304290771" lon="30.005786418914795">
        <time>2026-04-25T14:15:33Z</time>
      </trkpt>
      <trkpt lat="59.070181846618652" lon="30.005764961242676">
        <time>2026-04-25T14:15:35Z</time>
      </trkpt>
      <trkpt lat="59.070160388946533" lon="30.005743503570557">
        <time>2026-04-25T14:15:38Z</time>
      </trkpt>
      <trkpt lat="59.070138931274414" lon="30.005700588226318">
        <time>2026-04-25T14:15:40Z</time>
      </trkpt>
      <trkpt lat="59.070138931274414" lon="30.005700588226318">
        <time>2026-04-25T14:15:43Z</time>
      </trkpt>
      <trkpt lat="59.070117473602295" lon="30.00565767288208">
        <time>2026-04-25T14:15:45Z</time>
      </trkpt>
      <trkpt lat="59.070096015930176" lon="30.005636215209961">
        <time>2026-04-25T14:15:48Z</time>
      </trkpt>
      <trkpt lat="59.070096015930176" lon="30.005614757537842">
        <time>2026-04-25T14:15:50Z</time>
      </trkpt>
      <trkpt lat="59.070096015930176" lon="30.005550384521484">
        <time>2026-04-25T14:15:53Z</time>
      </trkpt>
      <trkpt lat="59.070074558258057" lon="30.005507469177246">
        <time>2026-04-25T14:15:55Z</time>
      </trkpt>
      <trkpt lat="59.070053100585938" lon="30.005486011505127">
        <time>2026-04-25T14:15:58Z</time>
      </trkpt>
      <trkpt lat="59.070053100585938" lon="30.00542163848877">
        <time>2026-04-25T14:16:00Z</time>
      </trkpt>
      <trkpt lat="59.070053100585938" lon="30.005378723144531">
        <time>2026-04-25T14:16:03Z</time>
      </trkpt>
      <trkpt lat="59.070053100585938" lon="30.005335807800293">
        <time>2026-04-25T14:16:05Z</time>
      </trkpt>
      <trkpt lat="59.070053100585938" lon="30.005314350128174">
        <time>2026-04-25T14:16:08Z</time>
      </trkpt>
      <trkpt lat="59.070053100585938" lon="30.005314350128174">
        <time>2026-04-25T14:16:10Z</time>
      </trkpt>
      <trkpt lat="59.070031642913818" lon="30.005314350128174">
        <time>2026-04-25T14:16:13Z</time>
      </trkpt>
      <trkpt lat="59.070031642913818" lon="30.005314350128174">
        <time>2026-04-25T14:16:15Z</time>
      </trkpt>
      <trkpt lat="59.070031642913818" lon="30.005314350128174">
        <time>2026-04-25T14:16:18Z</time>
      </trkpt>
      <trkpt lat="59.070031642913818" lon="30.005314350128174">
        <time>2026-04-25T14:16:20Z</time>
      </trkpt>
      <trkpt lat="59.070031642913818" lon="30.005314350128174">
        <time>2026-04-25T14:16:23Z</time>
      </trkpt>
      <trkpt lat="59.070031642913818" lon="30.005314350128174">
        <time>2026-04-25T14:16:25Z</time>
      </trkpt>
      <trkpt lat="59.070031642913818" lon="30.005314350128174">
        <time>2026-04-25T14:16:28Z</time>
      </trkpt>
      <trkpt lat="59.070031642913818" lon="30.005314350128174">
        <time>2026-04-25T14:16:30Z</time>
      </trkpt>
      <trkpt lat="59.070031642913818" lon="30.005314350128174">
        <time>2026-04-25T14:16:33Z</time>
      </trkpt>
      <trkpt lat="59.070031642913818" lon="30.005314350128174">
        <time>2026-04-25T14:16:35Z</time>
      </trkpt>
      <trkpt lat="59.070031642913818" lon="30.005314350128174">
        <time>2026-04-25T14:16:38Z</time>
      </trkpt>
      <trkpt lat="59.070031642913818" lon="30.005314350128174">
        <time>2026-04-25T14:16:40Z</time>
      </trkpt>
      <trkpt lat="59.070031642913818" lon="30.005314350128174">
        <time>2026-04-25T14:16:43Z</time>
      </trkpt>
      <trkpt lat="59.070031642913818" lon="30.005314350128174">
        <time>2026-04-25T14:16:45Z</time>
      </trkpt>
      <trkpt lat="59.070031642913818" lon="30.005314350128174">
        <time>2026-04-25T14:16:48Z</time>
      </trkpt>
      <trkpt lat="59.070031642913818" lon="30.005314350128174">
        <time>2026-04-25T14:16:50Z</time>
      </trkpt>
      <trkpt lat="59.070010185241699" lon="30.005314350128174">
        <time>2026-04-25T14:16:53Z</time>
      </trkpt>
      <trkpt lat="59.070010185241699" lon="30.005292892456055">
        <time>2026-04-25T14:16:55Z</time>
      </trkpt>
      <trkpt lat="59.06998872756958" lon="30.005249977111816">
        <time>2026-04-25T14:16:58Z</time>
      </trkpt>
      <trkpt lat="59.069967269897461" lon="30.005207061767578">
        <time>2026-04-25T14:17:00Z</time>
      </trkpt>
      <trkpt lat="59.069924354553223" lon="30.00516414642334">
        <time>2026-04-25T14:17:03Z</time>
      </trkpt>
      <trkpt lat="59.069902896881104" lon="30.005121231079102">
        <time>2026-04-25T14:17:05Z</time>
      </trkpt>
      <trkpt lat="59.069881439208984" lon="30.005099773406982">
        <time>2026-04-25T14:17:08Z</time>
      </trkpt>
      <trkpt lat="59.069881439208984" lon="30.005078315734863">
        <time>2026-04-25T14:17:10Z</time>
      </trkpt>
      <trkpt lat="59.069859981536865" lon="30.005056858062744">
        <time>2026-04-25T14:17:13Z</time>
      </trkpt>
      <trkpt lat="59.069838523864746" lon="30.005013942718506">
        <time>2026-04-25T14:17:15Z</time>
      </trkpt>
      <trkpt lat="59.069838523864746" lon="30.004992485046387">
        <time>2026-04-25T14:17:18Z</time>
      </trkpt>
      <trkpt lat="59.069817066192627" lon="30.004971027374268">
        <time>2026-04-25T14:17:20Z</time>
      </trkpt>
      <trkpt lat="59.069817066192627" lon="30.004949569702148">
        <time>2026-04-25T14:17:23Z</time>
      </trkpt>
      <trkpt lat="59.069774150848389" lon="30.00490665435791">
        <time>2026-04-25T14:17:25Z</time>
      </trkpt>
      <trkpt lat="59.06975269317627" lon="30.004863739013672">
        <time>2026-04-25T14:17:28Z</time>
      </trkpt>
      <trkpt lat="59.06975269317627" lon="30.004820823669434">
        <time>2026-04-25T14:17:30Z</time>
      </trkpt>
      <trkpt lat="59.06973123550415" lon="30.004777908325195">
        <time>2026-04-25T14:17:33Z</time>
      </trkpt>
      <trkpt lat="59.069709777832031" lon="30.004713535308838">
        <time>2026-04-25T14:17:35Z</time>
      </trkpt>
      <trkpt lat="59.069709777832031" lon="30.004692077636719">
        <time>2026-04-25T14:17:38Z</time>
      </trkpt>
      <trkpt lat="59.069688320159912" lon="30.0046706199646">
        <time>2026-04-25T14:17:40Z</time>
      </trkpt>
      <trkpt lat="59.069688320159912" lon="30.004627704620361">
        <time>2026-04-25T14:17:43Z</time>
      </trkpt>
      <trkpt lat="59.069666862487793" lon="30.004563331604004">
        <time>2026-04-25T14:17:45Z</time>
      </trkpt>
      <trkpt lat="59.069666862487793" lon="30.004541873931885">
        <time>2026-04-25T14:17:48Z</time>
      </trkpt>
      <trkpt lat="59.069645404815674" lon="30.004498958587646">
        <time>2026-04-25T14:17:50Z</time>
      </trkpt>
      <trkpt lat="59.069623947143555" lon="30.004477500915527">
        <time>2026-04-25T14:17:53Z</time>
      </trkpt>
      <trkpt lat="59.069623947143555" lon="30.004434585571289">
        <time>2026-04-25T14:17:55Z</time>
      </trkpt>
      <trkpt lat="59.069623947143555" lon="30.00441312789917">
        <time>2026-04-25T14:17:58Z</time>
      </trkpt>
      <trkpt lat="59.069623947143555" lon="30.004370212554932">
        <time>2026-04-25T14:18:00Z</time>
      </trkpt>
      <trkpt lat="59.069602489471436" lon="30.004348754882813">
        <time>2026-04-25T14:18:03Z</time>
      </trkpt>
      <trkpt lat="59.069602489471436" lon="30.004327297210693">
        <time>2026-04-25T14:18:05Z</time>
      </trkpt>
      <trkpt lat="59.069581031799316" lon="30.004284381866455">
        <time>2026-04-25T14:18:08Z</time>
      </trkpt>
      <trkpt lat="59.069581031799316" lon="30.004262924194336">
        <time>2026-04-25T14:18:10Z</time>
      </trkpt>
      <trkpt lat="59.069559574127197" lon="30.004241466522217">
        <time>2026-04-25T14:18:13Z</time>
      </trkpt>
      <trkpt lat="59.069559574127197" lon="30.004220008850098">
        <time>2026-04-25T14:18:15Z</time>
      </trkpt>
      <trkpt lat="59.069516658782959" lon="30.004198551177979">
        <time>2026-04-25T14:18:18Z</time>
      </trkpt>
      <trkpt lat="59.069473743438721" lon="30.004134178161621">
        <time>2026-04-25T14:18:20Z</time>
      </trkpt>
      <trkpt lat="59.069473743438721" lon="30.004091262817383">
        <time>2026-04-25T14:18:23Z</time>
      </trkpt>
      <trkpt lat="59.069452285766602" lon="30.004048347473145">
        <time>2026-04-25T14:18:25Z</time>
      </trkpt>
      <trkpt lat="59.069409370422363" lon="30.004026889801025">
        <time>2026-04-25T14:18:28Z</time>
      </trkpt>
      <trkpt lat="59.069387912750244" lon="30.004005432128906">
        <time>2026-04-25T14:18:30Z</time>
      </trkpt>
      <trkpt lat="59.069387912750244" lon="30.004005432128906">
        <time>2026-04-25T14:18:33Z</time>
      </trkpt>
      <trkpt lat="59.069366455078125" lon="30.004005432128906">
        <time>2026-04-25T14:18:35Z</time>
      </trkpt>
      <trkpt lat="59.069366455078125" lon="30.003983974456787">
        <time>2026-04-25T14:18:38Z</time>
      </trkpt>
      <trkpt lat="59.069344997406006" lon="30.003962516784668">
        <time>2026-04-25T14:18:40Z</time>
      </trkpt>
      <trkpt lat="59.069323539733887" lon="30.003941059112549">
        <time>2026-04-25T14:18:43Z</time>
      </trkpt>
      <trkpt lat="59.069302082061768" lon="30.003941059112549">
        <time>2026-04-25T14:18:45Z</time>
      </trkpt>
      <trkpt lat="59.069302082061768" lon="30.003941059112549">
        <time>2026-04-25T14:18:48Z</time>
      </trkpt>
      <trkpt lat="59.069302082061768" lon="30.003941059112549">
        <time>2026-04-25T14:18:50Z</time>
      </trkpt>
      <trkpt lat="59.069302082061768" lon="30.003941059112549">
        <time>2026-04-25T14:18:53Z</time>
      </trkpt>
      <trkpt lat="59.069259166717529" lon="30.003983974456787">
        <time>2026-04-25T14:18:55Z</time>
      </trkpt>
      <trkpt lat="59.06923770904541" lon="30.004005432128906">
        <time>2026-04-25T14:18:58Z</time>
      </trkpt>
      <trkpt lat="59.06923770904541" lon="30.004005432128906">
        <time>2026-04-25T14:19:00Z</time>
      </trkpt>
      <trkpt lat="59.06923770904541" lon="30.004005432128906">
        <time>2026-04-25T14:19:03Z</time>
      </trkpt>
      <trkpt lat="59.069216251373291" lon="30.004005432128906">
        <time>2026-04-25T14:19:05Z</time>
      </trkpt>
      <trkpt lat="59.069194793701172" lon="30.004026889801025">
        <time>2026-04-25T14:19:08Z</time>
      </trkpt>
      <trkpt lat="59.069151878356934" lon="30.004005432128906">
        <time>2026-04-25T14:19:10Z</time>
      </trkpt>
      <trkpt lat="59.069130420684814" lon="30.004005432128906">
        <time>2026-04-25T14:19:13Z</time>
      </trkpt>
      <trkpt lat="59.069087505340576" lon="30.004005432128906">
        <time>2026-04-25T14:19:15Z</time>
      </trkpt>
      <trkpt lat="59.069066047668457" lon="30.003983974456787">
        <time>2026-04-25T14:19:18Z</time>
      </trkpt>
      <trkpt lat="59.069044589996338" lon="30.004005432128906">
        <time>2026-04-25T14:19:20Z</time>
      </trkpt>
      <trkpt lat="59.069023132324219" lon="30.004005432128906">
        <time>2026-04-25T14:19:23Z</time>
      </trkpt>
      <trkpt lat="59.069023132324219" lon="30.003983974456787">
        <time>2026-04-25T14:19:25Z</time>
      </trkpt>
      <trkpt lat="59.0690016746521" lon="30.004005432128906">
        <time>2026-04-25T14:19:28Z</time>
      </trkpt>
      <trkpt lat="59.0690016746521" lon="30.003983974456787">
        <time>2026-04-25T14:19:30Z</time>
      </trkpt>
      <trkpt lat="59.06898021697998" lon="30.004026889801025">
        <time>2026-04-25T14:19:33Z</time>
      </trkpt>
      <trkpt lat="59.068958759307861" lon="30.004026889801025">
        <time>2026-04-25T14:19:35Z</time>
      </trkpt>
      <trkpt lat="59.068937301635742" lon="30.004026889801025">
        <time>2026-04-25T14:19:38Z</time>
      </trkpt>
      <trkpt lat="59.068915843963623" lon="30.004048347473145">
        <time>2026-04-25T14:19:40Z</time>
      </trkpt>
      <trkpt lat="59.068915843963623" lon="30.004069805145264">
        <time>2026-04-25T14:19:43Z</time>
      </trkpt>
      <trkpt lat="59.068894386291504" lon="30.004112720489502">
        <time>2026-04-25T14:19:45Z</time>
      </trkpt>
      <trkpt lat="59.068851470947266" lon="30.004112720489502">
        <time>2026-04-25T14:19:48Z</time>
      </trkpt>
      <trkpt lat="59.068851470947266" lon="30.004091262817383">
        <time>2026-04-25T14:19:50Z</time>
      </trkpt>
      <trkpt lat="59.068830013275146" lon="30.004112720489502">
        <time>2026-04-25T14:19:53Z</time>
      </trkpt>
      <trkpt lat="59.068787097930908" lon="30.004091262817383">
        <time>2026-04-25T14:19:55Z</time>
      </trkpt>
      <trkpt lat="59.068765640258789" lon="30.004112720489502">
        <time>2026-04-25T14:19:58Z</time>
      </trkpt>
      <trkpt lat="59.06874418258667" lon="30.004112720489502">
        <time>2026-04-25T14:20:00Z</time>
      </trkpt>
      <trkpt lat="59.068701267242432" lon="30.004134178161621">
        <time>2026-04-25T14:20:03Z</time>
      </trkpt>
      <trkpt lat="59.068701267242432" lon="30.004112720489502">
        <time>2026-04-25T14:20:05Z</time>
      </trkpt>
      <trkpt lat="59.068679809570313" lon="30.004112720489502">
        <time>2026-04-25T14:20:08Z</time>
      </trkpt>
      <trkpt lat="59.068658351898193" lon="30.004112720489502">
        <time>2026-04-25T14:20:10Z</time>
      </trkpt>
      <trkpt lat="59.068658351898193" lon="30.004112720489502">
        <time>2026-04-25T14:20:13Z</time>
      </trkpt>
      <trkpt lat="59.068658351898193" lon="30.004112720489502">
        <time>2026-04-25T14:20:15Z</time>
      </trkpt>
      <trkpt lat="59.068658351898193" lon="30.004112720489502">
        <time>2026-04-25T14:20:18Z</time>
      </trkpt>
      <trkpt lat="59.068679809570313" lon="30.004112720489502">
        <time>2026-04-25T14:20:20Z</time>
      </trkpt>
      <trkpt lat="59.068679809570313" lon="30.004112720489502">
        <time>2026-04-25T14:20:23Z</time>
      </trkpt>
      <trkpt lat="59.068615436553955" lon="30.004112720489502">
        <time>2026-04-25T14:20:25Z</time>
      </trkpt>
      <trkpt lat="59.068593978881836" lon="30.004134178161621">
        <time>2026-04-25T14:20:28Z</time>
      </trkpt>
      <trkpt lat="59.068572521209717" lon="30.00415563583374">
        <time>2026-04-25T14:20:30Z</time>
      </trkpt>
      <trkpt lat="59.068529605865479" lon="30.00415563583374">
        <time>2026-04-25T14:20:33Z</time>
      </trkpt>
      <trkpt lat="59.068529605865479" lon="30.00415563583374">
        <time>2026-04-25T14:20:35Z</time>
      </trkpt>
      <trkpt lat="59.068508148193359" lon="30.00415563583374">
        <time>2026-04-25T14:20:38Z</time>
      </trkpt>
      <trkpt lat="59.068529605865479" lon="30.00415563583374">
        <time>2026-04-25T14:20:40Z</time>
      </trkpt>
      <trkpt lat="59.068529605865479" lon="30.00415563583374">
        <time>2026-04-25T14:20:43Z</time>
      </trkpt>
      <trkpt lat="59.068508148193359" lon="30.004177093505859">
        <time>2026-04-25T14:20:45Z</time>
      </trkpt>
      <trkpt lat="59.06848669052124" lon="30.004177093505859">
        <time>2026-04-25T14:20:48Z</time>
      </trkpt>
      <trkpt lat="59.06848669052124" lon="30.004177093505859">
        <time>2026-04-25T14:20:50Z</time>
      </trkpt>
      <trkpt lat="59.06848669052124" lon="30.004177093505859">
        <time>2026-04-25T14:20:53Z</time>
      </trkpt>
      <trkpt lat="59.06848669052124" lon="30.004177093505859">
        <time>2026-04-25T14:20:55Z</time>
      </trkpt>
      <trkpt lat="59.068465232849121" lon="30.004198551177979">
        <time>2026-04-25T14:20:58Z</time>
      </trkpt>
      <trkpt lat="59.068422317504883" lon="30.004220008850098">
        <time>2026-04-25T14:21:00Z</time>
      </trkpt>
      <trkpt lat="59.068379402160645" lon="30.004262924194336">
        <time>2026-04-25T14:21:03Z</time>
      </trkpt>
      <trkpt lat="59.068336486816406" lon="30.004284381866455">
        <time>2026-04-25T14:21:05Z</time>
      </trkpt>
      <trkpt lat="59.068315029144287" lon="30.004284381866455">
        <time>2026-04-25T14:21:08Z</time>
      </trkpt>
      <trkpt lat="59.068315029144287" lon="30.004284381866455">
        <time>2026-04-25T14:21:10Z</time>
      </trkpt>
      <trkpt lat="59.068293571472168" lon="30.004284381866455">
        <time>2026-04-25T14:21:13Z</time>
      </trkpt>
      <trkpt lat="59.068272113800049" lon="30.004327297210693">
        <time>2026-04-25T14:21:15Z</time>
      </trkpt>
      <trkpt lat="59.068229198455811" lon="30.004348754882813">
        <time>2026-04-25T14:21:18Z</time>
      </trkpt>
      <trkpt lat="59.068207740783691" lon="30.004327297210693">
        <time>2026-04-25T14:21:20Z</time>
      </trkpt>
      <trkpt lat="59.068186283111572" lon="30.004348754882813">
        <time>2026-04-25T14:21:23Z</time>
      </trkpt>
      <trkpt lat="59.068121910095215" lon="30.004348754882813">
        <time>2026-04-25T14:21:25Z</time>
      </trkpt>
      <trkpt lat="59.068100452423096" lon="30.004348754882813">
        <time>2026-04-25T14:21:28Z</time>
      </trkpt>
      <trkpt lat="59.068078994750977" lon="30.004370212554932">
        <time>2026-04-25T14:21:30Z</time>
      </trkpt>
      <trkpt lat="59.068057537078857" lon="30.004370212554932">
        <time>2026-04-25T14:21:33Z</time>
      </trkpt>
      <trkpt lat="59.068036079406738" lon="30.004391670227051">
        <time>2026-04-25T14:21:35Z</time>
      </trkpt>
      <trkpt lat="59.068036079406738" lon="30.004391670227051">
        <time>2026-04-25T14:21:38Z</time>
      </trkpt>
      <trkpt lat="59.068014621734619" lon="30.004391670227051">
        <time>2026-04-25T14:21:40Z</time>
      </trkpt>
      <trkpt lat="59.0679931640625" lon="30.004391670227051">
        <time>2026-04-25T14:21:43Z</time>
      </trkpt>
      <trkpt lat="59.067971706390381" lon="30.004391670227051">
        <time>2026-04-25T14:21:45Z</time>
      </trkpt>
      <trkpt lat="59.067971706390381" lon="30.004391670227051">
        <time>2026-04-25T14:21:48Z</time>
      </trkpt>
      <trkpt lat="59.067950248718262" lon="30.00441312789917">
        <time>2026-04-25T14:21:50Z</time>
      </trkpt>
      <trkpt lat="59.067928791046143" lon="30.00441312789917">
        <time>2026-04-25T14:21:53Z</time>
      </trkpt>
      <trkpt lat="59.067907333374023" lon="30.00441312789917">
        <time>2026-04-25T14:21:55Z</time>
      </trkpt>
      <trkpt lat="59.067885875701904" lon="30.00441312789917">
        <time>2026-04-25T14:21:58Z</time>
      </trkpt>
      <trkpt lat="59.067864418029785" lon="30.004434585571289">
        <time>2026-04-25T14:22:00Z</time>
      </trkpt>
      <trkpt lat="59.067842960357666" lon="30.004434585571289">
        <time>2026-04-25T14:22:03Z</time>
      </trkpt>
      <trkpt lat="59.067800045013428" lon="30.004434585571289">
        <time>2026-04-25T14:22:05Z</time>
      </trkpt>
      <trkpt lat="59.067778587341309" lon="30.004456043243408">
        <time>2026-04-25T14:22:08Z</time>
      </trkpt>
      <trkpt lat="59.067757129669189" lon="30.004477500915527">
        <time>2026-04-25T14:22:10Z</time>
      </trkpt>
      <trkpt lat="59.067757129669189" lon="30.004477500915527">
        <time>2026-04-25T14:22:13Z</time>
      </trkpt>
      <trkpt lat="59.067757129669189" lon="30.004456043243408">
        <time>2026-04-25T14:22:15Z</time>
      </trkpt>
      <trkpt lat="59.06773567199707" lon="30.004456043243408">
        <time>2026-04-25T14:22:18Z</time>
      </trkpt>
      <trkpt lat="59.067692756652832" lon="30.004477500915527">
        <time>2026-04-25T14:22:20Z</time>
      </trkpt>
      <trkpt lat="59.067671298980713" lon="30.004498958587646">
        <time>2026-04-25T14:22:23Z</time>
      </trkpt>
      <trkpt lat="59.067649841308594" lon="30.004498958587646">
        <time>2026-04-25T14:22:25Z</time>
      </trkpt>
      <trkpt lat="59.067649841308594" lon="30.004498958587646">
        <time>2026-04-25T14:22:28Z</time>
      </trkpt>
      <trkpt lat="59.067649841308594" lon="30.004498958587646">
        <time>2026-04-25T14:22:30Z</time>
      </trkpt>
      <trkpt lat="59.067649841308594" lon="30.004520416259766">
        <time>2026-04-25T14:22:33Z</time>
      </trkpt>
      <trkpt lat="59.067628383636475" lon="30.004520416259766">
        <time>2026-04-25T14:22:35Z</time>
      </trkpt>
      <trkpt lat="59.067606925964355" lon="30.004541873931885">
        <time>2026-04-25T14:22:38Z</time>
      </trkpt>
      <trkpt lat="59.067564010620117" lon="30.004584789276123">
        <time>2026-04-25T14:22:40Z</time>
      </trkpt>
      <trkpt lat="59.067542552947998" lon="30.004606246948242">
        <time>2026-04-25T14:22:43Z</time>
      </trkpt>
      <trkpt lat="59.06749963760376" lon="30.00464916229248">
        <time>2026-04-25T14:22:45Z</time>
      </trkpt>
      <trkpt lat="59.067456722259521" lon="30.0046706199646">
        <time>2026-04-25T14:22:48Z</time>
      </trkpt>
      <trkpt lat="59.067456722259521" lon="30.0046706199646">
        <time>2026-04-25T14:22:50Z</time>
      </trkpt>
      <trkpt lat="59.067456722259521" lon="30.0046706199646">
        <time>2026-04-25T14:22:53Z</time>
      </trkpt>
      <trkpt lat="59.067456722259521" lon="30.0046706199646">
        <time>2026-04-25T14:22:55Z</time>
      </trkpt>
      <trkpt lat="59.067456722259521" lon="30.004692077636719">
        <time>2026-04-25T14:22:58Z</time>
      </trkpt>
      <trkpt lat="59.067435264587402" lon="30.004777908325195">
        <time>2026-04-25T14:23:00Z</time>
      </trkpt>
      <trkpt lat="59.067435264587402" lon="30.004842281341553">
        <time>2026-04-25T14:23:03Z</time>
      </trkpt>
      <trkpt lat="59.067413806915283" lon="30.004863739013672">
        <time>2026-04-25T14:23:05Z</time>
      </trkpt>
      <trkpt lat="59.067392349243164" lon="30.00490665435791">
        <time>2026-04-25T14:23:08Z</time>
      </trkpt>
      <trkpt lat="59.067392349243164" lon="30.004949569702148">
        <time>2026-04-25T14:23:10Z</time>
      </trkpt>
      <trkpt lat="59.067370891571045" lon="30.004971027374268">
        <time>2026-04-25T14:23:13Z</time>
      </trkpt>
      <trkpt lat="59.067370891571045" lon="30.004971027374268">
        <time>2026-04-25T14:23:15Z</time>
      </trkpt>
      <trkpt lat="59.067349433898926" lon="30.004992485046387">
        <time>2026-04-25T14:23:18Z</time>
      </trkpt>
      <trkpt lat="59.067327976226807" lon="30.005035400390625">
        <time>2026-04-25T14:23:20Z</time>
      </trkpt>
      <trkpt lat="59.067306518554688" lon="30.005056858062744">
        <time>2026-04-25T14:23:23Z</time>
      </trkpt>
      <trkpt lat="59.067263603210449" lon="30.005078315734863">
        <time>2026-04-25T14:23:25Z</time>
      </trkpt>
      <trkpt lat="59.067263603210449" lon="30.005121231079102">
        <time>2026-04-25T14:23:28Z</time>
      </trkpt>
      <trkpt lat="59.06724214553833" lon="30.005185604095459">
        <time>2026-04-25T14:23:30Z</time>
      </trkpt>
      <trkpt lat="59.067220687866211" lon="30.005207061767578">
        <time>2026-04-25T14:23:33Z</time>
      </trkpt>
      <trkpt lat="59.067199230194092" lon="30.005271434783936">
        <time>2026-04-25T14:23:35Z</time>
      </trkpt>
      <trkpt lat="59.067177772521973" lon="30.005314350128174">
        <time>2026-04-25T14:23:38Z</time>
      </trkpt>
      <trkpt lat="59.067156314849854" lon="30.005335807800293">
        <time>2026-04-25T14:23:40Z</time>
      </trkpt>
      <trkpt lat="59.067156314849854" lon="30.005357265472412">
        <time>2026-04-25T14:23:43Z</time>
      </trkpt>
      <trkpt lat="59.067134857177734" lon="30.005378723144531">
        <time>2026-04-25T14:23:45Z</time>
      </trkpt>
      <trkpt lat="59.067113399505615" lon="30.00540018081665">
        <time>2026-04-25T14:23:48Z</time>
      </trkpt>
      <trkpt lat="59.067113399505615" lon="30.00542163848877">
        <time>2026-04-25T14:23:50Z</time>
      </trkpt>
      <trkpt lat="59.067091941833496" lon="30.005464553833008">
        <time>2026-04-25T14:23:53Z</time>
      </trkpt>
      <trkpt lat="59.067049026489258" lon="30.005486011505127">
        <time>2026-04-25T14:23:55Z</time>
      </trkpt>
      <trkpt lat="59.067027568817139" lon="30.005550384521484">
        <time>2026-04-25T14:24:00Z</time>
      </trkpt>
      <trkpt lat="59.067027568817139" lon="30.005593299865723">
        <time>2026-04-25T14:24:03Z</time>
      </trkpt>
      <trkpt lat="59.0669846534729" lon="30.005636215209961">
        <time>2026-04-25T14:24:05Z</time>
      </trkpt>
      <trkpt lat="59.066963195800781" lon="30.005679130554199">
        <time>2026-04-25T14:24:08Z</time>
      </trkpt>
      <trkpt lat="59.066941738128662" lon="30.005700588226318">
        <time>2026-04-25T14:24:10Z</time>
      </trkpt>
      <trkpt lat="59.066941738128662" lon="30.005743503570557">
        <time>2026-04-25T14:24:13Z</time>
      </trkpt>
      <trkpt lat="59.066941738128662" lon="30.005786418914795">
        <time>2026-04-25T14:24:15Z</time>
      </trkpt>
      <trkpt lat="59.066941738128662" lon="30.005829334259033">
        <time>2026-04-25T14:24:18Z</time>
      </trkpt>
      <trkpt lat="59.066941738128662" lon="30.005850791931152">
        <time>2026-04-25T14:24:20Z</time>
      </trkpt>
      <trkpt lat="59.066920280456543" lon="30.005872249603271">
        <time>2026-04-25T14:24:23Z</time>
      </trkpt>
      <trkpt lat="59.066898822784424" lon="30.005893707275391">
        <time>2026-04-25T14:24:25Z</time>
      </trkpt>
      <trkpt lat="59.066898822784424" lon="30.005893707275391">
        <time>2026-04-25T14:24:28Z</time>
      </trkpt>
      <trkpt lat="59.066855907440186" lon="30.005958080291748">
        <time>2026-04-25T14:24:30Z</time>
      </trkpt>
      <trkpt lat="59.066855907440186" lon="30.006043910980225">
        <time>2026-04-25T14:24:33Z</time>
      </trkpt>
      <trkpt lat="59.066855907440186" lon="30.006086826324463">
        <time>2026-04-25T14:24:35Z</time>
      </trkpt>
      <trkpt lat="59.066812992095947" lon="30.006129741668701">
        <time>2026-04-25T14:24:38Z</time>
      </trkpt>
      <trkpt lat="59.066812992095947" lon="30.00615119934082">
        <time>2026-04-25T14:24:40Z</time>
      </trkpt>
      <trkpt lat="59.066791534423828" lon="30.006194114685059">
        <time>2026-04-25T14:24:43Z</time>
      </trkpt>
      <trkpt lat="59.066791534423828" lon="30.006215572357178">
        <time>2026-04-25T14:24:45Z</time>
      </trkpt>
      <trkpt lat="59.066770076751709" lon="30.006237030029297">
        <time>2026-04-25T14:24:48Z</time>
      </trkpt>
      <trkpt lat="59.06674861907959" lon="30.006279945373535">
        <time>2026-04-25T14:24:50Z</time>
      </trkpt>
      <trkpt lat="59.066727161407471" lon="30.006344318389893">
        <time>2026-04-25T14:24:53Z</time>
      </trkpt>
      <trkpt lat="59.066705703735352" lon="30.00640869140625">
        <time>2026-04-25T14:24:55Z</time>
      </trkpt>
      <trkpt lat="59.066705703735352" lon="30.006451606750488">
        <time>2026-04-25T14:24:58Z</time>
      </trkpt>
      <trkpt lat="59.066705703735352" lon="30.006451606750488">
        <time>2026-04-25T14:25:00Z</time>
      </trkpt>
      <trkpt lat="59.066705703735352" lon="30.006494522094727">
        <time>2026-04-25T14:25:03Z</time>
      </trkpt>
      <trkpt lat="59.066662788391113" lon="30.006580352783203">
        <time>2026-04-25T14:25:05Z</time>
      </trkpt>
      <trkpt lat="59.066662788391113" lon="30.006644725799561">
        <time>2026-04-25T14:25:08Z</time>
      </trkpt>
      <trkpt lat="59.066641330718994" lon="30.006709098815918">
        <time>2026-04-25T14:25:10Z</time>
      </trkpt>
      <trkpt lat="59.066641330718994" lon="30.006730556488037">
        <time>2026-04-25T14:25:13Z</time>
      </trkpt>
      <trkpt lat="59.066641330718994" lon="30.006730556488037">
        <time>2026-04-25T14:25:15Z</time>
      </trkpt>
      <trkpt lat="59.066641330718994" lon="30.006773471832275">
        <time>2026-04-25T14:25:18Z</time>
      </trkpt>
      <trkpt lat="59.066619873046875" lon="30.006794929504395">
        <time>2026-04-25T14:25:20Z</time>
      </trkpt>
      <trkpt lat="59.066598415374756" lon="30.006837844848633">
        <time>2026-04-25T14:25:23Z</time>
      </trkpt>
      <trkpt lat="59.066576957702637" lon="30.006880760192871">
        <time>2026-04-25T14:25:25Z</time>
      </trkpt>
      <trkpt lat="59.066555500030518" lon="30.00690221786499">
        <time>2026-04-25T14:25:28Z</time>
      </trkpt>
      <trkpt lat="59.066555500030518" lon="30.00690221786499">
        <time>2026-04-25T14:25:30Z</time>
      </trkpt>
      <trkpt lat="59.066555500030518" lon="30.006923675537109">
        <time>2026-04-25T14:25:33Z</time>
      </trkpt>
      <trkpt lat="59.066555500030518" lon="30.006945133209229">
        <time>2026-04-25T14:25:35Z</time>
      </trkpt>
      <trkpt lat="59.066534042358398" lon="30.006966590881348">
        <time>2026-04-25T14:25:38Z</time>
      </trkpt>
      <trkpt lat="59.066534042358398" lon="30.006966590881348">
        <time>2026-04-25T14:25:40Z</time>
      </trkpt>
      <trkpt lat="59.066534042358398" lon="30.006966590881348">
        <time>2026-04-25T14:25:43Z</time>
      </trkpt>
      <trkpt lat="59.066534042358398" lon="30.006966590881348">
        <time>2026-04-25T14:25:45Z</time>
      </trkpt>
      <trkpt lat="59.066534042358398" lon="30.006966590881348">
        <time>2026-04-25T14:25:48Z</time>
      </trkpt>
      <trkpt lat="59.066534042358398" lon="30.006966590881348">
        <time>2026-04-25T14:25:50Z</time>
      </trkpt>
      <trkpt lat="59.066534042358398" lon="30.006966590881348">
        <time>2026-04-25T14:25:53Z</time>
      </trkpt>
      <trkpt lat="59.066534042358398" lon="30.006966590881348">
        <time>2026-04-25T14:25:55Z</time>
      </trkpt>
      <trkpt lat="59.066534042358398" lon="30.006966590881348">
        <time>2026-04-25T14:25:58Z</time>
      </trkpt>
      <trkpt lat="59.066512584686279" lon="30.007009506225586">
        <time>2026-04-25T14:26:00Z</time>
      </trkpt>
      <trkpt lat="59.06649112701416" lon="30.007095336914063">
        <time>2026-04-25T14:26:03Z</time>
      </trkpt>
      <trkpt lat="59.066448211669922" lon="30.007181167602539">
        <time>2026-04-25T14:26:05Z</time>
      </trkpt>
      <trkpt lat="59.066448211669922" lon="30.007202625274658">
        <time>2026-04-25T14:26:08Z</time>
      </trkpt>
      <trkpt lat="59.066426753997803" lon="30.007288455963135">
        <time>2026-04-25T14:26:10Z</time>
      </trkpt>
      <trkpt lat="59.066405296325684" lon="30.007352828979492">
        <time>2026-04-25T14:26:13Z</time>
      </trkpt>
      <trkpt lat="59.066383838653564" lon="30.007374286651611">
        <time>2026-04-25T14:26:18Z</time>
      </trkpt>
      <trkpt lat="59.066362380981445" lon="30.00741720199585">
        <time>2026-04-25T14:26:20Z</time>
      </trkpt>
      <trkpt lat="59.066362380981445" lon="30.007460117340088">
        <time>2026-04-25T14:26:23Z</time>
      </trkpt>
      <trkpt lat="59.066340923309326" lon="30.007481575012207">
        <time>2026-04-25T14:26:25Z</time>
      </trkpt>
      <trkpt lat="59.066340923309326" lon="30.007481575012207">
        <time>2026-04-25T14:26:28Z</time>
      </trkpt>
      <trkpt lat="59.066319465637207" lon="30.007503032684326">
        <time>2026-04-25T14:26:30Z</time>
      </trkpt>
      <trkpt lat="59.066298007965088" lon="30.007524490356445">
        <time>2026-04-25T14:26:33Z</time>
      </trkpt>
      <trkpt lat="59.066276550292969" lon="30.007545948028564">
        <time>2026-04-25T14:26:35Z</time>
      </trkpt>
      <trkpt lat="59.06625509262085" lon="30.007588863372803">
        <time>2026-04-25T14:26:38Z</time>
      </trkpt>
      <trkpt lat="59.06623363494873" lon="30.007588863372803">
        <time>2026-04-25T14:26:40Z</time>
      </trkpt>
      <trkpt lat="59.06623363494873" lon="30.007588863372803">
        <time>2026-04-25T14:26:43Z</time>
      </trkpt>
      <trkpt lat="59.066190719604492" lon="30.007631778717041">
        <time>2026-04-25T14:26:45Z</time>
      </trkpt>
      <trkpt lat="59.066169261932373" lon="30.007674694061279">
        <time>2026-04-25T14:26:48Z</time>
      </trkpt>
      <trkpt lat="59.066147804260254" lon="30.007674694061279">
        <time>2026-04-25T14:26:50Z</time>
      </trkpt>
      <trkpt lat="59.066147804260254" lon="30.007696151733398">
        <time>2026-04-25T14:26:53Z</time>
      </trkpt>
      <trkpt lat="59.066147804260254" lon="30.007739067077637">
        <time>2026-04-25T14:26:55Z</time>
      </trkpt>
      <trkpt lat="59.066126346588135" lon="30.007803440093994">
        <time>2026-04-25T14:26:58Z</time>
      </trkpt>
      <trkpt lat="59.066104888916016" lon="30.007803440093994">
        <time>2026-04-25T14:27:00Z</time>
      </trkpt>
      <trkpt lat="59.066083431243896" lon="30.007846355438232">
        <time>2026-04-25T14:27:03Z</time>
      </trkpt>
      <trkpt lat="59.066061973571777" lon="30.007889270782471">
        <time>2026-04-25T14:27:05Z</time>
      </trkpt>
      <trkpt lat="59.066061973571777" lon="30.007932186126709">
        <time>2026-04-25T14:27:08Z</time>
      </trkpt>
      <trkpt lat="59.066040515899658" lon="30.007953643798828">
        <time>2026-04-25T14:27:10Z</time>
      </trkpt>
      <trkpt lat="59.066040515899658" lon="30.008018016815186">
        <time>2026-04-25T14:27:13Z</time>
      </trkpt>
      <trkpt lat="59.066019058227539" lon="30.008018016815186">
        <time>2026-04-25T14:27:15Z</time>
      </trkpt>
      <trkpt lat="59.066040515899658" lon="30.008018016815186">
        <time>2026-04-25T14:27:18Z</time>
      </trkpt>
      <trkpt lat="59.066019058227539" lon="30.008039474487305">
        <time>2026-04-25T14:27:20Z</time>
      </trkpt>
      <trkpt lat="59.066019058227539" lon="30.008039474487305">
        <time>2026-04-25T14:27:23Z</time>
      </trkpt>
      <trkpt lat="59.066019058227539" lon="30.008039474487305">
        <time>2026-04-25T14:27:25Z</time>
      </trkpt>
      <trkpt lat="59.06599760055542" lon="30.008060932159424">
        <time>2026-04-25T14:27:28Z</time>
      </trkpt>
      <trkpt lat="59.065976142883301" lon="30.008082389831543">
        <time>2026-04-25T14:27:30Z</time>
      </trkpt>
      <trkpt lat="59.065933227539062" lon="30.008082389831543">
        <time>2026-04-25T14:27:33Z</time>
      </trkpt>
      <trkpt lat="59.065911769866943" lon="30.008060932159424">
        <time>2026-04-25T14:27:35Z</time>
      </trkpt>
      <trkpt lat="59.065890312194824" lon="30.008082389831543">
        <time>2026-04-25T14:27:38Z</time>
      </trkpt>
      <trkpt lat="59.065868854522705" lon="30.008103847503662">
        <time>2026-04-25T14:27:40Z</time>
      </trkpt>
      <trkpt lat="59.065868854522705" lon="30.008125305175781">
        <time>2026-04-25T14:27:43Z</time>
      </trkpt>
      <trkpt lat="59.065825939178467" lon="30.0081467628479">
        <time>2026-04-25T14:27:45Z</time>
      </trkpt>
      <trkpt lat="59.065825939178467" lon="30.0081467628479">
        <time>2026-04-25T14:27:48Z</time>
      </trkpt>
      <trkpt lat="59.065825939178467" lon="30.00816822052002">
        <time>2026-04-25T14:27:50Z</time>
      </trkpt>
      <trkpt lat="59.065804481506348" lon="30.008211135864258">
        <time>2026-04-25T14:27:53Z</time>
      </trkpt>
      <trkpt lat="59.065761566162109" lon="30.008211135864258">
        <time>2026-04-25T14:27:55Z</time>
      </trkpt>
      <trkpt lat="59.06574010848999" lon="30.008232593536377">
        <time>2026-04-25T14:27:58Z</time>
      </trkpt>
      <trkpt lat="59.06574010848999" lon="30.008232593536377">
        <time>2026-04-25T14:28:00Z</time>
      </trkpt>
      <trkpt lat="59.065718650817871" lon="30.008254051208496">
        <time>2026-04-25T14:28:03Z</time>
      </trkpt>
      <trkpt lat="59.065675735473633" lon="30.008275508880615">
        <time>2026-04-25T14:28:05Z</time>
      </trkpt>
      <trkpt lat="59.065675735473633" lon="30.008318424224854">
        <time>2026-04-25T14:28:08Z</time>
      </trkpt>
      <trkpt lat="59.065654277801514" lon="30.008296966552734">
        <time>2026-04-25T14:28:10Z</time>
      </trkpt>
      <trkpt lat="59.065632820129395" lon="30.008318424224854">
        <time>2026-04-25T14:28:13Z</time>
      </trkpt>
      <trkpt lat="59.065632820129395" lon="30.008296966552734">
        <time>2026-04-25T14:28:15Z</time>
      </trkpt>
      <trkpt lat="59.065632820129395" lon="30.008296966552734">
        <time>2026-04-25T14:28:18Z</time>
      </trkpt>
      <trkpt lat="59.065611362457275" lon="30.008318424224854">
        <time>2026-04-25T14:28:20Z</time>
      </trkpt>
      <trkpt lat="59.065568447113037" lon="30.008318424224854">
        <time>2026-04-25T14:28:23Z</time>
      </trkpt>
      <trkpt lat="59.065546989440918" lon="30.008339881896973">
        <time>2026-04-25T14:28:25Z</time>
      </trkpt>
      <trkpt lat="59.06550407409668" lon="30.008361339569092">
        <time>2026-04-25T14:28:28Z</time>
      </trkpt>
      <trkpt lat="59.06550407409668" lon="30.008382797241211">
        <time>2026-04-25T14:28:30Z</time>
      </trkpt>
      <trkpt lat="59.065461158752441" lon="30.008382797241211">
        <time>2026-04-25T14:28:33Z</time>
      </trkpt>
      <trkpt lat="59.065439701080322" lon="30.008361339569092">
        <time>2026-04-25T14:28:35Z</time>
      </trkpt>
      <trkpt lat="59.065418243408203" lon="30.008361339569092">
        <time>2026-04-25T14:28:38Z</time>
      </trkpt>
      <trkpt lat="59.065418243408203" lon="30.008382797241211">
        <time>2026-04-25T14:28:40Z</time>
      </trkpt>
      <trkpt lat="59.065396785736084" lon="30.00840425491333">
        <time>2026-04-25T14:28:43Z</time>
      </trkpt>
      <trkpt lat="59.065375328063965" lon="30.008425712585449">
        <time>2026-04-25T14:28:45Z</time>
      </trkpt>
      <trkpt lat="59.065353870391846" lon="30.008425712585449">
        <time>2026-04-25T14:28:48Z</time>
      </trkpt>
      <trkpt lat="59.065332412719727" lon="30.008447170257568">
        <time>2026-04-25T14:28:50Z</time>
      </trkpt>
      <trkpt lat="59.065310955047607" lon="30.008468627929687">
        <time>2026-04-25T14:28:53Z</time>
      </trkpt>
      <trkpt lat="59.065268039703369" lon="30.008490085601807">
        <time>2026-04-25T14:28:55Z</time>
      </trkpt>
      <trkpt lat="59.06524658203125" lon="30.008490085601807">
        <time>2026-04-25T14:28:58Z</time>
      </trkpt>
      <trkpt lat="59.065225124359131" lon="30.008511543273926">
        <time>2026-04-25T14:29:00Z</time>
      </trkpt>
      <trkpt lat="59.065203666687012" lon="30.008511543273926">
        <time>2026-04-25T14:29:03Z</time>
      </trkpt>
      <trkpt lat="59.065203666687012" lon="30.008511543273926">
        <time>2026-04-25T14:29:05Z</time>
      </trkpt>
      <trkpt lat="59.065182209014893" lon="30.008511543273926">
        <time>2026-04-25T14:29:08Z</time>
      </trkpt>
      <trkpt lat="59.065160751342773" lon="30.008533000946045">
        <time>2026-04-25T14:29:10Z</time>
      </trkpt>
      <trkpt lat="59.065160751342773" lon="30.008554458618164">
        <time>2026-04-25T14:29:13Z</time>
      </trkpt>
      <trkpt lat="59.065139293670654" lon="30.008575916290283">
        <time>2026-04-25T14:29:15Z</time>
      </trkpt>
      <trkpt lat="59.065117835998535" lon="30.008597373962402">
        <time>2026-04-25T14:29:18Z</time>
      </trkpt>
      <trkpt lat="59.065117835998535" lon="30.008618831634521">
        <time>2026-04-25T14:29:20Z</time>
      </trkpt>
      <trkpt lat="59.065074920654297" lon="30.008640289306641">
        <time>2026-04-25T14:29:23Z</time>
      </trkpt>
      <trkpt lat="59.065053462982178" lon="30.008640289306641">
        <time>2026-04-25T14:29:25Z</time>
      </trkpt>
      <trkpt lat="59.065032005310059" lon="30.00866174697876">
        <time>2026-04-25T14:29:28Z</time>
      </trkpt>
      <trkpt lat="59.065032005310059" lon="30.00866174697876">
        <time>2026-04-25T14:29:30Z</time>
      </trkpt>
      <trkpt lat="59.065010547637939" lon="30.008683204650879">
        <time>2026-04-25T14:29:33Z</time>
      </trkpt>
      <trkpt lat="59.064967632293701" lon="30.008683204650879">
        <time>2026-04-25T14:29:35Z</time>
      </trkpt>
      <trkpt lat="59.064967632293701" lon="30.008704662322998">
        <time>2026-04-25T14:29:38Z</time>
      </trkpt>
      <trkpt lat="59.064946174621582" lon="30.008683204650879">
        <time>2026-04-25T14:29:40Z</time>
      </trkpt>
      <trkpt lat="59.064924716949463" lon="30.008683204650879">
        <time>2026-04-25T14:29:43Z</time>
      </trkpt>
      <trkpt lat="59.064924716949463" lon="30.008704662322998">
        <time>2026-04-25T14:29:45Z</time>
      </trkpt>
      <trkpt lat="59.064903259277344" lon="30.008726119995117">
        <time>2026-04-25T14:29:48Z</time>
      </trkpt>
      <trkpt lat="59.064881801605225" lon="30.008726119995117">
        <time>2026-04-25T14:29:50Z</time>
      </trkpt>
      <trkpt lat="59.064838886260986" lon="30.008747577667236">
        <time>2026-04-25T14:29:53Z</time>
      </trkpt>
      <trkpt lat="59.064795970916748" lon="30.008747577667236">
        <time>2026-04-25T14:29:55Z</time>
      </trkpt>
      <trkpt lat="59.064774513244629" lon="30.008769035339355">
        <time>2026-04-25T14:29:58Z</time>
      </trkpt>
      <trkpt lat="59.064774513244629" lon="30.008769035339355">
        <time>2026-04-25T14:30:00Z</time>
      </trkpt>
      <trkpt lat="59.064731597900391" lon="30.008790493011475">
        <time>2026-04-25T14:30:03Z</time>
      </trkpt>
      <trkpt lat="59.064710140228271" lon="30.008790493011475">
        <time>2026-04-25T14:30:05Z</time>
      </trkpt>
      <trkpt lat="59.064688682556152" lon="30.008811950683594">
        <time>2026-04-25T14:30:08Z</time>
      </trkpt>
      <trkpt lat="59.064688682556152" lon="30.008811950683594">
        <time>2026-04-25T14:30:10Z</time>
      </trkpt>
      <trkpt lat="59.064667224884033" lon="30.008811950683594">
        <time>2026-04-25T14:30:13Z</time>
      </trkpt>
      <trkpt lat="59.064645767211914" lon="30.008790493011475">
        <time>2026-04-25T14:30:15Z</time>
      </trkpt>
      <trkpt lat="59.064624309539795" lon="30.008790493011475">
        <time>2026-04-25T14:30:18Z</time>
      </trkpt>
      <trkpt lat="59.064602851867676" lon="30.008790493011475">
        <time>2026-04-25T14:30:20Z</time>
      </trkpt>
      <trkpt lat="59.064602851867676" lon="30.008811950683594">
        <time>2026-04-25T14:30:23Z</time>
      </trkpt>
      <trkpt lat="59.064602851867676" lon="30.008811950683594">
        <time>2026-04-25T14:30:25Z</time>
      </trkpt>
      <trkpt lat="59.064559936523438" lon="30.008833408355713">
        <time>2026-04-25T14:30:28Z</time>
      </trkpt>
      <trkpt lat="59.064517021179199" lon="30.008833408355713">
        <time>2026-04-25T14:30:30Z</time>
      </trkpt>
      <trkpt lat="59.064517021179199" lon="30.008833408355713">
        <time>2026-04-25T14:30:33Z</time>
      </trkpt>
      <trkpt lat="59.06449556350708" lon="30.008876323699951">
        <time>2026-04-25T14:30:35Z</time>
      </trkpt>
      <trkpt lat="59.064474105834961" lon="30.00889778137207">
        <time>2026-04-25T14:30:38Z</time>
      </trkpt>
      <trkpt lat="59.064431190490723" lon="30.008940696716309">
        <time>2026-04-25T14:30:40Z</time>
      </trkpt>
      <trkpt lat="59.064409732818604" lon="30.008983612060547">
        <time>2026-04-25T14:30:43Z</time>
      </trkpt>
      <trkpt lat="59.064388275146484" lon="30.009005069732666">
        <time>2026-04-25T14:30:45Z</time>
      </trkpt>
      <trkpt lat="59.064366817474365" lon="30.009005069732666">
        <time>2026-04-25T14:30:48Z</time>
      </trkpt>
      <trkpt lat="59.064323902130127" lon="30.009026527404785">
        <time>2026-04-25T14:30:50Z</time>
      </trkpt>
      <trkpt lat="59.064302444458008" lon="30.009047985076904">
        <time>2026-04-25T14:30:53Z</time>
      </trkpt>
      <trkpt lat="59.064280986785889" lon="30.009090900421143">
        <time>2026-04-25T14:30:55Z</time>
      </trkpt>
      <trkpt lat="59.06425952911377" lon="30.009112358093262">
        <time>2026-04-25T14:30:58Z</time>
      </trkpt>
      <trkpt lat="59.06423807144165" lon="30.009176731109619">
        <time>2026-04-25T14:31:00Z</time>
      </trkpt>
      <trkpt lat="59.06423807144165" lon="30.009176731109619">
        <time>2026-04-25T14:31:03Z</time>
      </trkpt>
      <trkpt lat="59.06423807144165" lon="30.009198188781738">
        <time>2026-04-25T14:31:05Z</time>
      </trkpt>
      <trkpt lat="59.06423807144165" lon="30.009176731109619">
        <time>2026-04-25T14:31:08Z</time>
      </trkpt>
      <trkpt lat="59.064216613769531" lon="30.009176731109619">
        <time>2026-04-25T14:31:10Z</time>
      </trkpt>
      <trkpt lat="59.064195156097412" lon="30.009198188781738">
        <time>2026-04-25T14:31:13Z</time>
      </trkpt>
      <trkpt lat="59.064195156097412" lon="30.009198188781738">
        <time>2026-04-25T14:31:15Z</time>
      </trkpt>
      <trkpt lat="59.064195156097412" lon="30.009198188781738">
        <time>2026-04-25T14:31:18Z</time>
      </trkpt>
      <trkpt lat="59.064195156097412" lon="30.009198188781738">
        <time>2026-04-25T14:31:20Z</time>
      </trkpt>
      <trkpt lat="59.064195156097412" lon="30.009198188781738">
        <time>2026-04-25T14:31:23Z</time>
      </trkpt>
      <trkpt lat="59.064195156097412" lon="30.009198188781738">
        <time>2026-04-25T14:31:25Z</time>
      </trkpt>
      <trkpt lat="59.064195156097412" lon="30.009198188781738">
        <time>2026-04-25T14:31:28Z</time>
      </trkpt>
      <trkpt lat="59.064195156097412" lon="30.009198188781738">
        <time>2026-04-25T14:31:30Z</time>
      </trkpt>
      <trkpt lat="59.064195156097412" lon="30.009198188781738">
        <time>2026-04-25T14:31:33Z</time>
      </trkpt>
      <trkpt lat="59.064152240753174" lon="30.009241104125977">
        <time>2026-04-25T14:31:35Z</time>
      </trkpt>
      <trkpt lat="59.064109325408936" lon="30.009262561798096">
        <time>2026-04-25T14:31:38Z</time>
      </trkpt>
      <trkpt lat="59.064066410064697" lon="30.009348392486572">
        <time>2026-04-25T14:31:40Z</time>
      </trkpt>
      <trkpt lat="59.064023494720459" lon="30.009391307830811">
        <time>2026-04-25T14:31:43Z</time>
      </trkpt>
      <trkpt lat="59.06400203704834" lon="30.009434223175049">
        <time>2026-04-25T14:31:45Z</time>
      </trkpt>
      <trkpt lat="59.063980579376221" lon="30.009455680847168">
        <time>2026-04-25T14:31:48Z</time>
      </trkpt>
      <trkpt lat="59.063959121704102" lon="30.009498596191406">
        <time>2026-04-25T14:31:50Z</time>
      </trkpt>
      <trkpt lat="59.063959121704102" lon="30.009520053863525">
        <time>2026-04-25T14:31:53Z</time>
      </trkpt>
      <trkpt lat="59.063959121704102" lon="30.009520053863525">
        <time>2026-04-25T14:31:55Z</time>
      </trkpt>
      <trkpt lat="59.063937664031982" lon="30.009562969207764">
        <time>2026-04-25T14:31:58Z</time>
      </trkpt>
      <trkpt lat="59.063894748687744" lon="30.009584426879883">
        <time>2026-04-25T14:32:00Z</time>
      </trkpt>
      <trkpt lat="59.063894748687744" lon="30.009605884552002">
        <time>2026-04-25T14:32:03Z</time>
      </trkpt>
      <trkpt lat="59.063873291015625" lon="30.009627342224121">
        <time>2026-04-25T14:32:05Z</time>
      </trkpt>
      <trkpt lat="59.063851833343506" lon="30.009670257568359">
        <time>2026-04-25T14:32:08Z</time>
      </trkpt>
      <trkpt lat="59.063830375671387" lon="30.009670257568359">
        <time>2026-04-25T14:32:10Z</time>
      </trkpt>
      <trkpt lat="59.063808917999268" lon="30.009691715240479">
        <time>2026-04-25T14:32:13Z</time>
      </trkpt>
      <trkpt lat="59.063787460327148" lon="30.009734630584717">
        <time>2026-04-25T14:32:15Z</time>
      </trkpt>
      <trkpt lat="59.06374454498291" lon="30.009756088256836">
        <time>2026-04-25T14:32:18Z</time>
      </trkpt>
      <trkpt lat="59.063723087310791" lon="30.009756088256836">
        <time>2026-04-25T14:32:20Z</time>
      </trkpt>
      <trkpt lat="59.063701629638672" lon="30.009777545928955">
        <time>2026-04-25T14:32:23Z</time>
      </trkpt>
      <trkpt lat="59.063680171966553" lon="30.009799003601074">
        <time>2026-04-25T14:32:25Z</time>
      </trkpt>
      <trkpt lat="59.063680171966553" lon="30.009799003601074">
        <time>2026-04-25T14:32:28Z</time>
      </trkpt>
      <trkpt lat="59.063637256622314" lon="30.009841918945313">
        <time>2026-04-25T14:32:30Z</time>
      </trkpt>
      <trkpt lat="59.063615798950195" lon="30.009863376617432">
        <time>2026-04-25T14:32:33Z</time>
      </trkpt>
      <trkpt lat="59.063572883605957" lon="30.009884834289551">
        <time>2026-04-25T14:32:35Z</time>
      </trkpt>
      <trkpt lat="59.063551425933838" lon="30.00990629196167">
        <time>2026-04-25T14:32:38Z</time>
      </trkpt>
      <trkpt lat="59.063529968261719" lon="30.009927749633789">
        <time>2026-04-25T14:32:40Z</time>
      </trkpt>
      <trkpt lat="59.0635085105896" lon="30.009949207305908">
        <time>2026-04-25T14:32:43Z</time>
      </trkpt>
      <trkpt lat="59.06348705291748" lon="30.009992122650146">
        <time>2026-04-25T14:32:45Z</time>
      </trkpt>
      <trkpt lat="59.063465595245361" lon="30.010013580322266">
        <time>2026-04-25T14:32:48Z</time>
      </trkpt>
      <trkpt lat="59.063444137573242" lon="30.010035037994385">
        <time>2026-04-25T14:32:50Z</time>
      </trkpt>
      <trkpt lat="59.063422679901123" lon="30.010056495666504">
        <time>2026-04-25T14:32:53Z</time>
      </trkpt>
      <trkpt lat="59.063379764556885" lon="30.010035037994385">
        <time>2026-04-25T14:32:55Z</time>
      </trkpt>
      <trkpt lat="59.063379764556885" lon="30.010035037994385">
        <time>2026-04-25T14:32:58Z</time>
      </trkpt>
      <trkpt lat="59.063358306884766" lon="30.010056495666504">
        <time>2026-04-25T14:33:00Z</time>
      </trkpt>
      <trkpt lat="59.063336849212646" lon="30.010077953338623">
        <time>2026-04-25T14:33:03Z</time>
      </trkpt>
      <trkpt lat="59.063293933868408" lon="30.010099411010742">
        <time>2026-04-25T14:33:05Z</time>
      </trkpt>
      <trkpt lat="59.063293933868408" lon="30.010120868682861">
        <time>2026-04-25T14:33:08Z</time>
      </trkpt>
      <trkpt lat="59.063272476196289" lon="30.01014232635498">
        <time>2026-04-25T14:33:10Z</time>
      </trkpt>
      <trkpt lat="59.063272476196289" lon="30.010185241699219">
        <time>2026-04-25T14:33:13Z</time>
      </trkpt>
      <trkpt lat="59.063208103179932" lon="30.010206699371338">
        <time>2026-04-25T14:33:15Z</time>
      </trkpt>
      <trkpt lat="59.063186645507813" lon="30.010228157043457">
        <time>2026-04-25T14:33:18Z</time>
      </trkpt>
      <trkpt lat="59.063186645507813" lon="30.010228157043457">
        <time>2026-04-25T14:33:20Z</time>
      </trkpt>
      <trkpt lat="59.063165187835693" lon="30.010249614715576">
        <time>2026-04-25T14:33:23Z</time>
      </trkpt>
      <trkpt lat="59.063122272491455" lon="30.010271072387695">
        <time>2026-04-25T14:33:25Z</time>
      </trkpt>
      <trkpt lat="59.063122272491455" lon="30.010313987731934">
        <time>2026-04-25T14:33:28Z</time>
      </trkpt>
      <trkpt lat="59.063079357147217" lon="30.010356903076172">
        <time>2026-04-25T14:33:30Z</time>
      </trkpt>
      <trkpt lat="59.063057899475098" lon="30.01039981842041">
        <time>2026-04-25T14:33:33Z</time>
      </trkpt>
      <trkpt lat="59.063057899475098" lon="30.010421276092529">
        <time>2026-04-25T14:33:35Z</time>
      </trkpt>
      <trkpt lat="59.063036441802979" lon="30.010442733764648">
        <time>2026-04-25T14:33:38Z</time>
      </trkpt>
      <trkpt lat="59.063014984130859" lon="30.010485649108887">
        <time>2026-04-25T14:33:40Z</time>
      </trkpt>
      <trkpt lat="59.062972068786621" lon="30.010507106781006">
        <time>2026-04-25T14:33:43Z</time>
      </trkpt>
      <trkpt lat="59.062950611114502" lon="30.010528564453125">
        <time>2026-04-25T14:33:45Z</time>
      </trkpt>
      <trkpt lat="59.062929153442383" lon="30.010550022125244">
        <time>2026-04-25T14:33:48Z</time>
      </trkpt>
      <trkpt lat="59.062864780426025" lon="30.010592937469482">
        <time>2026-04-25T14:33:50Z</time>
      </trkpt>
      <trkpt lat="59.062864780426025" lon="30.010635852813721">
        <time>2026-04-25T14:33:53Z</time>
      </trkpt>
      <trkpt lat="59.062843322753906" lon="30.01065731048584">
        <time>2026-04-25T14:33:55Z</time>
      </trkpt>
      <trkpt lat="59.062821865081787" lon="30.010678768157959">
        <time>2026-04-25T14:33:58Z</time>
      </trkpt>
      <trkpt lat="59.062800407409668" lon="30.010700225830078">
        <time>2026-04-25T14:34:00Z</time>
      </trkpt>
      <trkpt lat="59.062778949737549" lon="30.010700225830078">
        <time>2026-04-25T14:34:03Z</time>
      </trkpt>
      <trkpt lat="59.062778949737549" lon="30.010700225830078">
        <time>2026-04-25T14:34:05Z</time>
      </trkpt>
      <trkpt lat="59.062736034393311" lon="30.010721683502197">
        <time>2026-04-25T14:34:08Z</time>
      </trkpt>
      <trkpt lat="59.062714576721191" lon="30.010743141174316">
        <time>2026-04-25T14:34:10Z</time>
      </trkpt>
      <trkpt lat="59.062693119049072" lon="30.010786056518555">
        <time>2026-04-25T14:34:13Z</time>
      </trkpt>
      <trkpt lat="59.062693119049072" lon="30.010786056518555">
        <time>2026-04-25T14:34:15Z</time>
      </trkpt>
      <trkpt lat="59.062650203704834" lon="30.010807514190674">
        <time>2026-04-25T14:34:18Z</time>
      </trkpt>
      <trkpt lat="59.062628746032715" lon="30.010828971862793">
        <time>2026-04-25T14:34:20Z</time>
      </trkpt>
      <trkpt lat="59.062607288360596" lon="30.010828971862793">
        <time>2026-04-25T14:34:23Z</time>
      </trkpt>
      <trkpt lat="59.062564373016357" lon="30.010850429534912">
        <time>2026-04-25T14:34:25Z</time>
      </trkpt>
      <trkpt lat="59.062542915344238" lon="30.010871887207031">
        <time>2026-04-25T14:34:28Z</time>
      </trkpt>
      <trkpt lat="59.062542915344238" lon="30.01091480255127">
        <time>2026-04-25T14:34:30Z</time>
      </trkpt>
      <trkpt lat="59.0625" lon="30.010936260223389">
        <time>2026-04-25T14:34:33Z</time>
      </trkpt>
      <trkpt lat="59.062478542327881" lon="30.010979175567627">
        <time>2026-04-25T14:34:35Z</time>
      </trkpt>
      <trkpt lat="59.062457084655762" lon="30.010979175567627">
        <time>2026-04-25T14:34:38Z</time>
      </trkpt>
      <trkpt lat="59.062414169311523" lon="30.011022090911865">
        <time>2026-04-25T14:34:40Z</time>
      </trkpt>
      <trkpt lat="59.062392711639404" lon="30.011043548583984">
        <time>2026-04-25T14:34:43Z</time>
      </trkpt>
      <trkpt lat="59.062392711639404" lon="30.011043548583984">
        <time>2026-04-25T14:34:45Z</time>
      </trkpt>
      <trkpt lat="59.062371253967285" lon="30.011065006256104">
        <time>2026-04-25T14:34:48Z</time>
      </trkpt>
      <trkpt lat="59.062349796295166" lon="30.011086463928223">
        <time>2026-04-25T14:34:50Z</time>
      </trkpt>
      <trkpt lat="59.062349796295166" lon="30.011129379272461">
        <time>2026-04-25T14:34:53Z</time>
      </trkpt>
      <trkpt lat="59.062349796295166" lon="30.011172294616699">
        <time>2026-04-25T14:34:55Z</time>
      </trkpt>
      <trkpt lat="59.062328338623047" lon="30.011215209960938">
        <time>2026-04-25T14:34:58Z</time>
      </trkpt>
      <trkpt lat="59.062306880950928" lon="30.011258125305176">
        <time>2026-04-25T14:35:00Z</time>
      </trkpt>
      <trkpt lat="59.062263965606689" lon="30.011279582977295">
        <time>2026-04-25T14:35:03Z</time>
      </trkpt>
      <trkpt lat="59.062221050262451" lon="30.011301040649414">
        <time>2026-04-25T14:35:05Z</time>
      </trkpt>
      <trkpt lat="59.062178134918213" lon="30.011301040649414">
        <time>2026-04-25T14:35:08Z</time>
      </trkpt>
      <trkpt lat="59.062135219573975" lon="30.011279582977295">
        <time>2026-04-25T14:35:10Z</time>
      </trkpt>
      <trkpt lat="59.062092304229736" lon="30.011301040649414">
        <time>2026-04-25T14:35:13Z</time>
      </trkpt>
      <trkpt lat="59.062070846557617" lon="30.011301040649414">
        <time>2026-04-25T14:35:15Z</time>
      </trkpt>
      <trkpt lat="59.062027931213379" lon="30.011322498321533">
        <time>2026-04-25T14:35:18Z</time>
      </trkpt>
      <trkpt lat="59.062027931213379" lon="30.011343955993652">
        <time>2026-04-25T14:35:20Z</time>
      </trkpt>
      <trkpt lat="59.062027931213379" lon="30.011322498321533">
        <time>2026-04-25T14:35:23Z</time>
      </trkpt>
      <trkpt lat="59.062070846557617" lon="30.011279582977295">
        <time>2026-04-25T14:35:25Z</time>
      </trkpt>
      <trkpt lat="59.062092304229736" lon="30.011279582977295">
        <time>2026-04-25T14:35:28Z</time>
      </trkpt>
      <trkpt lat="59.062070846557617" lon="30.011279582977295">
        <time>2026-04-25T14:35:30Z</time>
      </trkpt>
      <trkpt lat="59.062070846557617" lon="30.011279582977295">
        <time>2026-04-25T14:35:33Z</time>
      </trkpt>
      <trkpt lat="59.062070846557617" lon="30.011279582977295">
        <time>2026-04-25T14:35:35Z</time>
      </trkpt>
      <trkpt lat="59.062070846557617" lon="30.011279582977295">
        <time>2026-04-25T14:35:38Z</time>
      </trkpt>
      <trkpt lat="59.062070846557617" lon="30.011279582977295">
        <time>2026-04-25T14:35:40Z</time>
      </trkpt>
      <trkpt lat="59.062070846557617" lon="30.011279582977295">
        <time>2026-04-25T14:35:43Z</time>
      </trkpt>
      <trkpt lat="59.062070846557617" lon="30.011279582977295">
        <time>2026-04-25T14:35:45Z</time>
      </trkpt>
      <trkpt lat="59.062070846557617" lon="30.011279582977295">
        <time>2026-04-25T14:35:48Z</time>
      </trkpt>
      <trkpt lat="59.062049388885498" lon="30.011279582977295">
        <time>2026-04-25T14:35:50Z</time>
      </trkpt>
      <trkpt lat="59.062027931213379" lon="30.011301040649414">
        <time>2026-04-25T14:35:53Z</time>
      </trkpt>
      <trkpt lat="59.061963558197021" lon="30.011343955993652">
        <time>2026-04-25T14:35:55Z</time>
      </trkpt>
      <trkpt lat="59.061963558197021" lon="30.011301040649414">
        <time>2026-04-25T14:35:58Z</time>
      </trkpt>
      <trkpt lat="59.061942100524902" lon="30.011301040649414">
        <time>2026-04-25T14:36:00Z</time>
      </trkpt>
      <trkpt lat="59.061942100524902" lon="30.011301040649414">
        <time>2026-04-25T14:36:03Z</time>
      </trkpt>
      <trkpt lat="59.061942100524902" lon="30.011301040649414">
        <time>2026-04-25T14:36:05Z</time>
      </trkpt>
      <trkpt lat="59.061942100524902" lon="30.011301040649414">
        <time>2026-04-25T14:36:08Z</time>
      </trkpt>
      <trkpt lat="59.061942100524902" lon="30.011279582977295">
        <time>2026-04-25T14:36:10Z</time>
      </trkpt>
      <trkpt lat="59.061985015869141" lon="30.011236667633057">
        <time>2026-04-25T14:36:13Z</time>
      </trkpt>
      <trkpt lat="59.06200647354126" lon="30.011172294616699">
        <time>2026-04-25T14:36:15Z</time>
      </trkpt>
      <trkpt lat="59.06200647354126" lon="30.011107921600342">
        <time>2026-04-25T14:36:18Z</time>
      </trkpt>
      <trkpt lat="59.06200647354126" lon="30.011086463928223">
        <time>2026-04-25T14:36:20Z</time>
      </trkpt>
      <trkpt lat="59.06200647354126" lon="30.011086463928223">
        <time>2026-04-25T14:36:23Z</time>
      </trkpt>
      <trkpt lat="59.062027931213379" lon="30.011065006256104">
        <time>2026-04-25T14:36:25Z</time>
      </trkpt>
      <trkpt lat="59.062027931213379" lon="30.011043548583984">
        <time>2026-04-25T14:36:28Z</time>
      </trkpt>
      <trkpt lat="59.062027931213379" lon="30.011022090911865">
        <time>2026-04-25T14:36:30Z</time>
      </trkpt>
      <trkpt lat="59.062049388885498" lon="30.011000633239746">
        <time>2026-04-25T14:36:33Z</time>
      </trkpt>
      <trkpt lat="59.062027931213379" lon="30.011000633239746">
        <time>2026-04-25T14:36:35Z</time>
      </trkpt>
      <trkpt lat="59.062049388885498" lon="30.011000633239746">
        <time>2026-04-25T14:36:38Z</time>
      </trkpt>
      <trkpt lat="59.062049388885498" lon="30.011000633239746">
        <time>2026-04-25T14:36:40Z</time>
      </trkpt>
      <trkpt lat="59.062027931213379" lon="30.010979175567627">
        <time>2026-04-25T14:36:43Z</time>
      </trkpt>
      <trkpt lat="59.062049388885498" lon="30.010957717895508">
        <time>2026-04-25T14:36:45Z</time>
      </trkpt>
      <trkpt lat="59.062049388885498" lon="30.01091480255127">
        <time>2026-04-25T14:36:48Z</time>
      </trkpt>
      <trkpt lat="59.062070846557617" lon="30.01091480255127">
        <time>2026-04-25T14:36:50Z</time>
      </trkpt>
      <trkpt lat="59.062092304229736" lon="30.01089334487915">
        <time>2026-04-25T14:36:53Z</time>
      </trkpt>
      <trkpt lat="59.062113761901855" lon="30.010871887207031">
        <time>2026-04-25T14:36:55Z</time>
      </trkpt>
      <trkpt lat="59.062113761901855" lon="30.01089334487915">
        <time>2026-04-25T14:36:58Z</time>
      </trkpt>
      <trkpt lat="59.062135219573975" lon="30.01089334487915">
        <time>2026-04-25T14:37:00Z</time>
      </trkpt>
      <trkpt lat="59.062178134918213" lon="30.010871887207031">
        <time>2026-04-25T14:37:03Z</time>
      </trkpt>
      <trkpt lat="59.062178134918213" lon="30.010850429534912">
        <time>2026-04-25T14:37:05Z</time>
      </trkpt>
      <trkpt lat="59.062199592590332" lon="30.010807514190674">
        <time>2026-04-25T14:37:08Z</time>
      </trkpt>
      <trkpt lat="59.062221050262451" lon="30.010764598846436">
        <time>2026-04-25T14:37:10Z</time>
      </trkpt>
      <trkpt lat="59.062221050262451" lon="30.010721683502197">
        <time>2026-04-25T14:37:13Z</time>
      </trkpt>
      <trkpt lat="59.062221050262451" lon="30.010700225830078">
        <time>2026-04-25T14:37:15Z</time>
      </trkpt>
      <trkpt lat="59.062221050262451" lon="30.010700225830078">
        <time>2026-04-25T14:37:18Z</time>
      </trkpt>
      <trkpt lat="59.062221050262451" lon="30.01065731048584">
        <time>2026-04-25T14:37:20Z</time>
      </trkpt>
      <trkpt lat="59.06224250793457" lon="30.010635852813721">
        <time>2026-04-25T14:37:23Z</time>
      </trkpt>
      <trkpt lat="59.062263965606689" lon="30.01065731048584">
        <time>2026-04-25T14:37:25Z</time>
      </trkpt>
      <trkpt lat="59.062285423278809" lon="30.010635852813721">
        <time>2026-04-25T14:37:28Z</time>
      </trkpt>
      <trkpt lat="59.062306880950928" lon="30.01065731048584">
        <time>2026-04-25T14:37:30Z</time>
      </trkpt>
      <trkpt lat="59.062285423278809" lon="30.010721683502197">
        <time>2026-04-25T14:37:33Z</time>
      </trkpt>
      <trkpt lat="59.062285423278809" lon="30.010764598846436">
        <time>2026-04-25T14:37:35Z</time>
      </trkpt>
      <trkpt lat="59.062285423278809" lon="30.010786056518555">
        <time>2026-04-25T14:37:38Z</time>
      </trkpt>
      <trkpt lat="59.062328338623047" lon="30.010721683502197">
        <time>2026-04-25T14:37:40Z</time>
      </trkpt>
      <trkpt lat="59.062328338623047" lon="30.01065731048584">
        <time>2026-04-25T14:37:43Z</time>
      </trkpt>
      <trkpt lat="59.062349796295166" lon="30.010592937469482">
        <time>2026-04-25T14:37:45Z</time>
      </trkpt>
      <trkpt lat="59.062349796295166" lon="30.010571479797363">
        <time>2026-04-25T14:37:48Z</time>
      </trkpt>
      <trkpt lat="59.062371253967285" lon="30.010528564453125">
        <time>2026-04-25T14:37:50Z</time>
      </trkpt>
      <trkpt lat="59.062392711639404" lon="30.010507106781006">
        <time>2026-04-25T14:37:53Z</time>
      </trkpt>
      <trkpt lat="59.062414169311523" lon="30.010507106781006">
        <time>2026-04-25T14:37:55Z</time>
      </trkpt>
      <trkpt lat="59.062435626983643" lon="30.010528564453125">
        <time>2026-04-25T14:37:58Z</time>
      </trkpt>
      <trkpt lat="59.062435626983643" lon="30.010550022125244">
        <time>2026-04-25T14:38:00Z</time>
      </trkpt>
      <trkpt lat="59.062435626983643" lon="30.010571479797363">
        <time>2026-04-25T14:38:03Z</time>
      </trkpt>
      <trkpt lat="59.062457084655762" lon="30.010528564453125">
        <time>2026-04-25T14:38:05Z</time>
      </trkpt>
      <trkpt lat="59.062478542327881" lon="30.010507106781006">
        <time>2026-04-25T14:38:08Z</time>
      </trkpt>
      <trkpt lat="59.0625" lon="30.010507106781006">
        <time>2026-04-25T14:38:10Z</time>
      </trkpt>
      <trkpt lat="59.062521457672119" lon="30.010485649108887">
        <time>2026-04-25T14:38:13Z</time>
      </trkpt>
      <trkpt lat="59.062521457672119" lon="30.010464191436768">
        <time>2026-04-25T14:38:15Z</time>
      </trkpt>
      <trkpt lat="59.062542915344238" lon="30.01039981842041">
        <time>2026-04-25T14:38:18Z</time>
      </trkpt>
      <trkpt lat="59.062542915344238" lon="30.010356903076172">
        <time>2026-04-25T14:38:20Z</time>
      </trkpt>
      <trkpt lat="59.062564373016357" lon="30.010313987731934">
        <time>2026-04-25T14:38:23Z</time>
      </trkpt>
      <trkpt lat="59.062585830688477" lon="30.010271072387695">
        <time>2026-04-25T14:38:25Z</time>
      </trkpt>
      <trkpt lat="59.062607288360596" lon="30.010228157043457">
        <time>2026-04-25T14:38:28Z</time>
      </trkpt>
      <trkpt lat="59.062650203704834" lon="30.010228157043457">
        <time>2026-04-25T14:38:30Z</time>
      </trkpt>
      <trkpt lat="59.062671661376953" lon="30.010249614715576">
        <time>2026-04-25T14:38:33Z</time>
      </trkpt>
      <trkpt lat="59.062693119049072" lon="30.010313987731934">
        <time>2026-04-25T14:38:35Z</time>
      </trkpt>
      <trkpt lat="59.062714576721191" lon="30.010313987731934">
        <time>2026-04-25T14:38:38Z</time>
      </trkpt>
      <trkpt lat="59.062714576721191" lon="30.010313987731934">
        <time>2026-04-25T14:38:40Z</time>
      </trkpt>
      <trkpt lat="59.062714576721191" lon="30.010313987731934">
        <time>2026-04-25T14:38:43Z</time>
      </trkpt>
      <trkpt lat="59.062736034393311" lon="30.010271072387695">
        <time>2026-04-25T14:38:45Z</time>
      </trkpt>
      <trkpt lat="59.062736034393311" lon="30.010249614715576">
        <time>2026-04-25T14:38:48Z</time>
      </trkpt>
      <trkpt lat="59.062736034393311" lon="30.010206699371338">
        <time>2026-04-25T14:38:50Z</time>
      </trkpt>
      <trkpt lat="59.062736034393311" lon="30.010185241699219">
        <time>2026-04-25T14:38:53Z</time>
      </trkpt>
      <trkpt lat="59.06275749206543" lon="30.01014232635498">
        <time>2026-04-25T14:38:55Z</time>
      </trkpt>
      <trkpt lat="59.06275749206543" lon="30.010077953338623">
        <time>2026-04-25T14:38:58Z</time>
      </trkpt>
      <trkpt lat="59.06275749206543" lon="30.010056495666504">
        <time>2026-04-25T14:39:00Z</time>
      </trkpt>
      <trkpt lat="59.06275749206543" lon="30.010056495666504">
        <time>2026-04-25T14:39:03Z</time>
      </trkpt>
      <trkpt lat="59.062778949737549" lon="30.010013580322266">
        <time>2026-04-25T14:39:05Z</time>
      </trkpt>
      <trkpt lat="59.062778949737549" lon="30.009992122650146">
        <time>2026-04-25T14:39:08Z</time>
      </trkpt>
      <trkpt lat="59.062800407409668" lon="30.009970664978027">
        <time>2026-04-25T14:39:10Z</time>
      </trkpt>
      <trkpt lat="59.062821865081787" lon="30.009970664978027">
        <time>2026-04-25T14:39:13Z</time>
      </trkpt>
      <trkpt lat="59.062843322753906" lon="30.009949207305908">
        <time>2026-04-25T14:39:15Z</time>
      </trkpt>
      <trkpt lat="59.062821865081787" lon="30.00990629196167">
        <time>2026-04-25T14:39:18Z</time>
      </trkpt>
      <trkpt lat="59.062864780426025" lon="30.009863376617432">
        <time>2026-04-25T14:39:20Z</time>
      </trkpt>
      <trkpt lat="59.062886238098145" lon="30.009841918945313">
        <time>2026-04-25T14:39:23Z</time>
      </trkpt>
      <trkpt lat="59.062886238098145" lon="30.009799003601074">
        <time>2026-04-25T14:39:25Z</time>
      </trkpt>
      <trkpt lat="59.062929153442383" lon="30.009756088256836">
        <time>2026-04-25T14:39:28Z</time>
      </trkpt>
      <trkpt lat="59.062929153442383" lon="30.009734630584717">
        <time>2026-04-25T14:39:30Z</time>
      </trkpt>
      <trkpt lat="59.062950611114502" lon="30.009734630584717">
        <time>2026-04-25T14:39:33Z</time>
      </trkpt>
      <trkpt lat="59.062972068786621" lon="30.009734630584717">
        <time>2026-04-25T14:39:35Z</time>
      </trkpt>
      <trkpt lat="59.062972068786621" lon="30.009713172912598">
        <time>2026-04-25T14:39:38Z</time>
      </trkpt>
      <trkpt lat="59.062972068786621" lon="30.009713172912598">
        <time>2026-04-25T14:39:40Z</time>
      </trkpt>
      <trkpt lat="59.062972068786621" lon="30.009713172912598">
        <time>2026-04-25T14:39:43Z</time>
      </trkpt>
      <trkpt lat="59.062972068786621" lon="30.009713172912598">
        <time>2026-04-25T14:39:45Z</time>
      </trkpt>
      <trkpt lat="59.06299352645874" lon="30.009691715240479">
        <time>2026-04-25T14:39:48Z</time>
      </trkpt>
      <trkpt lat="59.06299352645874" lon="30.009691715240479">
        <time>2026-04-25T14:39:50Z</time>
      </trkpt>
      <trkpt lat="59.063014984130859" lon="30.009691715240479">
        <time>2026-04-25T14:39:53Z</time>
      </trkpt>
      <trkpt lat="59.063014984130859" lon="30.009713172912598">
        <time>2026-04-25T14:39:55Z</time>
      </trkpt>
      <trkpt lat="59.063014984130859" lon="30.009713172912598">
        <time>2026-04-25T14:39:58Z</time>
      </trkpt>
      <trkpt lat="59.063014984130859" lon="30.009713172912598">
        <time>2026-04-25T14:40:00Z</time>
      </trkpt>
      <trkpt lat="59.063014984130859" lon="30.009713172912598">
        <time>2026-04-25T14:40:03Z</time>
      </trkpt>
      <trkpt lat="59.063057899475098" lon="30.009713172912598">
        <time>2026-04-25T14:40:05Z</time>
      </trkpt>
      <trkpt lat="59.063079357147217" lon="30.009713172912598">
        <time>2026-04-25T14:40:08Z</time>
      </trkpt>
      <trkpt lat="59.063122272491455" lon="30.009713172912598">
        <time>2026-04-25T14:40:10Z</time>
      </trkpt>
      <trkpt lat="59.063165187835693" lon="30.009734630584717">
        <time>2026-04-25T14:40:13Z</time>
      </trkpt>
      <trkpt lat="59.063186645507813" lon="30.009691715240479">
        <time>2026-04-25T14:40:15Z</time>
      </trkpt>
      <trkpt lat="59.063229560852051" lon="30.009670257568359">
        <time>2026-04-25T14:40:18Z</time>
      </trkpt>
      <trkpt lat="59.063229560852051" lon="30.00964879989624">
        <time>2026-04-25T14:40:20Z</time>
      </trkpt>
      <trkpt lat="59.06325101852417" lon="30.009627342224121">
        <time>2026-04-25T14:40:23Z</time>
      </trkpt>
      <trkpt lat="59.063293933868408" lon="30.009605884552002">
        <time>2026-04-25T14:40:25Z</time>
      </trkpt>
      <trkpt lat="59.063315391540527" lon="30.009584426879883">
        <time>2026-04-25T14:40:28Z</time>
      </trkpt>
      <trkpt lat="59.063336849212646" lon="30.009584426879883">
        <time>2026-04-25T14:40:30Z</time>
      </trkpt>
      <trkpt lat="59.063358306884766" lon="30.009584426879883">
        <time>2026-04-25T14:40:33Z</time>
      </trkpt>
      <trkpt lat="59.063401222229004" lon="30.009562969207764">
        <time>2026-04-25T14:40:35Z</time>
      </trkpt>
      <trkpt lat="59.063401222229004" lon="30.009520053863525">
        <time>2026-04-25T14:40:38Z</time>
      </trkpt>
      <trkpt lat="59.063422679901123" lon="30.009477138519287">
        <time>2026-04-25T14:40:40Z</time>
      </trkpt>
      <trkpt lat="59.063444137573242" lon="30.009455680847168">
        <time>2026-04-25T14:40:43Z</time>
      </trkpt>
      <trkpt lat="59.063465595245361" lon="30.009477138519287">
        <time>2026-04-25T14:40:45Z</time>
      </trkpt>
      <trkpt lat="59.06348705291748" lon="30.009434223175049">
        <time>2026-04-25T14:40:48Z</time>
      </trkpt>
      <trkpt lat="59.06348705291748" lon="30.009434223175049">
        <time>2026-04-25T14:40:50Z</time>
      </trkpt>
      <trkpt lat="59.0635085105896" lon="30.009434223175049">
        <time>2026-04-25T14:40:53Z</time>
      </trkpt>
      <trkpt lat="59.063551425933838" lon="30.009391307830811">
        <time>2026-04-25T14:40:55Z</time>
      </trkpt>
      <trkpt lat="59.063551425933838" lon="30.009369850158691">
        <time>2026-04-25T14:40:58Z</time>
      </trkpt>
      <trkpt lat="59.063615798950195" lon="30.009348392486572">
        <time>2026-04-25T14:41:00Z</time>
      </trkpt>
      <trkpt lat="59.063637256622314" lon="30.009305477142334">
        <time>2026-04-25T14:41:03Z</time>
      </trkpt>
      <trkpt lat="59.063658714294434" lon="30.009305477142334">
        <time>2026-04-25T14:41:05Z</time>
      </trkpt>
      <trkpt lat="59.063658714294434" lon="30.009284019470215">
        <time>2026-04-25T14:41:08Z</time>
      </trkpt>
      <trkpt lat="59.063680171966553" lon="30.009284019470215">
        <time>2026-04-25T14:41:10Z</time>
      </trkpt>
      <trkpt lat="59.063680171966553" lon="30.009262561798096">
        <time>2026-04-25T14:41:13Z</time>
      </trkpt>
      <trkpt lat="59.063723087310791" lon="30.009241104125977">
        <time>2026-04-25T14:41:15Z</time>
      </trkpt>
      <trkpt lat="59.06374454498291" lon="30.009219646453857">
        <time>2026-04-25T14:41:18Z</time>
      </trkpt>
      <trkpt lat="59.063766002655029" lon="30.009219646453857">
        <time>2026-04-25T14:41:20Z</time>
      </trkpt>
      <trkpt lat="59.063787460327148" lon="30.009198188781738">
        <time>2026-04-25T14:41:23Z</time>
      </trkpt>
      <trkpt lat="59.063851833343506" lon="30.009219646453857">
        <time>2026-04-25T14:41:25Z</time>
      </trkpt>
      <trkpt lat="59.063873291015625" lon="30.009219646453857">
        <time>2026-04-25T14:41:28Z</time>
      </trkpt>
      <trkpt lat="59.063873291015625" lon="30.009219646453857">
        <time>2026-04-25T14:41:30Z</time>
      </trkpt>
      <trkpt lat="59.063894748687744" lon="30.009241104125977">
        <time>2026-04-25T14:41:33Z</time>
      </trkpt>
      <trkpt lat="59.063894748687744" lon="30.009262561798096">
        <time>2026-04-25T14:41:35Z</time>
      </trkpt>
      <trkpt lat="59.063916206359863" lon="30.009262561798096">
        <time>2026-04-25T14:41:38Z</time>
      </trkpt>
      <trkpt lat="59.063959121704102" lon="30.009241104125977">
        <time>2026-04-25T14:41:40Z</time>
      </trkpt>
      <trkpt lat="59.063959121704102" lon="30.009241104125977">
        <time>2026-04-25T14:41:43Z</time>
      </trkpt>
      <trkpt lat="59.063959121704102" lon="30.009241104125977">
        <time>2026-04-25T14:41:45Z</time>
      </trkpt>
      <trkpt lat="59.06400203704834" lon="30.009219646453857">
        <time>2026-04-25T14:41:48Z</time>
      </trkpt>
      <trkpt lat="59.064044952392578" lon="30.009198188781738">
        <time>2026-04-25T14:41:50Z</time>
      </trkpt>
      <trkpt lat="59.064066410064697" lon="30.009176731109619">
        <time>2026-04-25T14:41:53Z</time>
      </trkpt>
      <trkpt lat="59.064087867736816" lon="30.009176731109619">
        <time>2026-04-25T14:41:55Z</time>
      </trkpt>
      <trkpt lat="59.064130783081055" lon="30.0091552734375">
        <time>2026-04-25T14:41:58Z</time>
      </trkpt>
      <trkpt lat="59.064152240753174" lon="30.009112358093262">
        <time>2026-04-25T14:42:00Z</time>
      </trkpt>
      <trkpt lat="59.064173698425293" lon="30.009090900421143">
        <time>2026-04-25T14:42:03Z</time>
      </trkpt>
      <trkpt lat="59.064195156097412" lon="30.009069442749023">
        <time>2026-04-25T14:42:05Z</time>
      </trkpt>
      <trkpt lat="59.06423807144165" lon="30.009047985076904">
        <time>2026-04-25T14:42:08Z</time>
      </trkpt>
      <trkpt lat="59.064280986785889" lon="30.009026527404785">
        <time>2026-04-25T14:42:10Z</time>
      </trkpt>
      <trkpt lat="59.064302444458008" lon="30.009026527404785">
        <time>2026-04-25T14:42:13Z</time>
      </trkpt>
      <trkpt lat="59.064302444458008" lon="30.009026527404785">
        <time>2026-04-25T14:42:15Z</time>
      </trkpt>
      <trkpt lat="59.064280986785889" lon="30.009026527404785">
        <time>2026-04-25T14:42:18Z</time>
      </trkpt>
      <trkpt lat="59.064323902130127" lon="30.009005069732666">
        <time>2026-04-25T14:42:20Z</time>
      </trkpt>
      <trkpt lat="59.064345359802246" lon="30.008962154388428">
        <time>2026-04-25T14:42:23Z</time>
      </trkpt>
      <trkpt lat="59.064388275146484" lon="30.008940696716309">
        <time>2026-04-25T14:42:25Z</time>
      </trkpt>
      <trkpt lat="59.064409732818604" lon="30.008919239044189">
        <time>2026-04-25T14:42:28Z</time>
      </trkpt>
      <trkpt lat="59.064452648162842" lon="30.008876323699951">
        <time>2026-04-25T14:42:30Z</time>
      </trkpt>
      <trkpt lat="59.064474105834961" lon="30.008876323699951">
        <time>2026-04-25T14:42:33Z</time>
      </trkpt>
      <trkpt lat="59.06449556350708" lon="30.008854866027832">
        <time>2026-04-25T14:42:35Z</time>
      </trkpt>
      <trkpt lat="59.064517021179199" lon="30.008854866027832">
        <time>2026-04-25T14:42:38Z</time>
      </trkpt>
      <trkpt lat="59.064538478851318" lon="30.008833408355713">
        <time>2026-04-25T14:42:40Z</time>
      </trkpt>
      <trkpt lat="59.064559936523438" lon="30.008811950683594">
        <time>2026-04-25T14:42:43Z</time>
      </trkpt>
      <trkpt lat="59.064581394195557" lon="30.008811950683594">
        <time>2026-04-25T14:42:45Z</time>
      </trkpt>
      <trkpt lat="59.064602851867676" lon="30.008790493011475">
        <time>2026-04-25T14:42:48Z</time>
      </trkpt>
      <trkpt lat="59.064624309539795" lon="30.008769035339355">
        <time>2026-04-25T14:42:50Z</time>
      </trkpt>
      <trkpt lat="59.064645767211914" lon="30.008726119995117">
        <time>2026-04-25T14:42:53Z</time>
      </trkpt>
      <trkpt lat="59.064667224884033" lon="30.008704662322998">
        <time>2026-04-25T14:42:55Z</time>
      </trkpt>
      <trkpt lat="59.064667224884033" lon="30.008704662322998">
        <time>2026-04-25T14:42:58Z</time>
      </trkpt>
      <trkpt lat="59.064645767211914" lon="30.008683204650879">
        <time>2026-04-25T14:43:00Z</time>
      </trkpt>
      <trkpt lat="59.064645767211914" lon="30.008704662322998">
        <time>2026-04-25T14:43:03Z</time>
      </trkpt>
      <trkpt lat="59.064624309539795" lon="30.008704662322998">
        <time>2026-04-25T14:43:05Z</time>
      </trkpt>
      <trkpt lat="59.064602851867676" lon="30.008726119995117">
        <time>2026-04-25T14:43:08Z</time>
      </trkpt>
      <trkpt lat="59.064559936523438" lon="30.008704662322998">
        <time>2026-04-25T14:43:10Z</time>
      </trkpt>
      <trkpt lat="59.064538478851318" lon="30.008704662322998">
        <time>2026-04-25T14:43:13Z</time>
      </trkpt>
      <trkpt lat="59.064517021179199" lon="30.008704662322998">
        <time>2026-04-25T14:43:15Z</time>
      </trkpt>
      <trkpt lat="59.064517021179199" lon="30.008683204650879">
        <time>2026-04-25T14:43:18Z</time>
      </trkpt>
      <trkpt lat="59.06449556350708" lon="30.008683204650879">
        <time>2026-04-25T14:43:20Z</time>
      </trkpt>
      <trkpt lat="59.06449556350708" lon="30.008704662322998">
        <time>2026-04-25T14:43:23Z</time>
      </trkpt>
      <trkpt lat="59.064474105834961" lon="30.008726119995117">
        <time>2026-04-25T14:43:25Z</time>
      </trkpt>
      <trkpt lat="59.06449556350708" lon="30.008747577667236">
        <time>2026-04-25T14:43:28Z</time>
      </trkpt>
      <trkpt lat="59.06449556350708" lon="30.008769035339355">
        <time>2026-04-25T14:43:30Z</time>
      </trkpt>
      <trkpt lat="59.06449556350708" lon="30.008769035339355">
        <time>2026-04-25T14:43:33Z</time>
      </trkpt>
      <trkpt lat="59.06449556350708" lon="30.008769035339355">
        <time>2026-04-25T14:43:35Z</time>
      </trkpt>
      <trkpt lat="59.06449556350708" lon="30.008769035339355">
        <time>2026-04-25T14:43:38Z</time>
      </trkpt>
      <trkpt lat="59.06449556350708" lon="30.008769035339355">
        <time>2026-04-25T14:43:40Z</time>
      </trkpt>
      <trkpt lat="59.06449556350708" lon="30.008769035339355">
        <time>2026-04-25T14:43:43Z</time>
      </trkpt>
      <trkpt lat="59.06449556350708" lon="30.008769035339355">
        <time>2026-04-25T14:43:45Z</time>
      </trkpt>
      <trkpt lat="59.064474105834961" lon="30.008769035339355">
        <time>2026-04-25T14:43:48Z</time>
      </trkpt>
      <trkpt lat="59.064431190490723" lon="30.008790493011475">
        <time>2026-04-25T14:43:50Z</time>
      </trkpt>
      <trkpt lat="59.064409732818604" lon="30.008833408355713">
        <time>2026-04-25T14:43:53Z</time>
      </trkpt>
      <trkpt lat="59.064366817474365" lon="30.008919239044189">
        <time>2026-04-25T14:43:55Z</time>
      </trkpt>
      <trkpt lat="59.064302444458008" lon="30.008983612060547">
        <time>2026-04-25T14:43:58Z</time>
      </trkpt>
      <trkpt lat="59.064280986785889" lon="30.009005069732666">
        <time>2026-04-25T14:44:00Z</time>
      </trkpt>
      <trkpt lat="59.06423807144165" lon="30.008983612060547">
        <time>2026-04-25T14:44:03Z</time>
      </trkpt>
      <trkpt lat="59.06423807144165" lon="30.008983612060547">
        <time>2026-04-25T14:44:05Z</time>
      </trkpt>
      <trkpt lat="59.06423807144165" lon="30.008983612060547">
        <time>2026-04-25T14:44:08Z</time>
      </trkpt>
      <trkpt lat="59.06423807144165" lon="30.008983612060547">
        <time>2026-04-25T14:44:10Z</time>
      </trkpt>
      <trkpt lat="59.06423807144165" lon="30.008983612060547">
        <time>2026-04-25T14:44:13Z</time>
      </trkpt>
      <trkpt lat="59.06423807144165" lon="30.008983612060547">
        <time>2026-04-25T14:44:15Z</time>
      </trkpt>
      <trkpt lat="59.06423807144165" lon="30.008983612060547">
        <time>2026-04-25T14:44:18Z</time>
      </trkpt>
      <trkpt lat="59.06423807144165" lon="30.008983612060547">
        <time>2026-04-25T14:44:20Z</time>
      </trkpt>
      <trkpt lat="59.064302444458008" lon="30.008940696716309">
        <time>2026-04-25T14:44:23Z</time>
      </trkpt>
      <trkpt lat="59.064280986785889" lon="30.008919239044189">
        <time>2026-04-25T14:44:25Z</time>
      </trkpt>
      <trkpt lat="59.064302444458008" lon="30.008919239044189">
        <time>2026-04-25T14:44:28Z</time>
      </trkpt>
      <trkpt lat="59.064302444458008" lon="30.008919239044189">
        <time>2026-04-25T14:44:30Z</time>
      </trkpt>
      <trkpt lat="59.064302444458008" lon="30.008962154388428">
        <time>2026-04-25T14:44:33Z</time>
      </trkpt>
      <trkpt lat="59.064302444458008" lon="30.008962154388428">
        <time>2026-04-25T14:44:35Z</time>
      </trkpt>
      <trkpt lat="59.064302444458008" lon="30.008962154388428">
        <time>2026-04-25T14:44:38Z</time>
      </trkpt>
      <trkpt lat="59.064302444458008" lon="30.008962154388428">
        <time>2026-04-25T14:44:40Z</time>
      </trkpt>
      <trkpt lat="59.064302444458008" lon="30.008962154388428">
        <time>2026-04-25T14:44:43Z</time>
      </trkpt>
      <trkpt lat="59.064302444458008" lon="30.008962154388428">
        <time>2026-04-25T14:44:45Z</time>
      </trkpt>
      <trkpt lat="59.064302444458008" lon="30.008962154388428">
        <time>2026-04-25T14:44:48Z</time>
      </trkpt>
      <trkpt lat="59.064302444458008" lon="30.008962154388428">
        <time>2026-04-25T14:44:50Z</time>
      </trkpt>
      <trkpt lat="59.064302444458008" lon="30.008962154388428">
        <time>2026-04-25T14:44:53Z</time>
      </trkpt>
      <trkpt lat="59.064302444458008" lon="30.008962154388428">
        <time>2026-04-25T14:44:55Z</time>
      </trkpt>
      <trkpt lat="59.064302444458008" lon="30.008962154388428">
        <time>2026-04-25T14:44:58Z</time>
      </trkpt>
      <trkpt lat="59.064280986785889" lon="30.008983612060547">
        <time>2026-04-25T14:45:00Z</time>
      </trkpt>
      <trkpt lat="59.06425952911377" lon="30.009005069732666">
        <time>2026-04-25T14:45:03Z</time>
      </trkpt>
      <trkpt lat="59.06423807144165" lon="30.008983612060547">
        <time>2026-04-25T14:45:05Z</time>
      </trkpt>
      <trkpt lat="59.06423807144165" lon="30.009005069732666">
        <time>2026-04-25T14:45:08Z</time>
      </trkpt>
      <trkpt lat="59.06423807144165" lon="30.009005069732666">
        <time>2026-04-25T14:45:10Z</time>
      </trkpt>
      <trkpt lat="59.06423807144165" lon="30.009005069732666">
        <time>2026-04-25T14:45:13Z</time>
      </trkpt>
      <trkpt lat="59.06423807144165" lon="30.009005069732666">
        <time>2026-04-25T14:45:15Z</time>
      </trkpt>
      <trkpt lat="59.06423807144165" lon="30.009005069732666">
        <time>2026-04-25T14:45:18Z</time>
      </trkpt>
      <trkpt lat="59.06423807144165" lon="30.009005069732666">
        <time>2026-04-25T14:45:20Z</time>
      </trkpt>
      <trkpt lat="59.06423807144165" lon="30.009005069732666">
        <time>2026-04-25T14:45:23Z</time>
      </trkpt>
      <trkpt lat="59.06423807144165" lon="30.009005069732666">
        <time>2026-04-25T14:45:25Z</time>
      </trkpt>
      <trkpt lat="59.06423807144165" lon="30.009005069732666">
        <time>2026-04-25T14:45:28Z</time>
      </trkpt>
      <trkpt lat="59.06423807144165" lon="30.009005069732666">
        <time>2026-04-25T14:45:30Z</time>
      </trkpt>
      <trkpt lat="59.06423807144165" lon="30.009005069732666">
        <time>2026-04-25T14:45:33Z</time>
      </trkpt>
      <trkpt lat="59.06423807144165" lon="30.009005069732666">
        <time>2026-04-25T14:45:35Z</time>
      </trkpt>
      <trkpt lat="59.064216613769531" lon="30.009026527404785">
        <time>2026-04-25T14:45:38Z</time>
      </trkpt>
      <trkpt lat="59.064195156097412" lon="30.009069442749023">
        <time>2026-04-25T14:45:40Z</time>
      </trkpt>
      <trkpt lat="59.064195156097412" lon="30.009090900421143">
        <time>2026-04-25T14:45:43Z</time>
      </trkpt>
      <trkpt lat="59.064195156097412" lon="30.0091552734375">
        <time>2026-04-25T14:45:45Z</time>
      </trkpt>
      <trkpt lat="59.064195156097412" lon="30.0091552734375">
        <time>2026-04-25T14:45:48Z</time>
      </trkpt>
      <trkpt lat="59.064195156097412" lon="30.0091552734375">
        <time>2026-04-25T14:45:50Z</time>
      </trkpt>
      <trkpt lat="59.064195156097412" lon="30.0091552734375">
        <time>2026-04-25T14:45:53Z</time>
      </trkpt>
      <trkpt lat="59.064195156097412" lon="30.0091552734375">
        <time>2026-04-25T14:45:55Z</time>
      </trkpt>
      <trkpt lat="59.064195156097412" lon="30.0091552734375">
        <time>2026-04-25T14:45:58Z</time>
      </trkpt>
      <trkpt lat="59.064195156097412" lon="30.0091552734375">
        <time>2026-04-25T14:46:00Z</time>
      </trkpt>
      <trkpt lat="59.064195156097412" lon="30.0091552734375">
        <time>2026-04-25T14:46:03Z</time>
      </trkpt>
      <trkpt lat="59.064195156097412" lon="30.0091552734375">
        <time>2026-04-25T14:46:05Z</time>
      </trkpt>
      <trkpt lat="59.064195156097412" lon="30.0091552734375">
        <time>2026-04-25T14:46:08Z</time>
      </trkpt>
      <trkpt lat="59.064195156097412" lon="30.0091552734375">
        <time>2026-04-25T14:46:10Z</time>
      </trkpt>
      <trkpt lat="59.064173698425293" lon="30.009176731109619">
        <time>2026-04-25T14:46:13Z</time>
      </trkpt>
      <trkpt lat="59.064152240753174" lon="30.009219646453857">
        <time>2026-04-25T14:46:15Z</time>
      </trkpt>
      <trkpt lat="59.064152240753174" lon="30.009241104125977">
        <time>2026-04-25T14:46:18Z</time>
      </trkpt>
      <trkpt lat="59.064130783081055" lon="30.009262561798096">
        <time>2026-04-25T14:46:20Z</time>
      </trkpt>
      <trkpt lat="59.064130783081055" lon="30.009262561798096">
        <time>2026-04-25T14:46:23Z</time>
      </trkpt>
      <trkpt lat="59.064130783081055" lon="30.009262561798096">
        <time>2026-04-25T14:46:25Z</time>
      </trkpt>
      <trkpt lat="59.064109325408936" lon="30.009262561798096">
        <time>2026-04-25T14:46:28Z</time>
      </trkpt>
      <trkpt lat="59.064087867736816" lon="30.009305477142334">
        <time>2026-04-25T14:46:30Z</time>
      </trkpt>
      <trkpt lat="59.064066410064697" lon="30.009326934814453">
        <time>2026-04-25T14:46:33Z</time>
      </trkpt>
      <trkpt lat="59.064044952392578" lon="30.009348392486572">
        <time>2026-04-25T14:46:35Z</time>
      </trkpt>
      <trkpt lat="59.064023494720459" lon="30.009369850158691">
        <time>2026-04-25T14:46:38Z</time>
      </trkpt>
      <trkpt lat="59.063980579376221" lon="30.00941276550293">
        <time>2026-04-25T14:46:40Z</time>
      </trkpt>
      <trkpt lat="59.063980579376221" lon="30.009434223175049">
        <time>2026-04-25T14:46:43Z</time>
      </trkpt>
      <trkpt lat="59.063959121704102" lon="30.009477138519287">
        <time>2026-04-25T14:46:45Z</time>
      </trkpt>
      <trkpt lat="59.063937664031982" lon="30.009498596191406">
        <time>2026-04-25T14:46:48Z</time>
      </trkpt>
      <trkpt lat="59.063916206359863" lon="30.009520053863525">
        <time>2026-04-25T14:46:50Z</time>
      </trkpt>
      <trkpt lat="59.063894748687744" lon="30.009541511535645">
        <time>2026-04-25T14:46:53Z</time>
      </trkpt>
      <trkpt lat="59.063873291015625" lon="30.009584426879883">
        <time>2026-04-25T14:46:55Z</time>
      </trkpt>
      <trkpt lat="59.063851833343506" lon="30.009605884552002">
        <time>2026-04-25T14:46:58Z</time>
      </trkpt>
      <trkpt lat="59.063830375671387" lon="30.00964879989624">
        <time>2026-04-25T14:47:00Z</time>
      </trkpt>
      <trkpt lat="59.063787460327148" lon="30.009670257568359">
        <time>2026-04-25T14:47:03Z</time>
      </trkpt>
      <trkpt lat="59.063766002655029" lon="30.009691715240479">
        <time>2026-04-25T14:47:05Z</time>
      </trkpt>
      <trkpt lat="59.06374454498291" lon="30.009713172912598">
        <time>2026-04-25T14:47:08Z</time>
      </trkpt>
      <trkpt lat="59.06374454498291" lon="30.009734630584717">
        <time>2026-04-25T14:47:10Z</time>
      </trkpt>
      <trkpt lat="59.063723087310791" lon="30.009777545928955">
        <time>2026-04-25T14:47:13Z</time>
      </trkpt>
      <trkpt lat="59.063680171966553" lon="30.009777545928955">
        <time>2026-04-25T14:47:15Z</time>
      </trkpt>
      <trkpt lat="59.063658714294434" lon="30.009820461273193">
        <time>2026-04-25T14:47:18Z</time>
      </trkpt>
      <trkpt lat="59.063658714294434" lon="30.009841918945313">
        <time>2026-04-25T14:47:20Z</time>
      </trkpt>
      <trkpt lat="59.063637256622314" lon="30.009863376617432">
        <time>2026-04-25T14:47:23Z</time>
      </trkpt>
      <trkpt lat="59.063594341278076" lon="30.009884834289551">
        <time>2026-04-25T14:47:25Z</time>
      </trkpt>
      <trkpt lat="59.063572883605957" lon="30.00990629196167">
        <time>2026-04-25T14:47:28Z</time>
      </trkpt>
      <trkpt lat="59.063551425933838" lon="30.00990629196167">
        <time>2026-04-25T14:47:30Z</time>
      </trkpt>
      <trkpt lat="59.063529968261719" lon="30.009949207305908">
        <time>2026-04-25T14:47:33Z</time>
      </trkpt>
      <trkpt lat="59.0635085105896" lon="30.009949207305908">
        <time>2026-04-25T14:47:35Z</time>
      </trkpt>
      <trkpt lat="59.063465595245361" lon="30.009949207305908">
        <time>2026-04-25T14:47:38Z</time>
      </trkpt>
      <trkpt lat="59.063422679901123" lon="30.009970664978027">
        <time>2026-04-25T14:47:40Z</time>
      </trkpt>
      <trkpt lat="59.063379764556885" lon="30.010013580322266">
        <time>2026-04-25T14:47:43Z</time>
      </trkpt>
      <trkpt lat="59.063358306884766" lon="30.010056495666504">
        <time>2026-04-25T14:47:45Z</time>
      </trkpt>
      <trkpt lat="59.063336849212646" lon="30.010056495666504">
        <time>2026-04-25T14:47:48Z</time>
      </trkpt>
      <trkpt lat="59.063315391540527" lon="30.010035037994385">
        <time>2026-04-25T14:47:50Z</time>
      </trkpt>
      <trkpt lat="59.063272476196289" lon="30.010035037994385">
        <time>2026-04-25T14:47:53Z</time>
      </trkpt>
      <trkpt lat="59.06325101852417" lon="30.010056495666504">
        <time>2026-04-25T14:47:55Z</time>
      </trkpt>
      <trkpt lat="59.063229560852051" lon="30.010056495666504">
        <time>2026-04-25T14:47:58Z</time>
      </trkpt>
      <trkpt lat="59.063208103179932" lon="30.010077953338623">
        <time>2026-04-25T14:48:00Z</time>
      </trkpt>
      <trkpt lat="59.063165187835693" lon="30.010099411010742">
        <time>2026-04-25T14:48:03Z</time>
      </trkpt>
      <trkpt lat="59.063143730163574" lon="30.010120868682861">
        <time>2026-04-25T14:48:05Z</time>
      </trkpt>
      <trkpt lat="59.063143730163574" lon="30.010099411010742">
        <time>2026-04-25T14:48:08Z</time>
      </trkpt>
      <trkpt lat="59.063143730163574" lon="30.010099411010742">
        <time>2026-04-25T14:48:10Z</time>
      </trkpt>
      <trkpt lat="59.063143730163574" lon="30.010120868682861">
        <time>2026-04-25T14:48:13Z</time>
      </trkpt>
      <trkpt lat="59.063122272491455" lon="30.010120868682861">
        <time>2026-04-25T14:48:15Z</time>
      </trkpt>
      <trkpt lat="59.063122272491455" lon="30.01014232635498">
        <time>2026-04-25T14:48:18Z</time>
      </trkpt>
      <trkpt lat="59.063122272491455" lon="30.0101637840271">
        <time>2026-04-25T14:48:20Z</time>
      </trkpt>
      <trkpt lat="59.063122272491455" lon="30.0101637840271">
        <time>2026-04-25T14:48:23Z</time>
      </trkpt>
      <trkpt lat="59.063122272491455" lon="30.0101637840271">
        <time>2026-04-25T14:48:25Z</time>
      </trkpt>
      <trkpt lat="59.063100814819336" lon="30.010185241699219">
        <time>2026-04-25T14:48:28Z</time>
      </trkpt>
      <trkpt lat="59.063057899475098" lon="30.010228157043457">
        <time>2026-04-25T14:48:30Z</time>
      </trkpt>
      <trkpt lat="59.063057899475098" lon="30.010271072387695">
        <time>2026-04-25T14:48:33Z</time>
      </trkpt>
      <trkpt lat="59.063057899475098" lon="30.010271072387695">
        <time>2026-04-25T14:48:35Z</time>
      </trkpt>
      <trkpt lat="59.063057899475098" lon="30.010313987731934">
        <time>2026-04-25T14:48:38Z</time>
      </trkpt>
      <trkpt lat="59.063036441802979" lon="30.010378360748291">
        <time>2026-04-25T14:48:40Z</time>
      </trkpt>
      <trkpt lat="59.06299352645874" lon="30.010442733764648">
        <time>2026-04-25T14:48:43Z</time>
      </trkpt>
    </trkseg>
  </trk>

</gpx>